<?xml version="1.0" encoding="UTF-8" standalone="no" ?>
<gpx xmlns="http://www.topografix.com/GPX/1/1" xmlns:xsi="http://www.w3.org/2001/XMLSchema-instance" xsi:schemaLocation="http://www.topografix.com/GPX/1/1 http://www.topografix.com/GPX/1/1/gpx.xsd" version="1.1" creator="VisuGPX - https://www.visugpx.com">
  <metadata>
    <name>Mont Llaret (2.370 m) - Versant Sud</name>
    <desc><![CDATA[Départ des Angles (Pyrénées Orientales)]]></desc>
  </metadata>
  <trk>
    <name><![CDATA[Mont Llaret (2.370 m) - Versant Sud_1]]></name>
    <trkseg>
      <trkpt lat="42.57828" lon="2.07565">
        <ele>1631</ele>
        <time>2020-07-25T06:46:19.000Z</time>
      </trkpt>
      <trkpt lat="42.57827" lon="2.07563">
        <ele>1632</ele>
        <time>2020-07-25T06:46:20.000Z</time>
      </trkpt>
      <trkpt lat="42.57826" lon="2.07561">
        <ele>1633</ele>
        <time>2020-07-25T06:46:21.000Z</time>
      </trkpt>
      <trkpt lat="42.57825" lon="2.07559">
        <ele>1634</ele>
        <time>2020-07-25T06:46:22.000Z</time>
      </trkpt>
      <trkpt lat="42.57823" lon="2.07557">
        <ele>1635</ele>
        <time>2020-07-25T06:46:23.000Z</time>
      </trkpt>
      <trkpt lat="42.57822" lon="2.07555">
        <ele>1636</ele>
        <time>2020-07-25T06:46:24.000Z</time>
      </trkpt>
      <trkpt lat="42.57821" lon="2.07552">
        <ele>1636</ele>
        <time>2020-07-25T06:46:25.000Z</time>
      </trkpt>
      <trkpt lat="42.57821" lon="2.07549">
        <ele>1636</ele>
        <time>2020-07-25T06:46:26.000Z</time>
      </trkpt>
      <trkpt lat="42.5782" lon="2.07546">
        <ele>1637</ele>
        <time>2020-07-25T06:46:27.000Z</time>
      </trkpt>
      <trkpt lat="42.57819" lon="2.07544">
        <ele>1637</ele>
        <time>2020-07-25T06:46:28.000Z</time>
      </trkpt>
      <trkpt lat="42.57818" lon="2.07542">
        <ele>1637</ele>
        <time>2020-07-25T06:46:29.000Z</time>
      </trkpt>
      <trkpt lat="42.57816" lon="2.0754">
        <ele>1637</ele>
        <time>2020-07-25T06:46:30.000Z</time>
      </trkpt>
      <trkpt lat="42.57813" lon="2.07536">
        <ele>1635</ele>
        <time>2020-07-25T06:46:31.000Z</time>
      </trkpt>
      <trkpt lat="42.5781" lon="2.07533">
        <ele>1635</ele>
        <time>2020-07-25T06:46:32.000Z</time>
      </trkpt>
      <trkpt lat="42.57807" lon="2.0753">
        <ele>1636</ele>
        <time>2020-07-25T06:46:33.000Z</time>
      </trkpt>
      <trkpt lat="42.57804" lon="2.07527">
        <ele>1636</ele>
        <time>2020-07-25T06:46:34.000Z</time>
      </trkpt>
      <trkpt lat="42.57801" lon="2.07524">
        <ele>1636</ele>
        <time>2020-07-25T06:46:35.000Z</time>
      </trkpt>
      <trkpt lat="42.57798" lon="2.0752">
        <ele>1635</ele>
        <time>2020-07-25T06:46:36.000Z</time>
      </trkpt>
      <trkpt lat="42.57796" lon="2.07517">
        <ele>1635</ele>
        <time>2020-07-25T06:46:37.000Z</time>
      </trkpt>
      <trkpt lat="42.57793" lon="2.07513">
        <ele>1636</ele>
        <time>2020-07-25T06:46:38.000Z</time>
      </trkpt>
      <trkpt lat="42.57792" lon="2.0751">
        <ele>1637</ele>
        <time>2020-07-25T06:46:39.000Z</time>
      </trkpt>
      <trkpt lat="42.57791" lon="2.07506">
        <ele>1638</ele>
        <time>2020-07-25T06:46:40.000Z</time>
      </trkpt>
      <trkpt lat="42.5779" lon="2.07503">
        <ele>1639</ele>
        <time>2020-07-25T06:46:41.000Z</time>
      </trkpt>
      <trkpt lat="42.57789" lon="2.07499">
        <ele>1639</ele>
        <time>2020-07-25T06:46:42.000Z</time>
      </trkpt>
      <trkpt lat="42.57787" lon="2.07496">
        <ele>1638</ele>
        <time>2020-07-25T06:46:43.000Z</time>
      </trkpt>
      <trkpt lat="42.57786" lon="2.07492">
        <ele>1637</ele>
        <time>2020-07-25T06:46:44.000Z</time>
      </trkpt>
      <trkpt lat="42.57785" lon="2.07489">
        <ele>1637</ele>
        <time>2020-07-25T06:46:45.000Z</time>
      </trkpt>
      <trkpt lat="42.57784" lon="2.07486">
        <ele>1637</ele>
        <time>2020-07-25T06:46:46.000Z</time>
      </trkpt>
      <trkpt lat="42.57783" lon="2.07483">
        <ele>1638</ele>
        <time>2020-07-25T06:46:47.000Z</time>
      </trkpt>
      <trkpt lat="42.57781" lon="2.0748">
        <ele>1638</ele>
        <time>2020-07-25T06:46:48.000Z</time>
      </trkpt>
      <trkpt lat="42.5778" lon="2.07477">
        <ele>1638</ele>
        <time>2020-07-25T06:46:49.000Z</time>
      </trkpt>
      <trkpt lat="42.57779" lon="2.07474">
        <ele>1638</ele>
        <time>2020-07-25T06:46:50.000Z</time>
      </trkpt>
      <trkpt lat="42.57777" lon="2.07472">
        <ele>1638</ele>
        <time>2020-07-25T06:46:51.000Z</time>
      </trkpt>
      <trkpt lat="42.57776" lon="2.07469">
        <ele>1637</ele>
        <time>2020-07-25T06:46:52.000Z</time>
      </trkpt>
      <trkpt lat="42.57775" lon="2.07466">
        <ele>1637</ele>
        <time>2020-07-25T06:46:53.000Z</time>
      </trkpt>
      <trkpt lat="42.57774" lon="2.07463">
        <ele>1637</ele>
        <time>2020-07-25T06:46:54.000Z</time>
      </trkpt>
      <trkpt lat="42.57772" lon="2.0746">
        <ele>1635</ele>
        <time>2020-07-25T06:46:55.000Z</time>
      </trkpt>
      <trkpt lat="42.57771" lon="2.07458">
        <ele>1635</ele>
        <time>2020-07-25T06:46:56.000Z</time>
      </trkpt>
      <trkpt lat="42.5777" lon="2.07455">
        <ele>1634</ele>
        <time>2020-07-25T06:46:57.000Z</time>
      </trkpt>
      <trkpt lat="42.57769" lon="2.07452">
        <ele>1634</ele>
        <time>2020-07-25T06:46:58.000Z</time>
      </trkpt>
      <trkpt lat="42.57768" lon="2.07449">
        <ele>1635</ele>
        <time>2020-07-25T06:46:59.000Z</time>
      </trkpt>
      <trkpt lat="42.57767" lon="2.07446">
        <ele>1636</ele>
        <time>2020-07-25T06:47:00.000Z</time>
      </trkpt>
      <trkpt lat="42.57766" lon="2.07443">
        <ele>1636</ele>
        <time>2020-07-25T06:47:01.000Z</time>
      </trkpt>
      <trkpt lat="42.57764" lon="2.07439">
        <ele>1635</ele>
        <time>2020-07-25T06:47:02.000Z</time>
      </trkpt>
      <trkpt lat="42.57763" lon="2.07435">
        <ele>1635</ele>
        <time>2020-07-25T06:47:03.000Z</time>
      </trkpt>
      <trkpt lat="42.57761" lon="2.07431">
        <ele>1636</ele>
        <time>2020-07-25T06:47:04.000Z</time>
      </trkpt>
      <trkpt lat="42.5776" lon="2.07428">
        <ele>1636</ele>
        <time>2020-07-25T06:47:05.000Z</time>
      </trkpt>
      <trkpt lat="42.57758" lon="2.07425">
        <ele>1636</ele>
        <time>2020-07-25T06:47:06.000Z</time>
      </trkpt>
      <trkpt lat="42.57756" lon="2.07422">
        <ele>1635</ele>
        <time>2020-07-25T06:47:07.000Z</time>
      </trkpt>
      <trkpt lat="42.57754" lon="2.0742">
        <ele>1634</ele>
        <time>2020-07-25T06:47:08.000Z</time>
      </trkpt>
      <trkpt lat="42.57752" lon="2.07418">
        <ele>1632</ele>
        <time>2020-07-25T06:47:09.000Z</time>
      </trkpt>
      <trkpt lat="42.5775" lon="2.07415">
        <ele>1631</ele>
        <time>2020-07-25T06:47:10.000Z</time>
      </trkpt>
      <trkpt lat="42.57749" lon="2.07412">
        <ele>1632</ele>
        <time>2020-07-25T06:47:11.000Z</time>
      </trkpt>
      <trkpt lat="42.57747" lon="2.0741">
        <ele>1631</ele>
        <time>2020-07-25T06:47:12.000Z</time>
      </trkpt>
      <trkpt lat="42.57746" lon="2.07407">
        <ele>1630</ele>
        <time>2020-07-25T06:47:13.000Z</time>
      </trkpt>
      <trkpt lat="42.57745" lon="2.07403">
        <ele>1631</ele>
        <time>2020-07-25T06:47:14.000Z</time>
      </trkpt>
      <trkpt lat="42.57745" lon="2.07399">
        <ele>1634</ele>
        <time>2020-07-25T06:47:15.000Z</time>
      </trkpt>
      <trkpt lat="42.57746" lon="2.07396">
        <ele>1635</ele>
        <time>2020-07-25T06:47:16.000Z</time>
      </trkpt>
      <trkpt lat="42.57746" lon="2.07392">
        <ele>1635</ele>
        <time>2020-07-25T06:47:17.000Z</time>
      </trkpt>
      <trkpt lat="42.57747" lon="2.07389">
        <ele>1636</ele>
        <time>2020-07-25T06:47:18.000Z</time>
      </trkpt>
      <trkpt lat="42.57747" lon="2.07387">
        <ele>1637</ele>
        <time>2020-07-25T06:47:19.000Z</time>
      </trkpt>
      <trkpt lat="42.57748" lon="2.07384">
        <ele>1637</ele>
        <time>2020-07-25T06:47:20.000Z</time>
      </trkpt>
      <trkpt lat="42.57748" lon="2.07381">
        <ele>1637</ele>
        <time>2020-07-25T06:47:21.000Z</time>
      </trkpt>
      <trkpt lat="42.57748" lon="2.07378">
        <ele>1638</ele>
        <time>2020-07-25T06:47:22.000Z</time>
      </trkpt>
      <trkpt lat="42.57748" lon="2.07375">
        <ele>1638</ele>
        <time>2020-07-25T06:47:23.000Z</time>
      </trkpt>
      <trkpt lat="42.57748" lon="2.07372">
        <ele>1638</ele>
        <time>2020-07-25T06:47:24.000Z</time>
      </trkpt>
      <trkpt lat="42.57748" lon="2.07368">
        <ele>1641</ele>
        <time>2020-07-25T06:47:25.000Z</time>
      </trkpt>
      <trkpt lat="42.57747" lon="2.07363">
        <ele>1641</ele>
        <time>2020-07-25T06:47:26.000Z</time>
      </trkpt>
      <trkpt lat="42.57747" lon="2.07358">
        <ele>1641</ele>
        <time>2020-07-25T06:47:27.000Z</time>
      </trkpt>
      <trkpt lat="42.57748" lon="2.07352">
        <ele>1642</ele>
        <time>2020-07-25T06:47:28.000Z</time>
      </trkpt>
      <trkpt lat="42.57748" lon="2.07347">
        <ele>1646</ele>
        <time>2020-07-25T06:47:29.000Z</time>
      </trkpt>
      <trkpt lat="42.57749" lon="2.07344">
        <ele>1645</ele>
        <time>2020-07-25T06:47:30.000Z</time>
      </trkpt>
      <trkpt lat="42.5775" lon="2.0734">
        <ele>1644</ele>
        <time>2020-07-25T06:47:31.000Z</time>
      </trkpt>
      <trkpt lat="42.57751" lon="2.07337">
        <ele>1643</ele>
        <time>2020-07-25T06:47:32.000Z</time>
      </trkpt>
      <trkpt lat="42.57753" lon="2.07334">
        <ele>1642</ele>
        <time>2020-07-25T06:47:33.000Z</time>
      </trkpt>
      <trkpt lat="42.57755" lon="2.07331">
        <ele>1642</ele>
        <time>2020-07-25T06:47:34.000Z</time>
      </trkpt>
      <trkpt lat="42.57757" lon="2.07328">
        <ele>1641</ele>
        <time>2020-07-25T06:47:35.000Z</time>
      </trkpt>
      <trkpt lat="42.57758" lon="2.07325">
        <ele>1640</ele>
        <time>2020-07-25T06:47:36.000Z</time>
      </trkpt>
      <trkpt lat="42.57759" lon="2.07322">
        <ele>1639</ele>
        <time>2020-07-25T06:47:37.000Z</time>
      </trkpt>
      <trkpt lat="42.57759" lon="2.07319">
        <ele>1638</ele>
        <time>2020-07-25T06:47:38.000Z</time>
      </trkpt>
      <trkpt lat="42.5776" lon="2.07317">
        <ele>1638</ele>
        <time>2020-07-25T06:47:39.000Z</time>
      </trkpt>
      <trkpt lat="42.57761" lon="2.07314">
        <ele>1639</ele>
        <time>2020-07-25T06:47:40.000Z</time>
      </trkpt>
      <trkpt lat="42.57761" lon="2.0731">
        <ele>1640</ele>
        <time>2020-07-25T06:47:41.000Z</time>
      </trkpt>
      <trkpt lat="42.57761" lon="2.07306">
        <ele>1639</ele>
        <time>2020-07-25T06:47:42.000Z</time>
      </trkpt>
      <trkpt lat="42.5776" lon="2.07302">
        <ele>1639</ele>
        <time>2020-07-25T06:47:43.000Z</time>
      </trkpt>
      <trkpt lat="42.57759" lon="2.07299">
        <ele>1640</ele>
        <time>2020-07-25T06:47:44.000Z</time>
      </trkpt>
      <trkpt lat="42.57759" lon="2.07296">
        <ele>1641</ele>
        <time>2020-07-25T06:47:45.000Z</time>
      </trkpt>
      <trkpt lat="42.57758" lon="2.07292">
        <ele>1643</ele>
        <time>2020-07-25T06:47:46.000Z</time>
      </trkpt>
      <trkpt lat="42.57757" lon="2.07288">
        <ele>1643</ele>
        <time>2020-07-25T06:47:47.000Z</time>
      </trkpt>
      <trkpt lat="42.57756" lon="2.07285">
        <ele>1644</ele>
        <time>2020-07-25T06:47:48.000Z</time>
      </trkpt>
      <trkpt lat="42.57755" lon="2.07281">
        <ele>1646</ele>
        <time>2020-07-25T06:47:49.000Z</time>
      </trkpt>
      <trkpt lat="42.57755" lon="2.07277">
        <ele>1646</ele>
        <time>2020-07-25T06:47:50.000Z</time>
      </trkpt>
      <trkpt lat="42.57754" lon="2.07273">
        <ele>1646</ele>
        <time>2020-07-25T06:47:51.000Z</time>
      </trkpt>
      <trkpt lat="42.57753" lon="2.07269">
        <ele>1648</ele>
        <time>2020-07-25T06:47:52.000Z</time>
      </trkpt>
      <trkpt lat="42.57752" lon="2.07265">
        <ele>1649</ele>
        <time>2020-07-25T06:47:53.000Z</time>
      </trkpt>
      <trkpt lat="42.57752" lon="2.07262">
        <ele>1649</ele>
        <time>2020-07-25T06:47:54.000Z</time>
      </trkpt>
      <trkpt lat="42.57751" lon="2.07259">
        <ele>1648</ele>
        <time>2020-07-25T06:47:55.000Z</time>
      </trkpt>
      <trkpt lat="42.57751" lon="2.07256">
        <ele>1649</ele>
        <time>2020-07-25T06:47:56.000Z</time>
      </trkpt>
      <trkpt lat="42.57751" lon="2.07252">
        <ele>1650</ele>
        <time>2020-07-25T06:47:57.000Z</time>
      </trkpt>
      <trkpt lat="42.57751" lon="2.07248">
        <ele>1652</ele>
        <time>2020-07-25T06:47:58.000Z</time>
      </trkpt>
      <trkpt lat="42.5775" lon="2.07243">
        <ele>1656</ele>
        <time>2020-07-25T06:47:59.000Z</time>
      </trkpt>
      <trkpt lat="42.5775" lon="2.07239">
        <ele>1657</ele>
        <time>2020-07-25T06:48:00.000Z</time>
      </trkpt>
      <trkpt lat="42.57749" lon="2.07234">
        <ele>1656</ele>
        <time>2020-07-25T06:48:01.000Z</time>
      </trkpt>
      <trkpt lat="42.57748" lon="2.0723">
        <ele>1657</ele>
        <time>2020-07-25T06:48:02.000Z</time>
      </trkpt>
      <trkpt lat="42.57747" lon="2.07226">
        <ele>1657</ele>
        <time>2020-07-25T06:48:03.000Z</time>
      </trkpt>
      <trkpt lat="42.57745" lon="2.07221">
        <ele>1657</ele>
        <time>2020-07-25T06:48:04.000Z</time>
      </trkpt>
      <trkpt lat="42.57744" lon="2.07217">
        <ele>1658</ele>
        <time>2020-07-25T06:48:05.000Z</time>
      </trkpt>
      <trkpt lat="42.57743" lon="2.07212">
        <ele>1657</ele>
        <time>2020-07-25T06:48:06.000Z</time>
      </trkpt>
      <trkpt lat="42.57741" lon="2.07208">
        <ele>1657</ele>
        <time>2020-07-25T06:48:07.000Z</time>
      </trkpt>
      <trkpt lat="42.5774" lon="2.07203">
        <ele>1657</ele>
        <time>2020-07-25T06:48:08.000Z</time>
      </trkpt>
      <trkpt lat="42.57738" lon="2.07199">
        <ele>1657</ele>
        <time>2020-07-25T06:48:09.000Z</time>
      </trkpt>
      <trkpt lat="42.57737" lon="2.07194">
        <ele>1656</ele>
        <time>2020-07-25T06:48:10.000Z</time>
      </trkpt>
      <trkpt lat="42.57736" lon="2.0719">
        <ele>1657</ele>
        <time>2020-07-25T06:48:11.000Z</time>
      </trkpt>
      <trkpt lat="42.57734" lon="2.07186">
        <ele>1656</ele>
        <time>2020-07-25T06:48:12.000Z</time>
      </trkpt>
      <trkpt lat="42.57732" lon="2.07182">
        <ele>1656</ele>
        <time>2020-07-25T06:48:13.000Z</time>
      </trkpt>
      <trkpt lat="42.5773" lon="2.07179">
        <ele>1656</ele>
        <time>2020-07-25T06:48:14.000Z</time>
      </trkpt>
      <trkpt lat="42.57729" lon="2.07175">
        <ele>1656</ele>
        <time>2020-07-25T06:48:15.000Z</time>
      </trkpt>
      <trkpt lat="42.57727" lon="2.07172">
        <ele>1656</ele>
        <time>2020-07-25T06:48:16.000Z</time>
      </trkpt>
      <trkpt lat="42.57725" lon="2.07169">
        <ele>1657</ele>
        <time>2020-07-25T06:48:17.000Z</time>
      </trkpt>
      <trkpt lat="42.57723" lon="2.07166">
        <ele>1657</ele>
        <time>2020-07-25T06:48:18.000Z</time>
      </trkpt>
      <trkpt lat="42.57721" lon="2.07163">
        <ele>1658</ele>
        <time>2020-07-25T06:48:19.000Z</time>
      </trkpt>
      <trkpt lat="42.57719" lon="2.0716">
        <ele>1657</ele>
        <time>2020-07-25T06:48:20.000Z</time>
      </trkpt>
      <trkpt lat="42.57717" lon="2.07157">
        <ele>1657</ele>
        <time>2020-07-25T06:48:21.000Z</time>
      </trkpt>
      <trkpt lat="42.57715" lon="2.07153">
        <ele>1657</ele>
        <time>2020-07-25T06:48:22.000Z</time>
      </trkpt>
      <trkpt lat="42.57714" lon="2.07149">
        <ele>1657</ele>
        <time>2020-07-25T06:48:23.000Z</time>
      </trkpt>
      <trkpt lat="42.57712" lon="2.07145">
        <ele>1657</ele>
        <time>2020-07-25T06:48:24.000Z</time>
      </trkpt>
      <trkpt lat="42.57711" lon="2.07141">
        <ele>1657</ele>
        <time>2020-07-25T06:48:25.000Z</time>
      </trkpt>
      <trkpt lat="42.57709" lon="2.07137">
        <ele>1656</ele>
        <time>2020-07-25T06:48:26.000Z</time>
      </trkpt>
      <trkpt lat="42.57708" lon="2.07134">
        <ele>1657</ele>
        <time>2020-07-25T06:48:27.000Z</time>
      </trkpt>
      <trkpt lat="42.57706" lon="2.07131">
        <ele>1657</ele>
        <time>2020-07-25T06:48:28.000Z</time>
      </trkpt>
      <trkpt lat="42.57705" lon="2.07128">
        <ele>1657</ele>
        <time>2020-07-25T06:48:29.000Z</time>
      </trkpt>
      <trkpt lat="42.57703" lon="2.07125">
        <ele>1657</ele>
        <time>2020-07-25T06:48:30.000Z</time>
      </trkpt>
      <trkpt lat="42.57701" lon="2.07122">
        <ele>1657</ele>
        <time>2020-07-25T06:48:31.000Z</time>
      </trkpt>
      <trkpt lat="42.57699" lon="2.07119">
        <ele>1656</ele>
        <time>2020-07-25T06:48:32.000Z</time>
      </trkpt>
      <trkpt lat="42.57697" lon="2.07117">
        <ele>1656</ele>
        <time>2020-07-25T06:48:33.000Z</time>
      </trkpt>
      <trkpt lat="42.57694" lon="2.07114">
        <ele>1655</ele>
        <time>2020-07-25T06:48:34.000Z</time>
      </trkpt>
      <trkpt lat="42.57692" lon="2.07111">
        <ele>1656</ele>
        <time>2020-07-25T06:48:35.000Z</time>
      </trkpt>
      <trkpt lat="42.5769" lon="2.07108">
        <ele>1654</ele>
        <time>2020-07-25T06:48:36.000Z</time>
      </trkpt>
      <trkpt lat="42.57688" lon="2.07105">
        <ele>1655</ele>
        <time>2020-07-25T06:48:37.000Z</time>
      </trkpt>
      <trkpt lat="42.57686" lon="2.07102">
        <ele>1656</ele>
        <time>2020-07-25T06:48:38.000Z</time>
      </trkpt>
      <trkpt lat="42.57683" lon="2.07099">
        <ele>1656</ele>
        <time>2020-07-25T06:48:39.000Z</time>
      </trkpt>
      <trkpt lat="42.57681" lon="2.07096">
        <ele>1656</ele>
        <time>2020-07-25T06:48:40.000Z</time>
      </trkpt>
      <trkpt lat="42.57678" lon="2.07093">
        <ele>1656</ele>
        <time>2020-07-25T06:48:41.000Z</time>
      </trkpt>
      <trkpt lat="42.57676" lon="2.07091">
        <ele>1655</ele>
        <time>2020-07-25T06:48:42.000Z</time>
      </trkpt>
      <trkpt lat="42.57674" lon="2.07088">
        <ele>1655</ele>
        <time>2020-07-25T06:48:43.000Z</time>
      </trkpt>
      <trkpt lat="42.57671" lon="2.07086">
        <ele>1655</ele>
        <time>2020-07-25T06:48:44.000Z</time>
      </trkpt>
      <trkpt lat="42.57669" lon="2.07083">
        <ele>1655</ele>
        <time>2020-07-25T06:48:45.000Z</time>
      </trkpt>
      <trkpt lat="42.57667" lon="2.0708">
        <ele>1657</ele>
        <time>2020-07-25T06:48:46.000Z</time>
      </trkpt>
      <trkpt lat="42.57665" lon="2.07078">
        <ele>1659</ele>
        <time>2020-07-25T06:48:47.000Z</time>
      </trkpt>
      <trkpt lat="42.57663" lon="2.07074">
        <ele>1659</ele>
        <time>2020-07-25T06:48:48.000Z</time>
      </trkpt>
      <trkpt lat="42.57662" lon="2.07071">
        <ele>1660</ele>
        <time>2020-07-25T06:48:49.000Z</time>
      </trkpt>
      <trkpt lat="42.57661" lon="2.07067">
        <ele>1661</ele>
        <time>2020-07-25T06:48:50.000Z</time>
      </trkpt>
      <trkpt lat="42.5766" lon="2.07063">
        <ele>1662</ele>
        <time>2020-07-25T06:48:51.000Z</time>
      </trkpt>
      <trkpt lat="42.57659" lon="2.0706">
        <ele>1662</ele>
        <time>2020-07-25T06:48:52.000Z</time>
      </trkpt>
      <trkpt lat="42.57658" lon="2.07057">
        <ele>1662</ele>
        <time>2020-07-25T06:48:53.000Z</time>
      </trkpt>
      <trkpt lat="42.57657" lon="2.07054">
        <ele>1662</ele>
        <time>2020-07-25T06:48:54.000Z</time>
      </trkpt>
      <trkpt lat="42.57656" lon="2.0705">
        <ele>1662</ele>
        <time>2020-07-25T06:48:55.000Z</time>
      </trkpt>
      <trkpt lat="42.57655" lon="2.07047">
        <ele>1661</ele>
        <time>2020-07-25T06:48:56.000Z</time>
      </trkpt>
      <trkpt lat="42.57654" lon="2.07043">
        <ele>1661</ele>
        <time>2020-07-25T06:48:57.000Z</time>
      </trkpt>
      <trkpt lat="42.57653" lon="2.0704">
        <ele>1661</ele>
        <time>2020-07-25T06:48:58.000Z</time>
      </trkpt>
      <trkpt lat="42.57652" lon="2.07036">
        <ele>1661</ele>
        <time>2020-07-25T06:48:59.000Z</time>
      </trkpt>
      <trkpt lat="42.57651" lon="2.07033">
        <ele>1661</ele>
        <time>2020-07-25T06:49:00.000Z</time>
      </trkpt>
      <trkpt lat="42.5765" lon="2.07029">
        <ele>1661</ele>
        <time>2020-07-25T06:49:01.000Z</time>
      </trkpt>
      <trkpt lat="42.57649" lon="2.07026">
        <ele>1662</ele>
        <time>2020-07-25T06:49:02.000Z</time>
      </trkpt>
      <trkpt lat="42.57648" lon="2.07022">
        <ele>1661</ele>
        <time>2020-07-25T06:49:03.000Z</time>
      </trkpt>
      <trkpt lat="42.57647" lon="2.07019">
        <ele>1662</ele>
        <time>2020-07-25T06:49:04.000Z</time>
      </trkpt>
      <trkpt lat="42.57645" lon="2.07016">
        <ele>1662</ele>
        <time>2020-07-25T06:49:05.000Z</time>
      </trkpt>
      <trkpt lat="42.57642" lon="2.07014">
        <ele>1662</ele>
        <time>2020-07-25T06:49:06.000Z</time>
      </trkpt>
      <trkpt lat="42.5764" lon="2.07011">
        <ele>1663</ele>
        <time>2020-07-25T06:49:07.000Z</time>
      </trkpt>
      <trkpt lat="42.57638" lon="2.07008">
        <ele>1662</ele>
        <time>2020-07-25T06:49:08.000Z</time>
      </trkpt>
      <trkpt lat="42.57637" lon="2.07005">
        <ele>1661</ele>
        <time>2020-07-25T06:49:09.000Z</time>
      </trkpt>
      <trkpt lat="42.57635" lon="2.07001">
        <ele>1661</ele>
        <time>2020-07-25T06:49:10.000Z</time>
      </trkpt>
      <trkpt lat="42.57633" lon="2.06998">
        <ele>1660</ele>
        <time>2020-07-25T06:49:11.000Z</time>
      </trkpt>
      <trkpt lat="42.57631" lon="2.06995">
        <ele>1661</ele>
        <time>2020-07-25T06:49:12.000Z</time>
      </trkpt>
      <trkpt lat="42.57629" lon="2.06993">
        <ele>1660</ele>
        <time>2020-07-25T06:49:13.000Z</time>
      </trkpt>
      <trkpt lat="42.57628" lon="2.0699">
        <ele>1660</ele>
        <time>2020-07-25T06:49:14.000Z</time>
      </trkpt>
      <trkpt lat="42.57626" lon="2.06987">
        <ele>1660</ele>
        <time>2020-07-25T06:49:15.000Z</time>
      </trkpt>
      <trkpt lat="42.57624" lon="2.06984">
        <ele>1661</ele>
        <time>2020-07-25T06:49:16.000Z</time>
      </trkpt>
      <trkpt lat="42.57622" lon="2.06981">
        <ele>1660</ele>
        <time>2020-07-25T06:49:17.000Z</time>
      </trkpt>
      <trkpt lat="42.57619" lon="2.06978">
        <ele>1660</ele>
        <time>2020-07-25T06:49:18.000Z</time>
      </trkpt>
      <trkpt lat="42.57617" lon="2.06974">
        <ele>1660</ele>
        <time>2020-07-25T06:49:19.000Z</time>
      </trkpt>
      <trkpt lat="42.57615" lon="2.06971">
        <ele>1660</ele>
        <time>2020-07-25T06:49:20.000Z</time>
      </trkpt>
      <trkpt lat="42.57613" lon="2.06967">
        <ele>1660</ele>
        <time>2020-07-25T06:49:21.000Z</time>
      </trkpt>
      <trkpt lat="42.57611" lon="2.06965">
        <ele>1661</ele>
        <time>2020-07-25T06:49:22.000Z</time>
      </trkpt>
      <trkpt lat="42.57609" lon="2.06962">
        <ele>1661</ele>
        <time>2020-07-25T06:49:23.000Z</time>
      </trkpt>
      <trkpt lat="42.57607" lon="2.06958">
        <ele>1661</ele>
        <time>2020-07-25T06:49:24.000Z</time>
      </trkpt>
      <trkpt lat="42.57605" lon="2.06955">
        <ele>1662</ele>
        <time>2020-07-25T06:49:25.000Z</time>
      </trkpt>
      <trkpt lat="42.57603" lon="2.06951">
        <ele>1662</ele>
        <time>2020-07-25T06:49:26.000Z</time>
      </trkpt>
      <trkpt lat="42.57602" lon="2.06948">
        <ele>1662</ele>
        <time>2020-07-25T06:49:27.000Z</time>
      </trkpt>
      <trkpt lat="42.576" lon="2.06945">
        <ele>1662</ele>
        <time>2020-07-25T06:49:28.000Z</time>
      </trkpt>
      <trkpt lat="42.57598" lon="2.06943">
        <ele>1663</ele>
        <time>2020-07-25T06:49:29.000Z</time>
      </trkpt>
      <trkpt lat="42.57596" lon="2.0694">
        <ele>1664</ele>
        <time>2020-07-25T06:49:30.000Z</time>
      </trkpt>
      <trkpt lat="42.57595" lon="2.06938">
        <ele>1664</ele>
        <time>2020-07-25T06:49:31.000Z</time>
      </trkpt>
      <trkpt lat="42.57593" lon="2.06935">
        <ele>1664</ele>
        <time>2020-07-25T06:49:32.000Z</time>
      </trkpt>
      <trkpt lat="42.57591" lon="2.06933">
        <ele>1664</ele>
        <time>2020-07-25T06:49:33.000Z</time>
      </trkpt>
      <trkpt lat="42.57589" lon="2.06931">
        <ele>1665</ele>
        <time>2020-07-25T06:49:34.000Z</time>
      </trkpt>
      <trkpt lat="42.57587" lon="2.06929">
        <ele>1664</ele>
        <time>2020-07-25T06:49:35.000Z</time>
      </trkpt>
      <trkpt lat="42.57585" lon="2.06928">
        <ele>1663</ele>
        <time>2020-07-25T06:49:36.000Z</time>
      </trkpt>
      <trkpt lat="42.57583" lon="2.06927">
        <ele>1661</ele>
        <time>2020-07-25T06:49:37.000Z</time>
      </trkpt>
      <trkpt lat="42.5758" lon="2.06926">
        <ele>1662</ele>
        <time>2020-07-25T06:49:38.000Z</time>
      </trkpt>
      <trkpt lat="42.57577" lon="2.06924">
        <ele>1660</ele>
        <time>2020-07-25T06:49:39.000Z</time>
      </trkpt>
      <trkpt lat="42.57574" lon="2.06923">
        <ele>1660</ele>
        <time>2020-07-25T06:49:40.000Z</time>
      </trkpt>
      <trkpt lat="42.57571" lon="2.06922">
        <ele>1660</ele>
        <time>2020-07-25T06:49:41.000Z</time>
      </trkpt>
      <trkpt lat="42.57569" lon="2.0692">
        <ele>1661</ele>
        <time>2020-07-25T06:49:42.000Z</time>
      </trkpt>
      <trkpt lat="42.57566" lon="2.06919">
        <ele>1662</ele>
        <time>2020-07-25T06:49:43.000Z</time>
      </trkpt>
      <trkpt lat="42.57563" lon="2.06917">
        <ele>1663</ele>
        <time>2020-07-25T06:49:44.000Z</time>
      </trkpt>
      <trkpt lat="42.5756" lon="2.06916">
        <ele>1663</ele>
        <time>2020-07-25T06:49:45.000Z</time>
      </trkpt>
      <trkpt lat="42.57556" lon="2.06915">
        <ele>1665</ele>
        <time>2020-07-25T06:49:46.000Z</time>
      </trkpt>
      <trkpt lat="42.57553" lon="2.06913">
        <ele>1664</ele>
        <time>2020-07-25T06:49:47.000Z</time>
      </trkpt>
      <trkpt lat="42.5755" lon="2.06912">
        <ele>1665</ele>
        <time>2020-07-25T06:49:48.000Z</time>
      </trkpt>
      <trkpt lat="42.57547" lon="2.0691">
        <ele>1665</ele>
        <time>2020-07-25T06:49:49.000Z</time>
      </trkpt>
      <trkpt lat="42.57544" lon="2.06909">
        <ele>1665</ele>
        <time>2020-07-25T06:49:50.000Z</time>
      </trkpt>
      <trkpt lat="42.57541" lon="2.06907">
        <ele>1665</ele>
        <time>2020-07-25T06:49:51.000Z</time>
      </trkpt>
      <trkpt lat="42.57538" lon="2.06905">
        <ele>1666</ele>
        <time>2020-07-25T06:49:52.000Z</time>
      </trkpt>
      <trkpt lat="42.57535" lon="2.06903">
        <ele>1665</ele>
        <time>2020-07-25T06:49:53.000Z</time>
      </trkpt>
      <trkpt lat="42.57533" lon="2.06901">
        <ele>1665</ele>
        <time>2020-07-25T06:49:54.000Z</time>
      </trkpt>
      <trkpt lat="42.5753" lon="2.06899">
        <ele>1665</ele>
        <time>2020-07-25T06:49:55.000Z</time>
      </trkpt>
      <trkpt lat="42.57528" lon="2.06897">
        <ele>1666</ele>
        <time>2020-07-25T06:49:56.000Z</time>
      </trkpt>
      <trkpt lat="42.57525" lon="2.06895">
        <ele>1666</ele>
        <time>2020-07-25T06:49:57.000Z</time>
      </trkpt>
      <trkpt lat="42.57523" lon="2.06892">
        <ele>1665</ele>
        <time>2020-07-25T06:49:58.000Z</time>
      </trkpt>
      <trkpt lat="42.57521" lon="2.06889">
        <ele>1666</ele>
        <time>2020-07-25T06:49:59.000Z</time>
      </trkpt>
      <trkpt lat="42.57519" lon="2.06886">
        <ele>1667</ele>
        <time>2020-07-25T06:50:00.000Z</time>
      </trkpt>
      <trkpt lat="42.57517" lon="2.06883">
        <ele>1666</ele>
        <time>2020-07-25T06:50:01.000Z</time>
      </trkpt>
      <trkpt lat="42.57516" lon="2.0688">
        <ele>1666</ele>
        <time>2020-07-25T06:50:02.000Z</time>
      </trkpt>
      <trkpt lat="42.57515" lon="2.06877">
        <ele>1666</ele>
        <time>2020-07-25T06:50:03.000Z</time>
      </trkpt>
      <trkpt lat="42.57515" lon="2.06873">
        <ele>1666</ele>
        <time>2020-07-25T06:50:04.000Z</time>
      </trkpt>
      <trkpt lat="42.57514" lon="2.0687">
        <ele>1666</ele>
        <time>2020-07-25T06:50:05.000Z</time>
      </trkpt>
      <trkpt lat="42.57513" lon="2.06866">
        <ele>1665</ele>
        <time>2020-07-25T06:50:06.000Z</time>
      </trkpt>
      <trkpt lat="42.57512" lon="2.06862">
        <ele>1665</ele>
        <time>2020-07-25T06:50:07.000Z</time>
      </trkpt>
      <trkpt lat="42.57512" lon="2.06859">
        <ele>1665</ele>
        <time>2020-07-25T06:50:08.000Z</time>
      </trkpt>
      <trkpt lat="42.57512" lon="2.06855">
        <ele>1665</ele>
        <time>2020-07-25T06:50:09.000Z</time>
      </trkpt>
      <trkpt lat="42.57512" lon="2.06852">
        <ele>1666</ele>
        <time>2020-07-25T06:50:10.000Z</time>
      </trkpt>
      <trkpt lat="42.57512" lon="2.06849">
        <ele>1666</ele>
        <time>2020-07-25T06:50:11.000Z</time>
      </trkpt>
      <trkpt lat="42.57511" lon="2.06846">
        <ele>1666</ele>
        <time>2020-07-25T06:50:12.000Z</time>
      </trkpt>
      <trkpt lat="42.57511" lon="2.06842">
        <ele>1666</ele>
        <time>2020-07-25T06:50:13.000Z</time>
      </trkpt>
      <trkpt lat="42.57511" lon="2.06839">
        <ele>1666</ele>
        <time>2020-07-25T06:50:14.000Z</time>
      </trkpt>
      <trkpt lat="42.57511" lon="2.06835">
        <ele>1666</ele>
        <time>2020-07-25T06:50:15.000Z</time>
      </trkpt>
      <trkpt lat="42.57511" lon="2.06832">
        <ele>1666</ele>
        <time>2020-07-25T06:50:16.000Z</time>
      </trkpt>
      <trkpt lat="42.57512" lon="2.06829">
        <ele>1667</ele>
        <time>2020-07-25T06:50:17.000Z</time>
      </trkpt>
      <trkpt lat="42.57513" lon="2.06826">
        <ele>1667</ele>
        <time>2020-07-25T06:50:18.000Z</time>
      </trkpt>
      <trkpt lat="42.57514" lon="2.06824">
        <ele>1667</ele>
        <time>2020-07-25T06:50:19.000Z</time>
      </trkpt>
      <trkpt lat="42.57515" lon="2.06821">
        <ele>1667</ele>
        <time>2020-07-25T06:50:20.000Z</time>
      </trkpt>
      <trkpt lat="42.57516" lon="2.06819">
        <ele>1666</ele>
        <time>2020-07-25T06:50:21.000Z</time>
      </trkpt>
      <trkpt lat="42.57518" lon="2.06817">
        <ele>1667</ele>
        <time>2020-07-25T06:50:22.000Z</time>
      </trkpt>
      <trkpt lat="42.57519" lon="2.06814">
        <ele>1668</ele>
        <time>2020-07-25T06:50:23.000Z</time>
      </trkpt>
      <trkpt lat="42.57521" lon="2.06812">
        <ele>1669</ele>
        <time>2020-07-25T06:50:24.000Z</time>
      </trkpt>
      <trkpt lat="42.57522" lon="2.06811">
        <ele>1669</ele>
        <time>2020-07-25T06:50:25.000Z</time>
      </trkpt>
      <trkpt lat="42.57524" lon="2.06809">
        <ele>1669</ele>
        <time>2020-07-25T06:50:26.000Z</time>
      </trkpt>
      <trkpt lat="42.57526" lon="2.06807">
        <ele>1670</ele>
        <time>2020-07-25T06:50:27.000Z</time>
      </trkpt>
      <trkpt lat="42.57527" lon="2.06806">
        <ele>1669</ele>
        <time>2020-07-25T06:50:28.000Z</time>
      </trkpt>
      <trkpt lat="42.57529" lon="2.06804">
        <ele>1670</ele>
        <time>2020-07-25T06:50:29.000Z</time>
      </trkpt>
      <trkpt lat="42.5753" lon="2.06802">
        <ele>1670</ele>
        <time>2020-07-25T06:50:30.000Z</time>
      </trkpt>
      <trkpt lat="42.57532" lon="2.06801">
        <ele>1671</ele>
        <time>2020-07-25T06:50:31.000Z</time>
      </trkpt>
      <trkpt lat="42.57534" lon="2.06799">
        <ele>1670</ele>
        <time>2020-07-25T06:50:32.000Z</time>
      </trkpt>
      <trkpt lat="42.57535" lon="2.06797">
        <ele>1670</ele>
        <time>2020-07-25T06:50:33.000Z</time>
      </trkpt>
      <trkpt lat="42.57537" lon="2.06796">
        <ele>1670</ele>
        <time>2020-07-25T06:50:34.000Z</time>
      </trkpt>
      <trkpt lat="42.57538" lon="2.06794">
        <ele>1671</ele>
        <time>2020-07-25T06:50:35.000Z</time>
      </trkpt>
      <trkpt lat="42.5754" lon="2.06793">
        <ele>1672</ele>
        <time>2020-07-25T06:50:36.000Z</time>
      </trkpt>
      <trkpt lat="42.57542" lon="2.06791">
        <ele>1672</ele>
        <time>2020-07-25T06:50:37.000Z</time>
      </trkpt>
      <trkpt lat="42.57543" lon="2.06789">
        <ele>1673</ele>
        <time>2020-07-25T06:50:38.000Z</time>
      </trkpt>
      <trkpt lat="42.57543" lon="2.06786">
        <ele>1673</ele>
        <time>2020-07-25T06:50:39.000Z</time>
      </trkpt>
      <trkpt lat="42.57543" lon="2.06784">
        <ele>1674</ele>
        <time>2020-07-25T06:50:40.000Z</time>
      </trkpt>
      <trkpt lat="42.57542" lon="2.06781">
        <ele>1674</ele>
        <time>2020-07-25T06:50:41.000Z</time>
      </trkpt>
      <trkpt lat="42.57541" lon="2.06778">
        <ele>1675</ele>
        <time>2020-07-25T06:50:42.000Z</time>
      </trkpt>
      <trkpt lat="42.5754" lon="2.06776">
        <ele>1676</ele>
        <time>2020-07-25T06:50:43.000Z</time>
      </trkpt>
      <trkpt lat="42.57539" lon="2.06774">
        <ele>1677</ele>
        <time>2020-07-25T06:50:44.000Z</time>
      </trkpt>
      <trkpt lat="42.57538" lon="2.06773">
        <ele>1677</ele>
        <time>2020-07-25T06:50:45.000Z</time>
      </trkpt>
      <trkpt lat="42.57537" lon="2.06772">
        <ele>1678</ele>
        <time>2020-07-25T06:50:46.000Z</time>
      </trkpt>
      <trkpt lat="42.57536" lon="2.06771">
        <ele>1679</ele>
        <time>2020-07-25T06:50:47.000Z</time>
      </trkpt>
      <trkpt lat="42.57535" lon="2.0677">
        <ele>1679</ele>
        <time>2020-07-25T06:50:48.000Z</time>
      </trkpt>
      <trkpt lat="42.57533" lon="2.06769">
        <ele>1680</ele>
        <time>2020-07-25T06:50:49.000Z</time>
      </trkpt>
      <trkpt lat="42.57532" lon="2.06768">
        <ele>1680</ele>
        <time>2020-07-25T06:50:50.000Z</time>
      </trkpt>
      <trkpt lat="42.57531" lon="2.06768">
        <ele>1681</ele>
        <time>2020-07-25T06:50:51.000Z</time>
      </trkpt>
      <trkpt lat="42.5753" lon="2.06767">
        <ele>1681</ele>
        <time>2020-07-25T06:50:52.000Z</time>
      </trkpt>
      <trkpt lat="42.57528" lon="2.06766">
        <ele>1681</ele>
        <time>2020-07-25T06:50:53.000Z</time>
      </trkpt>
      <trkpt lat="42.57526" lon="2.06765">
        <ele>1681</ele>
        <time>2020-07-25T06:50:54.000Z</time>
      </trkpt>
      <trkpt lat="42.57524" lon="2.06765">
        <ele>1682</ele>
        <time>2020-07-25T06:50:55.000Z</time>
      </trkpt>
      <trkpt lat="42.57522" lon="2.06764">
        <ele>1683</ele>
        <time>2020-07-25T06:50:56.000Z</time>
      </trkpt>
      <trkpt lat="42.5752" lon="2.06764">
        <ele>1683</ele>
        <time>2020-07-25T06:50:57.000Z</time>
      </trkpt>
      <trkpt lat="42.57518" lon="2.06763">
        <ele>1683</ele>
        <time>2020-07-25T06:50:58.000Z</time>
      </trkpt>
      <trkpt lat="42.57517" lon="2.06762">
        <ele>1683</ele>
        <time>2020-07-25T06:50:59.000Z</time>
      </trkpt>
      <trkpt lat="42.57515" lon="2.06761">
        <ele>1683</ele>
        <time>2020-07-25T06:51:00.000Z</time>
      </trkpt>
      <trkpt lat="42.57513" lon="2.0676">
        <ele>1683</ele>
        <time>2020-07-25T06:51:01.000Z</time>
      </trkpt>
      <trkpt lat="42.5751" lon="2.06759">
        <ele>1684</ele>
        <time>2020-07-25T06:51:02.000Z</time>
      </trkpt>
      <trkpt lat="42.57508" lon="2.06759">
        <ele>1684</ele>
        <time>2020-07-25T06:51:03.000Z</time>
      </trkpt>
      <trkpt lat="42.57506" lon="2.06759">
        <ele>1685</ele>
        <time>2020-07-25T06:51:04.000Z</time>
      </trkpt>
      <trkpt lat="42.57503" lon="2.06759">
        <ele>1685</ele>
        <time>2020-07-25T06:51:05.000Z</time>
      </trkpt>
      <trkpt lat="42.57501" lon="2.0676">
        <ele>1685</ele>
        <time>2020-07-25T06:51:06.000Z</time>
      </trkpt>
      <trkpt lat="42.57499" lon="2.0676">
        <ele>1685</ele>
        <time>2020-07-25T06:51:07.000Z</time>
      </trkpt>
      <trkpt lat="42.57496" lon="2.0676">
        <ele>1687</ele>
        <time>2020-07-25T06:51:08.000Z</time>
      </trkpt>
      <trkpt lat="42.57494" lon="2.0676">
        <ele>1687</ele>
        <time>2020-07-25T06:51:09.000Z</time>
      </trkpt>
      <trkpt lat="42.57491" lon="2.06759">
        <ele>1687</ele>
        <time>2020-07-25T06:51:10.000Z</time>
      </trkpt>
      <trkpt lat="42.57488" lon="2.06759">
        <ele>1688</ele>
        <time>2020-07-25T06:51:11.000Z</time>
      </trkpt>
      <trkpt lat="42.57486" lon="2.06759">
        <ele>1688</ele>
        <time>2020-07-25T06:51:12.000Z</time>
      </trkpt>
      <trkpt lat="42.57483" lon="2.06759">
        <ele>1688</ele>
        <time>2020-07-25T06:51:13.000Z</time>
      </trkpt>
      <trkpt lat="42.57481" lon="2.06758">
        <ele>1688</ele>
        <time>2020-07-25T06:51:14.000Z</time>
      </trkpt>
      <trkpt lat="42.57478" lon="2.06758">
        <ele>1688</ele>
        <time>2020-07-25T06:51:15.000Z</time>
      </trkpt>
      <trkpt lat="42.57476" lon="2.06757">
        <ele>1690</ele>
        <time>2020-07-25T06:51:16.000Z</time>
      </trkpt>
      <trkpt lat="42.57473" lon="2.06757">
        <ele>1690</ele>
        <time>2020-07-25T06:51:17.000Z</time>
      </trkpt>
      <trkpt lat="42.57471" lon="2.06758">
        <ele>1690</ele>
        <time>2020-07-25T06:51:18.000Z</time>
      </trkpt>
      <trkpt lat="42.57468" lon="2.06758">
        <ele>1690</ele>
        <time>2020-07-25T06:51:19.000Z</time>
      </trkpt>
      <trkpt lat="42.57466" lon="2.06758">
        <ele>1690</ele>
        <time>2020-07-25T06:51:20.000Z</time>
      </trkpt>
      <trkpt lat="42.57463" lon="2.0676">
        <ele>1691</ele>
        <time>2020-07-25T06:51:21.000Z</time>
      </trkpt>
      <trkpt lat="42.57462" lon="2.06762">
        <ele>1690</ele>
        <time>2020-07-25T06:51:22.000Z</time>
      </trkpt>
      <trkpt lat="42.5746" lon="2.06764">
        <ele>1691</ele>
        <time>2020-07-25T06:51:23.000Z</time>
      </trkpt>
      <trkpt lat="42.57458" lon="2.06766">
        <ele>1692</ele>
        <time>2020-07-25T06:51:24.000Z</time>
      </trkpt>
      <trkpt lat="42.57456" lon="2.06768">
        <ele>1693</ele>
        <time>2020-07-25T06:51:25.000Z</time>
      </trkpt>
      <trkpt lat="42.57455" lon="2.06771">
        <ele>1693</ele>
        <time>2020-07-25T06:51:26.000Z</time>
      </trkpt>
      <trkpt lat="42.57453" lon="2.06773">
        <ele>1694</ele>
        <time>2020-07-25T06:51:27.000Z</time>
      </trkpt>
      <trkpt lat="42.57452" lon="2.06775">
        <ele>1695</ele>
        <time>2020-07-25T06:51:28.000Z</time>
      </trkpt>
      <trkpt lat="42.57451" lon="2.06778">
        <ele>1696</ele>
        <time>2020-07-25T06:51:29.000Z</time>
      </trkpt>
      <trkpt lat="42.57449" lon="2.06781">
        <ele>1697</ele>
        <time>2020-07-25T06:51:30.000Z</time>
      </trkpt>
      <trkpt lat="42.57448" lon="2.06784">
        <ele>1698</ele>
        <time>2020-07-25T06:51:31.000Z</time>
      </trkpt>
      <trkpt lat="42.57446" lon="2.06787">
        <ele>1698</ele>
        <time>2020-07-25T06:51:32.000Z</time>
      </trkpt>
      <trkpt lat="42.57444" lon="2.06789">
        <ele>1698</ele>
        <time>2020-07-25T06:51:33.000Z</time>
      </trkpt>
      <trkpt lat="42.57443" lon="2.06791">
        <ele>1699</ele>
        <time>2020-07-25T06:51:34.000Z</time>
      </trkpt>
      <trkpt lat="42.57441" lon="2.06793">
        <ele>1699</ele>
        <time>2020-07-25T06:51:35.000Z</time>
      </trkpt>
      <trkpt lat="42.57439" lon="2.06794">
        <ele>1699</ele>
        <time>2020-07-25T06:51:36.000Z</time>
      </trkpt>
      <trkpt lat="42.57436" lon="2.06794">
        <ele>1699</ele>
        <time>2020-07-25T06:51:37.000Z</time>
      </trkpt>
      <trkpt lat="42.57434" lon="2.06795">
        <ele>1699</ele>
        <time>2020-07-25T06:51:38.000Z</time>
      </trkpt>
      <trkpt lat="42.57431" lon="2.06794">
        <ele>1700</ele>
        <time>2020-07-25T06:51:39.000Z</time>
      </trkpt>
      <trkpt lat="42.57428" lon="2.06793">
        <ele>1699</ele>
        <time>2020-07-25T06:51:40.000Z</time>
      </trkpt>
      <trkpt lat="42.57425" lon="2.06792">
        <ele>1699</ele>
        <time>2020-07-25T06:51:41.000Z</time>
      </trkpt>
      <trkpt lat="42.57422" lon="2.06791">
        <ele>1700</ele>
        <time>2020-07-25T06:51:42.000Z</time>
      </trkpt>
      <trkpt lat="42.5742" lon="2.0679">
        <ele>1700</ele>
        <time>2020-07-25T06:51:43.000Z</time>
      </trkpt>
      <trkpt lat="42.57417" lon="2.06789">
        <ele>1701</ele>
        <time>2020-07-25T06:51:44.000Z</time>
      </trkpt>
      <trkpt lat="42.57415" lon="2.06788">
        <ele>1701</ele>
        <time>2020-07-25T06:51:45.000Z</time>
      </trkpt>
      <trkpt lat="42.57413" lon="2.06788">
        <ele>1702</ele>
        <time>2020-07-25T06:51:46.000Z</time>
      </trkpt>
      <trkpt lat="42.5741" lon="2.06787">
        <ele>1702</ele>
        <time>2020-07-25T06:51:47.000Z</time>
      </trkpt>
      <trkpt lat="42.57408" lon="2.06786">
        <ele>1702</ele>
        <time>2020-07-25T06:51:48.000Z</time>
      </trkpt>
      <trkpt lat="42.57406" lon="2.06785">
        <ele>1703</ele>
        <time>2020-07-25T06:51:49.000Z</time>
      </trkpt>
      <trkpt lat="42.57405" lon="2.06783">
        <ele>1703</ele>
        <time>2020-07-25T06:51:50.000Z</time>
      </trkpt>
      <trkpt lat="42.57403" lon="2.06782">
        <ele>1704</ele>
        <time>2020-07-25T06:51:51.000Z</time>
      </trkpt>
      <trkpt lat="42.57401" lon="2.06781">
        <ele>1704</ele>
        <time>2020-07-25T06:51:52.000Z</time>
      </trkpt>
      <trkpt lat="42.57399" lon="2.0678">
        <ele>1704</ele>
        <time>2020-07-25T06:51:53.000Z</time>
      </trkpt>
      <trkpt lat="42.57397" lon="2.06779">
        <ele>1705</ele>
        <time>2020-07-25T06:51:54.000Z</time>
      </trkpt>
      <trkpt lat="42.57396" lon="2.06777">
        <ele>1704</ele>
        <time>2020-07-25T06:51:55.000Z</time>
      </trkpt>
      <trkpt lat="42.57393" lon="2.06776">
        <ele>1705</ele>
        <time>2020-07-25T06:51:56.000Z</time>
      </trkpt>
      <trkpt lat="42.57391" lon="2.06775">
        <ele>1705</ele>
        <time>2020-07-25T06:51:57.000Z</time>
      </trkpt>
      <trkpt lat="42.57389" lon="2.06775">
        <ele>1705</ele>
        <time>2020-07-25T06:51:58.000Z</time>
      </trkpt>
      <trkpt lat="42.57387" lon="2.06774">
        <ele>1705</ele>
        <time>2020-07-25T06:51:59.000Z</time>
      </trkpt>
      <trkpt lat="42.57385" lon="2.06774">
        <ele>1705</ele>
        <time>2020-07-25T06:52:00.000Z</time>
      </trkpt>
      <trkpt lat="42.57382" lon="2.06774">
        <ele>1706</ele>
        <time>2020-07-25T06:52:01.000Z</time>
      </trkpt>
      <trkpt lat="42.5738" lon="2.06774">
        <ele>1706</ele>
        <time>2020-07-25T06:52:02.000Z</time>
      </trkpt>
      <trkpt lat="42.57378" lon="2.06774">
        <ele>1706</ele>
        <time>2020-07-25T06:52:03.000Z</time>
      </trkpt>
      <trkpt lat="42.57375" lon="2.06774">
        <ele>1706</ele>
        <time>2020-07-25T06:52:04.000Z</time>
      </trkpt>
      <trkpt lat="42.57373" lon="2.06774">
        <ele>1705</ele>
        <time>2020-07-25T06:52:05.000Z</time>
      </trkpt>
      <trkpt lat="42.5737" lon="2.06774">
        <ele>1705</ele>
        <time>2020-07-25T06:52:06.000Z</time>
      </trkpt>
      <trkpt lat="42.57367" lon="2.06774">
        <ele>1706</ele>
        <time>2020-07-25T06:52:07.000Z</time>
      </trkpt>
      <trkpt lat="42.57365" lon="2.06773">
        <ele>1706</ele>
        <time>2020-07-25T06:52:08.000Z</time>
      </trkpt>
      <trkpt lat="42.57363" lon="2.06773">
        <ele>1707</ele>
        <time>2020-07-25T06:52:09.000Z</time>
      </trkpt>
      <trkpt lat="42.5736" lon="2.06772">
        <ele>1707</ele>
        <time>2020-07-25T06:52:10.000Z</time>
      </trkpt>
      <trkpt lat="42.57357" lon="2.06772">
        <ele>1707</ele>
        <time>2020-07-25T06:52:11.000Z</time>
      </trkpt>
      <trkpt lat="42.57355" lon="2.06772">
        <ele>1707</ele>
        <time>2020-07-25T06:52:12.000Z</time>
      </trkpt>
      <trkpt lat="42.57352" lon="2.06772">
        <ele>1707</ele>
        <time>2020-07-25T06:52:13.000Z</time>
      </trkpt>
      <trkpt lat="42.5735" lon="2.06773">
        <ele>1707</ele>
        <time>2020-07-25T06:52:14.000Z</time>
      </trkpt>
      <trkpt lat="42.57347" lon="2.06773">
        <ele>1707</ele>
        <time>2020-07-25T06:52:15.000Z</time>
      </trkpt>
      <trkpt lat="42.57344" lon="2.06773">
        <ele>1707</ele>
        <time>2020-07-25T06:52:16.000Z</time>
      </trkpt>
      <trkpt lat="42.57342" lon="2.06773">
        <ele>1707</ele>
        <time>2020-07-25T06:52:17.000Z</time>
      </trkpt>
      <trkpt lat="42.57339" lon="2.06772">
        <ele>1707</ele>
        <time>2020-07-25T06:52:18.000Z</time>
      </trkpt>
      <trkpt lat="42.57337" lon="2.06772">
        <ele>1707</ele>
        <time>2020-07-25T06:52:19.000Z</time>
      </trkpt>
      <trkpt lat="42.57334" lon="2.06772">
        <ele>1707</ele>
        <time>2020-07-25T06:52:20.000Z</time>
      </trkpt>
      <trkpt lat="42.57331" lon="2.06771">
        <ele>1707</ele>
        <time>2020-07-25T06:52:21.000Z</time>
      </trkpt>
      <trkpt lat="42.57329" lon="2.06771">
        <ele>1707</ele>
        <time>2020-07-25T06:52:22.000Z</time>
      </trkpt>
      <trkpt lat="42.57326" lon="2.0677">
        <ele>1707</ele>
        <time>2020-07-25T06:52:23.000Z</time>
      </trkpt>
      <trkpt lat="42.57324" lon="2.0677">
        <ele>1707</ele>
        <time>2020-07-25T06:52:24.000Z</time>
      </trkpt>
      <trkpt lat="42.57322" lon="2.0677">
        <ele>1707</ele>
        <time>2020-07-25T06:52:25.000Z</time>
      </trkpt>
      <trkpt lat="42.5732" lon="2.0677">
        <ele>1708</ele>
        <time>2020-07-25T06:52:26.000Z</time>
      </trkpt>
      <trkpt lat="42.57318" lon="2.0677">
        <ele>1708</ele>
        <time>2020-07-25T06:52:27.000Z</time>
      </trkpt>
      <trkpt lat="42.57316" lon="2.0677">
        <ele>1707</ele>
        <time>2020-07-25T06:52:28.000Z</time>
      </trkpt>
      <trkpt lat="42.57314" lon="2.06771">
        <ele>1709</ele>
        <time>2020-07-25T06:52:29.000Z</time>
      </trkpt>
      <trkpt lat="42.57312" lon="2.06772">
        <ele>1709</ele>
        <time>2020-07-25T06:52:30.000Z</time>
      </trkpt>
      <trkpt lat="42.5731" lon="2.06773">
        <ele>1709</ele>
        <time>2020-07-25T06:52:31.000Z</time>
      </trkpt>
      <trkpt lat="42.57308" lon="2.06773">
        <ele>1710</ele>
        <time>2020-07-25T06:52:32.000Z</time>
      </trkpt>
      <trkpt lat="42.57306" lon="2.06774">
        <ele>1709</ele>
        <time>2020-07-25T06:52:33.000Z</time>
      </trkpt>
      <trkpt lat="42.57305" lon="2.06775">
        <ele>1710</ele>
        <time>2020-07-25T06:52:34.000Z</time>
      </trkpt>
      <trkpt lat="42.57303" lon="2.06776">
        <ele>1710</ele>
        <time>2020-07-25T06:52:35.000Z</time>
      </trkpt>
      <trkpt lat="42.57301" lon="2.06776">
        <ele>1711</ele>
        <time>2020-07-25T06:52:36.000Z</time>
      </trkpt>
      <trkpt lat="42.57299" lon="2.06777">
        <ele>1712</ele>
        <time>2020-07-25T06:52:37.000Z</time>
      </trkpt>
      <trkpt lat="42.57297" lon="2.06777">
        <ele>1713</ele>
        <time>2020-07-25T06:52:38.000Z</time>
      </trkpt>
      <trkpt lat="42.57295" lon="2.06777">
        <ele>1714</ele>
        <time>2020-07-25T06:52:39.000Z</time>
      </trkpt>
      <trkpt lat="42.57292" lon="2.06778">
        <ele>1715</ele>
        <time>2020-07-25T06:52:40.000Z</time>
      </trkpt>
      <trkpt lat="42.57291" lon="2.06777">
        <ele>1715</ele>
        <time>2020-07-25T06:52:41.000Z</time>
      </trkpt>
      <trkpt lat="42.57289" lon="2.06777">
        <ele>1715</ele>
        <time>2020-07-25T06:52:42.000Z</time>
      </trkpt>
      <trkpt lat="42.57286" lon="2.06777">
        <ele>1716</ele>
        <time>2020-07-25T06:52:43.000Z</time>
      </trkpt>
      <trkpt lat="42.57284" lon="2.06778">
        <ele>1716</ele>
        <time>2020-07-25T06:52:44.000Z</time>
      </trkpt>
      <trkpt lat="42.57282" lon="2.06778">
        <ele>1716</ele>
        <time>2020-07-25T06:52:45.000Z</time>
      </trkpt>
      <trkpt lat="42.5728" lon="2.06778">
        <ele>1716</ele>
        <time>2020-07-25T06:52:46.000Z</time>
      </trkpt>
      <trkpt lat="42.57277" lon="2.06778">
        <ele>1716</ele>
        <time>2020-07-25T06:52:47.000Z</time>
      </trkpt>
      <trkpt lat="42.57275" lon="2.06777">
        <ele>1717</ele>
        <time>2020-07-25T06:52:48.000Z</time>
      </trkpt>
      <trkpt lat="42.57272" lon="2.06777">
        <ele>1718</ele>
        <time>2020-07-25T06:52:49.000Z</time>
      </trkpt>
      <trkpt lat="42.5727" lon="2.06777">
        <ele>1719</ele>
        <time>2020-07-25T06:52:50.000Z</time>
      </trkpt>
      <trkpt lat="42.57267" lon="2.06777">
        <ele>1720</ele>
        <time>2020-07-25T06:52:51.000Z</time>
      </trkpt>
      <trkpt lat="42.57265" lon="2.06778">
        <ele>1720</ele>
        <time>2020-07-25T06:52:52.000Z</time>
      </trkpt>
      <trkpt lat="42.57263" lon="2.06778">
        <ele>1720</ele>
        <time>2020-07-25T06:52:53.000Z</time>
      </trkpt>
      <trkpt lat="42.5726" lon="2.06778">
        <ele>1720</ele>
        <time>2020-07-25T06:52:54.000Z</time>
      </trkpt>
      <trkpt lat="42.57258" lon="2.06779">
        <ele>1720</ele>
        <time>2020-07-25T06:52:55.000Z</time>
      </trkpt>
      <trkpt lat="42.57255" lon="2.06779">
        <ele>1720</ele>
        <time>2020-07-25T06:52:56.000Z</time>
      </trkpt>
      <trkpt lat="42.57254" lon="2.0678">
        <ele>1721</ele>
        <time>2020-07-25T06:52:57.000Z</time>
      </trkpt>
      <trkpt lat="42.57252" lon="2.06781">
        <ele>1722</ele>
        <time>2020-07-25T06:52:58.000Z</time>
      </trkpt>
      <trkpt lat="42.5725" lon="2.06782">
        <ele>1723</ele>
        <time>2020-07-25T06:52:59.000Z</time>
      </trkpt>
      <trkpt lat="42.57248" lon="2.06783">
        <ele>1724</ele>
        <time>2020-07-25T06:53:00.000Z</time>
      </trkpt>
      <trkpt lat="42.57246" lon="2.06783">
        <ele>1724</ele>
        <time>2020-07-25T06:53:01.000Z</time>
      </trkpt>
      <trkpt lat="42.57244" lon="2.06784">
        <ele>1724</ele>
        <time>2020-07-25T06:53:02.000Z</time>
      </trkpt>
      <trkpt lat="42.57241" lon="2.06784">
        <ele>1724</ele>
        <time>2020-07-25T06:53:03.000Z</time>
      </trkpt>
      <trkpt lat="42.57239" lon="2.06784">
        <ele>1725</ele>
        <time>2020-07-25T06:53:04.000Z</time>
      </trkpt>
      <trkpt lat="42.57237" lon="2.06784">
        <ele>1726</ele>
        <time>2020-07-25T06:53:05.000Z</time>
      </trkpt>
      <trkpt lat="42.57234" lon="2.06784">
        <ele>1726</ele>
        <time>2020-07-25T06:53:06.000Z</time>
      </trkpt>
      <trkpt lat="42.57232" lon="2.06784">
        <ele>1726</ele>
        <time>2020-07-25T06:53:07.000Z</time>
      </trkpt>
      <trkpt lat="42.5723" lon="2.06784">
        <ele>1726</ele>
        <time>2020-07-25T06:53:08.000Z</time>
      </trkpt>
      <trkpt lat="42.57228" lon="2.06784">
        <ele>1725</ele>
        <time>2020-07-25T06:53:09.000Z</time>
      </trkpt>
      <trkpt lat="42.57226" lon="2.06784">
        <ele>1726</ele>
        <time>2020-07-25T06:53:10.000Z</time>
      </trkpt>
      <trkpt lat="42.57224" lon="2.06784">
        <ele>1726</ele>
        <time>2020-07-25T06:53:11.000Z</time>
      </trkpt>
      <trkpt lat="42.57222" lon="2.06784">
        <ele>1727</ele>
        <time>2020-07-25T06:53:12.000Z</time>
      </trkpt>
      <trkpt lat="42.5722" lon="2.06784">
        <ele>1728</ele>
        <time>2020-07-25T06:53:13.000Z</time>
      </trkpt>
      <trkpt lat="42.57219" lon="2.06784">
        <ele>1728</ele>
        <time>2020-07-25T06:53:14.000Z</time>
      </trkpt>
      <trkpt lat="42.57217" lon="2.06784">
        <ele>1729</ele>
        <time>2020-07-25T06:53:15.000Z</time>
      </trkpt>
      <trkpt lat="42.57216" lon="2.06784">
        <ele>1730</ele>
        <time>2020-07-25T06:53:16.000Z</time>
      </trkpt>
      <trkpt lat="42.57214" lon="2.06784">
        <ele>1730</ele>
        <time>2020-07-25T06:53:17.000Z</time>
      </trkpt>
      <trkpt lat="42.57213" lon="2.06785">
        <ele>1730</ele>
        <time>2020-07-25T06:53:18.000Z</time>
      </trkpt>
      <trkpt lat="42.57211" lon="2.06785">
        <ele>1730</ele>
        <time>2020-07-25T06:53:19.000Z</time>
      </trkpt>
      <trkpt lat="42.57209" lon="2.06786">
        <ele>1732</ele>
        <time>2020-07-25T06:53:20.000Z</time>
      </trkpt>
      <trkpt lat="42.57207" lon="2.06786">
        <ele>1732</ele>
        <time>2020-07-25T06:53:21.000Z</time>
      </trkpt>
      <trkpt lat="42.57205" lon="2.06786">
        <ele>1732</ele>
        <time>2020-07-25T06:53:22.000Z</time>
      </trkpt>
      <trkpt lat="42.57203" lon="2.06786">
        <ele>1732</ele>
        <time>2020-07-25T06:53:23.000Z</time>
      </trkpt>
      <trkpt lat="42.57201" lon="2.06786">
        <ele>1732</ele>
        <time>2020-07-25T06:53:24.000Z</time>
      </trkpt>
      <trkpt lat="42.57199" lon="2.06786">
        <ele>1733</ele>
        <time>2020-07-25T06:53:25.000Z</time>
      </trkpt>
      <trkpt lat="42.57197" lon="2.06785">
        <ele>1733</ele>
        <time>2020-07-25T06:53:26.000Z</time>
      </trkpt>
      <trkpt lat="42.57195" lon="2.06785">
        <ele>1733</ele>
        <time>2020-07-25T06:53:27.000Z</time>
      </trkpt>
      <trkpt lat="42.57193" lon="2.06785">
        <ele>1733</ele>
        <time>2020-07-25T06:53:28.000Z</time>
      </trkpt>
      <trkpt lat="42.57191" lon="2.06785">
        <ele>1733</ele>
        <time>2020-07-25T06:53:29.000Z</time>
      </trkpt>
      <trkpt lat="42.57189" lon="2.06784">
        <ele>1733</ele>
        <time>2020-07-25T06:53:30.000Z</time>
      </trkpt>
      <trkpt lat="42.57187" lon="2.06784">
        <ele>1732</ele>
        <time>2020-07-25T06:53:31.000Z</time>
      </trkpt>
      <trkpt lat="42.57186" lon="2.06783">
        <ele>1733</ele>
        <time>2020-07-25T06:53:32.000Z</time>
      </trkpt>
      <trkpt lat="42.57184" lon="2.06782">
        <ele>1732</ele>
        <time>2020-07-25T06:53:33.000Z</time>
      </trkpt>
      <trkpt lat="42.57182" lon="2.06781">
        <ele>1733</ele>
        <time>2020-07-25T06:53:34.000Z</time>
      </trkpt>
      <trkpt lat="42.5718" lon="2.0678">
        <ele>1735</ele>
        <time>2020-07-25T06:53:35.000Z</time>
      </trkpt>
      <trkpt lat="42.57178" lon="2.06779">
        <ele>1735</ele>
        <time>2020-07-25T06:53:36.000Z</time>
      </trkpt>
      <trkpt lat="42.57175" lon="2.06778">
        <ele>1737</ele>
        <time>2020-07-25T06:53:37.000Z</time>
      </trkpt>
      <trkpt lat="42.57173" lon="2.06778">
        <ele>1737</ele>
        <time>2020-07-25T06:53:38.000Z</time>
      </trkpt>
      <trkpt lat="42.57171" lon="2.06778">
        <ele>1738</ele>
        <time>2020-07-25T06:53:39.000Z</time>
      </trkpt>
      <trkpt lat="42.57169" lon="2.06778">
        <ele>1738</ele>
        <time>2020-07-25T06:53:40.000Z</time>
      </trkpt>
      <trkpt lat="42.57166" lon="2.06778">
        <ele>1739</ele>
        <time>2020-07-25T06:53:41.000Z</time>
      </trkpt>
      <trkpt lat="42.57164" lon="2.06777">
        <ele>1739</ele>
        <time>2020-07-25T06:53:42.000Z</time>
      </trkpt>
      <trkpt lat="42.57162" lon="2.06777">
        <ele>1739</ele>
        <time>2020-07-25T06:53:43.000Z</time>
      </trkpt>
      <trkpt lat="42.5716" lon="2.06777">
        <ele>1739</ele>
        <time>2020-07-25T06:53:44.000Z</time>
      </trkpt>
      <trkpt lat="42.57158" lon="2.06777">
        <ele>1740</ele>
        <time>2020-07-25T06:53:45.000Z</time>
      </trkpt>
      <trkpt lat="42.57156" lon="2.06777">
        <ele>1741</ele>
        <time>2020-07-25T06:53:46.000Z</time>
      </trkpt>
      <trkpt lat="42.57154" lon="2.06777">
        <ele>1741</ele>
        <time>2020-07-25T06:53:47.000Z</time>
      </trkpt>
      <trkpt lat="42.57153" lon="2.06776">
        <ele>1741</ele>
        <time>2020-07-25T06:53:48.000Z</time>
      </trkpt>
      <trkpt lat="42.57151" lon="2.06776">
        <ele>1742</ele>
        <time>2020-07-25T06:53:49.000Z</time>
      </trkpt>
      <trkpt lat="42.57149" lon="2.06776">
        <ele>1742</ele>
        <time>2020-07-25T06:53:50.000Z</time>
      </trkpt>
      <trkpt lat="42.57147" lon="2.06775">
        <ele>1742</ele>
        <time>2020-07-25T06:53:51.000Z</time>
      </trkpt>
      <trkpt lat="42.57145" lon="2.06774">
        <ele>1743</ele>
        <time>2020-07-25T06:53:52.000Z</time>
      </trkpt>
      <trkpt lat="42.57143" lon="2.06774">
        <ele>1743</ele>
        <time>2020-07-25T06:53:53.000Z</time>
      </trkpt>
      <trkpt lat="42.57141" lon="2.06773">
        <ele>1743</ele>
        <time>2020-07-25T06:53:54.000Z</time>
      </trkpt>
      <trkpt lat="42.57139" lon="2.06772">
        <ele>1743</ele>
        <time>2020-07-25T06:53:55.000Z</time>
      </trkpt>
      <trkpt lat="42.57137" lon="2.06771">
        <ele>1744</ele>
        <time>2020-07-25T06:53:56.000Z</time>
      </trkpt>
      <trkpt lat="42.57135" lon="2.06771">
        <ele>1744</ele>
        <time>2020-07-25T06:53:57.000Z</time>
      </trkpt>
      <trkpt lat="42.57132" lon="2.0677">
        <ele>1745</ele>
        <time>2020-07-25T06:53:58.000Z</time>
      </trkpt>
      <trkpt lat="42.5713" lon="2.06769">
        <ele>1745</ele>
        <time>2020-07-25T06:53:59.000Z</time>
      </trkpt>
      <trkpt lat="42.57129" lon="2.06769">
        <ele>1746</ele>
        <time>2020-07-25T06:54:00.000Z</time>
      </trkpt>
      <trkpt lat="42.57127" lon="2.06768">
        <ele>1746</ele>
        <time>2020-07-25T06:54:01.000Z</time>
      </trkpt>
      <trkpt lat="42.57125" lon="2.06768">
        <ele>1746</ele>
        <time>2020-07-25T06:54:02.000Z</time>
      </trkpt>
      <trkpt lat="42.57124" lon="2.06768">
        <ele>1747</ele>
        <time>2020-07-25T06:54:03.000Z</time>
      </trkpt>
      <trkpt lat="42.57122" lon="2.06767">
        <ele>1748</ele>
        <time>2020-07-25T06:54:04.000Z</time>
      </trkpt>
      <trkpt lat="42.5712" lon="2.06767">
        <ele>1749</ele>
        <time>2020-07-25T06:54:05.000Z</time>
      </trkpt>
      <trkpt lat="42.57118" lon="2.06766">
        <ele>1748</ele>
        <time>2020-07-25T06:54:06.000Z</time>
      </trkpt>
      <trkpt lat="42.57116" lon="2.06766">
        <ele>1749</ele>
        <time>2020-07-25T06:54:07.000Z</time>
      </trkpt>
      <trkpt lat="42.57114" lon="2.06766">
        <ele>1748</ele>
        <time>2020-07-25T06:54:08.000Z</time>
      </trkpt>
      <trkpt lat="42.57112" lon="2.06766">
        <ele>1749</ele>
        <time>2020-07-25T06:54:09.000Z</time>
      </trkpt>
      <trkpt lat="42.5711" lon="2.06765">
        <ele>1749</ele>
        <time>2020-07-25T06:54:10.000Z</time>
      </trkpt>
      <trkpt lat="42.57108" lon="2.06765">
        <ele>1750</ele>
        <time>2020-07-25T06:54:11.000Z</time>
      </trkpt>
      <trkpt lat="42.57107" lon="2.06765">
        <ele>1750</ele>
        <time>2020-07-25T06:54:12.000Z</time>
      </trkpt>
      <trkpt lat="42.57105" lon="2.06764">
        <ele>1750</ele>
        <time>2020-07-25T06:54:13.000Z</time>
      </trkpt>
      <trkpt lat="42.57103" lon="2.06764">
        <ele>1751</ele>
        <time>2020-07-25T06:54:14.000Z</time>
      </trkpt>
      <trkpt lat="42.57102" lon="2.06763">
        <ele>1752</ele>
        <time>2020-07-25T06:54:15.000Z</time>
      </trkpt>
      <trkpt lat="42.57099" lon="2.06763">
        <ele>1752</ele>
        <time>2020-07-25T06:54:16.000Z</time>
      </trkpt>
      <trkpt lat="42.57098" lon="2.06762">
        <ele>1752</ele>
        <time>2020-07-25T06:54:17.000Z</time>
      </trkpt>
      <trkpt lat="42.57096" lon="2.06761">
        <ele>1753</ele>
        <time>2020-07-25T06:54:18.000Z</time>
      </trkpt>
      <trkpt lat="42.57094" lon="2.0676">
        <ele>1754</ele>
        <time>2020-07-25T06:54:19.000Z</time>
      </trkpt>
      <trkpt lat="42.57093" lon="2.0676">
        <ele>1754</ele>
        <time>2020-07-25T06:54:20.000Z</time>
      </trkpt>
      <trkpt lat="42.57091" lon="2.06759">
        <ele>1754</ele>
        <time>2020-07-25T06:54:21.000Z</time>
      </trkpt>
      <trkpt lat="42.57089" lon="2.06759">
        <ele>1755</ele>
        <time>2020-07-25T06:54:22.000Z</time>
      </trkpt>
      <trkpt lat="42.57086" lon="2.06758">
        <ele>1755</ele>
        <time>2020-07-25T06:54:23.000Z</time>
      </trkpt>
      <trkpt lat="42.57084" lon="2.06758">
        <ele>1755</ele>
        <time>2020-07-25T06:54:24.000Z</time>
      </trkpt>
      <trkpt lat="42.57082" lon="2.06757">
        <ele>1756</ele>
        <time>2020-07-25T06:54:25.000Z</time>
      </trkpt>
      <trkpt lat="42.57081" lon="2.06757">
        <ele>1756</ele>
        <time>2020-07-25T06:54:26.000Z</time>
      </trkpt>
      <trkpt lat="42.57079" lon="2.06757">
        <ele>1757</ele>
        <time>2020-07-25T06:54:27.000Z</time>
      </trkpt>
      <trkpt lat="42.57077" lon="2.06757">
        <ele>1757</ele>
        <time>2020-07-25T06:54:28.000Z</time>
      </trkpt>
      <trkpt lat="42.57075" lon="2.06756">
        <ele>1757</ele>
        <time>2020-07-25T06:54:29.000Z</time>
      </trkpt>
      <trkpt lat="42.57074" lon="2.06755">
        <ele>1757</ele>
        <time>2020-07-25T06:54:30.000Z</time>
      </trkpt>
      <trkpt lat="42.57072" lon="2.06754">
        <ele>1757</ele>
        <time>2020-07-25T06:54:31.000Z</time>
      </trkpt>
      <trkpt lat="42.5707" lon="2.06754">
        <ele>1757</ele>
        <time>2020-07-25T06:54:32.000Z</time>
      </trkpt>
      <trkpt lat="42.57068" lon="2.06753">
        <ele>1758</ele>
        <time>2020-07-25T06:54:33.000Z</time>
      </trkpt>
      <trkpt lat="42.57066" lon="2.06753">
        <ele>1758</ele>
        <time>2020-07-25T06:54:34.000Z</time>
      </trkpt>
      <trkpt lat="42.57064" lon="2.06752">
        <ele>1759</ele>
        <time>2020-07-25T06:54:35.000Z</time>
      </trkpt>
      <trkpt lat="42.57062" lon="2.06752">
        <ele>1759</ele>
        <time>2020-07-25T06:54:36.000Z</time>
      </trkpt>
      <trkpt lat="42.5706" lon="2.06751">
        <ele>1759</ele>
        <time>2020-07-25T06:54:37.000Z</time>
      </trkpt>
      <trkpt lat="42.57058" lon="2.06751">
        <ele>1760</ele>
        <time>2020-07-25T06:54:38.000Z</time>
      </trkpt>
      <trkpt lat="42.57057" lon="2.0675">
        <ele>1760</ele>
        <time>2020-07-25T06:54:39.000Z</time>
      </trkpt>
      <trkpt lat="42.57055" lon="2.0675">
        <ele>1760</ele>
        <time>2020-07-25T06:54:40.000Z</time>
      </trkpt>
      <trkpt lat="42.57053" lon="2.06749">
        <ele>1762</ele>
        <time>2020-07-25T06:54:41.000Z</time>
      </trkpt>
      <trkpt lat="42.57051" lon="2.06749">
        <ele>1762</ele>
        <time>2020-07-25T06:54:42.000Z</time>
      </trkpt>
      <trkpt lat="42.5705" lon="2.06749">
        <ele>1763</ele>
        <time>2020-07-25T06:54:43.000Z</time>
      </trkpt>
      <trkpt lat="42.57048" lon="2.06749">
        <ele>1762</ele>
        <time>2020-07-25T06:54:44.000Z</time>
      </trkpt>
      <trkpt lat="42.57046" lon="2.06749">
        <ele>1764</ele>
        <time>2020-07-25T06:54:45.000Z</time>
      </trkpt>
      <trkpt lat="42.57044" lon="2.06748">
        <ele>1764</ele>
        <time>2020-07-25T06:54:46.000Z</time>
      </trkpt>
      <trkpt lat="42.57043" lon="2.06748">
        <ele>1765</ele>
        <time>2020-07-25T06:54:47.000Z</time>
      </trkpt>
      <trkpt lat="42.57042" lon="2.06748">
        <ele>1765</ele>
        <time>2020-07-25T06:54:48.000Z</time>
      </trkpt>
      <trkpt lat="42.5704" lon="2.06748">
        <ele>1765</ele>
        <time>2020-07-25T06:54:49.000Z</time>
      </trkpt>
      <trkpt lat="42.57038" lon="2.06747">
        <ele>1765</ele>
        <time>2020-07-25T06:54:50.000Z</time>
      </trkpt>
      <trkpt lat="42.57037" lon="2.06747">
        <ele>1767</ele>
        <time>2020-07-25T06:54:51.000Z</time>
      </trkpt>
      <trkpt lat="42.57035" lon="2.06747">
        <ele>1767</ele>
        <time>2020-07-25T06:54:52.000Z</time>
      </trkpt>
      <trkpt lat="42.57033" lon="2.06747">
        <ele>1767</ele>
        <time>2020-07-25T06:54:53.000Z</time>
      </trkpt>
      <trkpt lat="42.57032" lon="2.06746">
        <ele>1767</ele>
        <time>2020-07-25T06:54:54.000Z</time>
      </trkpt>
      <trkpt lat="42.5703" lon="2.06746">
        <ele>1768</ele>
        <time>2020-07-25T06:54:55.000Z</time>
      </trkpt>
      <trkpt lat="42.57028" lon="2.06745">
        <ele>1768</ele>
        <time>2020-07-25T06:54:56.000Z</time>
      </trkpt>
      <trkpt lat="42.57026" lon="2.06745">
        <ele>1768</ele>
        <time>2020-07-25T06:54:57.000Z</time>
      </trkpt>
      <trkpt lat="42.57025" lon="2.06744">
        <ele>1769</ele>
        <time>2020-07-25T06:54:58.000Z</time>
      </trkpt>
      <trkpt lat="42.57023" lon="2.06743">
        <ele>1770</ele>
        <time>2020-07-25T06:54:59.000Z</time>
      </trkpt>
      <trkpt lat="42.57022" lon="2.06743">
        <ele>1770</ele>
        <time>2020-07-25T06:55:00.000Z</time>
      </trkpt>
      <trkpt lat="42.5702" lon="2.06742">
        <ele>1771</ele>
        <time>2020-07-25T06:55:01.000Z</time>
      </trkpt>
      <trkpt lat="42.57019" lon="2.06743">
        <ele>1771</ele>
        <time>2020-07-25T06:55:02.000Z</time>
      </trkpt>
      <trkpt lat="42.57017" lon="2.06743">
        <ele>1771</ele>
        <time>2020-07-25T06:55:03.000Z</time>
      </trkpt>
      <trkpt lat="42.57016" lon="2.06743">
        <ele>1771</ele>
        <time>2020-07-25T06:55:04.000Z</time>
      </trkpt>
      <trkpt lat="42.57014" lon="2.06742">
        <ele>1772</ele>
        <time>2020-07-25T06:55:05.000Z</time>
      </trkpt>
      <trkpt lat="42.57012" lon="2.06742">
        <ele>1772</ele>
        <time>2020-07-25T06:55:06.000Z</time>
      </trkpt>
      <trkpt lat="42.57011" lon="2.06742">
        <ele>1773</ele>
        <time>2020-07-25T06:55:07.000Z</time>
      </trkpt>
      <trkpt lat="42.57009" lon="2.06742">
        <ele>1773</ele>
        <time>2020-07-25T06:55:08.000Z</time>
      </trkpt>
      <trkpt lat="42.57007" lon="2.06742">
        <ele>1774</ele>
        <time>2020-07-25T06:55:09.000Z</time>
      </trkpt>
      <trkpt lat="42.57006" lon="2.06742">
        <ele>1774</ele>
        <time>2020-07-25T06:55:10.000Z</time>
      </trkpt>
      <trkpt lat="42.57004" lon="2.06741">
        <ele>1775</ele>
        <time>2020-07-25T06:55:11.000Z</time>
      </trkpt>
      <trkpt lat="42.57003" lon="2.06741">
        <ele>1776</ele>
        <time>2020-07-25T06:55:12.000Z</time>
      </trkpt>
      <trkpt lat="42.57002" lon="2.0674">
        <ele>1775</ele>
        <time>2020-07-25T06:55:13.000Z</time>
      </trkpt>
      <trkpt lat="42.57" lon="2.0674">
        <ele>1776</ele>
        <time>2020-07-25T06:55:14.000Z</time>
      </trkpt>
      <trkpt lat="42.56999" lon="2.06739">
        <ele>1776</ele>
        <time>2020-07-25T06:55:15.000Z</time>
      </trkpt>
      <trkpt lat="42.56997" lon="2.06739">
        <ele>1776</ele>
        <time>2020-07-25T06:55:16.000Z</time>
      </trkpt>
      <trkpt lat="42.56996" lon="2.06738">
        <ele>1776</ele>
        <time>2020-07-25T06:55:17.000Z</time>
      </trkpt>
      <trkpt lat="42.56994" lon="2.06738">
        <ele>1776</ele>
        <time>2020-07-25T06:55:18.000Z</time>
      </trkpt>
      <trkpt lat="42.56993" lon="2.06737">
        <ele>1775</ele>
        <time>2020-07-25T06:55:19.000Z</time>
      </trkpt>
      <trkpt lat="42.56992" lon="2.06737">
        <ele>1775</ele>
        <time>2020-07-25T06:55:20.000Z</time>
      </trkpt>
      <trkpt lat="42.5699" lon="2.06737">
        <ele>1775</ele>
        <time>2020-07-25T06:55:21.000Z</time>
      </trkpt>
      <trkpt lat="42.56988" lon="2.06736">
        <ele>1775</ele>
        <time>2020-07-25T06:55:22.000Z</time>
      </trkpt>
      <trkpt lat="42.56987" lon="2.06736">
        <ele>1776</ele>
        <time>2020-07-25T06:55:23.000Z</time>
      </trkpt>
      <trkpt lat="42.56985" lon="2.06735">
        <ele>1777</ele>
        <time>2020-07-25T06:55:24.000Z</time>
      </trkpt>
      <trkpt lat="42.56983" lon="2.06735">
        <ele>1777</ele>
        <time>2020-07-25T06:55:25.000Z</time>
      </trkpt>
      <trkpt lat="42.56981" lon="2.06735">
        <ele>1777</ele>
        <time>2020-07-25T06:55:26.000Z</time>
      </trkpt>
      <trkpt lat="42.5698" lon="2.06734">
        <ele>1778</ele>
        <time>2020-07-25T06:55:27.000Z</time>
      </trkpt>
      <trkpt lat="42.56978" lon="2.06734">
        <ele>1778</ele>
        <time>2020-07-25T06:55:28.000Z</time>
      </trkpt>
      <trkpt lat="42.56977" lon="2.06733">
        <ele>1778</ele>
        <time>2020-07-25T06:55:29.000Z</time>
      </trkpt>
      <trkpt lat="42.56975" lon="2.06733">
        <ele>1779</ele>
        <time>2020-07-25T06:55:30.000Z</time>
      </trkpt>
      <trkpt lat="42.56973" lon="2.06733">
        <ele>1779</ele>
        <time>2020-07-25T06:55:31.000Z</time>
      </trkpt>
      <trkpt lat="42.56971" lon="2.06733">
        <ele>1779</ele>
        <time>2020-07-25T06:55:32.000Z</time>
      </trkpt>
      <trkpt lat="42.56969" lon="2.06734">
        <ele>1779</ele>
        <time>2020-07-25T06:55:33.000Z</time>
      </trkpt>
      <trkpt lat="42.56968" lon="2.06734">
        <ele>1780</ele>
        <time>2020-07-25T06:55:34.000Z</time>
      </trkpt>
      <trkpt lat="42.56966" lon="2.06735">
        <ele>1781</ele>
        <time>2020-07-25T06:55:35.000Z</time>
      </trkpt>
      <trkpt lat="42.56965" lon="2.06735">
        <ele>1780</ele>
        <time>2020-07-25T06:55:36.000Z</time>
      </trkpt>
      <trkpt lat="42.56963" lon="2.06735">
        <ele>1781</ele>
        <time>2020-07-25T06:55:37.000Z</time>
      </trkpt>
      <trkpt lat="42.56961" lon="2.06734">
        <ele>1781</ele>
        <time>2020-07-25T06:55:38.000Z</time>
      </trkpt>
      <trkpt lat="42.5696" lon="2.06734">
        <ele>1782</ele>
        <time>2020-07-25T06:55:39.000Z</time>
      </trkpt>
      <trkpt lat="42.56958" lon="2.06733">
        <ele>1782</ele>
        <time>2020-07-25T06:55:40.000Z</time>
      </trkpt>
      <trkpt lat="42.56956" lon="2.06732">
        <ele>1782</ele>
        <time>2020-07-25T06:55:41.000Z</time>
      </trkpt>
      <trkpt lat="42.56955" lon="2.06732">
        <ele>1782</ele>
        <time>2020-07-25T06:55:42.000Z</time>
      </trkpt>
      <trkpt lat="42.56954" lon="2.06731">
        <ele>1782</ele>
        <time>2020-07-25T06:55:43.000Z</time>
      </trkpt>
      <trkpt lat="42.56952" lon="2.0673">
        <ele>1783</ele>
        <time>2020-07-25T06:55:44.000Z</time>
      </trkpt>
      <trkpt lat="42.56951" lon="2.0673">
        <ele>1784</ele>
        <time>2020-07-25T06:55:45.000Z</time>
      </trkpt>
      <trkpt lat="42.56949" lon="2.0673">
        <ele>1784</ele>
        <time>2020-07-25T06:55:46.000Z</time>
      </trkpt>
      <trkpt lat="42.56948" lon="2.06729">
        <ele>1785</ele>
        <time>2020-07-25T06:55:47.000Z</time>
      </trkpt>
      <trkpt lat="42.56947" lon="2.06729">
        <ele>1786</ele>
        <time>2020-07-25T06:55:48.000Z</time>
      </trkpt>
      <trkpt lat="42.56946" lon="2.06729">
        <ele>1787</ele>
        <time>2020-07-25T06:55:49.000Z</time>
      </trkpt>
      <trkpt lat="42.56945" lon="2.06729">
        <ele>1786</ele>
        <time>2020-07-25T06:55:50.000Z</time>
      </trkpt>
      <trkpt lat="42.56944" lon="2.06728">
        <ele>1787</ele>
        <time>2020-07-25T06:55:51.000Z</time>
      </trkpt>
      <trkpt lat="42.56942" lon="2.06728">
        <ele>1788</ele>
        <time>2020-07-25T06:55:52.000Z</time>
      </trkpt>
      <trkpt lat="42.56941" lon="2.06728">
        <ele>1788</ele>
        <time>2020-07-25T06:55:53.000Z</time>
      </trkpt>
      <trkpt lat="42.5694" lon="2.06728">
        <ele>1788</ele>
        <time>2020-07-25T06:55:54.000Z</time>
      </trkpt>
      <trkpt lat="42.56938" lon="2.06727">
        <ele>1788</ele>
        <time>2020-07-25T06:55:55.000Z</time>
      </trkpt>
      <trkpt lat="42.56937" lon="2.06727">
        <ele>1789</ele>
        <time>2020-07-25T06:55:56.000Z</time>
      </trkpt>
      <trkpt lat="42.56935" lon="2.06726">
        <ele>1789</ele>
        <time>2020-07-25T06:55:57.000Z</time>
      </trkpt>
      <trkpt lat="42.56933" lon="2.06725">
        <ele>1789</ele>
        <time>2020-07-25T06:55:58.000Z</time>
      </trkpt>
      <trkpt lat="42.56931" lon="2.06725">
        <ele>1789</ele>
        <time>2020-07-25T06:55:59.000Z</time>
      </trkpt>
      <trkpt lat="42.56929" lon="2.06724">
        <ele>1790</ele>
        <time>2020-07-25T06:56:00.000Z</time>
      </trkpt>
      <trkpt lat="42.56928" lon="2.06723">
        <ele>1790</ele>
        <time>2020-07-25T06:56:01.000Z</time>
      </trkpt>
      <trkpt lat="42.56926" lon="2.06723">
        <ele>1789</ele>
        <time>2020-07-25T06:56:02.000Z</time>
      </trkpt>
      <trkpt lat="42.56925" lon="2.06722">
        <ele>1790</ele>
        <time>2020-07-25T06:56:03.000Z</time>
      </trkpt>
      <trkpt lat="42.56924" lon="2.06722">
        <ele>1789</ele>
        <time>2020-07-25T06:56:04.000Z</time>
      </trkpt>
      <trkpt lat="42.56923" lon="2.06722">
        <ele>1790</ele>
        <time>2020-07-25T06:56:05.000Z</time>
      </trkpt>
      <trkpt lat="42.56921" lon="2.06722">
        <ele>1790</ele>
        <time>2020-07-25T06:56:06.000Z</time>
      </trkpt>
      <trkpt lat="42.5692" lon="2.06721">
        <ele>1790</ele>
        <time>2020-07-25T06:56:07.000Z</time>
      </trkpt>
      <trkpt lat="42.56919" lon="2.06721">
        <ele>1790</ele>
        <time>2020-07-25T06:56:08.000Z</time>
      </trkpt>
      <trkpt lat="42.56917" lon="2.0672">
        <ele>1790</ele>
        <time>2020-07-25T06:56:09.000Z</time>
      </trkpt>
      <trkpt lat="42.56916" lon="2.0672">
        <ele>1790</ele>
        <time>2020-07-25T06:56:10.000Z</time>
      </trkpt>
      <trkpt lat="42.56914" lon="2.0672">
        <ele>1790</ele>
        <time>2020-07-25T06:56:11.000Z</time>
      </trkpt>
      <trkpt lat="42.56912" lon="2.0672">
        <ele>1790</ele>
        <time>2020-07-25T06:56:12.000Z</time>
      </trkpt>
      <trkpt lat="42.5691" lon="2.0672">
        <ele>1791</ele>
        <time>2020-07-25T06:56:13.000Z</time>
      </trkpt>
      <trkpt lat="42.56909" lon="2.0672">
        <ele>1791</ele>
        <time>2020-07-25T06:56:14.000Z</time>
      </trkpt>
      <trkpt lat="42.56908" lon="2.0672">
        <ele>1792</ele>
        <time>2020-07-25T06:56:15.000Z</time>
      </trkpt>
      <trkpt lat="42.56906" lon="2.0672">
        <ele>1792</ele>
        <time>2020-07-25T06:56:16.000Z</time>
      </trkpt>
      <trkpt lat="42.56904" lon="2.0672">
        <ele>1792</ele>
        <time>2020-07-25T06:56:17.000Z</time>
      </trkpt>
      <trkpt lat="42.56903" lon="2.06721">
        <ele>1792</ele>
        <time>2020-07-25T06:56:18.000Z</time>
      </trkpt>
      <trkpt lat="42.56901" lon="2.06721">
        <ele>1794</ele>
        <time>2020-07-25T06:56:19.000Z</time>
      </trkpt>
      <trkpt lat="42.569" lon="2.06722">
        <ele>1794</ele>
        <time>2020-07-25T06:56:20.000Z</time>
      </trkpt>
      <trkpt lat="42.56899" lon="2.06722">
        <ele>1795</ele>
        <time>2020-07-25T06:56:21.000Z</time>
      </trkpt>
      <trkpt lat="42.56897" lon="2.06721">
        <ele>1795</ele>
        <time>2020-07-25T06:56:22.000Z</time>
      </trkpt>
      <trkpt lat="42.56896" lon="2.06721">
        <ele>1796</ele>
        <time>2020-07-25T06:56:23.000Z</time>
      </trkpt>
      <trkpt lat="42.56894" lon="2.06722">
        <ele>1797</ele>
        <time>2020-07-25T06:56:24.000Z</time>
      </trkpt>
      <trkpt lat="42.56893" lon="2.06722">
        <ele>1797</ele>
        <time>2020-07-25T06:56:25.000Z</time>
      </trkpt>
      <trkpt lat="42.5689" lon="2.06722">
        <ele>1799</ele>
        <time>2020-07-25T06:56:26.000Z</time>
      </trkpt>
      <trkpt lat="42.56888" lon="2.06722">
        <ele>1799</ele>
        <time>2020-07-25T06:56:27.000Z</time>
      </trkpt>
      <trkpt lat="42.56886" lon="2.06722">
        <ele>1799</ele>
        <time>2020-07-25T06:56:28.000Z</time>
      </trkpt>
      <trkpt lat="42.56884" lon="2.06722">
        <ele>1800</ele>
        <time>2020-07-25T06:56:29.000Z</time>
      </trkpt>
      <trkpt lat="42.56882" lon="2.06722">
        <ele>1801</ele>
        <time>2020-07-25T06:56:30.000Z</time>
      </trkpt>
      <trkpt lat="42.5688" lon="2.06723">
        <ele>1801</ele>
        <time>2020-07-25T06:56:31.000Z</time>
      </trkpt>
      <trkpt lat="42.56878" lon="2.06723">
        <ele>1802</ele>
        <time>2020-07-25T06:56:32.000Z</time>
      </trkpt>
      <trkpt lat="42.56875" lon="2.06723">
        <ele>1802</ele>
        <time>2020-07-25T06:56:33.000Z</time>
      </trkpt>
      <trkpt lat="42.56873" lon="2.06723">
        <ele>1802</ele>
        <time>2020-07-25T06:56:34.000Z</time>
      </trkpt>
      <trkpt lat="42.56871" lon="2.06724">
        <ele>1802</ele>
        <time>2020-07-25T06:56:35.000Z</time>
      </trkpt>
      <trkpt lat="42.56868" lon="2.06724">
        <ele>1802</ele>
        <time>2020-07-25T06:56:36.000Z</time>
      </trkpt>
      <trkpt lat="42.56866" lon="2.06724">
        <ele>1803</ele>
        <time>2020-07-25T06:56:37.000Z</time>
      </trkpt>
      <trkpt lat="42.56864" lon="2.06725">
        <ele>1803</ele>
        <time>2020-07-25T06:56:38.000Z</time>
      </trkpt>
      <trkpt lat="42.56861" lon="2.06726">
        <ele>1803</ele>
        <time>2020-07-25T06:56:39.000Z</time>
      </trkpt>
      <trkpt lat="42.56859" lon="2.06726">
        <ele>1803</ele>
        <time>2020-07-25T06:56:40.000Z</time>
      </trkpt>
      <trkpt lat="42.56857" lon="2.06726">
        <ele>1804</ele>
        <time>2020-07-25T06:56:41.000Z</time>
      </trkpt>
      <trkpt lat="42.56854" lon="2.06727">
        <ele>1804</ele>
        <time>2020-07-25T06:56:42.000Z</time>
      </trkpt>
      <trkpt lat="42.56852" lon="2.06728">
        <ele>1805</ele>
        <time>2020-07-25T06:56:43.000Z</time>
      </trkpt>
      <trkpt lat="42.5685" lon="2.06729">
        <ele>1805</ele>
        <time>2020-07-25T06:56:44.000Z</time>
      </trkpt>
      <trkpt lat="42.56848" lon="2.06729">
        <ele>1805</ele>
        <time>2020-07-25T06:56:45.000Z</time>
      </trkpt>
      <trkpt lat="42.56846" lon="2.0673">
        <ele>1806</ele>
        <time>2020-07-25T06:56:46.000Z</time>
      </trkpt>
      <trkpt lat="42.56843" lon="2.0673">
        <ele>1807</ele>
        <time>2020-07-25T06:56:47.000Z</time>
      </trkpt>
      <trkpt lat="42.56841" lon="2.06731">
        <ele>1807</ele>
        <time>2020-07-25T06:56:48.000Z</time>
      </trkpt>
      <trkpt lat="42.56839" lon="2.06732">
        <ele>1807</ele>
        <time>2020-07-25T06:56:49.000Z</time>
      </trkpt>
      <trkpt lat="42.56836" lon="2.06732">
        <ele>1808</ele>
        <time>2020-07-25T06:56:50.000Z</time>
      </trkpt>
      <trkpt lat="42.56835" lon="2.06733">
        <ele>1809</ele>
        <time>2020-07-25T06:56:51.000Z</time>
      </trkpt>
      <trkpt lat="42.56833" lon="2.06733">
        <ele>1808</ele>
        <time>2020-07-25T06:56:52.000Z</time>
      </trkpt>
      <trkpt lat="42.56831" lon="2.06733">
        <ele>1809</ele>
        <time>2020-07-25T06:56:53.000Z</time>
      </trkpt>
      <trkpt lat="42.56829" lon="2.06733">
        <ele>1809</ele>
        <time>2020-07-25T06:56:54.000Z</time>
      </trkpt>
      <trkpt lat="42.56828" lon="2.06734">
        <ele>1810</ele>
        <time>2020-07-25T06:56:55.000Z</time>
      </trkpt>
      <trkpt lat="42.56826" lon="2.06735">
        <ele>1810</ele>
        <time>2020-07-25T06:56:56.000Z</time>
      </trkpt>
      <trkpt lat="42.56824" lon="2.06735">
        <ele>1810</ele>
        <time>2020-07-25T06:56:57.000Z</time>
      </trkpt>
      <trkpt lat="42.56822" lon="2.06735">
        <ele>1810</ele>
        <time>2020-07-25T06:56:58.000Z</time>
      </trkpt>
      <trkpt lat="42.56819" lon="2.06735">
        <ele>1811</ele>
        <time>2020-07-25T06:56:59.000Z</time>
      </trkpt>
      <trkpt lat="42.56817" lon="2.06736">
        <ele>1811</ele>
        <time>2020-07-25T06:57:00.000Z</time>
      </trkpt>
      <trkpt lat="42.56815" lon="2.06736">
        <ele>1811</ele>
        <time>2020-07-25T06:57:01.000Z</time>
      </trkpt>
      <trkpt lat="42.56813" lon="2.06737">
        <ele>1812</ele>
        <time>2020-07-25T06:57:02.000Z</time>
      </trkpt>
      <trkpt lat="42.56812" lon="2.06738">
        <ele>1812</ele>
        <time>2020-07-25T06:57:03.000Z</time>
      </trkpt>
      <trkpt lat="42.5681" lon="2.06738">
        <ele>1812</ele>
        <time>2020-07-25T06:57:04.000Z</time>
      </trkpt>
      <trkpt lat="42.56808" lon="2.06739">
        <ele>1813</ele>
        <time>2020-07-25T06:57:05.000Z</time>
      </trkpt>
      <trkpt lat="42.56805" lon="2.0674">
        <ele>1814</ele>
        <time>2020-07-25T06:57:06.000Z</time>
      </trkpt>
      <trkpt lat="42.56804" lon="2.06741">
        <ele>1814</ele>
        <time>2020-07-25T06:57:07.000Z</time>
      </trkpt>
      <trkpt lat="42.56802" lon="2.06742">
        <ele>1815</ele>
        <time>2020-07-25T06:57:08.000Z</time>
      </trkpt>
      <trkpt lat="42.568" lon="2.06742">
        <ele>1815</ele>
        <time>2020-07-25T06:57:09.000Z</time>
      </trkpt>
      <trkpt lat="42.56798" lon="2.06743">
        <ele>1815</ele>
        <time>2020-07-25T06:57:10.000Z</time>
      </trkpt>
      <trkpt lat="42.56795" lon="2.06744">
        <ele>1815</ele>
        <time>2020-07-25T06:57:11.000Z</time>
      </trkpt>
      <trkpt lat="42.56793" lon="2.06744">
        <ele>1815</ele>
        <time>2020-07-25T06:57:12.000Z</time>
      </trkpt>
      <trkpt lat="42.56791" lon="2.06745">
        <ele>1815</ele>
        <time>2020-07-25T06:57:13.000Z</time>
      </trkpt>
      <trkpt lat="42.56788" lon="2.06745">
        <ele>1815</ele>
        <time>2020-07-25T06:57:14.000Z</time>
      </trkpt>
      <trkpt lat="42.56786" lon="2.06746">
        <ele>1815</ele>
        <time>2020-07-25T06:57:15.000Z</time>
      </trkpt>
      <trkpt lat="42.56784" lon="2.06746">
        <ele>1815</ele>
        <time>2020-07-25T06:57:16.000Z</time>
      </trkpt>
      <trkpt lat="42.56781" lon="2.06747">
        <ele>1815</ele>
        <time>2020-07-25T06:57:17.000Z</time>
      </trkpt>
      <trkpt lat="42.56779" lon="2.06747">
        <ele>1817</ele>
        <time>2020-07-25T06:57:18.000Z</time>
      </trkpt>
      <trkpt lat="42.56776" lon="2.06748">
        <ele>1817</ele>
        <time>2020-07-25T06:57:19.000Z</time>
      </trkpt>
      <trkpt lat="42.56774" lon="2.0675">
        <ele>1818</ele>
        <time>2020-07-25T06:57:20.000Z</time>
      </trkpt>
      <trkpt lat="42.56771" lon="2.0675">
        <ele>1818</ele>
        <time>2020-07-25T06:57:21.000Z</time>
      </trkpt>
      <trkpt lat="42.56769" lon="2.06751">
        <ele>1819</ele>
        <time>2020-07-25T06:57:22.000Z</time>
      </trkpt>
      <trkpt lat="42.56766" lon="2.06752">
        <ele>1820</ele>
        <time>2020-07-25T06:57:23.000Z</time>
      </trkpt>
      <trkpt lat="42.56764" lon="2.06752">
        <ele>1819</ele>
        <time>2020-07-25T06:57:24.000Z</time>
      </trkpt>
      <trkpt lat="42.56762" lon="2.06753">
        <ele>1820</ele>
        <time>2020-07-25T06:57:25.000Z</time>
      </trkpt>
      <trkpt lat="42.56759" lon="2.06753">
        <ele>1820</ele>
        <time>2020-07-25T06:57:26.000Z</time>
      </trkpt>
      <trkpt lat="42.56756" lon="2.06754">
        <ele>1821</ele>
        <time>2020-07-25T06:57:27.000Z</time>
      </trkpt>
      <trkpt lat="42.56753" lon="2.06755">
        <ele>1822</ele>
        <time>2020-07-25T06:57:28.000Z</time>
      </trkpt>
      <trkpt lat="42.5675" lon="2.06755">
        <ele>1823</ele>
        <time>2020-07-25T06:57:29.000Z</time>
      </trkpt>
      <trkpt lat="42.56748" lon="2.06756">
        <ele>1824</ele>
        <time>2020-07-25T06:57:30.000Z</time>
      </trkpt>
      <trkpt lat="42.56745" lon="2.06757">
        <ele>1824</ele>
        <time>2020-07-25T06:57:31.000Z</time>
      </trkpt>
      <trkpt lat="42.56743" lon="2.06758">
        <ele>1824</ele>
        <time>2020-07-25T06:57:32.000Z</time>
      </trkpt>
      <trkpt lat="42.56741" lon="2.06759">
        <ele>1824</ele>
        <time>2020-07-25T06:57:33.000Z</time>
      </trkpt>
      <trkpt lat="42.56738" lon="2.0676">
        <ele>1825</ele>
        <time>2020-07-25T06:57:34.000Z</time>
      </trkpt>
      <trkpt lat="42.56736" lon="2.06761">
        <ele>1824</ele>
        <time>2020-07-25T06:57:35.000Z</time>
      </trkpt>
      <trkpt lat="42.56733" lon="2.06762">
        <ele>1824</ele>
        <time>2020-07-25T06:57:36.000Z</time>
      </trkpt>
      <trkpt lat="42.56731" lon="2.06763">
        <ele>1824</ele>
        <time>2020-07-25T06:57:37.000Z</time>
      </trkpt>
      <trkpt lat="42.56728" lon="2.06764">
        <ele>1824</ele>
        <time>2020-07-25T06:57:38.000Z</time>
      </trkpt>
      <trkpt lat="42.56726" lon="2.06766">
        <ele>1824</ele>
        <time>2020-07-25T06:57:39.000Z</time>
      </trkpt>
      <trkpt lat="42.56724" lon="2.06767">
        <ele>1823</ele>
        <time>2020-07-25T06:57:40.000Z</time>
      </trkpt>
      <trkpt lat="42.56721" lon="2.06768">
        <ele>1824</ele>
        <time>2020-07-25T06:57:41.000Z</time>
      </trkpt>
      <trkpt lat="42.56719" lon="2.06769">
        <ele>1825</ele>
        <time>2020-07-25T06:57:42.000Z</time>
      </trkpt>
      <trkpt lat="42.56716" lon="2.06771">
        <ele>1825</ele>
        <time>2020-07-25T06:57:43.000Z</time>
      </trkpt>
      <trkpt lat="42.56714" lon="2.06772">
        <ele>1824</ele>
        <time>2020-07-25T06:57:44.000Z</time>
      </trkpt>
      <trkpt lat="42.56712" lon="2.06772">
        <ele>1824</ele>
        <time>2020-07-25T06:57:45.000Z</time>
      </trkpt>
      <trkpt lat="42.56709" lon="2.06773">
        <ele>1825</ele>
        <time>2020-07-25T06:57:46.000Z</time>
      </trkpt>
      <trkpt lat="42.56708" lon="2.06774">
        <ele>1825</ele>
        <time>2020-07-25T06:57:47.000Z</time>
      </trkpt>
      <trkpt lat="42.56706" lon="2.06776">
        <ele>1825</ele>
        <time>2020-07-25T06:57:48.000Z</time>
      </trkpt>
      <trkpt lat="42.56704" lon="2.06778">
        <ele>1825</ele>
        <time>2020-07-25T06:57:49.000Z</time>
      </trkpt>
      <trkpt lat="42.56702" lon="2.0678">
        <ele>1825</ele>
        <time>2020-07-25T06:57:50.000Z</time>
      </trkpt>
      <trkpt lat="42.567" lon="2.06781">
        <ele>1825</ele>
        <time>2020-07-25T06:57:51.000Z</time>
      </trkpt>
      <trkpt lat="42.56698" lon="2.06781">
        <ele>1825</ele>
        <time>2020-07-25T06:57:52.000Z</time>
      </trkpt>
      <trkpt lat="42.56695" lon="2.06781">
        <ele>1825</ele>
        <time>2020-07-25T06:57:53.000Z</time>
      </trkpt>
      <trkpt lat="42.56693" lon="2.06782">
        <ele>1825</ele>
        <time>2020-07-25T06:57:54.000Z</time>
      </trkpt>
      <trkpt lat="42.56691" lon="2.06782">
        <ele>1825</ele>
        <time>2020-07-25T06:57:55.000Z</time>
      </trkpt>
      <trkpt lat="42.56688" lon="2.06782">
        <ele>1826</ele>
        <time>2020-07-25T06:57:56.000Z</time>
      </trkpt>
      <trkpt lat="42.56686" lon="2.06782">
        <ele>1827</ele>
        <time>2020-07-25T06:57:57.000Z</time>
      </trkpt>
      <trkpt lat="42.56684" lon="2.06783">
        <ele>1827</ele>
        <time>2020-07-25T06:57:58.000Z</time>
      </trkpt>
      <trkpt lat="42.56682" lon="2.06783">
        <ele>1828</ele>
        <time>2020-07-25T06:57:59.000Z</time>
      </trkpt>
      <trkpt lat="42.5668" lon="2.06783">
        <ele>1828</ele>
        <time>2020-07-25T06:58:00.000Z</time>
      </trkpt>
      <trkpt lat="42.56663" lon="2.06783">
        <ele>1837</ele>
        <time>2020-07-25T06:58:01.031Z</time>
      </trkpt>
      <trkpt lat="42.56662" lon="2.06783">
        <ele>1839</ele>
        <time>2020-07-25T06:58:02.031Z</time>
      </trkpt>
      <trkpt lat="42.56661" lon="2.06784">
        <ele>1842</ele>
        <time>2020-07-25T06:58:03.031Z</time>
      </trkpt>
      <trkpt lat="42.56659" lon="2.06784">
        <ele>1845</ele>
        <time>2020-07-25T06:58:04.031Z</time>
      </trkpt>
      <trkpt lat="42.56657" lon="2.06785">
        <ele>1844</ele>
        <time>2020-07-25T06:58:05.031Z</time>
      </trkpt>
      <trkpt lat="42.56655" lon="2.06784">
        <ele>1843</ele>
        <time>2020-07-25T06:58:06.031Z</time>
      </trkpt>
      <trkpt lat="42.56653" lon="2.06784">
        <ele>1843</ele>
        <time>2020-07-25T06:58:07.031Z</time>
      </trkpt>
      <trkpt lat="42.56651" lon="2.06783">
        <ele>1843</ele>
        <time>2020-07-25T06:58:08.031Z</time>
      </trkpt>
      <trkpt lat="42.56649" lon="2.06782">
        <ele>1843</ele>
        <time>2020-07-25T06:58:09.031Z</time>
      </trkpt>
      <trkpt lat="42.56647" lon="2.06781">
        <ele>1843</ele>
        <time>2020-07-25T06:58:10.031Z</time>
      </trkpt>
      <trkpt lat="42.56644" lon="2.0678">
        <ele>1843</ele>
        <time>2020-07-25T06:58:11.031Z</time>
      </trkpt>
      <trkpt lat="42.56642" lon="2.06779">
        <ele>1843</ele>
        <time>2020-07-25T06:58:12.031Z</time>
      </trkpt>
      <trkpt lat="42.56639" lon="2.06777">
        <ele>1843</ele>
        <time>2020-07-25T06:58:13.031Z</time>
      </trkpt>
      <trkpt lat="42.56637" lon="2.06777">
        <ele>1843</ele>
        <time>2020-07-25T06:58:14.031Z</time>
      </trkpt>
      <trkpt lat="42.56634" lon="2.06776">
        <ele>1842</ele>
        <time>2020-07-25T06:58:15.031Z</time>
      </trkpt>
      <trkpt lat="42.56632" lon="2.06775">
        <ele>1842</ele>
        <time>2020-07-25T06:58:16.031Z</time>
      </trkpt>
      <trkpt lat="42.56629" lon="2.06774">
        <ele>1842</ele>
        <time>2020-07-25T06:58:17.031Z</time>
      </trkpt>
      <trkpt lat="42.56626" lon="2.06773">
        <ele>1841</ele>
        <time>2020-07-25T06:58:18.031Z</time>
      </trkpt>
      <trkpt lat="42.56624" lon="2.06772">
        <ele>1841</ele>
        <time>2020-07-25T06:58:19.031Z</time>
      </trkpt>
      <trkpt lat="42.56621" lon="2.0677">
        <ele>1841</ele>
        <time>2020-07-25T06:58:20.031Z</time>
      </trkpt>
      <trkpt lat="42.56619" lon="2.06768">
        <ele>1840</ele>
        <time>2020-07-25T06:58:21.031Z</time>
      </trkpt>
      <trkpt lat="42.56617" lon="2.06766">
        <ele>1839</ele>
        <time>2020-07-25T06:58:22.031Z</time>
      </trkpt>
      <trkpt lat="42.56615" lon="2.06763">
        <ele>1839</ele>
        <time>2020-07-25T06:58:23.031Z</time>
      </trkpt>
      <trkpt lat="42.56612" lon="2.06761">
        <ele>1839</ele>
        <time>2020-07-25T06:58:24.031Z</time>
      </trkpt>
      <trkpt lat="42.5661" lon="2.06759">
        <ele>1839</ele>
        <time>2020-07-25T06:58:25.031Z</time>
      </trkpt>
      <trkpt lat="42.56608" lon="2.06757">
        <ele>1839</ele>
        <time>2020-07-25T06:58:26.031Z</time>
      </trkpt>
      <trkpt lat="42.56606" lon="2.06754">
        <ele>1839</ele>
        <time>2020-07-25T06:58:27.031Z</time>
      </trkpt>
      <trkpt lat="42.56604" lon="2.06751">
        <ele>1837</ele>
        <time>2020-07-25T06:58:28.031Z</time>
      </trkpt>
      <trkpt lat="42.56602" lon="2.06748">
        <ele>1837</ele>
        <time>2020-07-25T06:58:29.031Z</time>
      </trkpt>
      <trkpt lat="42.566" lon="2.06745">
        <ele>1836</ele>
        <time>2020-07-25T06:58:30.031Z</time>
      </trkpt>
      <trkpt lat="42.56599" lon="2.06741">
        <ele>1835</ele>
        <time>2020-07-25T06:58:31.031Z</time>
      </trkpt>
      <trkpt lat="42.56597" lon="2.06738">
        <ele>1834</ele>
        <time>2020-07-25T06:58:32.031Z</time>
      </trkpt>
      <trkpt lat="42.56596" lon="2.06734">
        <ele>1834</ele>
        <time>2020-07-25T06:58:33.031Z</time>
      </trkpt>
      <trkpt lat="42.56594" lon="2.06731">
        <ele>1834</ele>
        <time>2020-07-25T06:58:34.031Z</time>
      </trkpt>
      <trkpt lat="42.56593" lon="2.06728">
        <ele>1834</ele>
        <time>2020-07-25T06:58:35.031Z</time>
      </trkpt>
      <trkpt lat="42.56591" lon="2.06725">
        <ele>1834</ele>
        <time>2020-07-25T06:58:36.031Z</time>
      </trkpt>
      <trkpt lat="42.5659" lon="2.06721">
        <ele>1834</ele>
        <time>2020-07-25T06:58:37.031Z</time>
      </trkpt>
      <trkpt lat="42.56588" lon="2.06718">
        <ele>1833</ele>
        <time>2020-07-25T06:58:38.031Z</time>
      </trkpt>
      <trkpt lat="42.56587" lon="2.06715">
        <ele>1833</ele>
        <time>2020-07-25T06:58:39.031Z</time>
      </trkpt>
      <trkpt lat="42.56586" lon="2.06712">
        <ele>1832</ele>
        <time>2020-07-25T06:58:40.031Z</time>
      </trkpt>
      <trkpt lat="42.56584" lon="2.06708">
        <ele>1833</ele>
        <time>2020-07-25T06:58:41.031Z</time>
      </trkpt>
      <trkpt lat="42.56583" lon="2.06705">
        <ele>1833</ele>
        <time>2020-07-25T06:58:42.031Z</time>
      </trkpt>
      <trkpt lat="42.56582" lon="2.06701">
        <ele>1833</ele>
        <time>2020-07-25T06:58:43.031Z</time>
      </trkpt>
      <trkpt lat="42.56581" lon="2.06698">
        <ele>1832</ele>
        <time>2020-07-25T06:58:44.031Z</time>
      </trkpt>
      <trkpt lat="42.5658" lon="2.06694">
        <ele>1831</ele>
        <time>2020-07-25T06:58:45.031Z</time>
      </trkpt>
      <trkpt lat="42.56579" lon="2.0669">
        <ele>1831</ele>
        <time>2020-07-25T06:58:46.031Z</time>
      </trkpt>
      <trkpt lat="42.56578" lon="2.06686">
        <ele>1831</ele>
        <time>2020-07-25T06:58:47.031Z</time>
      </trkpt>
      <trkpt lat="42.56577" lon="2.06683">
        <ele>1830</ele>
        <time>2020-07-25T06:58:48.031Z</time>
      </trkpt>
      <trkpt lat="42.56576" lon="2.06679">
        <ele>1830</ele>
        <time>2020-07-25T06:58:49.031Z</time>
      </trkpt>
      <trkpt lat="42.56574" lon="2.06675">
        <ele>1829</ele>
        <time>2020-07-25T06:58:50.031Z</time>
      </trkpt>
      <trkpt lat="42.56573" lon="2.06671">
        <ele>1829</ele>
        <time>2020-07-25T06:58:51.031Z</time>
      </trkpt>
      <trkpt lat="42.56571" lon="2.06668">
        <ele>1829</ele>
        <time>2020-07-25T06:58:52.031Z</time>
      </trkpt>
      <trkpt lat="42.5657" lon="2.06665">
        <ele>1829</ele>
        <time>2020-07-25T06:58:53.031Z</time>
      </trkpt>
      <trkpt lat="42.56569" lon="2.06661">
        <ele>1829</ele>
        <time>2020-07-25T06:58:54.031Z</time>
      </trkpt>
      <trkpt lat="42.56567" lon="2.06658">
        <ele>1829</ele>
        <time>2020-07-25T06:58:55.031Z</time>
      </trkpt>
      <trkpt lat="42.56565" lon="2.06655">
        <ele>1828</ele>
        <time>2020-07-25T06:58:56.031Z</time>
      </trkpt>
      <trkpt lat="42.56563" lon="2.06652">
        <ele>1828</ele>
        <time>2020-07-25T06:58:57.031Z</time>
      </trkpt>
      <trkpt lat="42.56561" lon="2.06649">
        <ele>1827</ele>
        <time>2020-07-25T06:58:58.031Z</time>
      </trkpt>
      <trkpt lat="42.56559" lon="2.06646">
        <ele>1827</ele>
        <time>2020-07-25T06:58:59.031Z</time>
      </trkpt>
      <trkpt lat="42.56557" lon="2.06643">
        <ele>1827</ele>
        <time>2020-07-25T06:59:00.031Z</time>
      </trkpt>
      <trkpt lat="42.56554" lon="2.0664">
        <ele>1827</ele>
        <time>2020-07-25T06:59:01.031Z</time>
      </trkpt>
      <trkpt lat="42.56552" lon="2.06637">
        <ele>1828</ele>
        <time>2020-07-25T06:59:02.031Z</time>
      </trkpt>
      <trkpt lat="42.5655" lon="2.06634">
        <ele>1827</ele>
        <time>2020-07-25T06:59:03.031Z</time>
      </trkpt>
      <trkpt lat="42.56548" lon="2.06631">
        <ele>1828</ele>
        <time>2020-07-25T06:59:04.031Z</time>
      </trkpt>
      <trkpt lat="42.56546" lon="2.06628">
        <ele>1828</ele>
        <time>2020-07-25T06:59:05.031Z</time>
      </trkpt>
      <trkpt lat="42.56544" lon="2.06626">
        <ele>1827</ele>
        <time>2020-07-25T06:59:06.031Z</time>
      </trkpt>
      <trkpt lat="42.56541" lon="2.06623">
        <ele>1827</ele>
        <time>2020-07-25T06:59:07.031Z</time>
      </trkpt>
      <trkpt lat="42.56539" lon="2.06621">
        <ele>1826</ele>
        <time>2020-07-25T06:59:08.031Z</time>
      </trkpt>
      <trkpt lat="42.56536" lon="2.06619">
        <ele>1825</ele>
        <time>2020-07-25T06:59:09.031Z</time>
      </trkpt>
      <trkpt lat="42.56534" lon="2.06617">
        <ele>1825</ele>
        <time>2020-07-25T06:59:10.031Z</time>
      </trkpt>
      <trkpt lat="42.56531" lon="2.06615">
        <ele>1824</ele>
        <time>2020-07-25T06:59:11.031Z</time>
      </trkpt>
      <trkpt lat="42.56529" lon="2.06614">
        <ele>1825</ele>
        <time>2020-07-25T06:59:12.031Z</time>
      </trkpt>
      <trkpt lat="42.56527" lon="2.06612">
        <ele>1824</ele>
        <time>2020-07-25T06:59:13.031Z</time>
      </trkpt>
      <trkpt lat="42.56524" lon="2.0661">
        <ele>1823</ele>
        <time>2020-07-25T06:59:14.031Z</time>
      </trkpt>
      <trkpt lat="42.56522" lon="2.06608">
        <ele>1822</ele>
        <time>2020-07-25T06:59:15.031Z</time>
      </trkpt>
      <trkpt lat="42.5652" lon="2.06606">
        <ele>1823</ele>
        <time>2020-07-25T06:59:16.031Z</time>
      </trkpt>
      <trkpt lat="42.56518" lon="2.06604">
        <ele>1820</ele>
        <time>2020-07-25T06:59:17.031Z</time>
      </trkpt>
      <trkpt lat="42.56516" lon="2.06603">
        <ele>1819</ele>
        <time>2020-07-25T06:59:18.031Z</time>
      </trkpt>
      <trkpt lat="42.56515" lon="2.06601">
        <ele>1819</ele>
        <time>2020-07-25T06:59:19.031Z</time>
      </trkpt>
      <trkpt lat="42.56513" lon="2.06599">
        <ele>1818</ele>
        <time>2020-07-25T06:59:20.031Z</time>
      </trkpt>
      <trkpt lat="42.56512" lon="2.06597">
        <ele>1818</ele>
        <time>2020-07-25T06:59:21.031Z</time>
      </trkpt>
      <trkpt lat="42.5651" lon="2.06594">
        <ele>1817</ele>
        <time>2020-07-25T06:59:22.031Z</time>
      </trkpt>
      <trkpt lat="42.56509" lon="2.06592">
        <ele>1816</ele>
        <time>2020-07-25T06:59:23.031Z</time>
      </trkpt>
      <trkpt lat="42.56507" lon="2.06591">
        <ele>1815</ele>
        <time>2020-07-25T06:59:24.031Z</time>
      </trkpt>
      <trkpt lat="42.56505" lon="2.0659">
        <ele>1814</ele>
        <time>2020-07-25T06:59:25.031Z</time>
      </trkpt>
      <trkpt lat="42.56504" lon="2.06588">
        <ele>1813</ele>
        <time>2020-07-25T06:59:26.031Z</time>
      </trkpt>
      <trkpt lat="42.56503" lon="2.06586">
        <ele>1812</ele>
        <time>2020-07-25T06:59:27.031Z</time>
      </trkpt>
      <trkpt lat="42.56502" lon="2.06583">
        <ele>1811</ele>
        <time>2020-07-25T06:59:28.031Z</time>
      </trkpt>
      <trkpt lat="42.565" lon="2.06581">
        <ele>1809</ele>
        <time>2020-07-25T06:59:29.031Z</time>
      </trkpt>
      <trkpt lat="42.56498" lon="2.06578">
        <ele>1808</ele>
        <time>2020-07-25T06:59:30.031Z</time>
      </trkpt>
      <trkpt lat="42.56496" lon="2.06576">
        <ele>1808</ele>
        <time>2020-07-25T06:59:31.031Z</time>
      </trkpt>
      <trkpt lat="42.56494" lon="2.06573">
        <ele>1807</ele>
        <time>2020-07-25T06:59:32.031Z</time>
      </trkpt>
      <trkpt lat="42.56493" lon="2.06571">
        <ele>1807</ele>
        <time>2020-07-25T06:59:33.031Z</time>
      </trkpt>
      <trkpt lat="42.56491" lon="2.06568">
        <ele>1806</ele>
        <time>2020-07-25T06:59:34.031Z</time>
      </trkpt>
      <trkpt lat="42.5649" lon="2.06566">
        <ele>1805</ele>
        <time>2020-07-25T06:59:35.031Z</time>
      </trkpt>
      <trkpt lat="42.56488" lon="2.06563">
        <ele>1803</ele>
        <time>2020-07-25T06:59:36.031Z</time>
      </trkpt>
      <trkpt lat="42.56486" lon="2.0656">
        <ele>1801</ele>
        <time>2020-07-25T06:59:37.031Z</time>
      </trkpt>
      <trkpt lat="42.56484" lon="2.06557">
        <ele>1800</ele>
        <time>2020-07-25T06:59:38.031Z</time>
      </trkpt>
      <trkpt lat="42.56482" lon="2.06554">
        <ele>1799</ele>
        <time>2020-07-25T06:59:39.031Z</time>
      </trkpt>
      <trkpt lat="42.56479" lon="2.06551">
        <ele>1798</ele>
        <time>2020-07-25T06:59:40.031Z</time>
      </trkpt>
      <trkpt lat="42.56477" lon="2.06548">
        <ele>1797</ele>
        <time>2020-07-25T06:59:41.031Z</time>
      </trkpt>
      <trkpt lat="42.56474" lon="2.06544">
        <ele>1796</ele>
        <time>2020-07-25T06:59:42.031Z</time>
      </trkpt>
      <trkpt lat="42.56472" lon="2.06541">
        <ele>1795</ele>
        <time>2020-07-25T06:59:43.031Z</time>
      </trkpt>
      <trkpt lat="42.5647" lon="2.06538">
        <ele>1794</ele>
        <time>2020-07-25T06:59:44.031Z</time>
      </trkpt>
      <trkpt lat="42.56467" lon="2.06535">
        <ele>1793</ele>
        <time>2020-07-25T06:59:45.031Z</time>
      </trkpt>
      <trkpt lat="42.56465" lon="2.06531">
        <ele>1790</ele>
        <time>2020-07-25T06:59:46.031Z</time>
      </trkpt>
      <trkpt lat="42.56463" lon="2.06528">
        <ele>1790</ele>
        <time>2020-07-25T06:59:47.031Z</time>
      </trkpt>
      <trkpt lat="42.5646" lon="2.06525">
        <ele>1793</ele>
        <time>2020-07-25T06:59:48.031Z</time>
      </trkpt>
      <trkpt lat="42.56458" lon="2.06523">
        <ele>1796</ele>
        <time>2020-07-25T06:59:49.031Z</time>
      </trkpt>
      <trkpt lat="42.56455" lon="2.06521">
        <ele>1796</ele>
        <time>2020-07-25T06:59:50.031Z</time>
      </trkpt>
      <trkpt lat="42.56452" lon="2.06519">
        <ele>1795</ele>
        <time>2020-07-25T06:59:51.031Z</time>
      </trkpt>
      <trkpt lat="42.56449" lon="2.06517">
        <ele>1795</ele>
        <time>2020-07-25T06:59:52.031Z</time>
      </trkpt>
      <trkpt lat="42.56446" lon="2.06514">
        <ele>1794</ele>
        <time>2020-07-25T06:59:53.031Z</time>
      </trkpt>
      <trkpt lat="42.56443" lon="2.06512">
        <ele>1793</ele>
        <time>2020-07-25T06:59:54.031Z</time>
      </trkpt>
      <trkpt lat="42.5644" lon="2.0651">
        <ele>1794</ele>
        <time>2020-07-25T06:59:55.031Z</time>
      </trkpt>
      <trkpt lat="42.56437" lon="2.06509">
        <ele>1793</ele>
        <time>2020-07-25T06:59:56.031Z</time>
      </trkpt>
      <trkpt lat="42.56434" lon="2.06507">
        <ele>1792</ele>
        <time>2020-07-25T06:59:57.031Z</time>
      </trkpt>
      <trkpt lat="42.56431" lon="2.06506">
        <ele>1792</ele>
        <time>2020-07-25T06:59:58.031Z</time>
      </trkpt>
      <trkpt lat="42.56428" lon="2.06505">
        <ele>1792</ele>
        <time>2020-07-25T06:59:59.031Z</time>
      </trkpt>
      <trkpt lat="42.56425" lon="2.06504">
        <ele>1794</ele>
        <time>2020-07-25T07:00:00.031Z</time>
      </trkpt>
      <trkpt lat="42.56422" lon="2.06503">
        <ele>1793</ele>
        <time>2020-07-25T07:00:01.031Z</time>
      </trkpt>
      <trkpt lat="42.56419" lon="2.06501">
        <ele>1793</ele>
        <time>2020-07-25T07:00:02.031Z</time>
      </trkpt>
      <trkpt lat="42.56416" lon="2.065">
        <ele>1793</ele>
        <time>2020-07-25T07:00:03.031Z</time>
      </trkpt>
      <trkpt lat="42.56413" lon="2.06498">
        <ele>1793</ele>
        <time>2020-07-25T07:00:04.031Z</time>
      </trkpt>
      <trkpt lat="42.5641" lon="2.06496">
        <ele>1793</ele>
        <time>2020-07-25T07:00:05.031Z</time>
      </trkpt>
      <trkpt lat="42.56408" lon="2.06494">
        <ele>1792</ele>
        <time>2020-07-25T07:00:06.031Z</time>
      </trkpt>
      <trkpt lat="42.56405" lon="2.06492">
        <ele>1792</ele>
        <time>2020-07-25T07:00:07.031Z</time>
      </trkpt>
      <trkpt lat="42.56402" lon="2.0649">
        <ele>1791</ele>
        <time>2020-07-25T07:00:08.031Z</time>
      </trkpt>
      <trkpt lat="42.56399" lon="2.06487">
        <ele>1792</ele>
        <time>2020-07-25T07:00:09.031Z</time>
      </trkpt>
      <trkpt lat="42.56396" lon="2.06485">
        <ele>1791</ele>
        <time>2020-07-25T07:00:10.031Z</time>
      </trkpt>
      <trkpt lat="42.56393" lon="2.06483">
        <ele>1790</ele>
        <time>2020-07-25T07:00:11.031Z</time>
      </trkpt>
      <trkpt lat="42.56389" lon="2.06481">
        <ele>1791</ele>
        <time>2020-07-25T07:00:12.031Z</time>
      </trkpt>
      <trkpt lat="42.56386" lon="2.0648">
        <ele>1791</ele>
        <time>2020-07-25T07:00:13.031Z</time>
      </trkpt>
      <trkpt lat="42.56383" lon="2.06479">
        <ele>1791</ele>
        <time>2020-07-25T07:00:14.031Z</time>
      </trkpt>
      <trkpt lat="42.5638" lon="2.06478">
        <ele>1792</ele>
        <time>2020-07-25T07:00:15.031Z</time>
      </trkpt>
      <trkpt lat="42.56377" lon="2.06476">
        <ele>1791</ele>
        <time>2020-07-25T07:00:16.031Z</time>
      </trkpt>
      <trkpt lat="42.56374" lon="2.06475">
        <ele>1791</ele>
        <time>2020-07-25T07:00:17.031Z</time>
      </trkpt>
      <trkpt lat="42.56371" lon="2.06474">
        <ele>1791</ele>
        <time>2020-07-25T07:00:18.031Z</time>
      </trkpt>
      <trkpt lat="42.56368" lon="2.06473">
        <ele>1791</ele>
        <time>2020-07-25T07:00:19.031Z</time>
      </trkpt>
      <trkpt lat="42.56365" lon="2.06473">
        <ele>1791</ele>
        <time>2020-07-25T07:00:20.031Z</time>
      </trkpt>
      <trkpt lat="42.56362" lon="2.06473">
        <ele>1791</ele>
        <time>2020-07-25T07:00:21.031Z</time>
      </trkpt>
      <trkpt lat="42.56359" lon="2.06474">
        <ele>1791</ele>
        <time>2020-07-25T07:00:22.031Z</time>
      </trkpt>
      <trkpt lat="42.56356" lon="2.06474">
        <ele>1791</ele>
        <time>2020-07-25T07:00:23.031Z</time>
      </trkpt>
      <trkpt lat="42.56353" lon="2.06476">
        <ele>1791</ele>
        <time>2020-07-25T07:00:24.031Z</time>
      </trkpt>
      <trkpt lat="42.5635" lon="2.06477">
        <ele>1791</ele>
        <time>2020-07-25T07:00:25.031Z</time>
      </trkpt>
      <trkpt lat="42.56346" lon="2.06479">
        <ele>1791</ele>
        <time>2020-07-25T07:00:26.031Z</time>
      </trkpt>
      <trkpt lat="42.56343" lon="2.0648">
        <ele>1791</ele>
        <time>2020-07-25T07:00:27.031Z</time>
      </trkpt>
      <trkpt lat="42.5634" lon="2.06482">
        <ele>1792</ele>
        <time>2020-07-25T07:00:28.031Z</time>
      </trkpt>
      <trkpt lat="42.56336" lon="2.06483">
        <ele>1793</ele>
        <time>2020-07-25T07:00:29.031Z</time>
      </trkpt>
      <trkpt lat="42.56333" lon="2.06484">
        <ele>1794</ele>
        <time>2020-07-25T07:00:30.031Z</time>
      </trkpt>
      <trkpt lat="42.56329" lon="2.06485">
        <ele>1794</ele>
        <time>2020-07-25T07:00:31.031Z</time>
      </trkpt>
      <trkpt lat="42.56326" lon="2.06487">
        <ele>1794</ele>
        <time>2020-07-25T07:00:32.031Z</time>
      </trkpt>
      <trkpt lat="42.56323" lon="2.06488">
        <ele>1794</ele>
        <time>2020-07-25T07:00:33.031Z</time>
      </trkpt>
      <trkpt lat="42.5632" lon="2.06488">
        <ele>1794</ele>
        <time>2020-07-25T07:00:34.031Z</time>
      </trkpt>
      <trkpt lat="42.56317" lon="2.06489">
        <ele>1795</ele>
        <time>2020-07-25T07:00:35.031Z</time>
      </trkpt>
      <trkpt lat="42.56314" lon="2.06489">
        <ele>1795</ele>
        <time>2020-07-25T07:00:36.031Z</time>
      </trkpt>
      <trkpt lat="42.56311" lon="2.0649">
        <ele>1796</ele>
        <time>2020-07-25T07:00:37.031Z</time>
      </trkpt>
      <trkpt lat="42.56308" lon="2.06489">
        <ele>1795</ele>
        <time>2020-07-25T07:00:38.031Z</time>
      </trkpt>
      <trkpt lat="42.56305" lon="2.06488">
        <ele>1795</ele>
        <time>2020-07-25T07:00:39.031Z</time>
      </trkpt>
      <trkpt lat="42.56303" lon="2.06486">
        <ele>1796</ele>
        <time>2020-07-25T07:00:40.031Z</time>
      </trkpt>
      <trkpt lat="42.56301" lon="2.06483">
        <ele>1796</ele>
        <time>2020-07-25T07:00:41.031Z</time>
      </trkpt>
      <trkpt lat="42.56299" lon="2.06481">
        <ele>1795</ele>
        <time>2020-07-25T07:00:42.031Z</time>
      </trkpt>
      <trkpt lat="42.56297" lon="2.06477">
        <ele>1796</ele>
        <time>2020-07-25T07:00:43.031Z</time>
      </trkpt>
      <trkpt lat="42.56295" lon="2.06474">
        <ele>1797</ele>
        <time>2020-07-25T07:00:44.031Z</time>
      </trkpt>
      <trkpt lat="42.56293" lon="2.06471">
        <ele>1797</ele>
        <time>2020-07-25T07:00:45.031Z</time>
      </trkpt>
      <trkpt lat="42.56291" lon="2.06468">
        <ele>1797</ele>
        <time>2020-07-25T07:00:46.031Z</time>
      </trkpt>
      <trkpt lat="42.5629" lon="2.06465">
        <ele>1798</ele>
        <time>2020-07-25T07:00:47.031Z</time>
      </trkpt>
      <trkpt lat="42.56288" lon="2.06462">
        <ele>1798</ele>
        <time>2020-07-25T07:00:48.031Z</time>
      </trkpt>
      <trkpt lat="42.56287" lon="2.0646">
        <ele>1799</ele>
        <time>2020-07-25T07:00:49.031Z</time>
      </trkpt>
      <trkpt lat="42.56285" lon="2.06457">
        <ele>1799</ele>
        <time>2020-07-25T07:00:50.031Z</time>
      </trkpt>
      <trkpt lat="42.56284" lon="2.06454">
        <ele>1799</ele>
        <time>2020-07-25T07:00:51.031Z</time>
      </trkpt>
      <trkpt lat="42.56282" lon="2.06451">
        <ele>1799</ele>
        <time>2020-07-25T07:00:52.031Z</time>
      </trkpt>
      <trkpt lat="42.56281" lon="2.06448">
        <ele>1799</ele>
        <time>2020-07-25T07:00:53.031Z</time>
      </trkpt>
      <trkpt lat="42.56279" lon="2.06446">
        <ele>1800</ele>
        <time>2020-07-25T07:00:54.031Z</time>
      </trkpt>
      <trkpt lat="42.56278" lon="2.06443">
        <ele>1800</ele>
        <time>2020-07-25T07:00:55.031Z</time>
      </trkpt>
      <trkpt lat="42.56277" lon="2.0644">
        <ele>1800</ele>
        <time>2020-07-25T07:00:56.031Z</time>
      </trkpt>
      <trkpt lat="42.56276" lon="2.06437">
        <ele>1801</ele>
        <time>2020-07-25T07:00:57.031Z</time>
      </trkpt>
      <trkpt lat="42.56275" lon="2.06434">
        <ele>1801</ele>
        <time>2020-07-25T07:00:58.031Z</time>
      </trkpt>
      <trkpt lat="42.56274" lon="2.06431">
        <ele>1802</ele>
        <time>2020-07-25T07:00:59.031Z</time>
      </trkpt>
      <trkpt lat="42.56273" lon="2.06428">
        <ele>1803</ele>
        <time>2020-07-25T07:01:00.031Z</time>
      </trkpt>
      <trkpt lat="42.56272" lon="2.06425">
        <ele>1803</ele>
        <time>2020-07-25T07:01:01.031Z</time>
      </trkpt>
      <trkpt lat="42.5627" lon="2.06422">
        <ele>1803</ele>
        <time>2020-07-25T07:01:02.031Z</time>
      </trkpt>
      <trkpt lat="42.56269" lon="2.0642">
        <ele>1804</ele>
        <time>2020-07-25T07:01:03.031Z</time>
      </trkpt>
      <trkpt lat="42.56268" lon="2.06417">
        <ele>1805</ele>
        <time>2020-07-25T07:01:04.031Z</time>
      </trkpt>
      <trkpt lat="42.56267" lon="2.06415">
        <ele>1805</ele>
        <time>2020-07-25T07:01:05.031Z</time>
      </trkpt>
      <trkpt lat="42.56266" lon="2.06413">
        <ele>1806</ele>
        <time>2020-07-25T07:01:06.031Z</time>
      </trkpt>
      <trkpt lat="42.56264" lon="2.06411">
        <ele>1806</ele>
        <time>2020-07-25T07:01:07.031Z</time>
      </trkpt>
      <trkpt lat="42.56263" lon="2.06408">
        <ele>1807</ele>
        <time>2020-07-25T07:01:08.031Z</time>
      </trkpt>
      <trkpt lat="42.56261" lon="2.06406">
        <ele>1807</ele>
        <time>2020-07-25T07:01:09.031Z</time>
      </trkpt>
      <trkpt lat="42.56259" lon="2.06404">
        <ele>1808</ele>
        <time>2020-07-25T07:01:10.031Z</time>
      </trkpt>
      <trkpt lat="42.56257" lon="2.06402">
        <ele>1809</ele>
        <time>2020-07-25T07:01:11.031Z</time>
      </trkpt>
      <trkpt lat="42.56255" lon="2.06401">
        <ele>1810</ele>
        <time>2020-07-25T07:01:12.031Z</time>
      </trkpt>
      <trkpt lat="42.56252" lon="2.064">
        <ele>1811</ele>
        <time>2020-07-25T07:01:13.031Z</time>
      </trkpt>
      <trkpt lat="42.5625" lon="2.064">
        <ele>1812</ele>
        <time>2020-07-25T07:01:14.031Z</time>
      </trkpt>
      <trkpt lat="42.56248" lon="2.064">
        <ele>1812</ele>
        <time>2020-07-25T07:01:15.031Z</time>
      </trkpt>
      <trkpt lat="42.56246" lon="2.06401">
        <ele>1812</ele>
        <time>2020-07-25T07:01:16.031Z</time>
      </trkpt>
      <trkpt lat="42.56244" lon="2.06402">
        <ele>1812</ele>
        <time>2020-07-25T07:01:17.031Z</time>
      </trkpt>
      <trkpt lat="42.56242" lon="2.06404">
        <ele>1813</ele>
        <time>2020-07-25T07:01:18.031Z</time>
      </trkpt>
      <trkpt lat="42.56241" lon="2.06406">
        <ele>1814</ele>
        <time>2020-07-25T07:01:19.031Z</time>
      </trkpt>
      <trkpt lat="42.56239" lon="2.06409">
        <ele>1815</ele>
        <time>2020-07-25T07:01:20.031Z</time>
      </trkpt>
      <trkpt lat="42.56237" lon="2.06411">
        <ele>1815</ele>
        <time>2020-07-25T07:01:21.031Z</time>
      </trkpt>
      <trkpt lat="42.56235" lon="2.06413">
        <ele>1815</ele>
        <time>2020-07-25T07:01:22.031Z</time>
      </trkpt>
      <trkpt lat="42.56233" lon="2.06415">
        <ele>1816</ele>
        <time>2020-07-25T07:01:23.031Z</time>
      </trkpt>
      <trkpt lat="42.56231" lon="2.06416">
        <ele>1816</ele>
        <time>2020-07-25T07:01:24.031Z</time>
      </trkpt>
      <trkpt lat="42.56228" lon="2.06417">
        <ele>1816</ele>
        <time>2020-07-25T07:01:25.031Z</time>
      </trkpt>
      <trkpt lat="42.56225" lon="2.06418">
        <ele>1817</ele>
        <time>2020-07-25T07:01:26.031Z</time>
      </trkpt>
      <trkpt lat="42.56222" lon="2.06418">
        <ele>1817</ele>
        <time>2020-07-25T07:01:27.031Z</time>
      </trkpt>
      <trkpt lat="42.56219" lon="2.06418">
        <ele>1817</ele>
        <time>2020-07-25T07:01:28.031Z</time>
      </trkpt>
      <trkpt lat="42.56217" lon="2.06417">
        <ele>1816</ele>
        <time>2020-07-25T07:01:29.031Z</time>
      </trkpt>
      <trkpt lat="42.56214" lon="2.06416">
        <ele>1816</ele>
        <time>2020-07-25T07:01:30.031Z</time>
      </trkpt>
      <trkpt lat="42.56211" lon="2.06416">
        <ele>1816</ele>
        <time>2020-07-25T07:01:31.031Z</time>
      </trkpt>
      <trkpt lat="42.56209" lon="2.06415">
        <ele>1815</ele>
        <time>2020-07-25T07:01:32.031Z</time>
      </trkpt>
      <trkpt lat="42.56206" lon="2.06414">
        <ele>1816</ele>
        <time>2020-07-25T07:01:33.031Z</time>
      </trkpt>
      <trkpt lat="42.56204" lon="2.06412">
        <ele>1815</ele>
        <time>2020-07-25T07:01:34.031Z</time>
      </trkpt>
      <trkpt lat="42.56201" lon="2.06411">
        <ele>1815</ele>
        <time>2020-07-25T07:01:35.031Z</time>
      </trkpt>
      <trkpt lat="42.56199" lon="2.06411">
        <ele>1814</ele>
        <time>2020-07-25T07:01:36.031Z</time>
      </trkpt>
      <trkpt lat="42.56196" lon="2.0641">
        <ele>1814</ele>
        <time>2020-07-25T07:01:37.031Z</time>
      </trkpt>
      <trkpt lat="42.56194" lon="2.06408">
        <ele>1814</ele>
        <time>2020-07-25T07:01:38.031Z</time>
      </trkpt>
      <trkpt lat="42.56191" lon="2.06407">
        <ele>1814</ele>
        <time>2020-07-25T07:01:39.031Z</time>
      </trkpt>
      <trkpt lat="42.56189" lon="2.06406">
        <ele>1814</ele>
        <time>2020-07-25T07:01:40.031Z</time>
      </trkpt>
      <trkpt lat="42.56186" lon="2.06404">
        <ele>1814</ele>
        <time>2020-07-25T07:01:41.031Z</time>
      </trkpt>
      <trkpt lat="42.56184" lon="2.06403">
        <ele>1812</ele>
        <time>2020-07-25T07:01:42.031Z</time>
      </trkpt>
      <trkpt lat="42.56182" lon="2.064">
        <ele>1811</ele>
        <time>2020-07-25T07:01:43.031Z</time>
      </trkpt>
      <trkpt lat="42.5618" lon="2.06397">
        <ele>1810</ele>
        <time>2020-07-25T07:01:44.031Z</time>
      </trkpt>
      <trkpt lat="42.56178" lon="2.06395">
        <ele>1810</ele>
        <time>2020-07-25T07:01:45.031Z</time>
      </trkpt>
      <trkpt lat="42.56176" lon="2.06392">
        <ele>1810</ele>
        <time>2020-07-25T07:01:46.031Z</time>
      </trkpt>
      <trkpt lat="42.56174" lon="2.06389">
        <ele>1810</ele>
        <time>2020-07-25T07:01:47.031Z</time>
      </trkpt>
      <trkpt lat="42.56172" lon="2.06387">
        <ele>1811</ele>
        <time>2020-07-25T07:01:48.031Z</time>
      </trkpt>
      <trkpt lat="42.5617" lon="2.06385">
        <ele>1811</ele>
        <time>2020-07-25T07:01:49.031Z</time>
      </trkpt>
      <trkpt lat="42.56168" lon="2.06382">
        <ele>1810</ele>
        <time>2020-07-25T07:01:50.031Z</time>
      </trkpt>
      <trkpt lat="42.56166" lon="2.0638">
        <ele>1809</ele>
        <time>2020-07-25T07:01:51.031Z</time>
      </trkpt>
      <trkpt lat="42.56164" lon="2.06378">
        <ele>1809</ele>
        <time>2020-07-25T07:01:52.031Z</time>
      </trkpt>
      <trkpt lat="42.56163" lon="2.06376">
        <ele>1810</ele>
        <time>2020-07-25T07:01:53.031Z</time>
      </trkpt>
      <trkpt lat="42.56161" lon="2.06374">
        <ele>1811</ele>
        <time>2020-07-25T07:01:54.031Z</time>
      </trkpt>
      <trkpt lat="42.5616" lon="2.06372">
        <ele>1810</ele>
        <time>2020-07-25T07:01:55.031Z</time>
      </trkpt>
      <trkpt lat="42.56158" lon="2.0637">
        <ele>1811</ele>
        <time>2020-07-25T07:01:56.031Z</time>
      </trkpt>
      <trkpt lat="42.56156" lon="2.06368">
        <ele>1811</ele>
        <time>2020-07-25T07:01:57.031Z</time>
      </trkpt>
      <trkpt lat="42.56154" lon="2.06365">
        <ele>1810</ele>
        <time>2020-07-25T07:01:58.031Z</time>
      </trkpt>
      <trkpt lat="42.56151" lon="2.06363">
        <ele>1810</ele>
        <time>2020-07-25T07:01:59.031Z</time>
      </trkpt>
      <trkpt lat="42.56149" lon="2.0636">
        <ele>1810</ele>
        <time>2020-07-25T07:02:00.031Z</time>
      </trkpt>
      <trkpt lat="42.56147" lon="2.06358">
        <ele>1810</ele>
        <time>2020-07-25T07:02:01.031Z</time>
      </trkpt>
      <trkpt lat="42.56144" lon="2.06356">
        <ele>1812</ele>
        <time>2020-07-25T07:02:02.031Z</time>
      </trkpt>
      <trkpt lat="42.56143" lon="2.06355">
        <ele>1812</ele>
        <time>2020-07-25T07:02:03.031Z</time>
      </trkpt>
      <trkpt lat="42.5614" lon="2.06354">
        <ele>1812</ele>
        <time>2020-07-25T07:02:04.031Z</time>
      </trkpt>
      <trkpt lat="42.56138" lon="2.06353">
        <ele>1813</ele>
        <time>2020-07-25T07:02:05.031Z</time>
      </trkpt>
      <trkpt lat="42.56135" lon="2.06352">
        <ele>1814</ele>
        <time>2020-07-25T07:02:06.031Z</time>
      </trkpt>
      <trkpt lat="42.56133" lon="2.06352">
        <ele>1815</ele>
        <time>2020-07-25T07:02:07.031Z</time>
      </trkpt>
      <trkpt lat="42.5613" lon="2.06351">
        <ele>1817</ele>
        <time>2020-07-25T07:02:08.031Z</time>
      </trkpt>
      <trkpt lat="42.56127" lon="2.06351">
        <ele>1816</ele>
        <time>2020-07-25T07:02:09.031Z</time>
      </trkpt>
      <trkpt lat="42.56125" lon="2.06351">
        <ele>1818</ele>
        <time>2020-07-25T07:02:10.031Z</time>
      </trkpt>
      <trkpt lat="42.56123" lon="2.06351">
        <ele>1819</ele>
        <time>2020-07-25T07:02:11.031Z</time>
      </trkpt>
      <trkpt lat="42.5612" lon="2.06352">
        <ele>1819</ele>
        <time>2020-07-25T07:02:12.031Z</time>
      </trkpt>
      <trkpt lat="42.56118" lon="2.06352">
        <ele>1819</ele>
        <time>2020-07-25T07:02:13.031Z</time>
      </trkpt>
      <trkpt lat="42.56115" lon="2.06353">
        <ele>1819</ele>
        <time>2020-07-25T07:02:14.031Z</time>
      </trkpt>
      <trkpt lat="42.56112" lon="2.06353">
        <ele>1819</ele>
        <time>2020-07-25T07:02:15.031Z</time>
      </trkpt>
      <trkpt lat="42.5611" lon="2.06353">
        <ele>1819</ele>
        <time>2020-07-25T07:02:16.031Z</time>
      </trkpt>
      <trkpt lat="42.56107" lon="2.06354">
        <ele>1819</ele>
        <time>2020-07-25T07:02:17.031Z</time>
      </trkpt>
      <trkpt lat="42.56105" lon="2.06355">
        <ele>1819</ele>
        <time>2020-07-25T07:02:18.031Z</time>
      </trkpt>
      <trkpt lat="42.56102" lon="2.06356">
        <ele>1819</ele>
        <time>2020-07-25T07:02:19.031Z</time>
      </trkpt>
      <trkpt lat="42.561" lon="2.06357">
        <ele>1820</ele>
        <time>2020-07-25T07:02:20.031Z</time>
      </trkpt>
      <trkpt lat="42.56098" lon="2.06358">
        <ele>1821</ele>
        <time>2020-07-25T07:02:21.031Z</time>
      </trkpt>
      <trkpt lat="42.56095" lon="2.06359">
        <ele>1821</ele>
        <time>2020-07-25T07:02:22.031Z</time>
      </trkpt>
      <trkpt lat="42.56093" lon="2.0636">
        <ele>1821</ele>
        <time>2020-07-25T07:02:23.031Z</time>
      </trkpt>
      <trkpt lat="42.5609" lon="2.0636">
        <ele>1822</ele>
        <time>2020-07-25T07:02:24.031Z</time>
      </trkpt>
      <trkpt lat="42.56088" lon="2.06361">
        <ele>1822</ele>
        <time>2020-07-25T07:02:25.031Z</time>
      </trkpt>
      <trkpt lat="42.56085" lon="2.06363">
        <ele>1824</ele>
        <time>2020-07-25T07:02:26.031Z</time>
      </trkpt>
      <trkpt lat="42.56083" lon="2.06365">
        <ele>1825</ele>
        <time>2020-07-25T07:02:27.031Z</time>
      </trkpt>
      <trkpt lat="42.5608" lon="2.06367">
        <ele>1826</ele>
        <time>2020-07-25T07:02:28.031Z</time>
      </trkpt>
      <trkpt lat="42.56077" lon="2.06368">
        <ele>1827</ele>
        <time>2020-07-25T07:02:29.031Z</time>
      </trkpt>
      <trkpt lat="42.56075" lon="2.0637">
        <ele>1826</ele>
        <time>2020-07-25T07:02:30.031Z</time>
      </trkpt>
      <trkpt lat="42.56072" lon="2.06372">
        <ele>1827</ele>
        <time>2020-07-25T07:02:31.031Z</time>
      </trkpt>
      <trkpt lat="42.5607" lon="2.06374">
        <ele>1827</ele>
        <time>2020-07-25T07:02:32.031Z</time>
      </trkpt>
      <trkpt lat="42.56068" lon="2.06375">
        <ele>1827</ele>
        <time>2020-07-25T07:02:33.031Z</time>
      </trkpt>
      <trkpt lat="42.56065" lon="2.06377">
        <ele>1828</ele>
        <time>2020-07-25T07:02:34.031Z</time>
      </trkpt>
      <trkpt lat="42.56062" lon="2.06378">
        <ele>1828</ele>
        <time>2020-07-25T07:02:35.031Z</time>
      </trkpt>
      <trkpt lat="42.5606" lon="2.06379">
        <ele>1829</ele>
        <time>2020-07-25T07:02:36.031Z</time>
      </trkpt>
      <trkpt lat="42.56057" lon="2.0638">
        <ele>1830</ele>
        <time>2020-07-25T07:02:37.031Z</time>
      </trkpt>
      <trkpt lat="42.56055" lon="2.06381">
        <ele>1831</ele>
        <time>2020-07-25T07:02:38.031Z</time>
      </trkpt>
      <trkpt lat="42.56053" lon="2.06382">
        <ele>1831</ele>
        <time>2020-07-25T07:02:39.031Z</time>
      </trkpt>
      <trkpt lat="42.56051" lon="2.06384">
        <ele>1831</ele>
        <time>2020-07-25T07:02:40.031Z</time>
      </trkpt>
      <trkpt lat="42.56048" lon="2.06385">
        <ele>1831</ele>
        <time>2020-07-25T07:02:41.031Z</time>
      </trkpt>
      <trkpt lat="42.56046" lon="2.06388">
        <ele>1833</ele>
        <time>2020-07-25T07:02:42.031Z</time>
      </trkpt>
      <trkpt lat="42.56043" lon="2.0639">
        <ele>1833</ele>
        <time>2020-07-25T07:02:43.031Z</time>
      </trkpt>
      <trkpt lat="42.56041" lon="2.06393">
        <ele>1835</ele>
        <time>2020-07-25T07:02:44.031Z</time>
      </trkpt>
      <trkpt lat="42.56039" lon="2.06396">
        <ele>1835</ele>
        <time>2020-07-25T07:02:45.031Z</time>
      </trkpt>
      <trkpt lat="42.56036" lon="2.06399">
        <ele>1836</ele>
        <time>2020-07-25T07:02:46.031Z</time>
      </trkpt>
      <trkpt lat="42.56034" lon="2.06402">
        <ele>1836</ele>
        <time>2020-07-25T07:02:47.031Z</time>
      </trkpt>
      <trkpt lat="42.56032" lon="2.06405">
        <ele>1837</ele>
        <time>2020-07-25T07:02:48.031Z</time>
      </trkpt>
      <trkpt lat="42.56029" lon="2.06408">
        <ele>1838</ele>
        <time>2020-07-25T07:02:49.031Z</time>
      </trkpt>
      <trkpt lat="42.56027" lon="2.06411">
        <ele>1838</ele>
        <time>2020-07-25T07:02:50.031Z</time>
      </trkpt>
      <trkpt lat="42.56025" lon="2.06414">
        <ele>1839</ele>
        <time>2020-07-25T07:02:51.031Z</time>
      </trkpt>
      <trkpt lat="42.56023" lon="2.06416">
        <ele>1839</ele>
        <time>2020-07-25T07:02:52.031Z</time>
      </trkpt>
      <trkpt lat="42.56021" lon="2.06419">
        <ele>1840</ele>
        <time>2020-07-25T07:02:53.031Z</time>
      </trkpt>
      <trkpt lat="42.56019" lon="2.06421">
        <ele>1840</ele>
        <time>2020-07-25T07:02:54.031Z</time>
      </trkpt>
      <trkpt lat="42.56017" lon="2.06424">
        <ele>1841</ele>
        <time>2020-07-25T07:02:55.031Z</time>
      </trkpt>
      <trkpt lat="42.56015" lon="2.06428">
        <ele>1842</ele>
        <time>2020-07-25T07:02:56.031Z</time>
      </trkpt>
      <trkpt lat="42.56013" lon="2.06432">
        <ele>1843</ele>
        <time>2020-07-25T07:02:57.031Z</time>
      </trkpt>
      <trkpt lat="42.56012" lon="2.06436">
        <ele>1843</ele>
        <time>2020-07-25T07:02:58.031Z</time>
      </trkpt>
      <trkpt lat="42.5601" lon="2.0644">
        <ele>1844</ele>
        <time>2020-07-25T07:02:59.031Z</time>
      </trkpt>
      <trkpt lat="42.56009" lon="2.06444">
        <ele>1844</ele>
        <time>2020-07-25T07:03:00.031Z</time>
      </trkpt>
      <trkpt lat="42.56007" lon="2.06447">
        <ele>1845</ele>
        <time>2020-07-25T07:03:01.031Z</time>
      </trkpt>
      <trkpt lat="42.56005" lon="2.06451">
        <ele>1845</ele>
        <time>2020-07-25T07:03:02.031Z</time>
      </trkpt>
      <trkpt lat="42.56003" lon="2.06454">
        <ele>1846</ele>
        <time>2020-07-25T07:03:03.031Z</time>
      </trkpt>
      <trkpt lat="42.56001" lon="2.06457">
        <ele>1848</ele>
        <time>2020-07-25T07:03:04.031Z</time>
      </trkpt>
      <trkpt lat="42.55999" lon="2.0646">
        <ele>1848</ele>
        <time>2020-07-25T07:03:05.031Z</time>
      </trkpt>
      <trkpt lat="42.55996" lon="2.06462">
        <ele>1849</ele>
        <time>2020-07-25T07:03:06.031Z</time>
      </trkpt>
      <trkpt lat="42.55994" lon="2.06464">
        <ele>1849</ele>
        <time>2020-07-25T07:03:07.031Z</time>
      </trkpt>
      <trkpt lat="42.55992" lon="2.06467">
        <ele>1850</ele>
        <time>2020-07-25T07:03:08.031Z</time>
      </trkpt>
      <trkpt lat="42.55989" lon="2.06469">
        <ele>1851</ele>
        <time>2020-07-25T07:03:09.031Z</time>
      </trkpt>
      <trkpt lat="42.55986" lon="2.06471">
        <ele>1849</ele>
        <time>2020-07-25T07:03:10.031Z</time>
      </trkpt>
      <trkpt lat="42.55983" lon="2.06471">
        <ele>1848</ele>
        <time>2020-07-25T07:03:11.031Z</time>
      </trkpt>
      <trkpt lat="42.5598" lon="2.06472">
        <ele>1847</ele>
        <time>2020-07-25T07:03:12.031Z</time>
      </trkpt>
      <trkpt lat="42.55978" lon="2.06472">
        <ele>1847</ele>
        <time>2020-07-25T07:03:13.031Z</time>
      </trkpt>
      <trkpt lat="42.55975" lon="2.06474">
        <ele>1847</ele>
        <time>2020-07-25T07:03:14.031Z</time>
      </trkpt>
      <trkpt lat="42.55973" lon="2.06475">
        <ele>1847</ele>
        <time>2020-07-25T07:03:15.031Z</time>
      </trkpt>
      <trkpt lat="42.55971" lon="2.06477">
        <ele>1845</ele>
        <time>2020-07-25T07:03:16.031Z</time>
      </trkpt>
      <trkpt lat="42.55968" lon="2.06478">
        <ele>1846</ele>
        <time>2020-07-25T07:03:17.031Z</time>
      </trkpt>
      <trkpt lat="42.55965" lon="2.06479">
        <ele>1847</ele>
        <time>2020-07-25T07:03:18.031Z</time>
      </trkpt>
      <trkpt lat="42.55962" lon="2.06481">
        <ele>1848</ele>
        <time>2020-07-25T07:03:19.031Z</time>
      </trkpt>
      <trkpt lat="42.5596" lon="2.06483">
        <ele>1848</ele>
        <time>2020-07-25T07:03:20.031Z</time>
      </trkpt>
      <trkpt lat="42.55957" lon="2.06484">
        <ele>1849</ele>
        <time>2020-07-25T07:03:21.031Z</time>
      </trkpt>
      <trkpt lat="42.55954" lon="2.06485">
        <ele>1849</ele>
        <time>2020-07-25T07:03:22.031Z</time>
      </trkpt>
      <trkpt lat="42.55952" lon="2.06486">
        <ele>1850</ele>
        <time>2020-07-25T07:03:23.031Z</time>
      </trkpt>
      <trkpt lat="42.55949" lon="2.06486">
        <ele>1850</ele>
        <time>2020-07-25T07:03:24.031Z</time>
      </trkpt>
      <trkpt lat="42.55947" lon="2.06487">
        <ele>1850</ele>
        <time>2020-07-25T07:03:25.031Z</time>
      </trkpt>
      <trkpt lat="42.55944" lon="2.06487">
        <ele>1851</ele>
        <time>2020-07-25T07:03:26.031Z</time>
      </trkpt>
      <trkpt lat="42.55941" lon="2.06488">
        <ele>1850</ele>
        <time>2020-07-25T07:03:27.031Z</time>
      </trkpt>
      <trkpt lat="42.55939" lon="2.06489">
        <ele>1851</ele>
        <time>2020-07-25T07:03:28.031Z</time>
      </trkpt>
      <trkpt lat="42.55937" lon="2.06489">
        <ele>1851</ele>
        <time>2020-07-25T07:03:29.031Z</time>
      </trkpt>
      <trkpt lat="42.55934" lon="2.0649">
        <ele>1852</ele>
        <time>2020-07-25T07:03:30.031Z</time>
      </trkpt>
      <trkpt lat="42.55932" lon="2.0649">
        <ele>1852</ele>
        <time>2020-07-25T07:03:31.031Z</time>
      </trkpt>
      <trkpt lat="42.5593" lon="2.0649">
        <ele>1851</ele>
        <time>2020-07-25T07:03:32.031Z</time>
      </trkpt>
      <trkpt lat="42.55927" lon="2.0649">
        <ele>1850</ele>
        <time>2020-07-25T07:03:33.031Z</time>
      </trkpt>
      <trkpt lat="42.55925" lon="2.0649">
        <ele>1849</ele>
        <time>2020-07-25T07:03:34.031Z</time>
      </trkpt>
      <trkpt lat="42.55921" lon="2.06491">
        <ele>1850</ele>
        <time>2020-07-25T07:03:35.031Z</time>
      </trkpt>
      <trkpt lat="42.55918" lon="2.06492">
        <ele>1849</ele>
        <time>2020-07-25T07:03:36.031Z</time>
      </trkpt>
      <trkpt lat="42.55915" lon="2.06493">
        <ele>1849</ele>
        <time>2020-07-25T07:03:37.031Z</time>
      </trkpt>
      <trkpt lat="42.55912" lon="2.06494">
        <ele>1851</ele>
        <time>2020-07-25T07:03:38.031Z</time>
      </trkpt>
      <trkpt lat="42.55909" lon="2.06495">
        <ele>1851</ele>
        <time>2020-07-25T07:03:39.031Z</time>
      </trkpt>
      <trkpt lat="42.55906" lon="2.06496">
        <ele>1850</ele>
        <time>2020-07-25T07:03:40.031Z</time>
      </trkpt>
      <trkpt lat="42.55903" lon="2.06497">
        <ele>1847</ele>
        <time>2020-07-25T07:03:41.031Z</time>
      </trkpt>
      <trkpt lat="42.559" lon="2.06498">
        <ele>1846</ele>
        <time>2020-07-25T07:03:42.031Z</time>
      </trkpt>
      <trkpt lat="42.55897" lon="2.06498">
        <ele>1846</ele>
        <time>2020-07-25T07:03:43.031Z</time>
      </trkpt>
      <trkpt lat="42.55894" lon="2.06499">
        <ele>1845</ele>
        <time>2020-07-25T07:03:44.031Z</time>
      </trkpt>
      <trkpt lat="42.55891" lon="2.065">
        <ele>1845</ele>
        <time>2020-07-25T07:03:45.031Z</time>
      </trkpt>
      <trkpt lat="42.55888" lon="2.06501">
        <ele>1845</ele>
        <time>2020-07-25T07:03:46.031Z</time>
      </trkpt>
      <trkpt lat="42.55885" lon="2.06501">
        <ele>1844</ele>
        <time>2020-07-25T07:03:47.031Z</time>
      </trkpt>
      <trkpt lat="42.55882" lon="2.06502">
        <ele>1845</ele>
        <time>2020-07-25T07:03:48.031Z</time>
      </trkpt>
      <trkpt lat="42.55879" lon="2.06503">
        <ele>1846</ele>
        <time>2020-07-25T07:03:49.031Z</time>
      </trkpt>
      <trkpt lat="42.55877" lon="2.06504">
        <ele>1847</ele>
        <time>2020-07-25T07:03:50.031Z</time>
      </trkpt>
      <trkpt lat="42.55874" lon="2.06506">
        <ele>1849</ele>
        <time>2020-07-25T07:03:51.031Z</time>
      </trkpt>
      <trkpt lat="42.55872" lon="2.06508">
        <ele>1849</ele>
        <time>2020-07-25T07:03:52.031Z</time>
      </trkpt>
      <trkpt lat="42.55869" lon="2.0651">
        <ele>1849</ele>
        <time>2020-07-25T07:03:53.031Z</time>
      </trkpt>
      <trkpt lat="42.55867" lon="2.06511">
        <ele>1850</ele>
        <time>2020-07-25T07:03:54.031Z</time>
      </trkpt>
      <trkpt lat="42.55865" lon="2.06513">
        <ele>1850</ele>
        <time>2020-07-25T07:03:55.031Z</time>
      </trkpt>
      <trkpt lat="42.55863" lon="2.06515">
        <ele>1851</ele>
        <time>2020-07-25T07:03:56.031Z</time>
      </trkpt>
      <trkpt lat="42.55861" lon="2.06518">
        <ele>1852</ele>
        <time>2020-07-25T07:03:57.031Z</time>
      </trkpt>
      <trkpt lat="42.55859" lon="2.0652">
        <ele>1852</ele>
        <time>2020-07-25T07:03:58.031Z</time>
      </trkpt>
      <trkpt lat="42.55857" lon="2.06522">
        <ele>1853</ele>
        <time>2020-07-25T07:03:59.031Z</time>
      </trkpt>
      <trkpt lat="42.55855" lon="2.06525">
        <ele>1854</ele>
        <time>2020-07-25T07:04:00.031Z</time>
      </trkpt>
      <trkpt lat="42.55854" lon="2.06528">
        <ele>1856</ele>
        <time>2020-07-25T07:04:01.031Z</time>
      </trkpt>
      <trkpt lat="42.55852" lon="2.0653">
        <ele>1855</ele>
        <time>2020-07-25T07:04:02.031Z</time>
      </trkpt>
      <trkpt lat="42.55849" lon="2.06532">
        <ele>1856</ele>
        <time>2020-07-25T07:04:03.031Z</time>
      </trkpt>
      <trkpt lat="42.55846" lon="2.06533">
        <ele>1856</ele>
        <time>2020-07-25T07:04:04.031Z</time>
      </trkpt>
      <trkpt lat="42.55843" lon="2.06534">
        <ele>1856</ele>
        <time>2020-07-25T07:04:05.031Z</time>
      </trkpt>
      <trkpt lat="42.5584" lon="2.06534">
        <ele>1855</ele>
        <time>2020-07-25T07:04:06.031Z</time>
      </trkpt>
      <trkpt lat="42.55836" lon="2.06535">
        <ele>1855</ele>
        <time>2020-07-25T07:04:07.031Z</time>
      </trkpt>
      <trkpt lat="42.55834" lon="2.06535">
        <ele>1854</ele>
        <time>2020-07-25T07:04:08.031Z</time>
      </trkpt>
      <trkpt lat="42.55831" lon="2.06536">
        <ele>1855</ele>
        <time>2020-07-25T07:04:09.031Z</time>
      </trkpt>
      <trkpt lat="42.55829" lon="2.06538">
        <ele>1855</ele>
        <time>2020-07-25T07:04:10.031Z</time>
      </trkpt>
      <trkpt lat="42.55827" lon="2.06539">
        <ele>1856</ele>
        <time>2020-07-25T07:04:11.031Z</time>
      </trkpt>
      <trkpt lat="42.55824" lon="2.0654">
        <ele>1856</ele>
        <time>2020-07-25T07:04:12.031Z</time>
      </trkpt>
      <trkpt lat="42.55821" lon="2.0654">
        <ele>1856</ele>
        <time>2020-07-25T07:04:13.031Z</time>
      </trkpt>
      <trkpt lat="42.55818" lon="2.0654">
        <ele>1855</ele>
        <time>2020-07-25T07:04:14.031Z</time>
      </trkpt>
      <trkpt lat="42.55815" lon="2.06541">
        <ele>1855</ele>
        <time>2020-07-25T07:04:15.031Z</time>
      </trkpt>
      <trkpt lat="42.55812" lon="2.06541">
        <ele>1855</ele>
        <time>2020-07-25T07:04:16.031Z</time>
      </trkpt>
      <trkpt lat="42.55809" lon="2.06542">
        <ele>1855</ele>
        <time>2020-07-25T07:04:17.031Z</time>
      </trkpt>
      <trkpt lat="42.55806" lon="2.06541">
        <ele>1855</ele>
        <time>2020-07-25T07:04:18.031Z</time>
      </trkpt>
      <trkpt lat="42.55803" lon="2.0654">
        <ele>1856</ele>
        <time>2020-07-25T07:04:19.031Z</time>
      </trkpt>
      <trkpt lat="42.558" lon="2.06537">
        <ele>1855</ele>
        <time>2020-07-25T07:04:20.031Z</time>
      </trkpt>
      <trkpt lat="42.55798" lon="2.06533">
        <ele>1856</ele>
        <time>2020-07-25T07:04:21.031Z</time>
      </trkpt>
      <trkpt lat="42.55795" lon="2.0653">
        <ele>1855</ele>
        <time>2020-07-25T07:04:22.031Z</time>
      </trkpt>
      <trkpt lat="42.55793" lon="2.06526">
        <ele>1854</ele>
        <time>2020-07-25T07:04:23.031Z</time>
      </trkpt>
      <trkpt lat="42.55791" lon="2.06523">
        <ele>1853</ele>
        <time>2020-07-25T07:04:24.031Z</time>
      </trkpt>
      <trkpt lat="42.5579" lon="2.0652">
        <ele>1853</ele>
        <time>2020-07-25T07:04:25.031Z</time>
      </trkpt>
      <trkpt lat="42.55788" lon="2.06516">
        <ele>1852</ele>
        <time>2020-07-25T07:04:26.031Z</time>
      </trkpt>
      <trkpt lat="42.55787" lon="2.06513">
        <ele>1851</ele>
        <time>2020-07-25T07:04:27.031Z</time>
      </trkpt>
      <trkpt lat="42.55785" lon="2.06509">
        <ele>1851</ele>
        <time>2020-07-25T07:04:28.031Z</time>
      </trkpt>
      <trkpt lat="42.55783" lon="2.06505">
        <ele>1850</ele>
        <time>2020-07-25T07:04:29.031Z</time>
      </trkpt>
      <trkpt lat="42.55781" lon="2.06501">
        <ele>1850</ele>
        <time>2020-07-25T07:04:30.031Z</time>
      </trkpt>
      <trkpt lat="42.5578" lon="2.06497">
        <ele>1849</ele>
        <time>2020-07-25T07:04:31.031Z</time>
      </trkpt>
      <trkpt lat="42.55778" lon="2.06494">
        <ele>1849</ele>
        <time>2020-07-25T07:04:32.031Z</time>
      </trkpt>
      <trkpt lat="42.55777" lon="2.06491">
        <ele>1848</ele>
        <time>2020-07-25T07:04:33.031Z</time>
      </trkpt>
      <trkpt lat="42.55775" lon="2.06488">
        <ele>1848</ele>
        <time>2020-07-25T07:04:34.031Z</time>
      </trkpt>
      <trkpt lat="42.55773" lon="2.06485">
        <ele>1848</ele>
        <time>2020-07-25T07:04:35.031Z</time>
      </trkpt>
      <trkpt lat="42.5577" lon="2.06484">
        <ele>1847</ele>
        <time>2020-07-25T07:04:36.031Z</time>
      </trkpt>
      <trkpt lat="42.55768" lon="2.06482">
        <ele>1846</ele>
        <time>2020-07-25T07:04:37.031Z</time>
      </trkpt>
      <trkpt lat="42.55766" lon="2.0648">
        <ele>1845</ele>
        <time>2020-07-25T07:04:38.031Z</time>
      </trkpt>
      <trkpt lat="42.55763" lon="2.06478">
        <ele>1845</ele>
        <time>2020-07-25T07:04:39.031Z</time>
      </trkpt>
      <trkpt lat="42.5576" lon="2.06476">
        <ele>1845</ele>
        <time>2020-07-25T07:04:40.031Z</time>
      </trkpt>
      <trkpt lat="42.55757" lon="2.06475">
        <ele>1845</ele>
        <time>2020-07-25T07:04:41.031Z</time>
      </trkpt>
      <trkpt lat="42.55755" lon="2.06474">
        <ele>1846</ele>
        <time>2020-07-25T07:04:42.031Z</time>
      </trkpt>
      <trkpt lat="42.55752" lon="2.06473">
        <ele>1847</ele>
        <time>2020-07-25T07:04:43.031Z</time>
      </trkpt>
      <trkpt lat="42.55749" lon="2.06474">
        <ele>1847</ele>
        <time>2020-07-25T07:04:44.031Z</time>
      </trkpt>
      <trkpt lat="42.55746" lon="2.06474">
        <ele>1846</ele>
        <time>2020-07-25T07:04:45.031Z</time>
      </trkpt>
      <trkpt lat="42.55743" lon="2.06474">
        <ele>1846</ele>
        <time>2020-07-25T07:04:46.031Z</time>
      </trkpt>
      <trkpt lat="42.55741" lon="2.06473">
        <ele>1845</ele>
        <time>2020-07-25T07:04:47.031Z</time>
      </trkpt>
      <trkpt lat="42.55739" lon="2.06473">
        <ele>1845</ele>
        <time>2020-07-25T07:04:48.031Z</time>
      </trkpt>
      <trkpt lat="42.55736" lon="2.06472">
        <ele>1845</ele>
        <time>2020-07-25T07:04:49.031Z</time>
      </trkpt>
      <trkpt lat="42.55734" lon="2.06472">
        <ele>1845</ele>
        <time>2020-07-25T07:04:50.031Z</time>
      </trkpt>
      <trkpt lat="42.55732" lon="2.0647">
        <ele>1845</ele>
        <time>2020-07-25T07:04:51.031Z</time>
      </trkpt>
      <trkpt lat="42.55729" lon="2.06469">
        <ele>1843</ele>
        <time>2020-07-25T07:04:52.031Z</time>
      </trkpt>
      <trkpt lat="42.55727" lon="2.06468">
        <ele>1843</ele>
        <time>2020-07-25T07:04:53.031Z</time>
      </trkpt>
      <trkpt lat="42.55724" lon="2.06467">
        <ele>1842</ele>
        <time>2020-07-25T07:04:54.031Z</time>
      </trkpt>
      <trkpt lat="42.55721" lon="2.06467">
        <ele>1842</ele>
        <time>2020-07-25T07:04:55.031Z</time>
      </trkpt>
      <trkpt lat="42.55719" lon="2.06466">
        <ele>1841</ele>
        <time>2020-07-25T07:04:56.031Z</time>
      </trkpt>
      <trkpt lat="42.55716" lon="2.06467">
        <ele>1842</ele>
        <time>2020-07-25T07:04:57.031Z</time>
      </trkpt>
      <trkpt lat="42.55713" lon="2.06467">
        <ele>1843</ele>
        <time>2020-07-25T07:04:58.031Z</time>
      </trkpt>
      <trkpt lat="42.5571" lon="2.06469">
        <ele>1844</ele>
        <time>2020-07-25T07:04:59.031Z</time>
      </trkpt>
      <trkpt lat="42.55708" lon="2.0647">
        <ele>1845</ele>
        <time>2020-07-25T07:05:00.031Z</time>
      </trkpt>
      <trkpt lat="42.55705" lon="2.0647">
        <ele>1844</ele>
        <time>2020-07-25T07:05:01.031Z</time>
      </trkpt>
      <trkpt lat="42.55703" lon="2.06471">
        <ele>1844</ele>
        <time>2020-07-25T07:05:02.031Z</time>
      </trkpt>
      <trkpt lat="42.557" lon="2.06471">
        <ele>1843</ele>
        <time>2020-07-25T07:05:03.031Z</time>
      </trkpt>
      <trkpt lat="42.55697" lon="2.06471">
        <ele>1843</ele>
        <time>2020-07-25T07:05:04.031Z</time>
      </trkpt>
      <trkpt lat="42.55694" lon="2.06471">
        <ele>1845</ele>
        <time>2020-07-25T07:05:05.031Z</time>
      </trkpt>
      <trkpt lat="42.55691" lon="2.06471">
        <ele>1844</ele>
        <time>2020-07-25T07:05:06.031Z</time>
      </trkpt>
      <trkpt lat="42.55688" lon="2.06471">
        <ele>1844</ele>
        <time>2020-07-25T07:05:07.031Z</time>
      </trkpt>
      <trkpt lat="42.55685" lon="2.06471">
        <ele>1843</ele>
        <time>2020-07-25T07:05:08.031Z</time>
      </trkpt>
      <trkpt lat="42.55682" lon="2.0647">
        <ele>1843</ele>
        <time>2020-07-25T07:05:09.031Z</time>
      </trkpt>
      <trkpt lat="42.55679" lon="2.0647">
        <ele>1842</ele>
        <time>2020-07-25T07:05:10.031Z</time>
      </trkpt>
      <trkpt lat="42.55676" lon="2.06471">
        <ele>1843</ele>
        <time>2020-07-25T07:05:11.031Z</time>
      </trkpt>
      <trkpt lat="42.55673" lon="2.06471">
        <ele>1843</ele>
        <time>2020-07-25T07:05:12.031Z</time>
      </trkpt>
      <trkpt lat="42.55671" lon="2.06471">
        <ele>1843</ele>
        <time>2020-07-25T07:05:13.031Z</time>
      </trkpt>
      <trkpt lat="42.55667" lon="2.06471">
        <ele>1842</ele>
        <time>2020-07-25T07:05:14.031Z</time>
      </trkpt>
      <trkpt lat="42.55665" lon="2.06471">
        <ele>1843</ele>
        <time>2020-07-25T07:05:15.031Z</time>
      </trkpt>
      <trkpt lat="42.55662" lon="2.06471">
        <ele>1843</ele>
        <time>2020-07-25T07:05:16.031Z</time>
      </trkpt>
      <trkpt lat="42.55659" lon="2.0647">
        <ele>1843</ele>
        <time>2020-07-25T07:05:17.031Z</time>
      </trkpt>
      <trkpt lat="42.55656" lon="2.0647">
        <ele>1843</ele>
        <time>2020-07-25T07:05:18.031Z</time>
      </trkpt>
      <trkpt lat="42.55654" lon="2.06471">
        <ele>1844</ele>
        <time>2020-07-25T07:05:19.031Z</time>
      </trkpt>
      <trkpt lat="42.55651" lon="2.06471">
        <ele>1843</ele>
        <time>2020-07-25T07:05:20.031Z</time>
      </trkpt>
      <trkpt lat="42.55649" lon="2.06472">
        <ele>1843</ele>
        <time>2020-07-25T07:05:21.031Z</time>
      </trkpt>
      <trkpt lat="42.55646" lon="2.06473">
        <ele>1845</ele>
        <time>2020-07-25T07:05:22.031Z</time>
      </trkpt>
      <trkpt lat="42.55643" lon="2.06473">
        <ele>1845</ele>
        <time>2020-07-25T07:05:23.031Z</time>
      </trkpt>
      <trkpt lat="42.5564" lon="2.06474">
        <ele>1845</ele>
        <time>2020-07-25T07:05:24.031Z</time>
      </trkpt>
      <trkpt lat="42.55638" lon="2.06475">
        <ele>1844</ele>
        <time>2020-07-25T07:05:25.031Z</time>
      </trkpt>
      <trkpt lat="42.55635" lon="2.06475">
        <ele>1845</ele>
        <time>2020-07-25T07:05:26.031Z</time>
      </trkpt>
      <trkpt lat="42.55633" lon="2.06475">
        <ele>1845</ele>
        <time>2020-07-25T07:05:27.031Z</time>
      </trkpt>
      <trkpt lat="42.5563" lon="2.06476">
        <ele>1849</ele>
        <time>2020-07-25T07:05:28.031Z</time>
      </trkpt>
      <trkpt lat="42.55628" lon="2.06477">
        <ele>1851</ele>
        <time>2020-07-25T07:05:29.031Z</time>
      </trkpt>
      <trkpt lat="42.55626" lon="2.06478">
        <ele>1852</ele>
        <time>2020-07-25T07:05:30.031Z</time>
      </trkpt>
      <trkpt lat="42.55623" lon="2.06479">
        <ele>1853</ele>
        <time>2020-07-25T07:05:31.031Z</time>
      </trkpt>
      <trkpt lat="42.55621" lon="2.0648">
        <ele>1854</ele>
        <time>2020-07-25T07:05:32.031Z</time>
      </trkpt>
      <trkpt lat="42.55618" lon="2.06481">
        <ele>1854</ele>
        <time>2020-07-25T07:05:33.031Z</time>
      </trkpt>
      <trkpt lat="42.55615" lon="2.0648">
        <ele>1854</ele>
        <time>2020-07-25T07:05:34.031Z</time>
      </trkpt>
      <trkpt lat="42.55613" lon="2.06479">
        <ele>1855</ele>
        <time>2020-07-25T07:05:35.031Z</time>
      </trkpt>
      <trkpt lat="42.55611" lon="2.06478">
        <ele>1855</ele>
        <time>2020-07-25T07:05:36.031Z</time>
      </trkpt>
      <trkpt lat="42.55609" lon="2.06477">
        <ele>1856</ele>
        <time>2020-07-25T07:05:37.031Z</time>
      </trkpt>
      <trkpt lat="42.55607" lon="2.06476">
        <ele>1856</ele>
        <time>2020-07-25T07:05:38.031Z</time>
      </trkpt>
      <trkpt lat="42.55605" lon="2.06474">
        <ele>1856</ele>
        <time>2020-07-25T07:05:39.031Z</time>
      </trkpt>
      <trkpt lat="42.55604" lon="2.06472">
        <ele>1857</ele>
        <time>2020-07-25T07:05:40.031Z</time>
      </trkpt>
      <trkpt lat="42.55603" lon="2.0647">
        <ele>1858</ele>
        <time>2020-07-25T07:05:41.031Z</time>
      </trkpt>
      <trkpt lat="42.55602" lon="2.06467">
        <ele>1856</ele>
        <time>2020-07-25T07:05:42.031Z</time>
      </trkpt>
      <trkpt lat="42.55602" lon="2.06463">
        <ele>1856</ele>
        <time>2020-07-25T07:05:43.031Z</time>
      </trkpt>
      <trkpt lat="42.55603" lon="2.0646">
        <ele>1856</ele>
        <time>2020-07-25T07:05:44.031Z</time>
      </trkpt>
      <trkpt lat="42.55603" lon="2.06456">
        <ele>1854</ele>
        <time>2020-07-25T07:05:45.031Z</time>
      </trkpt>
      <trkpt lat="42.55604" lon="2.06453">
        <ele>1855</ele>
        <time>2020-07-25T07:05:46.031Z</time>
      </trkpt>
      <trkpt lat="42.55604" lon="2.06449">
        <ele>1855</ele>
        <time>2020-07-25T07:05:47.031Z</time>
      </trkpt>
      <trkpt lat="42.55605" lon="2.06447">
        <ele>1853</ele>
        <time>2020-07-25T07:05:48.031Z</time>
      </trkpt>
      <trkpt lat="42.55607" lon="2.06444">
        <ele>1854</ele>
        <time>2020-07-25T07:05:49.031Z</time>
      </trkpt>
      <trkpt lat="42.55608" lon="2.06442">
        <ele>1855</ele>
        <time>2020-07-25T07:05:50.031Z</time>
      </trkpt>
      <trkpt lat="42.5561" lon="2.06439">
        <ele>1855</ele>
        <time>2020-07-25T07:05:51.031Z</time>
      </trkpt>
      <trkpt lat="42.5561" lon="2.06436">
        <ele>1853</ele>
        <time>2020-07-25T07:05:52.031Z</time>
      </trkpt>
      <trkpt lat="42.55611" lon="2.06432">
        <ele>1854</ele>
        <time>2020-07-25T07:05:53.031Z</time>
      </trkpt>
      <trkpt lat="42.55611" lon="2.06429">
        <ele>1854</ele>
        <time>2020-07-25T07:05:54.031Z</time>
      </trkpt>
      <trkpt lat="42.55611" lon="2.06425">
        <ele>1855</ele>
        <time>2020-07-25T07:05:55.031Z</time>
      </trkpt>
      <trkpt lat="42.55612" lon="2.06422">
        <ele>1856</ele>
        <time>2020-07-25T07:05:56.031Z</time>
      </trkpt>
      <trkpt lat="42.55612" lon="2.06419">
        <ele>1857</ele>
        <time>2020-07-25T07:05:57.031Z</time>
      </trkpt>
      <trkpt lat="42.55612" lon="2.06416">
        <ele>1857</ele>
        <time>2020-07-25T07:05:58.031Z</time>
      </trkpt>
      <trkpt lat="42.55612" lon="2.06412">
        <ele>1857</ele>
        <time>2020-07-25T07:05:59.031Z</time>
      </trkpt>
      <trkpt lat="42.55612" lon="2.06409">
        <ele>1856</ele>
        <time>2020-07-25T07:06:00.031Z</time>
      </trkpt>
      <trkpt lat="42.55612" lon="2.06405">
        <ele>1857</ele>
        <time>2020-07-25T07:06:01.031Z</time>
      </trkpt>
      <trkpt lat="42.55611" lon="2.06401">
        <ele>1857</ele>
        <time>2020-07-25T07:06:02.031Z</time>
      </trkpt>
      <trkpt lat="42.55611" lon="2.06397">
        <ele>1857</ele>
        <time>2020-07-25T07:06:03.031Z</time>
      </trkpt>
      <trkpt lat="42.5561" lon="2.06393">
        <ele>1856</ele>
        <time>2020-07-25T07:06:04.031Z</time>
      </trkpt>
      <trkpt lat="42.5561" lon="2.0639">
        <ele>1856</ele>
        <time>2020-07-25T07:06:05.031Z</time>
      </trkpt>
      <trkpt lat="42.55609" lon="2.06386">
        <ele>1855</ele>
        <time>2020-07-25T07:06:06.031Z</time>
      </trkpt>
      <trkpt lat="42.55609" lon="2.06382">
        <ele>1854</ele>
        <time>2020-07-25T07:06:07.031Z</time>
      </trkpt>
      <trkpt lat="42.55609" lon="2.06378">
        <ele>1854</ele>
        <time>2020-07-25T07:06:08.031Z</time>
      </trkpt>
      <trkpt lat="42.55609" lon="2.06374">
        <ele>1854</ele>
        <time>2020-07-25T07:06:09.031Z</time>
      </trkpt>
      <trkpt lat="42.55608" lon="2.06371">
        <ele>1854</ele>
        <time>2020-07-25T07:06:10.031Z</time>
      </trkpt>
      <trkpt lat="42.55608" lon="2.06367">
        <ele>1854</ele>
        <time>2020-07-25T07:06:11.031Z</time>
      </trkpt>
      <trkpt lat="42.55607" lon="2.06364">
        <ele>1854</ele>
        <time>2020-07-25T07:06:12.031Z</time>
      </trkpt>
      <trkpt lat="42.55606" lon="2.0636">
        <ele>1854</ele>
        <time>2020-07-25T07:06:13.031Z</time>
      </trkpt>
      <trkpt lat="42.55606" lon="2.06357">
        <ele>1856</ele>
        <time>2020-07-25T07:06:14.031Z</time>
      </trkpt>
      <trkpt lat="42.55606" lon="2.06354">
        <ele>1857</ele>
        <time>2020-07-25T07:06:15.031Z</time>
      </trkpt>
      <trkpt lat="42.55606" lon="2.06351">
        <ele>1857</ele>
        <time>2020-07-25T07:06:16.031Z</time>
      </trkpt>
      <trkpt lat="42.55606" lon="2.06347">
        <ele>1858</ele>
        <time>2020-07-25T07:06:17.031Z</time>
      </trkpt>
      <trkpt lat="42.55605" lon="2.06343">
        <ele>1859</ele>
        <time>2020-07-25T07:06:18.031Z</time>
      </trkpt>
      <trkpt lat="42.55605" lon="2.06339">
        <ele>1858</ele>
        <time>2020-07-25T07:06:19.031Z</time>
      </trkpt>
      <trkpt lat="42.55604" lon="2.06335">
        <ele>1858</ele>
        <time>2020-07-25T07:06:20.031Z</time>
      </trkpt>
      <trkpt lat="42.55604" lon="2.06332">
        <ele>1857</ele>
        <time>2020-07-25T07:06:21.031Z</time>
      </trkpt>
      <trkpt lat="42.55603" lon="2.06329">
        <ele>1858</ele>
        <time>2020-07-25T07:06:22.031Z</time>
      </trkpt>
      <trkpt lat="42.55602" lon="2.06326">
        <ele>1859</ele>
        <time>2020-07-25T07:06:23.031Z</time>
      </trkpt>
      <trkpt lat="42.55601" lon="2.06323">
        <ele>1859</ele>
        <time>2020-07-25T07:06:24.031Z</time>
      </trkpt>
      <trkpt lat="42.55599" lon="2.0632">
        <ele>1859</ele>
        <time>2020-07-25T07:06:25.031Z</time>
      </trkpt>
      <trkpt lat="42.55597" lon="2.06316">
        <ele>1858</ele>
        <time>2020-07-25T07:06:26.031Z</time>
      </trkpt>
      <trkpt lat="42.55594" lon="2.06313">
        <ele>1858</ele>
        <time>2020-07-25T07:06:27.031Z</time>
      </trkpt>
      <trkpt lat="42.55592" lon="2.06309">
        <ele>1858</ele>
        <time>2020-07-25T07:06:28.031Z</time>
      </trkpt>
      <trkpt lat="42.5559" lon="2.06305">
        <ele>1856</ele>
        <time>2020-07-25T07:06:29.031Z</time>
      </trkpt>
      <trkpt lat="42.55589" lon="2.06302">
        <ele>1856</ele>
        <time>2020-07-25T07:06:30.031Z</time>
      </trkpt>
      <trkpt lat="42.55587" lon="2.06299">
        <ele>1856</ele>
        <time>2020-07-25T07:06:31.031Z</time>
      </trkpt>
      <trkpt lat="42.55586" lon="2.06296">
        <ele>1856</ele>
        <time>2020-07-25T07:06:32.031Z</time>
      </trkpt>
      <trkpt lat="42.55584" lon="2.06294">
        <ele>1857</ele>
        <time>2020-07-25T07:06:33.031Z</time>
      </trkpt>
      <trkpt lat="42.55582" lon="2.06291">
        <ele>1857</ele>
        <time>2020-07-25T07:06:34.031Z</time>
      </trkpt>
      <trkpt lat="42.5558" lon="2.06288">
        <ele>1857</ele>
        <time>2020-07-25T07:06:35.031Z</time>
      </trkpt>
      <trkpt lat="42.55578" lon="2.06285">
        <ele>1857</ele>
        <time>2020-07-25T07:06:36.031Z</time>
      </trkpt>
      <trkpt lat="42.55577" lon="2.06282">
        <ele>1857</ele>
        <time>2020-07-25T07:06:37.031Z</time>
      </trkpt>
      <trkpt lat="42.55576" lon="2.06279">
        <ele>1856</ele>
        <time>2020-07-25T07:06:38.031Z</time>
      </trkpt>
      <trkpt lat="42.55574" lon="2.06275">
        <ele>1854</ele>
        <time>2020-07-25T07:06:39.031Z</time>
      </trkpt>
      <trkpt lat="42.55574" lon="2.06271">
        <ele>1854</ele>
        <time>2020-07-25T07:06:40.031Z</time>
      </trkpt>
      <trkpt lat="42.55573" lon="2.06267">
        <ele>1854</ele>
        <time>2020-07-25T07:06:41.031Z</time>
      </trkpt>
      <trkpt lat="42.55572" lon="2.06264">
        <ele>1854</ele>
        <time>2020-07-25T07:06:42.031Z</time>
      </trkpt>
      <trkpt lat="42.55571" lon="2.06261">
        <ele>1854</ele>
        <time>2020-07-25T07:06:43.031Z</time>
      </trkpt>
      <trkpt lat="42.55571" lon="2.06257">
        <ele>1854</ele>
        <time>2020-07-25T07:06:44.031Z</time>
      </trkpt>
      <trkpt lat="42.5557" lon="2.06253">
        <ele>1854</ele>
        <time>2020-07-25T07:06:45.031Z</time>
      </trkpt>
      <trkpt lat="42.55569" lon="2.0625">
        <ele>1854</ele>
        <time>2020-07-25T07:06:46.031Z</time>
      </trkpt>
      <trkpt lat="42.55569" lon="2.06248">
        <ele>1854</ele>
        <time>2020-07-25T07:06:47.031Z</time>
      </trkpt>
      <trkpt lat="42.55568" lon="2.06245">
        <ele>1854</ele>
        <time>2020-07-25T07:06:48.031Z</time>
      </trkpt>
      <trkpt lat="42.55568" lon="2.06242">
        <ele>1854</ele>
        <time>2020-07-25T07:06:49.031Z</time>
      </trkpt>
      <trkpt lat="42.55568" lon="2.06238">
        <ele>1854</ele>
        <time>2020-07-25T07:06:50.031Z</time>
      </trkpt>
      <trkpt lat="42.55567" lon="2.06235">
        <ele>1854</ele>
        <time>2020-07-25T07:06:51.031Z</time>
      </trkpt>
      <trkpt lat="42.55566" lon="2.06231">
        <ele>1855</ele>
        <time>2020-07-25T07:06:52.031Z</time>
      </trkpt>
      <trkpt lat="42.55566" lon="2.06228">
        <ele>1855</ele>
        <time>2020-07-25T07:06:53.031Z</time>
      </trkpt>
      <trkpt lat="42.55565" lon="2.06225">
        <ele>1855</ele>
        <time>2020-07-25T07:06:54.031Z</time>
      </trkpt>
      <trkpt lat="42.55564" lon="2.06222">
        <ele>1855</ele>
        <time>2020-07-25T07:06:55.031Z</time>
      </trkpt>
      <trkpt lat="42.55563" lon="2.06219">
        <ele>1856</ele>
        <time>2020-07-25T07:06:56.031Z</time>
      </trkpt>
      <trkpt lat="42.5556" lon="2.06216">
        <ele>1856</ele>
        <time>2020-07-25T07:06:57.031Z</time>
      </trkpt>
      <trkpt lat="42.55558" lon="2.06213">
        <ele>1858</ele>
        <time>2020-07-25T07:06:58.031Z</time>
      </trkpt>
      <trkpt lat="42.55556" lon="2.06209">
        <ele>1859</ele>
        <time>2020-07-25T07:06:59.031Z</time>
      </trkpt>
      <trkpt lat="42.55555" lon="2.06207">
        <ele>1861</ele>
        <time>2020-07-25T07:07:00.031Z</time>
      </trkpt>
      <trkpt lat="42.55554" lon="2.06204">
        <ele>1861</ele>
        <time>2020-07-25T07:07:01.031Z</time>
      </trkpt>
      <trkpt lat="42.55552" lon="2.06202">
        <ele>1862</ele>
        <time>2020-07-25T07:07:02.031Z</time>
      </trkpt>
      <trkpt lat="42.5555" lon="2.06199">
        <ele>1864</ele>
        <time>2020-07-25T07:07:03.031Z</time>
      </trkpt>
      <trkpt lat="42.55548" lon="2.06197">
        <ele>1866</ele>
        <time>2020-07-25T07:07:04.031Z</time>
      </trkpt>
      <trkpt lat="42.55547" lon="2.06195">
        <ele>1866</ele>
        <time>2020-07-25T07:07:05.031Z</time>
      </trkpt>
      <trkpt lat="42.55545" lon="2.06193">
        <ele>1866</ele>
        <time>2020-07-25T07:07:06.031Z</time>
      </trkpt>
      <trkpt lat="42.55542" lon="2.0619">
        <ele>1866</ele>
        <time>2020-07-25T07:07:07.031Z</time>
      </trkpt>
      <trkpt lat="42.55539" lon="2.06187">
        <ele>1866</ele>
        <time>2020-07-25T07:07:08.031Z</time>
      </trkpt>
      <trkpt lat="42.55537" lon="2.06183">
        <ele>1867</ele>
        <time>2020-07-25T07:07:09.031Z</time>
      </trkpt>
      <trkpt lat="42.55535" lon="2.0618">
        <ele>1868</ele>
        <time>2020-07-25T07:07:10.031Z</time>
      </trkpt>
      <trkpt lat="42.55533" lon="2.06177">
        <ele>1868</ele>
        <time>2020-07-25T07:07:11.031Z</time>
      </trkpt>
      <trkpt lat="42.55531" lon="2.06175">
        <ele>1868</ele>
        <time>2020-07-25T07:07:12.031Z</time>
      </trkpt>
      <trkpt lat="42.55529" lon="2.06171">
        <ele>1867</ele>
        <time>2020-07-25T07:07:13.031Z</time>
      </trkpt>
      <trkpt lat="42.55526" lon="2.06167">
        <ele>1867</ele>
        <time>2020-07-25T07:07:14.031Z</time>
      </trkpt>
      <trkpt lat="42.55524" lon="2.06163">
        <ele>1868</ele>
        <time>2020-07-25T07:07:15.031Z</time>
      </trkpt>
      <trkpt lat="42.55522" lon="2.06158">
        <ele>1865</ele>
        <time>2020-07-25T07:07:16.031Z</time>
      </trkpt>
      <trkpt lat="42.55521" lon="2.06154">
        <ele>1864</ele>
        <time>2020-07-25T07:07:17.031Z</time>
      </trkpt>
      <trkpt lat="42.55519" lon="2.06149">
        <ele>1864</ele>
        <time>2020-07-25T07:07:18.031Z</time>
      </trkpt>
      <trkpt lat="42.55517" lon="2.06145">
        <ele>1863</ele>
        <time>2020-07-25T07:07:19.031Z</time>
      </trkpt>
      <trkpt lat="42.55515" lon="2.06141">
        <ele>1862</ele>
        <time>2020-07-25T07:07:20.031Z</time>
      </trkpt>
      <trkpt lat="42.55513" lon="2.06137">
        <ele>1862</ele>
        <time>2020-07-25T07:07:21.031Z</time>
      </trkpt>
      <trkpt lat="42.55512" lon="2.06133">
        <ele>1861</ele>
        <time>2020-07-25T07:07:22.031Z</time>
      </trkpt>
      <trkpt lat="42.55511" lon="2.06129">
        <ele>1860</ele>
        <time>2020-07-25T07:07:23.031Z</time>
      </trkpt>
      <trkpt lat="42.5551" lon="2.06124">
        <ele>1859</ele>
        <time>2020-07-25T07:07:24.031Z</time>
      </trkpt>
      <trkpt lat="42.55509" lon="2.0612">
        <ele>1859</ele>
        <time>2020-07-25T07:07:25.031Z</time>
      </trkpt>
      <trkpt lat="42.55508" lon="2.06115">
        <ele>1858</ele>
        <time>2020-07-25T07:07:26.031Z</time>
      </trkpt>
      <trkpt lat="42.55508" lon="2.0611">
        <ele>1857</ele>
        <time>2020-07-25T07:07:27.031Z</time>
      </trkpt>
      <trkpt lat="42.55507" lon="2.06105">
        <ele>1856</ele>
        <time>2020-07-25T07:07:28.031Z</time>
      </trkpt>
      <trkpt lat="42.55507" lon="2.06101">
        <ele>1856</ele>
        <time>2020-07-25T07:07:29.031Z</time>
      </trkpt>
      <trkpt lat="42.55506" lon="2.06097">
        <ele>1856</ele>
        <time>2020-07-25T07:07:30.031Z</time>
      </trkpt>
      <trkpt lat="42.55506" lon="2.06093">
        <ele>1856</ele>
        <time>2020-07-25T07:07:31.031Z</time>
      </trkpt>
      <trkpt lat="42.55506" lon="2.06089">
        <ele>1857</ele>
        <time>2020-07-25T07:07:32.031Z</time>
      </trkpt>
      <trkpt lat="42.55505" lon="2.06085">
        <ele>1858</ele>
        <time>2020-07-25T07:07:33.031Z</time>
      </trkpt>
      <trkpt lat="42.55505" lon="2.06081">
        <ele>1859</ele>
        <time>2020-07-25T07:07:34.031Z</time>
      </trkpt>
      <trkpt lat="42.55505" lon="2.06078">
        <ele>1860</ele>
        <time>2020-07-25T07:07:35.031Z</time>
      </trkpt>
      <trkpt lat="42.55505" lon="2.06074">
        <ele>1861</ele>
        <time>2020-07-25T07:07:36.031Z</time>
      </trkpt>
      <trkpt lat="42.55505" lon="2.06071">
        <ele>1862</ele>
        <time>2020-07-25T07:07:37.031Z</time>
      </trkpt>
      <trkpt lat="42.55505" lon="2.06067">
        <ele>1863</ele>
        <time>2020-07-25T07:07:38.031Z</time>
      </trkpt>
      <trkpt lat="42.55505" lon="2.06063">
        <ele>1863</ele>
        <time>2020-07-25T07:07:39.031Z</time>
      </trkpt>
      <trkpt lat="42.55505" lon="2.0606">
        <ele>1864</ele>
        <time>2020-07-25T07:07:40.031Z</time>
      </trkpt>
      <trkpt lat="42.55505" lon="2.06056">
        <ele>1865</ele>
        <time>2020-07-25T07:07:41.031Z</time>
      </trkpt>
      <trkpt lat="42.55505" lon="2.06052">
        <ele>1864</ele>
        <time>2020-07-25T07:07:42.031Z</time>
      </trkpt>
      <trkpt lat="42.55505" lon="2.06049">
        <ele>1865</ele>
        <time>2020-07-25T07:07:43.031Z</time>
      </trkpt>
      <trkpt lat="42.55505" lon="2.06046">
        <ele>1866</ele>
        <time>2020-07-25T07:07:44.031Z</time>
      </trkpt>
      <trkpt lat="42.55505" lon="2.06042">
        <ele>1867</ele>
        <time>2020-07-25T07:07:45.031Z</time>
      </trkpt>
      <trkpt lat="42.55505" lon="2.06038">
        <ele>1868</ele>
        <time>2020-07-25T07:07:46.031Z</time>
      </trkpt>
      <trkpt lat="42.55504" lon="2.06035">
        <ele>1869</ele>
        <time>2020-07-25T07:07:47.031Z</time>
      </trkpt>
      <trkpt lat="42.55504" lon="2.06031">
        <ele>1870</ele>
        <time>2020-07-25T07:07:48.031Z</time>
      </trkpt>
      <trkpt lat="42.55504" lon="2.06027">
        <ele>1871</ele>
        <time>2020-07-25T07:07:49.031Z</time>
      </trkpt>
      <trkpt lat="42.55504" lon="2.06023">
        <ele>1872</ele>
        <time>2020-07-25T07:07:50.031Z</time>
      </trkpt>
      <trkpt lat="42.55504" lon="2.0602">
        <ele>1872</ele>
        <time>2020-07-25T07:07:51.031Z</time>
      </trkpt>
      <trkpt lat="42.55504" lon="2.06016">
        <ele>1872</ele>
        <time>2020-07-25T07:07:52.031Z</time>
      </trkpt>
      <trkpt lat="42.55504" lon="2.06012">
        <ele>1873</ele>
        <time>2020-07-25T07:07:53.031Z</time>
      </trkpt>
      <trkpt lat="42.55504" lon="2.06009">
        <ele>1873</ele>
        <time>2020-07-25T07:07:54.031Z</time>
      </trkpt>
      <trkpt lat="42.55505" lon="2.06005">
        <ele>1874</ele>
        <time>2020-07-25T07:07:55.031Z</time>
      </trkpt>
      <trkpt lat="42.55505" lon="2.06001">
        <ele>1874</ele>
        <time>2020-07-25T07:07:56.031Z</time>
      </trkpt>
      <trkpt lat="42.55505" lon="2.05997">
        <ele>1874</ele>
        <time>2020-07-25T07:07:57.031Z</time>
      </trkpt>
      <trkpt lat="42.55505" lon="2.05993">
        <ele>1874</ele>
        <time>2020-07-25T07:07:58.031Z</time>
      </trkpt>
      <trkpt lat="42.55505" lon="2.05989">
        <ele>1874</ele>
        <time>2020-07-25T07:07:59.031Z</time>
      </trkpt>
      <trkpt lat="42.55505" lon="2.05985">
        <ele>1874</ele>
        <time>2020-07-25T07:08:00.031Z</time>
      </trkpt>
      <trkpt lat="42.55505" lon="2.05981">
        <ele>1875</ele>
        <time>2020-07-25T07:08:01.031Z</time>
      </trkpt>
      <trkpt lat="42.55505" lon="2.05978">
        <ele>1875</ele>
        <time>2020-07-25T07:08:02.031Z</time>
      </trkpt>
      <trkpt lat="42.55506" lon="2.05974">
        <ele>1876</ele>
        <time>2020-07-25T07:08:03.031Z</time>
      </trkpt>
      <trkpt lat="42.55507" lon="2.0597">
        <ele>1877</ele>
        <time>2020-07-25T07:08:04.031Z</time>
      </trkpt>
      <trkpt lat="42.55507" lon="2.05967">
        <ele>1877</ele>
        <time>2020-07-25T07:08:05.031Z</time>
      </trkpt>
      <trkpt lat="42.55508" lon="2.05963">
        <ele>1878</ele>
        <time>2020-07-25T07:08:06.031Z</time>
      </trkpt>
      <trkpt lat="42.55509" lon="2.0596">
        <ele>1878</ele>
        <time>2020-07-25T07:08:07.031Z</time>
      </trkpt>
      <trkpt lat="42.5551" lon="2.05957">
        <ele>1877</ele>
        <time>2020-07-25T07:08:08.031Z</time>
      </trkpt>
      <trkpt lat="42.55512" lon="2.05954">
        <ele>1878</ele>
        <time>2020-07-25T07:08:09.031Z</time>
      </trkpt>
      <trkpt lat="42.55524" lon="2.05944">
        <ele>1870</ele>
        <time>2020-07-25T07:08:10.109Z</time>
      </trkpt>
      <trkpt lat="42.55525" lon="2.05944">
        <ele>1870</ele>
        <time>2020-07-25T07:08:11.109Z</time>
      </trkpt>
      <trkpt lat="42.55526" lon="2.05943">
        <ele>1870</ele>
        <time>2020-07-25T07:08:12.109Z</time>
      </trkpt>
      <trkpt lat="42.55527" lon="2.05942">
        <ele>1870</ele>
        <time>2020-07-25T07:08:13.109Z</time>
      </trkpt>
      <trkpt lat="42.55529" lon="2.05941">
        <ele>1870</ele>
        <time>2020-07-25T07:08:14.109Z</time>
      </trkpt>
      <trkpt lat="42.55531" lon="2.0594">
        <ele>1870</ele>
        <time>2020-07-25T07:08:15.109Z</time>
      </trkpt>
      <trkpt lat="42.55533" lon="2.0594">
        <ele>1870</ele>
        <time>2020-07-25T07:08:16.109Z</time>
      </trkpt>
      <trkpt lat="42.55535" lon="2.05939">
        <ele>1870</ele>
        <time>2020-07-25T07:08:17.109Z</time>
      </trkpt>
      <trkpt lat="42.55538" lon="2.05938">
        <ele>1870</ele>
        <time>2020-07-25T07:08:18.109Z</time>
      </trkpt>
      <trkpt lat="42.5554" lon="2.05937">
        <ele>1871</ele>
        <time>2020-07-25T07:08:19.109Z</time>
      </trkpt>
      <trkpt lat="42.55543" lon="2.05936">
        <ele>1872</ele>
        <time>2020-07-25T07:08:20.109Z</time>
      </trkpt>
      <trkpt lat="42.55545" lon="2.05935">
        <ele>1873</ele>
        <time>2020-07-25T07:08:21.109Z</time>
      </trkpt>
      <trkpt lat="42.55548" lon="2.05933">
        <ele>1873</ele>
        <time>2020-07-25T07:08:22.109Z</time>
      </trkpt>
      <trkpt lat="42.5555" lon="2.05931">
        <ele>1874</ele>
        <time>2020-07-25T07:08:23.109Z</time>
      </trkpt>
      <trkpt lat="42.55552" lon="2.05929">
        <ele>1874</ele>
        <time>2020-07-25T07:08:24.109Z</time>
      </trkpt>
      <trkpt lat="42.55555" lon="2.05927">
        <ele>1875</ele>
        <time>2020-07-25T07:08:25.109Z</time>
      </trkpt>
      <trkpt lat="42.55557" lon="2.05925">
        <ele>1875</ele>
        <time>2020-07-25T07:08:26.109Z</time>
      </trkpt>
      <trkpt lat="42.5556" lon="2.05924">
        <ele>1876</ele>
        <time>2020-07-25T07:08:27.109Z</time>
      </trkpt>
      <trkpt lat="42.55562" lon="2.05922">
        <ele>1877</ele>
        <time>2020-07-25T07:08:28.109Z</time>
      </trkpt>
      <trkpt lat="42.55564" lon="2.0592">
        <ele>1877</ele>
        <time>2020-07-25T07:08:29.109Z</time>
      </trkpt>
      <trkpt lat="42.55567" lon="2.05918">
        <ele>1876</ele>
        <time>2020-07-25T07:08:30.109Z</time>
      </trkpt>
      <trkpt lat="42.55569" lon="2.05917">
        <ele>1876</ele>
        <time>2020-07-25T07:08:31.109Z</time>
      </trkpt>
      <trkpt lat="42.55571" lon="2.05915">
        <ele>1877</ele>
        <time>2020-07-25T07:08:32.109Z</time>
      </trkpt>
      <trkpt lat="42.55573" lon="2.05913">
        <ele>1877</ele>
        <time>2020-07-25T07:08:33.109Z</time>
      </trkpt>
      <trkpt lat="42.55575" lon="2.05912">
        <ele>1877</ele>
        <time>2020-07-25T07:08:34.109Z</time>
      </trkpt>
      <trkpt lat="42.55577" lon="2.05911">
        <ele>1877</ele>
        <time>2020-07-25T07:08:35.109Z</time>
      </trkpt>
      <trkpt lat="42.55579" lon="2.05909">
        <ele>1878</ele>
        <time>2020-07-25T07:08:36.109Z</time>
      </trkpt>
      <trkpt lat="42.55581" lon="2.05908">
        <ele>1878</ele>
        <time>2020-07-25T07:08:37.109Z</time>
      </trkpt>
      <trkpt lat="42.55582" lon="2.05907">
        <ele>1878</ele>
        <time>2020-07-25T07:08:38.109Z</time>
      </trkpt>
      <trkpt lat="42.55584" lon="2.05906">
        <ele>1878</ele>
        <time>2020-07-25T07:08:39.109Z</time>
      </trkpt>
      <trkpt lat="42.55586" lon="2.05904">
        <ele>1878</ele>
        <time>2020-07-25T07:08:40.109Z</time>
      </trkpt>
      <trkpt lat="42.55588" lon="2.05903">
        <ele>1878</ele>
        <time>2020-07-25T07:08:41.109Z</time>
      </trkpt>
      <trkpt lat="42.5559" lon="2.05902">
        <ele>1877</ele>
        <time>2020-07-25T07:08:42.109Z</time>
      </trkpt>
      <trkpt lat="42.55592" lon="2.05901">
        <ele>1878</ele>
        <time>2020-07-25T07:08:43.109Z</time>
      </trkpt>
      <trkpt lat="42.55594" lon="2.05899">
        <ele>1878</ele>
        <time>2020-07-25T07:08:44.109Z</time>
      </trkpt>
      <trkpt lat="42.55595" lon="2.05897">
        <ele>1879</ele>
        <time>2020-07-25T07:08:45.109Z</time>
      </trkpt>
      <trkpt lat="42.55597" lon="2.05896">
        <ele>1879</ele>
        <time>2020-07-25T07:08:46.109Z</time>
      </trkpt>
      <trkpt lat="42.55599" lon="2.05895">
        <ele>1879</ele>
        <time>2020-07-25T07:08:47.109Z</time>
      </trkpt>
      <trkpt lat="42.55601" lon="2.05894">
        <ele>1880</ele>
        <time>2020-07-25T07:08:48.109Z</time>
      </trkpt>
      <trkpt lat="42.55603" lon="2.05893">
        <ele>1881</ele>
        <time>2020-07-25T07:08:49.109Z</time>
      </trkpt>
      <trkpt lat="42.55605" lon="2.05891">
        <ele>1880</ele>
        <time>2020-07-25T07:08:50.109Z</time>
      </trkpt>
      <trkpt lat="42.55607" lon="2.0589">
        <ele>1880</ele>
        <time>2020-07-25T07:08:51.109Z</time>
      </trkpt>
      <trkpt lat="42.55609" lon="2.05889">
        <ele>1880</ele>
        <time>2020-07-25T07:08:52.109Z</time>
      </trkpt>
      <trkpt lat="42.55611" lon="2.05888">
        <ele>1880</ele>
        <time>2020-07-25T07:08:53.109Z</time>
      </trkpt>
      <trkpt lat="42.55614" lon="2.05887">
        <ele>1881</ele>
        <time>2020-07-25T07:08:54.109Z</time>
      </trkpt>
      <trkpt lat="42.55616" lon="2.05886">
        <ele>1881</ele>
        <time>2020-07-25T07:08:55.109Z</time>
      </trkpt>
      <trkpt lat="42.55618" lon="2.05886">
        <ele>1881</ele>
        <time>2020-07-25T07:08:56.109Z</time>
      </trkpt>
      <trkpt lat="42.55621" lon="2.05886">
        <ele>1881</ele>
        <time>2020-07-25T07:08:57.109Z</time>
      </trkpt>
      <trkpt lat="42.55623" lon="2.05886">
        <ele>1881</ele>
        <time>2020-07-25T07:08:58.109Z</time>
      </trkpt>
      <trkpt lat="42.55625" lon="2.05887">
        <ele>1881</ele>
        <time>2020-07-25T07:08:59.109Z</time>
      </trkpt>
      <trkpt lat="42.55627" lon="2.05887">
        <ele>1882</ele>
        <time>2020-07-25T07:09:00.109Z</time>
      </trkpt>
      <trkpt lat="42.55629" lon="2.05888">
        <ele>1882</ele>
        <time>2020-07-25T07:09:01.109Z</time>
      </trkpt>
      <trkpt lat="42.55631" lon="2.05888">
        <ele>1883</ele>
        <time>2020-07-25T07:09:02.109Z</time>
      </trkpt>
      <trkpt lat="42.55633" lon="2.05889">
        <ele>1883</ele>
        <time>2020-07-25T07:09:03.109Z</time>
      </trkpt>
      <trkpt lat="42.55635" lon="2.05891">
        <ele>1884</ele>
        <time>2020-07-25T07:09:04.109Z</time>
      </trkpt>
      <trkpt lat="42.55637" lon="2.05892">
        <ele>1886</ele>
        <time>2020-07-25T07:09:05.109Z</time>
      </trkpt>
      <trkpt lat="42.55638" lon="2.05892">
        <ele>1887</ele>
        <time>2020-07-25T07:09:06.109Z</time>
      </trkpt>
      <trkpt lat="42.5564" lon="2.05893">
        <ele>1889</ele>
        <time>2020-07-25T07:09:07.109Z</time>
      </trkpt>
      <trkpt lat="42.55641" lon="2.05894">
        <ele>1890</ele>
        <time>2020-07-25T07:09:08.109Z</time>
      </trkpt>
      <trkpt lat="42.55643" lon="2.05894">
        <ele>1891</ele>
        <time>2020-07-25T07:09:09.109Z</time>
      </trkpt>
      <trkpt lat="42.55645" lon="2.05895">
        <ele>1894</ele>
        <time>2020-07-25T07:09:10.109Z</time>
      </trkpt>
      <trkpt lat="42.55647" lon="2.05896">
        <ele>1895</ele>
        <time>2020-07-25T07:09:11.109Z</time>
      </trkpt>
      <trkpt lat="42.55649" lon="2.05896">
        <ele>1895</ele>
        <time>2020-07-25T07:09:12.109Z</time>
      </trkpt>
      <trkpt lat="42.55651" lon="2.05896">
        <ele>1896</ele>
        <time>2020-07-25T07:09:13.109Z</time>
      </trkpt>
      <trkpt lat="42.55653" lon="2.05896">
        <ele>1896</ele>
        <time>2020-07-25T07:09:14.109Z</time>
      </trkpt>
      <trkpt lat="42.55655" lon="2.05896">
        <ele>1897</ele>
        <time>2020-07-25T07:09:15.109Z</time>
      </trkpt>
      <trkpt lat="42.55658" lon="2.05895">
        <ele>1897</ele>
        <time>2020-07-25T07:09:16.109Z</time>
      </trkpt>
      <trkpt lat="42.5566" lon="2.05894">
        <ele>1897</ele>
        <time>2020-07-25T07:09:17.109Z</time>
      </trkpt>
      <trkpt lat="42.55662" lon="2.05893">
        <ele>1897</ele>
        <time>2020-07-25T07:09:18.109Z</time>
      </trkpt>
      <trkpt lat="42.55664" lon="2.05892">
        <ele>1898</ele>
        <time>2020-07-25T07:09:19.109Z</time>
      </trkpt>
      <trkpt lat="42.55665" lon="2.05891">
        <ele>1898</ele>
        <time>2020-07-25T07:09:20.109Z</time>
      </trkpt>
      <trkpt lat="42.55667" lon="2.0589">
        <ele>1899</ele>
        <time>2020-07-25T07:09:21.109Z</time>
      </trkpt>
      <trkpt lat="42.55668" lon="2.05889">
        <ele>1899</ele>
        <time>2020-07-25T07:09:22.109Z</time>
      </trkpt>
      <trkpt lat="42.5567" lon="2.05888">
        <ele>1900</ele>
        <time>2020-07-25T07:09:23.109Z</time>
      </trkpt>
      <trkpt lat="42.55671" lon="2.05887">
        <ele>1901</ele>
        <time>2020-07-25T07:09:24.109Z</time>
      </trkpt>
      <trkpt lat="42.55673" lon="2.05885">
        <ele>1901</ele>
        <time>2020-07-25T07:09:25.109Z</time>
      </trkpt>
      <trkpt lat="42.55674" lon="2.05883">
        <ele>1902</ele>
        <time>2020-07-25T07:09:26.109Z</time>
      </trkpt>
      <trkpt lat="42.55675" lon="2.05882">
        <ele>1902</ele>
        <time>2020-07-25T07:09:27.109Z</time>
      </trkpt>
      <trkpt lat="42.55676" lon="2.0588">
        <ele>1903</ele>
        <time>2020-07-25T07:09:28.109Z</time>
      </trkpt>
      <trkpt lat="42.55677" lon="2.05877">
        <ele>1904</ele>
        <time>2020-07-25T07:09:29.109Z</time>
      </trkpt>
      <trkpt lat="42.55678" lon="2.05875">
        <ele>1904</ele>
        <time>2020-07-25T07:09:30.109Z</time>
      </trkpt>
      <trkpt lat="42.55679" lon="2.05874">
        <ele>1904</ele>
        <time>2020-07-25T07:09:31.109Z</time>
      </trkpt>
      <trkpt lat="42.5568" lon="2.05872">
        <ele>1905</ele>
        <time>2020-07-25T07:09:32.109Z</time>
      </trkpt>
      <trkpt lat="42.55681" lon="2.0587">
        <ele>1907</ele>
        <time>2020-07-25T07:09:33.109Z</time>
      </trkpt>
      <trkpt lat="42.55683" lon="2.05869">
        <ele>1908</ele>
        <time>2020-07-25T07:09:34.109Z</time>
      </trkpt>
      <trkpt lat="42.55684" lon="2.05868">
        <ele>1909</ele>
        <time>2020-07-25T07:09:35.109Z</time>
      </trkpt>
      <trkpt lat="42.55686" lon="2.05867">
        <ele>1910</ele>
        <time>2020-07-25T07:09:36.109Z</time>
      </trkpt>
      <trkpt lat="42.55687" lon="2.05866">
        <ele>1910</ele>
        <time>2020-07-25T07:09:37.109Z</time>
      </trkpt>
      <trkpt lat="42.55688" lon="2.05865">
        <ele>1911</ele>
        <time>2020-07-25T07:09:38.109Z</time>
      </trkpt>
      <trkpt lat="42.5569" lon="2.05864">
        <ele>1911</ele>
        <time>2020-07-25T07:09:39.109Z</time>
      </trkpt>
      <trkpt lat="42.55692" lon="2.05864">
        <ele>1910</ele>
        <time>2020-07-25T07:09:40.109Z</time>
      </trkpt>
      <trkpt lat="42.55694" lon="2.05864">
        <ele>1911</ele>
        <time>2020-07-25T07:09:41.109Z</time>
      </trkpt>
      <trkpt lat="42.55696" lon="2.05864">
        <ele>1910</ele>
        <time>2020-07-25T07:09:42.109Z</time>
      </trkpt>
      <trkpt lat="42.55698" lon="2.05864">
        <ele>1909</ele>
        <time>2020-07-25T07:09:43.109Z</time>
      </trkpt>
      <trkpt lat="42.557" lon="2.05865">
        <ele>1908</ele>
        <time>2020-07-25T07:09:44.109Z</time>
      </trkpt>
      <trkpt lat="42.55703" lon="2.05866">
        <ele>1909</ele>
        <time>2020-07-25T07:09:45.109Z</time>
      </trkpt>
      <trkpt lat="42.55704" lon="2.05866">
        <ele>1909</ele>
        <time>2020-07-25T07:09:46.109Z</time>
      </trkpt>
      <trkpt lat="42.55706" lon="2.05866">
        <ele>1910</ele>
        <time>2020-07-25T07:09:47.109Z</time>
      </trkpt>
      <trkpt lat="42.55708" lon="2.05867">
        <ele>1910</ele>
        <time>2020-07-25T07:09:48.109Z</time>
      </trkpt>
      <trkpt lat="42.5571" lon="2.05867">
        <ele>1910</ele>
        <time>2020-07-25T07:09:49.109Z</time>
      </trkpt>
      <trkpt lat="42.55712" lon="2.05868">
        <ele>1910</ele>
        <time>2020-07-25T07:09:50.109Z</time>
      </trkpt>
      <trkpt lat="42.55714" lon="2.05868">
        <ele>1910</ele>
        <time>2020-07-25T07:09:51.109Z</time>
      </trkpt>
      <trkpt lat="42.55716" lon="2.05868">
        <ele>1909</ele>
        <time>2020-07-25T07:09:52.109Z</time>
      </trkpt>
      <trkpt lat="42.55718" lon="2.05868">
        <ele>1910</ele>
        <time>2020-07-25T07:09:53.109Z</time>
      </trkpt>
      <trkpt lat="42.5572" lon="2.05869">
        <ele>1909</ele>
        <time>2020-07-25T07:09:54.109Z</time>
      </trkpt>
      <trkpt lat="42.55722" lon="2.05869">
        <ele>1908</ele>
        <time>2020-07-25T07:09:55.109Z</time>
      </trkpt>
      <trkpt lat="42.55724" lon="2.0587">
        <ele>1907</ele>
        <time>2020-07-25T07:09:56.109Z</time>
      </trkpt>
      <trkpt lat="42.55726" lon="2.05871">
        <ele>1906</ele>
        <time>2020-07-25T07:09:57.109Z</time>
      </trkpt>
      <trkpt lat="42.55727" lon="2.05872">
        <ele>1905</ele>
        <time>2020-07-25T07:09:58.109Z</time>
      </trkpt>
      <trkpt lat="42.55728" lon="2.05873">
        <ele>1904</ele>
        <time>2020-07-25T07:09:59.109Z</time>
      </trkpt>
      <trkpt lat="42.55729" lon="2.05874">
        <ele>1903</ele>
        <time>2020-07-25T07:10:00.109Z</time>
      </trkpt>
      <trkpt lat="42.55731" lon="2.05876">
        <ele>1905</ele>
        <time>2020-07-25T07:10:01.109Z</time>
      </trkpt>
      <trkpt lat="42.55732" lon="2.05877">
        <ele>1905</ele>
        <time>2020-07-25T07:10:02.109Z</time>
      </trkpt>
      <trkpt lat="42.55733" lon="2.05879">
        <ele>1907</ele>
        <time>2020-07-25T07:10:03.109Z</time>
      </trkpt>
      <trkpt lat="42.55734" lon="2.05881">
        <ele>1909</ele>
        <time>2020-07-25T07:10:04.109Z</time>
      </trkpt>
      <trkpt lat="42.55734" lon="2.05885">
        <ele>1912</ele>
        <time>2020-07-25T07:10:05.109Z</time>
      </trkpt>
      <trkpt lat="42.55734" lon="2.05888">
        <ele>1912</ele>
        <time>2020-07-25T07:10:06.109Z</time>
      </trkpt>
      <trkpt lat="42.55734" lon="2.05891">
        <ele>1912</ele>
        <time>2020-07-25T07:10:07.109Z</time>
      </trkpt>
      <trkpt lat="42.55734" lon="2.05894">
        <ele>1913</ele>
        <time>2020-07-25T07:10:08.109Z</time>
      </trkpt>
      <trkpt lat="42.55735" lon="2.05897">
        <ele>1912</ele>
        <time>2020-07-25T07:10:09.109Z</time>
      </trkpt>
      <trkpt lat="42.55736" lon="2.059">
        <ele>1912</ele>
        <time>2020-07-25T07:10:10.109Z</time>
      </trkpt>
      <trkpt lat="42.55736" lon="2.05903">
        <ele>1913</ele>
        <time>2020-07-25T07:10:11.109Z</time>
      </trkpt>
      <trkpt lat="42.55737" lon="2.05907">
        <ele>1913</ele>
        <time>2020-07-25T07:10:12.109Z</time>
      </trkpt>
      <trkpt lat="42.55738" lon="2.0591">
        <ele>1912</ele>
        <time>2020-07-25T07:10:13.109Z</time>
      </trkpt>
      <trkpt lat="42.55738" lon="2.05913">
        <ele>1912</ele>
        <time>2020-07-25T07:10:14.109Z</time>
      </trkpt>
      <trkpt lat="42.5574" lon="2.05916">
        <ele>1911</ele>
        <time>2020-07-25T07:10:15.109Z</time>
      </trkpt>
      <trkpt lat="42.55741" lon="2.05919">
        <ele>1910</ele>
        <time>2020-07-25T07:10:16.109Z</time>
      </trkpt>
      <trkpt lat="42.55742" lon="2.05922">
        <ele>1909</ele>
        <time>2020-07-25T07:10:17.109Z</time>
      </trkpt>
      <trkpt lat="42.55743" lon="2.05924">
        <ele>1908</ele>
        <time>2020-07-25T07:10:18.109Z</time>
      </trkpt>
      <trkpt lat="42.55743" lon="2.05927">
        <ele>1909</ele>
        <time>2020-07-25T07:10:19.109Z</time>
      </trkpt>
      <trkpt lat="42.55744" lon="2.0593">
        <ele>1909</ele>
        <time>2020-07-25T07:10:20.109Z</time>
      </trkpt>
      <trkpt lat="42.55745" lon="2.05933">
        <ele>1909</ele>
        <time>2020-07-25T07:10:21.109Z</time>
      </trkpt>
      <trkpt lat="42.55746" lon="2.05936">
        <ele>1908</ele>
        <time>2020-07-25T07:10:22.109Z</time>
      </trkpt>
      <trkpt lat="42.55747" lon="2.05939">
        <ele>1907</ele>
        <time>2020-07-25T07:10:23.109Z</time>
      </trkpt>
      <trkpt lat="42.55749" lon="2.05942">
        <ele>1906</ele>
        <time>2020-07-25T07:10:24.109Z</time>
      </trkpt>
      <trkpt lat="42.5575" lon="2.05946">
        <ele>1905</ele>
        <time>2020-07-25T07:10:25.109Z</time>
      </trkpt>
      <trkpt lat="42.55751" lon="2.05949">
        <ele>1906</ele>
        <time>2020-07-25T07:10:26.109Z</time>
      </trkpt>
      <trkpt lat="42.55752" lon="2.05953">
        <ele>1907</ele>
        <time>2020-07-25T07:10:27.109Z</time>
      </trkpt>
      <trkpt lat="42.55753" lon="2.05956">
        <ele>1907</ele>
        <time>2020-07-25T07:10:28.109Z</time>
      </trkpt>
      <trkpt lat="42.55755" lon="2.0596">
        <ele>1907</ele>
        <time>2020-07-25T07:10:29.109Z</time>
      </trkpt>
      <trkpt lat="42.55755" lon="2.05963">
        <ele>1908</ele>
        <time>2020-07-25T07:10:30.109Z</time>
      </trkpt>
      <trkpt lat="42.55756" lon="2.05967">
        <ele>1908</ele>
        <time>2020-07-25T07:10:31.109Z</time>
      </trkpt>
      <trkpt lat="42.55757" lon="2.05971">
        <ele>1908</ele>
        <time>2020-07-25T07:10:32.109Z</time>
      </trkpt>
      <trkpt lat="42.55758" lon="2.05974">
        <ele>1909</ele>
        <time>2020-07-25T07:10:33.109Z</time>
      </trkpt>
      <trkpt lat="42.55759" lon="2.05977">
        <ele>1909</ele>
        <time>2020-07-25T07:10:34.109Z</time>
      </trkpt>
      <trkpt lat="42.5576" lon="2.0598">
        <ele>1909</ele>
        <time>2020-07-25T07:10:35.109Z</time>
      </trkpt>
      <trkpt lat="42.55761" lon="2.05982">
        <ele>1910</ele>
        <time>2020-07-25T07:10:36.109Z</time>
      </trkpt>
      <trkpt lat="42.55763" lon="2.05985">
        <ele>1911</ele>
        <time>2020-07-25T07:10:37.109Z</time>
      </trkpt>
      <trkpt lat="42.55764" lon="2.05987">
        <ele>1911</ele>
        <time>2020-07-25T07:10:38.109Z</time>
      </trkpt>
      <trkpt lat="42.55766" lon="2.0599">
        <ele>1912</ele>
        <time>2020-07-25T07:10:39.109Z</time>
      </trkpt>
      <trkpt lat="42.55767" lon="2.05992">
        <ele>1912</ele>
        <time>2020-07-25T07:10:40.109Z</time>
      </trkpt>
      <trkpt lat="42.55768" lon="2.05995">
        <ele>1913</ele>
        <time>2020-07-25T07:10:41.109Z</time>
      </trkpt>
      <trkpt lat="42.55769" lon="2.05998">
        <ele>1914</ele>
        <time>2020-07-25T07:10:42.109Z</time>
      </trkpt>
      <trkpt lat="42.5577" lon="2.06">
        <ele>1914</ele>
        <time>2020-07-25T07:10:43.109Z</time>
      </trkpt>
      <trkpt lat="42.55772" lon="2.06002">
        <ele>1915</ele>
        <time>2020-07-25T07:10:44.109Z</time>
      </trkpt>
      <trkpt lat="42.55773" lon="2.06005">
        <ele>1915</ele>
        <time>2020-07-25T07:10:45.109Z</time>
      </trkpt>
      <trkpt lat="42.55775" lon="2.06006">
        <ele>1914</ele>
        <time>2020-07-25T07:10:46.109Z</time>
      </trkpt>
      <trkpt lat="42.55777" lon="2.06008">
        <ele>1914</ele>
        <time>2020-07-25T07:10:47.109Z</time>
      </trkpt>
      <trkpt lat="42.55779" lon="2.06009">
        <ele>1916</ele>
        <time>2020-07-25T07:10:48.109Z</time>
      </trkpt>
      <trkpt lat="42.55781" lon="2.06009">
        <ele>1918</ele>
        <time>2020-07-25T07:10:49.109Z</time>
      </trkpt>
      <trkpt lat="42.55784" lon="2.06009">
        <ele>1919</ele>
        <time>2020-07-25T07:10:50.109Z</time>
      </trkpt>
      <trkpt lat="42.55786" lon="2.06009">
        <ele>1921</ele>
        <time>2020-07-25T07:10:51.109Z</time>
      </trkpt>
      <trkpt lat="42.55788" lon="2.0601">
        <ele>1924</ele>
        <time>2020-07-25T07:10:52.109Z</time>
      </trkpt>
      <trkpt lat="42.5579" lon="2.06011">
        <ele>1924</ele>
        <time>2020-07-25T07:10:53.109Z</time>
      </trkpt>
      <trkpt lat="42.55793" lon="2.06012">
        <ele>1925</ele>
        <time>2020-07-25T07:10:54.109Z</time>
      </trkpt>
      <trkpt lat="42.55795" lon="2.06013">
        <ele>1927</ele>
        <time>2020-07-25T07:10:55.109Z</time>
      </trkpt>
      <trkpt lat="42.55797" lon="2.06014">
        <ele>1928</ele>
        <time>2020-07-25T07:10:56.109Z</time>
      </trkpt>
      <trkpt lat="42.558" lon="2.06015">
        <ele>1930</ele>
        <time>2020-07-25T07:10:57.109Z</time>
      </trkpt>
      <trkpt lat="42.55802" lon="2.06017">
        <ele>1931</ele>
        <time>2020-07-25T07:10:58.109Z</time>
      </trkpt>
      <trkpt lat="42.55804" lon="2.06018">
        <ele>1934</ele>
        <time>2020-07-25T07:10:59.109Z</time>
      </trkpt>
      <trkpt lat="42.55805" lon="2.0602">
        <ele>1936</ele>
        <time>2020-07-25T07:11:00.109Z</time>
      </trkpt>
      <trkpt lat="42.55808" lon="2.06022">
        <ele>1938</ele>
        <time>2020-07-25T07:11:01.109Z</time>
      </trkpt>
      <trkpt lat="42.5581" lon="2.06024">
        <ele>1939</ele>
        <time>2020-07-25T07:11:02.109Z</time>
      </trkpt>
      <trkpt lat="42.55812" lon="2.06026">
        <ele>1940</ele>
        <time>2020-07-25T07:11:03.109Z</time>
      </trkpt>
      <trkpt lat="42.55814" lon="2.06029">
        <ele>1938</ele>
        <time>2020-07-25T07:11:04.109Z</time>
      </trkpt>
      <trkpt lat="42.55816" lon="2.06031">
        <ele>1937</ele>
        <time>2020-07-25T07:11:05.109Z</time>
      </trkpt>
      <trkpt lat="42.55818" lon="2.06033">
        <ele>1937</ele>
        <time>2020-07-25T07:11:06.109Z</time>
      </trkpt>
      <trkpt lat="42.5582" lon="2.06035">
        <ele>1934</ele>
        <time>2020-07-25T07:11:07.109Z</time>
      </trkpt>
      <trkpt lat="42.55822" lon="2.06036">
        <ele>1933</ele>
        <time>2020-07-25T07:11:08.109Z</time>
      </trkpt>
      <trkpt lat="42.55823" lon="2.06037">
        <ele>1932</ele>
        <time>2020-07-25T07:11:09.109Z</time>
      </trkpt>
      <trkpt lat="42.55826" lon="2.06036">
        <ele>1934</ele>
        <time>2020-07-25T07:11:10.109Z</time>
      </trkpt>
      <trkpt lat="42.55828" lon="2.06035">
        <ele>1933</ele>
        <time>2020-07-25T07:11:11.109Z</time>
      </trkpt>
      <trkpt lat="42.5583" lon="2.06034">
        <ele>1934</ele>
        <time>2020-07-25T07:11:12.109Z</time>
      </trkpt>
      <trkpt lat="42.55831" lon="2.06033">
        <ele>1934</ele>
        <time>2020-07-25T07:11:13.109Z</time>
      </trkpt>
      <trkpt lat="42.55833" lon="2.06031">
        <ele>1933</ele>
        <time>2020-07-25T07:11:14.109Z</time>
      </trkpt>
      <trkpt lat="42.55834" lon="2.06029">
        <ele>1934</ele>
        <time>2020-07-25T07:11:15.109Z</time>
      </trkpt>
      <trkpt lat="42.55835" lon="2.06026">
        <ele>1934</ele>
        <time>2020-07-25T07:11:16.109Z</time>
      </trkpt>
      <trkpt lat="42.55835" lon="2.06023">
        <ele>1934</ele>
        <time>2020-07-25T07:11:17.109Z</time>
      </trkpt>
      <trkpt lat="42.55836" lon="2.06021">
        <ele>1934</ele>
        <time>2020-07-25T07:11:18.109Z</time>
      </trkpt>
      <trkpt lat="42.55837" lon="2.06018">
        <ele>1935</ele>
        <time>2020-07-25T07:11:19.109Z</time>
      </trkpt>
      <trkpt lat="42.55838" lon="2.06015">
        <ele>1935</ele>
        <time>2020-07-25T07:11:20.109Z</time>
      </trkpt>
      <trkpt lat="42.55839" lon="2.06013">
        <ele>1936</ele>
        <time>2020-07-25T07:11:21.109Z</time>
      </trkpt>
      <trkpt lat="42.55839" lon="2.0601">
        <ele>1936</ele>
        <time>2020-07-25T07:11:22.109Z</time>
      </trkpt>
      <trkpt lat="42.5584" lon="2.06008">
        <ele>1938</ele>
        <time>2020-07-25T07:11:23.109Z</time>
      </trkpt>
      <trkpt lat="42.5584" lon="2.06006">
        <ele>1938</ele>
        <time>2020-07-25T07:11:24.109Z</time>
      </trkpt>
      <trkpt lat="42.55841" lon="2.06003">
        <ele>1939</ele>
        <time>2020-07-25T07:11:25.109Z</time>
      </trkpt>
      <trkpt lat="42.55842" lon="2.06001">
        <ele>1939</ele>
        <time>2020-07-25T07:11:26.109Z</time>
      </trkpt>
      <trkpt lat="42.55842" lon="2.05998">
        <ele>1940</ele>
        <time>2020-07-25T07:11:27.109Z</time>
      </trkpt>
      <trkpt lat="42.55838" lon="2.0599">
        <ele>1944</ele>
        <time>2020-07-25T07:11:28.124Z</time>
      </trkpt>
      <trkpt lat="42.55838" lon="2.0599">
        <ele>1943</ele>
        <time>2020-07-25T07:11:29.124Z</time>
      </trkpt>
      <trkpt lat="42.55838" lon="2.0599">
        <ele>1943</ele>
        <time>2020-07-25T07:11:30.124Z</time>
      </trkpt>
      <trkpt lat="42.55838" lon="2.05992">
        <ele>1943</ele>
        <time>2020-07-25T07:11:31.124Z</time>
      </trkpt>
      <trkpt lat="42.55838" lon="2.05995">
        <ele>1943</ele>
        <time>2020-07-25T07:11:32.124Z</time>
      </trkpt>
      <trkpt lat="42.55838" lon="2.05998">
        <ele>1943</ele>
        <time>2020-07-25T07:11:33.124Z</time>
      </trkpt>
      <trkpt lat="42.55837" lon="2.06001">
        <ele>1943</ele>
        <time>2020-07-25T07:11:34.124Z</time>
      </trkpt>
      <trkpt lat="42.55837" lon="2.06004">
        <ele>1942</ele>
        <time>2020-07-25T07:11:35.124Z</time>
      </trkpt>
      <trkpt lat="42.55837" lon="2.06008">
        <ele>1941</ele>
        <time>2020-07-25T07:11:36.124Z</time>
      </trkpt>
      <trkpt lat="42.55836" lon="2.06011">
        <ele>1941</ele>
        <time>2020-07-25T07:11:37.124Z</time>
      </trkpt>
      <trkpt lat="42.55835" lon="2.06015">
        <ele>1941</ele>
        <time>2020-07-25T07:11:38.124Z</time>
      </trkpt>
      <trkpt lat="42.55834" lon="2.06019">
        <ele>1941</ele>
        <time>2020-07-25T07:11:39.124Z</time>
      </trkpt>
      <trkpt lat="42.55833" lon="2.06023">
        <ele>1941</ele>
        <time>2020-07-25T07:11:40.124Z</time>
      </trkpt>
      <trkpt lat="42.55833" lon="2.06027">
        <ele>1941</ele>
        <time>2020-07-25T07:11:41.124Z</time>
      </trkpt>
      <trkpt lat="42.55833" lon="2.06031">
        <ele>1940</ele>
        <time>2020-07-25T07:11:42.124Z</time>
      </trkpt>
      <trkpt lat="42.55834" lon="2.06036">
        <ele>1940</ele>
        <time>2020-07-25T07:11:43.124Z</time>
      </trkpt>
      <trkpt lat="42.55834" lon="2.0604">
        <ele>1939</ele>
        <time>2020-07-25T07:11:44.124Z</time>
      </trkpt>
      <trkpt lat="42.55834" lon="2.06044">
        <ele>1939</ele>
        <time>2020-07-25T07:11:45.124Z</time>
      </trkpt>
      <trkpt lat="42.55834" lon="2.06049">
        <ele>1937</ele>
        <time>2020-07-25T07:11:46.124Z</time>
      </trkpt>
      <trkpt lat="42.55835" lon="2.06053">
        <ele>1935</ele>
        <time>2020-07-25T07:11:47.124Z</time>
      </trkpt>
      <trkpt lat="42.55835" lon="2.06057">
        <ele>1934</ele>
        <time>2020-07-25T07:11:48.124Z</time>
      </trkpt>
      <trkpt lat="42.55836" lon="2.06061">
        <ele>1932</ele>
        <time>2020-07-25T07:11:49.124Z</time>
      </trkpt>
      <trkpt lat="42.55837" lon="2.06066">
        <ele>1930</ele>
        <time>2020-07-25T07:11:50.124Z</time>
      </trkpt>
      <trkpt lat="42.55838" lon="2.06069">
        <ele>1929</ele>
        <time>2020-07-25T07:11:51.124Z</time>
      </trkpt>
      <trkpt lat="42.55839" lon="2.06072">
        <ele>1927</ele>
        <time>2020-07-25T07:11:52.124Z</time>
      </trkpt>
      <trkpt lat="42.55841" lon="2.06075">
        <ele>1926</ele>
        <time>2020-07-25T07:11:53.124Z</time>
      </trkpt>
      <trkpt lat="42.55842" lon="2.06078">
        <ele>1927</ele>
        <time>2020-07-25T07:11:54.124Z</time>
      </trkpt>
      <trkpt lat="42.55844" lon="2.06081">
        <ele>1926</ele>
        <time>2020-07-25T07:11:55.124Z</time>
      </trkpt>
      <trkpt lat="42.55845" lon="2.06083">
        <ele>1925</ele>
        <time>2020-07-25T07:11:56.124Z</time>
      </trkpt>
      <trkpt lat="42.55847" lon="2.06086">
        <ele>1924</ele>
        <time>2020-07-25T07:11:57.124Z</time>
      </trkpt>
      <trkpt lat="42.55849" lon="2.06088">
        <ele>1924</ele>
        <time>2020-07-25T07:11:58.124Z</time>
      </trkpt>
      <trkpt lat="42.55851" lon="2.0609">
        <ele>1924</ele>
        <time>2020-07-25T07:11:59.124Z</time>
      </trkpt>
      <trkpt lat="42.55853" lon="2.06092">
        <ele>1923</ele>
        <time>2020-07-25T07:12:00.124Z</time>
      </trkpt>
      <trkpt lat="42.55855" lon="2.06094">
        <ele>1923</ele>
        <time>2020-07-25T07:12:01.124Z</time>
      </trkpt>
      <trkpt lat="42.55857" lon="2.06095">
        <ele>1924</ele>
        <time>2020-07-25T07:12:02.124Z</time>
      </trkpt>
      <trkpt lat="42.55859" lon="2.06095">
        <ele>1923</ele>
        <time>2020-07-25T07:12:03.124Z</time>
      </trkpt>
      <trkpt lat="42.55862" lon="2.06096">
        <ele>1925</ele>
        <time>2020-07-25T07:12:04.124Z</time>
      </trkpt>
      <trkpt lat="42.55864" lon="2.06096">
        <ele>1925</ele>
        <time>2020-07-25T07:12:05.124Z</time>
      </trkpt>
      <trkpt lat="42.55866" lon="2.06095">
        <ele>1926</ele>
        <time>2020-07-25T07:12:06.124Z</time>
      </trkpt>
      <trkpt lat="42.55868" lon="2.06094">
        <ele>1927</ele>
        <time>2020-07-25T07:12:07.124Z</time>
      </trkpt>
      <trkpt lat="42.5587" lon="2.06092">
        <ele>1928</ele>
        <time>2020-07-25T07:12:08.124Z</time>
      </trkpt>
      <trkpt lat="42.55873" lon="2.06091">
        <ele>1929</ele>
        <time>2020-07-25T07:12:09.124Z</time>
      </trkpt>
      <trkpt lat="42.55875" lon="2.06089">
        <ele>1929</ele>
        <time>2020-07-25T07:12:10.124Z</time>
      </trkpt>
      <trkpt lat="42.55877" lon="2.06088">
        <ele>1930</ele>
        <time>2020-07-25T07:12:11.124Z</time>
      </trkpt>
      <trkpt lat="42.5588" lon="2.06086">
        <ele>1930</ele>
        <time>2020-07-25T07:12:12.124Z</time>
      </trkpt>
      <trkpt lat="42.55882" lon="2.06084">
        <ele>1931</ele>
        <time>2020-07-25T07:12:13.124Z</time>
      </trkpt>
      <trkpt lat="42.55884" lon="2.06082">
        <ele>1932</ele>
        <time>2020-07-25T07:12:14.124Z</time>
      </trkpt>
      <trkpt lat="42.55886" lon="2.06081">
        <ele>1932</ele>
        <time>2020-07-25T07:12:15.124Z</time>
      </trkpt>
      <trkpt lat="42.55889" lon="2.0608">
        <ele>1933</ele>
        <time>2020-07-25T07:12:16.124Z</time>
      </trkpt>
      <trkpt lat="42.55891" lon="2.06079">
        <ele>1933</ele>
        <time>2020-07-25T07:12:17.124Z</time>
      </trkpt>
      <trkpt lat="42.55894" lon="2.06078">
        <ele>1933</ele>
        <time>2020-07-25T07:12:18.124Z</time>
      </trkpt>
      <trkpt lat="42.55896" lon="2.06077">
        <ele>1934</ele>
        <time>2020-07-25T07:12:19.124Z</time>
      </trkpt>
      <trkpt lat="42.55898" lon="2.06076">
        <ele>1934</ele>
        <time>2020-07-25T07:12:20.124Z</time>
      </trkpt>
      <trkpt lat="42.559" lon="2.06075">
        <ele>1934</ele>
        <time>2020-07-25T07:12:21.124Z</time>
      </trkpt>
      <trkpt lat="42.55902" lon="2.06073">
        <ele>1934</ele>
        <time>2020-07-25T07:12:22.124Z</time>
      </trkpt>
      <trkpt lat="42.55905" lon="2.06071">
        <ele>1934</ele>
        <time>2020-07-25T07:12:23.124Z</time>
      </trkpt>
      <trkpt lat="42.55907" lon="2.0607">
        <ele>1934</ele>
        <time>2020-07-25T07:12:24.124Z</time>
      </trkpt>
      <trkpt lat="42.55909" lon="2.06068">
        <ele>1934</ele>
        <time>2020-07-25T07:12:25.124Z</time>
      </trkpt>
      <trkpt lat="42.55911" lon="2.06066">
        <ele>1934</ele>
        <time>2020-07-25T07:12:26.124Z</time>
      </trkpt>
      <trkpt lat="42.55913" lon="2.06064">
        <ele>1935</ele>
        <time>2020-07-25T07:12:27.124Z</time>
      </trkpt>
      <trkpt lat="42.55914" lon="2.06062">
        <ele>1934</ele>
        <time>2020-07-25T07:12:28.124Z</time>
      </trkpt>
      <trkpt lat="42.55916" lon="2.0606">
        <ele>1934</ele>
        <time>2020-07-25T07:12:29.124Z</time>
      </trkpt>
      <trkpt lat="42.55918" lon="2.06058">
        <ele>1934</ele>
        <time>2020-07-25T07:12:30.124Z</time>
      </trkpt>
      <trkpt lat="42.5592" lon="2.06055">
        <ele>1935</ele>
        <time>2020-07-25T07:12:31.124Z</time>
      </trkpt>
      <trkpt lat="42.55922" lon="2.06053">
        <ele>1935</ele>
        <time>2020-07-25T07:12:32.124Z</time>
      </trkpt>
      <trkpt lat="42.55924" lon="2.06051">
        <ele>1935</ele>
        <time>2020-07-25T07:12:33.124Z</time>
      </trkpt>
      <trkpt lat="42.55925" lon="2.06048">
        <ele>1935</ele>
        <time>2020-07-25T07:12:34.124Z</time>
      </trkpt>
      <trkpt lat="42.55927" lon="2.06046">
        <ele>1934</ele>
        <time>2020-07-25T07:12:35.124Z</time>
      </trkpt>
      <trkpt lat="42.55928" lon="2.06044">
        <ele>1934</ele>
        <time>2020-07-25T07:12:36.124Z</time>
      </trkpt>
      <trkpt lat="42.5593" lon="2.06042">
        <ele>1935</ele>
        <time>2020-07-25T07:12:37.124Z</time>
      </trkpt>
      <trkpt lat="42.55931" lon="2.0604">
        <ele>1936</ele>
        <time>2020-07-25T07:12:38.124Z</time>
      </trkpt>
      <trkpt lat="42.55934" lon="2.06038">
        <ele>1936</ele>
        <time>2020-07-25T07:12:39.124Z</time>
      </trkpt>
      <trkpt lat="42.55936" lon="2.06036">
        <ele>1937</ele>
        <time>2020-07-25T07:12:40.124Z</time>
      </trkpt>
      <trkpt lat="42.55938" lon="2.06033">
        <ele>1937</ele>
        <time>2020-07-25T07:12:41.124Z</time>
      </trkpt>
      <trkpt lat="42.5594" lon="2.06032">
        <ele>1937</ele>
        <time>2020-07-25T07:12:42.124Z</time>
      </trkpt>
      <trkpt lat="42.55942" lon="2.0603">
        <ele>1936</ele>
        <time>2020-07-25T07:12:43.124Z</time>
      </trkpt>
      <trkpt lat="42.55944" lon="2.06028">
        <ele>1936</ele>
        <time>2020-07-25T07:12:44.124Z</time>
      </trkpt>
      <trkpt lat="42.55947" lon="2.06027">
        <ele>1936</ele>
        <time>2020-07-25T07:12:45.124Z</time>
      </trkpt>
      <trkpt lat="42.55949" lon="2.06025">
        <ele>1936</ele>
        <time>2020-07-25T07:12:46.124Z</time>
      </trkpt>
      <trkpt lat="42.55951" lon="2.06024">
        <ele>1937</ele>
        <time>2020-07-25T07:12:47.124Z</time>
      </trkpt>
      <trkpt lat="42.55953" lon="2.06022">
        <ele>1937</ele>
        <time>2020-07-25T07:12:48.124Z</time>
      </trkpt>
      <trkpt lat="42.55955" lon="2.06021">
        <ele>1938</ele>
        <time>2020-07-25T07:12:49.124Z</time>
      </trkpt>
      <trkpt lat="42.55957" lon="2.06019">
        <ele>1937</ele>
        <time>2020-07-25T07:12:50.124Z</time>
      </trkpt>
      <trkpt lat="42.55958" lon="2.06017">
        <ele>1937</ele>
        <time>2020-07-25T07:12:51.124Z</time>
      </trkpt>
      <trkpt lat="42.55959" lon="2.06015">
        <ele>1936</ele>
        <time>2020-07-25T07:12:52.124Z</time>
      </trkpt>
      <trkpt lat="42.55961" lon="2.06013">
        <ele>1937</ele>
        <time>2020-07-25T07:12:53.124Z</time>
      </trkpt>
      <trkpt lat="42.55963" lon="2.06012">
        <ele>1939</ele>
        <time>2020-07-25T07:12:54.124Z</time>
      </trkpt>
      <trkpt lat="42.55965" lon="2.0601">
        <ele>1939</ele>
        <time>2020-07-25T07:12:55.124Z</time>
      </trkpt>
      <trkpt lat="42.55967" lon="2.06008">
        <ele>1939</ele>
        <time>2020-07-25T07:12:56.124Z</time>
      </trkpt>
      <trkpt lat="42.55968" lon="2.06006">
        <ele>1939</ele>
        <time>2020-07-25T07:12:57.124Z</time>
      </trkpt>
      <trkpt lat="42.5597" lon="2.06004">
        <ele>1940</ele>
        <time>2020-07-25T07:12:58.124Z</time>
      </trkpt>
      <trkpt lat="42.55982" lon="2.06015">
        <ele>1943</ele>
        <time>2020-07-25T07:13:00.108Z</time>
      </trkpt>
      <trkpt lat="42.55982" lon="2.06014">
        <ele>1943</ele>
        <time>2020-07-25T07:13:01.108Z</time>
      </trkpt>
      <trkpt lat="42.55983" lon="2.06013">
        <ele>1943</ele>
        <time>2020-07-25T07:13:02.108Z</time>
      </trkpt>
      <trkpt lat="42.55983" lon="2.06012">
        <ele>1943</ele>
        <time>2020-07-25T07:13:03.108Z</time>
      </trkpt>
      <trkpt lat="42.55984" lon="2.06011">
        <ele>1944</ele>
        <time>2020-07-25T07:13:04.108Z</time>
      </trkpt>
      <trkpt lat="42.55984" lon="2.06009">
        <ele>1943</ele>
        <time>2020-07-25T07:13:05.108Z</time>
      </trkpt>
      <trkpt lat="42.55985" lon="2.06006">
        <ele>1943</ele>
        <time>2020-07-25T07:13:06.108Z</time>
      </trkpt>
      <trkpt lat="42.55986" lon="2.06003">
        <ele>1944</ele>
        <time>2020-07-25T07:13:07.108Z</time>
      </trkpt>
      <trkpt lat="42.55986" lon="2.06001">
        <ele>1943</ele>
        <time>2020-07-25T07:13:08.108Z</time>
      </trkpt>
      <trkpt lat="42.55987" lon="2.05998">
        <ele>1943</ele>
        <time>2020-07-25T07:13:09.108Z</time>
      </trkpt>
      <trkpt lat="42.55988" lon="2.05995">
        <ele>1943</ele>
        <time>2020-07-25T07:13:10.108Z</time>
      </trkpt>
      <trkpt lat="42.55989" lon="2.05992">
        <ele>1943</ele>
        <time>2020-07-25T07:13:11.108Z</time>
      </trkpt>
      <trkpt lat="42.5599" lon="2.0599">
        <ele>1943</ele>
        <time>2020-07-25T07:13:12.108Z</time>
      </trkpt>
      <trkpt lat="42.55992" lon="2.05988">
        <ele>1944</ele>
        <time>2020-07-25T07:13:13.108Z</time>
      </trkpt>
      <trkpt lat="42.55993" lon="2.05986">
        <ele>1943</ele>
        <time>2020-07-25T07:13:14.108Z</time>
      </trkpt>
      <trkpt lat="42.55995" lon="2.05984">
        <ele>1944</ele>
        <time>2020-07-25T07:13:15.108Z</time>
      </trkpt>
      <trkpt lat="42.55997" lon="2.05982">
        <ele>1945</ele>
        <time>2020-07-25T07:13:16.108Z</time>
      </trkpt>
      <trkpt lat="42.55999" lon="2.0598">
        <ele>1947</ele>
        <time>2020-07-25T07:13:17.108Z</time>
      </trkpt>
      <trkpt lat="42.56001" lon="2.05978">
        <ele>1947</ele>
        <time>2020-07-25T07:13:18.108Z</time>
      </trkpt>
      <trkpt lat="42.56003" lon="2.05976">
        <ele>1947</ele>
        <time>2020-07-25T07:13:19.108Z</time>
      </trkpt>
      <trkpt lat="42.56005" lon="2.05974">
        <ele>1948</ele>
        <time>2020-07-25T07:13:20.108Z</time>
      </trkpt>
      <trkpt lat="42.56007" lon="2.05973">
        <ele>1948</ele>
        <time>2020-07-25T07:13:21.108Z</time>
      </trkpt>
      <trkpt lat="42.56009" lon="2.0597">
        <ele>1948</ele>
        <time>2020-07-25T07:13:22.108Z</time>
      </trkpt>
      <trkpt lat="42.56011" lon="2.05968">
        <ele>1949</ele>
        <time>2020-07-25T07:13:23.108Z</time>
      </trkpt>
      <trkpt lat="42.56013" lon="2.05966">
        <ele>1949</ele>
        <time>2020-07-25T07:13:24.108Z</time>
      </trkpt>
      <trkpt lat="42.56015" lon="2.05964">
        <ele>1949</ele>
        <time>2020-07-25T07:13:25.108Z</time>
      </trkpt>
      <trkpt lat="42.56017" lon="2.05962">
        <ele>1950</ele>
        <time>2020-07-25T07:13:26.108Z</time>
      </trkpt>
      <trkpt lat="42.56018" lon="2.05961">
        <ele>1950</ele>
        <time>2020-07-25T07:13:27.108Z</time>
      </trkpt>
      <trkpt lat="42.56021" lon="2.05959">
        <ele>1951</ele>
        <time>2020-07-25T07:13:28.108Z</time>
      </trkpt>
      <trkpt lat="42.56023" lon="2.05957">
        <ele>1951</ele>
        <time>2020-07-25T07:13:29.108Z</time>
      </trkpt>
      <trkpt lat="42.56026" lon="2.05955">
        <ele>1952</ele>
        <time>2020-07-25T07:13:30.108Z</time>
      </trkpt>
      <trkpt lat="42.56028" lon="2.05953">
        <ele>1952</ele>
        <time>2020-07-25T07:13:31.108Z</time>
      </trkpt>
      <trkpt lat="42.56031" lon="2.05951">
        <ele>1952</ele>
        <time>2020-07-25T07:13:32.108Z</time>
      </trkpt>
      <trkpt lat="42.56033" lon="2.05949">
        <ele>1953</ele>
        <time>2020-07-25T07:13:33.108Z</time>
      </trkpt>
      <trkpt lat="42.56035" lon="2.05947">
        <ele>1952</ele>
        <time>2020-07-25T07:13:34.108Z</time>
      </trkpt>
      <trkpt lat="42.56037" lon="2.05945">
        <ele>1952</ele>
        <time>2020-07-25T07:13:35.108Z</time>
      </trkpt>
      <trkpt lat="42.56039" lon="2.05943">
        <ele>1953</ele>
        <time>2020-07-25T07:13:36.108Z</time>
      </trkpt>
      <trkpt lat="42.56041" lon="2.05941">
        <ele>1954</ele>
        <time>2020-07-25T07:13:37.108Z</time>
      </trkpt>
      <trkpt lat="42.56044" lon="2.05939">
        <ele>1955</ele>
        <time>2020-07-25T07:13:38.108Z</time>
      </trkpt>
      <trkpt lat="42.56046" lon="2.05937">
        <ele>1956</ele>
        <time>2020-07-25T07:13:39.108Z</time>
      </trkpt>
      <trkpt lat="42.56047" lon="2.05935">
        <ele>1956</ele>
        <time>2020-07-25T07:13:40.108Z</time>
      </trkpt>
      <trkpt lat="42.56049" lon="2.05933">
        <ele>1957</ele>
        <time>2020-07-25T07:13:41.108Z</time>
      </trkpt>
      <trkpt lat="42.56051" lon="2.05931">
        <ele>1958</ele>
        <time>2020-07-25T07:13:42.108Z</time>
      </trkpt>
      <trkpt lat="42.56053" lon="2.05929">
        <ele>1958</ele>
        <time>2020-07-25T07:13:43.108Z</time>
      </trkpt>
      <trkpt lat="42.56055" lon="2.05926">
        <ele>1959</ele>
        <time>2020-07-25T07:13:44.108Z</time>
      </trkpt>
      <trkpt lat="42.56057" lon="2.05924">
        <ele>1958</ele>
        <time>2020-07-25T07:13:45.108Z</time>
      </trkpt>
      <trkpt lat="42.56059" lon="2.05921">
        <ele>1957</ele>
        <time>2020-07-25T07:13:46.108Z</time>
      </trkpt>
      <trkpt lat="42.56061" lon="2.05918">
        <ele>1958</ele>
        <time>2020-07-25T07:13:47.108Z</time>
      </trkpt>
      <trkpt lat="42.56063" lon="2.05916">
        <ele>1957</ele>
        <time>2020-07-25T07:13:48.108Z</time>
      </trkpt>
      <trkpt lat="42.56065" lon="2.05914">
        <ele>1958</ele>
        <time>2020-07-25T07:13:49.108Z</time>
      </trkpt>
      <trkpt lat="42.56067" lon="2.05912">
        <ele>1958</ele>
        <time>2020-07-25T07:13:50.108Z</time>
      </trkpt>
      <trkpt lat="42.56069" lon="2.05911">
        <ele>1957</ele>
        <time>2020-07-25T07:13:51.108Z</time>
      </trkpt>
      <trkpt lat="42.56071" lon="2.05909">
        <ele>1957</ele>
        <time>2020-07-25T07:13:52.108Z</time>
      </trkpt>
      <trkpt lat="42.56072" lon="2.05907">
        <ele>1957</ele>
        <time>2020-07-25T07:13:53.108Z</time>
      </trkpt>
      <trkpt lat="42.56074" lon="2.05905">
        <ele>1958</ele>
        <time>2020-07-25T07:13:54.108Z</time>
      </trkpt>
      <trkpt lat="42.56076" lon="2.05903">
        <ele>1959</ele>
        <time>2020-07-25T07:13:55.108Z</time>
      </trkpt>
      <trkpt lat="42.56078" lon="2.05901">
        <ele>1960</ele>
        <time>2020-07-25T07:13:56.108Z</time>
      </trkpt>
      <trkpt lat="42.5608" lon="2.059">
        <ele>1960</ele>
        <time>2020-07-25T07:13:57.108Z</time>
      </trkpt>
      <trkpt lat="42.56082" lon="2.05898">
        <ele>1960</ele>
        <time>2020-07-25T07:13:58.108Z</time>
      </trkpt>
      <trkpt lat="42.56084" lon="2.05896">
        <ele>1958</ele>
        <time>2020-07-25T07:13:59.108Z</time>
      </trkpt>
      <trkpt lat="42.56086" lon="2.05893">
        <ele>1959</ele>
        <time>2020-07-25T07:14:00.108Z</time>
      </trkpt>
      <trkpt lat="42.56088" lon="2.05891">
        <ele>1960</ele>
        <time>2020-07-25T07:14:01.108Z</time>
      </trkpt>
      <trkpt lat="42.5609" lon="2.0589">
        <ele>1960</ele>
        <time>2020-07-25T07:14:02.108Z</time>
      </trkpt>
      <trkpt lat="42.56092" lon="2.05888">
        <ele>1961</ele>
        <time>2020-07-25T07:14:03.108Z</time>
      </trkpt>
      <trkpt lat="42.56094" lon="2.05886">
        <ele>1961</ele>
        <time>2020-07-25T07:14:04.108Z</time>
      </trkpt>
      <trkpt lat="42.56095" lon="2.05884">
        <ele>1961</ele>
        <time>2020-07-25T07:14:05.108Z</time>
      </trkpt>
      <trkpt lat="42.56096" lon="2.05882">
        <ele>1962</ele>
        <time>2020-07-25T07:14:06.108Z</time>
      </trkpt>
      <trkpt lat="42.56097" lon="2.0588">
        <ele>1963</ele>
        <time>2020-07-25T07:14:07.108Z</time>
      </trkpt>
      <trkpt lat="42.56099" lon="2.05878">
        <ele>1963</ele>
        <time>2020-07-25T07:14:08.108Z</time>
      </trkpt>
      <trkpt lat="42.561" lon="2.05876">
        <ele>1964</ele>
        <time>2020-07-25T07:14:09.108Z</time>
      </trkpt>
      <trkpt lat="42.56101" lon="2.05874">
        <ele>1964</ele>
        <time>2020-07-25T07:14:10.108Z</time>
      </trkpt>
      <trkpt lat="42.56102" lon="2.05872">
        <ele>1965</ele>
        <time>2020-07-25T07:14:11.108Z</time>
      </trkpt>
      <trkpt lat="42.56104" lon="2.0587">
        <ele>1965</ele>
        <time>2020-07-25T07:14:12.108Z</time>
      </trkpt>
      <trkpt lat="42.56105" lon="2.05867">
        <ele>1966</ele>
        <time>2020-07-25T07:14:13.108Z</time>
      </trkpt>
      <trkpt lat="42.56107" lon="2.05865">
        <ele>1966</ele>
        <time>2020-07-25T07:14:14.108Z</time>
      </trkpt>
      <trkpt lat="42.56109" lon="2.05863">
        <ele>1967</ele>
        <time>2020-07-25T07:14:15.108Z</time>
      </trkpt>
      <trkpt lat="42.5611" lon="2.05861">
        <ele>1967</ele>
        <time>2020-07-25T07:14:16.108Z</time>
      </trkpt>
      <trkpt lat="42.56111" lon="2.05859">
        <ele>1967</ele>
        <time>2020-07-25T07:14:17.108Z</time>
      </trkpt>
      <trkpt lat="42.56112" lon="2.05856">
        <ele>1968</ele>
        <time>2020-07-25T07:14:18.108Z</time>
      </trkpt>
      <trkpt lat="42.56114" lon="2.05854">
        <ele>1968</ele>
        <time>2020-07-25T07:14:19.108Z</time>
      </trkpt>
      <trkpt lat="42.56115" lon="2.05852">
        <ele>1968</ele>
        <time>2020-07-25T07:14:20.108Z</time>
      </trkpt>
      <trkpt lat="42.56116" lon="2.05849">
        <ele>1969</ele>
        <time>2020-07-25T07:14:21.108Z</time>
      </trkpt>
      <trkpt lat="42.56116" lon="2.05847">
        <ele>1970</ele>
        <time>2020-07-25T07:14:22.108Z</time>
      </trkpt>
      <trkpt lat="42.56118" lon="2.05844">
        <ele>1971</ele>
        <time>2020-07-25T07:14:23.108Z</time>
      </trkpt>
      <trkpt lat="42.56119" lon="2.05842">
        <ele>1972</ele>
        <time>2020-07-25T07:14:24.108Z</time>
      </trkpt>
      <trkpt lat="42.5612" lon="2.0584">
        <ele>1973</ele>
        <time>2020-07-25T07:14:25.108Z</time>
      </trkpt>
      <trkpt lat="42.56121" lon="2.05838">
        <ele>1974</ele>
        <time>2020-07-25T07:14:26.108Z</time>
      </trkpt>
      <trkpt lat="42.56122" lon="2.05836">
        <ele>1974</ele>
        <time>2020-07-25T07:14:27.108Z</time>
      </trkpt>
      <trkpt lat="42.56123" lon="2.05834">
        <ele>1974</ele>
        <time>2020-07-25T07:14:28.108Z</time>
      </trkpt>
      <trkpt lat="42.56123" lon="2.05832">
        <ele>1974</ele>
        <time>2020-07-25T07:14:29.108Z</time>
      </trkpt>
      <trkpt lat="42.56123" lon="2.0583">
        <ele>1974</ele>
        <time>2020-07-25T07:14:30.108Z</time>
      </trkpt>
      <trkpt lat="42.56122" lon="2.05828">
        <ele>1974</ele>
        <time>2020-07-25T07:14:31.108Z</time>
      </trkpt>
      <trkpt lat="42.56122" lon="2.05825">
        <ele>1975</ele>
        <time>2020-07-25T07:14:32.108Z</time>
      </trkpt>
      <trkpt lat="42.56123" lon="2.05823">
        <ele>1975</ele>
        <time>2020-07-25T07:14:33.108Z</time>
      </trkpt>
      <trkpt lat="42.56123" lon="2.0582">
        <ele>1976</ele>
        <time>2020-07-25T07:14:34.108Z</time>
      </trkpt>
      <trkpt lat="42.56124" lon="2.05818">
        <ele>1976</ele>
        <time>2020-07-25T07:14:35.108Z</time>
      </trkpt>
      <trkpt lat="42.56124" lon="2.05816">
        <ele>1977</ele>
        <time>2020-07-25T07:14:36.108Z</time>
      </trkpt>
      <trkpt lat="42.56125" lon="2.05813">
        <ele>1977</ele>
        <time>2020-07-25T07:14:37.108Z</time>
      </trkpt>
      <trkpt lat="42.56125" lon="2.05811">
        <ele>1977</ele>
        <time>2020-07-25T07:14:38.108Z</time>
      </trkpt>
      <trkpt lat="42.56125" lon="2.05808">
        <ele>1977</ele>
        <time>2020-07-25T07:14:39.108Z</time>
      </trkpt>
      <trkpt lat="42.56126" lon="2.05806">
        <ele>1977</ele>
        <time>2020-07-25T07:14:40.108Z</time>
      </trkpt>
      <trkpt lat="42.56126" lon="2.05804">
        <ele>1979</ele>
        <time>2020-07-25T07:14:41.108Z</time>
      </trkpt>
      <trkpt lat="42.56127" lon="2.05802">
        <ele>1980</ele>
        <time>2020-07-25T07:14:42.108Z</time>
      </trkpt>
      <trkpt lat="42.56127" lon="2.058">
        <ele>1981</ele>
        <time>2020-07-25T07:14:43.108Z</time>
      </trkpt>
      <trkpt lat="42.56128" lon="2.05797">
        <ele>1982</ele>
        <time>2020-07-25T07:14:44.108Z</time>
      </trkpt>
      <trkpt lat="42.56129" lon="2.05795">
        <ele>1982</ele>
        <time>2020-07-25T07:14:45.108Z</time>
      </trkpt>
      <trkpt lat="42.5613" lon="2.05792">
        <ele>1983</ele>
        <time>2020-07-25T07:14:46.108Z</time>
      </trkpt>
      <trkpt lat="42.5613" lon="2.0579">
        <ele>1983</ele>
        <time>2020-07-25T07:14:47.108Z</time>
      </trkpt>
      <trkpt lat="42.5613" lon="2.05788">
        <ele>1983</ele>
        <time>2020-07-25T07:14:48.108Z</time>
      </trkpt>
      <trkpt lat="42.5613" lon="2.05785">
        <ele>1984</ele>
        <time>2020-07-25T07:14:49.108Z</time>
      </trkpt>
      <trkpt lat="42.56131" lon="2.05783">
        <ele>1984</ele>
        <time>2020-07-25T07:14:50.108Z</time>
      </trkpt>
      <trkpt lat="42.56131" lon="2.05781">
        <ele>1984</ele>
        <time>2020-07-25T07:14:51.108Z</time>
      </trkpt>
      <trkpt lat="42.56132" lon="2.05779">
        <ele>1985</ele>
        <time>2020-07-25T07:14:52.108Z</time>
      </trkpt>
      <trkpt lat="42.56133" lon="2.05776">
        <ele>1985</ele>
        <time>2020-07-25T07:14:53.108Z</time>
      </trkpt>
      <trkpt lat="42.56133" lon="2.05773">
        <ele>1986</ele>
        <time>2020-07-25T07:14:54.108Z</time>
      </trkpt>
      <trkpt lat="42.56134" lon="2.05771">
        <ele>1986</ele>
        <time>2020-07-25T07:14:55.108Z</time>
      </trkpt>
      <trkpt lat="42.56134" lon="2.05768">
        <ele>1986</ele>
        <time>2020-07-25T07:14:56.108Z</time>
      </trkpt>
      <trkpt lat="42.56133" lon="2.05765">
        <ele>1987</ele>
        <time>2020-07-25T07:14:57.108Z</time>
      </trkpt>
      <trkpt lat="42.56133" lon="2.05763">
        <ele>1987</ele>
        <time>2020-07-25T07:14:58.108Z</time>
      </trkpt>
      <trkpt lat="42.56134" lon="2.0576">
        <ele>1988</ele>
        <time>2020-07-25T07:14:59.108Z</time>
      </trkpt>
      <trkpt lat="42.56134" lon="2.05758">
        <ele>1988</ele>
        <time>2020-07-25T07:15:00.108Z</time>
      </trkpt>
      <trkpt lat="42.56134" lon="2.05755">
        <ele>1989</ele>
        <time>2020-07-25T07:15:01.108Z</time>
      </trkpt>
      <trkpt lat="42.56135" lon="2.05752">
        <ele>1989</ele>
        <time>2020-07-25T07:15:02.108Z</time>
      </trkpt>
      <trkpt lat="42.56136" lon="2.0575">
        <ele>1989</ele>
        <time>2020-07-25T07:15:03.108Z</time>
      </trkpt>
      <trkpt lat="42.56136" lon="2.05746">
        <ele>1988</ele>
        <time>2020-07-25T07:15:04.108Z</time>
      </trkpt>
      <trkpt lat="42.56137" lon="2.05743">
        <ele>1989</ele>
        <time>2020-07-25T07:15:05.108Z</time>
      </trkpt>
      <trkpt lat="42.56138" lon="2.0574">
        <ele>1989</ele>
        <time>2020-07-25T07:15:06.108Z</time>
      </trkpt>
      <trkpt lat="42.56139" lon="2.05737">
        <ele>1991</ele>
        <time>2020-07-25T07:15:07.108Z</time>
      </trkpt>
      <trkpt lat="42.5614" lon="2.05734">
        <ele>1992</ele>
        <time>2020-07-25T07:15:08.108Z</time>
      </trkpt>
      <trkpt lat="42.5614" lon="2.05731">
        <ele>1991</ele>
        <time>2020-07-25T07:15:09.108Z</time>
      </trkpt>
      <trkpt lat="42.56141" lon="2.05728">
        <ele>1991</ele>
        <time>2020-07-25T07:15:10.108Z</time>
      </trkpt>
      <trkpt lat="42.56141" lon="2.05725">
        <ele>1991</ele>
        <time>2020-07-25T07:15:11.108Z</time>
      </trkpt>
      <trkpt lat="42.56141" lon="2.05723">
        <ele>1990</ele>
        <time>2020-07-25T07:15:12.108Z</time>
      </trkpt>
      <trkpt lat="42.56141" lon="2.0572">
        <ele>1991</ele>
        <time>2020-07-25T07:15:13.108Z</time>
      </trkpt>
      <trkpt lat="42.56141" lon="2.05718">
        <ele>1992</ele>
        <time>2020-07-25T07:15:14.108Z</time>
      </trkpt>
      <trkpt lat="42.56141" lon="2.05715">
        <ele>1992</ele>
        <time>2020-07-25T07:15:15.108Z</time>
      </trkpt>
      <trkpt lat="42.56141" lon="2.05712">
        <ele>1993</ele>
        <time>2020-07-25T07:15:16.108Z</time>
      </trkpt>
      <trkpt lat="42.56142" lon="2.05709">
        <ele>1993</ele>
        <time>2020-07-25T07:15:17.108Z</time>
      </trkpt>
      <trkpt lat="42.56142" lon="2.05706">
        <ele>1994</ele>
        <time>2020-07-25T07:15:18.108Z</time>
      </trkpt>
      <trkpt lat="42.56143" lon="2.05703">
        <ele>1995</ele>
        <time>2020-07-25T07:15:19.108Z</time>
      </trkpt>
      <trkpt lat="42.56143" lon="2.057">
        <ele>1995</ele>
        <time>2020-07-25T07:15:20.108Z</time>
      </trkpt>
      <trkpt lat="42.56144" lon="2.05697">
        <ele>1995</ele>
        <time>2020-07-25T07:15:21.108Z</time>
      </trkpt>
      <trkpt lat="42.56144" lon="2.05694">
        <ele>1995</ele>
        <time>2020-07-25T07:15:22.108Z</time>
      </trkpt>
      <trkpt lat="42.56145" lon="2.05691">
        <ele>1995</ele>
        <time>2020-07-25T07:15:23.108Z</time>
      </trkpt>
      <trkpt lat="42.56146" lon="2.05688">
        <ele>1996</ele>
        <time>2020-07-25T07:15:24.108Z</time>
      </trkpt>
      <trkpt lat="42.56146" lon="2.05685">
        <ele>1996</ele>
        <time>2020-07-25T07:15:25.108Z</time>
      </trkpt>
      <trkpt lat="42.56146" lon="2.05682">
        <ele>1997</ele>
        <time>2020-07-25T07:15:26.108Z</time>
      </trkpt>
      <trkpt lat="42.56147" lon="2.05679">
        <ele>1998</ele>
        <time>2020-07-25T07:15:27.108Z</time>
      </trkpt>
      <trkpt lat="42.56147" lon="2.05676">
        <ele>1999</ele>
        <time>2020-07-25T07:15:28.108Z</time>
      </trkpt>
      <trkpt lat="42.56148" lon="2.05673">
        <ele>2000</ele>
        <time>2020-07-25T07:15:29.108Z</time>
      </trkpt>
      <trkpt lat="42.56148" lon="2.0567">
        <ele>2002</ele>
        <time>2020-07-25T07:15:30.108Z</time>
      </trkpt>
      <trkpt lat="42.56148" lon="2.05667">
        <ele>2002</ele>
        <time>2020-07-25T07:15:31.108Z</time>
      </trkpt>
      <trkpt lat="42.56148" lon="2.05664">
        <ele>2003</ele>
        <time>2020-07-25T07:15:32.108Z</time>
      </trkpt>
      <trkpt lat="42.56148" lon="2.05661">
        <ele>2004</ele>
        <time>2020-07-25T07:15:33.108Z</time>
      </trkpt>
      <trkpt lat="42.56148" lon="2.05658">
        <ele>2004</ele>
        <time>2020-07-25T07:15:34.108Z</time>
      </trkpt>
      <trkpt lat="42.56148" lon="2.05655">
        <ele>2004</ele>
        <time>2020-07-25T07:15:35.108Z</time>
      </trkpt>
      <trkpt lat="42.56148" lon="2.05651">
        <ele>2004</ele>
        <time>2020-07-25T07:15:36.108Z</time>
      </trkpt>
      <trkpt lat="42.56148" lon="2.05648">
        <ele>2005</ele>
        <time>2020-07-25T07:15:37.108Z</time>
      </trkpt>
      <trkpt lat="42.56148" lon="2.05644">
        <ele>2005</ele>
        <time>2020-07-25T07:15:38.108Z</time>
      </trkpt>
      <trkpt lat="42.56149" lon="2.05641">
        <ele>2005</ele>
        <time>2020-07-25T07:15:39.108Z</time>
      </trkpt>
      <trkpt lat="42.5615" lon="2.05638">
        <ele>2006</ele>
        <time>2020-07-25T07:15:40.108Z</time>
      </trkpt>
      <trkpt lat="42.56152" lon="2.05635">
        <ele>2006</ele>
        <time>2020-07-25T07:15:41.108Z</time>
      </trkpt>
      <trkpt lat="42.56154" lon="2.05633">
        <ele>2008</ele>
        <time>2020-07-25T07:15:42.108Z</time>
      </trkpt>
      <trkpt lat="42.56157" lon="2.05631">
        <ele>2011</ele>
        <time>2020-07-25T07:15:43.108Z</time>
      </trkpt>
      <trkpt lat="42.5616" lon="2.0563">
        <ele>2011</ele>
        <time>2020-07-25T07:15:44.108Z</time>
      </trkpt>
      <trkpt lat="42.56162" lon="2.05628">
        <ele>2011</ele>
        <time>2020-07-25T07:15:45.108Z</time>
      </trkpt>
      <trkpt lat="42.56165" lon="2.05625">
        <ele>2010</ele>
        <time>2020-07-25T07:15:46.108Z</time>
      </trkpt>
      <trkpt lat="42.56167" lon="2.05623">
        <ele>2010</ele>
        <time>2020-07-25T07:15:47.108Z</time>
      </trkpt>
      <trkpt lat="42.56169" lon="2.05621">
        <ele>2010</ele>
        <time>2020-07-25T07:15:48.108Z</time>
      </trkpt>
      <trkpt lat="42.56171" lon="2.05618">
        <ele>2010</ele>
        <time>2020-07-25T07:15:49.108Z</time>
      </trkpt>
      <trkpt lat="42.56173" lon="2.05616">
        <ele>2010</ele>
        <time>2020-07-25T07:15:50.108Z</time>
      </trkpt>
      <trkpt lat="42.56175" lon="2.05614">
        <ele>2009</ele>
        <time>2020-07-25T07:15:51.108Z</time>
      </trkpt>
      <trkpt lat="42.56177" lon="2.05612">
        <ele>2009</ele>
        <time>2020-07-25T07:15:52.108Z</time>
      </trkpt>
      <trkpt lat="42.56179" lon="2.0561">
        <ele>2010</ele>
        <time>2020-07-25T07:15:53.108Z</time>
      </trkpt>
      <trkpt lat="42.56181" lon="2.05607">
        <ele>2010</ele>
        <time>2020-07-25T07:15:54.108Z</time>
      </trkpt>
      <trkpt lat="42.56183" lon="2.05605">
        <ele>2010</ele>
        <time>2020-07-25T07:15:55.108Z</time>
      </trkpt>
      <trkpt lat="42.56185" lon="2.05603">
        <ele>2010</ele>
        <time>2020-07-25T07:15:56.108Z</time>
      </trkpt>
      <trkpt lat="42.56187" lon="2.05601">
        <ele>2010</ele>
        <time>2020-07-25T07:15:57.108Z</time>
      </trkpt>
      <trkpt lat="42.56189" lon="2.05599">
        <ele>2010</ele>
        <time>2020-07-25T07:15:58.108Z</time>
      </trkpt>
      <trkpt lat="42.56191" lon="2.05597">
        <ele>2010</ele>
        <time>2020-07-25T07:15:59.108Z</time>
      </trkpt>
      <trkpt lat="42.56193" lon="2.05595">
        <ele>2010</ele>
        <time>2020-07-25T07:16:00.108Z</time>
      </trkpt>
      <trkpt lat="42.56196" lon="2.05593">
        <ele>2010</ele>
        <time>2020-07-25T07:16:01.108Z</time>
      </trkpt>
      <trkpt lat="42.56198" lon="2.05592">
        <ele>2010</ele>
        <time>2020-07-25T07:16:02.108Z</time>
      </trkpt>
      <trkpt lat="42.562" lon="2.0559">
        <ele>2010</ele>
        <time>2020-07-25T07:16:03.108Z</time>
      </trkpt>
      <trkpt lat="42.56201" lon="2.05588">
        <ele>2010</ele>
        <time>2020-07-25T07:16:04.108Z</time>
      </trkpt>
      <trkpt lat="42.56203" lon="2.05586">
        <ele>2011</ele>
        <time>2020-07-25T07:16:05.108Z</time>
      </trkpt>
      <trkpt lat="42.56205" lon="2.05584">
        <ele>2012</ele>
        <time>2020-07-25T07:16:06.108Z</time>
      </trkpt>
      <trkpt lat="42.56207" lon="2.05582">
        <ele>2013</ele>
        <time>2020-07-25T07:16:07.108Z</time>
      </trkpt>
      <trkpt lat="42.5621" lon="2.0558">
        <ele>2014</ele>
        <time>2020-07-25T07:16:08.108Z</time>
      </trkpt>
      <trkpt lat="42.56212" lon="2.05578">
        <ele>2015</ele>
        <time>2020-07-25T07:16:09.108Z</time>
      </trkpt>
      <trkpt lat="42.56214" lon="2.05576">
        <ele>2015</ele>
        <time>2020-07-25T07:16:10.108Z</time>
      </trkpt>
      <trkpt lat="42.56216" lon="2.05574">
        <ele>2015</ele>
        <time>2020-07-25T07:16:11.108Z</time>
      </trkpt>
      <trkpt lat="42.56218" lon="2.05572">
        <ele>2016</ele>
        <time>2020-07-25T07:16:12.108Z</time>
      </trkpt>
      <trkpt lat="42.5622" lon="2.0557">
        <ele>2016</ele>
        <time>2020-07-25T07:16:13.108Z</time>
      </trkpt>
      <trkpt lat="42.56222" lon="2.05568">
        <ele>2017</ele>
        <time>2020-07-25T07:16:14.108Z</time>
      </trkpt>
      <trkpt lat="42.56223" lon="2.05567">
        <ele>2017</ele>
        <time>2020-07-25T07:16:15.108Z</time>
      </trkpt>
      <trkpt lat="42.56225" lon="2.05565">
        <ele>2017</ele>
        <time>2020-07-25T07:16:16.108Z</time>
      </trkpt>
      <trkpt lat="42.56227" lon="2.05563">
        <ele>2017</ele>
        <time>2020-07-25T07:16:17.108Z</time>
      </trkpt>
      <trkpt lat="42.56229" lon="2.05561">
        <ele>2018</ele>
        <time>2020-07-25T07:16:18.108Z</time>
      </trkpt>
      <trkpt lat="42.56231" lon="2.05559">
        <ele>2018</ele>
        <time>2020-07-25T07:16:19.108Z</time>
      </trkpt>
      <trkpt lat="42.56233" lon="2.05556">
        <ele>2019</ele>
        <time>2020-07-25T07:16:20.108Z</time>
      </trkpt>
      <trkpt lat="42.56234" lon="2.05554">
        <ele>2020</ele>
        <time>2020-07-25T07:16:21.108Z</time>
      </trkpt>
      <trkpt lat="42.56236" lon="2.05552">
        <ele>2020</ele>
        <time>2020-07-25T07:16:22.108Z</time>
      </trkpt>
      <trkpt lat="42.56238" lon="2.0555">
        <ele>2020</ele>
        <time>2020-07-25T07:16:23.108Z</time>
      </trkpt>
      <trkpt lat="42.56239" lon="2.05547">
        <ele>2020</ele>
        <time>2020-07-25T07:16:24.108Z</time>
      </trkpt>
      <trkpt lat="42.56241" lon="2.05545">
        <ele>2021</ele>
        <time>2020-07-25T07:16:25.108Z</time>
      </trkpt>
      <trkpt lat="42.56242" lon="2.05543">
        <ele>2021</ele>
        <time>2020-07-25T07:16:26.108Z</time>
      </trkpt>
      <trkpt lat="42.56244" lon="2.0554">
        <ele>2022</ele>
        <time>2020-07-25T07:16:27.108Z</time>
      </trkpt>
      <trkpt lat="42.56246" lon="2.05538">
        <ele>2023</ele>
        <time>2020-07-25T07:16:28.108Z</time>
      </trkpt>
      <trkpt lat="42.56248" lon="2.05535">
        <ele>2023</ele>
        <time>2020-07-25T07:16:29.108Z</time>
      </trkpt>
      <trkpt lat="42.5625" lon="2.05533">
        <ele>2023</ele>
        <time>2020-07-25T07:16:30.108Z</time>
      </trkpt>
      <trkpt lat="42.56251" lon="2.05531">
        <ele>2024</ele>
        <time>2020-07-25T07:16:31.108Z</time>
      </trkpt>
      <trkpt lat="42.56253" lon="2.05528">
        <ele>2024</ele>
        <time>2020-07-25T07:16:32.108Z</time>
      </trkpt>
      <trkpt lat="42.56255" lon="2.05526">
        <ele>2024</ele>
        <time>2020-07-25T07:16:33.108Z</time>
      </trkpt>
      <trkpt lat="42.56256" lon="2.05524">
        <ele>2024</ele>
        <time>2020-07-25T07:16:34.108Z</time>
      </trkpt>
      <trkpt lat="42.56258" lon="2.05521">
        <ele>2024</ele>
        <time>2020-07-25T07:16:35.108Z</time>
      </trkpt>
      <trkpt lat="42.5626" lon="2.05519">
        <ele>2024</ele>
        <time>2020-07-25T07:16:36.108Z</time>
      </trkpt>
      <trkpt lat="42.56261" lon="2.05517">
        <ele>2025</ele>
        <time>2020-07-25T07:16:37.108Z</time>
      </trkpt>
      <trkpt lat="42.56263" lon="2.05515">
        <ele>2026</ele>
        <time>2020-07-25T07:16:38.108Z</time>
      </trkpt>
      <trkpt lat="42.56265" lon="2.05513">
        <ele>2026</ele>
        <time>2020-07-25T07:16:39.108Z</time>
      </trkpt>
      <trkpt lat="42.56266" lon="2.0551">
        <ele>2026</ele>
        <time>2020-07-25T07:16:40.108Z</time>
      </trkpt>
      <trkpt lat="42.56268" lon="2.05508">
        <ele>2026</ele>
        <time>2020-07-25T07:16:41.108Z</time>
      </trkpt>
      <trkpt lat="42.5627" lon="2.05506">
        <ele>2027</ele>
        <time>2020-07-25T07:16:42.108Z</time>
      </trkpt>
      <trkpt lat="42.56272" lon="2.05503">
        <ele>2027</ele>
        <time>2020-07-25T07:16:43.108Z</time>
      </trkpt>
      <trkpt lat="42.56273" lon="2.05501">
        <ele>2027</ele>
        <time>2020-07-25T07:16:44.108Z</time>
      </trkpt>
      <trkpt lat="42.56275" lon="2.05498">
        <ele>2027</ele>
        <time>2020-07-25T07:16:45.108Z</time>
      </trkpt>
      <trkpt lat="42.56277" lon="2.05496">
        <ele>2027</ele>
        <time>2020-07-25T07:16:46.108Z</time>
      </trkpt>
      <trkpt lat="42.56279" lon="2.05494">
        <ele>2028</ele>
        <time>2020-07-25T07:16:47.108Z</time>
      </trkpt>
      <trkpt lat="42.56281" lon="2.05492">
        <ele>2028</ele>
        <time>2020-07-25T07:16:48.108Z</time>
      </trkpt>
      <trkpt lat="42.56283" lon="2.0549">
        <ele>2029</ele>
        <time>2020-07-25T07:16:49.108Z</time>
      </trkpt>
      <trkpt lat="42.56285" lon="2.05488">
        <ele>2030</ele>
        <time>2020-07-25T07:16:50.108Z</time>
      </trkpt>
      <trkpt lat="42.56287" lon="2.05487">
        <ele>2029</ele>
        <time>2020-07-25T07:16:51.108Z</time>
      </trkpt>
      <trkpt lat="42.56289" lon="2.05486">
        <ele>2030</ele>
        <time>2020-07-25T07:16:52.108Z</time>
      </trkpt>
      <trkpt lat="42.56292" lon="2.05485">
        <ele>2030</ele>
        <time>2020-07-25T07:16:53.108Z</time>
      </trkpt>
      <trkpt lat="42.56294" lon="2.05484">
        <ele>2029</ele>
        <time>2020-07-25T07:16:54.108Z</time>
      </trkpt>
      <trkpt lat="42.56296" lon="2.05483">
        <ele>2030</ele>
        <time>2020-07-25T07:16:55.108Z</time>
      </trkpt>
      <trkpt lat="42.56298" lon="2.05482">
        <ele>2030</ele>
        <time>2020-07-25T07:16:56.108Z</time>
      </trkpt>
      <trkpt lat="42.563" lon="2.05482">
        <ele>2030</ele>
        <time>2020-07-25T07:16:57.108Z</time>
      </trkpt>
      <trkpt lat="42.56302" lon="2.0548">
        <ele>2030</ele>
        <time>2020-07-25T07:16:58.108Z</time>
      </trkpt>
      <trkpt lat="42.56304" lon="2.05479">
        <ele>2029</ele>
        <time>2020-07-25T07:16:59.108Z</time>
      </trkpt>
      <trkpt lat="42.56306" lon="2.05478">
        <ele>2028</ele>
        <time>2020-07-25T07:17:00.108Z</time>
      </trkpt>
      <trkpt lat="42.56308" lon="2.05476">
        <ele>2028</ele>
        <time>2020-07-25T07:17:01.108Z</time>
      </trkpt>
      <trkpt lat="42.5631" lon="2.05475">
        <ele>2028</ele>
        <time>2020-07-25T07:17:02.108Z</time>
      </trkpt>
      <trkpt lat="42.56312" lon="2.05473">
        <ele>2028</ele>
        <time>2020-07-25T07:17:03.108Z</time>
      </trkpt>
      <trkpt lat="42.56314" lon="2.05471">
        <ele>2029</ele>
        <time>2020-07-25T07:17:04.108Z</time>
      </trkpt>
      <trkpt lat="42.56316" lon="2.05469">
        <ele>2029</ele>
        <time>2020-07-25T07:17:05.108Z</time>
      </trkpt>
      <trkpt lat="42.56318" lon="2.05467">
        <ele>2029</ele>
        <time>2020-07-25T07:17:06.108Z</time>
      </trkpt>
      <trkpt lat="42.56319" lon="2.05464">
        <ele>2029</ele>
        <time>2020-07-25T07:17:07.108Z</time>
      </trkpt>
      <trkpt lat="42.5632" lon="2.05461">
        <ele>2030</ele>
        <time>2020-07-25T07:17:08.108Z</time>
      </trkpt>
      <trkpt lat="42.56321" lon="2.05458">
        <ele>2030</ele>
        <time>2020-07-25T07:17:09.108Z</time>
      </trkpt>
      <trkpt lat="42.56323" lon="2.05456">
        <ele>2030</ele>
        <time>2020-07-25T07:17:10.108Z</time>
      </trkpt>
      <trkpt lat="42.56324" lon="2.05453">
        <ele>2030</ele>
        <time>2020-07-25T07:17:11.108Z</time>
      </trkpt>
      <trkpt lat="42.56325" lon="2.05451">
        <ele>2030</ele>
        <time>2020-07-25T07:17:12.108Z</time>
      </trkpt>
      <trkpt lat="42.56326" lon="2.05448">
        <ele>2031</ele>
        <time>2020-07-25T07:17:13.108Z</time>
      </trkpt>
      <trkpt lat="42.56328" lon="2.05446">
        <ele>2031</ele>
        <time>2020-07-25T07:17:14.108Z</time>
      </trkpt>
      <trkpt lat="42.56329" lon="2.05443">
        <ele>2032</ele>
        <time>2020-07-25T07:17:15.108Z</time>
      </trkpt>
      <trkpt lat="42.5633" lon="2.0544">
        <ele>2032</ele>
        <time>2020-07-25T07:17:16.108Z</time>
      </trkpt>
      <trkpt lat="42.56332" lon="2.05437">
        <ele>2032</ele>
        <time>2020-07-25T07:17:17.108Z</time>
      </trkpt>
      <trkpt lat="42.56333" lon="2.05435">
        <ele>2033</ele>
        <time>2020-07-25T07:17:18.108Z</time>
      </trkpt>
      <trkpt lat="42.56334" lon="2.05432">
        <ele>2035</ele>
        <time>2020-07-25T07:17:19.108Z</time>
      </trkpt>
      <trkpt lat="42.56335" lon="2.05429">
        <ele>2035</ele>
        <time>2020-07-25T07:17:20.108Z</time>
      </trkpt>
      <trkpt lat="42.56335" lon="2.05426">
        <ele>2036</ele>
        <time>2020-07-25T07:17:21.108Z</time>
      </trkpt>
      <trkpt lat="42.56337" lon="2.05424">
        <ele>2037</ele>
        <time>2020-07-25T07:17:22.108Z</time>
      </trkpt>
      <trkpt lat="42.56338" lon="2.05421">
        <ele>2036</ele>
        <time>2020-07-25T07:17:23.108Z</time>
      </trkpt>
      <trkpt lat="42.56339" lon="2.05418">
        <ele>2036</ele>
        <time>2020-07-25T07:17:24.108Z</time>
      </trkpt>
      <trkpt lat="42.5634" lon="2.05415">
        <ele>2037</ele>
        <time>2020-07-25T07:17:25.108Z</time>
      </trkpt>
      <trkpt lat="42.56341" lon="2.05412">
        <ele>2039</ele>
        <time>2020-07-25T07:17:26.108Z</time>
      </trkpt>
      <trkpt lat="42.56343" lon="2.0541">
        <ele>2038</ele>
        <time>2020-07-25T07:17:27.108Z</time>
      </trkpt>
      <trkpt lat="42.56344" lon="2.05407">
        <ele>2039</ele>
        <time>2020-07-25T07:17:28.108Z</time>
      </trkpt>
      <trkpt lat="42.56346" lon="2.05404">
        <ele>2039</ele>
        <time>2020-07-25T07:17:29.108Z</time>
      </trkpt>
      <trkpt lat="42.56347" lon="2.05401">
        <ele>2038</ele>
        <time>2020-07-25T07:17:30.108Z</time>
      </trkpt>
      <trkpt lat="42.56349" lon="2.05399">
        <ele>2038</ele>
        <time>2020-07-25T07:17:31.108Z</time>
      </trkpt>
      <trkpt lat="42.5635" lon="2.05396">
        <ele>2039</ele>
        <time>2020-07-25T07:17:32.108Z</time>
      </trkpt>
      <trkpt lat="42.56351" lon="2.05393">
        <ele>2039</ele>
        <time>2020-07-25T07:17:33.108Z</time>
      </trkpt>
      <trkpt lat="42.56352" lon="2.05389">
        <ele>2039</ele>
        <time>2020-07-25T07:17:34.108Z</time>
      </trkpt>
      <trkpt lat="42.56353" lon="2.05386">
        <ele>2039</ele>
        <time>2020-07-25T07:17:35.108Z</time>
      </trkpt>
      <trkpt lat="42.56355" lon="2.05383">
        <ele>2040</ele>
        <time>2020-07-25T07:17:36.108Z</time>
      </trkpt>
      <trkpt lat="42.56356" lon="2.05381">
        <ele>2039</ele>
        <time>2020-07-25T07:17:37.108Z</time>
      </trkpt>
      <trkpt lat="42.56358" lon="2.05378">
        <ele>2039</ele>
        <time>2020-07-25T07:17:38.108Z</time>
      </trkpt>
      <trkpt lat="42.56359" lon="2.05375">
        <ele>2040</ele>
        <time>2020-07-25T07:17:39.108Z</time>
      </trkpt>
      <trkpt lat="42.5636" lon="2.05372">
        <ele>2040</ele>
        <time>2020-07-25T07:17:40.108Z</time>
      </trkpt>
      <trkpt lat="42.56361" lon="2.05369">
        <ele>2041</ele>
        <time>2020-07-25T07:17:41.108Z</time>
      </trkpt>
      <trkpt lat="42.56361" lon="2.05365">
        <ele>2040</ele>
        <time>2020-07-25T07:17:42.108Z</time>
      </trkpt>
      <trkpt lat="42.56362" lon="2.05361">
        <ele>2041</ele>
        <time>2020-07-25T07:17:43.108Z</time>
      </trkpt>
      <trkpt lat="42.56362" lon="2.05358">
        <ele>2041</ele>
        <time>2020-07-25T07:17:44.108Z</time>
      </trkpt>
      <trkpt lat="42.56362" lon="2.05354">
        <ele>2040</ele>
        <time>2020-07-25T07:17:45.108Z</time>
      </trkpt>
      <trkpt lat="42.56363" lon="2.05351">
        <ele>2040</ele>
        <time>2020-07-25T07:17:46.108Z</time>
      </trkpt>
      <trkpt lat="42.56364" lon="2.05348">
        <ele>2041</ele>
        <time>2020-07-25T07:17:47.108Z</time>
      </trkpt>
      <trkpt lat="42.56364" lon="2.05344">
        <ele>2041</ele>
        <time>2020-07-25T07:17:48.108Z</time>
      </trkpt>
      <trkpt lat="42.56365" lon="2.05341">
        <ele>2041</ele>
        <time>2020-07-25T07:17:49.108Z</time>
      </trkpt>
      <trkpt lat="42.56366" lon="2.05337">
        <ele>2042</ele>
        <time>2020-07-25T07:17:50.108Z</time>
      </trkpt>
      <trkpt lat="42.56366" lon="2.05334">
        <ele>2042</ele>
        <time>2020-07-25T07:17:51.108Z</time>
      </trkpt>
      <trkpt lat="42.56367" lon="2.05331">
        <ele>2042</ele>
        <time>2020-07-25T07:17:52.108Z</time>
      </trkpt>
      <trkpt lat="42.56368" lon="2.05328">
        <ele>2042</ele>
        <time>2020-07-25T07:17:53.108Z</time>
      </trkpt>
      <trkpt lat="42.56369" lon="2.05325">
        <ele>2042</ele>
        <time>2020-07-25T07:17:54.108Z</time>
      </trkpt>
      <trkpt lat="42.5637" lon="2.05322">
        <ele>2041</ele>
        <time>2020-07-25T07:17:55.108Z</time>
      </trkpt>
      <trkpt lat="42.5637" lon="2.05319">
        <ele>2041</ele>
        <time>2020-07-25T07:17:56.108Z</time>
      </trkpt>
      <trkpt lat="42.56371" lon="2.05315">
        <ele>2043</ele>
        <time>2020-07-25T07:17:57.108Z</time>
      </trkpt>
      <trkpt lat="42.56372" lon="2.05311">
        <ele>2042</ele>
        <time>2020-07-25T07:17:58.108Z</time>
      </trkpt>
      <trkpt lat="42.56372" lon="2.05308">
        <ele>2043</ele>
        <time>2020-07-25T07:17:59.108Z</time>
      </trkpt>
      <trkpt lat="42.56373" lon="2.05304">
        <ele>2043</ele>
        <time>2020-07-25T07:18:00.108Z</time>
      </trkpt>
      <trkpt lat="42.56373" lon="2.05301">
        <ele>2043</ele>
        <time>2020-07-25T07:18:01.108Z</time>
      </trkpt>
      <trkpt lat="42.56374" lon="2.05298">
        <ele>2044</ele>
        <time>2020-07-25T07:18:02.108Z</time>
      </trkpt>
      <trkpt lat="42.56374" lon="2.05295">
        <ele>2044</ele>
        <time>2020-07-25T07:18:03.108Z</time>
      </trkpt>
      <trkpt lat="42.56375" lon="2.05292">
        <ele>2044</ele>
        <time>2020-07-25T07:18:04.108Z</time>
      </trkpt>
      <trkpt lat="42.56375" lon="2.05289">
        <ele>2045</ele>
        <time>2020-07-25T07:18:05.108Z</time>
      </trkpt>
      <trkpt lat="42.56376" lon="2.05286">
        <ele>2045</ele>
        <time>2020-07-25T07:18:06.108Z</time>
      </trkpt>
      <trkpt lat="42.56377" lon="2.05282">
        <ele>2046</ele>
        <time>2020-07-25T07:18:07.108Z</time>
      </trkpt>
      <trkpt lat="42.56378" lon="2.05279">
        <ele>2046</ele>
        <time>2020-07-25T07:18:08.108Z</time>
      </trkpt>
      <trkpt lat="42.56379" lon="2.05276">
        <ele>2047</ele>
        <time>2020-07-25T07:18:09.108Z</time>
      </trkpt>
      <trkpt lat="42.5638" lon="2.05273">
        <ele>2046</ele>
        <time>2020-07-25T07:18:10.108Z</time>
      </trkpt>
      <trkpt lat="42.56381" lon="2.0527">
        <ele>2046</ele>
        <time>2020-07-25T07:18:11.108Z</time>
      </trkpt>
      <trkpt lat="42.56383" lon="2.05267">
        <ele>2046</ele>
        <time>2020-07-25T07:18:12.108Z</time>
      </trkpt>
      <trkpt lat="42.56384" lon="2.05265">
        <ele>2046</ele>
        <time>2020-07-25T07:18:13.108Z</time>
      </trkpt>
      <trkpt lat="42.56386" lon="2.05262">
        <ele>2045</ele>
        <time>2020-07-25T07:18:14.108Z</time>
      </trkpt>
      <trkpt lat="42.56387" lon="2.05259">
        <ele>2046</ele>
        <time>2020-07-25T07:18:15.108Z</time>
      </trkpt>
      <trkpt lat="42.56388" lon="2.05255">
        <ele>2046</ele>
        <time>2020-07-25T07:18:16.108Z</time>
      </trkpt>
      <trkpt lat="42.5639" lon="2.05252">
        <ele>2047</ele>
        <time>2020-07-25T07:18:17.108Z</time>
      </trkpt>
      <trkpt lat="42.56391" lon="2.05249">
        <ele>2047</ele>
        <time>2020-07-25T07:18:18.108Z</time>
      </trkpt>
      <trkpt lat="42.56392" lon="2.05246">
        <ele>2047</ele>
        <time>2020-07-25T07:18:19.108Z</time>
      </trkpt>
      <trkpt lat="42.56394" lon="2.05244">
        <ele>2047</ele>
        <time>2020-07-25T07:18:20.108Z</time>
      </trkpt>
      <trkpt lat="42.56395" lon="2.05241">
        <ele>2048</ele>
        <time>2020-07-25T07:18:21.108Z</time>
      </trkpt>
      <trkpt lat="42.56397" lon="2.05238">
        <ele>2048</ele>
        <time>2020-07-25T07:18:22.108Z</time>
      </trkpt>
      <trkpt lat="42.56398" lon="2.05236">
        <ele>2048</ele>
        <time>2020-07-25T07:18:23.108Z</time>
      </trkpt>
      <trkpt lat="42.564" lon="2.05233">
        <ele>2048</ele>
        <time>2020-07-25T07:18:24.108Z</time>
      </trkpt>
      <trkpt lat="42.56401" lon="2.0523">
        <ele>2048</ele>
        <time>2020-07-25T07:18:25.108Z</time>
      </trkpt>
      <trkpt lat="42.56403" lon="2.05227">
        <ele>2049</ele>
        <time>2020-07-25T07:18:26.108Z</time>
      </trkpt>
      <trkpt lat="42.56404" lon="2.05224">
        <ele>2049</ele>
        <time>2020-07-25T07:18:27.108Z</time>
      </trkpt>
      <trkpt lat="42.56406" lon="2.05221">
        <ele>2049</ele>
        <time>2020-07-25T07:18:28.108Z</time>
      </trkpt>
      <trkpt lat="42.56407" lon="2.05219">
        <ele>2049</ele>
        <time>2020-07-25T07:18:29.108Z</time>
      </trkpt>
      <trkpt lat="42.56409" lon="2.05216">
        <ele>2049</ele>
        <time>2020-07-25T07:18:30.108Z</time>
      </trkpt>
      <trkpt lat="42.56411" lon="2.05214">
        <ele>2049</ele>
        <time>2020-07-25T07:18:31.108Z</time>
      </trkpt>
      <trkpt lat="42.56413" lon="2.05211">
        <ele>2049</ele>
        <time>2020-07-25T07:18:32.108Z</time>
      </trkpt>
      <trkpt lat="42.56415" lon="2.05209">
        <ele>2049</ele>
        <time>2020-07-25T07:18:33.108Z</time>
      </trkpt>
      <trkpt lat="42.56416" lon="2.05207">
        <ele>2049</ele>
        <time>2020-07-25T07:18:34.108Z</time>
      </trkpt>
      <trkpt lat="42.56418" lon="2.05205">
        <ele>2049</ele>
        <time>2020-07-25T07:18:35.108Z</time>
      </trkpt>
      <trkpt lat="42.56421" lon="2.05203">
        <ele>2050</ele>
        <time>2020-07-25T07:18:36.108Z</time>
      </trkpt>
      <trkpt lat="42.56423" lon="2.05201">
        <ele>2050</ele>
        <time>2020-07-25T07:18:37.108Z</time>
      </trkpt>
      <trkpt lat="42.56426" lon="2.05199">
        <ele>2050</ele>
        <time>2020-07-25T07:18:38.108Z</time>
      </trkpt>
      <trkpt lat="42.56428" lon="2.05197">
        <ele>2050</ele>
        <time>2020-07-25T07:18:39.108Z</time>
      </trkpt>
      <trkpt lat="42.5643" lon="2.05195">
        <ele>2051</ele>
        <time>2020-07-25T07:18:40.108Z</time>
      </trkpt>
      <trkpt lat="42.56433" lon="2.05193">
        <ele>2051</ele>
        <time>2020-07-25T07:18:41.108Z</time>
      </trkpt>
      <trkpt lat="42.56435" lon="2.05191">
        <ele>2052</ele>
        <time>2020-07-25T07:18:42.108Z</time>
      </trkpt>
      <trkpt lat="42.56437" lon="2.05189">
        <ele>2052</ele>
        <time>2020-07-25T07:18:43.108Z</time>
      </trkpt>
      <trkpt lat="42.56439" lon="2.05186">
        <ele>2053</ele>
        <time>2020-07-25T07:18:44.108Z</time>
      </trkpt>
      <trkpt lat="42.56441" lon="2.05184">
        <ele>2053</ele>
        <time>2020-07-25T07:18:45.108Z</time>
      </trkpt>
      <trkpt lat="42.56443" lon="2.05183">
        <ele>2053</ele>
        <time>2020-07-25T07:18:46.108Z</time>
      </trkpt>
      <trkpt lat="42.56446" lon="2.05181">
        <ele>2053</ele>
        <time>2020-07-25T07:18:47.108Z</time>
      </trkpt>
      <trkpt lat="42.56448" lon="2.0518">
        <ele>2053</ele>
        <time>2020-07-25T07:18:48.108Z</time>
      </trkpt>
      <trkpt lat="42.5645" lon="2.05178">
        <ele>2053</ele>
        <time>2020-07-25T07:18:49.108Z</time>
      </trkpt>
      <trkpt lat="42.56452" lon="2.05176">
        <ele>2053</ele>
        <time>2020-07-25T07:18:50.108Z</time>
      </trkpt>
      <trkpt lat="42.56454" lon="2.05175">
        <ele>2053</ele>
        <time>2020-07-25T07:18:51.108Z</time>
      </trkpt>
      <trkpt lat="42.56457" lon="2.05173">
        <ele>2054</ele>
        <time>2020-07-25T07:18:52.108Z</time>
      </trkpt>
      <trkpt lat="42.56459" lon="2.05172">
        <ele>2054</ele>
        <time>2020-07-25T07:18:53.108Z</time>
      </trkpt>
      <trkpt lat="42.56462" lon="2.05171">
        <ele>2055</ele>
        <time>2020-07-25T07:18:54.108Z</time>
      </trkpt>
      <trkpt lat="42.56464" lon="2.0517">
        <ele>2055</ele>
        <time>2020-07-25T07:18:55.108Z</time>
      </trkpt>
      <trkpt lat="42.56467" lon="2.05169">
        <ele>2056</ele>
        <time>2020-07-25T07:18:56.108Z</time>
      </trkpt>
      <trkpt lat="42.56469" lon="2.05168">
        <ele>2057</ele>
        <time>2020-07-25T07:18:57.108Z</time>
      </trkpt>
      <trkpt lat="42.56472" lon="2.05166">
        <ele>2057</ele>
        <time>2020-07-25T07:18:58.108Z</time>
      </trkpt>
      <trkpt lat="42.56474" lon="2.05165">
        <ele>2058</ele>
        <time>2020-07-25T07:18:59.108Z</time>
      </trkpt>
      <trkpt lat="42.56477" lon="2.05164">
        <ele>2057</ele>
        <time>2020-07-25T07:19:00.108Z</time>
      </trkpt>
      <trkpt lat="42.56479" lon="2.05163">
        <ele>2057</ele>
        <time>2020-07-25T07:19:01.108Z</time>
      </trkpt>
      <trkpt lat="42.56481" lon="2.05162">
        <ele>2057</ele>
        <time>2020-07-25T07:19:02.108Z</time>
      </trkpt>
      <trkpt lat="42.56484" lon="2.0516">
        <ele>2057</ele>
        <time>2020-07-25T07:19:03.108Z</time>
      </trkpt>
      <trkpt lat="42.56486" lon="2.05159">
        <ele>2057</ele>
        <time>2020-07-25T07:19:04.108Z</time>
      </trkpt>
      <trkpt lat="42.56488" lon="2.05158">
        <ele>2056</ele>
        <time>2020-07-25T07:19:05.108Z</time>
      </trkpt>
      <trkpt lat="42.56491" lon="2.05156">
        <ele>2057</ele>
        <time>2020-07-25T07:19:06.108Z</time>
      </trkpt>
      <trkpt lat="42.56493" lon="2.05154">
        <ele>2057</ele>
        <time>2020-07-25T07:19:07.108Z</time>
      </trkpt>
      <trkpt lat="42.56495" lon="2.05153">
        <ele>2057</ele>
        <time>2020-07-25T07:19:08.108Z</time>
      </trkpt>
      <trkpt lat="42.56497" lon="2.05151">
        <ele>2058</ele>
        <time>2020-07-25T07:19:09.108Z</time>
      </trkpt>
      <trkpt lat="42.56499" lon="2.05149">
        <ele>2058</ele>
        <time>2020-07-25T07:19:10.108Z</time>
      </trkpt>
      <trkpt lat="42.56501" lon="2.05148">
        <ele>2058</ele>
        <time>2020-07-25T07:19:11.108Z</time>
      </trkpt>
      <trkpt lat="42.56503" lon="2.05146">
        <ele>2058</ele>
        <time>2020-07-25T07:19:12.108Z</time>
      </trkpt>
      <trkpt lat="42.56505" lon="2.05145">
        <ele>2058</ele>
        <time>2020-07-25T07:19:13.108Z</time>
      </trkpt>
      <trkpt lat="42.56508" lon="2.05143">
        <ele>2058</ele>
        <time>2020-07-25T07:19:14.108Z</time>
      </trkpt>
      <trkpt lat="42.5651" lon="2.05142">
        <ele>2058</ele>
        <time>2020-07-25T07:19:15.108Z</time>
      </trkpt>
      <trkpt lat="42.56512" lon="2.0514">
        <ele>2058</ele>
        <time>2020-07-25T07:19:16.108Z</time>
      </trkpt>
      <trkpt lat="42.56514" lon="2.05138">
        <ele>2058</ele>
        <time>2020-07-25T07:19:17.108Z</time>
      </trkpt>
      <trkpt lat="42.56515" lon="2.05136">
        <ele>2058</ele>
        <time>2020-07-25T07:19:18.108Z</time>
      </trkpt>
      <trkpt lat="42.56517" lon="2.05134">
        <ele>2059</ele>
        <time>2020-07-25T07:19:19.108Z</time>
      </trkpt>
      <trkpt lat="42.56519" lon="2.05132">
        <ele>2059</ele>
        <time>2020-07-25T07:19:20.108Z</time>
      </trkpt>
      <trkpt lat="42.56521" lon="2.0513">
        <ele>2059</ele>
        <time>2020-07-25T07:19:21.108Z</time>
      </trkpt>
      <trkpt lat="42.56523" lon="2.05128">
        <ele>2059</ele>
        <time>2020-07-25T07:19:22.108Z</time>
      </trkpt>
      <trkpt lat="42.56525" lon="2.05126">
        <ele>2060</ele>
        <time>2020-07-25T07:19:23.108Z</time>
      </trkpt>
      <trkpt lat="42.56526" lon="2.05123">
        <ele>2060</ele>
        <time>2020-07-25T07:19:24.108Z</time>
      </trkpt>
      <trkpt lat="42.56528" lon="2.05121">
        <ele>2061</ele>
        <time>2020-07-25T07:19:25.108Z</time>
      </trkpt>
      <trkpt lat="42.56529" lon="2.05118">
        <ele>2060</ele>
        <time>2020-07-25T07:19:26.108Z</time>
      </trkpt>
      <trkpt lat="42.56531" lon="2.05116">
        <ele>2060</ele>
        <time>2020-07-25T07:19:27.108Z</time>
      </trkpt>
      <trkpt lat="42.56533" lon="2.05113">
        <ele>2061</ele>
        <time>2020-07-25T07:19:28.108Z</time>
      </trkpt>
      <trkpt lat="42.56534" lon="2.0511">
        <ele>2062</ele>
        <time>2020-07-25T07:19:29.108Z</time>
      </trkpt>
      <trkpt lat="42.56536" lon="2.05107">
        <ele>2062</ele>
        <time>2020-07-25T07:19:30.108Z</time>
      </trkpt>
      <trkpt lat="42.56538" lon="2.05104">
        <ele>2063</ele>
        <time>2020-07-25T07:19:31.108Z</time>
      </trkpt>
      <trkpt lat="42.56539" lon="2.05101">
        <ele>2064</ele>
        <time>2020-07-25T07:19:32.108Z</time>
      </trkpt>
      <trkpt lat="42.5654" lon="2.05098">
        <ele>2064</ele>
        <time>2020-07-25T07:19:33.108Z</time>
      </trkpt>
      <trkpt lat="42.56542" lon="2.05095">
        <ele>2065</ele>
        <time>2020-07-25T07:19:34.108Z</time>
      </trkpt>
      <trkpt lat="42.56543" lon="2.05092">
        <ele>2065</ele>
        <time>2020-07-25T07:19:35.108Z</time>
      </trkpt>
      <trkpt lat="42.56545" lon="2.05089">
        <ele>2065</ele>
        <time>2020-07-25T07:19:36.108Z</time>
      </trkpt>
      <trkpt lat="42.56546" lon="2.05087">
        <ele>2066</ele>
        <time>2020-07-25T07:19:37.108Z</time>
      </trkpt>
      <trkpt lat="42.56548" lon="2.05085">
        <ele>2067</ele>
        <time>2020-07-25T07:19:38.108Z</time>
      </trkpt>
      <trkpt lat="42.5655" lon="2.05082">
        <ele>2067</ele>
        <time>2020-07-25T07:19:39.108Z</time>
      </trkpt>
      <trkpt lat="42.56551" lon="2.0508">
        <ele>2067</ele>
        <time>2020-07-25T07:19:40.108Z</time>
      </trkpt>
      <trkpt lat="42.56553" lon="2.05077">
        <ele>2067</ele>
        <time>2020-07-25T07:19:41.108Z</time>
      </trkpt>
      <trkpt lat="42.56555" lon="2.05075">
        <ele>2067</ele>
        <time>2020-07-25T07:19:42.108Z</time>
      </trkpt>
      <trkpt lat="42.56556" lon="2.05072">
        <ele>2067</ele>
        <time>2020-07-25T07:19:43.108Z</time>
      </trkpt>
      <trkpt lat="42.56558" lon="2.05069">
        <ele>2068</ele>
        <time>2020-07-25T07:19:44.108Z</time>
      </trkpt>
      <trkpt lat="42.56559" lon="2.05066">
        <ele>2068</ele>
        <time>2020-07-25T07:19:45.108Z</time>
      </trkpt>
      <trkpt lat="42.5656" lon="2.05063">
        <ele>2068</ele>
        <time>2020-07-25T07:19:46.108Z</time>
      </trkpt>
      <trkpt lat="42.56561" lon="2.0506">
        <ele>2069</ele>
        <time>2020-07-25T07:19:47.108Z</time>
      </trkpt>
      <trkpt lat="42.56562" lon="2.05057">
        <ele>2068</ele>
        <time>2020-07-25T07:19:48.108Z</time>
      </trkpt>
      <trkpt lat="42.56563" lon="2.05054">
        <ele>2069</ele>
        <time>2020-07-25T07:19:49.108Z</time>
      </trkpt>
      <trkpt lat="42.56564" lon="2.05051">
        <ele>2069</ele>
        <time>2020-07-25T07:19:50.108Z</time>
      </trkpt>
      <trkpt lat="42.56565" lon="2.05049">
        <ele>2069</ele>
        <time>2020-07-25T07:19:51.108Z</time>
      </trkpt>
      <trkpt lat="42.56567" lon="2.05046">
        <ele>2068</ele>
        <time>2020-07-25T07:19:52.108Z</time>
      </trkpt>
      <trkpt lat="42.56568" lon="2.05044">
        <ele>2069</ele>
        <time>2020-07-25T07:19:53.108Z</time>
      </trkpt>
      <trkpt lat="42.5657" lon="2.05041">
        <ele>2070</ele>
        <time>2020-07-25T07:19:54.108Z</time>
      </trkpt>
      <trkpt lat="42.56571" lon="2.05039">
        <ele>2071</ele>
        <time>2020-07-25T07:19:55.108Z</time>
      </trkpt>
      <trkpt lat="42.56573" lon="2.05037">
        <ele>2071</ele>
        <time>2020-07-25T07:19:56.108Z</time>
      </trkpt>
      <trkpt lat="42.56574" lon="2.05035">
        <ele>2071</ele>
        <time>2020-07-25T07:19:57.108Z</time>
      </trkpt>
      <trkpt lat="42.56576" lon="2.05033">
        <ele>2071</ele>
        <time>2020-07-25T07:19:58.108Z</time>
      </trkpt>
      <trkpt lat="42.56577" lon="2.05031">
        <ele>2071</ele>
        <time>2020-07-25T07:19:59.108Z</time>
      </trkpt>
      <trkpt lat="42.56579" lon="2.05028">
        <ele>2072</ele>
        <time>2020-07-25T07:20:00.108Z</time>
      </trkpt>
      <trkpt lat="42.5658" lon="2.05026">
        <ele>2072</ele>
        <time>2020-07-25T07:20:01.108Z</time>
      </trkpt>
      <trkpt lat="42.56581" lon="2.05024">
        <ele>2073</ele>
        <time>2020-07-25T07:20:02.108Z</time>
      </trkpt>
      <trkpt lat="42.56583" lon="2.05021">
        <ele>2073</ele>
        <time>2020-07-25T07:20:03.108Z</time>
      </trkpt>
      <trkpt lat="42.56584" lon="2.05019">
        <ele>2073</ele>
        <time>2020-07-25T07:20:04.108Z</time>
      </trkpt>
      <trkpt lat="42.56585" lon="2.05017">
        <ele>2074</ele>
        <time>2020-07-25T07:20:05.108Z</time>
      </trkpt>
      <trkpt lat="42.56587" lon="2.05015">
        <ele>2075</ele>
        <time>2020-07-25T07:20:06.108Z</time>
      </trkpt>
      <trkpt lat="42.56588" lon="2.05013">
        <ele>2075</ele>
        <time>2020-07-25T07:20:07.108Z</time>
      </trkpt>
      <trkpt lat="42.56589" lon="2.05011">
        <ele>2076</ele>
        <time>2020-07-25T07:20:08.108Z</time>
      </trkpt>
      <trkpt lat="42.5659" lon="2.05008">
        <ele>2077</ele>
        <time>2020-07-25T07:20:09.108Z</time>
      </trkpt>
      <trkpt lat="42.56592" lon="2.05006">
        <ele>2077</ele>
        <time>2020-07-25T07:20:10.108Z</time>
      </trkpt>
      <trkpt lat="42.56593" lon="2.05004">
        <ele>2078</ele>
        <time>2020-07-25T07:20:11.108Z</time>
      </trkpt>
      <trkpt lat="42.56595" lon="2.05002">
        <ele>2078</ele>
        <time>2020-07-25T07:20:12.108Z</time>
      </trkpt>
      <trkpt lat="42.56597" lon="2.05">
        <ele>2078</ele>
        <time>2020-07-25T07:20:13.108Z</time>
      </trkpt>
      <trkpt lat="42.56599" lon="2.04998">
        <ele>2079</ele>
        <time>2020-07-25T07:20:14.108Z</time>
      </trkpt>
      <trkpt lat="42.566" lon="2.04996">
        <ele>2080</ele>
        <time>2020-07-25T07:20:15.108Z</time>
      </trkpt>
      <trkpt lat="42.56602" lon="2.04995">
        <ele>2080</ele>
        <time>2020-07-25T07:20:16.108Z</time>
      </trkpt>
      <trkpt lat="42.56604" lon="2.04993">
        <ele>2080</ele>
        <time>2020-07-25T07:20:17.108Z</time>
      </trkpt>
      <trkpt lat="42.56606" lon="2.04992">
        <ele>2081</ele>
        <time>2020-07-25T07:20:18.108Z</time>
      </trkpt>
      <trkpt lat="42.56608" lon="2.04991">
        <ele>2082</ele>
        <time>2020-07-25T07:20:19.108Z</time>
      </trkpt>
      <trkpt lat="42.56609" lon="2.0499">
        <ele>2082</ele>
        <time>2020-07-25T07:20:20.108Z</time>
      </trkpt>
      <trkpt lat="42.56611" lon="2.04989">
        <ele>2082</ele>
        <time>2020-07-25T07:20:21.108Z</time>
      </trkpt>
      <trkpt lat="42.56613" lon="2.04989">
        <ele>2082</ele>
        <time>2020-07-25T07:20:22.108Z</time>
      </trkpt>
      <trkpt lat="42.5662" lon="2.04983">
        <ele>2070</ele>
        <time>2020-07-25T07:20:23.014Z</time>
      </trkpt>
      <trkpt lat="42.5662" lon="2.04983">
        <ele>2070</ele>
        <time>2020-07-25T07:20:24.014Z</time>
      </trkpt>
      <trkpt lat="42.5662" lon="2.04982">
        <ele>2069</ele>
        <time>2020-07-25T07:20:25.014Z</time>
      </trkpt>
      <trkpt lat="42.56621" lon="2.04982">
        <ele>2069</ele>
        <time>2020-07-25T07:20:26.014Z</time>
      </trkpt>
      <trkpt lat="42.56622" lon="2.0498">
        <ele>2069</ele>
        <time>2020-07-25T07:20:27.014Z</time>
      </trkpt>
      <trkpt lat="42.56623" lon="2.04978">
        <ele>2068</ele>
        <time>2020-07-25T07:20:28.014Z</time>
      </trkpt>
      <trkpt lat="42.56624" lon="2.04975">
        <ele>2069</ele>
        <time>2020-07-25T07:20:29.014Z</time>
      </trkpt>
      <trkpt lat="42.56625" lon="2.04973">
        <ele>2069</ele>
        <time>2020-07-25T07:20:30.014Z</time>
      </trkpt>
      <trkpt lat="42.56627" lon="2.0497">
        <ele>2069</ele>
        <time>2020-07-25T07:20:31.014Z</time>
      </trkpt>
      <trkpt lat="42.56628" lon="2.04967">
        <ele>2069</ele>
        <time>2020-07-25T07:20:32.014Z</time>
      </trkpt>
      <trkpt lat="42.56629" lon="2.04964">
        <ele>2070</ele>
        <time>2020-07-25T07:20:33.014Z</time>
      </trkpt>
      <trkpt lat="42.56629" lon="2.0496">
        <ele>2070</ele>
        <time>2020-07-25T07:20:34.014Z</time>
      </trkpt>
      <trkpt lat="42.5663" lon="2.04957">
        <ele>2070</ele>
        <time>2020-07-25T07:20:35.014Z</time>
      </trkpt>
      <trkpt lat="42.56631" lon="2.04954">
        <ele>2071</ele>
        <time>2020-07-25T07:20:36.014Z</time>
      </trkpt>
      <trkpt lat="42.56633" lon="2.04952">
        <ele>2071</ele>
        <time>2020-07-25T07:20:37.014Z</time>
      </trkpt>
      <trkpt lat="42.56635" lon="2.0495">
        <ele>2073</ele>
        <time>2020-07-25T07:20:38.014Z</time>
      </trkpt>
      <trkpt lat="42.56637" lon="2.04948">
        <ele>2073</ele>
        <time>2020-07-25T07:20:39.014Z</time>
      </trkpt>
      <trkpt lat="42.56639" lon="2.04947">
        <ele>2073</ele>
        <time>2020-07-25T07:20:40.014Z</time>
      </trkpt>
      <trkpt lat="42.56641" lon="2.04947">
        <ele>2073</ele>
        <time>2020-07-25T07:20:41.014Z</time>
      </trkpt>
      <trkpt lat="42.56644" lon="2.04947">
        <ele>2074</ele>
        <time>2020-07-25T07:20:42.014Z</time>
      </trkpt>
      <trkpt lat="42.56646" lon="2.04947">
        <ele>2075</ele>
        <time>2020-07-25T07:20:43.014Z</time>
      </trkpt>
      <trkpt lat="42.56648" lon="2.04947">
        <ele>2076</ele>
        <time>2020-07-25T07:20:44.014Z</time>
      </trkpt>
      <trkpt lat="42.56651" lon="2.04947">
        <ele>2077</ele>
        <time>2020-07-25T07:20:45.014Z</time>
      </trkpt>
      <trkpt lat="42.56653" lon="2.04947">
        <ele>2077</ele>
        <time>2020-07-25T07:20:46.014Z</time>
      </trkpt>
      <trkpt lat="42.56656" lon="2.04947">
        <ele>2077</ele>
        <time>2020-07-25T07:20:47.014Z</time>
      </trkpt>
      <trkpt lat="42.56659" lon="2.04946">
        <ele>2077</ele>
        <time>2020-07-25T07:20:48.014Z</time>
      </trkpt>
      <trkpt lat="42.56661" lon="2.04946">
        <ele>2077</ele>
        <time>2020-07-25T07:20:49.014Z</time>
      </trkpt>
      <trkpt lat="42.56663" lon="2.04945">
        <ele>2078</ele>
        <time>2020-07-25T07:20:50.014Z</time>
      </trkpt>
      <trkpt lat="42.56665" lon="2.04944">
        <ele>2078</ele>
        <time>2020-07-25T07:20:51.014Z</time>
      </trkpt>
      <trkpt lat="42.56668" lon="2.04942">
        <ele>2079</ele>
        <time>2020-07-25T07:20:52.014Z</time>
      </trkpt>
      <trkpt lat="42.5667" lon="2.04941">
        <ele>2079</ele>
        <time>2020-07-25T07:20:53.014Z</time>
      </trkpt>
      <trkpt lat="42.56672" lon="2.04939">
        <ele>2079</ele>
        <time>2020-07-25T07:20:54.014Z</time>
      </trkpt>
      <trkpt lat="42.56674" lon="2.04938">
        <ele>2079</ele>
        <time>2020-07-25T07:20:55.014Z</time>
      </trkpt>
      <trkpt lat="42.56676" lon="2.04937">
        <ele>2079</ele>
        <time>2020-07-25T07:20:56.014Z</time>
      </trkpt>
      <trkpt lat="42.56678" lon="2.04936">
        <ele>2079</ele>
        <time>2020-07-25T07:20:57.014Z</time>
      </trkpt>
      <trkpt lat="42.5668" lon="2.04935">
        <ele>2080</ele>
        <time>2020-07-25T07:20:58.014Z</time>
      </trkpt>
      <trkpt lat="42.56682" lon="2.04934">
        <ele>2079</ele>
        <time>2020-07-25T07:20:59.014Z</time>
      </trkpt>
      <trkpt lat="42.56685" lon="2.04935">
        <ele>2080</ele>
        <time>2020-07-25T07:21:00.014Z</time>
      </trkpt>
      <trkpt lat="42.56687" lon="2.04935">
        <ele>2081</ele>
        <time>2020-07-25T07:21:01.014Z</time>
      </trkpt>
      <trkpt lat="42.56689" lon="2.04936">
        <ele>2083</ele>
        <time>2020-07-25T07:21:02.014Z</time>
      </trkpt>
      <trkpt lat="42.56691" lon="2.04936">
        <ele>2084</ele>
        <time>2020-07-25T07:21:03.014Z</time>
      </trkpt>
      <trkpt lat="42.56693" lon="2.04937">
        <ele>2085</ele>
        <time>2020-07-25T07:21:04.014Z</time>
      </trkpt>
      <trkpt lat="42.56695" lon="2.04938">
        <ele>2085</ele>
        <time>2020-07-25T07:21:05.014Z</time>
      </trkpt>
      <trkpt lat="42.56697" lon="2.0494">
        <ele>2087</ele>
        <time>2020-07-25T07:21:06.014Z</time>
      </trkpt>
      <trkpt lat="42.56699" lon="2.04941">
        <ele>2087</ele>
        <time>2020-07-25T07:21:07.014Z</time>
      </trkpt>
      <trkpt lat="42.56701" lon="2.04942">
        <ele>2088</ele>
        <time>2020-07-25T07:21:08.014Z</time>
      </trkpt>
      <trkpt lat="42.56704" lon="2.04943">
        <ele>2090</ele>
        <time>2020-07-25T07:21:09.014Z</time>
      </trkpt>
      <trkpt lat="42.56706" lon="2.04943">
        <ele>2091</ele>
        <time>2020-07-25T07:21:10.014Z</time>
      </trkpt>
      <trkpt lat="42.56708" lon="2.04943">
        <ele>2092</ele>
        <time>2020-07-25T07:21:11.014Z</time>
      </trkpt>
      <trkpt lat="42.56711" lon="2.04943">
        <ele>2092</ele>
        <time>2020-07-25T07:21:12.014Z</time>
      </trkpt>
      <trkpt lat="42.56713" lon="2.04943">
        <ele>2091</ele>
        <time>2020-07-25T07:21:13.014Z</time>
      </trkpt>
      <trkpt lat="42.56715" lon="2.04943">
        <ele>2091</ele>
        <time>2020-07-25T07:21:14.014Z</time>
      </trkpt>
      <trkpt lat="42.56717" lon="2.04943">
        <ele>2090</ele>
        <time>2020-07-25T07:21:15.014Z</time>
      </trkpt>
      <trkpt lat="42.56719" lon="2.04943">
        <ele>2090</ele>
        <time>2020-07-25T07:21:16.014Z</time>
      </trkpt>
      <trkpt lat="42.56722" lon="2.04943">
        <ele>2091</ele>
        <time>2020-07-25T07:21:17.014Z</time>
      </trkpt>
      <trkpt lat="42.56724" lon="2.04943">
        <ele>2091</ele>
        <time>2020-07-25T07:21:18.014Z</time>
      </trkpt>
      <trkpt lat="42.56727" lon="2.04943">
        <ele>2092</ele>
        <time>2020-07-25T07:21:19.014Z</time>
      </trkpt>
      <trkpt lat="42.56729" lon="2.04943">
        <ele>2092</ele>
        <time>2020-07-25T07:21:20.014Z</time>
      </trkpt>
      <trkpt lat="42.56732" lon="2.04943">
        <ele>2093</ele>
        <time>2020-07-25T07:21:21.014Z</time>
      </trkpt>
      <trkpt lat="42.56734" lon="2.04943">
        <ele>2094</ele>
        <time>2020-07-25T07:21:22.014Z</time>
      </trkpt>
      <trkpt lat="42.56736" lon="2.04943">
        <ele>2095</ele>
        <time>2020-07-25T07:21:23.014Z</time>
      </trkpt>
      <trkpt lat="42.56738" lon="2.04943">
        <ele>2095</ele>
        <time>2020-07-25T07:21:24.014Z</time>
      </trkpt>
      <trkpt lat="42.5674" lon="2.04944">
        <ele>2096</ele>
        <time>2020-07-25T07:21:25.014Z</time>
      </trkpt>
      <trkpt lat="42.56741" lon="2.04944">
        <ele>2097</ele>
        <time>2020-07-25T07:21:26.014Z</time>
      </trkpt>
      <trkpt lat="42.56743" lon="2.04945">
        <ele>2098</ele>
        <time>2020-07-25T07:21:27.014Z</time>
      </trkpt>
      <trkpt lat="42.56745" lon="2.04946">
        <ele>2097</ele>
        <time>2020-07-25T07:21:28.014Z</time>
      </trkpt>
      <trkpt lat="42.56748" lon="2.04948">
        <ele>2097</ele>
        <time>2020-07-25T07:21:29.014Z</time>
      </trkpt>
      <trkpt lat="42.56751" lon="2.04949">
        <ele>2095</ele>
        <time>2020-07-25T07:21:30.014Z</time>
      </trkpt>
      <trkpt lat="42.56753" lon="2.04951">
        <ele>2095</ele>
        <time>2020-07-25T07:21:31.014Z</time>
      </trkpt>
      <trkpt lat="42.56755" lon="2.04953">
        <ele>2095</ele>
        <time>2020-07-25T07:21:32.014Z</time>
      </trkpt>
      <trkpt lat="42.56757" lon="2.04955">
        <ele>2095</ele>
        <time>2020-07-25T07:21:33.014Z</time>
      </trkpt>
      <trkpt lat="42.56759" lon="2.04956">
        <ele>2096</ele>
        <time>2020-07-25T07:21:34.014Z</time>
      </trkpt>
      <trkpt lat="42.56761" lon="2.04957">
        <ele>2096</ele>
        <time>2020-07-25T07:21:35.014Z</time>
      </trkpt>
      <trkpt lat="42.56764" lon="2.04957">
        <ele>2096</ele>
        <time>2020-07-25T07:21:36.014Z</time>
      </trkpt>
      <trkpt lat="42.56766" lon="2.04956">
        <ele>2096</ele>
        <time>2020-07-25T07:21:37.014Z</time>
      </trkpt>
      <trkpt lat="42.56769" lon="2.04956">
        <ele>2097</ele>
        <time>2020-07-25T07:21:38.014Z</time>
      </trkpt>
      <trkpt lat="42.56772" lon="2.04955">
        <ele>2097</ele>
        <time>2020-07-25T07:21:39.014Z</time>
      </trkpt>
      <trkpt lat="42.56774" lon="2.04954">
        <ele>2097</ele>
        <time>2020-07-25T07:21:40.014Z</time>
      </trkpt>
      <trkpt lat="42.56776" lon="2.04954">
        <ele>2098</ele>
        <time>2020-07-25T07:21:41.014Z</time>
      </trkpt>
      <trkpt lat="42.56779" lon="2.04954">
        <ele>2098</ele>
        <time>2020-07-25T07:21:42.014Z</time>
      </trkpt>
      <trkpt lat="42.56781" lon="2.04955">
        <ele>2099</ele>
        <time>2020-07-25T07:21:43.014Z</time>
      </trkpt>
      <trkpt lat="42.56784" lon="2.04956">
        <ele>2096</ele>
        <time>2020-07-25T07:21:44.014Z</time>
      </trkpt>
      <trkpt lat="42.56786" lon="2.04957">
        <ele>2097</ele>
        <time>2020-07-25T07:21:45.014Z</time>
      </trkpt>
      <trkpt lat="42.56788" lon="2.0496">
        <ele>2097</ele>
        <time>2020-07-25T07:21:46.014Z</time>
      </trkpt>
      <trkpt lat="42.5679" lon="2.04962">
        <ele>2098</ele>
        <time>2020-07-25T07:21:47.014Z</time>
      </trkpt>
      <trkpt lat="42.56793" lon="2.04964">
        <ele>2098</ele>
        <time>2020-07-25T07:21:48.014Z</time>
      </trkpt>
      <trkpt lat="42.56795" lon="2.04966">
        <ele>2098</ele>
        <time>2020-07-25T07:21:49.014Z</time>
      </trkpt>
      <trkpt lat="42.56797" lon="2.04969">
        <ele>2099</ele>
        <time>2020-07-25T07:21:50.014Z</time>
      </trkpt>
      <trkpt lat="42.56799" lon="2.04971">
        <ele>2098</ele>
        <time>2020-07-25T07:21:51.014Z</time>
      </trkpt>
      <trkpt lat="42.56801" lon="2.04973">
        <ele>2098</ele>
        <time>2020-07-25T07:21:52.014Z</time>
      </trkpt>
      <trkpt lat="42.56803" lon="2.04976">
        <ele>2098</ele>
        <time>2020-07-25T07:21:53.014Z</time>
      </trkpt>
      <trkpt lat="42.56805" lon="2.04978">
        <ele>2098</ele>
        <time>2020-07-25T07:21:54.014Z</time>
      </trkpt>
      <trkpt lat="42.56807" lon="2.0498">
        <ele>2099</ele>
        <time>2020-07-25T07:21:55.014Z</time>
      </trkpt>
      <trkpt lat="42.56809" lon="2.04983">
        <ele>2099</ele>
        <time>2020-07-25T07:21:56.014Z</time>
      </trkpt>
      <trkpt lat="42.56811" lon="2.04985">
        <ele>2100</ele>
        <time>2020-07-25T07:21:57.014Z</time>
      </trkpt>
      <trkpt lat="42.56813" lon="2.04988">
        <ele>2100</ele>
        <time>2020-07-25T07:21:58.014Z</time>
      </trkpt>
      <trkpt lat="42.56814" lon="2.04991">
        <ele>2099</ele>
        <time>2020-07-25T07:21:59.014Z</time>
      </trkpt>
      <trkpt lat="42.56816" lon="2.04994">
        <ele>2099</ele>
        <time>2020-07-25T07:22:00.014Z</time>
      </trkpt>
      <trkpt lat="42.56818" lon="2.04997">
        <ele>2099</ele>
        <time>2020-07-25T07:22:01.014Z</time>
      </trkpt>
      <trkpt lat="42.5682" lon="2.05">
        <ele>2100</ele>
        <time>2020-07-25T07:22:02.014Z</time>
      </trkpt>
      <trkpt lat="42.56822" lon="2.05004">
        <ele>2100</ele>
        <time>2020-07-25T07:22:03.014Z</time>
      </trkpt>
      <trkpt lat="42.56823" lon="2.05007">
        <ele>2100</ele>
        <time>2020-07-25T07:22:04.014Z</time>
      </trkpt>
      <trkpt lat="42.56825" lon="2.0501">
        <ele>2100</ele>
        <time>2020-07-25T07:22:05.014Z</time>
      </trkpt>
      <trkpt lat="42.56827" lon="2.05013">
        <ele>2099</ele>
        <time>2020-07-25T07:22:06.014Z</time>
      </trkpt>
      <trkpt lat="42.56829" lon="2.05016">
        <ele>2098</ele>
        <time>2020-07-25T07:22:07.014Z</time>
      </trkpt>
      <trkpt lat="42.5683" lon="2.0502">
        <ele>2098</ele>
        <time>2020-07-25T07:22:08.014Z</time>
      </trkpt>
      <trkpt lat="42.56832" lon="2.05022">
        <ele>2098</ele>
        <time>2020-07-25T07:22:09.014Z</time>
      </trkpt>
      <trkpt lat="42.56834" lon="2.05025">
        <ele>2098</ele>
        <time>2020-07-25T07:22:10.014Z</time>
      </trkpt>
      <trkpt lat="42.56836" lon="2.05029">
        <ele>2098</ele>
        <time>2020-07-25T07:22:11.014Z</time>
      </trkpt>
      <trkpt lat="42.56838" lon="2.05032">
        <ele>2098</ele>
        <time>2020-07-25T07:22:12.014Z</time>
      </trkpt>
      <trkpt lat="42.5684" lon="2.05035">
        <ele>2098</ele>
        <time>2020-07-25T07:22:13.014Z</time>
      </trkpt>
      <trkpt lat="42.56841" lon="2.05038">
        <ele>2098</ele>
        <time>2020-07-25T07:22:14.014Z</time>
      </trkpt>
      <trkpt lat="42.56843" lon="2.05041">
        <ele>2098</ele>
        <time>2020-07-25T07:22:15.014Z</time>
      </trkpt>
      <trkpt lat="42.56845" lon="2.05044">
        <ele>2098</ele>
        <time>2020-07-25T07:22:16.014Z</time>
      </trkpt>
      <trkpt lat="42.56847" lon="2.05047">
        <ele>2098</ele>
        <time>2020-07-25T07:22:17.014Z</time>
      </trkpt>
      <trkpt lat="42.56849" lon="2.0505">
        <ele>2098</ele>
        <time>2020-07-25T07:22:18.014Z</time>
      </trkpt>
      <trkpt lat="42.56851" lon="2.05052">
        <ele>2098</ele>
        <time>2020-07-25T07:22:19.014Z</time>
      </trkpt>
      <trkpt lat="42.56852" lon="2.05055">
        <ele>2099</ele>
        <time>2020-07-25T07:22:20.014Z</time>
      </trkpt>
      <trkpt lat="42.56854" lon="2.05057">
        <ele>2099</ele>
        <time>2020-07-25T07:22:21.014Z</time>
      </trkpt>
      <trkpt lat="42.56856" lon="2.0506">
        <ele>2099</ele>
        <time>2020-07-25T07:22:22.014Z</time>
      </trkpt>
      <trkpt lat="42.56858" lon="2.05062">
        <ele>2099</ele>
        <time>2020-07-25T07:22:23.014Z</time>
      </trkpt>
      <trkpt lat="42.5686" lon="2.05065">
        <ele>2099</ele>
        <time>2020-07-25T07:22:24.014Z</time>
      </trkpt>
      <trkpt lat="42.56862" lon="2.05067">
        <ele>2098</ele>
        <time>2020-07-25T07:22:25.014Z</time>
      </trkpt>
      <trkpt lat="42.56864" lon="2.0507">
        <ele>2098</ele>
        <time>2020-07-25T07:22:26.014Z</time>
      </trkpt>
      <trkpt lat="42.56866" lon="2.05073">
        <ele>2099</ele>
        <time>2020-07-25T07:22:27.014Z</time>
      </trkpt>
      <trkpt lat="42.56868" lon="2.05075">
        <ele>2098</ele>
        <time>2020-07-25T07:22:28.014Z</time>
      </trkpt>
      <trkpt lat="42.5687" lon="2.05078">
        <ele>2098</ele>
        <time>2020-07-25T07:22:29.014Z</time>
      </trkpt>
      <trkpt lat="42.56873" lon="2.05081">
        <ele>2099</ele>
        <time>2020-07-25T07:22:30.014Z</time>
      </trkpt>
      <trkpt lat="42.56875" lon="2.05083">
        <ele>2099</ele>
        <time>2020-07-25T07:22:31.014Z</time>
      </trkpt>
      <trkpt lat="42.56877" lon="2.05086">
        <ele>2099</ele>
        <time>2020-07-25T07:22:32.014Z</time>
      </trkpt>
      <trkpt lat="42.5688" lon="2.05089">
        <ele>2100</ele>
        <time>2020-07-25T07:22:33.014Z</time>
      </trkpt>
      <trkpt lat="42.56882" lon="2.05091">
        <ele>2099</ele>
        <time>2020-07-25T07:22:34.014Z</time>
      </trkpt>
      <trkpt lat="42.56884" lon="2.05093">
        <ele>2099</ele>
        <time>2020-07-25T07:22:35.014Z</time>
      </trkpt>
      <trkpt lat="42.56886" lon="2.05096">
        <ele>2099</ele>
        <time>2020-07-25T07:22:36.014Z</time>
      </trkpt>
      <trkpt lat="42.56888" lon="2.05098">
        <ele>2100</ele>
        <time>2020-07-25T07:22:37.014Z</time>
      </trkpt>
      <trkpt lat="42.56891" lon="2.05101">
        <ele>2100</ele>
        <time>2020-07-25T07:22:38.014Z</time>
      </trkpt>
      <trkpt lat="42.56893" lon="2.05103">
        <ele>2101</ele>
        <time>2020-07-25T07:22:39.014Z</time>
      </trkpt>
      <trkpt lat="42.56895" lon="2.05105">
        <ele>2101</ele>
        <time>2020-07-25T07:22:40.014Z</time>
      </trkpt>
      <trkpt lat="42.56897" lon="2.05108">
        <ele>2102</ele>
        <time>2020-07-25T07:22:41.014Z</time>
      </trkpt>
      <trkpt lat="42.56898" lon="2.0511">
        <ele>2102</ele>
        <time>2020-07-25T07:22:42.014Z</time>
      </trkpt>
      <trkpt lat="42.569" lon="2.05113">
        <ele>2102</ele>
        <time>2020-07-25T07:22:43.014Z</time>
      </trkpt>
      <trkpt lat="42.56902" lon="2.05116">
        <ele>2103</ele>
        <time>2020-07-25T07:22:44.014Z</time>
      </trkpt>
      <trkpt lat="42.56905" lon="2.05118">
        <ele>2102</ele>
        <time>2020-07-25T07:22:45.014Z</time>
      </trkpt>
      <trkpt lat="42.56907" lon="2.05121">
        <ele>2103</ele>
        <time>2020-07-25T07:22:46.014Z</time>
      </trkpt>
      <trkpt lat="42.56909" lon="2.05123">
        <ele>2103</ele>
        <time>2020-07-25T07:22:47.014Z</time>
      </trkpt>
      <trkpt lat="42.56911" lon="2.05126">
        <ele>2103</ele>
        <time>2020-07-25T07:22:48.014Z</time>
      </trkpt>
      <trkpt lat="42.56914" lon="2.05128">
        <ele>2103</ele>
        <time>2020-07-25T07:22:49.014Z</time>
      </trkpt>
      <trkpt lat="42.56915" lon="2.05131">
        <ele>2103</ele>
        <time>2020-07-25T07:22:50.014Z</time>
      </trkpt>
      <trkpt lat="42.56917" lon="2.05134">
        <ele>2103</ele>
        <time>2020-07-25T07:22:51.014Z</time>
      </trkpt>
      <trkpt lat="42.56919" lon="2.05137">
        <ele>2103</ele>
        <time>2020-07-25T07:22:52.014Z</time>
      </trkpt>
      <trkpt lat="42.56921" lon="2.05139">
        <ele>2103</ele>
        <time>2020-07-25T07:22:53.014Z</time>
      </trkpt>
      <trkpt lat="42.56923" lon="2.05142">
        <ele>2103</ele>
        <time>2020-07-25T07:22:54.014Z</time>
      </trkpt>
      <trkpt lat="42.56925" lon="2.05145">
        <ele>2103</ele>
        <time>2020-07-25T07:22:55.014Z</time>
      </trkpt>
      <trkpt lat="42.56927" lon="2.05147">
        <ele>2103</ele>
        <time>2020-07-25T07:22:56.014Z</time>
      </trkpt>
      <trkpt lat="42.56929" lon="2.0515">
        <ele>2104</ele>
        <time>2020-07-25T07:22:57.014Z</time>
      </trkpt>
      <trkpt lat="42.56931" lon="2.05153">
        <ele>2104</ele>
        <time>2020-07-25T07:22:58.014Z</time>
      </trkpt>
      <trkpt lat="42.56932" lon="2.05156">
        <ele>2104</ele>
        <time>2020-07-25T07:22:59.014Z</time>
      </trkpt>
      <trkpt lat="42.56934" lon="2.05158">
        <ele>2104</ele>
        <time>2020-07-25T07:23:00.014Z</time>
      </trkpt>
      <trkpt lat="42.56936" lon="2.0516">
        <ele>2104</ele>
        <time>2020-07-25T07:23:01.014Z</time>
      </trkpt>
      <trkpt lat="42.56938" lon="2.05163">
        <ele>2104</ele>
        <time>2020-07-25T07:23:02.014Z</time>
      </trkpt>
      <trkpt lat="42.5694" lon="2.05165">
        <ele>2104</ele>
        <time>2020-07-25T07:23:03.014Z</time>
      </trkpt>
      <trkpt lat="42.56941" lon="2.05167">
        <ele>2105</ele>
        <time>2020-07-25T07:23:04.014Z</time>
      </trkpt>
      <trkpt lat="42.56943" lon="2.05169">
        <ele>2105</ele>
        <time>2020-07-25T07:23:05.014Z</time>
      </trkpt>
      <trkpt lat="42.56945" lon="2.05171">
        <ele>2105</ele>
        <time>2020-07-25T07:23:06.014Z</time>
      </trkpt>
      <trkpt lat="42.56947" lon="2.05173">
        <ele>2105</ele>
        <time>2020-07-25T07:23:07.014Z</time>
      </trkpt>
      <trkpt lat="42.56949" lon="2.05174">
        <ele>2105</ele>
        <time>2020-07-25T07:23:08.014Z</time>
      </trkpt>
      <trkpt lat="42.56951" lon="2.05175">
        <ele>2106</ele>
        <time>2020-07-25T07:23:09.014Z</time>
      </trkpt>
      <trkpt lat="42.56953" lon="2.05176">
        <ele>2106</ele>
        <time>2020-07-25T07:23:10.014Z</time>
      </trkpt>
      <trkpt lat="42.56955" lon="2.05177">
        <ele>2107</ele>
        <time>2020-07-25T07:23:11.014Z</time>
      </trkpt>
      <trkpt lat="42.56958" lon="2.05178">
        <ele>2107</ele>
        <time>2020-07-25T07:23:12.014Z</time>
      </trkpt>
      <trkpt lat="42.5696" lon="2.05179">
        <ele>2108</ele>
        <time>2020-07-25T07:23:13.014Z</time>
      </trkpt>
      <trkpt lat="42.56962" lon="2.05179">
        <ele>2108</ele>
        <time>2020-07-25T07:23:14.014Z</time>
      </trkpt>
      <trkpt lat="42.56965" lon="2.0518">
        <ele>2109</ele>
        <time>2020-07-25T07:23:15.014Z</time>
      </trkpt>
      <trkpt lat="42.56967" lon="2.0518">
        <ele>2109</ele>
        <time>2020-07-25T07:23:16.014Z</time>
      </trkpt>
      <trkpt lat="42.56969" lon="2.05181">
        <ele>2109</ele>
        <time>2020-07-25T07:23:17.014Z</time>
      </trkpt>
      <trkpt lat="42.56971" lon="2.05181">
        <ele>2110</ele>
        <time>2020-07-25T07:23:18.014Z</time>
      </trkpt>
      <trkpt lat="42.56974" lon="2.05182">
        <ele>2110</ele>
        <time>2020-07-25T07:23:19.014Z</time>
      </trkpt>
      <trkpt lat="42.56976" lon="2.05182">
        <ele>2110</ele>
        <time>2020-07-25T07:23:20.014Z</time>
      </trkpt>
      <trkpt lat="42.56979" lon="2.05183">
        <ele>2111</ele>
        <time>2020-07-25T07:23:21.014Z</time>
      </trkpt>
      <trkpt lat="42.56982" lon="2.05183">
        <ele>2111</ele>
        <time>2020-07-25T07:23:22.014Z</time>
      </trkpt>
      <trkpt lat="42.56984" lon="2.05183">
        <ele>2112</ele>
        <time>2020-07-25T07:23:23.014Z</time>
      </trkpt>
      <trkpt lat="42.56986" lon="2.05183">
        <ele>2112</ele>
        <time>2020-07-25T07:23:24.014Z</time>
      </trkpt>
      <trkpt lat="42.56988" lon="2.05183">
        <ele>2113</ele>
        <time>2020-07-25T07:23:25.014Z</time>
      </trkpt>
      <trkpt lat="42.5699" lon="2.05184">
        <ele>2113</ele>
        <time>2020-07-25T07:23:26.014Z</time>
      </trkpt>
      <trkpt lat="42.56992" lon="2.05184">
        <ele>2114</ele>
        <time>2020-07-25T07:23:27.014Z</time>
      </trkpt>
      <trkpt lat="42.56995" lon="2.05184">
        <ele>2114</ele>
        <time>2020-07-25T07:23:28.014Z</time>
      </trkpt>
      <trkpt lat="42.56997" lon="2.05185">
        <ele>2115</ele>
        <time>2020-07-25T07:23:29.014Z</time>
      </trkpt>
      <trkpt lat="42.56999" lon="2.05185">
        <ele>2116</ele>
        <time>2020-07-25T07:23:30.014Z</time>
      </trkpt>
      <trkpt lat="42.57002" lon="2.05185">
        <ele>2117</ele>
        <time>2020-07-25T07:23:31.014Z</time>
      </trkpt>
      <trkpt lat="42.57004" lon="2.05185">
        <ele>2118</ele>
        <time>2020-07-25T07:23:32.014Z</time>
      </trkpt>
      <trkpt lat="42.57006" lon="2.05185">
        <ele>2118</ele>
        <time>2020-07-25T07:23:33.014Z</time>
      </trkpt>
      <trkpt lat="42.57009" lon="2.05186">
        <ele>2119</ele>
        <time>2020-07-25T07:23:34.014Z</time>
      </trkpt>
      <trkpt lat="42.57011" lon="2.05186">
        <ele>2119</ele>
        <time>2020-07-25T07:23:35.014Z</time>
      </trkpt>
      <trkpt lat="42.57013" lon="2.05187">
        <ele>2119</ele>
        <time>2020-07-25T07:23:36.014Z</time>
      </trkpt>
      <trkpt lat="42.57016" lon="2.05189">
        <ele>2120</ele>
        <time>2020-07-25T07:23:37.014Z</time>
      </trkpt>
      <trkpt lat="42.57018" lon="2.05191">
        <ele>2120</ele>
        <time>2020-07-25T07:23:38.014Z</time>
      </trkpt>
      <trkpt lat="42.5702" lon="2.05193">
        <ele>2121</ele>
        <time>2020-07-25T07:23:39.014Z</time>
      </trkpt>
      <trkpt lat="42.57022" lon="2.05195">
        <ele>2121</ele>
        <time>2020-07-25T07:23:40.014Z</time>
      </trkpt>
      <trkpt lat="42.57024" lon="2.05197">
        <ele>2122</ele>
        <time>2020-07-25T07:23:41.014Z</time>
      </trkpt>
      <trkpt lat="42.57026" lon="2.052">
        <ele>2121</ele>
        <time>2020-07-25T07:23:42.014Z</time>
      </trkpt>
      <trkpt lat="42.57028" lon="2.05203">
        <ele>2120</ele>
        <time>2020-07-25T07:23:43.014Z</time>
      </trkpt>
      <trkpt lat="42.57031" lon="2.05205">
        <ele>2120</ele>
        <time>2020-07-25T07:23:44.014Z</time>
      </trkpt>
      <trkpt lat="42.57033" lon="2.05207">
        <ele>2120</ele>
        <time>2020-07-25T07:23:45.014Z</time>
      </trkpt>
      <trkpt lat="42.57035" lon="2.05209">
        <ele>2120</ele>
        <time>2020-07-25T07:23:46.014Z</time>
      </trkpt>
      <trkpt lat="42.57023" lon="2.05268">
        <ele>2126</ele>
        <time>2020-07-25T07:23:47.061Z</time>
      </trkpt>
      <trkpt lat="42.57023" lon="2.05267">
        <ele>2126</ele>
        <time>2020-07-25T07:23:48.061Z</time>
      </trkpt>
      <trkpt lat="42.57023" lon="2.05267">
        <ele>2126</ele>
        <time>2020-07-25T07:23:49.061Z</time>
      </trkpt>
      <trkpt lat="42.57024" lon="2.05265">
        <ele>2125</ele>
        <time>2020-07-25T07:23:50.061Z</time>
      </trkpt>
      <trkpt lat="42.57024" lon="2.05263">
        <ele>2125</ele>
        <time>2020-07-25T07:23:51.061Z</time>
      </trkpt>
      <trkpt lat="42.57025" lon="2.0526">
        <ele>2125</ele>
        <time>2020-07-25T07:23:52.061Z</time>
      </trkpt>
      <trkpt lat="42.57025" lon="2.05257">
        <ele>2124</ele>
        <time>2020-07-25T07:23:53.061Z</time>
      </trkpt>
      <trkpt lat="42.57026" lon="2.05253">
        <ele>2124</ele>
        <time>2020-07-25T07:23:54.061Z</time>
      </trkpt>
      <trkpt lat="42.57026" lon="2.05249">
        <ele>2124</ele>
        <time>2020-07-25T07:23:55.061Z</time>
      </trkpt>
      <trkpt lat="42.57027" lon="2.05246">
        <ele>2123</ele>
        <time>2020-07-25T07:23:56.061Z</time>
      </trkpt>
      <trkpt lat="42.57027" lon="2.05242">
        <ele>2123</ele>
        <time>2020-07-25T07:23:57.061Z</time>
      </trkpt>
      <trkpt lat="42.57028" lon="2.05238">
        <ele>2122</ele>
        <time>2020-07-25T07:23:58.061Z</time>
      </trkpt>
      <trkpt lat="42.57029" lon="2.05235">
        <ele>2122</ele>
        <time>2020-07-25T07:23:59.061Z</time>
      </trkpt>
      <trkpt lat="42.5703" lon="2.05231">
        <ele>2122</ele>
        <time>2020-07-25T07:24:00.061Z</time>
      </trkpt>
      <trkpt lat="42.5703" lon="2.05227">
        <ele>2122</ele>
        <time>2020-07-25T07:24:01.061Z</time>
      </trkpt>
      <trkpt lat="42.5703" lon="2.05223">
        <ele>2122</ele>
        <time>2020-07-25T07:24:02.061Z</time>
      </trkpt>
      <trkpt lat="42.5703" lon="2.05219">
        <ele>2122</ele>
        <time>2020-07-25T07:24:03.061Z</time>
      </trkpt>
      <trkpt lat="42.5703" lon="2.05215">
        <ele>2122</ele>
        <time>2020-07-25T07:24:04.061Z</time>
      </trkpt>
      <trkpt lat="42.5703" lon="2.05212">
        <ele>2122</ele>
        <time>2020-07-25T07:24:05.061Z</time>
      </trkpt>
      <trkpt lat="42.57031" lon="2.05208">
        <ele>2122</ele>
        <time>2020-07-25T07:24:06.061Z</time>
      </trkpt>
      <trkpt lat="42.57032" lon="2.05204">
        <ele>2122</ele>
        <time>2020-07-25T07:24:07.061Z</time>
      </trkpt>
      <trkpt lat="42.57032" lon="2.05201">
        <ele>2122</ele>
        <time>2020-07-25T07:24:08.061Z</time>
      </trkpt>
      <trkpt lat="42.57032" lon="2.05197">
        <ele>2122</ele>
        <time>2020-07-25T07:24:09.061Z</time>
      </trkpt>
      <trkpt lat="42.57033" lon="2.05193">
        <ele>2122</ele>
        <time>2020-07-25T07:24:10.061Z</time>
      </trkpt>
      <trkpt lat="42.57033" lon="2.05189">
        <ele>2123</ele>
        <time>2020-07-25T07:24:11.061Z</time>
      </trkpt>
      <trkpt lat="42.57033" lon="2.05186">
        <ele>2122</ele>
        <time>2020-07-25T07:24:12.061Z</time>
      </trkpt>
      <trkpt lat="42.57034" lon="2.05182">
        <ele>2123</ele>
        <time>2020-07-25T07:24:13.061Z</time>
      </trkpt>
      <trkpt lat="42.57034" lon="2.05178">
        <ele>2123</ele>
        <time>2020-07-25T07:24:14.061Z</time>
      </trkpt>
      <trkpt lat="42.57034" lon="2.05175">
        <ele>2124</ele>
        <time>2020-07-25T07:24:15.061Z</time>
      </trkpt>
      <trkpt lat="42.57034" lon="2.05171">
        <ele>2124</ele>
        <time>2020-07-25T07:24:16.061Z</time>
      </trkpt>
      <trkpt lat="42.57034" lon="2.05167">
        <ele>2124</ele>
        <time>2020-07-25T07:24:17.061Z</time>
      </trkpt>
      <trkpt lat="42.57033" lon="2.05163">
        <ele>2124</ele>
        <time>2020-07-25T07:24:18.061Z</time>
      </trkpt>
      <trkpt lat="42.57032" lon="2.05159">
        <ele>2124</ele>
        <time>2020-07-25T07:24:19.061Z</time>
      </trkpt>
      <trkpt lat="42.57031" lon="2.05155">
        <ele>2124</ele>
        <time>2020-07-25T07:24:20.061Z</time>
      </trkpt>
      <trkpt lat="42.57031" lon="2.05151">
        <ele>2124</ele>
        <time>2020-07-25T07:24:21.061Z</time>
      </trkpt>
      <trkpt lat="42.5703" lon="2.05147">
        <ele>2123</ele>
        <time>2020-07-25T07:24:22.061Z</time>
      </trkpt>
      <trkpt lat="42.57029" lon="2.05143">
        <ele>2123</ele>
        <time>2020-07-25T07:24:23.061Z</time>
      </trkpt>
      <trkpt lat="42.57028" lon="2.05139">
        <ele>2123</ele>
        <time>2020-07-25T07:24:24.061Z</time>
      </trkpt>
      <trkpt lat="42.57027" lon="2.05135">
        <ele>2123</ele>
        <time>2020-07-25T07:24:25.061Z</time>
      </trkpt>
      <trkpt lat="42.57026" lon="2.05132">
        <ele>2122</ele>
        <time>2020-07-25T07:24:26.061Z</time>
      </trkpt>
      <trkpt lat="42.57025" lon="2.05128">
        <ele>2121</ele>
        <time>2020-07-25T07:24:27.061Z</time>
      </trkpt>
      <trkpt lat="42.57024" lon="2.05124">
        <ele>2121</ele>
        <time>2020-07-25T07:24:28.061Z</time>
      </trkpt>
      <trkpt lat="42.57023" lon="2.05121">
        <ele>2121</ele>
        <time>2020-07-25T07:24:29.061Z</time>
      </trkpt>
      <trkpt lat="42.57022" lon="2.05117">
        <ele>2121</ele>
        <time>2020-07-25T07:24:30.061Z</time>
      </trkpt>
      <trkpt lat="42.57021" lon="2.05114">
        <ele>2121</ele>
        <time>2020-07-25T07:24:31.061Z</time>
      </trkpt>
      <trkpt lat="42.5702" lon="2.0511">
        <ele>2121</ele>
        <time>2020-07-25T07:24:32.061Z</time>
      </trkpt>
      <trkpt lat="42.57019" lon="2.05107">
        <ele>2121</ele>
        <time>2020-07-25T07:24:33.061Z</time>
      </trkpt>
      <trkpt lat="42.57018" lon="2.05104">
        <ele>2121</ele>
        <time>2020-07-25T07:24:34.061Z</time>
      </trkpt>
      <trkpt lat="42.57017" lon="2.05101">
        <ele>2121</ele>
        <time>2020-07-25T07:24:35.061Z</time>
      </trkpt>
      <trkpt lat="42.57015" lon="2.05099">
        <ele>2120</ele>
        <time>2020-07-25T07:24:36.061Z</time>
      </trkpt>
      <trkpt lat="42.57014" lon="2.05097">
        <ele>2120</ele>
        <time>2020-07-25T07:24:37.061Z</time>
      </trkpt>
      <trkpt lat="42.57012" lon="2.05094">
        <ele>2121</ele>
        <time>2020-07-25T07:24:38.061Z</time>
      </trkpt>
      <trkpt lat="42.57011" lon="2.05092">
        <ele>2121</ele>
        <time>2020-07-25T07:24:39.061Z</time>
      </trkpt>
      <trkpt lat="42.5701" lon="2.05089">
        <ele>2120</ele>
        <time>2020-07-25T07:24:40.061Z</time>
      </trkpt>
      <trkpt lat="42.57008" lon="2.05087">
        <ele>2121</ele>
        <time>2020-07-25T07:24:41.061Z</time>
      </trkpt>
      <trkpt lat="42.57007" lon="2.05084">
        <ele>2121</ele>
        <time>2020-07-25T07:24:42.061Z</time>
      </trkpt>
      <trkpt lat="42.57006" lon="2.05081">
        <ele>2121</ele>
        <time>2020-07-25T07:24:43.061Z</time>
      </trkpt>
      <trkpt lat="42.57005" lon="2.05078">
        <ele>2122</ele>
        <time>2020-07-25T07:24:44.061Z</time>
      </trkpt>
      <trkpt lat="42.57003" lon="2.05075">
        <ele>2122</ele>
        <time>2020-07-25T07:24:45.061Z</time>
      </trkpt>
      <trkpt lat="42.57002" lon="2.05073">
        <ele>2123</ele>
        <time>2020-07-25T07:24:46.061Z</time>
      </trkpt>
      <trkpt lat="42.57001" lon="2.05069">
        <ele>2121</ele>
        <time>2020-07-25T07:24:47.061Z</time>
      </trkpt>
      <trkpt lat="42.57" lon="2.05066">
        <ele>2120</ele>
        <time>2020-07-25T07:24:48.061Z</time>
      </trkpt>
      <trkpt lat="42.56999" lon="2.05063">
        <ele>2120</ele>
        <time>2020-07-25T07:24:49.061Z</time>
      </trkpt>
      <trkpt lat="42.56998" lon="2.0506">
        <ele>2121</ele>
        <time>2020-07-25T07:24:50.061Z</time>
      </trkpt>
      <trkpt lat="42.56997" lon="2.05056">
        <ele>2120</ele>
        <time>2020-07-25T07:24:51.061Z</time>
      </trkpt>
      <trkpt lat="42.56996" lon="2.05053">
        <ele>2120</ele>
        <time>2020-07-25T07:24:52.061Z</time>
      </trkpt>
      <trkpt lat="42.56996" lon="2.0505">
        <ele>2122</ele>
        <time>2020-07-25T07:24:53.061Z</time>
      </trkpt>
      <trkpt lat="42.56995" lon="2.05047">
        <ele>2122</ele>
        <time>2020-07-25T07:24:54.061Z</time>
      </trkpt>
      <trkpt lat="42.56996" lon="2.05044">
        <ele>2122</ele>
        <time>2020-07-25T07:24:55.061Z</time>
      </trkpt>
      <trkpt lat="42.56996" lon="2.05041">
        <ele>2122</ele>
        <time>2020-07-25T07:24:56.061Z</time>
      </trkpt>
      <trkpt lat="42.56997" lon="2.05039">
        <ele>2122</ele>
        <time>2020-07-25T07:24:57.061Z</time>
      </trkpt>
      <trkpt lat="42.56997" lon="2.05036">
        <ele>2123</ele>
        <time>2020-07-25T07:24:58.061Z</time>
      </trkpt>
      <trkpt lat="42.56997" lon="2.05033">
        <ele>2123</ele>
        <time>2020-07-25T07:24:59.061Z</time>
      </trkpt>
      <trkpt lat="42.56997" lon="2.05031">
        <ele>2124</ele>
        <time>2020-07-25T07:25:00.061Z</time>
      </trkpt>
      <trkpt lat="42.56997" lon="2.05029">
        <ele>2124</ele>
        <time>2020-07-25T07:25:01.061Z</time>
      </trkpt>
      <trkpt lat="42.56997" lon="2.05027">
        <ele>2125</ele>
        <time>2020-07-25T07:25:02.061Z</time>
      </trkpt>
      <trkpt lat="42.56997" lon="2.05024">
        <ele>2125</ele>
        <time>2020-07-25T07:25:03.061Z</time>
      </trkpt>
      <trkpt lat="42.56997" lon="2.05022">
        <ele>2125</ele>
        <time>2020-07-25T07:25:04.061Z</time>
      </trkpt>
      <trkpt lat="42.56998" lon="2.0502">
        <ele>2126</ele>
        <time>2020-07-25T07:25:05.061Z</time>
      </trkpt>
      <trkpt lat="42.56999" lon="2.05017">
        <ele>2125</ele>
        <time>2020-07-25T07:25:06.061Z</time>
      </trkpt>
      <trkpt lat="42.56999" lon="2.05015">
        <ele>2125</ele>
        <time>2020-07-25T07:25:07.061Z</time>
      </trkpt>
      <trkpt lat="42.56999" lon="2.05013">
        <ele>2126</ele>
        <time>2020-07-25T07:25:08.061Z</time>
      </trkpt>
      <trkpt lat="42.57" lon="2.05011">
        <ele>2126</ele>
        <time>2020-07-25T07:25:09.061Z</time>
      </trkpt>
      <trkpt lat="42.57" lon="2.05009">
        <ele>2126</ele>
        <time>2020-07-25T07:25:10.061Z</time>
      </trkpt>
      <trkpt lat="42.57001" lon="2.05006">
        <ele>2127</ele>
        <time>2020-07-25T07:25:11.061Z</time>
      </trkpt>
      <trkpt lat="42.57002" lon="2.05003">
        <ele>2128</ele>
        <time>2020-07-25T07:25:12.061Z</time>
      </trkpt>
      <trkpt lat="42.57002" lon="2.05001">
        <ele>2127</ele>
        <time>2020-07-25T07:25:13.061Z</time>
      </trkpt>
      <trkpt lat="42.57003" lon="2.04999">
        <ele>2128</ele>
        <time>2020-07-25T07:25:14.061Z</time>
      </trkpt>
      <trkpt lat="42.57004" lon="2.04996">
        <ele>2128</ele>
        <time>2020-07-25T07:25:15.061Z</time>
      </trkpt>
      <trkpt lat="42.57004" lon="2.04994">
        <ele>2128</ele>
        <time>2020-07-25T07:25:16.061Z</time>
      </trkpt>
      <trkpt lat="42.57004" lon="2.04991">
        <ele>2128</ele>
        <time>2020-07-25T07:25:17.061Z</time>
      </trkpt>
      <trkpt lat="42.57005" lon="2.04988">
        <ele>2129</ele>
        <time>2020-07-25T07:25:18.061Z</time>
      </trkpt>
      <trkpt lat="42.57006" lon="2.04985">
        <ele>2129</ele>
        <time>2020-07-25T07:25:19.061Z</time>
      </trkpt>
      <trkpt lat="42.57006" lon="2.04983">
        <ele>2129</ele>
        <time>2020-07-25T07:25:20.061Z</time>
      </trkpt>
      <trkpt lat="42.57006" lon="2.0498">
        <ele>2130</ele>
        <time>2020-07-25T07:25:21.061Z</time>
      </trkpt>
      <trkpt lat="42.57006" lon="2.04977">
        <ele>2130</ele>
        <time>2020-07-25T07:25:22.061Z</time>
      </trkpt>
      <trkpt lat="42.57006" lon="2.04975">
        <ele>2131</ele>
        <time>2020-07-25T07:25:23.061Z</time>
      </trkpt>
      <trkpt lat="42.57006" lon="2.04972">
        <ele>2131</ele>
        <time>2020-07-25T07:25:24.061Z</time>
      </trkpt>
      <trkpt lat="42.57006" lon="2.04969">
        <ele>2131</ele>
        <time>2020-07-25T07:25:25.061Z</time>
      </trkpt>
      <trkpt lat="42.57006" lon="2.04967">
        <ele>2130</ele>
        <time>2020-07-25T07:25:26.061Z</time>
      </trkpt>
      <trkpt lat="42.57006" lon="2.04964">
        <ele>2131</ele>
        <time>2020-07-25T07:25:27.061Z</time>
      </trkpt>
      <trkpt lat="42.57007" lon="2.04962">
        <ele>2131</ele>
        <time>2020-07-25T07:25:28.061Z</time>
      </trkpt>
      <trkpt lat="42.57007" lon="2.0496">
        <ele>2131</ele>
        <time>2020-07-25T07:25:29.061Z</time>
      </trkpt>
      <trkpt lat="42.57007" lon="2.04957">
        <ele>2132</ele>
        <time>2020-07-25T07:25:30.061Z</time>
      </trkpt>
      <trkpt lat="42.57008" lon="2.04954">
        <ele>2132</ele>
        <time>2020-07-25T07:25:31.061Z</time>
      </trkpt>
      <trkpt lat="42.57008" lon="2.04952">
        <ele>2133</ele>
        <time>2020-07-25T07:25:32.061Z</time>
      </trkpt>
      <trkpt lat="42.57008" lon="2.04949">
        <ele>2133</ele>
        <time>2020-07-25T07:25:33.061Z</time>
      </trkpt>
      <trkpt lat="42.57008" lon="2.04947">
        <ele>2133</ele>
        <time>2020-07-25T07:25:34.061Z</time>
      </trkpt>
      <trkpt lat="42.57008" lon="2.04944">
        <ele>2134</ele>
        <time>2020-07-25T07:25:35.061Z</time>
      </trkpt>
      <trkpt lat="42.57009" lon="2.04942">
        <ele>2134</ele>
        <time>2020-07-25T07:25:36.061Z</time>
      </trkpt>
      <trkpt lat="42.57009" lon="2.0494">
        <ele>2135</ele>
        <time>2020-07-25T07:25:37.061Z</time>
      </trkpt>
      <trkpt lat="42.5701" lon="2.04937">
        <ele>2136</ele>
        <time>2020-07-25T07:25:38.061Z</time>
      </trkpt>
      <trkpt lat="42.5701" lon="2.04935">
        <ele>2137</ele>
        <time>2020-07-25T07:25:39.061Z</time>
      </trkpt>
      <trkpt lat="42.57011" lon="2.04933">
        <ele>2137</ele>
        <time>2020-07-25T07:25:40.061Z</time>
      </trkpt>
      <trkpt lat="42.57011" lon="2.04931">
        <ele>2137</ele>
        <time>2020-07-25T07:25:41.061Z</time>
      </trkpt>
      <trkpt lat="42.57011" lon="2.0493">
        <ele>2138</ele>
        <time>2020-07-25T07:25:42.061Z</time>
      </trkpt>
      <trkpt lat="42.57011" lon="2.04928">
        <ele>2138</ele>
        <time>2020-07-25T07:25:43.061Z</time>
      </trkpt>
      <trkpt lat="42.57011" lon="2.04927">
        <ele>2140</ele>
        <time>2020-07-25T07:25:44.061Z</time>
      </trkpt>
      <trkpt lat="42.57011" lon="2.04925">
        <ele>2140</ele>
        <time>2020-07-25T07:25:45.061Z</time>
      </trkpt>
      <trkpt lat="42.57011" lon="2.04924">
        <ele>2140</ele>
        <time>2020-07-25T07:25:46.061Z</time>
      </trkpt>
      <trkpt lat="42.57011" lon="2.04922">
        <ele>2141</ele>
        <time>2020-07-25T07:25:47.061Z</time>
      </trkpt>
      <trkpt lat="42.57011" lon="2.0492">
        <ele>2141</ele>
        <time>2020-07-25T07:25:48.061Z</time>
      </trkpt>
      <trkpt lat="42.57011" lon="2.04918">
        <ele>2141</ele>
        <time>2020-07-25T07:25:49.061Z</time>
      </trkpt>
      <trkpt lat="42.57011" lon="2.04916">
        <ele>2142</ele>
        <time>2020-07-25T07:25:50.061Z</time>
      </trkpt>
      <trkpt lat="42.57011" lon="2.04915">
        <ele>2142</ele>
        <time>2020-07-25T07:25:51.061Z</time>
      </trkpt>
      <trkpt lat="42.57011" lon="2.04913">
        <ele>2142</ele>
        <time>2020-07-25T07:25:52.061Z</time>
      </trkpt>
      <trkpt lat="42.57011" lon="2.04912">
        <ele>2142</ele>
        <time>2020-07-25T07:25:53.061Z</time>
      </trkpt>
      <trkpt lat="42.57011" lon="2.0491">
        <ele>2142</ele>
        <time>2020-07-25T07:25:54.061Z</time>
      </trkpt>
      <trkpt lat="42.57011" lon="2.04908">
        <ele>2142</ele>
        <time>2020-07-25T07:25:55.061Z</time>
      </trkpt>
      <trkpt lat="42.57011" lon="2.04907">
        <ele>2143</ele>
        <time>2020-07-25T07:25:56.061Z</time>
      </trkpt>
      <trkpt lat="42.57012" lon="2.04905">
        <ele>2144</ele>
        <time>2020-07-25T07:25:57.061Z</time>
      </trkpt>
      <trkpt lat="42.57012" lon="2.04904">
        <ele>2145</ele>
        <time>2020-07-25T07:25:58.061Z</time>
      </trkpt>
      <trkpt lat="42.57012" lon="2.04902">
        <ele>2145</ele>
        <time>2020-07-25T07:25:59.061Z</time>
      </trkpt>
      <trkpt lat="42.57013" lon="2.049">
        <ele>2145</ele>
        <time>2020-07-25T07:26:00.061Z</time>
      </trkpt>
      <trkpt lat="42.57013" lon="2.04898">
        <ele>2146</ele>
        <time>2020-07-25T07:26:01.061Z</time>
      </trkpt>
      <trkpt lat="42.57013" lon="2.04897">
        <ele>2147</ele>
        <time>2020-07-25T07:26:02.061Z</time>
      </trkpt>
      <trkpt lat="42.57013" lon="2.04895">
        <ele>2147</ele>
        <time>2020-07-25T07:26:03.061Z</time>
      </trkpt>
      <trkpt lat="42.57013" lon="2.04894">
        <ele>2147</ele>
        <time>2020-07-25T07:26:04.061Z</time>
      </trkpt>
      <trkpt lat="42.57013" lon="2.04892">
        <ele>2147</ele>
        <time>2020-07-25T07:26:05.061Z</time>
      </trkpt>
      <trkpt lat="42.57013" lon="2.04891">
        <ele>2148</ele>
        <time>2020-07-25T07:26:06.061Z</time>
      </trkpt>
      <trkpt lat="42.57014" lon="2.04889">
        <ele>2149</ele>
        <time>2020-07-25T07:26:07.061Z</time>
      </trkpt>
      <trkpt lat="42.57014" lon="2.04888">
        <ele>2149</ele>
        <time>2020-07-25T07:26:08.061Z</time>
      </trkpt>
      <trkpt lat="42.57014" lon="2.04886">
        <ele>2149</ele>
        <time>2020-07-25T07:26:09.061Z</time>
      </trkpt>
      <trkpt lat="42.57013" lon="2.04884">
        <ele>2150</ele>
        <time>2020-07-25T07:26:10.061Z</time>
      </trkpt>
      <trkpt lat="42.57012" lon="2.04883">
        <ele>2152</ele>
        <time>2020-07-25T07:26:11.061Z</time>
      </trkpt>
      <trkpt lat="42.57011" lon="2.04882">
        <ele>2153</ele>
        <time>2020-07-25T07:26:12.061Z</time>
      </trkpt>
      <trkpt lat="42.57011" lon="2.04879">
        <ele>2156</ele>
        <time>2020-07-25T07:26:13.061Z</time>
      </trkpt>
      <trkpt lat="42.5701" lon="2.04877">
        <ele>2156</ele>
        <time>2020-07-25T07:26:14.061Z</time>
      </trkpt>
      <trkpt lat="42.5701" lon="2.04874">
        <ele>2157</ele>
        <time>2020-07-25T07:26:15.061Z</time>
      </trkpt>
      <trkpt lat="42.5701" lon="2.04872">
        <ele>2157</ele>
        <time>2020-07-25T07:26:16.061Z</time>
      </trkpt>
      <trkpt lat="42.57009" lon="2.04869">
        <ele>2158</ele>
        <time>2020-07-25T07:26:17.061Z</time>
      </trkpt>
      <trkpt lat="42.57009" lon="2.04867">
        <ele>2159</ele>
        <time>2020-07-25T07:26:18.061Z</time>
      </trkpt>
      <trkpt lat="42.57009" lon="2.04865">
        <ele>2159</ele>
        <time>2020-07-25T07:26:19.061Z</time>
      </trkpt>
      <trkpt lat="42.57009" lon="2.04863">
        <ele>2160</ele>
        <time>2020-07-25T07:26:20.061Z</time>
      </trkpt>
      <trkpt lat="42.57009" lon="2.0486">
        <ele>2161</ele>
        <time>2020-07-25T07:26:21.061Z</time>
      </trkpt>
      <trkpt lat="42.57009" lon="2.04858">
        <ele>2161</ele>
        <time>2020-07-25T07:26:22.061Z</time>
      </trkpt>
      <trkpt lat="42.57009" lon="2.04855">
        <ele>2158</ele>
        <time>2020-07-25T07:26:23.061Z</time>
      </trkpt>
      <trkpt lat="42.57009" lon="2.04852">
        <ele>2157</ele>
        <time>2020-07-25T07:26:24.061Z</time>
      </trkpt>
      <trkpt lat="42.57009" lon="2.0485">
        <ele>2157</ele>
        <time>2020-07-25T07:26:25.061Z</time>
      </trkpt>
      <trkpt lat="42.57009" lon="2.04848">
        <ele>2157</ele>
        <time>2020-07-25T07:26:26.061Z</time>
      </trkpt>
      <trkpt lat="42.57009" lon="2.04846">
        <ele>2156</ele>
        <time>2020-07-25T07:26:27.061Z</time>
      </trkpt>
      <trkpt lat="42.57009" lon="2.04844">
        <ele>2156</ele>
        <time>2020-07-25T07:26:28.061Z</time>
      </trkpt>
      <trkpt lat="42.57009" lon="2.04841">
        <ele>2155</ele>
        <time>2020-07-25T07:26:29.061Z</time>
      </trkpt>
      <trkpt lat="42.5701" lon="2.04839">
        <ele>2155</ele>
        <time>2020-07-25T07:26:30.061Z</time>
      </trkpt>
      <trkpt lat="42.5701" lon="2.04837">
        <ele>2155</ele>
        <time>2020-07-25T07:26:31.061Z</time>
      </trkpt>
      <trkpt lat="42.5701" lon="2.04836">
        <ele>2155</ele>
        <time>2020-07-25T07:26:32.061Z</time>
      </trkpt>
      <trkpt lat="42.57009" lon="2.04835">
        <ele>2155</ele>
        <time>2020-07-25T07:26:33.061Z</time>
      </trkpt>
      <trkpt lat="42.57009" lon="2.04833">
        <ele>2155</ele>
        <time>2020-07-25T07:26:34.061Z</time>
      </trkpt>
      <trkpt lat="42.57009" lon="2.04832">
        <ele>2156</ele>
        <time>2020-07-25T07:26:35.061Z</time>
      </trkpt>
      <trkpt lat="42.57009" lon="2.0483">
        <ele>2156</ele>
        <time>2020-07-25T07:26:36.061Z</time>
      </trkpt>
      <trkpt lat="42.5701" lon="2.04828">
        <ele>2157</ele>
        <time>2020-07-25T07:26:37.061Z</time>
      </trkpt>
      <trkpt lat="42.5701" lon="2.04827">
        <ele>2157</ele>
        <time>2020-07-25T07:26:38.061Z</time>
      </trkpt>
      <trkpt lat="42.5701" lon="2.04825">
        <ele>2157</ele>
        <time>2020-07-25T07:26:39.061Z</time>
      </trkpt>
      <trkpt lat="42.57011" lon="2.04823">
        <ele>2157</ele>
        <time>2020-07-25T07:26:40.061Z</time>
      </trkpt>
      <trkpt lat="42.57011" lon="2.04822">
        <ele>2157</ele>
        <time>2020-07-25T07:26:41.061Z</time>
      </trkpt>
      <trkpt lat="42.57011" lon="2.04821">
        <ele>2156</ele>
        <time>2020-07-25T07:26:42.061Z</time>
      </trkpt>
      <trkpt lat="42.57011" lon="2.04819">
        <ele>2156</ele>
        <time>2020-07-25T07:26:43.061Z</time>
      </trkpt>
      <trkpt lat="42.57011" lon="2.04817">
        <ele>2158</ele>
        <time>2020-07-25T07:26:44.061Z</time>
      </trkpt>
      <trkpt lat="42.5701" lon="2.04815">
        <ele>2158</ele>
        <time>2020-07-25T07:26:45.061Z</time>
      </trkpt>
      <trkpt lat="42.5701" lon="2.04813">
        <ele>2158</ele>
        <time>2020-07-25T07:26:46.061Z</time>
      </trkpt>
      <trkpt lat="42.57009" lon="2.04812">
        <ele>2158</ele>
        <time>2020-07-25T07:26:47.061Z</time>
      </trkpt>
      <trkpt lat="42.57008" lon="2.0481">
        <ele>2158</ele>
        <time>2020-07-25T07:26:48.061Z</time>
      </trkpt>
      <trkpt lat="42.57008" lon="2.04808">
        <ele>2159</ele>
        <time>2020-07-25T07:26:49.061Z</time>
      </trkpt>
      <trkpt lat="42.57007" lon="2.04805">
        <ele>2158</ele>
        <time>2020-07-25T07:26:50.061Z</time>
      </trkpt>
      <trkpt lat="42.57006" lon="2.04802">
        <ele>2159</ele>
        <time>2020-07-25T07:26:51.061Z</time>
      </trkpt>
      <trkpt lat="42.57006" lon="2.04799">
        <ele>2160</ele>
        <time>2020-07-25T07:26:52.061Z</time>
      </trkpt>
      <trkpt lat="42.57005" lon="2.04796">
        <ele>2160</ele>
        <time>2020-07-25T07:26:53.061Z</time>
      </trkpt>
      <trkpt lat="42.57005" lon="2.04794">
        <ele>2161</ele>
        <time>2020-07-25T07:26:54.061Z</time>
      </trkpt>
      <trkpt lat="42.57005" lon="2.04791">
        <ele>2161</ele>
        <time>2020-07-25T07:26:55.061Z</time>
      </trkpt>
      <trkpt lat="42.57004" lon="2.04789">
        <ele>2162</ele>
        <time>2020-07-25T07:26:56.061Z</time>
      </trkpt>
      <trkpt lat="42.57004" lon="2.04786">
        <ele>2162</ele>
        <time>2020-07-25T07:26:57.061Z</time>
      </trkpt>
      <trkpt lat="42.57003" lon="2.04783">
        <ele>2163</ele>
        <time>2020-07-25T07:26:58.061Z</time>
      </trkpt>
      <trkpt lat="42.57002" lon="2.04781">
        <ele>2163</ele>
        <time>2020-07-25T07:26:59.061Z</time>
      </trkpt>
      <trkpt lat="42.57001" lon="2.04778">
        <ele>2163</ele>
        <time>2020-07-25T07:27:00.061Z</time>
      </trkpt>
      <trkpt lat="42.57001" lon="2.04776">
        <ele>2164</ele>
        <time>2020-07-25T07:27:01.061Z</time>
      </trkpt>
      <trkpt lat="42.56999" lon="2.04774">
        <ele>2164</ele>
        <time>2020-07-25T07:27:02.061Z</time>
      </trkpt>
      <trkpt lat="42.56999" lon="2.04772">
        <ele>2163</ele>
        <time>2020-07-25T07:27:03.061Z</time>
      </trkpt>
      <trkpt lat="42.56998" lon="2.04769">
        <ele>2164</ele>
        <time>2020-07-25T07:27:04.061Z</time>
      </trkpt>
      <trkpt lat="42.56997" lon="2.04766">
        <ele>2164</ele>
        <time>2020-07-25T07:27:05.061Z</time>
      </trkpt>
      <trkpt lat="42.56996" lon="2.04764">
        <ele>2165</ele>
        <time>2020-07-25T07:27:06.061Z</time>
      </trkpt>
      <trkpt lat="42.56995" lon="2.04762">
        <ele>2166</ele>
        <time>2020-07-25T07:27:07.061Z</time>
      </trkpt>
      <trkpt lat="42.56994" lon="2.0476">
        <ele>2166</ele>
        <time>2020-07-25T07:27:08.061Z</time>
      </trkpt>
      <trkpt lat="42.56993" lon="2.04758">
        <ele>2167</ele>
        <time>2020-07-25T07:27:09.061Z</time>
      </trkpt>
      <trkpt lat="42.56992" lon="2.04756">
        <ele>2168</ele>
        <time>2020-07-25T07:27:10.061Z</time>
      </trkpt>
      <trkpt lat="42.56991" lon="2.04754">
        <ele>2168</ele>
        <time>2020-07-25T07:27:11.061Z</time>
      </trkpt>
      <trkpt lat="42.5699" lon="2.04751">
        <ele>2168</ele>
        <time>2020-07-25T07:27:12.061Z</time>
      </trkpt>
      <trkpt lat="42.56989" lon="2.04749">
        <ele>2167</ele>
        <time>2020-07-25T07:27:13.061Z</time>
      </trkpt>
      <trkpt lat="42.56988" lon="2.04747">
        <ele>2167</ele>
        <time>2020-07-25T07:27:14.061Z</time>
      </trkpt>
      <trkpt lat="42.56987" lon="2.04744">
        <ele>2168</ele>
        <time>2020-07-25T07:27:15.061Z</time>
      </trkpt>
      <trkpt lat="42.56986" lon="2.04742">
        <ele>2168</ele>
        <time>2020-07-25T07:27:16.061Z</time>
      </trkpt>
      <trkpt lat="42.56984" lon="2.0474">
        <ele>2168</ele>
        <time>2020-07-25T07:27:17.061Z</time>
      </trkpt>
      <trkpt lat="42.56983" lon="2.04737">
        <ele>2169</ele>
        <time>2020-07-25T07:27:18.061Z</time>
      </trkpt>
      <trkpt lat="42.56982" lon="2.04735">
        <ele>2169</ele>
        <time>2020-07-25T07:27:19.061Z</time>
      </trkpt>
      <trkpt lat="42.56981" lon="2.04733">
        <ele>2169</ele>
        <time>2020-07-25T07:27:20.061Z</time>
      </trkpt>
      <trkpt lat="42.5698" lon="2.04731">
        <ele>2170</ele>
        <time>2020-07-25T07:27:21.061Z</time>
      </trkpt>
      <trkpt lat="42.56979" lon="2.04728">
        <ele>2170</ele>
        <time>2020-07-25T07:27:22.061Z</time>
      </trkpt>
      <trkpt lat="42.56978" lon="2.04725">
        <ele>2171</ele>
        <time>2020-07-25T07:27:23.061Z</time>
      </trkpt>
      <trkpt lat="42.56977" lon="2.04723">
        <ele>2172</ele>
        <time>2020-07-25T07:27:24.061Z</time>
      </trkpt>
      <trkpt lat="42.56977" lon="2.04721">
        <ele>2172</ele>
        <time>2020-07-25T07:27:25.061Z</time>
      </trkpt>
      <trkpt lat="42.56976" lon="2.04719">
        <ele>2172</ele>
        <time>2020-07-25T07:27:26.061Z</time>
      </trkpt>
      <trkpt lat="42.56976" lon="2.04718">
        <ele>2173</ele>
        <time>2020-07-25T07:27:27.061Z</time>
      </trkpt>
      <trkpt lat="42.56975" lon="2.04716">
        <ele>2175</ele>
        <time>2020-07-25T07:27:28.061Z</time>
      </trkpt>
      <trkpt lat="42.56974" lon="2.04714">
        <ele>2174</ele>
        <time>2020-07-25T07:27:29.061Z</time>
      </trkpt>
      <trkpt lat="42.56974" lon="2.04713">
        <ele>2174</ele>
        <time>2020-07-25T07:27:30.061Z</time>
      </trkpt>
      <trkpt lat="42.56973" lon="2.04711">
        <ele>2175</ele>
        <time>2020-07-25T07:27:31.061Z</time>
      </trkpt>
      <trkpt lat="42.56973" lon="2.0471">
        <ele>2175</ele>
        <time>2020-07-25T07:27:32.061Z</time>
      </trkpt>
      <trkpt lat="42.56973" lon="2.04708">
        <ele>2176</ele>
        <time>2020-07-25T07:27:33.061Z</time>
      </trkpt>
      <trkpt lat="42.56972" lon="2.04707">
        <ele>2176</ele>
        <time>2020-07-25T07:27:34.061Z</time>
      </trkpt>
      <trkpt lat="42.56972" lon="2.04705">
        <ele>2177</ele>
        <time>2020-07-25T07:27:35.061Z</time>
      </trkpt>
      <trkpt lat="42.56972" lon="2.04704">
        <ele>2178</ele>
        <time>2020-07-25T07:27:36.061Z</time>
      </trkpt>
      <trkpt lat="42.56971" lon="2.04703">
        <ele>2177</ele>
        <time>2020-07-25T07:27:37.061Z</time>
      </trkpt>
      <trkpt lat="42.56971" lon="2.04702">
        <ele>2178</ele>
        <time>2020-07-25T07:27:38.061Z</time>
      </trkpt>
      <trkpt lat="42.5697" lon="2.04701">
        <ele>2178</ele>
        <time>2020-07-25T07:27:39.061Z</time>
      </trkpt>
      <trkpt lat="42.5697" lon="2.04699">
        <ele>2178</ele>
        <time>2020-07-25T07:27:40.061Z</time>
      </trkpt>
      <trkpt lat="42.56969" lon="2.04698">
        <ele>2179</ele>
        <time>2020-07-25T07:27:41.061Z</time>
      </trkpt>
      <trkpt lat="42.56969" lon="2.04697">
        <ele>2180</ele>
        <time>2020-07-25T07:27:42.061Z</time>
      </trkpt>
      <trkpt lat="42.56969" lon="2.04696">
        <ele>2180</ele>
        <time>2020-07-25T07:27:43.061Z</time>
      </trkpt>
      <trkpt lat="42.56969" lon="2.04695">
        <ele>2180</ele>
        <time>2020-07-25T07:27:44.061Z</time>
      </trkpt>
      <trkpt lat="42.56969" lon="2.04693">
        <ele>2181</ele>
        <time>2020-07-25T07:27:45.061Z</time>
      </trkpt>
      <trkpt lat="42.56969" lon="2.04692">
        <ele>2182</ele>
        <time>2020-07-25T07:27:46.061Z</time>
      </trkpt>
      <trkpt lat="42.56969" lon="2.0469">
        <ele>2182</ele>
        <time>2020-07-25T07:27:47.061Z</time>
      </trkpt>
      <trkpt lat="42.56969" lon="2.04689">
        <ele>2182</ele>
        <time>2020-07-25T07:27:48.061Z</time>
      </trkpt>
      <trkpt lat="42.56969" lon="2.04687">
        <ele>2182</ele>
        <time>2020-07-25T07:27:49.061Z</time>
      </trkpt>
      <trkpt lat="42.5697" lon="2.04686">
        <ele>2182</ele>
        <time>2020-07-25T07:27:50.061Z</time>
      </trkpt>
      <trkpt lat="42.5697" lon="2.04684">
        <ele>2183</ele>
        <time>2020-07-25T07:27:51.061Z</time>
      </trkpt>
      <trkpt lat="42.5697" lon="2.04683">
        <ele>2182</ele>
        <time>2020-07-25T07:27:52.061Z</time>
      </trkpt>
      <trkpt lat="42.5697" lon="2.04681">
        <ele>2181</ele>
        <time>2020-07-25T07:27:53.061Z</time>
      </trkpt>
      <trkpt lat="42.5697" lon="2.04679">
        <ele>2182</ele>
        <time>2020-07-25T07:27:54.061Z</time>
      </trkpt>
      <trkpt lat="42.5697" lon="2.04678">
        <ele>2182</ele>
        <time>2020-07-25T07:27:55.061Z</time>
      </trkpt>
      <trkpt lat="42.5697" lon="2.04677">
        <ele>2181</ele>
        <time>2020-07-25T07:27:56.061Z</time>
      </trkpt>
      <trkpt lat="42.5697" lon="2.04675">
        <ele>2181</ele>
        <time>2020-07-25T07:27:57.061Z</time>
      </trkpt>
      <trkpt lat="42.56969" lon="2.04674">
        <ele>2180</ele>
        <time>2020-07-25T07:27:58.061Z</time>
      </trkpt>
      <trkpt lat="42.5697" lon="2.04672">
        <ele>2179</ele>
        <time>2020-07-25T07:27:59.061Z</time>
      </trkpt>
      <trkpt lat="42.5697" lon="2.04669">
        <ele>2180</ele>
        <time>2020-07-25T07:28:00.061Z</time>
      </trkpt>
      <trkpt lat="42.5697" lon="2.04667">
        <ele>2181</ele>
        <time>2020-07-25T07:28:01.061Z</time>
      </trkpt>
      <trkpt lat="42.56971" lon="2.04664">
        <ele>2182</ele>
        <time>2020-07-25T07:28:02.061Z</time>
      </trkpt>
      <trkpt lat="42.56972" lon="2.04662">
        <ele>2182</ele>
        <time>2020-07-25T07:28:03.061Z</time>
      </trkpt>
      <trkpt lat="42.56973" lon="2.04659">
        <ele>2182</ele>
        <time>2020-07-25T07:28:04.061Z</time>
      </trkpt>
      <trkpt lat="42.56974" lon="2.04656">
        <ele>2183</ele>
        <time>2020-07-25T07:28:05.061Z</time>
      </trkpt>
      <trkpt lat="42.56975" lon="2.04653">
        <ele>2183</ele>
        <time>2020-07-25T07:28:06.061Z</time>
      </trkpt>
      <trkpt lat="42.56976" lon="2.0465">
        <ele>2183</ele>
        <time>2020-07-25T07:28:07.061Z</time>
      </trkpt>
      <trkpt lat="42.56976" lon="2.04647">
        <ele>2184</ele>
        <time>2020-07-25T07:28:08.061Z</time>
      </trkpt>
      <trkpt lat="42.56977" lon="2.04644">
        <ele>2184</ele>
        <time>2020-07-25T07:28:09.061Z</time>
      </trkpt>
      <trkpt lat="42.56978" lon="2.04641">
        <ele>2184</ele>
        <time>2020-07-25T07:28:10.061Z</time>
      </trkpt>
      <trkpt lat="42.56979" lon="2.04638">
        <ele>2185</ele>
        <time>2020-07-25T07:28:11.061Z</time>
      </trkpt>
      <trkpt lat="42.5698" lon="2.04635">
        <ele>2186</ele>
        <time>2020-07-25T07:28:12.061Z</time>
      </trkpt>
      <trkpt lat="42.56981" lon="2.04632">
        <ele>2186</ele>
        <time>2020-07-25T07:28:13.061Z</time>
      </trkpt>
      <trkpt lat="42.56982" lon="2.0463">
        <ele>2186</ele>
        <time>2020-07-25T07:28:14.061Z</time>
      </trkpt>
      <trkpt lat="42.56983" lon="2.04627">
        <ele>2187</ele>
        <time>2020-07-25T07:28:15.061Z</time>
      </trkpt>
      <trkpt lat="42.56983" lon="2.04625">
        <ele>2186</ele>
        <time>2020-07-25T07:28:16.061Z</time>
      </trkpt>
      <trkpt lat="42.56983" lon="2.04622">
        <ele>2187</ele>
        <time>2020-07-25T07:28:17.061Z</time>
      </trkpt>
      <trkpt lat="42.56983" lon="2.04619">
        <ele>2187</ele>
        <time>2020-07-25T07:28:18.061Z</time>
      </trkpt>
      <trkpt lat="42.56983" lon="2.04616">
        <ele>2187</ele>
        <time>2020-07-25T07:28:19.061Z</time>
      </trkpt>
      <trkpt lat="42.56983" lon="2.04613">
        <ele>2188</ele>
        <time>2020-07-25T07:28:20.061Z</time>
      </trkpt>
      <trkpt lat="42.56983" lon="2.0461">
        <ele>2188</ele>
        <time>2020-07-25T07:28:21.061Z</time>
      </trkpt>
      <trkpt lat="42.56982" lon="2.04607">
        <ele>2188</ele>
        <time>2020-07-25T07:28:22.061Z</time>
      </trkpt>
      <trkpt lat="42.56982" lon="2.04604">
        <ele>2189</ele>
        <time>2020-07-25T07:28:23.061Z</time>
      </trkpt>
      <trkpt lat="42.56981" lon="2.04601">
        <ele>2189</ele>
        <time>2020-07-25T07:28:24.061Z</time>
      </trkpt>
      <trkpt lat="42.5698" lon="2.04599">
        <ele>2189</ele>
        <time>2020-07-25T07:28:25.061Z</time>
      </trkpt>
      <trkpt lat="42.5698" lon="2.04596">
        <ele>2190</ele>
        <time>2020-07-25T07:28:26.061Z</time>
      </trkpt>
      <trkpt lat="42.5698" lon="2.04593">
        <ele>2189</ele>
        <time>2020-07-25T07:28:27.061Z</time>
      </trkpt>
      <trkpt lat="42.5698" lon="2.0459">
        <ele>2190</ele>
        <time>2020-07-25T07:28:28.061Z</time>
      </trkpt>
      <trkpt lat="42.5698" lon="2.04586">
        <ele>2190</ele>
        <time>2020-07-25T07:28:29.061Z</time>
      </trkpt>
      <trkpt lat="42.5698" lon="2.04583">
        <ele>2189</ele>
        <time>2020-07-25T07:28:30.061Z</time>
      </trkpt>
      <trkpt lat="42.5698" lon="2.0458">
        <ele>2189</ele>
        <time>2020-07-25T07:28:31.061Z</time>
      </trkpt>
      <trkpt lat="42.5698" lon="2.04577">
        <ele>2189</ele>
        <time>2020-07-25T07:28:32.061Z</time>
      </trkpt>
      <trkpt lat="42.56981" lon="2.04573">
        <ele>2189</ele>
        <time>2020-07-25T07:28:33.061Z</time>
      </trkpt>
      <trkpt lat="42.56981" lon="2.04571">
        <ele>2189</ele>
        <time>2020-07-25T07:28:34.061Z</time>
      </trkpt>
      <trkpt lat="42.56982" lon="2.04568">
        <ele>2190</ele>
        <time>2020-07-25T07:28:35.061Z</time>
      </trkpt>
      <trkpt lat="42.56982" lon="2.04565">
        <ele>2190</ele>
        <time>2020-07-25T07:28:36.061Z</time>
      </trkpt>
      <trkpt lat="42.56982" lon="2.04562">
        <ele>2191</ele>
        <time>2020-07-25T07:28:37.061Z</time>
      </trkpt>
      <trkpt lat="42.56983" lon="2.0456">
        <ele>2192</ele>
        <time>2020-07-25T07:28:38.061Z</time>
      </trkpt>
      <trkpt lat="42.56983" lon="2.04558">
        <ele>2193</ele>
        <time>2020-07-25T07:28:39.061Z</time>
      </trkpt>
      <trkpt lat="42.56983" lon="2.04555">
        <ele>2193</ele>
        <time>2020-07-25T07:28:40.061Z</time>
      </trkpt>
      <trkpt lat="42.56983" lon="2.04553">
        <ele>2193</ele>
        <time>2020-07-25T07:28:41.061Z</time>
      </trkpt>
      <trkpt lat="42.56983" lon="2.04551">
        <ele>2193</ele>
        <time>2020-07-25T07:28:42.061Z</time>
      </trkpt>
      <trkpt lat="42.56983" lon="2.04549">
        <ele>2194</ele>
        <time>2020-07-25T07:28:43.061Z</time>
      </trkpt>
      <trkpt lat="42.56983" lon="2.04546">
        <ele>2193</ele>
        <time>2020-07-25T07:28:44.061Z</time>
      </trkpt>
      <trkpt lat="42.56983" lon="2.04544">
        <ele>2195</ele>
        <time>2020-07-25T07:28:45.061Z</time>
      </trkpt>
      <trkpt lat="42.56983" lon="2.04541">
        <ele>2195</ele>
        <time>2020-07-25T07:28:46.061Z</time>
      </trkpt>
      <trkpt lat="42.56982" lon="2.04538">
        <ele>2196</ele>
        <time>2020-07-25T07:28:47.061Z</time>
      </trkpt>
      <trkpt lat="42.56982" lon="2.04536">
        <ele>2196</ele>
        <time>2020-07-25T07:28:48.061Z</time>
      </trkpt>
      <trkpt lat="42.56982" lon="2.04533">
        <ele>2197</ele>
        <time>2020-07-25T07:28:49.061Z</time>
      </trkpt>
      <trkpt lat="42.56982" lon="2.04532">
        <ele>2197</ele>
        <time>2020-07-25T07:28:50.061Z</time>
      </trkpt>
      <trkpt lat="42.56982" lon="2.0453">
        <ele>2197</ele>
        <time>2020-07-25T07:28:51.061Z</time>
      </trkpt>
      <trkpt lat="42.56982" lon="2.04528">
        <ele>2198</ele>
        <time>2020-07-25T07:28:52.061Z</time>
      </trkpt>
      <trkpt lat="42.56982" lon="2.04525">
        <ele>2199</ele>
        <time>2020-07-25T07:28:53.061Z</time>
      </trkpt>
      <trkpt lat="42.56981" lon="2.04522">
        <ele>2199</ele>
        <time>2020-07-25T07:28:54.061Z</time>
      </trkpt>
      <trkpt lat="42.56981" lon="2.04519">
        <ele>2199</ele>
        <time>2020-07-25T07:28:55.061Z</time>
      </trkpt>
      <trkpt lat="42.56981" lon="2.04516">
        <ele>2199</ele>
        <time>2020-07-25T07:28:56.061Z</time>
      </trkpt>
      <trkpt lat="42.56981" lon="2.04514">
        <ele>2199</ele>
        <time>2020-07-25T07:28:57.061Z</time>
      </trkpt>
      <trkpt lat="42.56981" lon="2.04511">
        <ele>2199</ele>
        <time>2020-07-25T07:28:58.061Z</time>
      </trkpt>
      <trkpt lat="42.56981" lon="2.04509">
        <ele>2199</ele>
        <time>2020-07-25T07:28:59.061Z</time>
      </trkpt>
      <trkpt lat="42.56981" lon="2.04507">
        <ele>2200</ele>
        <time>2020-07-25T07:29:00.061Z</time>
      </trkpt>
      <trkpt lat="42.56981" lon="2.04505">
        <ele>2200</ele>
        <time>2020-07-25T07:29:01.061Z</time>
      </trkpt>
      <trkpt lat="42.56981" lon="2.04503">
        <ele>2200</ele>
        <time>2020-07-25T07:29:02.061Z</time>
      </trkpt>
      <trkpt lat="42.5698" lon="2.04501">
        <ele>2200</ele>
        <time>2020-07-25T07:29:03.061Z</time>
      </trkpt>
      <trkpt lat="42.5698" lon="2.04499">
        <ele>2200</ele>
        <time>2020-07-25T07:29:04.061Z</time>
      </trkpt>
      <trkpt lat="42.56979" lon="2.04497">
        <ele>2201</ele>
        <time>2020-07-25T07:29:05.061Z</time>
      </trkpt>
      <trkpt lat="42.56978" lon="2.04494">
        <ele>2201</ele>
        <time>2020-07-25T07:29:06.061Z</time>
      </trkpt>
      <trkpt lat="42.56977" lon="2.04493">
        <ele>2202</ele>
        <time>2020-07-25T07:29:07.061Z</time>
      </trkpt>
      <trkpt lat="42.56977" lon="2.04491">
        <ele>2203</ele>
        <time>2020-07-25T07:29:08.061Z</time>
      </trkpt>
      <trkpt lat="42.56976" lon="2.04489">
        <ele>2202</ele>
        <time>2020-07-25T07:29:09.061Z</time>
      </trkpt>
      <trkpt lat="42.56976" lon="2.04488">
        <ele>2203</ele>
        <time>2020-07-25T07:29:10.061Z</time>
      </trkpt>
      <trkpt lat="42.56976" lon="2.04487">
        <ele>2204</ele>
        <time>2020-07-25T07:29:11.061Z</time>
      </trkpt>
      <trkpt lat="42.56976" lon="2.04486">
        <ele>2204</ele>
        <time>2020-07-25T07:29:12.061Z</time>
      </trkpt>
      <trkpt lat="42.56975" lon="2.04485">
        <ele>2204</ele>
        <time>2020-07-25T07:29:13.061Z</time>
      </trkpt>
      <trkpt lat="42.56975" lon="2.04484">
        <ele>2204</ele>
        <time>2020-07-25T07:29:14.061Z</time>
      </trkpt>
      <trkpt lat="42.56974" lon="2.04483">
        <ele>2205</ele>
        <time>2020-07-25T07:29:15.061Z</time>
      </trkpt>
      <trkpt lat="42.56974" lon="2.04482">
        <ele>2204</ele>
        <time>2020-07-25T07:29:16.061Z</time>
      </trkpt>
      <trkpt lat="42.56973" lon="2.04481">
        <ele>2203</ele>
        <time>2020-07-25T07:29:17.061Z</time>
      </trkpt>
      <trkpt lat="42.56973" lon="2.0448">
        <ele>2204</ele>
        <time>2020-07-25T07:29:18.061Z</time>
      </trkpt>
      <trkpt lat="42.56972" lon="2.04479">
        <ele>2204</ele>
        <time>2020-07-25T07:29:19.061Z</time>
      </trkpt>
      <trkpt lat="42.56978" lon="2.04462">
        <ele>2201</ele>
        <time>2020-07-25T07:29:20.045Z</time>
      </trkpt>
      <trkpt lat="42.56979" lon="2.04461">
        <ele>2202</ele>
        <time>2020-07-25T07:29:21.045Z</time>
      </trkpt>
      <trkpt lat="42.5698" lon="2.04459">
        <ele>2202</ele>
        <time>2020-07-25T07:29:22.045Z</time>
      </trkpt>
      <trkpt lat="42.5698" lon="2.04457">
        <ele>2203</ele>
        <time>2020-07-25T07:29:23.045Z</time>
      </trkpt>
      <trkpt lat="42.56981" lon="2.04455">
        <ele>2203</ele>
        <time>2020-07-25T07:29:24.045Z</time>
      </trkpt>
      <trkpt lat="42.5698" lon="2.04452">
        <ele>2203</ele>
        <time>2020-07-25T07:29:25.045Z</time>
      </trkpt>
      <trkpt lat="42.5698" lon="2.0445">
        <ele>2204</ele>
        <time>2020-07-25T07:29:26.045Z</time>
      </trkpt>
      <trkpt lat="42.5698" lon="2.04449">
        <ele>2205</ele>
        <time>2020-07-25T07:29:27.045Z</time>
      </trkpt>
      <trkpt lat="42.5698" lon="2.04446">
        <ele>2206</ele>
        <time>2020-07-25T07:29:28.045Z</time>
      </trkpt>
      <trkpt lat="42.5698" lon="2.04444">
        <ele>2207</ele>
        <time>2020-07-25T07:29:29.045Z</time>
      </trkpt>
      <trkpt lat="42.5698" lon="2.04441">
        <ele>2208</ele>
        <time>2020-07-25T07:29:30.045Z</time>
      </trkpt>
      <trkpt lat="42.5698" lon="2.04439">
        <ele>2209</ele>
        <time>2020-07-25T07:29:31.045Z</time>
      </trkpt>
      <trkpt lat="42.56981" lon="2.04436">
        <ele>2212</ele>
        <time>2020-07-25T07:29:32.045Z</time>
      </trkpt>
      <trkpt lat="42.56981" lon="2.04433">
        <ele>2212</ele>
        <time>2020-07-25T07:29:33.045Z</time>
      </trkpt>
      <trkpt lat="42.56982" lon="2.04429">
        <ele>2213</ele>
        <time>2020-07-25T07:29:34.045Z</time>
      </trkpt>
      <trkpt lat="42.56982" lon="2.04427">
        <ele>2213</ele>
        <time>2020-07-25T07:29:35.045Z</time>
      </trkpt>
      <trkpt lat="42.56983" lon="2.04424">
        <ele>2213</ele>
        <time>2020-07-25T07:29:36.045Z</time>
      </trkpt>
      <trkpt lat="42.56983" lon="2.04421">
        <ele>2214</ele>
        <time>2020-07-25T07:29:37.045Z</time>
      </trkpt>
      <trkpt lat="42.56983" lon="2.04418">
        <ele>2215</ele>
        <time>2020-07-25T07:29:38.045Z</time>
      </trkpt>
      <trkpt lat="42.56983" lon="2.04415">
        <ele>2215</ele>
        <time>2020-07-25T07:29:39.045Z</time>
      </trkpt>
      <trkpt lat="42.56983" lon="2.04412">
        <ele>2215</ele>
        <time>2020-07-25T07:29:40.045Z</time>
      </trkpt>
      <trkpt lat="42.56983" lon="2.04409">
        <ele>2216</ele>
        <time>2020-07-25T07:29:41.045Z</time>
      </trkpt>
      <trkpt lat="42.56983" lon="2.04406">
        <ele>2217</ele>
        <time>2020-07-25T07:29:42.045Z</time>
      </trkpt>
      <trkpt lat="42.56983" lon="2.04403">
        <ele>2218</ele>
        <time>2020-07-25T07:29:43.045Z</time>
      </trkpt>
      <trkpt lat="42.56983" lon="2.044">
        <ele>2218</ele>
        <time>2020-07-25T07:29:44.045Z</time>
      </trkpt>
      <trkpt lat="42.56982" lon="2.04397">
        <ele>2217</ele>
        <time>2020-07-25T07:29:45.045Z</time>
      </trkpt>
      <trkpt lat="42.56982" lon="2.04395">
        <ele>2218</ele>
        <time>2020-07-25T07:29:46.045Z</time>
      </trkpt>
      <trkpt lat="42.56982" lon="2.04392">
        <ele>2218</ele>
        <time>2020-07-25T07:29:47.045Z</time>
      </trkpt>
      <trkpt lat="42.56982" lon="2.04388">
        <ele>2218</ele>
        <time>2020-07-25T07:29:48.045Z</time>
      </trkpt>
      <trkpt lat="42.56981" lon="2.04385">
        <ele>2219</ele>
        <time>2020-07-25T07:29:49.045Z</time>
      </trkpt>
      <trkpt lat="42.56981" lon="2.04382">
        <ele>2219</ele>
        <time>2020-07-25T07:29:50.045Z</time>
      </trkpt>
      <trkpt lat="42.5698" lon="2.04379">
        <ele>2220</ele>
        <time>2020-07-25T07:29:51.045Z</time>
      </trkpt>
      <trkpt lat="42.5698" lon="2.04377">
        <ele>2220</ele>
        <time>2020-07-25T07:29:52.045Z</time>
      </trkpt>
      <trkpt lat="42.56979" lon="2.04375">
        <ele>2221</ele>
        <time>2020-07-25T07:29:53.045Z</time>
      </trkpt>
      <trkpt lat="42.56978" lon="2.04373">
        <ele>2220</ele>
        <time>2020-07-25T07:29:54.045Z</time>
      </trkpt>
      <trkpt lat="42.56976" lon="2.04371">
        <ele>2220</ele>
        <time>2020-07-25T07:29:55.045Z</time>
      </trkpt>
      <trkpt lat="42.56976" lon="2.0437">
        <ele>2220</ele>
        <time>2020-07-25T07:29:56.045Z</time>
      </trkpt>
      <trkpt lat="42.56976" lon="2.04368">
        <ele>2220</ele>
        <time>2020-07-25T07:29:57.045Z</time>
      </trkpt>
      <trkpt lat="42.56976" lon="2.04366">
        <ele>2219</ele>
        <time>2020-07-25T07:29:58.045Z</time>
      </trkpt>
      <trkpt lat="42.56976" lon="2.04365">
        <ele>2218</ele>
        <time>2020-07-25T07:29:59.045Z</time>
      </trkpt>
      <trkpt lat="42.56978" lon="2.04364">
        <ele>2217</ele>
        <time>2020-07-25T07:30:00.045Z</time>
      </trkpt>
      <trkpt lat="42.56979" lon="2.04363">
        <ele>2217</ele>
        <time>2020-07-25T07:30:01.045Z</time>
      </trkpt>
      <trkpt lat="42.5698" lon="2.04362">
        <ele>2217</ele>
        <time>2020-07-25T07:30:02.045Z</time>
      </trkpt>
      <trkpt lat="42.56982" lon="2.04361">
        <ele>2217</ele>
        <time>2020-07-25T07:30:03.045Z</time>
      </trkpt>
      <trkpt lat="42.56983" lon="2.04359">
        <ele>2217</ele>
        <time>2020-07-25T07:30:04.045Z</time>
      </trkpt>
      <trkpt lat="42.56984" lon="2.04357">
        <ele>2217</ele>
        <time>2020-07-25T07:30:05.045Z</time>
      </trkpt>
      <trkpt lat="42.56986" lon="2.04355">
        <ele>2218</ele>
        <time>2020-07-25T07:30:06.045Z</time>
      </trkpt>
      <trkpt lat="42.56987" lon="2.04353">
        <ele>2218</ele>
        <time>2020-07-25T07:30:07.045Z</time>
      </trkpt>
      <trkpt lat="42.56989" lon="2.04352">
        <ele>2218</ele>
        <time>2020-07-25T07:30:08.045Z</time>
      </trkpt>
      <trkpt lat="42.5699" lon="2.0435">
        <ele>2218</ele>
        <time>2020-07-25T07:30:09.045Z</time>
      </trkpt>
      <trkpt lat="42.56992" lon="2.0435">
        <ele>2217</ele>
        <time>2020-07-25T07:30:10.045Z</time>
      </trkpt>
      <trkpt lat="42.56993" lon="2.04349">
        <ele>2217</ele>
        <time>2020-07-25T07:30:11.045Z</time>
      </trkpt>
      <trkpt lat="42.56995" lon="2.04348">
        <ele>2216</ele>
        <time>2020-07-25T07:30:12.045Z</time>
      </trkpt>
      <trkpt lat="42.57012" lon="2.04344">
        <ele>2221</ele>
        <time>2020-07-25T07:30:13.092Z</time>
      </trkpt>
      <trkpt lat="42.57013" lon="2.04344">
        <ele>2220</ele>
        <time>2020-07-25T07:30:14.092Z</time>
      </trkpt>
      <trkpt lat="42.57014" lon="2.04345">
        <ele>2221</ele>
        <time>2020-07-25T07:30:15.092Z</time>
      </trkpt>
      <trkpt lat="42.57015" lon="2.04345">
        <ele>2222</ele>
        <time>2020-07-25T07:30:16.092Z</time>
      </trkpt>
      <trkpt lat="42.57016" lon="2.04347">
        <ele>2225</ele>
        <time>2020-07-25T07:30:17.092Z</time>
      </trkpt>
      <trkpt lat="42.57018" lon="2.04349">
        <ele>2225</ele>
        <time>2020-07-25T07:30:18.092Z</time>
      </trkpt>
      <trkpt lat="42.57019" lon="2.04351">
        <ele>2225</ele>
        <time>2020-07-25T07:30:19.092Z</time>
      </trkpt>
      <trkpt lat="42.5702" lon="2.04353">
        <ele>2226</ele>
        <time>2020-07-25T07:30:20.092Z</time>
      </trkpt>
      <trkpt lat="42.57022" lon="2.04354">
        <ele>2227</ele>
        <time>2020-07-25T07:30:21.092Z</time>
      </trkpt>
      <trkpt lat="42.57023" lon="2.04356">
        <ele>2228</ele>
        <time>2020-07-25T07:30:22.092Z</time>
      </trkpt>
      <trkpt lat="42.57024" lon="2.04358">
        <ele>2227</ele>
        <time>2020-07-25T07:30:23.092Z</time>
      </trkpt>
      <trkpt lat="42.57025" lon="2.04361">
        <ele>2226</ele>
        <time>2020-07-25T07:30:24.092Z</time>
      </trkpt>
      <trkpt lat="42.57025" lon="2.04364">
        <ele>2226</ele>
        <time>2020-07-25T07:30:25.092Z</time>
      </trkpt>
      <trkpt lat="42.57027" lon="2.04366">
        <ele>2226</ele>
        <time>2020-07-25T07:30:26.092Z</time>
      </trkpt>
      <trkpt lat="42.57028" lon="2.04369">
        <ele>2226</ele>
        <time>2020-07-25T07:30:27.092Z</time>
      </trkpt>
      <trkpt lat="42.5703" lon="2.04372">
        <ele>2226</ele>
        <time>2020-07-25T07:30:28.092Z</time>
      </trkpt>
      <trkpt lat="42.57032" lon="2.04374">
        <ele>2226</ele>
        <time>2020-07-25T07:30:29.092Z</time>
      </trkpt>
      <trkpt lat="42.57034" lon="2.04375">
        <ele>2227</ele>
        <time>2020-07-25T07:30:30.092Z</time>
      </trkpt>
      <trkpt lat="42.57036" lon="2.04376">
        <ele>2227</ele>
        <time>2020-07-25T07:30:31.092Z</time>
      </trkpt>
      <trkpt lat="42.57038" lon="2.04377">
        <ele>2227</ele>
        <time>2020-07-25T07:30:32.092Z</time>
      </trkpt>
      <trkpt lat="42.5704" lon="2.04378">
        <ele>2227</ele>
        <time>2020-07-25T07:30:33.092Z</time>
      </trkpt>
      <trkpt lat="42.57042" lon="2.04379">
        <ele>2227</ele>
        <time>2020-07-25T07:30:34.092Z</time>
      </trkpt>
      <trkpt lat="42.57044" lon="2.04379">
        <ele>2227</ele>
        <time>2020-07-25T07:30:35.092Z</time>
      </trkpt>
      <trkpt lat="42.57046" lon="2.04379">
        <ele>2228</ele>
        <time>2020-07-25T07:30:36.092Z</time>
      </trkpt>
      <trkpt lat="42.57048" lon="2.04379">
        <ele>2228</ele>
        <time>2020-07-25T07:30:37.092Z</time>
      </trkpt>
      <trkpt lat="42.5705" lon="2.04379">
        <ele>2229</ele>
        <time>2020-07-25T07:30:38.092Z</time>
      </trkpt>
      <trkpt lat="42.57052" lon="2.0438">
        <ele>2229</ele>
        <time>2020-07-25T07:30:39.092Z</time>
      </trkpt>
      <trkpt lat="42.57054" lon="2.04381">
        <ele>2230</ele>
        <time>2020-07-25T07:30:40.092Z</time>
      </trkpt>
      <trkpt lat="42.57056" lon="2.04381">
        <ele>2229</ele>
        <time>2020-07-25T07:30:41.092Z</time>
      </trkpt>
      <trkpt lat="42.57058" lon="2.04381">
        <ele>2229</ele>
        <time>2020-07-25T07:30:42.092Z</time>
      </trkpt>
      <trkpt lat="42.5706" lon="2.0438">
        <ele>2230</ele>
        <time>2020-07-25T07:30:43.092Z</time>
      </trkpt>
      <trkpt lat="42.57062" lon="2.04379">
        <ele>2231</ele>
        <time>2020-07-25T07:30:44.092Z</time>
      </trkpt>
      <trkpt lat="42.57064" lon="2.04378">
        <ele>2231</ele>
        <time>2020-07-25T07:30:45.092Z</time>
      </trkpt>
      <trkpt lat="42.57066" lon="2.04377">
        <ele>2232</ele>
        <time>2020-07-25T07:30:46.092Z</time>
      </trkpt>
      <trkpt lat="42.57068" lon="2.04376">
        <ele>2233</ele>
        <time>2020-07-25T07:30:47.092Z</time>
      </trkpt>
      <trkpt lat="42.57069" lon="2.04375">
        <ele>2234</ele>
        <time>2020-07-25T07:30:48.092Z</time>
      </trkpt>
      <trkpt lat="42.57071" lon="2.04374">
        <ele>2234</ele>
        <time>2020-07-25T07:30:49.092Z</time>
      </trkpt>
      <trkpt lat="42.57073" lon="2.04373">
        <ele>2235</ele>
        <time>2020-07-25T07:30:50.092Z</time>
      </trkpt>
      <trkpt lat="42.57074" lon="2.04372">
        <ele>2234</ele>
        <time>2020-07-25T07:30:51.092Z</time>
      </trkpt>
      <trkpt lat="42.57076" lon="2.0437">
        <ele>2235</ele>
        <time>2020-07-25T07:30:52.092Z</time>
      </trkpt>
      <trkpt lat="42.57077" lon="2.04368">
        <ele>2235</ele>
        <time>2020-07-25T07:30:53.092Z</time>
      </trkpt>
      <trkpt lat="42.57079" lon="2.04367">
        <ele>2235</ele>
        <time>2020-07-25T07:30:54.092Z</time>
      </trkpt>
      <trkpt lat="42.57081" lon="2.04366">
        <ele>2235</ele>
        <time>2020-07-25T07:30:55.092Z</time>
      </trkpt>
      <trkpt lat="42.57082" lon="2.04364">
        <ele>2236</ele>
        <time>2020-07-25T07:30:56.092Z</time>
      </trkpt>
      <trkpt lat="42.57084" lon="2.04363">
        <ele>2236</ele>
        <time>2020-07-25T07:30:57.092Z</time>
      </trkpt>
      <trkpt lat="42.57086" lon="2.04362">
        <ele>2236</ele>
        <time>2020-07-25T07:30:58.092Z</time>
      </trkpt>
      <trkpt lat="42.57088" lon="2.04361">
        <ele>2237</ele>
        <time>2020-07-25T07:30:59.092Z</time>
      </trkpt>
      <trkpt lat="42.5709" lon="2.0436">
        <ele>2238</ele>
        <time>2020-07-25T07:31:00.092Z</time>
      </trkpt>
      <trkpt lat="42.57092" lon="2.04358">
        <ele>2239</ele>
        <time>2020-07-25T07:31:01.092Z</time>
      </trkpt>
      <trkpt lat="42.57094" lon="2.04357">
        <ele>2239</ele>
        <time>2020-07-25T07:31:02.092Z</time>
      </trkpt>
      <trkpt lat="42.57096" lon="2.04355">
        <ele>2239</ele>
        <time>2020-07-25T07:31:03.092Z</time>
      </trkpt>
      <trkpt lat="42.57098" lon="2.04354">
        <ele>2239</ele>
        <time>2020-07-25T07:31:04.092Z</time>
      </trkpt>
      <trkpt lat="42.57101" lon="2.04353">
        <ele>2239</ele>
        <time>2020-07-25T07:31:05.092Z</time>
      </trkpt>
      <trkpt lat="42.57103" lon="2.04353">
        <ele>2240</ele>
        <time>2020-07-25T07:31:06.092Z</time>
      </trkpt>
      <trkpt lat="42.57105" lon="2.04353">
        <ele>2240</ele>
        <time>2020-07-25T07:31:07.092Z</time>
      </trkpt>
      <trkpt lat="42.57108" lon="2.04353">
        <ele>2241</ele>
        <time>2020-07-25T07:31:08.092Z</time>
      </trkpt>
      <trkpt lat="42.5711" lon="2.04353">
        <ele>2241</ele>
        <time>2020-07-25T07:31:09.092Z</time>
      </trkpt>
      <trkpt lat="42.57112" lon="2.04353">
        <ele>2241</ele>
        <time>2020-07-25T07:31:10.092Z</time>
      </trkpt>
      <trkpt lat="42.57114" lon="2.04353">
        <ele>2241</ele>
        <time>2020-07-25T07:31:11.092Z</time>
      </trkpt>
      <trkpt lat="42.57116" lon="2.04352">
        <ele>2241</ele>
        <time>2020-07-25T07:31:12.092Z</time>
      </trkpt>
      <trkpt lat="42.57118" lon="2.04351">
        <ele>2241</ele>
        <time>2020-07-25T07:31:13.092Z</time>
      </trkpt>
      <trkpt lat="42.57121" lon="2.04351">
        <ele>2242</ele>
        <time>2020-07-25T07:31:14.092Z</time>
      </trkpt>
      <trkpt lat="42.57123" lon="2.04351">
        <ele>2242</ele>
        <time>2020-07-25T07:31:15.092Z</time>
      </trkpt>
      <trkpt lat="42.57125" lon="2.04352">
        <ele>2242</ele>
        <time>2020-07-25T07:31:16.092Z</time>
      </trkpt>
      <trkpt lat="42.57127" lon="2.04352">
        <ele>2243</ele>
        <time>2020-07-25T07:31:17.092Z</time>
      </trkpt>
      <trkpt lat="42.57129" lon="2.04352">
        <ele>2243</ele>
        <time>2020-07-25T07:31:18.092Z</time>
      </trkpt>
      <trkpt lat="42.57132" lon="2.04352">
        <ele>2243</ele>
        <time>2020-07-25T07:31:19.092Z</time>
      </trkpt>
      <trkpt lat="42.57134" lon="2.04352">
        <ele>2242</ele>
        <time>2020-07-25T07:31:20.092Z</time>
      </trkpt>
      <trkpt lat="42.57135" lon="2.04353">
        <ele>2242</ele>
        <time>2020-07-25T07:31:21.092Z</time>
      </trkpt>
      <trkpt lat="42.57137" lon="2.04354">
        <ele>2243</ele>
        <time>2020-07-25T07:31:22.092Z</time>
      </trkpt>
      <trkpt lat="42.57139" lon="2.04354">
        <ele>2243</ele>
        <time>2020-07-25T07:31:23.092Z</time>
      </trkpt>
      <trkpt lat="42.5714" lon="2.04355">
        <ele>2244</ele>
        <time>2020-07-25T07:31:24.092Z</time>
      </trkpt>
      <trkpt lat="42.57141" lon="2.04355">
        <ele>2244</ele>
        <time>2020-07-25T07:31:25.092Z</time>
      </trkpt>
      <trkpt lat="42.57142" lon="2.04355">
        <ele>2244</ele>
        <time>2020-07-25T07:31:26.092Z</time>
      </trkpt>
      <trkpt lat="42.57143" lon="2.04355">
        <ele>2245</ele>
        <time>2020-07-25T07:31:27.092Z</time>
      </trkpt>
      <trkpt lat="42.57145" lon="2.04355">
        <ele>2244</ele>
        <time>2020-07-25T07:31:28.092Z</time>
      </trkpt>
      <trkpt lat="42.57146" lon="2.04355">
        <ele>2245</ele>
        <time>2020-07-25T07:31:29.092Z</time>
      </trkpt>
      <trkpt lat="42.57147" lon="2.04355">
        <ele>2245</ele>
        <time>2020-07-25T07:31:30.092Z</time>
      </trkpt>
      <trkpt lat="42.57148" lon="2.04355">
        <ele>2245</ele>
        <time>2020-07-25T07:31:31.092Z</time>
      </trkpt>
      <trkpt lat="42.57149" lon="2.04355">
        <ele>2245</ele>
        <time>2020-07-25T07:31:32.092Z</time>
      </trkpt>
      <trkpt lat="42.5715" lon="2.04355">
        <ele>2245</ele>
        <time>2020-07-25T07:31:33.092Z</time>
      </trkpt>
      <trkpt lat="42.57151" lon="2.04355">
        <ele>2245</ele>
        <time>2020-07-25T07:31:34.092Z</time>
      </trkpt>
      <trkpt lat="42.57152" lon="2.04355">
        <ele>2245</ele>
        <time>2020-07-25T07:31:35.092Z</time>
      </trkpt>
      <trkpt lat="42.57153" lon="2.04355">
        <ele>2246</ele>
        <time>2020-07-25T07:31:36.092Z</time>
      </trkpt>
      <trkpt lat="42.57154" lon="2.04354">
        <ele>2246</ele>
        <time>2020-07-25T07:31:37.092Z</time>
      </trkpt>
      <trkpt lat="42.57155" lon="2.04354">
        <ele>2246</ele>
        <time>2020-07-25T07:31:38.092Z</time>
      </trkpt>
      <trkpt lat="42.57156" lon="2.04353">
        <ele>2246</ele>
        <time>2020-07-25T07:31:39.092Z</time>
      </trkpt>
      <trkpt lat="42.57158" lon="2.04353">
        <ele>2245</ele>
        <time>2020-07-25T07:31:40.092Z</time>
      </trkpt>
      <trkpt lat="42.57159" lon="2.04352">
        <ele>2245</ele>
        <time>2020-07-25T07:31:41.092Z</time>
      </trkpt>
      <trkpt lat="42.5716" lon="2.04352">
        <ele>2246</ele>
        <time>2020-07-25T07:31:42.092Z</time>
      </trkpt>
      <trkpt lat="42.5716" lon="2.04351">
        <ele>2246</ele>
        <time>2020-07-25T07:31:43.092Z</time>
      </trkpt>
      <trkpt lat="42.57161" lon="2.0435">
        <ele>2247</ele>
        <time>2020-07-25T07:31:44.092Z</time>
      </trkpt>
      <trkpt lat="42.57161" lon="2.0435">
        <ele>2247</ele>
        <time>2020-07-25T07:31:45.092Z</time>
      </trkpt>
      <trkpt lat="42.57162" lon="2.04349">
        <ele>2247</ele>
        <time>2020-07-25T07:31:46.092Z</time>
      </trkpt>
      <trkpt lat="42.57162" lon="2.04348">
        <ele>2247</ele>
        <time>2020-07-25T07:31:47.092Z</time>
      </trkpt>
      <trkpt lat="42.57163" lon="2.04347">
        <ele>2246</ele>
        <time>2020-07-25T07:31:48.092Z</time>
      </trkpt>
      <trkpt lat="42.57164" lon="2.04346">
        <ele>2246</ele>
        <time>2020-07-25T07:31:49.092Z</time>
      </trkpt>
      <trkpt lat="42.57166" lon="2.04344">
        <ele>2247</ele>
        <time>2020-07-25T07:31:50.092Z</time>
      </trkpt>
      <trkpt lat="42.57166" lon="2.04343">
        <ele>2248</ele>
        <time>2020-07-25T07:31:51.092Z</time>
      </trkpt>
      <trkpt lat="42.57167" lon="2.04342">
        <ele>2248</ele>
        <time>2020-07-25T07:31:52.092Z</time>
      </trkpt>
      <trkpt lat="42.57168" lon="2.04341">
        <ele>2248</ele>
        <time>2020-07-25T07:31:53.092Z</time>
      </trkpt>
      <trkpt lat="42.57168" lon="2.0434">
        <ele>2248</ele>
        <time>2020-07-25T07:31:54.092Z</time>
      </trkpt>
      <trkpt lat="42.57169" lon="2.04339">
        <ele>2248</ele>
        <time>2020-07-25T07:31:55.092Z</time>
      </trkpt>
      <trkpt lat="42.5717" lon="2.04338">
        <ele>2249</ele>
        <time>2020-07-25T07:31:56.092Z</time>
      </trkpt>
      <trkpt lat="42.57171" lon="2.04338">
        <ele>2249</ele>
        <time>2020-07-25T07:31:57.092Z</time>
      </trkpt>
      <trkpt lat="42.57173" lon="2.04338">
        <ele>2249</ele>
        <time>2020-07-25T07:31:58.092Z</time>
      </trkpt>
      <trkpt lat="42.57174" lon="2.04338">
        <ele>2249</ele>
        <time>2020-07-25T07:31:59.092Z</time>
      </trkpt>
      <trkpt lat="42.57175" lon="2.04338">
        <ele>2249</ele>
        <time>2020-07-25T07:32:00.092Z</time>
      </trkpt>
      <trkpt lat="42.57176" lon="2.04339">
        <ele>2248</ele>
        <time>2020-07-25T07:32:01.092Z</time>
      </trkpt>
      <trkpt lat="42.57177" lon="2.04339">
        <ele>2248</ele>
        <time>2020-07-25T07:32:02.092Z</time>
      </trkpt>
      <trkpt lat="42.57178" lon="2.04339">
        <ele>2248</ele>
        <time>2020-07-25T07:32:03.092Z</time>
      </trkpt>
      <trkpt lat="42.57179" lon="2.04339">
        <ele>2248</ele>
        <time>2020-07-25T07:32:04.092Z</time>
      </trkpt>
      <trkpt lat="42.57181" lon="2.04338">
        <ele>2248</ele>
        <time>2020-07-25T07:32:05.092Z</time>
      </trkpt>
      <trkpt lat="42.57182" lon="2.04337">
        <ele>2248</ele>
        <time>2020-07-25T07:32:06.092Z</time>
      </trkpt>
      <trkpt lat="42.57182" lon="2.04337">
        <ele>2249</ele>
        <time>2020-07-25T07:32:07.092Z</time>
      </trkpt>
      <trkpt lat="42.57183" lon="2.04336">
        <ele>2249</ele>
        <time>2020-07-25T07:32:08.092Z</time>
      </trkpt>
      <trkpt lat="42.57184" lon="2.04335">
        <ele>2250</ele>
        <time>2020-07-25T07:32:09.092Z</time>
      </trkpt>
      <trkpt lat="42.57184" lon="2.04335">
        <ele>2250</ele>
        <time>2020-07-25T07:32:10.092Z</time>
      </trkpt>
      <trkpt lat="42.57185" lon="2.04334">
        <ele>2251</ele>
        <time>2020-07-25T07:32:11.092Z</time>
      </trkpt>
      <trkpt lat="42.57186" lon="2.04333">
        <ele>2251</ele>
        <time>2020-07-25T07:32:12.092Z</time>
      </trkpt>
      <trkpt lat="42.57186" lon="2.04332">
        <ele>2251</ele>
        <time>2020-07-25T07:32:13.092Z</time>
      </trkpt>
      <trkpt lat="42.57187" lon="2.0433">
        <ele>2251</ele>
        <time>2020-07-25T07:32:14.092Z</time>
      </trkpt>
      <trkpt lat="42.57188" lon="2.04329">
        <ele>2252</ele>
        <time>2020-07-25T07:32:15.092Z</time>
      </trkpt>
      <trkpt lat="42.57188" lon="2.04328">
        <ele>2252</ele>
        <time>2020-07-25T07:32:16.092Z</time>
      </trkpt>
      <trkpt lat="42.57189" lon="2.04327">
        <ele>2252</ele>
        <time>2020-07-25T07:32:17.092Z</time>
      </trkpt>
      <trkpt lat="42.5719" lon="2.04326">
        <ele>2252</ele>
        <time>2020-07-25T07:32:18.092Z</time>
      </trkpt>
      <trkpt lat="42.57191" lon="2.04325">
        <ele>2252</ele>
        <time>2020-07-25T07:32:19.092Z</time>
      </trkpt>
      <trkpt lat="42.57192" lon="2.04325">
        <ele>2252</ele>
        <time>2020-07-25T07:32:20.092Z</time>
      </trkpt>
      <trkpt lat="42.57192" lon="2.04325">
        <ele>2253</ele>
        <time>2020-07-25T07:32:21.092Z</time>
      </trkpt>
      <trkpt lat="42.57193" lon="2.04324">
        <ele>2253</ele>
        <time>2020-07-25T07:32:22.092Z</time>
      </trkpt>
      <trkpt lat="42.57194" lon="2.04324">
        <ele>2253</ele>
        <time>2020-07-25T07:32:23.092Z</time>
      </trkpt>
      <trkpt lat="42.57194" lon="2.04323">
        <ele>2253</ele>
        <time>2020-07-25T07:32:24.092Z</time>
      </trkpt>
      <trkpt lat="42.57195" lon="2.04322">
        <ele>2253</ele>
        <time>2020-07-25T07:32:25.092Z</time>
      </trkpt>
      <trkpt lat="42.57195" lon="2.04321">
        <ele>2253</ele>
        <time>2020-07-25T07:32:26.092Z</time>
      </trkpt>
      <trkpt lat="42.57197" lon="2.04321">
        <ele>2253</ele>
        <time>2020-07-25T07:32:27.092Z</time>
      </trkpt>
      <trkpt lat="42.57198" lon="2.0432">
        <ele>2254</ele>
        <time>2020-07-25T07:32:28.092Z</time>
      </trkpt>
      <trkpt lat="42.57199" lon="2.0432">
        <ele>2254</ele>
        <time>2020-07-25T07:32:29.092Z</time>
      </trkpt>
      <trkpt lat="42.572" lon="2.0432">
        <ele>2255</ele>
        <time>2020-07-25T07:32:30.092Z</time>
      </trkpt>
      <trkpt lat="42.572" lon="2.04319">
        <ele>2255</ele>
        <time>2020-07-25T07:32:31.092Z</time>
      </trkpt>
      <trkpt lat="42.572" lon="2.04319">
        <ele>2256</ele>
        <time>2020-07-25T07:32:32.092Z</time>
      </trkpt>
      <trkpt lat="42.57201" lon="2.04318">
        <ele>2257</ele>
        <time>2020-07-25T07:32:33.092Z</time>
      </trkpt>
      <trkpt lat="42.57202" lon="2.04318">
        <ele>2258</ele>
        <time>2020-07-25T07:32:34.092Z</time>
      </trkpt>
      <trkpt lat="42.57203" lon="2.04317">
        <ele>2258</ele>
        <time>2020-07-25T07:32:35.092Z</time>
      </trkpt>
      <trkpt lat="42.57204" lon="2.04317">
        <ele>2259</ele>
        <time>2020-07-25T07:32:36.092Z</time>
      </trkpt>
      <trkpt lat="42.57205" lon="2.04317">
        <ele>2259</ele>
        <time>2020-07-25T07:32:37.092Z</time>
      </trkpt>
      <trkpt lat="42.57205" lon="2.04316">
        <ele>2260</ele>
        <time>2020-07-25T07:32:38.092Z</time>
      </trkpt>
      <trkpt lat="42.57206" lon="2.04316">
        <ele>2260</ele>
        <time>2020-07-25T07:32:39.092Z</time>
      </trkpt>
      <trkpt lat="42.57207" lon="2.04316">
        <ele>2261</ele>
        <time>2020-07-25T07:32:40.092Z</time>
      </trkpt>
      <trkpt lat="42.57208" lon="2.04315">
        <ele>2261</ele>
        <time>2020-07-25T07:32:41.092Z</time>
      </trkpt>
      <trkpt lat="42.57209" lon="2.04315">
        <ele>2261</ele>
        <time>2020-07-25T07:32:42.092Z</time>
      </trkpt>
      <trkpt lat="42.5721" lon="2.04314">
        <ele>2262</ele>
        <time>2020-07-25T07:32:43.092Z</time>
      </trkpt>
      <trkpt lat="42.57211" lon="2.04314">
        <ele>2262</ele>
        <time>2020-07-25T07:32:44.092Z</time>
      </trkpt>
      <trkpt lat="42.57211" lon="2.04313">
        <ele>2263</ele>
        <time>2020-07-25T07:32:45.092Z</time>
      </trkpt>
      <trkpt lat="42.57212" lon="2.04313">
        <ele>2263</ele>
        <time>2020-07-25T07:32:46.092Z</time>
      </trkpt>
      <trkpt lat="42.57212" lon="2.04312">
        <ele>2263</ele>
        <time>2020-07-25T07:32:47.092Z</time>
      </trkpt>
      <trkpt lat="42.57213" lon="2.04311">
        <ele>2263</ele>
        <time>2020-07-25T07:32:48.092Z</time>
      </trkpt>
      <trkpt lat="42.57213" lon="2.0431">
        <ele>2264</ele>
        <time>2020-07-25T07:32:49.092Z</time>
      </trkpt>
      <trkpt lat="42.57214" lon="2.04309">
        <ele>2264</ele>
        <time>2020-07-25T07:32:50.092Z</time>
      </trkpt>
      <trkpt lat="42.57215" lon="2.04309">
        <ele>2264</ele>
        <time>2020-07-25T07:32:51.092Z</time>
      </trkpt>
      <trkpt lat="42.57216" lon="2.04308">
        <ele>2264</ele>
        <time>2020-07-25T07:32:52.092Z</time>
      </trkpt>
      <trkpt lat="42.57217" lon="2.04309">
        <ele>2265</ele>
        <time>2020-07-25T07:32:53.092Z</time>
      </trkpt>
      <trkpt lat="42.57218" lon="2.04309">
        <ele>2264</ele>
        <time>2020-07-25T07:32:54.092Z</time>
      </trkpt>
      <trkpt lat="42.57219" lon="2.04309">
        <ele>2263</ele>
        <time>2020-07-25T07:32:55.092Z</time>
      </trkpt>
      <trkpt lat="42.5722" lon="2.0431">
        <ele>2264</ele>
        <time>2020-07-25T07:32:56.092Z</time>
      </trkpt>
      <trkpt lat="42.57221" lon="2.04309">
        <ele>2264</ele>
        <time>2020-07-25T07:32:57.092Z</time>
      </trkpt>
      <trkpt lat="42.57222" lon="2.04309">
        <ele>2264</ele>
        <time>2020-07-25T07:32:58.092Z</time>
      </trkpt>
      <trkpt lat="42.57223" lon="2.04308">
        <ele>2264</ele>
        <time>2020-07-25T07:32:59.092Z</time>
      </trkpt>
      <trkpt lat="42.57223" lon="2.04307">
        <ele>2264</ele>
        <time>2020-07-25T07:33:00.092Z</time>
      </trkpt>
      <trkpt lat="42.57224" lon="2.04307">
        <ele>2264</ele>
        <time>2020-07-25T07:33:01.092Z</time>
      </trkpt>
      <trkpt lat="42.57225" lon="2.04306">
        <ele>2265</ele>
        <time>2020-07-25T07:33:02.092Z</time>
      </trkpt>
      <trkpt lat="42.57225" lon="2.04305">
        <ele>2266</ele>
        <time>2020-07-25T07:33:03.092Z</time>
      </trkpt>
      <trkpt lat="42.57226" lon="2.04305">
        <ele>2266</ele>
        <time>2020-07-25T07:33:04.092Z</time>
      </trkpt>
      <trkpt lat="42.57227" lon="2.04305">
        <ele>2265</ele>
        <time>2020-07-25T07:33:05.092Z</time>
      </trkpt>
      <trkpt lat="42.57228" lon="2.04304">
        <ele>2266</ele>
        <time>2020-07-25T07:33:06.092Z</time>
      </trkpt>
      <trkpt lat="42.57228" lon="2.04303">
        <ele>2266</ele>
        <time>2020-07-25T07:33:07.092Z</time>
      </trkpt>
      <trkpt lat="42.57229" lon="2.04303">
        <ele>2267</ele>
        <time>2020-07-25T07:33:08.092Z</time>
      </trkpt>
      <trkpt lat="42.5723" lon="2.04302">
        <ele>2267</ele>
        <time>2020-07-25T07:33:09.092Z</time>
      </trkpt>
      <trkpt lat="42.5723" lon="2.04301">
        <ele>2267</ele>
        <time>2020-07-25T07:33:10.092Z</time>
      </trkpt>
      <trkpt lat="42.57232" lon="2.043">
        <ele>2267</ele>
        <time>2020-07-25T07:33:11.092Z</time>
      </trkpt>
      <trkpt lat="42.57233" lon="2.04299">
        <ele>2267</ele>
        <time>2020-07-25T07:33:12.092Z</time>
      </trkpt>
      <trkpt lat="42.57234" lon="2.04299">
        <ele>2268</ele>
        <time>2020-07-25T07:33:13.092Z</time>
      </trkpt>
      <trkpt lat="42.57235" lon="2.04298">
        <ele>2269</ele>
        <time>2020-07-25T07:33:14.092Z</time>
      </trkpt>
      <trkpt lat="42.57236" lon="2.04298">
        <ele>2269</ele>
        <time>2020-07-25T07:33:15.092Z</time>
      </trkpt>
      <trkpt lat="42.57237" lon="2.04299">
        <ele>2269</ele>
        <time>2020-07-25T07:33:16.092Z</time>
      </trkpt>
      <trkpt lat="42.57238" lon="2.04299">
        <ele>2268</ele>
        <time>2020-07-25T07:33:17.092Z</time>
      </trkpt>
      <trkpt lat="42.57239" lon="2.043">
        <ele>2270</ele>
        <time>2020-07-25T07:33:18.092Z</time>
      </trkpt>
      <trkpt lat="42.5724" lon="2.043">
        <ele>2271</ele>
        <time>2020-07-25T07:33:19.092Z</time>
      </trkpt>
      <trkpt lat="42.57241" lon="2.04299">
        <ele>2271</ele>
        <time>2020-07-25T07:33:20.092Z</time>
      </trkpt>
      <trkpt lat="42.57241" lon="2.04299">
        <ele>2272</ele>
        <time>2020-07-25T07:33:21.092Z</time>
      </trkpt>
      <trkpt lat="42.57241" lon="2.04298">
        <ele>2272</ele>
        <time>2020-07-25T07:33:22.092Z</time>
      </trkpt>
      <trkpt lat="42.57242" lon="2.04297">
        <ele>2272</ele>
        <time>2020-07-25T07:33:23.092Z</time>
      </trkpt>
      <trkpt lat="42.57242" lon="2.04296">
        <ele>2273</ele>
        <time>2020-07-25T07:33:24.092Z</time>
      </trkpt>
      <trkpt lat="42.57243" lon="2.04295">
        <ele>2273</ele>
        <time>2020-07-25T07:33:25.092Z</time>
      </trkpt>
      <trkpt lat="42.57243" lon="2.04294">
        <ele>2273</ele>
        <time>2020-07-25T07:33:26.092Z</time>
      </trkpt>
      <trkpt lat="42.57244" lon="2.04293">
        <ele>2276</ele>
        <time>2020-07-25T07:33:27.045Z</time>
      </trkpt>
      <trkpt lat="42.57244" lon="2.04293">
        <ele>2275</ele>
        <time>2020-07-25T07:33:28.045Z</time>
      </trkpt>
      <trkpt lat="42.57244" lon="2.04292">
        <ele>2276</ele>
        <time>2020-07-25T07:33:29.045Z</time>
      </trkpt>
      <trkpt lat="42.57245" lon="2.04291">
        <ele>2277</ele>
        <time>2020-07-25T07:33:30.045Z</time>
      </trkpt>
      <trkpt lat="42.57247" lon="2.0429">
        <ele>2277</ele>
        <time>2020-07-25T07:33:31.045Z</time>
      </trkpt>
      <trkpt lat="42.57248" lon="2.04288">
        <ele>2277</ele>
        <time>2020-07-25T07:33:32.045Z</time>
      </trkpt>
      <trkpt lat="42.57249" lon="2.04287">
        <ele>2278</ele>
        <time>2020-07-25T07:33:33.045Z</time>
      </trkpt>
      <trkpt lat="42.5725" lon="2.04286">
        <ele>2278</ele>
        <time>2020-07-25T07:33:34.045Z</time>
      </trkpt>
      <trkpt lat="42.5725" lon="2.04284">
        <ele>2279</ele>
        <time>2020-07-25T07:33:35.045Z</time>
      </trkpt>
      <trkpt lat="42.57251" lon="2.04283">
        <ele>2279</ele>
        <time>2020-07-25T07:33:36.045Z</time>
      </trkpt>
      <trkpt lat="42.57252" lon="2.04281">
        <ele>2280</ele>
        <time>2020-07-25T07:33:37.045Z</time>
      </trkpt>
      <trkpt lat="42.57252" lon="2.0428">
        <ele>2280</ele>
        <time>2020-07-25T07:33:38.045Z</time>
      </trkpt>
      <trkpt lat="42.57253" lon="2.04279">
        <ele>2281</ele>
        <time>2020-07-25T07:33:39.045Z</time>
      </trkpt>
      <trkpt lat="42.57254" lon="2.04278">
        <ele>2281</ele>
        <time>2020-07-25T07:33:40.045Z</time>
      </trkpt>
      <trkpt lat="42.57255" lon="2.04277">
        <ele>2281</ele>
        <time>2020-07-25T07:33:41.045Z</time>
      </trkpt>
      <trkpt lat="42.57256" lon="2.04276">
        <ele>2282</ele>
        <time>2020-07-25T07:33:42.045Z</time>
      </trkpt>
      <trkpt lat="42.57257" lon="2.04275">
        <ele>2282</ele>
        <time>2020-07-25T07:33:43.045Z</time>
      </trkpt>
      <trkpt lat="42.57258" lon="2.04274">
        <ele>2283</ele>
        <time>2020-07-25T07:33:44.045Z</time>
      </trkpt>
      <trkpt lat="42.57259" lon="2.04273">
        <ele>2284</ele>
        <time>2020-07-25T07:33:45.045Z</time>
      </trkpt>
      <trkpt lat="42.57259" lon="2.04271">
        <ele>2284</ele>
        <time>2020-07-25T07:33:46.045Z</time>
      </trkpt>
      <trkpt lat="42.5726" lon="2.04269">
        <ele>2284</ele>
        <time>2020-07-25T07:33:47.045Z</time>
      </trkpt>
      <trkpt lat="42.57261" lon="2.04267">
        <ele>2285</ele>
        <time>2020-07-25T07:33:48.045Z</time>
      </trkpt>
      <trkpt lat="42.57262" lon="2.04265">
        <ele>2286</ele>
        <time>2020-07-25T07:33:49.045Z</time>
      </trkpt>
      <trkpt lat="42.57263" lon="2.04264">
        <ele>2286</ele>
        <time>2020-07-25T07:33:50.045Z</time>
      </trkpt>
      <trkpt lat="42.57264" lon="2.04263">
        <ele>2287</ele>
        <time>2020-07-25T07:33:51.045Z</time>
      </trkpt>
      <trkpt lat="42.57265" lon="2.04261">
        <ele>2288</ele>
        <time>2020-07-25T07:33:52.045Z</time>
      </trkpt>
      <trkpt lat="42.57266" lon="2.0426">
        <ele>2288</ele>
        <time>2020-07-25T07:33:53.045Z</time>
      </trkpt>
      <trkpt lat="42.57267" lon="2.04259">
        <ele>2289</ele>
        <time>2020-07-25T07:33:54.045Z</time>
      </trkpt>
      <trkpt lat="42.57267" lon="2.04258">
        <ele>2290</ele>
        <time>2020-07-25T07:33:55.045Z</time>
      </trkpt>
      <trkpt lat="42.57268" lon="2.04257">
        <ele>2290</ele>
        <time>2020-07-25T07:33:56.045Z</time>
      </trkpt>
      <trkpt lat="42.57269" lon="2.04255">
        <ele>2291</ele>
        <time>2020-07-25T07:33:57.045Z</time>
      </trkpt>
      <trkpt lat="42.5727" lon="2.04255">
        <ele>2291</ele>
        <time>2020-07-25T07:33:58.045Z</time>
      </trkpt>
      <trkpt lat="42.5727" lon="2.04253">
        <ele>2291</ele>
        <time>2020-07-25T07:33:59.045Z</time>
      </trkpt>
      <trkpt lat="42.57271" lon="2.04253">
        <ele>2291</ele>
        <time>2020-07-25T07:34:00.045Z</time>
      </trkpt>
      <trkpt lat="42.57272" lon="2.04252">
        <ele>2291</ele>
        <time>2020-07-25T07:34:01.045Z</time>
      </trkpt>
      <trkpt lat="42.57272" lon="2.04251">
        <ele>2291</ele>
        <time>2020-07-25T07:34:02.045Z</time>
      </trkpt>
      <trkpt lat="42.57272" lon="2.0425">
        <ele>2291</ele>
        <time>2020-07-25T07:34:03.045Z</time>
      </trkpt>
      <trkpt lat="42.57273" lon="2.0425">
        <ele>2291</ele>
        <time>2020-07-25T07:34:04.045Z</time>
      </trkpt>
      <trkpt lat="42.57273" lon="2.04249">
        <ele>2291</ele>
        <time>2020-07-25T07:34:05.045Z</time>
      </trkpt>
      <trkpt lat="42.57274" lon="2.04248">
        <ele>2292</ele>
        <time>2020-07-25T07:34:06.045Z</time>
      </trkpt>
      <trkpt lat="42.57274" lon="2.04247">
        <ele>2292</ele>
        <time>2020-07-25T07:34:07.045Z</time>
      </trkpt>
      <trkpt lat="42.57275" lon="2.04247">
        <ele>2293</ele>
        <time>2020-07-25T07:34:08.045Z</time>
      </trkpt>
      <trkpt lat="42.57275" lon="2.04246">
        <ele>2293</ele>
        <time>2020-07-25T07:34:09.045Z</time>
      </trkpt>
      <trkpt lat="42.57276" lon="2.04246">
        <ele>2293</ele>
        <time>2020-07-25T07:34:10.045Z</time>
      </trkpt>
      <trkpt lat="42.57277" lon="2.04246">
        <ele>2294</ele>
        <time>2020-07-25T07:34:11.045Z</time>
      </trkpt>
      <trkpt lat="42.57277" lon="2.04245">
        <ele>2294</ele>
        <time>2020-07-25T07:34:12.045Z</time>
      </trkpt>
      <trkpt lat="42.57278" lon="2.04244">
        <ele>2294</ele>
        <time>2020-07-25T07:34:13.045Z</time>
      </trkpt>
      <trkpt lat="42.57278" lon="2.04243">
        <ele>2295</ele>
        <time>2020-07-25T07:34:14.045Z</time>
      </trkpt>
      <trkpt lat="42.57279" lon="2.04243">
        <ele>2295</ele>
        <time>2020-07-25T07:34:15.045Z</time>
      </trkpt>
      <trkpt lat="42.5728" lon="2.04242">
        <ele>2295</ele>
        <time>2020-07-25T07:34:16.045Z</time>
      </trkpt>
      <trkpt lat="42.57281" lon="2.04242">
        <ele>2295</ele>
        <time>2020-07-25T07:34:17.045Z</time>
      </trkpt>
      <trkpt lat="42.57282" lon="2.04242">
        <ele>2295</ele>
        <time>2020-07-25T07:34:18.045Z</time>
      </trkpt>
      <trkpt lat="42.57283" lon="2.04242">
        <ele>2296</ele>
        <time>2020-07-25T07:34:19.045Z</time>
      </trkpt>
      <trkpt lat="42.57284" lon="2.04242">
        <ele>2296</ele>
        <time>2020-07-25T07:34:20.045Z</time>
      </trkpt>
      <trkpt lat="42.57285" lon="2.04242">
        <ele>2296</ele>
        <time>2020-07-25T07:34:21.045Z</time>
      </trkpt>
      <trkpt lat="42.57286" lon="2.04242">
        <ele>2296</ele>
        <time>2020-07-25T07:34:22.045Z</time>
      </trkpt>
      <trkpt lat="42.57287" lon="2.04242">
        <ele>2296</ele>
        <time>2020-07-25T07:34:23.045Z</time>
      </trkpt>
      <trkpt lat="42.57288" lon="2.04243">
        <ele>2296</ele>
        <time>2020-07-25T07:34:24.045Z</time>
      </trkpt>
      <trkpt lat="42.57288" lon="2.04243">
        <ele>2297</ele>
        <time>2020-07-25T07:34:25.045Z</time>
      </trkpt>
      <trkpt lat="42.57289" lon="2.04242">
        <ele>2297</ele>
        <time>2020-07-25T07:34:26.045Z</time>
      </trkpt>
      <trkpt lat="42.5729" lon="2.04242">
        <ele>2297</ele>
        <time>2020-07-25T07:34:27.045Z</time>
      </trkpt>
      <trkpt lat="42.57291" lon="2.04241">
        <ele>2297</ele>
        <time>2020-07-25T07:34:28.045Z</time>
      </trkpt>
      <trkpt lat="42.57292" lon="2.04241">
        <ele>2298</ele>
        <time>2020-07-25T07:34:29.045Z</time>
      </trkpt>
      <trkpt lat="42.57293" lon="2.04241">
        <ele>2297</ele>
        <time>2020-07-25T07:34:30.045Z</time>
      </trkpt>
      <trkpt lat="42.57293" lon="2.04241">
        <ele>2297</ele>
        <time>2020-07-25T07:34:31.045Z</time>
      </trkpt>
      <trkpt lat="42.57294" lon="2.04241">
        <ele>2298</ele>
        <time>2020-07-25T07:34:32.045Z</time>
      </trkpt>
      <trkpt lat="42.57294" lon="2.04241">
        <ele>2298</ele>
        <time>2020-07-25T07:34:33.045Z</time>
      </trkpt>
      <trkpt lat="42.57295" lon="2.0424">
        <ele>2298</ele>
        <time>2020-07-25T07:34:34.045Z</time>
      </trkpt>
      <trkpt lat="42.57295" lon="2.0424">
        <ele>2298</ele>
        <time>2020-07-25T07:34:35.045Z</time>
      </trkpt>
      <trkpt lat="42.57295" lon="2.04239">
        <ele>2299</ele>
        <time>2020-07-25T07:34:36.045Z</time>
      </trkpt>
      <trkpt lat="42.57296" lon="2.04238">
        <ele>2299</ele>
        <time>2020-07-25T07:34:37.045Z</time>
      </trkpt>
      <trkpt lat="42.57296" lon="2.04238">
        <ele>2299</ele>
        <time>2020-07-25T07:34:38.045Z</time>
      </trkpt>
      <trkpt lat="42.57297" lon="2.04237">
        <ele>2299</ele>
        <time>2020-07-25T07:34:39.045Z</time>
      </trkpt>
      <trkpt lat="42.57297" lon="2.04237">
        <ele>2300</ele>
        <time>2020-07-25T07:34:40.045Z</time>
      </trkpt>
      <trkpt lat="42.57297" lon="2.04236">
        <ele>2300</ele>
        <time>2020-07-25T07:34:41.045Z</time>
      </trkpt>
      <trkpt lat="42.57298" lon="2.04235">
        <ele>2300</ele>
        <time>2020-07-25T07:34:42.045Z</time>
      </trkpt>
      <trkpt lat="42.57298" lon="2.04234">
        <ele>2301</ele>
        <time>2020-07-25T07:34:43.045Z</time>
      </trkpt>
      <trkpt lat="42.57299" lon="2.04233">
        <ele>2301</ele>
        <time>2020-07-25T07:34:44.045Z</time>
      </trkpt>
      <trkpt lat="42.573" lon="2.04232">
        <ele>2302</ele>
        <time>2020-07-25T07:34:45.045Z</time>
      </trkpt>
      <trkpt lat="42.57302" lon="2.04231">
        <ele>2302</ele>
        <time>2020-07-25T07:34:46.045Z</time>
      </trkpt>
      <trkpt lat="42.57302" lon="2.0423">
        <ele>2303</ele>
        <time>2020-07-25T07:34:47.045Z</time>
      </trkpt>
      <trkpt lat="42.57303" lon="2.04229">
        <ele>2303</ele>
        <time>2020-07-25T07:34:48.045Z</time>
      </trkpt>
      <trkpt lat="42.57304" lon="2.04228">
        <ele>2303</ele>
        <time>2020-07-25T07:34:49.045Z</time>
      </trkpt>
      <trkpt lat="42.57305" lon="2.04227">
        <ele>2304</ele>
        <time>2020-07-25T07:34:50.045Z</time>
      </trkpt>
      <trkpt lat="42.57306" lon="2.04227">
        <ele>2304</ele>
        <time>2020-07-25T07:34:51.045Z</time>
      </trkpt>
      <trkpt lat="42.57306" lon="2.04226">
        <ele>2304</ele>
        <time>2020-07-25T07:34:52.045Z</time>
      </trkpt>
      <trkpt lat="42.57307" lon="2.04225">
        <ele>2304</ele>
        <time>2020-07-25T07:34:53.045Z</time>
      </trkpt>
      <trkpt lat="42.57308" lon="2.04224">
        <ele>2304</ele>
        <time>2020-07-25T07:34:54.045Z</time>
      </trkpt>
      <trkpt lat="42.57308" lon="2.04224">
        <ele>2304</ele>
        <time>2020-07-25T07:34:55.045Z</time>
      </trkpt>
      <trkpt lat="42.57309" lon="2.04223">
        <ele>2305</ele>
        <time>2020-07-25T07:34:56.045Z</time>
      </trkpt>
      <trkpt lat="42.5731" lon="2.04222">
        <ele>2305</ele>
        <time>2020-07-25T07:34:57.045Z</time>
      </trkpt>
      <trkpt lat="42.5731" lon="2.04221">
        <ele>2305</ele>
        <time>2020-07-25T07:34:58.045Z</time>
      </trkpt>
      <trkpt lat="42.57311" lon="2.04221">
        <ele>2305</ele>
        <time>2020-07-25T07:34:59.045Z</time>
      </trkpt>
      <trkpt lat="42.57311" lon="2.0422">
        <ele>2306</ele>
        <time>2020-07-25T07:35:00.045Z</time>
      </trkpt>
      <trkpt lat="42.57311" lon="2.04218">
        <ele>2306</ele>
        <time>2020-07-25T07:35:01.045Z</time>
      </trkpt>
      <trkpt lat="42.57311" lon="2.04217">
        <ele>2306</ele>
        <time>2020-07-25T07:35:02.045Z</time>
      </trkpt>
      <trkpt lat="42.57312" lon="2.04216">
        <ele>2306</ele>
        <time>2020-07-25T07:35:03.045Z</time>
      </trkpt>
      <trkpt lat="42.57312" lon="2.04215">
        <ele>2307</ele>
        <time>2020-07-25T07:35:04.045Z</time>
      </trkpt>
      <trkpt lat="42.57312" lon="2.04214">
        <ele>2307</ele>
        <time>2020-07-25T07:35:05.045Z</time>
      </trkpt>
      <trkpt lat="42.57312" lon="2.04213">
        <ele>2307</ele>
        <time>2020-07-25T07:35:06.045Z</time>
      </trkpt>
      <trkpt lat="42.57313" lon="2.04212">
        <ele>2307</ele>
        <time>2020-07-25T07:35:07.045Z</time>
      </trkpt>
      <trkpt lat="42.57313" lon="2.0421">
        <ele>2308</ele>
        <time>2020-07-25T07:35:08.045Z</time>
      </trkpt>
      <trkpt lat="42.57314" lon="2.04209">
        <ele>2307</ele>
        <time>2020-07-25T07:35:09.045Z</time>
      </trkpt>
      <trkpt lat="42.57314" lon="2.04208">
        <ele>2308</ele>
        <time>2020-07-25T07:35:10.045Z</time>
      </trkpt>
      <trkpt lat="42.57315" lon="2.04207">
        <ele>2308</ele>
        <time>2020-07-25T07:35:11.045Z</time>
      </trkpt>
      <trkpt lat="42.57315" lon="2.04206">
        <ele>2309</ele>
        <time>2020-07-25T07:35:12.045Z</time>
      </trkpt>
      <trkpt lat="42.57316" lon="2.04204">
        <ele>2309</ele>
        <time>2020-07-25T07:35:13.045Z</time>
      </trkpt>
      <trkpt lat="42.57317" lon="2.04203">
        <ele>2309</ele>
        <time>2020-07-25T07:35:14.045Z</time>
      </trkpt>
      <trkpt lat="42.57317" lon="2.04202">
        <ele>2309</ele>
        <time>2020-07-25T07:35:15.045Z</time>
      </trkpt>
      <trkpt lat="42.57318" lon="2.04201">
        <ele>2309</ele>
        <time>2020-07-25T07:35:16.045Z</time>
      </trkpt>
      <trkpt lat="42.57319" lon="2.04199">
        <ele>2310</ele>
        <time>2020-07-25T07:35:17.045Z</time>
      </trkpt>
      <trkpt lat="42.5732" lon="2.04197">
        <ele>2310</ele>
        <time>2020-07-25T07:35:18.045Z</time>
      </trkpt>
      <trkpt lat="42.57321" lon="2.04195">
        <ele>2311</ele>
        <time>2020-07-25T07:35:19.045Z</time>
      </trkpt>
      <trkpt lat="42.57323" lon="2.04194">
        <ele>2311</ele>
        <time>2020-07-25T07:35:20.045Z</time>
      </trkpt>
      <trkpt lat="42.57324" lon="2.04192">
        <ele>2312</ele>
        <time>2020-07-25T07:35:21.045Z</time>
      </trkpt>
      <trkpt lat="42.57325" lon="2.04191">
        <ele>2311</ele>
        <time>2020-07-25T07:35:22.045Z</time>
      </trkpt>
      <trkpt lat="42.57327" lon="2.0419">
        <ele>2312</ele>
        <time>2020-07-25T07:35:23.045Z</time>
      </trkpt>
      <trkpt lat="42.57328" lon="2.04189">
        <ele>2312</ele>
        <time>2020-07-25T07:35:24.045Z</time>
      </trkpt>
      <trkpt lat="42.57329" lon="2.04189">
        <ele>2312</ele>
        <time>2020-07-25T07:35:25.045Z</time>
      </trkpt>
      <trkpt lat="42.57331" lon="2.04189">
        <ele>2312</ele>
        <time>2020-07-25T07:35:26.045Z</time>
      </trkpt>
      <trkpt lat="42.57332" lon="2.04188">
        <ele>2312</ele>
        <time>2020-07-25T07:35:27.045Z</time>
      </trkpt>
      <trkpt lat="42.57334" lon="2.04188">
        <ele>2313</ele>
        <time>2020-07-25T07:35:28.045Z</time>
      </trkpt>
      <trkpt lat="42.57336" lon="2.04187">
        <ele>2313</ele>
        <time>2020-07-25T07:35:29.045Z</time>
      </trkpt>
      <trkpt lat="42.57338" lon="2.04187">
        <ele>2313</ele>
        <time>2020-07-25T07:35:30.045Z</time>
      </trkpt>
      <trkpt lat="42.57341" lon="2.04187">
        <ele>2313</ele>
        <time>2020-07-25T07:35:31.045Z</time>
      </trkpt>
      <trkpt lat="42.57343" lon="2.04187">
        <ele>2313</ele>
        <time>2020-07-25T07:35:32.045Z</time>
      </trkpt>
      <trkpt lat="42.57346" lon="2.04186">
        <ele>2314</ele>
        <time>2020-07-25T07:35:33.045Z</time>
      </trkpt>
      <trkpt lat="42.57348" lon="2.04186">
        <ele>2313</ele>
        <time>2020-07-25T07:35:34.045Z</time>
      </trkpt>
      <trkpt lat="42.57351" lon="2.04186">
        <ele>2314</ele>
        <time>2020-07-25T07:35:35.045Z</time>
      </trkpt>
      <trkpt lat="42.57354" lon="2.04186">
        <ele>2314</ele>
        <time>2020-07-25T07:35:36.045Z</time>
      </trkpt>
      <trkpt lat="42.57356" lon="2.04186">
        <ele>2314</ele>
        <time>2020-07-25T07:35:37.045Z</time>
      </trkpt>
      <trkpt lat="42.57358" lon="2.04185">
        <ele>2315</ele>
        <time>2020-07-25T07:35:38.045Z</time>
      </trkpt>
      <trkpt lat="42.57359" lon="2.04184">
        <ele>2316</ele>
        <time>2020-07-25T07:35:39.045Z</time>
      </trkpt>
      <trkpt lat="42.57361" lon="2.04183">
        <ele>2316</ele>
        <time>2020-07-25T07:35:40.045Z</time>
      </trkpt>
      <trkpt lat="42.57363" lon="2.04182">
        <ele>2317</ele>
        <time>2020-07-25T07:35:41.045Z</time>
      </trkpt>
      <trkpt lat="42.57365" lon="2.04181">
        <ele>2317</ele>
        <time>2020-07-25T07:35:42.045Z</time>
      </trkpt>
      <trkpt lat="42.57367" lon="2.0418">
        <ele>2317</ele>
        <time>2020-07-25T07:35:43.045Z</time>
      </trkpt>
      <trkpt lat="42.57369" lon="2.04178">
        <ele>2317</ele>
        <time>2020-07-25T07:35:44.045Z</time>
      </trkpt>
      <trkpt lat="42.57371" lon="2.04177">
        <ele>2318</ele>
        <time>2020-07-25T07:35:45.045Z</time>
      </trkpt>
      <trkpt lat="42.57372" lon="2.04175">
        <ele>2319</ele>
        <time>2020-07-25T07:35:46.045Z</time>
      </trkpt>
      <trkpt lat="42.57374" lon="2.04173">
        <ele>2319</ele>
        <time>2020-07-25T07:35:47.045Z</time>
      </trkpt>
      <trkpt lat="42.57375" lon="2.04171">
        <ele>2319</ele>
        <time>2020-07-25T07:35:48.045Z</time>
      </trkpt>
      <trkpt lat="42.57377" lon="2.04168">
        <ele>2320</ele>
        <time>2020-07-25T07:35:49.045Z</time>
      </trkpt>
      <trkpt lat="42.57379" lon="2.04166">
        <ele>2320</ele>
        <time>2020-07-25T07:35:50.045Z</time>
      </trkpt>
      <trkpt lat="42.5738" lon="2.04163">
        <ele>2320</ele>
        <time>2020-07-25T07:35:51.045Z</time>
      </trkpt>
      <trkpt lat="42.57382" lon="2.0416">
        <ele>2320</ele>
        <time>2020-07-25T07:35:52.045Z</time>
      </trkpt>
      <trkpt lat="42.57384" lon="2.04158">
        <ele>2321</ele>
        <time>2020-07-25T07:35:53.045Z</time>
      </trkpt>
      <trkpt lat="42.57386" lon="2.04156">
        <ele>2321</ele>
        <time>2020-07-25T07:35:54.045Z</time>
      </trkpt>
      <trkpt lat="42.57388" lon="2.04154">
        <ele>2322</ele>
        <time>2020-07-25T07:35:55.045Z</time>
      </trkpt>
      <trkpt lat="42.5739" lon="2.04151">
        <ele>2322</ele>
        <time>2020-07-25T07:35:56.045Z</time>
      </trkpt>
      <trkpt lat="42.57392" lon="2.04149">
        <ele>2322</ele>
        <time>2020-07-25T07:35:57.045Z</time>
      </trkpt>
      <trkpt lat="42.57394" lon="2.04147">
        <ele>2322</ele>
        <time>2020-07-25T07:35:58.045Z</time>
      </trkpt>
      <trkpt lat="42.57396" lon="2.04145">
        <ele>2322</ele>
        <time>2020-07-25T07:35:59.045Z</time>
      </trkpt>
      <trkpt lat="42.57398" lon="2.04143">
        <ele>2323</ele>
        <time>2020-07-25T07:36:00.045Z</time>
      </trkpt>
      <trkpt lat="42.574" lon="2.04141">
        <ele>2323</ele>
        <time>2020-07-25T07:36:01.045Z</time>
      </trkpt>
      <trkpt lat="42.57403" lon="2.04139">
        <ele>2323</ele>
        <time>2020-07-25T07:36:02.045Z</time>
      </trkpt>
      <trkpt lat="42.57405" lon="2.04136">
        <ele>2323</ele>
        <time>2020-07-25T07:36:03.045Z</time>
      </trkpt>
      <trkpt lat="42.57408" lon="2.04134">
        <ele>2322</ele>
        <time>2020-07-25T07:36:04.045Z</time>
      </trkpt>
      <trkpt lat="42.57411" lon="2.04132">
        <ele>2322</ele>
        <time>2020-07-25T07:36:05.045Z</time>
      </trkpt>
      <trkpt lat="42.57413" lon="2.0413">
        <ele>2323</ele>
        <time>2020-07-25T07:36:06.045Z</time>
      </trkpt>
      <trkpt lat="42.57416" lon="2.04127">
        <ele>2323</ele>
        <time>2020-07-25T07:36:07.045Z</time>
      </trkpt>
      <trkpt lat="42.57417" lon="2.04125">
        <ele>2323</ele>
        <time>2020-07-25T07:36:08.045Z</time>
      </trkpt>
      <trkpt lat="42.57419" lon="2.04123">
        <ele>2324</ele>
        <time>2020-07-25T07:36:09.045Z</time>
      </trkpt>
      <trkpt lat="42.5742" lon="2.04121">
        <ele>2324</ele>
        <time>2020-07-25T07:36:10.045Z</time>
      </trkpt>
      <trkpt lat="42.5742" lon="2.04119">
        <ele>2324</ele>
        <time>2020-07-25T07:36:11.045Z</time>
      </trkpt>
      <trkpt lat="42.57421" lon="2.04117">
        <ele>2324</ele>
        <time>2020-07-25T07:36:12.045Z</time>
      </trkpt>
      <trkpt lat="42.57421" lon="2.04114">
        <ele>2324</ele>
        <time>2020-07-25T07:36:13.045Z</time>
      </trkpt>
      <trkpt lat="42.5742" lon="2.04112">
        <ele>2324</ele>
        <time>2020-07-25T07:36:14.045Z</time>
      </trkpt>
      <trkpt lat="42.5742" lon="2.04109">
        <ele>2324</ele>
        <time>2020-07-25T07:36:15.045Z</time>
      </trkpt>
      <trkpt lat="42.5742" lon="2.04106">
        <ele>2324</ele>
        <time>2020-07-25T07:36:16.045Z</time>
      </trkpt>
      <trkpt lat="42.57419" lon="2.04103">
        <ele>2325</ele>
        <time>2020-07-25T07:36:17.045Z</time>
      </trkpt>
      <trkpt lat="42.57418" lon="2.04101">
        <ele>2324</ele>
        <time>2020-07-25T07:36:18.045Z</time>
      </trkpt>
      <trkpt lat="42.57416" lon="2.04099">
        <ele>2324</ele>
        <time>2020-07-25T07:36:19.045Z</time>
      </trkpt>
      <trkpt lat="42.57414" lon="2.04097">
        <ele>2324</ele>
        <time>2020-07-25T07:36:20.045Z</time>
      </trkpt>
      <trkpt lat="42.57412" lon="2.04096">
        <ele>2324</ele>
        <time>2020-07-25T07:36:21.045Z</time>
      </trkpt>
      <trkpt lat="42.5741" lon="2.04095">
        <ele>2324</ele>
        <time>2020-07-25T07:36:22.045Z</time>
      </trkpt>
      <trkpt lat="42.57407" lon="2.04094">
        <ele>2324</ele>
        <time>2020-07-25T07:36:23.045Z</time>
      </trkpt>
      <trkpt lat="42.57405" lon="2.04093">
        <ele>2324</ele>
        <time>2020-07-25T07:36:24.045Z</time>
      </trkpt>
      <trkpt lat="42.57403" lon="2.04093">
        <ele>2325</ele>
        <time>2020-07-25T07:36:25.045Z</time>
      </trkpt>
      <trkpt lat="42.574" lon="2.04093">
        <ele>2325</ele>
        <time>2020-07-25T07:36:26.045Z</time>
      </trkpt>
      <trkpt lat="42.57398" lon="2.04093">
        <ele>2325</ele>
        <time>2020-07-25T07:36:27.045Z</time>
      </trkpt>
      <trkpt lat="42.57395" lon="2.04093">
        <ele>2325</ele>
        <time>2020-07-25T07:36:28.045Z</time>
      </trkpt>
      <trkpt lat="42.57393" lon="2.04093">
        <ele>2326</ele>
        <time>2020-07-25T07:36:29.045Z</time>
      </trkpt>
      <trkpt lat="42.5739" lon="2.04093">
        <ele>2327</ele>
        <time>2020-07-25T07:36:30.045Z</time>
      </trkpt>
      <trkpt lat="42.57387" lon="2.04093">
        <ele>2327</ele>
        <time>2020-07-25T07:36:31.045Z</time>
      </trkpt>
      <trkpt lat="42.57385" lon="2.04093">
        <ele>2327</ele>
        <time>2020-07-25T07:36:32.045Z</time>
      </trkpt>
      <trkpt lat="42.57382" lon="2.04094">
        <ele>2328</ele>
        <time>2020-07-25T07:36:33.045Z</time>
      </trkpt>
      <trkpt lat="42.5738" lon="2.04094">
        <ele>2328</ele>
        <time>2020-07-25T07:36:34.045Z</time>
      </trkpt>
      <trkpt lat="42.57378" lon="2.04094">
        <ele>2329</ele>
        <time>2020-07-25T07:36:35.045Z</time>
      </trkpt>
      <trkpt lat="42.57376" lon="2.04094">
        <ele>2328</ele>
        <time>2020-07-25T07:36:36.045Z</time>
      </trkpt>
      <trkpt lat="42.57375" lon="2.04094">
        <ele>2327</ele>
        <time>2020-07-25T07:36:37.045Z</time>
      </trkpt>
      <trkpt lat="42.57371" lon="2.04095">
        <ele>2330</ele>
        <time>2020-07-25T07:36:38.014Z</time>
      </trkpt>
      <trkpt lat="42.57372" lon="2.04094">
        <ele>2329</ele>
        <time>2020-07-25T07:36:39.014Z</time>
      </trkpt>
      <trkpt lat="42.57373" lon="2.04092">
        <ele>2328</ele>
        <time>2020-07-25T07:36:40.014Z</time>
      </trkpt>
      <trkpt lat="42.57373" lon="2.0409">
        <ele>2328</ele>
        <time>2020-07-25T07:36:41.014Z</time>
      </trkpt>
      <trkpt lat="42.57375" lon="2.04087">
        <ele>2328</ele>
        <time>2020-07-25T07:36:42.014Z</time>
      </trkpt>
      <trkpt lat="42.57376" lon="2.04083">
        <ele>2328</ele>
        <time>2020-07-25T07:36:43.014Z</time>
      </trkpt>
      <trkpt lat="42.57378" lon="2.0408">
        <ele>2328</ele>
        <time>2020-07-25T07:36:44.014Z</time>
      </trkpt>
      <trkpt lat="42.5738" lon="2.04077">
        <ele>2328</ele>
        <time>2020-07-25T07:36:45.014Z</time>
      </trkpt>
      <trkpt lat="42.57382" lon="2.04074">
        <ele>2327</ele>
        <time>2020-07-25T07:36:46.014Z</time>
      </trkpt>
      <trkpt lat="42.57384" lon="2.04071">
        <ele>2328</ele>
        <time>2020-07-25T07:36:47.014Z</time>
      </trkpt>
      <trkpt lat="42.57386" lon="2.04068">
        <ele>2328</ele>
        <time>2020-07-25T07:36:48.014Z</time>
      </trkpt>
      <trkpt lat="42.57388" lon="2.04065">
        <ele>2329</ele>
        <time>2020-07-25T07:36:49.014Z</time>
      </trkpt>
      <trkpt lat="42.5739" lon="2.04062">
        <ele>2329</ele>
        <time>2020-07-25T07:36:50.014Z</time>
      </trkpt>
      <trkpt lat="42.57392" lon="2.04059">
        <ele>2329</ele>
        <time>2020-07-25T07:36:51.014Z</time>
      </trkpt>
      <trkpt lat="42.57393" lon="2.04056">
        <ele>2330</ele>
        <time>2020-07-25T07:36:52.014Z</time>
      </trkpt>
      <trkpt lat="42.57395" lon="2.04054">
        <ele>2330</ele>
        <time>2020-07-25T07:36:53.014Z</time>
      </trkpt>
      <trkpt lat="42.57397" lon="2.04051">
        <ele>2330</ele>
        <time>2020-07-25T07:36:54.014Z</time>
      </trkpt>
      <trkpt lat="42.57399" lon="2.04049">
        <ele>2330</ele>
        <time>2020-07-25T07:36:55.014Z</time>
      </trkpt>
      <trkpt lat="42.574" lon="2.04047">
        <ele>2330</ele>
        <time>2020-07-25T07:36:56.014Z</time>
      </trkpt>
      <trkpt lat="42.57402" lon="2.04045">
        <ele>2330</ele>
        <time>2020-07-25T07:36:57.014Z</time>
      </trkpt>
      <trkpt lat="42.57404" lon="2.04043">
        <ele>2330</ele>
        <time>2020-07-25T07:36:58.014Z</time>
      </trkpt>
      <trkpt lat="42.57406" lon="2.0404">
        <ele>2330</ele>
        <time>2020-07-25T07:36:59.014Z</time>
      </trkpt>
      <trkpt lat="42.57407" lon="2.04038">
        <ele>2330</ele>
        <time>2020-07-25T07:37:00.014Z</time>
      </trkpt>
      <trkpt lat="42.57409" lon="2.04035">
        <ele>2330</ele>
        <time>2020-07-25T07:37:01.014Z</time>
      </trkpt>
      <trkpt lat="42.57411" lon="2.04032">
        <ele>2329</ele>
        <time>2020-07-25T07:37:02.014Z</time>
      </trkpt>
      <trkpt lat="42.57413" lon="2.0403">
        <ele>2329</ele>
        <time>2020-07-25T07:37:03.014Z</time>
      </trkpt>
      <trkpt lat="42.57415" lon="2.04027">
        <ele>2329</ele>
        <time>2020-07-25T07:37:04.014Z</time>
      </trkpt>
      <trkpt lat="42.57417" lon="2.04024">
        <ele>2329</ele>
        <time>2020-07-25T07:37:05.014Z</time>
      </trkpt>
      <trkpt lat="42.57419" lon="2.04021">
        <ele>2328</ele>
        <time>2020-07-25T07:37:06.014Z</time>
      </trkpt>
      <trkpt lat="42.57421" lon="2.04017">
        <ele>2328</ele>
        <time>2020-07-25T07:37:07.014Z</time>
      </trkpt>
      <trkpt lat="42.57423" lon="2.04014">
        <ele>2327</ele>
        <time>2020-07-25T07:37:08.014Z</time>
      </trkpt>
      <trkpt lat="42.57425" lon="2.04011">
        <ele>2327</ele>
        <time>2020-07-25T07:37:09.014Z</time>
      </trkpt>
      <trkpt lat="42.57427" lon="2.04007">
        <ele>2326</ele>
        <time>2020-07-25T07:37:10.014Z</time>
      </trkpt>
      <trkpt lat="42.57429" lon="2.04004">
        <ele>2326</ele>
        <time>2020-07-25T07:37:11.014Z</time>
      </trkpt>
      <trkpt lat="42.57431" lon="2.04">
        <ele>2326</ele>
        <time>2020-07-25T07:37:12.014Z</time>
      </trkpt>
      <trkpt lat="42.57433" lon="2.03997">
        <ele>2326</ele>
        <time>2020-07-25T07:37:13.014Z</time>
      </trkpt>
      <trkpt lat="42.57435" lon="2.03993">
        <ele>2325</ele>
        <time>2020-07-25T07:37:14.014Z</time>
      </trkpt>
      <trkpt lat="42.57437" lon="2.03989">
        <ele>2325</ele>
        <time>2020-07-25T07:37:15.014Z</time>
      </trkpt>
      <trkpt lat="42.57439" lon="2.03986">
        <ele>2325</ele>
        <time>2020-07-25T07:37:16.014Z</time>
      </trkpt>
      <trkpt lat="42.57441" lon="2.03982">
        <ele>2325</ele>
        <time>2020-07-25T07:37:17.014Z</time>
      </trkpt>
      <trkpt lat="42.57442" lon="2.03978">
        <ele>2324</ele>
        <time>2020-07-25T07:37:18.014Z</time>
      </trkpt>
      <trkpt lat="42.57443" lon="2.03973">
        <ele>2323</ele>
        <time>2020-07-25T07:37:19.014Z</time>
      </trkpt>
      <trkpt lat="42.57443" lon="2.03969">
        <ele>2322</ele>
        <time>2020-07-25T07:37:20.014Z</time>
      </trkpt>
      <trkpt lat="42.57444" lon="2.03965">
        <ele>2324</ele>
        <time>2020-07-25T07:37:21.014Z</time>
      </trkpt>
      <trkpt lat="42.57443" lon="2.03963">
        <ele>2322</ele>
        <time>2020-07-25T07:37:22.077Z</time>
      </trkpt>
      <trkpt lat="42.57444" lon="2.03962">
        <ele>2322</ele>
        <time>2020-07-25T07:37:23.077Z</time>
      </trkpt>
      <trkpt lat="42.57443" lon="2.03959">
        <ele>2322</ele>
        <time>2020-07-25T07:37:24.077Z</time>
      </trkpt>
      <trkpt lat="42.57443" lon="2.03955">
        <ele>2322</ele>
        <time>2020-07-25T07:37:25.077Z</time>
      </trkpt>
      <trkpt lat="42.57444" lon="2.03951">
        <ele>2322</ele>
        <time>2020-07-25T07:37:26.077Z</time>
      </trkpt>
      <trkpt lat="42.57444" lon="2.03947">
        <ele>2322</ele>
        <time>2020-07-25T07:37:27.077Z</time>
      </trkpt>
      <trkpt lat="42.57445" lon="2.03942">
        <ele>2322</ele>
        <time>2020-07-25T07:37:28.077Z</time>
      </trkpt>
      <trkpt lat="42.57447" lon="2.03938">
        <ele>2322</ele>
        <time>2020-07-25T07:37:29.077Z</time>
      </trkpt>
      <trkpt lat="42.57448" lon="2.03934">
        <ele>2322</ele>
        <time>2020-07-25T07:37:30.077Z</time>
      </trkpt>
      <trkpt lat="42.57449" lon="2.03929">
        <ele>2323</ele>
        <time>2020-07-25T07:37:31.077Z</time>
      </trkpt>
      <trkpt lat="42.57451" lon="2.03925">
        <ele>2323</ele>
        <time>2020-07-25T07:37:32.077Z</time>
      </trkpt>
      <trkpt lat="42.57452" lon="2.03921">
        <ele>2323</ele>
        <time>2020-07-25T07:37:33.077Z</time>
      </trkpt>
      <trkpt lat="42.57454" lon="2.03918">
        <ele>2323</ele>
        <time>2020-07-25T07:37:34.077Z</time>
      </trkpt>
      <trkpt lat="42.57457" lon="2.03914">
        <ele>2323</ele>
        <time>2020-07-25T07:37:35.077Z</time>
      </trkpt>
      <trkpt lat="42.57458" lon="2.0391">
        <ele>2323</ele>
        <time>2020-07-25T07:37:36.077Z</time>
      </trkpt>
      <trkpt lat="42.5746" lon="2.03906">
        <ele>2323</ele>
        <time>2020-07-25T07:37:37.077Z</time>
      </trkpt>
      <trkpt lat="42.57461" lon="2.03902">
        <ele>2324</ele>
        <time>2020-07-25T07:37:38.077Z</time>
      </trkpt>
      <trkpt lat="42.57462" lon="2.03898">
        <ele>2323</ele>
        <time>2020-07-25T07:37:39.077Z</time>
      </trkpt>
      <trkpt lat="42.57463" lon="2.03893">
        <ele>2323</ele>
        <time>2020-07-25T07:37:40.077Z</time>
      </trkpt>
      <trkpt lat="42.57464" lon="2.03888">
        <ele>2323</ele>
        <time>2020-07-25T07:37:41.077Z</time>
      </trkpt>
      <trkpt lat="42.57465" lon="2.03884">
        <ele>2323</ele>
        <time>2020-07-25T07:37:42.077Z</time>
      </trkpt>
      <trkpt lat="42.57465" lon="2.03879">
        <ele>2323</ele>
        <time>2020-07-25T07:37:43.077Z</time>
      </trkpt>
      <trkpt lat="42.57465" lon="2.03875">
        <ele>2322</ele>
        <time>2020-07-25T07:37:44.077Z</time>
      </trkpt>
      <trkpt lat="42.57466" lon="2.0387">
        <ele>2323</ele>
        <time>2020-07-25T07:37:45.077Z</time>
      </trkpt>
      <trkpt lat="42.57467" lon="2.03865">
        <ele>2323</ele>
        <time>2020-07-25T07:37:46.077Z</time>
      </trkpt>
      <trkpt lat="42.57468" lon="2.0386">
        <ele>2323</ele>
        <time>2020-07-25T07:37:47.077Z</time>
      </trkpt>
      <trkpt lat="42.57468" lon="2.03855">
        <ele>2322</ele>
        <time>2020-07-25T07:37:48.077Z</time>
      </trkpt>
      <trkpt lat="42.57469" lon="2.0385">
        <ele>2322</ele>
        <time>2020-07-25T07:37:49.077Z</time>
      </trkpt>
      <trkpt lat="42.5747" lon="2.03845">
        <ele>2322</ele>
        <time>2020-07-25T07:37:50.077Z</time>
      </trkpt>
      <trkpt lat="42.57471" lon="2.0384">
        <ele>2323</ele>
        <time>2020-07-25T07:37:51.077Z</time>
      </trkpt>
      <trkpt lat="42.57473" lon="2.03836">
        <ele>2323</ele>
        <time>2020-07-25T07:37:52.077Z</time>
      </trkpt>
      <trkpt lat="42.57475" lon="2.03832">
        <ele>2323</ele>
        <time>2020-07-25T07:37:53.077Z</time>
      </trkpt>
      <trkpt lat="42.57476" lon="2.03828">
        <ele>2323</ele>
        <time>2020-07-25T07:37:54.077Z</time>
      </trkpt>
      <trkpt lat="42.57478" lon="2.03824">
        <ele>2323</ele>
        <time>2020-07-25T07:37:55.077Z</time>
      </trkpt>
      <trkpt lat="42.5748" lon="2.0382">
        <ele>2323</ele>
        <time>2020-07-25T07:37:56.077Z</time>
      </trkpt>
      <trkpt lat="42.57483" lon="2.03817">
        <ele>2323</ele>
        <time>2020-07-25T07:37:57.077Z</time>
      </trkpt>
      <trkpt lat="42.57485" lon="2.03813">
        <ele>2323</ele>
        <time>2020-07-25T07:37:58.077Z</time>
      </trkpt>
      <trkpt lat="42.57487" lon="2.03809">
        <ele>2323</ele>
        <time>2020-07-25T07:37:59.077Z</time>
      </trkpt>
      <trkpt lat="42.57489" lon="2.03805">
        <ele>2323</ele>
        <time>2020-07-25T07:38:00.077Z</time>
      </trkpt>
      <trkpt lat="42.57492" lon="2.03801">
        <ele>2322</ele>
        <time>2020-07-25T07:38:01.077Z</time>
      </trkpt>
      <trkpt lat="42.57494" lon="2.03798">
        <ele>2322</ele>
        <time>2020-07-25T07:38:02.077Z</time>
      </trkpt>
      <trkpt lat="42.57497" lon="2.03794">
        <ele>2321</ele>
        <time>2020-07-25T07:38:03.077Z</time>
      </trkpt>
      <trkpt lat="42.57499" lon="2.03791">
        <ele>2321</ele>
        <time>2020-07-25T07:38:04.077Z</time>
      </trkpt>
      <trkpt lat="42.57502" lon="2.03787">
        <ele>2322</ele>
        <time>2020-07-25T07:38:05.077Z</time>
      </trkpt>
      <trkpt lat="42.57505" lon="2.03783">
        <ele>2322</ele>
        <time>2020-07-25T07:38:06.077Z</time>
      </trkpt>
      <trkpt lat="42.57507" lon="2.03779">
        <ele>2322</ele>
        <time>2020-07-25T07:38:07.077Z</time>
      </trkpt>
      <trkpt lat="42.5751" lon="2.03775">
        <ele>2322</ele>
        <time>2020-07-25T07:38:08.077Z</time>
      </trkpt>
      <trkpt lat="42.57512" lon="2.03771">
        <ele>2322</ele>
        <time>2020-07-25T07:38:09.077Z</time>
      </trkpt>
      <trkpt lat="42.57515" lon="2.03768">
        <ele>2323</ele>
        <time>2020-07-25T07:38:10.077Z</time>
      </trkpt>
      <trkpt lat="42.57517" lon="2.03764">
        <ele>2323</ele>
        <time>2020-07-25T07:38:11.077Z</time>
      </trkpt>
      <trkpt lat="42.5752" lon="2.0376">
        <ele>2324</ele>
        <time>2020-07-25T07:38:12.077Z</time>
      </trkpt>
      <trkpt lat="42.57522" lon="2.03756">
        <ele>2324</ele>
        <time>2020-07-25T07:38:13.077Z</time>
      </trkpt>
      <trkpt lat="42.57524" lon="2.03752">
        <ele>2324</ele>
        <time>2020-07-25T07:38:14.077Z</time>
      </trkpt>
      <trkpt lat="42.57526" lon="2.03748">
        <ele>2324</ele>
        <time>2020-07-25T07:38:15.077Z</time>
      </trkpt>
      <trkpt lat="42.57528" lon="2.03744">
        <ele>2324</ele>
        <time>2020-07-25T07:38:16.077Z</time>
      </trkpt>
      <trkpt lat="42.5753" lon="2.0374">
        <ele>2324</ele>
        <time>2020-07-25T07:38:17.077Z</time>
      </trkpt>
      <trkpt lat="42.57532" lon="2.03736">
        <ele>2325</ele>
        <time>2020-07-25T07:38:18.077Z</time>
      </trkpt>
      <trkpt lat="42.57534" lon="2.03732">
        <ele>2325</ele>
        <time>2020-07-25T07:38:19.077Z</time>
      </trkpt>
      <trkpt lat="42.57535" lon="2.03727">
        <ele>2325</ele>
        <time>2020-07-25T07:38:20.077Z</time>
      </trkpt>
      <trkpt lat="42.57538" lon="2.03723">
        <ele>2326</ele>
        <time>2020-07-25T07:38:21.077Z</time>
      </trkpt>
      <trkpt lat="42.5754" lon="2.0372">
        <ele>2326</ele>
        <time>2020-07-25T07:38:22.077Z</time>
      </trkpt>
      <trkpt lat="42.57541" lon="2.03716">
        <ele>2325</ele>
        <time>2020-07-25T07:38:23.077Z</time>
      </trkpt>
      <trkpt lat="42.57544" lon="2.03712">
        <ele>2325</ele>
        <time>2020-07-25T07:38:24.077Z</time>
      </trkpt>
      <trkpt lat="42.57546" lon="2.03708">
        <ele>2325</ele>
        <time>2020-07-25T07:38:25.077Z</time>
      </trkpt>
      <trkpt lat="42.57548" lon="2.03704">
        <ele>2325</ele>
        <time>2020-07-25T07:38:26.077Z</time>
      </trkpt>
      <trkpt lat="42.57551" lon="2.03701">
        <ele>2325</ele>
        <time>2020-07-25T07:38:27.077Z</time>
      </trkpt>
      <trkpt lat="42.57553" lon="2.03697">
        <ele>2325</ele>
        <time>2020-07-25T07:38:28.077Z</time>
      </trkpt>
      <trkpt lat="42.57555" lon="2.03693">
        <ele>2325</ele>
        <time>2020-07-25T07:38:29.077Z</time>
      </trkpt>
      <trkpt lat="42.57556" lon="2.0369">
        <ele>2325</ele>
        <time>2020-07-25T07:38:30.077Z</time>
      </trkpt>
      <trkpt lat="42.57558" lon="2.03687">
        <ele>2325</ele>
        <time>2020-07-25T07:38:31.077Z</time>
      </trkpt>
      <trkpt lat="42.57558" lon="2.03684">
        <ele>2324</ele>
        <time>2020-07-25T07:38:32.077Z</time>
      </trkpt>
      <trkpt lat="42.57559" lon="2.03683">
        <ele>2325</ele>
        <time>2020-07-25T07:38:33.077Z</time>
      </trkpt>
      <trkpt lat="42.57559" lon="2.03683">
        <ele>2324</ele>
        <time>2020-07-25T07:38:34.077Z</time>
      </trkpt>
      <trkpt lat="42.57559" lon="2.03683">
        <ele>2324</ele>
        <time>2020-07-25T07:38:35.077Z</time>
      </trkpt>
      <trkpt lat="42.57559" lon="2.03682">
        <ele>2324</ele>
        <time>2020-07-25T07:38:36.077Z</time>
      </trkpt>
      <trkpt lat="42.57559" lon="2.03682">
        <ele>2323</ele>
        <time>2020-07-25T07:38:37.077Z</time>
      </trkpt>
      <trkpt lat="42.5756" lon="2.0368">
        <ele>2322</ele>
        <time>2020-07-25T07:38:38.077Z</time>
      </trkpt>
      <trkpt lat="42.57561" lon="2.03678">
        <ele>2321</ele>
        <time>2020-07-25T07:38:39.077Z</time>
      </trkpt>
      <trkpt lat="42.57563" lon="2.03674">
        <ele>2321</ele>
        <time>2020-07-25T07:38:40.077Z</time>
      </trkpt>
      <trkpt lat="42.57564" lon="2.0367">
        <ele>2321</ele>
        <time>2020-07-25T07:38:41.077Z</time>
      </trkpt>
      <trkpt lat="42.57566" lon="2.03666">
        <ele>2321</ele>
        <time>2020-07-25T07:38:42.077Z</time>
      </trkpt>
      <trkpt lat="42.57567" lon="2.03662">
        <ele>2321</ele>
        <time>2020-07-25T07:38:43.077Z</time>
      </trkpt>
      <trkpt lat="42.57569" lon="2.03658">
        <ele>2321</ele>
        <time>2020-07-25T07:38:44.077Z</time>
      </trkpt>
      <trkpt lat="42.5757" lon="2.03653">
        <ele>2322</ele>
        <time>2020-07-25T07:38:45.077Z</time>
      </trkpt>
      <trkpt lat="42.57572" lon="2.03649">
        <ele>2322</ele>
        <time>2020-07-25T07:38:46.077Z</time>
      </trkpt>
      <trkpt lat="42.57573" lon="2.03645">
        <ele>2322</ele>
        <time>2020-07-25T07:38:47.077Z</time>
      </trkpt>
      <trkpt lat="42.57574" lon="2.03641">
        <ele>2322</ele>
        <time>2020-07-25T07:38:48.077Z</time>
      </trkpt>
      <trkpt lat="42.57575" lon="2.03637">
        <ele>2323</ele>
        <time>2020-07-25T07:38:49.077Z</time>
      </trkpt>
      <trkpt lat="42.57576" lon="2.03633">
        <ele>2323</ele>
        <time>2020-07-25T07:38:50.077Z</time>
      </trkpt>
      <trkpt lat="42.57577" lon="2.03629">
        <ele>2323</ele>
        <time>2020-07-25T07:38:51.077Z</time>
      </trkpt>
      <trkpt lat="42.57578" lon="2.03625">
        <ele>2323</ele>
        <time>2020-07-25T07:38:52.077Z</time>
      </trkpt>
      <trkpt lat="42.57579" lon="2.03621">
        <ele>2323</ele>
        <time>2020-07-25T07:38:53.077Z</time>
      </trkpt>
      <trkpt lat="42.5758" lon="2.03617">
        <ele>2324</ele>
        <time>2020-07-25T07:38:54.077Z</time>
      </trkpt>
      <trkpt lat="42.57581" lon="2.03613">
        <ele>2324</ele>
        <time>2020-07-25T07:38:55.077Z</time>
      </trkpt>
      <trkpt lat="42.57582" lon="2.03609">
        <ele>2324</ele>
        <time>2020-07-25T07:38:56.077Z</time>
      </trkpt>
      <trkpt lat="42.57583" lon="2.03605">
        <ele>2325</ele>
        <time>2020-07-25T07:38:57.077Z</time>
      </trkpt>
      <trkpt lat="42.57584" lon="2.03601">
        <ele>2324</ele>
        <time>2020-07-25T07:38:58.077Z</time>
      </trkpt>
      <trkpt lat="42.57585" lon="2.03597">
        <ele>2324</ele>
        <time>2020-07-25T07:38:59.077Z</time>
      </trkpt>
      <trkpt lat="42.57586" lon="2.03593">
        <ele>2324</ele>
        <time>2020-07-25T07:39:00.077Z</time>
      </trkpt>
      <trkpt lat="42.57587" lon="2.03589">
        <ele>2324</ele>
        <time>2020-07-25T07:39:01.077Z</time>
      </trkpt>
      <trkpt lat="42.57588" lon="2.03585">
        <ele>2324</ele>
        <time>2020-07-25T07:39:02.077Z</time>
      </trkpt>
      <trkpt lat="42.57589" lon="2.03581">
        <ele>2324</ele>
        <time>2020-07-25T07:39:03.077Z</time>
      </trkpt>
      <trkpt lat="42.57591" lon="2.03577">
        <ele>2325</ele>
        <time>2020-07-25T07:39:04.077Z</time>
      </trkpt>
      <trkpt lat="42.57591" lon="2.03573">
        <ele>2325</ele>
        <time>2020-07-25T07:39:05.077Z</time>
      </trkpt>
      <trkpt lat="42.57592" lon="2.03569">
        <ele>2325</ele>
        <time>2020-07-25T07:39:06.077Z</time>
      </trkpt>
      <trkpt lat="42.57593" lon="2.03565">
        <ele>2325</ele>
        <time>2020-07-25T07:39:07.077Z</time>
      </trkpt>
      <trkpt lat="42.57595" lon="2.03561">
        <ele>2326</ele>
        <time>2020-07-25T07:39:08.077Z</time>
      </trkpt>
      <trkpt lat="42.57596" lon="2.03556">
        <ele>2326</ele>
        <time>2020-07-25T07:39:09.077Z</time>
      </trkpt>
      <trkpt lat="42.57598" lon="2.03552">
        <ele>2327</ele>
        <time>2020-07-25T07:39:10.077Z</time>
      </trkpt>
      <trkpt lat="42.57599" lon="2.03548">
        <ele>2327</ele>
        <time>2020-07-25T07:39:11.077Z</time>
      </trkpt>
      <trkpt lat="42.576" lon="2.03544">
        <ele>2327</ele>
        <time>2020-07-25T07:39:12.077Z</time>
      </trkpt>
      <trkpt lat="42.57601" lon="2.0354">
        <ele>2328</ele>
        <time>2020-07-25T07:39:13.077Z</time>
      </trkpt>
      <trkpt lat="42.57601" lon="2.03536">
        <ele>2329</ele>
        <time>2020-07-25T07:39:14.077Z</time>
      </trkpt>
      <trkpt lat="42.57602" lon="2.03531">
        <ele>2330</ele>
        <time>2020-07-25T07:39:15.077Z</time>
      </trkpt>
      <trkpt lat="42.57603" lon="2.03527">
        <ele>2331</ele>
        <time>2020-07-25T07:39:16.077Z</time>
      </trkpt>
      <trkpt lat="42.57603" lon="2.03523">
        <ele>2331</ele>
        <time>2020-07-25T07:39:17.077Z</time>
      </trkpt>
      <trkpt lat="42.57604" lon="2.03519">
        <ele>2332</ele>
        <time>2020-07-25T07:39:18.077Z</time>
      </trkpt>
      <trkpt lat="42.57604" lon="2.03515">
        <ele>2332</ele>
        <time>2020-07-25T07:39:19.077Z</time>
      </trkpt>
      <trkpt lat="42.57605" lon="2.03511">
        <ele>2332</ele>
        <time>2020-07-25T07:39:20.077Z</time>
      </trkpt>
      <trkpt lat="42.57605" lon="2.03507">
        <ele>2333</ele>
        <time>2020-07-25T07:39:21.077Z</time>
      </trkpt>
      <trkpt lat="42.57605" lon="2.03503">
        <ele>2332</ele>
        <time>2020-07-25T07:39:22.077Z</time>
      </trkpt>
      <trkpt lat="42.57605" lon="2.03499">
        <ele>2333</ele>
        <time>2020-07-25T07:39:23.077Z</time>
      </trkpt>
      <trkpt lat="42.57606" lon="2.03495">
        <ele>2333</ele>
        <time>2020-07-25T07:39:24.077Z</time>
      </trkpt>
      <trkpt lat="42.57606" lon="2.03491">
        <ele>2333</ele>
        <time>2020-07-25T07:39:25.077Z</time>
      </trkpt>
      <trkpt lat="42.57606" lon="2.03488">
        <ele>2333</ele>
        <time>2020-07-25T07:39:26.077Z</time>
      </trkpt>
      <trkpt lat="42.57606" lon="2.03484">
        <ele>2333</ele>
        <time>2020-07-25T07:39:27.077Z</time>
      </trkpt>
      <trkpt lat="42.57607" lon="2.0348">
        <ele>2333</ele>
        <time>2020-07-25T07:39:28.077Z</time>
      </trkpt>
      <trkpt lat="42.57607" lon="2.03477">
        <ele>2334</ele>
        <time>2020-07-25T07:39:29.077Z</time>
      </trkpt>
      <trkpt lat="42.57608" lon="2.03474">
        <ele>2333</ele>
        <time>2020-07-25T07:39:30.077Z</time>
      </trkpt>
      <trkpt lat="42.57608" lon="2.03471">
        <ele>2334</ele>
        <time>2020-07-25T07:39:31.077Z</time>
      </trkpt>
      <trkpt lat="42.57609" lon="2.03467">
        <ele>2335</ele>
        <time>2020-07-25T07:39:32.077Z</time>
      </trkpt>
      <trkpt lat="42.5761" lon="2.03464">
        <ele>2335</ele>
        <time>2020-07-25T07:39:33.077Z</time>
      </trkpt>
      <trkpt lat="42.57611" lon="2.03461">
        <ele>2335</ele>
        <time>2020-07-25T07:39:34.077Z</time>
      </trkpt>
      <trkpt lat="42.57612" lon="2.03457">
        <ele>2335</ele>
        <time>2020-07-25T07:39:35.077Z</time>
      </trkpt>
      <trkpt lat="42.57612" lon="2.03454">
        <ele>2336</ele>
        <time>2020-07-25T07:39:36.077Z</time>
      </trkpt>
      <trkpt lat="42.57613" lon="2.03451">
        <ele>2337</ele>
        <time>2020-07-25T07:39:37.077Z</time>
      </trkpt>
      <trkpt lat="42.57614" lon="2.03447">
        <ele>2337</ele>
        <time>2020-07-25T07:39:38.077Z</time>
      </trkpt>
      <trkpt lat="42.57615" lon="2.03444">
        <ele>2337</ele>
        <time>2020-07-25T07:39:39.077Z</time>
      </trkpt>
      <trkpt lat="42.57616" lon="2.0344">
        <ele>2337</ele>
        <time>2020-07-25T07:39:40.077Z</time>
      </trkpt>
      <trkpt lat="42.57617" lon="2.03437">
        <ele>2338</ele>
        <time>2020-07-25T07:39:41.077Z</time>
      </trkpt>
      <trkpt lat="42.57619" lon="2.03434">
        <ele>2338</ele>
        <time>2020-07-25T07:39:42.077Z</time>
      </trkpt>
      <trkpt lat="42.5762" lon="2.0343">
        <ele>2338</ele>
        <time>2020-07-25T07:39:43.077Z</time>
      </trkpt>
      <trkpt lat="42.57621" lon="2.03427">
        <ele>2339</ele>
        <time>2020-07-25T07:39:44.077Z</time>
      </trkpt>
      <trkpt lat="42.57622" lon="2.03423">
        <ele>2339</ele>
        <time>2020-07-25T07:39:45.077Z</time>
      </trkpt>
      <trkpt lat="42.57624" lon="2.0342">
        <ele>2339</ele>
        <time>2020-07-25T07:39:46.077Z</time>
      </trkpt>
      <trkpt lat="42.57625" lon="2.03417">
        <ele>2339</ele>
        <time>2020-07-25T07:39:47.077Z</time>
      </trkpt>
      <trkpt lat="42.57627" lon="2.03414">
        <ele>2340</ele>
        <time>2020-07-25T07:39:48.077Z</time>
      </trkpt>
      <trkpt lat="42.57628" lon="2.03411">
        <ele>2340</ele>
        <time>2020-07-25T07:39:49.077Z</time>
      </trkpt>
      <trkpt lat="42.57629" lon="2.03407">
        <ele>2340</ele>
        <time>2020-07-25T07:39:50.077Z</time>
      </trkpt>
      <trkpt lat="42.5763" lon="2.03404">
        <ele>2340</ele>
        <time>2020-07-25T07:39:51.077Z</time>
      </trkpt>
      <trkpt lat="42.57632" lon="2.034">
        <ele>2340</ele>
        <time>2020-07-25T07:39:52.077Z</time>
      </trkpt>
      <trkpt lat="42.57633" lon="2.03397">
        <ele>2341</ele>
        <time>2020-07-25T07:39:53.077Z</time>
      </trkpt>
      <trkpt lat="42.57635" lon="2.03394">
        <ele>2342</ele>
        <time>2020-07-25T07:39:54.077Z</time>
      </trkpt>
      <trkpt lat="42.57637" lon="2.03392">
        <ele>2343</ele>
        <time>2020-07-25T07:39:55.077Z</time>
      </trkpt>
      <trkpt lat="42.57639" lon="2.03389">
        <ele>2343</ele>
        <time>2020-07-25T07:39:56.077Z</time>
      </trkpt>
      <trkpt lat="42.57641" lon="2.03387">
        <ele>2343</ele>
        <time>2020-07-25T07:39:57.077Z</time>
      </trkpt>
      <trkpt lat="42.57644" lon="2.03385">
        <ele>2343</ele>
        <time>2020-07-25T07:39:58.077Z</time>
      </trkpt>
      <trkpt lat="42.57646" lon="2.03383">
        <ele>2344</ele>
        <time>2020-07-25T07:39:59.077Z</time>
      </trkpt>
      <trkpt lat="42.57648" lon="2.03381">
        <ele>2344</ele>
        <time>2020-07-25T07:40:00.077Z</time>
      </trkpt>
      <trkpt lat="42.57649" lon="2.03379">
        <ele>2343</ele>
        <time>2020-07-25T07:40:01.077Z</time>
      </trkpt>
      <trkpt lat="42.57651" lon="2.03376">
        <ele>2344</ele>
        <time>2020-07-25T07:40:02.077Z</time>
      </trkpt>
      <trkpt lat="42.57652" lon="2.03373">
        <ele>2345</ele>
        <time>2020-07-25T07:40:03.077Z</time>
      </trkpt>
      <trkpt lat="42.57654" lon="2.03371">
        <ele>2345</ele>
        <time>2020-07-25T07:40:04.077Z</time>
      </trkpt>
      <trkpt lat="42.57655" lon="2.03368">
        <ele>2345</ele>
        <time>2020-07-25T07:40:05.077Z</time>
      </trkpt>
      <trkpt lat="42.57657" lon="2.03365">
        <ele>2345</ele>
        <time>2020-07-25T07:40:06.077Z</time>
      </trkpt>
      <trkpt lat="42.57658" lon="2.03362">
        <ele>2346</ele>
        <time>2020-07-25T07:40:07.077Z</time>
      </trkpt>
      <trkpt lat="42.57659" lon="2.03359">
        <ele>2346</ele>
        <time>2020-07-25T07:40:08.077Z</time>
      </trkpt>
      <trkpt lat="42.57661" lon="2.03357">
        <ele>2346</ele>
        <time>2020-07-25T07:40:09.077Z</time>
      </trkpt>
      <trkpt lat="42.57662" lon="2.03354">
        <ele>2347</ele>
        <time>2020-07-25T07:40:10.077Z</time>
      </trkpt>
      <trkpt lat="42.57663" lon="2.03351">
        <ele>2347</ele>
        <time>2020-07-25T07:40:11.077Z</time>
      </trkpt>
      <trkpt lat="42.57664" lon="2.03348">
        <ele>2348</ele>
        <time>2020-07-25T07:40:12.077Z</time>
      </trkpt>
      <trkpt lat="42.57665" lon="2.03346">
        <ele>2348</ele>
        <time>2020-07-25T07:40:13.077Z</time>
      </trkpt>
      <trkpt lat="42.57667" lon="2.03343">
        <ele>2348</ele>
        <time>2020-07-25T07:40:14.077Z</time>
      </trkpt>
      <trkpt lat="42.57668" lon="2.0334">
        <ele>2349</ele>
        <time>2020-07-25T07:40:15.077Z</time>
      </trkpt>
      <trkpt lat="42.57669" lon="2.03338">
        <ele>2349</ele>
        <time>2020-07-25T07:40:16.077Z</time>
      </trkpt>
      <trkpt lat="42.5767" lon="2.03335">
        <ele>2350</ele>
        <time>2020-07-25T07:40:17.077Z</time>
      </trkpt>
      <trkpt lat="42.57672" lon="2.03332">
        <ele>2350</ele>
        <time>2020-07-25T07:40:18.077Z</time>
      </trkpt>
      <trkpt lat="42.57674" lon="2.0333">
        <ele>2350</ele>
        <time>2020-07-25T07:40:19.077Z</time>
      </trkpt>
      <trkpt lat="42.57675" lon="2.03327">
        <ele>2350</ele>
        <time>2020-07-25T07:40:20.077Z</time>
      </trkpt>
      <trkpt lat="42.57676" lon="2.03324">
        <ele>2350</ele>
        <time>2020-07-25T07:40:21.077Z</time>
      </trkpt>
      <trkpt lat="42.57678" lon="2.03322">
        <ele>2351</ele>
        <time>2020-07-25T07:40:22.077Z</time>
      </trkpt>
      <trkpt lat="42.57679" lon="2.03319">
        <ele>2351</ele>
        <time>2020-07-25T07:40:23.077Z</time>
      </trkpt>
      <trkpt lat="42.57681" lon="2.03317">
        <ele>2352</ele>
        <time>2020-07-25T07:40:24.077Z</time>
      </trkpt>
      <trkpt lat="42.57683" lon="2.03314">
        <ele>2352</ele>
        <time>2020-07-25T07:40:25.077Z</time>
      </trkpt>
      <trkpt lat="42.57685" lon="2.03311">
        <ele>2353</ele>
        <time>2020-07-25T07:40:26.077Z</time>
      </trkpt>
      <trkpt lat="42.57686" lon="2.03309">
        <ele>2353</ele>
        <time>2020-07-25T07:40:27.077Z</time>
      </trkpt>
      <trkpt lat="42.57688" lon="2.03306">
        <ele>2353</ele>
        <time>2020-07-25T07:40:28.077Z</time>
      </trkpt>
      <trkpt lat="42.57689" lon="2.03304">
        <ele>2354</ele>
        <time>2020-07-25T07:40:29.077Z</time>
      </trkpt>
      <trkpt lat="42.5769" lon="2.03301">
        <ele>2354</ele>
        <time>2020-07-25T07:40:30.077Z</time>
      </trkpt>
      <trkpt lat="42.57691" lon="2.03298">
        <ele>2354</ele>
        <time>2020-07-25T07:40:31.077Z</time>
      </trkpt>
      <trkpt lat="42.57692" lon="2.03295">
        <ele>2354</ele>
        <time>2020-07-25T07:40:32.077Z</time>
      </trkpt>
      <trkpt lat="42.57693" lon="2.03292">
        <ele>2355</ele>
        <time>2020-07-25T07:40:33.077Z</time>
      </trkpt>
      <trkpt lat="42.57694" lon="2.03289">
        <ele>2355</ele>
        <time>2020-07-25T07:40:34.077Z</time>
      </trkpt>
      <trkpt lat="42.57695" lon="2.03286">
        <ele>2355</ele>
        <time>2020-07-25T07:40:35.077Z</time>
      </trkpt>
      <trkpt lat="42.57696" lon="2.03283">
        <ele>2355</ele>
        <time>2020-07-25T07:40:36.077Z</time>
      </trkpt>
      <trkpt lat="42.57697" lon="2.03281">
        <ele>2356</ele>
        <time>2020-07-25T07:40:37.077Z</time>
      </trkpt>
      <trkpt lat="42.57698" lon="2.03278">
        <ele>2356</ele>
        <time>2020-07-25T07:40:38.077Z</time>
      </trkpt>
      <trkpt lat="42.57699" lon="2.03276">
        <ele>2356</ele>
        <time>2020-07-25T07:40:39.077Z</time>
      </trkpt>
      <trkpt lat="42.577" lon="2.03273">
        <ele>2357</ele>
        <time>2020-07-25T07:40:40.077Z</time>
      </trkpt>
      <trkpt lat="42.57701" lon="2.03271">
        <ele>2358</ele>
        <time>2020-07-25T07:40:41.077Z</time>
      </trkpt>
      <trkpt lat="42.57702" lon="2.03268">
        <ele>2358</ele>
        <time>2020-07-25T07:40:42.077Z</time>
      </trkpt>
      <trkpt lat="42.57703" lon="2.03265">
        <ele>2358</ele>
        <time>2020-07-25T07:40:43.077Z</time>
      </trkpt>
      <trkpt lat="42.57704" lon="2.03262">
        <ele>2359</ele>
        <time>2020-07-25T07:40:44.077Z</time>
      </trkpt>
      <trkpt lat="42.57705" lon="2.03259">
        <ele>2359</ele>
        <time>2020-07-25T07:40:45.077Z</time>
      </trkpt>
      <trkpt lat="42.57706" lon="2.03256">
        <ele>2359</ele>
        <time>2020-07-25T07:40:46.077Z</time>
      </trkpt>
      <trkpt lat="42.57706" lon="2.03253">
        <ele>2360</ele>
        <time>2020-07-25T07:40:47.077Z</time>
      </trkpt>
      <trkpt lat="42.57707" lon="2.0325">
        <ele>2360</ele>
        <time>2020-07-25T07:40:48.077Z</time>
      </trkpt>
      <trkpt lat="42.57708" lon="2.03247">
        <ele>2360</ele>
        <time>2020-07-25T07:40:49.077Z</time>
      </trkpt>
      <trkpt lat="42.57709" lon="2.03244">
        <ele>2361</ele>
        <time>2020-07-25T07:40:50.077Z</time>
      </trkpt>
      <trkpt lat="42.5771" lon="2.03241">
        <ele>2361</ele>
        <time>2020-07-25T07:40:51.077Z</time>
      </trkpt>
      <trkpt lat="42.57711" lon="2.03238">
        <ele>2362</ele>
        <time>2020-07-25T07:40:52.077Z</time>
      </trkpt>
      <trkpt lat="42.57713" lon="2.03235">
        <ele>2362</ele>
        <time>2020-07-25T07:40:53.077Z</time>
      </trkpt>
      <trkpt lat="42.57714" lon="2.03233">
        <ele>2362</ele>
        <time>2020-07-25T07:40:54.077Z</time>
      </trkpt>
      <trkpt lat="42.57715" lon="2.0323">
        <ele>2362</ele>
        <time>2020-07-25T07:40:55.077Z</time>
      </trkpt>
      <trkpt lat="42.57716" lon="2.03227">
        <ele>2362</ele>
        <time>2020-07-25T07:40:56.077Z</time>
      </trkpt>
      <trkpt lat="42.57717" lon="2.03225">
        <ele>2363</ele>
        <time>2020-07-25T07:40:57.077Z</time>
      </trkpt>
      <trkpt lat="42.57718" lon="2.03222">
        <ele>2363</ele>
        <time>2020-07-25T07:40:58.077Z</time>
      </trkpt>
      <trkpt lat="42.5772" lon="2.03219">
        <ele>2363</ele>
        <time>2020-07-25T07:40:59.077Z</time>
      </trkpt>
      <trkpt lat="42.57721" lon="2.03216">
        <ele>2363</ele>
        <time>2020-07-25T07:41:00.077Z</time>
      </trkpt>
      <trkpt lat="42.57722" lon="2.03213">
        <ele>2363</ele>
        <time>2020-07-25T07:41:01.077Z</time>
      </trkpt>
      <trkpt lat="42.57723" lon="2.0321">
        <ele>2364</ele>
        <time>2020-07-25T07:41:02.077Z</time>
      </trkpt>
      <trkpt lat="42.57725" lon="2.03207">
        <ele>2364</ele>
        <time>2020-07-25T07:41:03.077Z</time>
      </trkpt>
      <trkpt lat="42.57726" lon="2.03204">
        <ele>2365</ele>
        <time>2020-07-25T07:41:04.077Z</time>
      </trkpt>
      <trkpt lat="42.57728" lon="2.03201">
        <ele>2365</ele>
        <time>2020-07-25T07:41:05.077Z</time>
      </trkpt>
      <trkpt lat="42.57729" lon="2.03198">
        <ele>2365</ele>
        <time>2020-07-25T07:41:06.077Z</time>
      </trkpt>
      <trkpt lat="42.57731" lon="2.03196">
        <ele>2365</ele>
        <time>2020-07-25T07:41:07.077Z</time>
      </trkpt>
      <trkpt lat="42.57732" lon="2.03193">
        <ele>2366</ele>
        <time>2020-07-25T07:41:08.077Z</time>
      </trkpt>
      <trkpt lat="42.57733" lon="2.0319">
        <ele>2366</ele>
        <time>2020-07-25T07:41:09.077Z</time>
      </trkpt>
      <trkpt lat="42.57735" lon="2.03187">
        <ele>2366</ele>
        <time>2020-07-25T07:41:10.077Z</time>
      </trkpt>
      <trkpt lat="42.57736" lon="2.03185">
        <ele>2366</ele>
        <time>2020-07-25T07:41:11.077Z</time>
      </trkpt>
      <trkpt lat="42.57737" lon="2.03182">
        <ele>2366</ele>
        <time>2020-07-25T07:41:12.077Z</time>
      </trkpt>
      <trkpt lat="42.57738" lon="2.03179">
        <ele>2366</ele>
        <time>2020-07-25T07:41:13.077Z</time>
      </trkpt>
      <trkpt lat="42.5774" lon="2.03176">
        <ele>2366</ele>
        <time>2020-07-25T07:41:14.077Z</time>
      </trkpt>
      <trkpt lat="42.57741" lon="2.03173">
        <ele>2366</ele>
        <time>2020-07-25T07:41:15.077Z</time>
      </trkpt>
      <trkpt lat="42.57742" lon="2.0317">
        <ele>2366</ele>
        <time>2020-07-25T07:41:16.077Z</time>
      </trkpt>
      <trkpt lat="42.57743" lon="2.03166">
        <ele>2366</ele>
        <time>2020-07-25T07:41:17.077Z</time>
      </trkpt>
      <trkpt lat="42.57744" lon="2.03163">
        <ele>2366</ele>
        <time>2020-07-25T07:41:18.077Z</time>
      </trkpt>
      <trkpt lat="42.57746" lon="2.0316">
        <ele>2367</ele>
        <time>2020-07-25T07:41:19.077Z</time>
      </trkpt>
      <trkpt lat="42.57747" lon="2.03157">
        <ele>2367</ele>
        <time>2020-07-25T07:41:20.077Z</time>
      </trkpt>
      <trkpt lat="42.57748" lon="2.03153">
        <ele>2367</ele>
        <time>2020-07-25T07:41:21.077Z</time>
      </trkpt>
      <trkpt lat="42.57749" lon="2.0315">
        <ele>2367</ele>
        <time>2020-07-25T07:41:22.077Z</time>
      </trkpt>
      <trkpt lat="42.57749" lon="2.03147">
        <ele>2367</ele>
        <time>2020-07-25T07:41:23.077Z</time>
      </trkpt>
      <trkpt lat="42.5775" lon="2.03144">
        <ele>2367</ele>
        <time>2020-07-25T07:41:24.077Z</time>
      </trkpt>
      <trkpt lat="42.5775" lon="2.0314">
        <ele>2367</ele>
        <time>2020-07-25T07:41:25.077Z</time>
      </trkpt>
      <trkpt lat="42.5775" lon="2.03137">
        <ele>2368</ele>
        <time>2020-07-25T07:41:26.077Z</time>
      </trkpt>
      <trkpt lat="42.5775" lon="2.03133">
        <ele>2367</ele>
        <time>2020-07-25T07:41:27.077Z</time>
      </trkpt>
      <trkpt lat="42.57751" lon="2.0313">
        <ele>2368</ele>
        <time>2020-07-25T07:41:28.077Z</time>
      </trkpt>
      <trkpt lat="42.57751" lon="2.03126">
        <ele>2368</ele>
        <time>2020-07-25T07:41:29.077Z</time>
      </trkpt>
      <trkpt lat="42.57751" lon="2.03122">
        <ele>2368</ele>
        <time>2020-07-25T07:41:30.077Z</time>
      </trkpt>
      <trkpt lat="42.57751" lon="2.03119">
        <ele>2368</ele>
        <time>2020-07-25T07:41:31.077Z</time>
      </trkpt>
      <trkpt lat="42.57751" lon="2.03115">
        <ele>2368</ele>
        <time>2020-07-25T07:41:32.077Z</time>
      </trkpt>
      <trkpt lat="42.57751" lon="2.03112">
        <ele>2369</ele>
        <time>2020-07-25T07:41:33.077Z</time>
      </trkpt>
      <trkpt lat="42.5775" lon="2.03108">
        <ele>2369</ele>
        <time>2020-07-25T07:41:34.077Z</time>
      </trkpt>
      <trkpt lat="42.5775" lon="2.03105">
        <ele>2370</ele>
        <time>2020-07-25T07:41:35.077Z</time>
      </trkpt>
      <trkpt lat="42.5775" lon="2.03101">
        <ele>2369</ele>
        <time>2020-07-25T07:41:36.077Z</time>
      </trkpt>
      <trkpt lat="42.5775" lon="2.03097">
        <ele>2369</ele>
        <time>2020-07-25T07:41:37.077Z</time>
      </trkpt>
      <trkpt lat="42.5775" lon="2.03094">
        <ele>2369</ele>
        <time>2020-07-25T07:41:38.077Z</time>
      </trkpt>
      <trkpt lat="42.5775" lon="2.0309">
        <ele>2369</ele>
        <time>2020-07-25T07:41:39.077Z</time>
      </trkpt>
      <trkpt lat="42.5775" lon="2.03086">
        <ele>2370</ele>
        <time>2020-07-25T07:41:40.077Z</time>
      </trkpt>
      <trkpt lat="42.5775" lon="2.03082">
        <ele>2370</ele>
        <time>2020-07-25T07:41:41.077Z</time>
      </trkpt>
      <trkpt lat="42.5775" lon="2.03079">
        <ele>2370</ele>
        <time>2020-07-25T07:41:42.077Z</time>
      </trkpt>
      <trkpt lat="42.5775" lon="2.03076">
        <ele>2370</ele>
        <time>2020-07-25T07:41:43.077Z</time>
      </trkpt>
      <trkpt lat="42.5775" lon="2.03072">
        <ele>2370</ele>
        <time>2020-07-25T07:41:44.077Z</time>
      </trkpt>
      <trkpt lat="42.5775" lon="2.03069">
        <ele>2370</ele>
        <time>2020-07-25T07:41:45.077Z</time>
      </trkpt>
      <trkpt lat="42.57749" lon="2.03065">
        <ele>2370</ele>
        <time>2020-07-25T07:41:46.077Z</time>
      </trkpt>
      <trkpt lat="42.57749" lon="2.03062">
        <ele>2370</ele>
        <time>2020-07-25T07:41:47.077Z</time>
      </trkpt>
      <trkpt lat="42.57748" lon="2.03058">
        <ele>2370</ele>
        <time>2020-07-25T07:41:48.077Z</time>
      </trkpt>
      <trkpt lat="42.57747" lon="2.03055">
        <ele>2370</ele>
        <time>2020-07-25T07:41:49.077Z</time>
      </trkpt>
      <trkpt lat="42.57746" lon="2.03051">
        <ele>2370</ele>
        <time>2020-07-25T07:41:50.077Z</time>
      </trkpt>
      <trkpt lat="42.57746" lon="2.03047">
        <ele>2370</ele>
        <time>2020-07-25T07:41:51.077Z</time>
      </trkpt>
      <trkpt lat="42.57745" lon="2.03044">
        <ele>2370</ele>
        <time>2020-07-25T07:41:52.077Z</time>
      </trkpt>
      <trkpt lat="42.57744" lon="2.0304">
        <ele>2370</ele>
        <time>2020-07-25T07:41:53.077Z</time>
      </trkpt>
      <trkpt lat="42.57744" lon="2.03037">
        <ele>2370</ele>
        <time>2020-07-25T07:41:54.077Z</time>
      </trkpt>
      <trkpt lat="42.57743" lon="2.03035">
        <ele>2371</ele>
        <time>2020-07-25T07:41:55.077Z</time>
      </trkpt>
      <trkpt lat="42.57743" lon="2.03034">
        <ele>2372</ele>
        <time>2020-07-25T07:41:56.077Z</time>
      </trkpt>
      <trkpt lat="42.5774" lon="2.03033">
        <ele>2372</ele>
        <time>2020-07-25T07:41:57.015Z</time>
      </trkpt>
      <trkpt lat="42.5774" lon="2.03034">
        <ele>2372</ele>
        <time>2020-07-25T07:41:58.015Z</time>
      </trkpt>
      <trkpt lat="42.57741" lon="2.03034">
        <ele>2372</ele>
        <time>2020-07-25T07:41:59.015Z</time>
      </trkpt>
      <trkpt lat="42.57742" lon="2.03035">
        <ele>2372</ele>
        <time>2020-07-25T07:42:00.015Z</time>
      </trkpt>
      <trkpt lat="42.57744" lon="2.03035">
        <ele>2371</ele>
        <time>2020-07-25T07:42:01.015Z</time>
      </trkpt>
      <trkpt lat="42.57747" lon="2.03034">
        <ele>2371</ele>
        <time>2020-07-25T07:42:02.015Z</time>
      </trkpt>
      <trkpt lat="42.57749" lon="2.03032">
        <ele>2370</ele>
        <time>2020-07-25T07:42:03.015Z</time>
      </trkpt>
      <trkpt lat="42.57752" lon="2.0303">
        <ele>2370</ele>
        <time>2020-07-25T07:42:04.015Z</time>
      </trkpt>
      <trkpt lat="42.57754" lon="2.03028">
        <ele>2369</ele>
        <time>2020-07-25T07:42:05.015Z</time>
      </trkpt>
      <trkpt lat="42.57756" lon="2.03025">
        <ele>2369</ele>
        <time>2020-07-25T07:42:06.015Z</time>
      </trkpt>
      <trkpt lat="42.57758" lon="2.03022">
        <ele>2368</ele>
        <time>2020-07-25T07:42:07.015Z</time>
      </trkpt>
      <trkpt lat="42.5776" lon="2.03019">
        <ele>2369</ele>
        <time>2020-07-25T07:42:08.015Z</time>
      </trkpt>
      <trkpt lat="42.57763" lon="2.03016">
        <ele>2369</ele>
        <time>2020-07-25T07:42:09.015Z</time>
      </trkpt>
      <trkpt lat="42.57766" lon="2.03013">
        <ele>2370</ele>
        <time>2020-07-25T07:42:10.015Z</time>
      </trkpt>
      <trkpt lat="42.57769" lon="2.03011">
        <ele>2370</ele>
        <time>2020-07-25T07:42:11.015Z</time>
      </trkpt>
      <trkpt lat="42.57772" lon="2.0301">
        <ele>2369</ele>
        <time>2020-07-25T07:42:12.015Z</time>
      </trkpt>
      <trkpt lat="42.57774" lon="2.0301">
        <ele>2369</ele>
        <time>2020-07-25T07:42:13.015Z</time>
      </trkpt>
      <trkpt lat="42.57777" lon="2.03009">
        <ele>2369</ele>
        <time>2020-07-25T07:42:14.015Z</time>
      </trkpt>
      <trkpt lat="42.5778" lon="2.03009">
        <ele>2369</ele>
        <time>2020-07-25T07:42:15.015Z</time>
      </trkpt>
      <trkpt lat="42.57783" lon="2.03007">
        <ele>2369</ele>
        <time>2020-07-25T07:42:16.015Z</time>
      </trkpt>
      <trkpt lat="42.57786" lon="2.03006">
        <ele>2368</ele>
        <time>2020-07-25T07:42:17.015Z</time>
      </trkpt>
      <trkpt lat="42.57789" lon="2.03005">
        <ele>2368</ele>
        <time>2020-07-25T07:42:18.015Z</time>
      </trkpt>
      <trkpt lat="42.57791" lon="2.03003">
        <ele>2368</ele>
        <time>2020-07-25T07:42:19.015Z</time>
      </trkpt>
      <trkpt lat="42.57793" lon="2.03002">
        <ele>2368</ele>
        <time>2020-07-25T07:42:20.015Z</time>
      </trkpt>
      <trkpt lat="42.578" lon="2.02997">
        <ele>2370</ele>
        <time>2020-07-25T07:42:21.124Z</time>
      </trkpt>
      <trkpt lat="42.578" lon="2.02997">
        <ele>2369</ele>
        <time>2020-07-25T07:42:22.124Z</time>
      </trkpt>
      <trkpt lat="42.57801" lon="2.02996">
        <ele>2369</ele>
        <time>2020-07-25T07:42:23.124Z</time>
      </trkpt>
      <trkpt lat="42.57803" lon="2.02994">
        <ele>2368</ele>
        <time>2020-07-25T07:42:24.124Z</time>
      </trkpt>
      <trkpt lat="42.57805" lon="2.02992">
        <ele>2368</ele>
        <time>2020-07-25T07:42:25.124Z</time>
      </trkpt>
      <trkpt lat="42.57808" lon="2.02989">
        <ele>2368</ele>
        <time>2020-07-25T07:42:26.124Z</time>
      </trkpt>
      <trkpt lat="42.57808" lon="2.02989">
        <ele>2368</ele>
        <time>2020-07-25T07:42:27.124Z</time>
      </trkpt>
      <trkpt lat="42.57812" lon="2.02985">
        <ele>2367</ele>
        <time>2020-07-25T07:42:28.124Z</time>
      </trkpt>
      <trkpt lat="42.57816" lon="2.02982">
        <ele>2367</ele>
        <time>2020-07-25T07:42:29.124Z</time>
      </trkpt>
      <trkpt lat="42.5782" lon="2.02977">
        <ele>2367</ele>
        <time>2020-07-25T07:42:30.124Z</time>
      </trkpt>
      <trkpt lat="42.57822" lon="2.02974">
        <ele>2367</ele>
        <time>2020-07-25T07:42:31.124Z</time>
      </trkpt>
      <trkpt lat="42.57825" lon="2.0297">
        <ele>2367</ele>
        <time>2020-07-25T07:42:32.124Z</time>
      </trkpt>
      <trkpt lat="42.57828" lon="2.02967">
        <ele>2367</ele>
        <time>2020-07-25T07:42:33.124Z</time>
      </trkpt>
      <trkpt lat="42.5783" lon="2.02963">
        <ele>2367</ele>
        <time>2020-07-25T07:42:34.124Z</time>
      </trkpt>
      <trkpt lat="42.57833" lon="2.0296">
        <ele>2367</ele>
        <time>2020-07-25T07:42:35.124Z</time>
      </trkpt>
      <trkpt lat="42.57835" lon="2.02956">
        <ele>2367</ele>
        <time>2020-07-25T07:42:36.124Z</time>
      </trkpt>
      <trkpt lat="42.57837" lon="2.02952">
        <ele>2367</ele>
        <time>2020-07-25T07:42:37.124Z</time>
      </trkpt>
      <trkpt lat="42.57838" lon="2.02947">
        <ele>2366</ele>
        <time>2020-07-25T07:42:38.124Z</time>
      </trkpt>
      <trkpt lat="42.57839" lon="2.02942">
        <ele>2367</ele>
        <time>2020-07-25T07:42:39.124Z</time>
      </trkpt>
      <trkpt lat="42.5784" lon="2.02937">
        <ele>2367</ele>
        <time>2020-07-25T07:42:40.124Z</time>
      </trkpt>
      <trkpt lat="42.57841" lon="2.02933">
        <ele>2367</ele>
        <time>2020-07-25T07:42:41.124Z</time>
      </trkpt>
      <trkpt lat="42.57843" lon="2.02928">
        <ele>2366</ele>
        <time>2020-07-25T07:42:42.124Z</time>
      </trkpt>
      <trkpt lat="42.57844" lon="2.02924">
        <ele>2365</ele>
        <time>2020-07-25T07:42:43.124Z</time>
      </trkpt>
      <trkpt lat="42.57846" lon="2.0292">
        <ele>2365</ele>
        <time>2020-07-25T07:42:44.124Z</time>
      </trkpt>
      <trkpt lat="42.57848" lon="2.02916">
        <ele>2364</ele>
        <time>2020-07-25T07:42:45.124Z</time>
      </trkpt>
      <trkpt lat="42.57851" lon="2.02912">
        <ele>2364</ele>
        <time>2020-07-25T07:42:46.124Z</time>
      </trkpt>
      <trkpt lat="42.57853" lon="2.02907">
        <ele>2364</ele>
        <time>2020-07-25T07:42:47.124Z</time>
      </trkpt>
      <trkpt lat="42.57854" lon="2.02903">
        <ele>2365</ele>
        <time>2020-07-25T07:42:48.124Z</time>
      </trkpt>
      <trkpt lat="42.57856" lon="2.02898">
        <ele>2365</ele>
        <time>2020-07-25T07:42:49.124Z</time>
      </trkpt>
      <trkpt lat="42.57857" lon="2.02893">
        <ele>2364</ele>
        <time>2020-07-25T07:42:50.124Z</time>
      </trkpt>
      <trkpt lat="42.57859" lon="2.02889">
        <ele>2364</ele>
        <time>2020-07-25T07:42:51.124Z</time>
      </trkpt>
      <trkpt lat="42.57861" lon="2.02884">
        <ele>2363</ele>
        <time>2020-07-25T07:42:52.124Z</time>
      </trkpt>
      <trkpt lat="42.57862" lon="2.0288">
        <ele>2363</ele>
        <time>2020-07-25T07:42:53.124Z</time>
      </trkpt>
      <trkpt lat="42.57864" lon="2.02876">
        <ele>2364</ele>
        <time>2020-07-25T07:42:54.124Z</time>
      </trkpt>
      <trkpt lat="42.57867" lon="2.02873">
        <ele>2364</ele>
        <time>2020-07-25T07:42:55.124Z</time>
      </trkpt>
      <trkpt lat="42.57869" lon="2.02869">
        <ele>2363</ele>
        <time>2020-07-25T07:42:56.124Z</time>
      </trkpt>
      <trkpt lat="42.57872" lon="2.02865">
        <ele>2363</ele>
        <time>2020-07-25T07:42:57.124Z</time>
      </trkpt>
      <trkpt lat="42.57874" lon="2.02862">
        <ele>2363</ele>
        <time>2020-07-25T07:42:58.124Z</time>
      </trkpt>
      <trkpt lat="42.57877" lon="2.02858">
        <ele>2362</ele>
        <time>2020-07-25T07:42:59.124Z</time>
      </trkpt>
      <trkpt lat="42.5788" lon="2.02855">
        <ele>2362</ele>
        <time>2020-07-25T07:43:00.124Z</time>
      </trkpt>
      <trkpt lat="42.57883" lon="2.02852">
        <ele>2362</ele>
        <time>2020-07-25T07:43:01.124Z</time>
      </trkpt>
      <trkpt lat="42.57887" lon="2.0285">
        <ele>2362</ele>
        <time>2020-07-25T07:43:02.124Z</time>
      </trkpt>
      <trkpt lat="42.5789" lon="2.02848">
        <ele>2362</ele>
        <time>2020-07-25T07:43:03.124Z</time>
      </trkpt>
      <trkpt lat="42.57894" lon="2.02846">
        <ele>2362</ele>
        <time>2020-07-25T07:43:04.124Z</time>
      </trkpt>
      <trkpt lat="42.57897" lon="2.02844">
        <ele>2363</ele>
        <time>2020-07-25T07:43:05.124Z</time>
      </trkpt>
      <trkpt lat="42.57901" lon="2.02842">
        <ele>2362</ele>
        <time>2020-07-25T07:43:06.124Z</time>
      </trkpt>
      <trkpt lat="42.57905" lon="2.0284">
        <ele>2362</ele>
        <time>2020-07-25T07:43:07.124Z</time>
      </trkpt>
      <trkpt lat="42.57908" lon="2.02838">
        <ele>2362</ele>
        <time>2020-07-25T07:43:08.124Z</time>
      </trkpt>
      <trkpt lat="42.57912" lon="2.02836">
        <ele>2361</ele>
        <time>2020-07-25T07:43:09.124Z</time>
      </trkpt>
      <trkpt lat="42.57915" lon="2.02834">
        <ele>2361</ele>
        <time>2020-07-25T07:43:10.124Z</time>
      </trkpt>
      <trkpt lat="42.57919" lon="2.02832">
        <ele>2360</ele>
        <time>2020-07-25T07:43:11.124Z</time>
      </trkpt>
      <trkpt lat="42.57922" lon="2.02829">
        <ele>2360</ele>
        <time>2020-07-25T07:43:12.124Z</time>
      </trkpt>
      <trkpt lat="42.57924" lon="2.02826">
        <ele>2360</ele>
        <time>2020-07-25T07:43:13.124Z</time>
      </trkpt>
      <trkpt lat="42.57927" lon="2.02823">
        <ele>2359</ele>
        <time>2020-07-25T07:43:14.124Z</time>
      </trkpt>
      <trkpt lat="42.5793" lon="2.02819">
        <ele>2359</ele>
        <time>2020-07-25T07:43:15.124Z</time>
      </trkpt>
      <trkpt lat="42.57932" lon="2.02816">
        <ele>2359</ele>
        <time>2020-07-25T07:43:16.124Z</time>
      </trkpt>
      <trkpt lat="42.57935" lon="2.02812">
        <ele>2358</ele>
        <time>2020-07-25T07:43:17.124Z</time>
      </trkpt>
      <trkpt lat="42.57938" lon="2.02808">
        <ele>2358</ele>
        <time>2020-07-25T07:43:18.124Z</time>
      </trkpt>
      <trkpt lat="42.5794" lon="2.02804">
        <ele>2358</ele>
        <time>2020-07-25T07:43:19.124Z</time>
      </trkpt>
      <trkpt lat="42.57942" lon="2.028">
        <ele>2358</ele>
        <time>2020-07-25T07:43:20.124Z</time>
      </trkpt>
      <trkpt lat="42.57944" lon="2.02795">
        <ele>2358</ele>
        <time>2020-07-25T07:43:21.124Z</time>
      </trkpt>
      <trkpt lat="42.57946" lon="2.02791">
        <ele>2358</ele>
        <time>2020-07-25T07:43:22.124Z</time>
      </trkpt>
      <trkpt lat="42.57947" lon="2.02787">
        <ele>2357</ele>
        <time>2020-07-25T07:43:23.124Z</time>
      </trkpt>
      <trkpt lat="42.57948" lon="2.02782">
        <ele>2357</ele>
        <time>2020-07-25T07:43:24.124Z</time>
      </trkpt>
      <trkpt lat="42.57948" lon="2.02777">
        <ele>2357</ele>
        <time>2020-07-25T07:43:25.124Z</time>
      </trkpt>
      <trkpt lat="42.57947" lon="2.02772">
        <ele>2356</ele>
        <time>2020-07-25T07:43:26.124Z</time>
      </trkpt>
      <trkpt lat="42.57946" lon="2.02767">
        <ele>2356</ele>
        <time>2020-07-25T07:43:27.124Z</time>
      </trkpt>
      <trkpt lat="42.57946" lon="2.02763">
        <ele>2356</ele>
        <time>2020-07-25T07:43:28.124Z</time>
      </trkpt>
      <trkpt lat="42.57947" lon="2.02757">
        <ele>2355</ele>
        <time>2020-07-25T07:43:29.124Z</time>
      </trkpt>
      <trkpt lat="42.57947" lon="2.02752">
        <ele>2355</ele>
        <time>2020-07-25T07:43:30.124Z</time>
      </trkpt>
      <trkpt lat="42.57948" lon="2.02747">
        <ele>2355</ele>
        <time>2020-07-25T07:43:31.124Z</time>
      </trkpt>
      <trkpt lat="42.57948" lon="2.02742">
        <ele>2354</ele>
        <time>2020-07-25T07:43:32.124Z</time>
      </trkpt>
      <trkpt lat="42.57948" lon="2.02737">
        <ele>2354</ele>
        <time>2020-07-25T07:43:33.124Z</time>
      </trkpt>
      <trkpt lat="42.57948" lon="2.02732">
        <ele>2354</ele>
        <time>2020-07-25T07:43:34.124Z</time>
      </trkpt>
      <trkpt lat="42.57947" lon="2.02727">
        <ele>2354</ele>
        <time>2020-07-25T07:43:35.124Z</time>
      </trkpt>
      <trkpt lat="42.57947" lon="2.02722">
        <ele>2354</ele>
        <time>2020-07-25T07:43:36.124Z</time>
      </trkpt>
      <trkpt lat="42.57946" lon="2.02717">
        <ele>2354</ele>
        <time>2020-07-25T07:43:37.124Z</time>
      </trkpt>
      <trkpt lat="42.57946" lon="2.02712">
        <ele>2353</ele>
        <time>2020-07-25T07:43:38.124Z</time>
      </trkpt>
      <trkpt lat="42.57946" lon="2.02707">
        <ele>2353</ele>
        <time>2020-07-25T07:43:39.124Z</time>
      </trkpt>
      <trkpt lat="42.57946" lon="2.02703">
        <ele>2353</ele>
        <time>2020-07-25T07:43:40.124Z</time>
      </trkpt>
      <trkpt lat="42.57946" lon="2.02698">
        <ele>2353</ele>
        <time>2020-07-25T07:43:41.124Z</time>
      </trkpt>
      <trkpt lat="42.57947" lon="2.02693">
        <ele>2352</ele>
        <time>2020-07-25T07:43:42.124Z</time>
      </trkpt>
      <trkpt lat="42.57947" lon="2.02688">
        <ele>2352</ele>
        <time>2020-07-25T07:43:43.124Z</time>
      </trkpt>
      <trkpt lat="42.57947" lon="2.02682">
        <ele>2352</ele>
        <time>2020-07-25T07:43:44.124Z</time>
      </trkpt>
      <trkpt lat="42.57947" lon="2.02677">
        <ele>2352</ele>
        <time>2020-07-25T07:43:45.124Z</time>
      </trkpt>
      <trkpt lat="42.57946" lon="2.02672">
        <ele>2352</ele>
        <time>2020-07-25T07:43:46.124Z</time>
      </trkpt>
      <trkpt lat="42.57946" lon="2.02667">
        <ele>2351</ele>
        <time>2020-07-25T07:43:47.124Z</time>
      </trkpt>
      <trkpt lat="42.57946" lon="2.02662">
        <ele>2351</ele>
        <time>2020-07-25T07:43:48.124Z</time>
      </trkpt>
      <trkpt lat="42.57947" lon="2.02657">
        <ele>2350</ele>
        <time>2020-07-25T07:43:49.124Z</time>
      </trkpt>
      <trkpt lat="42.57947" lon="2.02651">
        <ele>2350</ele>
        <time>2020-07-25T07:43:50.124Z</time>
      </trkpt>
      <trkpt lat="42.57948" lon="2.02646">
        <ele>2350</ele>
        <time>2020-07-25T07:43:51.124Z</time>
      </trkpt>
      <trkpt lat="42.57948" lon="2.02641">
        <ele>2350</ele>
        <time>2020-07-25T07:43:52.124Z</time>
      </trkpt>
      <trkpt lat="42.57949" lon="2.02636">
        <ele>2351</ele>
        <time>2020-07-25T07:43:53.124Z</time>
      </trkpt>
      <trkpt lat="42.5795" lon="2.02631">
        <ele>2351</ele>
        <time>2020-07-25T07:43:54.124Z</time>
      </trkpt>
      <trkpt lat="42.5795" lon="2.02626">
        <ele>2350</ele>
        <time>2020-07-25T07:43:55.124Z</time>
      </trkpt>
      <trkpt lat="42.57952" lon="2.02621">
        <ele>2350</ele>
        <time>2020-07-25T07:43:56.124Z</time>
      </trkpt>
      <trkpt lat="42.57953" lon="2.02616">
        <ele>2350</ele>
        <time>2020-07-25T07:43:57.124Z</time>
      </trkpt>
      <trkpt lat="42.57954" lon="2.02611">
        <ele>2350</ele>
        <time>2020-07-25T07:43:58.124Z</time>
      </trkpt>
      <trkpt lat="42.57956" lon="2.02607">
        <ele>2349</ele>
        <time>2020-07-25T07:43:59.124Z</time>
      </trkpt>
      <trkpt lat="42.57957" lon="2.02602">
        <ele>2349</ele>
        <time>2020-07-25T07:44:00.124Z</time>
      </trkpt>
      <trkpt lat="42.57958" lon="2.02597">
        <ele>2349</ele>
        <time>2020-07-25T07:44:01.124Z</time>
      </trkpt>
      <trkpt lat="42.57959" lon="2.02592">
        <ele>2349</ele>
        <time>2020-07-25T07:44:02.124Z</time>
      </trkpt>
      <trkpt lat="42.5796" lon="2.02587">
        <ele>2349</ele>
        <time>2020-07-25T07:44:03.124Z</time>
      </trkpt>
      <trkpt lat="42.57961" lon="2.02582">
        <ele>2349</ele>
        <time>2020-07-25T07:44:04.124Z</time>
      </trkpt>
      <trkpt lat="42.57962" lon="2.02577">
        <ele>2349</ele>
        <time>2020-07-25T07:44:05.124Z</time>
      </trkpt>
      <trkpt lat="42.57963" lon="2.02572">
        <ele>2349</ele>
        <time>2020-07-25T07:44:06.124Z</time>
      </trkpt>
      <trkpt lat="42.57964" lon="2.02567">
        <ele>2349</ele>
        <time>2020-07-25T07:44:07.124Z</time>
      </trkpt>
      <trkpt lat="42.57964" lon="2.02562">
        <ele>2348</ele>
        <time>2020-07-25T07:44:08.124Z</time>
      </trkpt>
      <trkpt lat="42.57965" lon="2.02557">
        <ele>2347</ele>
        <time>2020-07-25T07:44:09.124Z</time>
      </trkpt>
      <trkpt lat="42.57966" lon="2.02552">
        <ele>2347</ele>
        <time>2020-07-25T07:44:10.124Z</time>
      </trkpt>
      <trkpt lat="42.57967" lon="2.02547">
        <ele>2347</ele>
        <time>2020-07-25T07:44:11.124Z</time>
      </trkpt>
      <trkpt lat="42.57968" lon="2.02542">
        <ele>2347</ele>
        <time>2020-07-25T07:44:12.124Z</time>
      </trkpt>
      <trkpt lat="42.57968" lon="2.02537">
        <ele>2346</ele>
        <time>2020-07-25T07:44:13.124Z</time>
      </trkpt>
      <trkpt lat="42.57969" lon="2.02532">
        <ele>2346</ele>
        <time>2020-07-25T07:44:14.124Z</time>
      </trkpt>
      <trkpt lat="42.5797" lon="2.02527">
        <ele>2346</ele>
        <time>2020-07-25T07:44:15.124Z</time>
      </trkpt>
      <trkpt lat="42.5797" lon="2.02522">
        <ele>2346</ele>
        <time>2020-07-25T07:44:16.124Z</time>
      </trkpt>
      <trkpt lat="42.57971" lon="2.02517">
        <ele>2346</ele>
        <time>2020-07-25T07:44:17.124Z</time>
      </trkpt>
      <trkpt lat="42.57972" lon="2.02513">
        <ele>2345</ele>
        <time>2020-07-25T07:44:18.124Z</time>
      </trkpt>
      <trkpt lat="42.57973" lon="2.02508">
        <ele>2345</ele>
        <time>2020-07-25T07:44:19.124Z</time>
      </trkpt>
      <trkpt lat="42.57974" lon="2.02504">
        <ele>2345</ele>
        <time>2020-07-25T07:44:20.124Z</time>
      </trkpt>
      <trkpt lat="42.57974" lon="2.025">
        <ele>2345</ele>
        <time>2020-07-25T07:44:21.124Z</time>
      </trkpt>
      <trkpt lat="42.57975" lon="2.02495">
        <ele>2345</ele>
        <time>2020-07-25T07:44:22.124Z</time>
      </trkpt>
      <trkpt lat="42.57976" lon="2.0249">
        <ele>2345</ele>
        <time>2020-07-25T07:44:23.124Z</time>
      </trkpt>
      <trkpt lat="42.57976" lon="2.02485">
        <ele>2344</ele>
        <time>2020-07-25T07:44:24.124Z</time>
      </trkpt>
      <trkpt lat="42.57977" lon="2.02481">
        <ele>2345</ele>
        <time>2020-07-25T07:44:25.124Z</time>
      </trkpt>
      <trkpt lat="42.57978" lon="2.02476">
        <ele>2346</ele>
        <time>2020-07-25T07:44:26.124Z</time>
      </trkpt>
      <trkpt lat="42.57979" lon="2.02471">
        <ele>2346</ele>
        <time>2020-07-25T07:44:27.124Z</time>
      </trkpt>
      <trkpt lat="42.57979" lon="2.02465">
        <ele>2346</ele>
        <time>2020-07-25T07:44:28.124Z</time>
      </trkpt>
      <trkpt lat="42.5798" lon="2.0246">
        <ele>2345</ele>
        <time>2020-07-25T07:44:29.124Z</time>
      </trkpt>
      <trkpt lat="42.57981" lon="2.02455">
        <ele>2345</ele>
        <time>2020-07-25T07:44:30.124Z</time>
      </trkpt>
      <trkpt lat="42.57981" lon="2.0245">
        <ele>2345</ele>
        <time>2020-07-25T07:44:31.124Z</time>
      </trkpt>
      <trkpt lat="42.57982" lon="2.02446">
        <ele>2345</ele>
        <time>2020-07-25T07:44:32.124Z</time>
      </trkpt>
      <trkpt lat="42.57983" lon="2.02441">
        <ele>2345</ele>
        <time>2020-07-25T07:44:33.124Z</time>
      </trkpt>
      <trkpt lat="42.57983" lon="2.02436">
        <ele>2345</ele>
        <time>2020-07-25T07:44:34.124Z</time>
      </trkpt>
      <trkpt lat="42.57984" lon="2.02431">
        <ele>2345</ele>
        <time>2020-07-25T07:44:35.124Z</time>
      </trkpt>
      <trkpt lat="42.57985" lon="2.02426">
        <ele>2345</ele>
        <time>2020-07-25T07:44:36.124Z</time>
      </trkpt>
      <trkpt lat="42.57986" lon="2.02421">
        <ele>2345</ele>
        <time>2020-07-25T07:44:37.124Z</time>
      </trkpt>
      <trkpt lat="42.57986" lon="2.02416">
        <ele>2345</ele>
        <time>2020-07-25T07:44:38.124Z</time>
      </trkpt>
      <trkpt lat="42.57987" lon="2.02412">
        <ele>2346</ele>
        <time>2020-07-25T07:44:39.124Z</time>
      </trkpt>
      <trkpt lat="42.57987" lon="2.0241">
        <ele>2346</ele>
        <time>2020-07-25T07:44:40.124Z</time>
      </trkpt>
      <trkpt lat="42.57988" lon="2.02409">
        <ele>2346</ele>
        <time>2020-07-25T07:44:41.124Z</time>
      </trkpt>
      <trkpt lat="42.57988" lon="2.02408">
        <ele>2346</ele>
        <time>2020-07-25T07:44:42.124Z</time>
      </trkpt>
      <trkpt lat="42.57988" lon="2.02407">
        <ele>2346</ele>
        <time>2020-07-25T07:44:43.124Z</time>
      </trkpt>
      <trkpt lat="42.57988" lon="2.02405">
        <ele>2345</ele>
        <time>2020-07-25T07:44:44.124Z</time>
      </trkpt>
      <trkpt lat="42.57988" lon="2.02402">
        <ele>2347</ele>
        <time>2020-07-25T07:44:45.124Z</time>
      </trkpt>
      <trkpt lat="42.57988" lon="2.02398">
        <ele>2347</ele>
        <time>2020-07-25T07:44:46.124Z</time>
      </trkpt>
      <trkpt lat="42.57988" lon="2.02393">
        <ele>2347</ele>
        <time>2020-07-25T07:44:47.124Z</time>
      </trkpt>
      <trkpt lat="42.57988" lon="2.02388">
        <ele>2347</ele>
        <time>2020-07-25T07:44:48.124Z</time>
      </trkpt>
      <trkpt lat="42.57988" lon="2.02383">
        <ele>2347</ele>
        <time>2020-07-25T07:44:49.124Z</time>
      </trkpt>
      <trkpt lat="42.57988" lon="2.02379">
        <ele>2347</ele>
        <time>2020-07-25T07:44:50.124Z</time>
      </trkpt>
      <trkpt lat="42.57988" lon="2.02374">
        <ele>2347</ele>
        <time>2020-07-25T07:44:51.124Z</time>
      </trkpt>
      <trkpt lat="42.57988" lon="2.02369">
        <ele>2347</ele>
        <time>2020-07-25T07:44:52.124Z</time>
      </trkpt>
      <trkpt lat="42.57988" lon="2.02365">
        <ele>2347</ele>
        <time>2020-07-25T07:44:53.124Z</time>
      </trkpt>
      <trkpt lat="42.57989" lon="2.0236">
        <ele>2347</ele>
        <time>2020-07-25T07:44:54.124Z</time>
      </trkpt>
      <trkpt lat="42.57989" lon="2.02356">
        <ele>2347</ele>
        <time>2020-07-25T07:44:55.124Z</time>
      </trkpt>
      <trkpt lat="42.5799" lon="2.02352">
        <ele>2346</ele>
        <time>2020-07-25T07:44:56.124Z</time>
      </trkpt>
      <trkpt lat="42.57989" lon="2.02347">
        <ele>2345</ele>
        <time>2020-07-25T07:44:57.124Z</time>
      </trkpt>
      <trkpt lat="42.57989" lon="2.02343">
        <ele>2345</ele>
        <time>2020-07-25T07:44:58.124Z</time>
      </trkpt>
      <trkpt lat="42.57988" lon="2.02338">
        <ele>2345</ele>
        <time>2020-07-25T07:44:59.124Z</time>
      </trkpt>
      <trkpt lat="42.57987" lon="2.02333">
        <ele>2345</ele>
        <time>2020-07-25T07:45:00.124Z</time>
      </trkpt>
      <trkpt lat="42.57985" lon="2.02329">
        <ele>2345</ele>
        <time>2020-07-25T07:45:01.124Z</time>
      </trkpt>
      <trkpt lat="42.57984" lon="2.02325">
        <ele>2345</ele>
        <time>2020-07-25T07:45:02.124Z</time>
      </trkpt>
      <trkpt lat="42.57982" lon="2.02321">
        <ele>2345</ele>
        <time>2020-07-25T07:45:03.124Z</time>
      </trkpt>
      <trkpt lat="42.5798" lon="2.02317">
        <ele>2345</ele>
        <time>2020-07-25T07:45:04.124Z</time>
      </trkpt>
      <trkpt lat="42.57978" lon="2.02312">
        <ele>2344</ele>
        <time>2020-07-25T07:45:05.124Z</time>
      </trkpt>
      <trkpt lat="42.57976" lon="2.02308">
        <ele>2343</ele>
        <time>2020-07-25T07:45:06.124Z</time>
      </trkpt>
      <trkpt lat="42.57974" lon="2.02304">
        <ele>2343</ele>
        <time>2020-07-25T07:45:07.124Z</time>
      </trkpt>
      <trkpt lat="42.57972" lon="2.02301">
        <ele>2343</ele>
        <time>2020-07-25T07:45:08.124Z</time>
      </trkpt>
      <trkpt lat="42.5797" lon="2.02297">
        <ele>2342</ele>
        <time>2020-07-25T07:45:09.124Z</time>
      </trkpt>
      <trkpt lat="42.57967" lon="2.02293">
        <ele>2343</ele>
        <time>2020-07-25T07:45:10.124Z</time>
      </trkpt>
      <trkpt lat="42.57964" lon="2.02289">
        <ele>2343</ele>
        <time>2020-07-25T07:45:11.124Z</time>
      </trkpt>
      <trkpt lat="42.57962" lon="2.02285">
        <ele>2343</ele>
        <time>2020-07-25T07:45:12.124Z</time>
      </trkpt>
      <trkpt lat="42.57959" lon="2.02281">
        <ele>2343</ele>
        <time>2020-07-25T07:45:13.124Z</time>
      </trkpt>
      <trkpt lat="42.57957" lon="2.02277">
        <ele>2343</ele>
        <time>2020-07-25T07:45:14.124Z</time>
      </trkpt>
      <trkpt lat="42.57954" lon="2.02274">
        <ele>2343</ele>
        <time>2020-07-25T07:45:15.124Z</time>
      </trkpt>
      <trkpt lat="42.57951" lon="2.0227">
        <ele>2343</ele>
        <time>2020-07-25T07:45:16.124Z</time>
      </trkpt>
      <trkpt lat="42.57949" lon="2.02266">
        <ele>2343</ele>
        <time>2020-07-25T07:45:17.124Z</time>
      </trkpt>
      <trkpt lat="42.57947" lon="2.02262">
        <ele>2342</ele>
        <time>2020-07-25T07:45:18.124Z</time>
      </trkpt>
      <trkpt lat="42.57944" lon="2.02258">
        <ele>2341</ele>
        <time>2020-07-25T07:45:19.124Z</time>
      </trkpt>
      <trkpt lat="42.57942" lon="2.02253">
        <ele>2340</ele>
        <time>2020-07-25T07:45:20.124Z</time>
      </trkpt>
      <trkpt lat="42.5794" lon="2.02249">
        <ele>2340</ele>
        <time>2020-07-25T07:45:21.124Z</time>
      </trkpt>
      <trkpt lat="42.57938" lon="2.02244">
        <ele>2339</ele>
        <time>2020-07-25T07:45:22.124Z</time>
      </trkpt>
      <trkpt lat="42.57937" lon="2.0224">
        <ele>2338</ele>
        <time>2020-07-25T07:45:23.124Z</time>
      </trkpt>
      <trkpt lat="42.57935" lon="2.02236">
        <ele>2337</ele>
        <time>2020-07-25T07:45:24.124Z</time>
      </trkpt>
      <trkpt lat="42.57933" lon="2.02231">
        <ele>2337</ele>
        <time>2020-07-25T07:45:25.124Z</time>
      </trkpt>
      <trkpt lat="42.57931" lon="2.02227">
        <ele>2336</ele>
        <time>2020-07-25T07:45:26.124Z</time>
      </trkpt>
      <trkpt lat="42.57929" lon="2.02223">
        <ele>2336</ele>
        <time>2020-07-25T07:45:27.124Z</time>
      </trkpt>
      <trkpt lat="42.57927" lon="2.02219">
        <ele>2334</ele>
        <time>2020-07-25T07:45:28.124Z</time>
      </trkpt>
      <trkpt lat="42.57925" lon="2.02215">
        <ele>2332</ele>
        <time>2020-07-25T07:45:29.124Z</time>
      </trkpt>
      <trkpt lat="42.57922" lon="2.02212">
        <ele>2331</ele>
        <time>2020-07-25T07:45:30.124Z</time>
      </trkpt>
      <trkpt lat="42.5792" lon="2.0221">
        <ele>2329</ele>
        <time>2020-07-25T07:45:31.124Z</time>
      </trkpt>
      <trkpt lat="42.57917" lon="2.02209">
        <ele>2328</ele>
        <time>2020-07-25T07:45:32.124Z</time>
      </trkpt>
      <trkpt lat="42.57914" lon="2.02208">
        <ele>2327</ele>
        <time>2020-07-25T07:45:33.124Z</time>
      </trkpt>
      <trkpt lat="42.57912" lon="2.02207">
        <ele>2326</ele>
        <time>2020-07-25T07:45:34.124Z</time>
      </trkpt>
      <trkpt lat="42.57911" lon="2.02205">
        <ele>2328</ele>
        <time>2020-07-25T07:45:35.124Z</time>
      </trkpt>
      <trkpt lat="42.57912" lon="2.02205">
        <ele>2330</ele>
        <time>2020-07-25T07:45:36.124Z</time>
      </trkpt>
      <trkpt lat="42.57913" lon="2.02205">
        <ele>2330</ele>
        <time>2020-07-25T07:45:37.124Z</time>
      </trkpt>
      <trkpt lat="42.57913" lon="2.02205">
        <ele>2329</ele>
        <time>2020-07-25T07:45:38.124Z</time>
      </trkpt>
      <trkpt lat="42.57913" lon="2.02205">
        <ele>2329</ele>
        <time>2020-07-25T07:45:39.124Z</time>
      </trkpt>
      <trkpt lat="42.57914" lon="2.02205">
        <ele>2329</ele>
        <time>2020-07-25T07:45:40.124Z</time>
      </trkpt>
      <trkpt lat="42.57914" lon="2.02204">
        <ele>2329</ele>
        <time>2020-07-25T07:45:41.124Z</time>
      </trkpt>
      <trkpt lat="42.57914" lon="2.02204">
        <ele>2328</ele>
        <time>2020-07-25T07:45:42.124Z</time>
      </trkpt>
      <trkpt lat="42.57914" lon="2.02203">
        <ele>2328</ele>
        <time>2020-07-25T07:45:43.124Z</time>
      </trkpt>
      <trkpt lat="42.57913" lon="2.02202">
        <ele>2328</ele>
        <time>2020-07-25T07:45:44.124Z</time>
      </trkpt>
      <trkpt lat="42.57912" lon="2.02198">
        <ele>2327</ele>
        <time>2020-07-25T07:45:45.124Z</time>
      </trkpt>
      <trkpt lat="42.57912" lon="2.02195">
        <ele>2326</ele>
        <time>2020-07-25T07:45:46.124Z</time>
      </trkpt>
      <trkpt lat="42.57912" lon="2.02191">
        <ele>2326</ele>
        <time>2020-07-25T07:45:47.124Z</time>
      </trkpt>
      <trkpt lat="42.57911" lon="2.02186">
        <ele>2325</ele>
        <time>2020-07-25T07:45:48.124Z</time>
      </trkpt>
      <trkpt lat="42.57911" lon="2.02182">
        <ele>2325</ele>
        <time>2020-07-25T07:45:49.124Z</time>
      </trkpt>
      <trkpt lat="42.5791" lon="2.02178">
        <ele>2325</ele>
        <time>2020-07-25T07:45:50.124Z</time>
      </trkpt>
      <trkpt lat="42.57909" lon="2.02175">
        <ele>2324</ele>
        <time>2020-07-25T07:45:51.124Z</time>
      </trkpt>
      <trkpt lat="42.57908" lon="2.02171">
        <ele>2323</ele>
        <time>2020-07-25T07:45:52.124Z</time>
      </trkpt>
      <trkpt lat="42.57906" lon="2.02168">
        <ele>2322</ele>
        <time>2020-07-25T07:45:53.124Z</time>
      </trkpt>
      <trkpt lat="42.57904" lon="2.02164">
        <ele>2322</ele>
        <time>2020-07-25T07:45:54.124Z</time>
      </trkpt>
      <trkpt lat="42.57902" lon="2.0216">
        <ele>2322</ele>
        <time>2020-07-25T07:45:55.124Z</time>
      </trkpt>
      <trkpt lat="42.579" lon="2.02157">
        <ele>2321</ele>
        <time>2020-07-25T07:45:56.124Z</time>
      </trkpt>
      <trkpt lat="42.57899" lon="2.02153">
        <ele>2321</ele>
        <time>2020-07-25T07:45:57.124Z</time>
      </trkpt>
      <trkpt lat="42.57879" lon="2.02119">
        <ele>2312</ele>
        <time>2020-07-25T07:45:58.078Z</time>
      </trkpt>
      <trkpt lat="42.57878" lon="2.02117">
        <ele>2312</ele>
        <time>2020-07-25T07:45:59.078Z</time>
      </trkpt>
      <trkpt lat="42.57878" lon="2.02115">
        <ele>2312</ele>
        <time>2020-07-25T07:46:00.078Z</time>
      </trkpt>
      <trkpt lat="42.57877" lon="2.02112">
        <ele>2311</ele>
        <time>2020-07-25T07:46:01.078Z</time>
      </trkpt>
      <trkpt lat="42.57876" lon="2.02109">
        <ele>2311</ele>
        <time>2020-07-25T07:46:02.078Z</time>
      </trkpt>
      <trkpt lat="42.57874" lon="2.02105">
        <ele>2310</ele>
        <time>2020-07-25T07:46:03.078Z</time>
      </trkpt>
      <trkpt lat="42.57873" lon="2.02102">
        <ele>2310</ele>
        <time>2020-07-25T07:46:04.078Z</time>
      </trkpt>
      <trkpt lat="42.57871" lon="2.02098">
        <ele>2310</ele>
        <time>2020-07-25T07:46:05.078Z</time>
      </trkpt>
      <trkpt lat="42.5787" lon="2.02094">
        <ele>2309</ele>
        <time>2020-07-25T07:46:06.078Z</time>
      </trkpt>
      <trkpt lat="42.57868" lon="2.0209">
        <ele>2308</ele>
        <time>2020-07-25T07:46:07.078Z</time>
      </trkpt>
      <trkpt lat="42.57867" lon="2.02086">
        <ele>2308</ele>
        <time>2020-07-25T07:46:08.078Z</time>
      </trkpt>
      <trkpt lat="42.57866" lon="2.02081">
        <ele>2307</ele>
        <time>2020-07-25T07:46:09.078Z</time>
      </trkpt>
      <trkpt lat="42.57865" lon="2.02077">
        <ele>2306</ele>
        <time>2020-07-25T07:46:10.078Z</time>
      </trkpt>
      <trkpt lat="42.57865" lon="2.02072">
        <ele>2306</ele>
        <time>2020-07-25T07:46:11.078Z</time>
      </trkpt>
      <trkpt lat="42.57864" lon="2.02067">
        <ele>2305</ele>
        <time>2020-07-25T07:46:12.078Z</time>
      </trkpt>
      <trkpt lat="42.57865" lon="2.02062">
        <ele>2304</ele>
        <time>2020-07-25T07:46:13.078Z</time>
      </trkpt>
      <trkpt lat="42.57866" lon="2.02058">
        <ele>2304</ele>
        <time>2020-07-25T07:46:14.078Z</time>
      </trkpt>
      <trkpt lat="42.57868" lon="2.02054">
        <ele>2303</ele>
        <time>2020-07-25T07:46:15.078Z</time>
      </trkpt>
      <trkpt lat="42.5787" lon="2.0205">
        <ele>2303</ele>
        <time>2020-07-25T07:46:16.078Z</time>
      </trkpt>
      <trkpt lat="42.57871" lon="2.02045">
        <ele>2303</ele>
        <time>2020-07-25T07:46:17.078Z</time>
      </trkpt>
      <trkpt lat="42.57873" lon="2.02041">
        <ele>2302</ele>
        <time>2020-07-25T07:46:18.078Z</time>
      </trkpt>
      <trkpt lat="42.57875" lon="2.02038">
        <ele>2302</ele>
        <time>2020-07-25T07:46:19.078Z</time>
      </trkpt>
      <trkpt lat="42.57877" lon="2.02034">
        <ele>2302</ele>
        <time>2020-07-25T07:46:20.078Z</time>
      </trkpt>
      <trkpt lat="42.57879" lon="2.02029">
        <ele>2301</ele>
        <time>2020-07-25T07:46:21.078Z</time>
      </trkpt>
      <trkpt lat="42.57881" lon="2.02025">
        <ele>2301</ele>
        <time>2020-07-25T07:46:22.078Z</time>
      </trkpt>
      <trkpt lat="42.57883" lon="2.02021">
        <ele>2301</ele>
        <time>2020-07-25T07:46:23.078Z</time>
      </trkpt>
      <trkpt lat="42.57884" lon="2.02016">
        <ele>2300</ele>
        <time>2020-07-25T07:46:24.078Z</time>
      </trkpt>
      <trkpt lat="42.57886" lon="2.02012">
        <ele>2299</ele>
        <time>2020-07-25T07:46:25.078Z</time>
      </trkpt>
      <trkpt lat="42.57887" lon="2.02008">
        <ele>2298</ele>
        <time>2020-07-25T07:46:26.078Z</time>
      </trkpt>
      <trkpt lat="42.57888" lon="2.02004">
        <ele>2298</ele>
        <time>2020-07-25T07:46:27.078Z</time>
      </trkpt>
      <trkpt lat="42.57889" lon="2.01999">
        <ele>2297</ele>
        <time>2020-07-25T07:46:28.078Z</time>
      </trkpt>
      <trkpt lat="42.5789" lon="2.01994">
        <ele>2296</ele>
        <time>2020-07-25T07:46:29.078Z</time>
      </trkpt>
      <trkpt lat="42.57891" lon="2.0199">
        <ele>2295</ele>
        <time>2020-07-25T07:46:30.078Z</time>
      </trkpt>
      <trkpt lat="42.57893" lon="2.01986">
        <ele>2294</ele>
        <time>2020-07-25T07:46:31.078Z</time>
      </trkpt>
      <trkpt lat="42.57894" lon="2.01982">
        <ele>2293</ele>
        <time>2020-07-25T07:46:32.078Z</time>
      </trkpt>
      <trkpt lat="42.57896" lon="2.01978">
        <ele>2293</ele>
        <time>2020-07-25T07:46:33.078Z</time>
      </trkpt>
      <trkpt lat="42.57898" lon="2.01975">
        <ele>2292</ele>
        <time>2020-07-25T07:46:34.078Z</time>
      </trkpt>
      <trkpt lat="42.579" lon="2.01971">
        <ele>2291</ele>
        <time>2020-07-25T07:46:35.078Z</time>
      </trkpt>
      <trkpt lat="42.57902" lon="2.01967">
        <ele>2289</ele>
        <time>2020-07-25T07:46:36.078Z</time>
      </trkpt>
      <trkpt lat="42.57903" lon="2.01962">
        <ele>2288</ele>
        <time>2020-07-25T07:46:37.078Z</time>
      </trkpt>
      <trkpt lat="42.57905" lon="2.01958">
        <ele>2286</ele>
        <time>2020-07-25T07:46:38.078Z</time>
      </trkpt>
      <trkpt lat="42.57906" lon="2.01953">
        <ele>2286</ele>
        <time>2020-07-25T07:46:39.078Z</time>
      </trkpt>
      <trkpt lat="42.57907" lon="2.01949">
        <ele>2285</ele>
        <time>2020-07-25T07:46:40.078Z</time>
      </trkpt>
      <trkpt lat="42.57909" lon="2.01945">
        <ele>2285</ele>
        <time>2020-07-25T07:46:41.078Z</time>
      </trkpt>
      <trkpt lat="42.57911" lon="2.01941">
        <ele>2284</ele>
        <time>2020-07-25T07:46:42.078Z</time>
      </trkpt>
      <trkpt lat="42.57913" lon="2.01938">
        <ele>2283</ele>
        <time>2020-07-25T07:46:43.078Z</time>
      </trkpt>
      <trkpt lat="42.57916" lon="2.01934">
        <ele>2283</ele>
        <time>2020-07-25T07:46:44.078Z</time>
      </trkpt>
      <trkpt lat="42.57918" lon="2.01931">
        <ele>2282</ele>
        <time>2020-07-25T07:46:45.078Z</time>
      </trkpt>
      <trkpt lat="42.57919" lon="2.01926">
        <ele>2282</ele>
        <time>2020-07-25T07:46:46.078Z</time>
      </trkpt>
      <trkpt lat="42.5792" lon="2.01922">
        <ele>2282</ele>
        <time>2020-07-25T07:46:47.078Z</time>
      </trkpt>
      <trkpt lat="42.57921" lon="2.01917">
        <ele>2281</ele>
        <time>2020-07-25T07:46:48.078Z</time>
      </trkpt>
      <trkpt lat="42.57922" lon="2.01912">
        <ele>2280</ele>
        <time>2020-07-25T07:46:49.078Z</time>
      </trkpt>
      <trkpt lat="42.57923" lon="2.01907">
        <ele>2280</ele>
        <time>2020-07-25T07:46:50.078Z</time>
      </trkpt>
      <trkpt lat="42.57924" lon="2.01902">
        <ele>2281</ele>
        <time>2020-07-25T07:46:51.078Z</time>
      </trkpt>
      <trkpt lat="42.57925" lon="2.01896">
        <ele>2280</ele>
        <time>2020-07-25T07:46:52.078Z</time>
      </trkpt>
      <trkpt lat="42.57926" lon="2.01891">
        <ele>2279</ele>
        <time>2020-07-25T07:46:53.078Z</time>
      </trkpt>
      <trkpt lat="42.57927" lon="2.01886">
        <ele>2279</ele>
        <time>2020-07-25T07:46:54.078Z</time>
      </trkpt>
      <trkpt lat="42.57929" lon="2.01881">
        <ele>2278</ele>
        <time>2020-07-25T07:46:55.078Z</time>
      </trkpt>
      <trkpt lat="42.57929" lon="2.01876">
        <ele>2278</ele>
        <time>2020-07-25T07:46:56.078Z</time>
      </trkpt>
      <trkpt lat="42.57929" lon="2.01871">
        <ele>2279</ele>
        <time>2020-07-25T07:46:57.078Z</time>
      </trkpt>
      <trkpt lat="42.57929" lon="2.01866">
        <ele>2279</ele>
        <time>2020-07-25T07:46:58.078Z</time>
      </trkpt>
      <trkpt lat="42.57929" lon="2.01861">
        <ele>2278</ele>
        <time>2020-07-25T07:46:59.078Z</time>
      </trkpt>
      <trkpt lat="42.5793" lon="2.01855">
        <ele>2278</ele>
        <time>2020-07-25T07:47:00.078Z</time>
      </trkpt>
      <trkpt lat="42.5793" lon="2.0185">
        <ele>2278</ele>
        <time>2020-07-25T07:47:01.078Z</time>
      </trkpt>
      <trkpt lat="42.57931" lon="2.01845">
        <ele>2278</ele>
        <time>2020-07-25T07:47:02.078Z</time>
      </trkpt>
      <trkpt lat="42.57932" lon="2.0184">
        <ele>2279</ele>
        <time>2020-07-25T07:47:03.078Z</time>
      </trkpt>
      <trkpt lat="42.57934" lon="2.01836">
        <ele>2278</ele>
        <time>2020-07-25T07:47:04.078Z</time>
      </trkpt>
      <trkpt lat="42.57935" lon="2.01831">
        <ele>2278</ele>
        <time>2020-07-25T07:47:05.078Z</time>
      </trkpt>
      <trkpt lat="42.57936" lon="2.01826">
        <ele>2278</ele>
        <time>2020-07-25T07:47:06.078Z</time>
      </trkpt>
      <trkpt lat="42.57936" lon="2.01822">
        <ele>2277</ele>
        <time>2020-07-25T07:47:07.078Z</time>
      </trkpt>
      <trkpt lat="42.57937" lon="2.01817">
        <ele>2276</ele>
        <time>2020-07-25T07:47:08.078Z</time>
      </trkpt>
      <trkpt lat="42.57937" lon="2.01811">
        <ele>2276</ele>
        <time>2020-07-25T07:47:09.078Z</time>
      </trkpt>
      <trkpt lat="42.57938" lon="2.01806">
        <ele>2276</ele>
        <time>2020-07-25T07:47:10.078Z</time>
      </trkpt>
      <trkpt lat="42.57938" lon="2.01801">
        <ele>2275</ele>
        <time>2020-07-25T07:47:11.078Z</time>
      </trkpt>
      <trkpt lat="42.57938" lon="2.01796">
        <ele>2275</ele>
        <time>2020-07-25T07:47:12.078Z</time>
      </trkpt>
      <trkpt lat="42.57938" lon="2.01791">
        <ele>2274</ele>
        <time>2020-07-25T07:47:13.078Z</time>
      </trkpt>
      <trkpt lat="42.57937" lon="2.01786">
        <ele>2274</ele>
        <time>2020-07-25T07:47:14.078Z</time>
      </trkpt>
      <trkpt lat="42.57937" lon="2.0178">
        <ele>2274</ele>
        <time>2020-07-25T07:47:15.078Z</time>
      </trkpt>
      <trkpt lat="42.57936" lon="2.01775">
        <ele>2273</ele>
        <time>2020-07-25T07:47:16.078Z</time>
      </trkpt>
      <trkpt lat="42.57935" lon="2.0177">
        <ele>2273</ele>
        <time>2020-07-25T07:47:17.078Z</time>
      </trkpt>
      <trkpt lat="42.57934" lon="2.01764">
        <ele>2272</ele>
        <time>2020-07-25T07:47:18.078Z</time>
      </trkpt>
      <trkpt lat="42.57933" lon="2.01759">
        <ele>2272</ele>
        <time>2020-07-25T07:47:19.078Z</time>
      </trkpt>
      <trkpt lat="42.57932" lon="2.01755">
        <ele>2271</ele>
        <time>2020-07-25T07:47:20.078Z</time>
      </trkpt>
      <trkpt lat="42.57931" lon="2.0175">
        <ele>2270</ele>
        <time>2020-07-25T07:47:21.078Z</time>
      </trkpt>
      <trkpt lat="42.57931" lon="2.01745">
        <ele>2270</ele>
        <time>2020-07-25T07:47:22.078Z</time>
      </trkpt>
      <trkpt lat="42.5793" lon="2.0174">
        <ele>2270</ele>
        <time>2020-07-25T07:47:23.078Z</time>
      </trkpt>
      <trkpt lat="42.5793" lon="2.01735">
        <ele>2270</ele>
        <time>2020-07-25T07:47:24.078Z</time>
      </trkpt>
      <trkpt lat="42.57929" lon="2.0173">
        <ele>2269</ele>
        <time>2020-07-25T07:47:25.078Z</time>
      </trkpt>
      <trkpt lat="42.57928" lon="2.01724">
        <ele>2269</ele>
        <time>2020-07-25T07:47:26.078Z</time>
      </trkpt>
      <trkpt lat="42.57928" lon="2.01719">
        <ele>2269</ele>
        <time>2020-07-25T07:47:27.078Z</time>
      </trkpt>
      <trkpt lat="42.57928" lon="2.01714">
        <ele>2268</ele>
        <time>2020-07-25T07:47:28.078Z</time>
      </trkpt>
      <trkpt lat="42.57928" lon="2.01709">
        <ele>2268</ele>
        <time>2020-07-25T07:47:29.078Z</time>
      </trkpt>
      <trkpt lat="42.5793" lon="2.01704">
        <ele>2267</ele>
        <time>2020-07-25T07:47:30.078Z</time>
      </trkpt>
      <trkpt lat="42.57932" lon="2.017">
        <ele>2266</ele>
        <time>2020-07-25T07:47:31.078Z</time>
      </trkpt>
      <trkpt lat="42.57935" lon="2.01696">
        <ele>2266</ele>
        <time>2020-07-25T07:47:32.078Z</time>
      </trkpt>
      <trkpt lat="42.57939" lon="2.01693">
        <ele>2265</ele>
        <time>2020-07-25T07:47:33.078Z</time>
      </trkpt>
      <trkpt lat="42.57942" lon="2.0169">
        <ele>2264</ele>
        <time>2020-07-25T07:47:34.078Z</time>
      </trkpt>
      <trkpt lat="42.57944" lon="2.01687">
        <ele>2264</ele>
        <time>2020-07-25T07:47:35.078Z</time>
      </trkpt>
      <trkpt lat="42.57947" lon="2.01684">
        <ele>2264</ele>
        <time>2020-07-25T07:47:36.078Z</time>
      </trkpt>
      <trkpt lat="42.5795" lon="2.01681">
        <ele>2264</ele>
        <time>2020-07-25T07:47:37.078Z</time>
      </trkpt>
      <trkpt lat="42.57953" lon="2.01678">
        <ele>2262</ele>
        <time>2020-07-25T07:47:38.078Z</time>
      </trkpt>
      <trkpt lat="42.57956" lon="2.01675">
        <ele>2262</ele>
        <time>2020-07-25T07:47:39.078Z</time>
      </trkpt>
      <trkpt lat="42.57959" lon="2.01673">
        <ele>2262</ele>
        <time>2020-07-25T07:47:40.078Z</time>
      </trkpt>
      <trkpt lat="42.57962" lon="2.01669">
        <ele>2262</ele>
        <time>2020-07-25T07:47:41.078Z</time>
      </trkpt>
      <trkpt lat="42.57965" lon="2.01666">
        <ele>2262</ele>
        <time>2020-07-25T07:47:42.078Z</time>
      </trkpt>
      <trkpt lat="42.57968" lon="2.01663">
        <ele>2262</ele>
        <time>2020-07-25T07:47:43.078Z</time>
      </trkpt>
      <trkpt lat="42.57972" lon="2.01659">
        <ele>2261</ele>
        <time>2020-07-25T07:47:44.078Z</time>
      </trkpt>
      <trkpt lat="42.57975" lon="2.01656">
        <ele>2261</ele>
        <time>2020-07-25T07:47:45.078Z</time>
      </trkpt>
      <trkpt lat="42.57978" lon="2.01653">
        <ele>2261</ele>
        <time>2020-07-25T07:47:46.078Z</time>
      </trkpt>
      <trkpt lat="42.57982" lon="2.01649">
        <ele>2260</ele>
        <time>2020-07-25T07:47:47.078Z</time>
      </trkpt>
      <trkpt lat="42.57985" lon="2.01646">
        <ele>2261</ele>
        <time>2020-07-25T07:47:48.078Z</time>
      </trkpt>
      <trkpt lat="42.57989" lon="2.01644">
        <ele>2260</ele>
        <time>2020-07-25T07:47:49.078Z</time>
      </trkpt>
      <trkpt lat="42.57993" lon="2.01642">
        <ele>2260</ele>
        <time>2020-07-25T07:47:50.078Z</time>
      </trkpt>
      <trkpt lat="42.57997" lon="2.0164">
        <ele>2259</ele>
        <time>2020-07-25T07:47:51.078Z</time>
      </trkpt>
      <trkpt lat="42.58" lon="2.01639">
        <ele>2258</ele>
        <time>2020-07-25T07:47:52.078Z</time>
      </trkpt>
      <trkpt lat="42.58003" lon="2.01637">
        <ele>2257</ele>
        <time>2020-07-25T07:47:53.078Z</time>
      </trkpt>
      <trkpt lat="42.58007" lon="2.01635">
        <ele>2256</ele>
        <time>2020-07-25T07:47:54.078Z</time>
      </trkpt>
      <trkpt lat="42.5801" lon="2.01632">
        <ele>2255</ele>
        <time>2020-07-25T07:47:55.078Z</time>
      </trkpt>
      <trkpt lat="42.58014" lon="2.01629">
        <ele>2254</ele>
        <time>2020-07-25T07:47:56.078Z</time>
      </trkpt>
      <trkpt lat="42.58017" lon="2.01627">
        <ele>2254</ele>
        <time>2020-07-25T07:47:57.078Z</time>
      </trkpt>
      <trkpt lat="42.5802" lon="2.01625">
        <ele>2252</ele>
        <time>2020-07-25T07:47:58.078Z</time>
      </trkpt>
      <trkpt lat="42.58024" lon="2.01623">
        <ele>2252</ele>
        <time>2020-07-25T07:47:59.078Z</time>
      </trkpt>
      <trkpt lat="42.58027" lon="2.01622">
        <ele>2252</ele>
        <time>2020-07-25T07:48:00.078Z</time>
      </trkpt>
      <trkpt lat="42.58031" lon="2.0162">
        <ele>2252</ele>
        <time>2020-07-25T07:48:01.078Z</time>
      </trkpt>
      <trkpt lat="42.58035" lon="2.01618">
        <ele>2251</ele>
        <time>2020-07-25T07:48:02.078Z</time>
      </trkpt>
      <trkpt lat="42.58039" lon="2.01616">
        <ele>2251</ele>
        <time>2020-07-25T07:48:03.078Z</time>
      </trkpt>
      <trkpt lat="42.58042" lon="2.01613">
        <ele>2250</ele>
        <time>2020-07-25T07:48:04.078Z</time>
      </trkpt>
      <trkpt lat="42.58045" lon="2.0161">
        <ele>2249</ele>
        <time>2020-07-25T07:48:05.078Z</time>
      </trkpt>
      <trkpt lat="42.58048" lon="2.01607">
        <ele>2248</ele>
        <time>2020-07-25T07:48:06.078Z</time>
      </trkpt>
      <trkpt lat="42.5805" lon="2.01605">
        <ele>2248</ele>
        <time>2020-07-25T07:48:07.078Z</time>
      </trkpt>
      <trkpt lat="42.58053" lon="2.01602">
        <ele>2248</ele>
        <time>2020-07-25T07:48:08.078Z</time>
      </trkpt>
      <trkpt lat="42.58055" lon="2.01598">
        <ele>2247</ele>
        <time>2020-07-25T07:48:09.078Z</time>
      </trkpt>
      <trkpt lat="42.58057" lon="2.01594">
        <ele>2246</ele>
        <time>2020-07-25T07:48:10.078Z</time>
      </trkpt>
      <trkpt lat="42.58059" lon="2.01591">
        <ele>2246</ele>
        <time>2020-07-25T07:48:11.078Z</time>
      </trkpt>
      <trkpt lat="42.5806" lon="2.01588">
        <ele>2245</ele>
        <time>2020-07-25T07:48:12.078Z</time>
      </trkpt>
      <trkpt lat="42.58061" lon="2.01585">
        <ele>2245</ele>
        <time>2020-07-25T07:48:13.078Z</time>
      </trkpt>
      <trkpt lat="42.58062" lon="2.01581">
        <ele>2243</ele>
        <time>2020-07-25T07:48:14.078Z</time>
      </trkpt>
      <trkpt lat="42.58063" lon="2.01577">
        <ele>2242</ele>
        <time>2020-07-25T07:48:15.078Z</time>
      </trkpt>
      <trkpt lat="42.58065" lon="2.01574">
        <ele>2240</ele>
        <time>2020-07-25T07:48:16.078Z</time>
      </trkpt>
      <trkpt lat="42.58067" lon="2.0157">
        <ele>2239</ele>
        <time>2020-07-25T07:48:17.078Z</time>
      </trkpt>
      <trkpt lat="42.58068" lon="2.01567">
        <ele>2238</ele>
        <time>2020-07-25T07:48:18.078Z</time>
      </trkpt>
      <trkpt lat="42.5807" lon="2.01564">
        <ele>2238</ele>
        <time>2020-07-25T07:48:19.078Z</time>
      </trkpt>
      <trkpt lat="42.58072" lon="2.01561">
        <ele>2237</ele>
        <time>2020-07-25T07:48:20.078Z</time>
      </trkpt>
      <trkpt lat="42.58075" lon="2.01559">
        <ele>2237</ele>
        <time>2020-07-25T07:48:21.078Z</time>
      </trkpt>
      <trkpt lat="42.58079" lon="2.01558">
        <ele>2236</ele>
        <time>2020-07-25T07:48:22.078Z</time>
      </trkpt>
      <trkpt lat="42.58081" lon="2.01556">
        <ele>2237</ele>
        <time>2020-07-25T07:48:23.078Z</time>
      </trkpt>
      <trkpt lat="42.58083" lon="2.01554">
        <ele>2238</ele>
        <time>2020-07-25T07:48:24.078Z</time>
      </trkpt>
      <trkpt lat="42.58083" lon="2.01552">
        <ele>2239</ele>
        <time>2020-07-25T07:48:25.078Z</time>
      </trkpt>
      <trkpt lat="42.58083" lon="2.01549">
        <ele>2240</ele>
        <time>2020-07-25T07:48:26.078Z</time>
      </trkpt>
      <trkpt lat="42.58083" lon="2.01547">
        <ele>2239</ele>
        <time>2020-07-25T07:48:27.078Z</time>
      </trkpt>
      <trkpt lat="42.58082" lon="2.01546">
        <ele>2239</ele>
        <time>2020-07-25T07:48:28.078Z</time>
      </trkpt>
      <trkpt lat="42.58083" lon="2.01546">
        <ele>2241</ele>
        <time>2020-07-25T07:48:29.078Z</time>
      </trkpt>
      <trkpt lat="42.58083" lon="2.01545">
        <ele>2241</ele>
        <time>2020-07-25T07:48:30.078Z</time>
      </trkpt>
      <trkpt lat="42.58083" lon="2.01545">
        <ele>2241</ele>
        <time>2020-07-25T07:48:31.078Z</time>
      </trkpt>
      <trkpt lat="42.58083" lon="2.01545">
        <ele>2240</ele>
        <time>2020-07-25T07:48:32.078Z</time>
      </trkpt>
      <trkpt lat="42.58083" lon="2.01545">
        <ele>2240</ele>
        <time>2020-07-25T07:48:33.078Z</time>
      </trkpt>
      <trkpt lat="42.58082" lon="2.01546">
        <ele>2240</ele>
        <time>2020-07-25T07:48:34.078Z</time>
      </trkpt>
      <trkpt lat="42.58082" lon="2.01547">
        <ele>2240</ele>
        <time>2020-07-25T07:48:35.078Z</time>
      </trkpt>
      <trkpt lat="42.58081" lon="2.01547">
        <ele>2240</ele>
        <time>2020-07-25T07:48:36.078Z</time>
      </trkpt>
      <trkpt lat="42.58081" lon="2.01547">
        <ele>2241</ele>
        <time>2020-07-25T07:48:37.078Z</time>
      </trkpt>
      <trkpt lat="42.5808" lon="2.01547">
        <ele>2241</ele>
        <time>2020-07-25T07:48:38.078Z</time>
      </trkpt>
      <trkpt lat="42.5808" lon="2.01547">
        <ele>2241</ele>
        <time>2020-07-25T07:48:39.078Z</time>
      </trkpt>
      <trkpt lat="42.5808" lon="2.01547">
        <ele>2241</ele>
        <time>2020-07-25T07:48:40.078Z</time>
      </trkpt>
      <trkpt lat="42.5808" lon="2.01547">
        <ele>2242</ele>
        <time>2020-07-25T07:48:41.078Z</time>
      </trkpt>
      <trkpt lat="42.5808" lon="2.01548">
        <ele>2240</ele>
        <time>2020-07-25T07:48:42.078Z</time>
      </trkpt>
      <trkpt lat="42.58081" lon="2.01548">
        <ele>2239</ele>
        <time>2020-07-25T07:48:43.078Z</time>
      </trkpt>
      <trkpt lat="42.58082" lon="2.01549">
        <ele>2238</ele>
        <time>2020-07-25T07:48:44.078Z</time>
      </trkpt>
      <trkpt lat="42.58083" lon="2.01549">
        <ele>2237</ele>
        <time>2020-07-25T07:48:45.078Z</time>
      </trkpt>
      <trkpt lat="42.58085" lon="2.01548">
        <ele>2236</ele>
        <time>2020-07-25T07:48:46.078Z</time>
      </trkpt>
      <trkpt lat="42.58088" lon="2.01547">
        <ele>2236</ele>
        <time>2020-07-25T07:48:47.078Z</time>
      </trkpt>
      <trkpt lat="42.5809" lon="2.01546">
        <ele>2235</ele>
        <time>2020-07-25T07:48:48.078Z</time>
      </trkpt>
      <trkpt lat="42.58092" lon="2.01545">
        <ele>2234</ele>
        <time>2020-07-25T07:48:49.078Z</time>
      </trkpt>
      <trkpt lat="42.58094" lon="2.01544">
        <ele>2233</ele>
        <time>2020-07-25T07:48:50.078Z</time>
      </trkpt>
      <trkpt lat="42.58096" lon="2.01543">
        <ele>2232</ele>
        <time>2020-07-25T07:48:51.078Z</time>
      </trkpt>
      <trkpt lat="42.58099" lon="2.01542">
        <ele>2232</ele>
        <time>2020-07-25T07:48:52.078Z</time>
      </trkpt>
      <trkpt lat="42.58103" lon="2.01541">
        <ele>2231</ele>
        <time>2020-07-25T07:48:53.078Z</time>
      </trkpt>
      <trkpt lat="42.58106" lon="2.0154">
        <ele>2231</ele>
        <time>2020-07-25T07:48:54.078Z</time>
      </trkpt>
      <trkpt lat="42.5811" lon="2.01538">
        <ele>2231</ele>
        <time>2020-07-25T07:48:55.078Z</time>
      </trkpt>
      <trkpt lat="42.58114" lon="2.01537">
        <ele>2230</ele>
        <time>2020-07-25T07:48:56.078Z</time>
      </trkpt>
      <trkpt lat="42.58119" lon="2.01536">
        <ele>2232</ele>
        <time>2020-07-25T07:48:57.078Z</time>
      </trkpt>
      <trkpt lat="42.58124" lon="2.01535">
        <ele>2232</ele>
        <time>2020-07-25T07:48:58.078Z</time>
      </trkpt>
      <trkpt lat="42.58129" lon="2.01536">
        <ele>2232</ele>
        <time>2020-07-25T07:48:59.078Z</time>
      </trkpt>
      <trkpt lat="42.58134" lon="2.01538">
        <ele>2232</ele>
        <time>2020-07-25T07:49:00.078Z</time>
      </trkpt>
      <trkpt lat="42.58138" lon="2.01539">
        <ele>2231</ele>
        <time>2020-07-25T07:49:01.078Z</time>
      </trkpt>
      <trkpt lat="42.58142" lon="2.01541">
        <ele>2230</ele>
        <time>2020-07-25T07:49:02.078Z</time>
      </trkpt>
      <trkpt lat="42.58147" lon="2.01543">
        <ele>2231</ele>
        <time>2020-07-25T07:49:03.078Z</time>
      </trkpt>
      <trkpt lat="42.58151" lon="2.01545">
        <ele>2231</ele>
        <time>2020-07-25T07:49:04.078Z</time>
      </trkpt>
      <trkpt lat="42.58155" lon="2.01545">
        <ele>2231</ele>
        <time>2020-07-25T07:49:05.078Z</time>
      </trkpt>
      <trkpt lat="42.58159" lon="2.01546">
        <ele>2231</ele>
        <time>2020-07-25T07:49:06.078Z</time>
      </trkpt>
      <trkpt lat="42.58163" lon="2.01546">
        <ele>2231</ele>
        <time>2020-07-25T07:49:07.078Z</time>
      </trkpt>
      <trkpt lat="42.58167" lon="2.01546">
        <ele>2231</ele>
        <time>2020-07-25T07:49:08.078Z</time>
      </trkpt>
      <trkpt lat="42.5817" lon="2.01545">
        <ele>2231</ele>
        <time>2020-07-25T07:49:09.078Z</time>
      </trkpt>
      <trkpt lat="42.58173" lon="2.01544">
        <ele>2230</ele>
        <time>2020-07-25T07:49:10.078Z</time>
      </trkpt>
      <trkpt lat="42.58176" lon="2.01542">
        <ele>2229</ele>
        <time>2020-07-25T07:49:11.078Z</time>
      </trkpt>
      <trkpt lat="42.58178" lon="2.01539">
        <ele>2229</ele>
        <time>2020-07-25T07:49:12.078Z</time>
      </trkpt>
      <trkpt lat="42.58181" lon="2.01537">
        <ele>2228</ele>
        <time>2020-07-25T07:49:13.078Z</time>
      </trkpt>
      <trkpt lat="42.58184" lon="2.01535">
        <ele>2227</ele>
        <time>2020-07-25T07:49:14.078Z</time>
      </trkpt>
      <trkpt lat="42.58187" lon="2.01534">
        <ele>2227</ele>
        <time>2020-07-25T07:49:15.078Z</time>
      </trkpt>
      <trkpt lat="42.5819" lon="2.01533">
        <ele>2226</ele>
        <time>2020-07-25T07:49:16.078Z</time>
      </trkpt>
      <trkpt lat="42.58192" lon="2.01532">
        <ele>2225</ele>
        <time>2020-07-25T07:49:17.078Z</time>
      </trkpt>
      <trkpt lat="42.58195" lon="2.01531">
        <ele>2224</ele>
        <time>2020-07-25T07:49:18.078Z</time>
      </trkpt>
      <trkpt lat="42.58198" lon="2.01531">
        <ele>2222</ele>
        <time>2020-07-25T07:49:19.078Z</time>
      </trkpt>
      <trkpt lat="42.58201" lon="2.01531">
        <ele>2221</ele>
        <time>2020-07-25T07:49:20.078Z</time>
      </trkpt>
      <trkpt lat="42.58205" lon="2.01531">
        <ele>2221</ele>
        <time>2020-07-25T07:49:21.078Z</time>
      </trkpt>
      <trkpt lat="42.58208" lon="2.01531">
        <ele>2220</ele>
        <time>2020-07-25T07:49:22.078Z</time>
      </trkpt>
      <trkpt lat="42.58211" lon="2.0153">
        <ele>2218</ele>
        <time>2020-07-25T07:49:23.078Z</time>
      </trkpt>
      <trkpt lat="42.58214" lon="2.01528">
        <ele>2216</ele>
        <time>2020-07-25T07:49:24.078Z</time>
      </trkpt>
      <trkpt lat="42.58215" lon="2.01525">
        <ele>2214</ele>
        <time>2020-07-25T07:49:25.078Z</time>
      </trkpt>
      <trkpt lat="42.58216" lon="2.01522">
        <ele>2212</ele>
        <time>2020-07-25T07:49:26.078Z</time>
      </trkpt>
      <trkpt lat="42.58217" lon="2.01518">
        <ele>2209</ele>
        <time>2020-07-25T07:49:27.078Z</time>
      </trkpt>
      <trkpt lat="42.58218" lon="2.01515">
        <ele>2209</ele>
        <time>2020-07-25T07:49:28.078Z</time>
      </trkpt>
      <trkpt lat="42.58218" lon="2.01511">
        <ele>2208</ele>
        <time>2020-07-25T07:49:29.078Z</time>
      </trkpt>
      <trkpt lat="42.58219" lon="2.01507">
        <ele>2207</ele>
        <time>2020-07-25T07:49:30.078Z</time>
      </trkpt>
      <trkpt lat="42.58218" lon="2.01503">
        <ele>2205</ele>
        <time>2020-07-25T07:49:31.078Z</time>
      </trkpt>
      <trkpt lat="42.58218" lon="2.01499">
        <ele>2204</ele>
        <time>2020-07-25T07:49:32.078Z</time>
      </trkpt>
      <trkpt lat="42.58219" lon="2.01496">
        <ele>2202</ele>
        <time>2020-07-25T07:49:33.078Z</time>
      </trkpt>
      <trkpt lat="42.58218" lon="2.01492">
        <ele>2201</ele>
        <time>2020-07-25T07:49:34.078Z</time>
      </trkpt>
      <trkpt lat="42.58218" lon="2.01488">
        <ele>2199</ele>
        <time>2020-07-25T07:49:35.078Z</time>
      </trkpt>
      <trkpt lat="42.58218" lon="2.01484">
        <ele>2198</ele>
        <time>2020-07-25T07:49:36.078Z</time>
      </trkpt>
      <trkpt lat="42.58218" lon="2.0148">
        <ele>2197</ele>
        <time>2020-07-25T07:49:37.078Z</time>
      </trkpt>
      <trkpt lat="42.58219" lon="2.01475">
        <ele>2197</ele>
        <time>2020-07-25T07:49:38.078Z</time>
      </trkpt>
      <trkpt lat="42.5822" lon="2.01471">
        <ele>2197</ele>
        <time>2020-07-25T07:49:39.078Z</time>
      </trkpt>
      <trkpt lat="42.58221" lon="2.01466">
        <ele>2196</ele>
        <time>2020-07-25T07:49:40.078Z</time>
      </trkpt>
      <trkpt lat="42.58222" lon="2.01462">
        <ele>2196</ele>
        <time>2020-07-25T07:49:41.078Z</time>
      </trkpt>
      <trkpt lat="42.58224" lon="2.01457">
        <ele>2197</ele>
        <time>2020-07-25T07:49:42.078Z</time>
      </trkpt>
      <trkpt lat="42.58224" lon="2.01453">
        <ele>2197</ele>
        <time>2020-07-25T07:49:43.078Z</time>
      </trkpt>
      <trkpt lat="42.58225" lon="2.01447">
        <ele>2197</ele>
        <time>2020-07-25T07:49:44.078Z</time>
      </trkpt>
      <trkpt lat="42.58224" lon="2.01442">
        <ele>2197</ele>
        <time>2020-07-25T07:49:45.078Z</time>
      </trkpt>
      <trkpt lat="42.58224" lon="2.01436">
        <ele>2197</ele>
        <time>2020-07-25T07:49:46.078Z</time>
      </trkpt>
      <trkpt lat="42.58223" lon="2.0143">
        <ele>2196</ele>
        <time>2020-07-25T07:49:47.078Z</time>
      </trkpt>
      <trkpt lat="42.58223" lon="2.01425">
        <ele>2196</ele>
        <time>2020-07-25T07:49:48.078Z</time>
      </trkpt>
      <trkpt lat="42.58223" lon="2.0142">
        <ele>2196</ele>
        <time>2020-07-25T07:49:49.078Z</time>
      </trkpt>
      <trkpt lat="42.58224" lon="2.01415">
        <ele>2196</ele>
        <time>2020-07-25T07:49:50.078Z</time>
      </trkpt>
      <trkpt lat="42.58224" lon="2.01409">
        <ele>2196</ele>
        <time>2020-07-25T07:49:51.078Z</time>
      </trkpt>
      <trkpt lat="42.58224" lon="2.01404">
        <ele>2195</ele>
        <time>2020-07-25T07:49:52.078Z</time>
      </trkpt>
      <trkpt lat="42.58225" lon="2.01398">
        <ele>2194</ele>
        <time>2020-07-25T07:49:53.078Z</time>
      </trkpt>
      <trkpt lat="42.58226" lon="2.01392">
        <ele>2194</ele>
        <time>2020-07-25T07:49:54.078Z</time>
      </trkpt>
      <trkpt lat="42.58227" lon="2.01387">
        <ele>2194</ele>
        <time>2020-07-25T07:49:55.078Z</time>
      </trkpt>
      <trkpt lat="42.58229" lon="2.01381">
        <ele>2194</ele>
        <time>2020-07-25T07:49:56.078Z</time>
      </trkpt>
      <trkpt lat="42.5823" lon="2.01376">
        <ele>2194</ele>
        <time>2020-07-25T07:49:57.078Z</time>
      </trkpt>
      <trkpt lat="42.58231" lon="2.01371">
        <ele>2194</ele>
        <time>2020-07-25T07:49:58.078Z</time>
      </trkpt>
      <trkpt lat="42.58232" lon="2.01366">
        <ele>2194</ele>
        <time>2020-07-25T07:49:59.078Z</time>
      </trkpt>
      <trkpt lat="42.58234" lon="2.01362">
        <ele>2193</ele>
        <time>2020-07-25T07:50:00.078Z</time>
      </trkpt>
      <trkpt lat="42.58235" lon="2.01357">
        <ele>2192</ele>
        <time>2020-07-25T07:50:01.078Z</time>
      </trkpt>
      <trkpt lat="42.58235" lon="2.01353">
        <ele>2190</ele>
        <time>2020-07-25T07:50:02.078Z</time>
      </trkpt>
      <trkpt lat="42.58234" lon="2.01349">
        <ele>2188</ele>
        <time>2020-07-25T07:50:03.078Z</time>
      </trkpt>
      <trkpt lat="42.58232" lon="2.01345">
        <ele>2188</ele>
        <time>2020-07-25T07:50:04.078Z</time>
      </trkpt>
      <trkpt lat="42.5823" lon="2.01341">
        <ele>2188</ele>
        <time>2020-07-25T07:50:05.078Z</time>
      </trkpt>
      <trkpt lat="42.58228" lon="2.01337">
        <ele>2187</ele>
        <time>2020-07-25T07:50:06.078Z</time>
      </trkpt>
      <trkpt lat="42.58227" lon="2.01333">
        <ele>2187</ele>
        <time>2020-07-25T07:50:07.078Z</time>
      </trkpt>
      <trkpt lat="42.58225" lon="2.01328">
        <ele>2186</ele>
        <time>2020-07-25T07:50:08.078Z</time>
      </trkpt>
      <trkpt lat="42.58224" lon="2.01324">
        <ele>2185</ele>
        <time>2020-07-25T07:50:09.078Z</time>
      </trkpt>
      <trkpt lat="42.58223" lon="2.01319">
        <ele>2183</ele>
        <time>2020-07-25T07:50:10.078Z</time>
      </trkpt>
      <trkpt lat="42.58223" lon="2.01314">
        <ele>2183</ele>
        <time>2020-07-25T07:50:11.078Z</time>
      </trkpt>
      <trkpt lat="42.58222" lon="2.01309">
        <ele>2183</ele>
        <time>2020-07-25T07:50:12.078Z</time>
      </trkpt>
      <trkpt lat="42.58223" lon="2.01306">
        <ele>2183</ele>
        <time>2020-07-25T07:50:13.078Z</time>
      </trkpt>
      <trkpt lat="42.58224" lon="2.01303">
        <ele>2183</ele>
        <time>2020-07-25T07:50:14.078Z</time>
      </trkpt>
      <trkpt lat="42.58225" lon="2.01301">
        <ele>2183</ele>
        <time>2020-07-25T07:50:15.078Z</time>
      </trkpt>
      <trkpt lat="42.58227" lon="2.01299">
        <ele>2186</ele>
        <time>2020-07-25T07:50:16.078Z</time>
      </trkpt>
      <trkpt lat="42.58227" lon="2.01299">
        <ele>2186</ele>
        <time>2020-07-25T07:50:17.078Z</time>
      </trkpt>
      <trkpt lat="42.58227" lon="2.01299">
        <ele>2184</ele>
        <time>2020-07-25T07:50:18.078Z</time>
      </trkpt>
      <trkpt lat="42.58227" lon="2.01299">
        <ele>2184</ele>
        <time>2020-07-25T07:50:19.078Z</time>
      </trkpt>
      <trkpt lat="42.58227" lon="2.01299">
        <ele>2184</ele>
        <time>2020-07-25T07:50:20.078Z</time>
      </trkpt>
      <trkpt lat="42.58227" lon="2.01297">
        <ele>2186</ele>
        <time>2020-07-25T07:50:21.078Z</time>
      </trkpt>
      <trkpt lat="42.58226" lon="2.01295">
        <ele>2186</ele>
        <time>2020-07-25T07:50:22.078Z</time>
      </trkpt>
      <trkpt lat="42.58226" lon="2.01291">
        <ele>2187</ele>
        <time>2020-07-25T07:50:23.078Z</time>
      </trkpt>
      <trkpt lat="42.58226" lon="2.01287">
        <ele>2186</ele>
        <time>2020-07-25T07:50:24.078Z</time>
      </trkpt>
      <trkpt lat="42.58227" lon="2.01283">
        <ele>2186</ele>
        <time>2020-07-25T07:50:25.078Z</time>
      </trkpt>
      <trkpt lat="42.58227" lon="2.01278">
        <ele>2185</ele>
        <time>2020-07-25T07:50:26.078Z</time>
      </trkpt>
      <trkpt lat="42.58228" lon="2.01273">
        <ele>2185</ele>
        <time>2020-07-25T07:50:27.078Z</time>
      </trkpt>
      <trkpt lat="42.5823" lon="2.01268">
        <ele>2185</ele>
        <time>2020-07-25T07:50:28.078Z</time>
      </trkpt>
      <trkpt lat="42.58231" lon="2.01262">
        <ele>2184</ele>
        <time>2020-07-25T07:50:29.078Z</time>
      </trkpt>
      <trkpt lat="42.58232" lon="2.01256">
        <ele>2183</ele>
        <time>2020-07-25T07:50:30.078Z</time>
      </trkpt>
      <trkpt lat="42.58233" lon="2.01251">
        <ele>2182</ele>
        <time>2020-07-25T07:50:31.078Z</time>
      </trkpt>
      <trkpt lat="42.58233" lon="2.01246">
        <ele>2182</ele>
        <time>2020-07-25T07:50:32.078Z</time>
      </trkpt>
      <trkpt lat="42.58233" lon="2.0124">
        <ele>2181</ele>
        <time>2020-07-25T07:50:33.078Z</time>
      </trkpt>
      <trkpt lat="42.58234" lon="2.01235">
        <ele>2181</ele>
        <time>2020-07-25T07:50:34.078Z</time>
      </trkpt>
      <trkpt lat="42.58235" lon="2.01231">
        <ele>2181</ele>
        <time>2020-07-25T07:50:35.078Z</time>
      </trkpt>
      <trkpt lat="42.58237" lon="2.01226">
        <ele>2180</ele>
        <time>2020-07-25T07:50:36.078Z</time>
      </trkpt>
      <trkpt lat="42.58238" lon="2.01221">
        <ele>2180</ele>
        <time>2020-07-25T07:50:37.078Z</time>
      </trkpt>
      <trkpt lat="42.58239" lon="2.01217">
        <ele>2179</ele>
        <time>2020-07-25T07:50:38.078Z</time>
      </trkpt>
      <trkpt lat="42.5824" lon="2.01212">
        <ele>2179</ele>
        <time>2020-07-25T07:50:39.078Z</time>
      </trkpt>
      <trkpt lat="42.58241" lon="2.01207">
        <ele>2178</ele>
        <time>2020-07-25T07:50:40.078Z</time>
      </trkpt>
      <trkpt lat="42.58242" lon="2.01202">
        <ele>2178</ele>
        <time>2020-07-25T07:50:41.078Z</time>
      </trkpt>
      <trkpt lat="42.58243" lon="2.01197">
        <ele>2178</ele>
        <time>2020-07-25T07:50:42.078Z</time>
      </trkpt>
      <trkpt lat="42.58243" lon="2.01192">
        <ele>2177</ele>
        <time>2020-07-25T07:50:43.078Z</time>
      </trkpt>
      <trkpt lat="42.58244" lon="2.01187">
        <ele>2177</ele>
        <time>2020-07-25T07:50:44.078Z</time>
      </trkpt>
      <trkpt lat="42.58245" lon="2.01182">
        <ele>2176</ele>
        <time>2020-07-25T07:50:45.078Z</time>
      </trkpt>
      <trkpt lat="42.58246" lon="2.01177">
        <ele>2175</ele>
        <time>2020-07-25T07:50:46.078Z</time>
      </trkpt>
      <trkpt lat="42.58247" lon="2.01172">
        <ele>2175</ele>
        <time>2020-07-25T07:50:47.078Z</time>
      </trkpt>
      <trkpt lat="42.58248" lon="2.01167">
        <ele>2174</ele>
        <time>2020-07-25T07:50:48.078Z</time>
      </trkpt>
      <trkpt lat="42.58248" lon="2.01162">
        <ele>2173</ele>
        <time>2020-07-25T07:50:49.078Z</time>
      </trkpt>
      <trkpt lat="42.58248" lon="2.01157">
        <ele>2172</ele>
        <time>2020-07-25T07:50:50.078Z</time>
      </trkpt>
      <trkpt lat="42.58248" lon="2.01152">
        <ele>2173</ele>
        <time>2020-07-25T07:50:51.078Z</time>
      </trkpt>
      <trkpt lat="42.58247" lon="2.01148">
        <ele>2173</ele>
        <time>2020-07-25T07:50:52.078Z</time>
      </trkpt>
      <trkpt lat="42.58246" lon="2.01143">
        <ele>2173</ele>
        <time>2020-07-25T07:50:53.078Z</time>
      </trkpt>
      <trkpt lat="42.58244" lon="2.01138">
        <ele>2173</ele>
        <time>2020-07-25T07:50:54.078Z</time>
      </trkpt>
      <trkpt lat="42.58241" lon="2.01134">
        <ele>2173</ele>
        <time>2020-07-25T07:50:55.078Z</time>
      </trkpt>
      <trkpt lat="42.58239" lon="2.0113">
        <ele>2173</ele>
        <time>2020-07-25T07:50:56.078Z</time>
      </trkpt>
      <trkpt lat="42.58237" lon="2.01127">
        <ele>2173</ele>
        <time>2020-07-25T07:50:57.078Z</time>
      </trkpt>
      <trkpt lat="42.58235" lon="2.01123">
        <ele>2171</ele>
        <time>2020-07-25T07:50:58.078Z</time>
      </trkpt>
      <trkpt lat="42.58234" lon="2.01118">
        <ele>2169</ele>
        <time>2020-07-25T07:50:59.078Z</time>
      </trkpt>
      <trkpt lat="42.58234" lon="2.01113">
        <ele>2168</ele>
        <time>2020-07-25T07:51:00.078Z</time>
      </trkpt>
      <trkpt lat="42.58234" lon="2.01108">
        <ele>2167</ele>
        <time>2020-07-25T07:51:01.078Z</time>
      </trkpt>
      <trkpt lat="42.58234" lon="2.01103">
        <ele>2166</ele>
        <time>2020-07-25T07:51:02.078Z</time>
      </trkpt>
      <trkpt lat="42.58234" lon="2.01098">
        <ele>2165</ele>
        <time>2020-07-25T07:51:03.078Z</time>
      </trkpt>
      <trkpt lat="42.58234" lon="2.01093">
        <ele>2164</ele>
        <time>2020-07-25T07:51:04.078Z</time>
      </trkpt>
      <trkpt lat="42.58234" lon="2.01089">
        <ele>2164</ele>
        <time>2020-07-25T07:51:05.078Z</time>
      </trkpt>
      <trkpt lat="42.58233" lon="2.01084">
        <ele>2162</ele>
        <time>2020-07-25T07:51:06.078Z</time>
      </trkpt>
      <trkpt lat="42.58232" lon="2.01079">
        <ele>2162</ele>
        <time>2020-07-25T07:51:07.078Z</time>
      </trkpt>
      <trkpt lat="42.58231" lon="2.01074">
        <ele>2160</ele>
        <time>2020-07-25T07:51:08.078Z</time>
      </trkpt>
      <trkpt lat="42.5823" lon="2.0107">
        <ele>2159</ele>
        <time>2020-07-25T07:51:09.078Z</time>
      </trkpt>
      <trkpt lat="42.58229" lon="2.01065">
        <ele>2158</ele>
        <time>2020-07-25T07:51:10.078Z</time>
      </trkpt>
      <trkpt lat="42.58227" lon="2.01061">
        <ele>2158</ele>
        <time>2020-07-25T07:51:11.078Z</time>
      </trkpt>
      <trkpt lat="42.58226" lon="2.01057">
        <ele>2158</ele>
        <time>2020-07-25T07:51:12.078Z</time>
      </trkpt>
      <trkpt lat="42.58226" lon="2.01051">
        <ele>2157</ele>
        <time>2020-07-25T07:51:13.078Z</time>
      </trkpt>
      <trkpt lat="42.58226" lon="2.01047">
        <ele>2156</ele>
        <time>2020-07-25T07:51:14.078Z</time>
      </trkpt>
      <trkpt lat="42.58228" lon="2.01043">
        <ele>2156</ele>
        <time>2020-07-25T07:51:15.078Z</time>
      </trkpt>
      <trkpt lat="42.5823" lon="2.0104">
        <ele>2157</ele>
        <time>2020-07-25T07:51:16.078Z</time>
      </trkpt>
      <trkpt lat="42.58232" lon="2.01038">
        <ele>2156</ele>
        <time>2020-07-25T07:51:17.078Z</time>
      </trkpt>
      <trkpt lat="42.58234" lon="2.01036">
        <ele>2155</ele>
        <time>2020-07-25T07:51:18.078Z</time>
      </trkpt>
      <trkpt lat="42.58237" lon="2.01036">
        <ele>2154</ele>
        <time>2020-07-25T07:51:19.078Z</time>
      </trkpt>
      <trkpt lat="42.5824" lon="2.01035">
        <ele>2154</ele>
        <time>2020-07-25T07:51:20.078Z</time>
      </trkpt>
      <trkpt lat="42.58244" lon="2.01036">
        <ele>2155</ele>
        <time>2020-07-25T07:51:21.078Z</time>
      </trkpt>
      <trkpt lat="42.58248" lon="2.01036">
        <ele>2157</ele>
        <time>2020-07-25T07:51:22.078Z</time>
      </trkpt>
      <trkpt lat="42.58253" lon="2.01037">
        <ele>2157</ele>
        <time>2020-07-25T07:51:23.078Z</time>
      </trkpt>
      <trkpt lat="42.58257" lon="2.01038">
        <ele>2157</ele>
        <time>2020-07-25T07:51:24.078Z</time>
      </trkpt>
      <trkpt lat="42.58261" lon="2.01038">
        <ele>2157</ele>
        <time>2020-07-25T07:51:25.078Z</time>
      </trkpt>
      <trkpt lat="42.58264" lon="2.01039">
        <ele>2157</ele>
        <time>2020-07-25T07:51:26.078Z</time>
      </trkpt>
      <trkpt lat="42.58268" lon="2.0104">
        <ele>2157</ele>
        <time>2020-07-25T07:51:27.078Z</time>
      </trkpt>
      <trkpt lat="42.58272" lon="2.01041">
        <ele>2157</ele>
        <time>2020-07-25T07:51:28.078Z</time>
      </trkpt>
      <trkpt lat="42.58276" lon="2.01042">
        <ele>2156</ele>
        <time>2020-07-25T07:51:29.078Z</time>
      </trkpt>
      <trkpt lat="42.58279" lon="2.01043">
        <ele>2156</ele>
        <time>2020-07-25T07:51:30.078Z</time>
      </trkpt>
      <trkpt lat="42.58283" lon="2.01044">
        <ele>2156</ele>
        <time>2020-07-25T07:51:31.078Z</time>
      </trkpt>
      <trkpt lat="42.58286" lon="2.01045">
        <ele>2156</ele>
        <time>2020-07-25T07:51:32.078Z</time>
      </trkpt>
      <trkpt lat="42.5829" lon="2.01046">
        <ele>2156</ele>
        <time>2020-07-25T07:51:33.078Z</time>
      </trkpt>
      <trkpt lat="42.58293" lon="2.01047">
        <ele>2157</ele>
        <time>2020-07-25T07:51:34.078Z</time>
      </trkpt>
      <trkpt lat="42.58297" lon="2.01048">
        <ele>2157</ele>
        <time>2020-07-25T07:51:35.078Z</time>
      </trkpt>
      <trkpt lat="42.583" lon="2.01049">
        <ele>2157</ele>
        <time>2020-07-25T07:51:36.078Z</time>
      </trkpt>
      <trkpt lat="42.58304" lon="2.01049">
        <ele>2157</ele>
        <time>2020-07-25T07:51:37.078Z</time>
      </trkpt>
      <trkpt lat="42.58307" lon="2.0105">
        <ele>2157</ele>
        <time>2020-07-25T07:51:38.078Z</time>
      </trkpt>
      <trkpt lat="42.5831" lon="2.01051">
        <ele>2157</ele>
        <time>2020-07-25T07:51:39.078Z</time>
      </trkpt>
      <trkpt lat="42.58313" lon="2.01051">
        <ele>2157</ele>
        <time>2020-07-25T07:51:40.078Z</time>
      </trkpt>
      <trkpt lat="42.58316" lon="2.01052">
        <ele>2157</ele>
        <time>2020-07-25T07:51:41.078Z</time>
      </trkpt>
      <trkpt lat="42.58319" lon="2.01052">
        <ele>2156</ele>
        <time>2020-07-25T07:51:42.078Z</time>
      </trkpt>
      <trkpt lat="42.58322" lon="2.01052">
        <ele>2156</ele>
        <time>2020-07-25T07:51:43.078Z</time>
      </trkpt>
      <trkpt lat="42.58325" lon="2.01052">
        <ele>2155</ele>
        <time>2020-07-25T07:51:44.078Z</time>
      </trkpt>
      <trkpt lat="42.58329" lon="2.01051">
        <ele>2154</ele>
        <time>2020-07-25T07:51:45.078Z</time>
      </trkpt>
      <trkpt lat="42.58333" lon="2.01051">
        <ele>2154</ele>
        <time>2020-07-25T07:51:46.078Z</time>
      </trkpt>
      <trkpt lat="42.58336" lon="2.01049">
        <ele>2155</ele>
        <time>2020-07-25T07:51:47.078Z</time>
      </trkpt>
      <trkpt lat="42.5834" lon="2.01047">
        <ele>2155</ele>
        <time>2020-07-25T07:51:48.078Z</time>
      </trkpt>
      <trkpt lat="42.58343" lon="2.01045">
        <ele>2154</ele>
        <time>2020-07-25T07:51:49.078Z</time>
      </trkpt>
      <trkpt lat="42.58345" lon="2.01042">
        <ele>2153</ele>
        <time>2020-07-25T07:51:50.078Z</time>
      </trkpt>
      <trkpt lat="42.58348" lon="2.01039">
        <ele>2153</ele>
        <time>2020-07-25T07:51:51.078Z</time>
      </trkpt>
      <trkpt lat="42.5835" lon="2.01035">
        <ele>2152</ele>
        <time>2020-07-25T07:51:52.078Z</time>
      </trkpt>
      <trkpt lat="42.58351" lon="2.0103">
        <ele>2152</ele>
        <time>2020-07-25T07:51:53.078Z</time>
      </trkpt>
      <trkpt lat="42.58352" lon="2.01025">
        <ele>2152</ele>
        <time>2020-07-25T07:51:54.078Z</time>
      </trkpt>
      <trkpt lat="42.58353" lon="2.01021">
        <ele>2151</ele>
        <time>2020-07-25T07:51:55.078Z</time>
      </trkpt>
      <trkpt lat="42.58354" lon="2.01016">
        <ele>2150</ele>
        <time>2020-07-25T07:51:56.078Z</time>
      </trkpt>
      <trkpt lat="42.58355" lon="2.01012">
        <ele>2149</ele>
        <time>2020-07-25T07:51:57.078Z</time>
      </trkpt>
      <trkpt lat="42.58356" lon="2.01007">
        <ele>2149</ele>
        <time>2020-07-25T07:51:58.078Z</time>
      </trkpt>
      <trkpt lat="42.58357" lon="2.01001">
        <ele>2148</ele>
        <time>2020-07-25T07:51:59.078Z</time>
      </trkpt>
      <trkpt lat="42.58357" lon="2.00996">
        <ele>2147</ele>
        <time>2020-07-25T07:52:00.078Z</time>
      </trkpt>
      <trkpt lat="42.58357" lon="2.0099">
        <ele>2147</ele>
        <time>2020-07-25T07:52:01.078Z</time>
      </trkpt>
      <trkpt lat="42.58357" lon="2.00985">
        <ele>2146</ele>
        <time>2020-07-25T07:52:02.078Z</time>
      </trkpt>
      <trkpt lat="42.58356" lon="2.0098">
        <ele>2145</ele>
        <time>2020-07-25T07:52:03.078Z</time>
      </trkpt>
      <trkpt lat="42.58356" lon="2.00976">
        <ele>2144</ele>
        <time>2020-07-25T07:52:04.078Z</time>
      </trkpt>
      <trkpt lat="42.58356" lon="2.00971">
        <ele>2143</ele>
        <time>2020-07-25T07:52:05.078Z</time>
      </trkpt>
      <trkpt lat="42.58356" lon="2.00966">
        <ele>2143</ele>
        <time>2020-07-25T07:52:06.078Z</time>
      </trkpt>
      <trkpt lat="42.58356" lon="2.00961">
        <ele>2142</ele>
        <time>2020-07-25T07:52:07.078Z</time>
      </trkpt>
      <trkpt lat="42.58357" lon="2.00956">
        <ele>2141</ele>
        <time>2020-07-25T07:52:08.078Z</time>
      </trkpt>
      <trkpt lat="42.58357" lon="2.00951">
        <ele>2141</ele>
        <time>2020-07-25T07:52:09.078Z</time>
      </trkpt>
      <trkpt lat="42.58357" lon="2.00946">
        <ele>2140</ele>
        <time>2020-07-25T07:52:10.078Z</time>
      </trkpt>
      <trkpt lat="42.58357" lon="2.00941">
        <ele>2138</ele>
        <time>2020-07-25T07:52:11.078Z</time>
      </trkpt>
      <trkpt lat="42.58357" lon="2.00937">
        <ele>2138</ele>
        <time>2020-07-25T07:52:12.078Z</time>
      </trkpt>
      <trkpt lat="42.58357" lon="2.00932">
        <ele>2137</ele>
        <time>2020-07-25T07:52:13.078Z</time>
      </trkpt>
      <trkpt lat="42.58357" lon="2.00928">
        <ele>2136</ele>
        <time>2020-07-25T07:52:14.078Z</time>
      </trkpt>
      <trkpt lat="42.58357" lon="2.00923">
        <ele>2135</ele>
        <time>2020-07-25T07:52:15.078Z</time>
      </trkpt>
      <trkpt lat="42.58357" lon="2.00917">
        <ele>2135</ele>
        <time>2020-07-25T07:52:16.078Z</time>
      </trkpt>
      <trkpt lat="42.58357" lon="2.00912">
        <ele>2134</ele>
        <time>2020-07-25T07:52:17.078Z</time>
      </trkpt>
      <trkpt lat="42.58358" lon="2.00908">
        <ele>2134</ele>
        <time>2020-07-25T07:52:18.078Z</time>
      </trkpt>
      <trkpt lat="42.58359" lon="2.00904">
        <ele>2133</ele>
        <time>2020-07-25T07:52:19.078Z</time>
      </trkpt>
      <trkpt lat="42.5836" lon="2.009">
        <ele>2133</ele>
        <time>2020-07-25T07:52:20.078Z</time>
      </trkpt>
      <trkpt lat="42.5836" lon="2.00896">
        <ele>2132</ele>
        <time>2020-07-25T07:52:21.078Z</time>
      </trkpt>
      <trkpt lat="42.58359" lon="2.00891">
        <ele>2132</ele>
        <time>2020-07-25T07:52:22.078Z</time>
      </trkpt>
      <trkpt lat="42.58358" lon="2.00887">
        <ele>2131</ele>
        <time>2020-07-25T07:52:23.078Z</time>
      </trkpt>
      <trkpt lat="42.58357" lon="2.00883">
        <ele>2131</ele>
        <time>2020-07-25T07:52:24.078Z</time>
      </trkpt>
      <trkpt lat="42.58355" lon="2.00879">
        <ele>2131</ele>
        <time>2020-07-25T07:52:25.078Z</time>
      </trkpt>
      <trkpt lat="42.58354" lon="2.00876">
        <ele>2130</ele>
        <time>2020-07-25T07:52:26.078Z</time>
      </trkpt>
      <trkpt lat="42.58352" lon="2.00873">
        <ele>2129</ele>
        <time>2020-07-25T07:52:27.078Z</time>
      </trkpt>
      <trkpt lat="42.58351" lon="2.00869">
        <ele>2129</ele>
        <time>2020-07-25T07:52:28.078Z</time>
      </trkpt>
      <trkpt lat="42.5835" lon="2.00866">
        <ele>2128</ele>
        <time>2020-07-25T07:52:29.078Z</time>
      </trkpt>
      <trkpt lat="42.58349" lon="2.00862">
        <ele>2126</ele>
        <time>2020-07-25T07:52:30.078Z</time>
      </trkpt>
      <trkpt lat="42.58348" lon="2.00858">
        <ele>2125</ele>
        <time>2020-07-25T07:52:31.078Z</time>
      </trkpt>
      <trkpt lat="42.58347" lon="2.00855">
        <ele>2124</ele>
        <time>2020-07-25T07:52:32.078Z</time>
      </trkpt>
      <trkpt lat="42.58346" lon="2.00851">
        <ele>2122</ele>
        <time>2020-07-25T07:52:33.078Z</time>
      </trkpt>
      <trkpt lat="42.58345" lon="2.00848">
        <ele>2122</ele>
        <time>2020-07-25T07:52:34.078Z</time>
      </trkpt>
      <trkpt lat="42.58345" lon="2.00844">
        <ele>2122</ele>
        <time>2020-07-25T07:52:35.078Z</time>
      </trkpt>
      <trkpt lat="42.58345" lon="2.00841">
        <ele>2121</ele>
        <time>2020-07-25T07:52:36.078Z</time>
      </trkpt>
      <trkpt lat="42.58346" lon="2.00835">
        <ele>2120</ele>
        <time>2020-07-25T07:52:37.047Z</time>
      </trkpt>
      <trkpt lat="42.58347" lon="2.00835">
        <ele>2120</ele>
        <time>2020-07-25T07:52:38.047Z</time>
      </trkpt>
      <trkpt lat="42.58347" lon="2.00834">
        <ele>2120</ele>
        <time>2020-07-25T07:52:39.047Z</time>
      </trkpt>
      <trkpt lat="42.58348" lon="2.00834">
        <ele>2120</ele>
        <time>2020-07-25T07:52:40.047Z</time>
      </trkpt>
      <trkpt lat="42.58349" lon="2.00832">
        <ele>2120</ele>
        <time>2020-07-25T07:52:41.047Z</time>
      </trkpt>
      <trkpt lat="42.5835" lon="2.0083">
        <ele>2119</ele>
        <time>2020-07-25T07:52:42.047Z</time>
      </trkpt>
      <trkpt lat="42.58351" lon="2.00827">
        <ele>2119</ele>
        <time>2020-07-25T07:52:43.047Z</time>
      </trkpt>
      <trkpt lat="42.58352" lon="2.00824">
        <ele>2118</ele>
        <time>2020-07-25T07:52:44.047Z</time>
      </trkpt>
      <trkpt lat="42.58354" lon="2.00821">
        <ele>2117</ele>
        <time>2020-07-25T07:52:45.047Z</time>
      </trkpt>
      <trkpt lat="42.58355" lon="2.00818">
        <ele>2116</ele>
        <time>2020-07-25T07:52:46.047Z</time>
      </trkpt>
      <trkpt lat="42.58356" lon="2.00815">
        <ele>2115</ele>
        <time>2020-07-25T07:52:47.047Z</time>
      </trkpt>
      <trkpt lat="42.58357" lon="2.00812">
        <ele>2113</ele>
        <time>2020-07-25T07:52:48.047Z</time>
      </trkpt>
      <trkpt lat="42.58357" lon="2.00809">
        <ele>2113</ele>
        <time>2020-07-25T07:52:49.047Z</time>
      </trkpt>
      <trkpt lat="42.58358" lon="2.00806">
        <ele>2112</ele>
        <time>2020-07-25T07:52:50.047Z</time>
      </trkpt>
      <trkpt lat="42.58359" lon="2.00804">
        <ele>2111</ele>
        <time>2020-07-25T07:52:51.047Z</time>
      </trkpt>
      <trkpt lat="42.58361" lon="2.00801">
        <ele>2110</ele>
        <time>2020-07-25T07:52:52.047Z</time>
      </trkpt>
      <trkpt lat="42.58363" lon="2.00798">
        <ele>2111</ele>
        <time>2020-07-25T07:52:53.047Z</time>
      </trkpt>
      <trkpt lat="42.58365" lon="2.00796">
        <ele>2111</ele>
        <time>2020-07-25T07:52:54.047Z</time>
      </trkpt>
      <trkpt lat="42.58367" lon="2.00793">
        <ele>2109</ele>
        <time>2020-07-25T07:52:55.047Z</time>
      </trkpt>
      <trkpt lat="42.5837" lon="2.00791">
        <ele>2108</ele>
        <time>2020-07-25T07:52:56.047Z</time>
      </trkpt>
      <trkpt lat="42.58372" lon="2.00789">
        <ele>2107</ele>
        <time>2020-07-25T07:52:57.047Z</time>
      </trkpt>
      <trkpt lat="42.58374" lon="2.00788">
        <ele>2107</ele>
        <time>2020-07-25T07:52:58.047Z</time>
      </trkpt>
      <trkpt lat="42.58376" lon="2.00786">
        <ele>2106</ele>
        <time>2020-07-25T07:52:59.047Z</time>
      </trkpt>
      <trkpt lat="42.58379" lon="2.00784">
        <ele>2104</ele>
        <time>2020-07-25T07:53:00.047Z</time>
      </trkpt>
      <trkpt lat="42.58382" lon="2.00782">
        <ele>2103</ele>
        <time>2020-07-25T07:53:01.047Z</time>
      </trkpt>
      <trkpt lat="42.58384" lon="2.00779">
        <ele>2102</ele>
        <time>2020-07-25T07:53:02.047Z</time>
      </trkpt>
      <trkpt lat="42.58387" lon="2.00776">
        <ele>2101</ele>
        <time>2020-07-25T07:53:03.047Z</time>
      </trkpt>
      <trkpt lat="42.58389" lon="2.00772">
        <ele>2099</ele>
        <time>2020-07-25T07:53:04.047Z</time>
      </trkpt>
      <trkpt lat="42.58392" lon="2.00768">
        <ele>2098</ele>
        <time>2020-07-25T07:53:05.047Z</time>
      </trkpt>
      <trkpt lat="42.58394" lon="2.00763">
        <ele>2096</ele>
        <time>2020-07-25T07:53:06.047Z</time>
      </trkpt>
      <trkpt lat="42.58397" lon="2.00758">
        <ele>2095</ele>
        <time>2020-07-25T07:53:07.047Z</time>
      </trkpt>
      <trkpt lat="42.584" lon="2.00754">
        <ele>2095</ele>
        <time>2020-07-25T07:53:08.047Z</time>
      </trkpt>
      <trkpt lat="42.58403" lon="2.00749">
        <ele>2094</ele>
        <time>2020-07-25T07:53:09.047Z</time>
      </trkpt>
      <trkpt lat="42.58405" lon="2.00745">
        <ele>2094</ele>
        <time>2020-07-25T07:53:10.047Z</time>
      </trkpt>
      <trkpt lat="42.58407" lon="2.0074">
        <ele>2092</ele>
        <time>2020-07-25T07:53:11.047Z</time>
      </trkpt>
      <trkpt lat="42.58409" lon="2.00735">
        <ele>2091</ele>
        <time>2020-07-25T07:53:12.047Z</time>
      </trkpt>
      <trkpt lat="42.58411" lon="2.00731">
        <ele>2090</ele>
        <time>2020-07-25T07:53:13.047Z</time>
      </trkpt>
      <trkpt lat="42.58414" lon="2.00727">
        <ele>2091</ele>
        <time>2020-07-25T07:53:14.047Z</time>
      </trkpt>
      <trkpt lat="42.58417" lon="2.00723">
        <ele>2092</ele>
        <time>2020-07-25T07:53:15.047Z</time>
      </trkpt>
      <trkpt lat="42.5842" lon="2.00721">
        <ele>2093</ele>
        <time>2020-07-25T07:53:16.047Z</time>
      </trkpt>
      <trkpt lat="42.58424" lon="2.00719">
        <ele>2094</ele>
        <time>2020-07-25T07:53:17.047Z</time>
      </trkpt>
      <trkpt lat="42.58427" lon="2.00718">
        <ele>2095</ele>
        <time>2020-07-25T07:53:18.047Z</time>
      </trkpt>
      <trkpt lat="42.5843" lon="2.00716">
        <ele>2095</ele>
        <time>2020-07-25T07:53:19.047Z</time>
      </trkpt>
      <trkpt lat="42.58434" lon="2.00715">
        <ele>2096</ele>
        <time>2020-07-25T07:53:20.047Z</time>
      </trkpt>
      <trkpt lat="42.58437" lon="2.00713">
        <ele>2096</ele>
        <time>2020-07-25T07:53:21.047Z</time>
      </trkpt>
      <trkpt lat="42.5844" lon="2.00711">
        <ele>2097</ele>
        <time>2020-07-25T07:53:22.047Z</time>
      </trkpt>
      <trkpt lat="42.58443" lon="2.00708">
        <ele>2097</ele>
        <time>2020-07-25T07:53:23.047Z</time>
      </trkpt>
      <trkpt lat="42.58445" lon="2.00704">
        <ele>2098</ele>
        <time>2020-07-25T07:53:24.047Z</time>
      </trkpt>
      <trkpt lat="42.58447" lon="2.007">
        <ele>2098</ele>
        <time>2020-07-25T07:53:25.047Z</time>
      </trkpt>
      <trkpt lat="42.58449" lon="2.00696">
        <ele>2098</ele>
        <time>2020-07-25T07:53:26.047Z</time>
      </trkpt>
      <trkpt lat="42.5845" lon="2.00693">
        <ele>2097</ele>
        <time>2020-07-25T07:53:27.047Z</time>
      </trkpt>
      <trkpt lat="42.58452" lon="2.00689">
        <ele>2097</ele>
        <time>2020-07-25T07:53:28.047Z</time>
      </trkpt>
      <trkpt lat="42.58454" lon="2.00685">
        <ele>2096</ele>
        <time>2020-07-25T07:53:29.047Z</time>
      </trkpt>
      <trkpt lat="42.58456" lon="2.00683">
        <ele>2094</ele>
        <time>2020-07-25T07:53:30.047Z</time>
      </trkpt>
      <trkpt lat="42.58459" lon="2.0068">
        <ele>2094</ele>
        <time>2020-07-25T07:53:31.047Z</time>
      </trkpt>
      <trkpt lat="42.58462" lon="2.00679">
        <ele>2093</ele>
        <time>2020-07-25T07:53:32.047Z</time>
      </trkpt>
      <trkpt lat="42.58465" lon="2.00676">
        <ele>2092</ele>
        <time>2020-07-25T07:53:33.047Z</time>
      </trkpt>
      <trkpt lat="42.58468" lon="2.00674">
        <ele>2091</ele>
        <time>2020-07-25T07:53:34.047Z</time>
      </trkpt>
      <trkpt lat="42.58471" lon="2.00671">
        <ele>2090</ele>
        <time>2020-07-25T07:53:35.047Z</time>
      </trkpt>
      <trkpt lat="42.58474" lon="2.00669">
        <ele>2090</ele>
        <time>2020-07-25T07:53:36.047Z</time>
      </trkpt>
      <trkpt lat="42.58476" lon="2.00667">
        <ele>2089</ele>
        <time>2020-07-25T07:53:37.047Z</time>
      </trkpt>
      <trkpt lat="42.58476" lon="2.00661">
        <ele>2091</ele>
        <time>2020-07-25T07:53:38.000Z</time>
      </trkpt>
      <trkpt lat="42.58476" lon="2.00661">
        <ele>2091</ele>
        <time>2020-07-25T07:53:39.000Z</time>
      </trkpt>
      <trkpt lat="42.58477" lon="2.00661">
        <ele>2091</ele>
        <time>2020-07-25T07:53:40.000Z</time>
      </trkpt>
      <trkpt lat="42.58478" lon="2.0066">
        <ele>2092</ele>
        <time>2020-07-25T07:53:41.000Z</time>
      </trkpt>
      <trkpt lat="42.58478" lon="2.00659">
        <ele>2092</ele>
        <time>2020-07-25T07:53:42.000Z</time>
      </trkpt>
      <trkpt lat="42.5848" lon="2.00658">
        <ele>2093</ele>
        <time>2020-07-25T07:53:43.000Z</time>
      </trkpt>
      <trkpt lat="42.58481" lon="2.00658">
        <ele>2093</ele>
        <time>2020-07-25T07:53:44.000Z</time>
      </trkpt>
      <trkpt lat="42.58483" lon="2.00657">
        <ele>2094</ele>
        <time>2020-07-25T07:53:45.000Z</time>
      </trkpt>
      <trkpt lat="42.58485" lon="2.00657">
        <ele>2095</ele>
        <time>2020-07-25T07:53:46.000Z</time>
      </trkpt>
      <trkpt lat="42.58487" lon="2.00656">
        <ele>2096</ele>
        <time>2020-07-25T07:53:47.000Z</time>
      </trkpt>
      <trkpt lat="42.58489" lon="2.00655">
        <ele>2097</ele>
        <time>2020-07-25T07:53:48.000Z</time>
      </trkpt>
      <trkpt lat="42.58491" lon="2.00655">
        <ele>2098</ele>
        <time>2020-07-25T07:53:49.000Z</time>
      </trkpt>
      <trkpt lat="42.58494" lon="2.00654">
        <ele>2099</ele>
        <time>2020-07-25T07:53:50.000Z</time>
      </trkpt>
      <trkpt lat="42.58496" lon="2.00655">
        <ele>2099</ele>
        <time>2020-07-25T07:53:51.000Z</time>
      </trkpt>
      <trkpt lat="42.58499" lon="2.00654">
        <ele>2101</ele>
        <time>2020-07-25T07:53:52.000Z</time>
      </trkpt>
      <trkpt lat="42.58502" lon="2.00654">
        <ele>2102</ele>
        <time>2020-07-25T07:53:53.000Z</time>
      </trkpt>
      <trkpt lat="42.58505" lon="2.00653">
        <ele>2102</ele>
        <time>2020-07-25T07:53:54.000Z</time>
      </trkpt>
      <trkpt lat="42.58508" lon="2.00653">
        <ele>2102</ele>
        <time>2020-07-25T07:53:55.000Z</time>
      </trkpt>
      <trkpt lat="42.5851" lon="2.00653">
        <ele>2102</ele>
        <time>2020-07-25T07:53:56.000Z</time>
      </trkpt>
      <trkpt lat="42.58513" lon="2.00653">
        <ele>2103</ele>
        <time>2020-07-25T07:53:57.000Z</time>
      </trkpt>
      <trkpt lat="42.58516" lon="2.00653">
        <ele>2103</ele>
        <time>2020-07-25T07:53:58.000Z</time>
      </trkpt>
      <trkpt lat="42.58519" lon="2.00653">
        <ele>2103</ele>
        <time>2020-07-25T07:53:59.000Z</time>
      </trkpt>
      <trkpt lat="42.58521" lon="2.00653">
        <ele>2103</ele>
        <time>2020-07-25T07:54:00.000Z</time>
      </trkpt>
      <trkpt lat="42.58524" lon="2.00653">
        <ele>2103</ele>
        <time>2020-07-25T07:54:01.000Z</time>
      </trkpt>
      <trkpt lat="42.58526" lon="2.00652">
        <ele>2103</ele>
        <time>2020-07-25T07:54:02.000Z</time>
      </trkpt>
      <trkpt lat="42.58528" lon="2.00652">
        <ele>2104</ele>
        <time>2020-07-25T07:54:03.000Z</time>
      </trkpt>
      <trkpt lat="42.58531" lon="2.00652">
        <ele>2105</ele>
        <time>2020-07-25T07:54:04.000Z</time>
      </trkpt>
      <trkpt lat="42.58533" lon="2.00651">
        <ele>2105</ele>
        <time>2020-07-25T07:54:05.000Z</time>
      </trkpt>
      <trkpt lat="42.58535" lon="2.0065">
        <ele>2107</ele>
        <time>2020-07-25T07:54:06.000Z</time>
      </trkpt>
      <trkpt lat="42.58537" lon="2.00649">
        <ele>2110</ele>
        <time>2020-07-25T07:54:07.000Z</time>
      </trkpt>
      <trkpt lat="42.58539" lon="2.00648">
        <ele>2110</ele>
        <time>2020-07-25T07:54:08.000Z</time>
      </trkpt>
      <trkpt lat="42.58541" lon="2.00649">
        <ele>2111</ele>
        <time>2020-07-25T07:54:09.000Z</time>
      </trkpt>
      <trkpt lat="42.58543" lon="2.00649">
        <ele>2111</ele>
        <time>2020-07-25T07:54:10.000Z</time>
      </trkpt>
      <trkpt lat="42.58544" lon="2.0065">
        <ele>2111</ele>
        <time>2020-07-25T07:54:11.000Z</time>
      </trkpt>
      <trkpt lat="42.58545" lon="2.00652">
        <ele>2110</ele>
        <time>2020-07-25T07:54:12.000Z</time>
      </trkpt>
      <trkpt lat="42.58546" lon="2.00653">
        <ele>2110</ele>
        <time>2020-07-25T07:54:13.000Z</time>
      </trkpt>
      <trkpt lat="42.58548" lon="2.00654">
        <ele>2109</ele>
        <time>2020-07-25T07:54:14.000Z</time>
      </trkpt>
      <trkpt lat="42.58549" lon="2.00655">
        <ele>2109</ele>
        <time>2020-07-25T07:54:15.000Z</time>
      </trkpt>
      <trkpt lat="42.58551" lon="2.00656">
        <ele>2110</ele>
        <time>2020-07-25T07:54:16.000Z</time>
      </trkpt>
      <trkpt lat="42.58552" lon="2.00656">
        <ele>2111</ele>
        <time>2020-07-25T07:54:17.000Z</time>
      </trkpt>
      <trkpt lat="42.58553" lon="2.00657">
        <ele>2111</ele>
        <time>2020-07-25T07:54:18.000Z</time>
      </trkpt>
      <trkpt lat="42.58555" lon="2.00658">
        <ele>2111</ele>
        <time>2020-07-25T07:54:19.000Z</time>
      </trkpt>
      <trkpt lat="42.58556" lon="2.00658">
        <ele>2112</ele>
        <time>2020-07-25T07:54:20.000Z</time>
      </trkpt>
      <trkpt lat="42.58557" lon="2.00659">
        <ele>2112</ele>
        <time>2020-07-25T07:54:21.000Z</time>
      </trkpt>
      <trkpt lat="42.58559" lon="2.00659">
        <ele>2113</ele>
        <time>2020-07-25T07:54:22.000Z</time>
      </trkpt>
      <trkpt lat="42.5856" lon="2.00659">
        <ele>2113</ele>
        <time>2020-07-25T07:54:23.000Z</time>
      </trkpt>
      <trkpt lat="42.58562" lon="2.00659">
        <ele>2114</ele>
        <time>2020-07-25T07:54:24.000Z</time>
      </trkpt>
      <trkpt lat="42.58563" lon="2.00658">
        <ele>2113</ele>
        <time>2020-07-25T07:54:25.000Z</time>
      </trkpt>
      <trkpt lat="42.58564" lon="2.00658">
        <ele>2113</ele>
        <time>2020-07-25T07:54:26.000Z</time>
      </trkpt>
      <trkpt lat="42.58565" lon="2.00658">
        <ele>2112</ele>
        <time>2020-07-25T07:54:27.000Z</time>
      </trkpt>
      <trkpt lat="42.58567" lon="2.00657">
        <ele>2113</ele>
        <time>2020-07-25T07:54:28.000Z</time>
      </trkpt>
      <trkpt lat="42.58568" lon="2.00656">
        <ele>2115</ele>
        <time>2020-07-25T07:54:29.000Z</time>
      </trkpt>
      <trkpt lat="42.5857" lon="2.00653">
        <ele>2114</ele>
        <time>2020-07-25T07:54:30.000Z</time>
      </trkpt>
      <trkpt lat="42.58571" lon="2.00651">
        <ele>2114</ele>
        <time>2020-07-25T07:54:31.000Z</time>
      </trkpt>
      <trkpt lat="42.58573" lon="2.00648">
        <ele>2114</ele>
        <time>2020-07-25T07:54:32.000Z</time>
      </trkpt>
      <trkpt lat="42.58575" lon="2.00646">
        <ele>2114</ele>
        <time>2020-07-25T07:54:33.000Z</time>
      </trkpt>
      <trkpt lat="42.58577" lon="2.00644">
        <ele>2114</ele>
        <time>2020-07-25T07:54:34.000Z</time>
      </trkpt>
      <trkpt lat="42.58579" lon="2.00642">
        <ele>2113</ele>
        <time>2020-07-25T07:54:35.000Z</time>
      </trkpt>
      <trkpt lat="42.58582" lon="2.0064">
        <ele>2113</ele>
        <time>2020-07-25T07:54:36.000Z</time>
      </trkpt>
      <trkpt lat="42.58585" lon="2.00639">
        <ele>2113</ele>
        <time>2020-07-25T07:54:37.000Z</time>
      </trkpt>
      <trkpt lat="42.58587" lon="2.00637">
        <ele>2112</ele>
        <time>2020-07-25T07:54:38.000Z</time>
      </trkpt>
      <trkpt lat="42.5859" lon="2.00637">
        <ele>2111</ele>
        <time>2020-07-25T07:54:39.000Z</time>
      </trkpt>
      <trkpt lat="42.58593" lon="2.00638">
        <ele>2111</ele>
        <time>2020-07-25T07:54:40.000Z</time>
      </trkpt>
      <trkpt lat="42.58597" lon="2.00642">
        <ele>2110</ele>
        <time>2020-07-25T07:54:41.000Z</time>
      </trkpt>
      <trkpt lat="42.586" lon="2.00646">
        <ele>2110</ele>
        <time>2020-07-25T07:54:42.000Z</time>
      </trkpt>
      <trkpt lat="42.58602" lon="2.0065">
        <ele>2111</ele>
        <time>2020-07-25T07:54:43.000Z</time>
      </trkpt>
      <trkpt lat="42.58605" lon="2.00653">
        <ele>2111</ele>
        <time>2020-07-25T07:54:44.000Z</time>
      </trkpt>
      <trkpt lat="42.58607" lon="2.00656">
        <ele>2112</ele>
        <time>2020-07-25T07:54:45.000Z</time>
      </trkpt>
      <trkpt lat="42.58609" lon="2.00659">
        <ele>2112</ele>
        <time>2020-07-25T07:54:46.000Z</time>
      </trkpt>
      <trkpt lat="42.5861" lon="2.00662">
        <ele>2112</ele>
        <time>2020-07-25T07:54:47.000Z</time>
      </trkpt>
      <trkpt lat="42.58612" lon="2.00665">
        <ele>2112</ele>
        <time>2020-07-25T07:54:48.000Z</time>
      </trkpt>
      <trkpt lat="42.58614" lon="2.00667">
        <ele>2113</ele>
        <time>2020-07-25T07:54:49.000Z</time>
      </trkpt>
      <trkpt lat="42.58617" lon="2.00668">
        <ele>2114</ele>
        <time>2020-07-25T07:54:50.000Z</time>
      </trkpt>
      <trkpt lat="42.58619" lon="2.0067">
        <ele>2114</ele>
        <time>2020-07-25T07:54:51.000Z</time>
      </trkpt>
      <trkpt lat="42.58621" lon="2.00671">
        <ele>2115</ele>
        <time>2020-07-25T07:54:52.000Z</time>
      </trkpt>
      <trkpt lat="42.58623" lon="2.00672">
        <ele>2115</ele>
        <time>2020-07-25T07:54:53.000Z</time>
      </trkpt>
      <trkpt lat="42.58626" lon="2.00672">
        <ele>2116</ele>
        <time>2020-07-25T07:54:54.000Z</time>
      </trkpt>
      <trkpt lat="42.58628" lon="2.00672">
        <ele>2117</ele>
        <time>2020-07-25T07:54:55.000Z</time>
      </trkpt>
      <trkpt lat="42.58631" lon="2.00672">
        <ele>2117</ele>
        <time>2020-07-25T07:54:56.000Z</time>
      </trkpt>
      <trkpt lat="42.58634" lon="2.00671">
        <ele>2116</ele>
        <time>2020-07-25T07:54:57.000Z</time>
      </trkpt>
      <trkpt lat="42.58637" lon="2.0067">
        <ele>2116</ele>
        <time>2020-07-25T07:54:58.000Z</time>
      </trkpt>
      <trkpt lat="42.5864" lon="2.00669">
        <ele>2115</ele>
        <time>2020-07-25T07:54:59.000Z</time>
      </trkpt>
      <trkpt lat="42.58642" lon="2.00667">
        <ele>2114</ele>
        <time>2020-07-25T07:55:00.000Z</time>
      </trkpt>
      <trkpt lat="42.58645" lon="2.00664">
        <ele>2113</ele>
        <time>2020-07-25T07:55:01.000Z</time>
      </trkpt>
      <trkpt lat="42.58648" lon="2.00661">
        <ele>2112</ele>
        <time>2020-07-25T07:55:02.000Z</time>
      </trkpt>
      <trkpt lat="42.58651" lon="2.00658">
        <ele>2111</ele>
        <time>2020-07-25T07:55:03.000Z</time>
      </trkpt>
      <trkpt lat="42.58654" lon="2.00655">
        <ele>2110</ele>
        <time>2020-07-25T07:55:04.000Z</time>
      </trkpt>
      <trkpt lat="42.58657" lon="2.00652">
        <ele>2109</ele>
        <time>2020-07-25T07:55:05.000Z</time>
      </trkpt>
      <trkpt lat="42.5866" lon="2.00649">
        <ele>2108</ele>
        <time>2020-07-25T07:55:06.000Z</time>
      </trkpt>
      <trkpt lat="42.58663" lon="2.00646">
        <ele>2107</ele>
        <time>2020-07-25T07:55:07.000Z</time>
      </trkpt>
      <trkpt lat="42.58665" lon="2.00643">
        <ele>2107</ele>
        <time>2020-07-25T07:55:08.000Z</time>
      </trkpt>
      <trkpt lat="42.58668" lon="2.00639">
        <ele>2107</ele>
        <time>2020-07-25T07:55:09.000Z</time>
      </trkpt>
      <trkpt lat="42.5867" lon="2.00635">
        <ele>2107</ele>
        <time>2020-07-25T07:55:10.000Z</time>
      </trkpt>
      <trkpt lat="42.58672" lon="2.00632">
        <ele>2106</ele>
        <time>2020-07-25T07:55:11.000Z</time>
      </trkpt>
      <trkpt lat="42.58674" lon="2.00629">
        <ele>2105</ele>
        <time>2020-07-25T07:55:12.000Z</time>
      </trkpt>
      <trkpt lat="42.58677" lon="2.00626">
        <ele>2105</ele>
        <time>2020-07-25T07:55:13.000Z</time>
      </trkpt>
      <trkpt lat="42.5868" lon="2.00624">
        <ele>2104</ele>
        <time>2020-07-25T07:55:14.000Z</time>
      </trkpt>
      <trkpt lat="42.58684" lon="2.00623">
        <ele>2104</ele>
        <time>2020-07-25T07:55:15.000Z</time>
      </trkpt>
      <trkpt lat="42.58687" lon="2.00623">
        <ele>2104</ele>
        <time>2020-07-25T07:55:16.000Z</time>
      </trkpt>
      <trkpt lat="42.58691" lon="2.00623">
        <ele>2105</ele>
        <time>2020-07-25T07:55:17.000Z</time>
      </trkpt>
      <trkpt lat="42.58693" lon="2.00623">
        <ele>2105</ele>
        <time>2020-07-25T07:55:18.000Z</time>
      </trkpt>
      <trkpt lat="42.58695" lon="2.00624">
        <ele>2105</ele>
        <time>2020-07-25T07:55:19.000Z</time>
      </trkpt>
      <trkpt lat="42.58697" lon="2.00626">
        <ele>2105</ele>
        <time>2020-07-25T07:55:20.000Z</time>
      </trkpt>
      <trkpt lat="42.58699" lon="2.00629">
        <ele>2105</ele>
        <time>2020-07-25T07:55:21.000Z</time>
      </trkpt>
      <trkpt lat="42.587" lon="2.00632">
        <ele>2104</ele>
        <time>2020-07-25T07:55:22.000Z</time>
      </trkpt>
      <trkpt lat="42.587" lon="2.00634">
        <ele>2105</ele>
        <time>2020-07-25T07:55:23.000Z</time>
      </trkpt>
      <trkpt lat="42.587" lon="2.00636">
        <ele>2106</ele>
        <time>2020-07-25T07:55:24.000Z</time>
      </trkpt>
      <trkpt lat="42.58699" lon="2.00638">
        <ele>2106</ele>
        <time>2020-07-25T07:55:25.000Z</time>
      </trkpt>
      <trkpt lat="42.58699" lon="2.0064">
        <ele>2106</ele>
        <time>2020-07-25T07:55:26.000Z</time>
      </trkpt>
      <trkpt lat="42.58698" lon="2.00643">
        <ele>2104</ele>
        <time>2020-07-25T07:55:27.000Z</time>
      </trkpt>
      <trkpt lat="42.58697" lon="2.00646">
        <ele>2104</ele>
        <time>2020-07-25T07:55:28.000Z</time>
      </trkpt>
      <trkpt lat="42.58696" lon="2.0065">
        <ele>2104</ele>
        <time>2020-07-25T07:55:29.000Z</time>
      </trkpt>
      <trkpt lat="42.58695" lon="2.00652">
        <ele>2105</ele>
        <time>2020-07-25T07:55:30.000Z</time>
      </trkpt>
      <trkpt lat="42.58694" lon="2.00656">
        <ele>2105</ele>
        <time>2020-07-25T07:55:31.000Z</time>
      </trkpt>
      <trkpt lat="42.58693" lon="2.00659">
        <ele>2106</ele>
        <time>2020-07-25T07:55:32.000Z</time>
      </trkpt>
      <trkpt lat="42.58692" lon="2.00662">
        <ele>2107</ele>
        <time>2020-07-25T07:55:33.000Z</time>
      </trkpt>
      <trkpt lat="42.58691" lon="2.00666">
        <ele>2107</ele>
        <time>2020-07-25T07:55:34.000Z</time>
      </trkpt>
      <trkpt lat="42.58691" lon="2.0067">
        <ele>2107</ele>
        <time>2020-07-25T07:55:35.000Z</time>
      </trkpt>
      <trkpt lat="42.58691" lon="2.00674">
        <ele>2108</ele>
        <time>2020-07-25T07:55:36.000Z</time>
      </trkpt>
      <trkpt lat="42.58691" lon="2.0068">
        <ele>2109</ele>
        <time>2020-07-25T07:55:37.000Z</time>
      </trkpt>
      <trkpt lat="42.58691" lon="2.00685">
        <ele>2110</ele>
        <time>2020-07-25T07:55:38.000Z</time>
      </trkpt>
      <trkpt lat="42.58691" lon="2.0069">
        <ele>2110</ele>
        <time>2020-07-25T07:55:39.000Z</time>
      </trkpt>
      <trkpt lat="42.58692" lon="2.00695">
        <ele>2110</ele>
        <time>2020-07-25T07:55:40.000Z</time>
      </trkpt>
      <trkpt lat="42.58693" lon="2.00699">
        <ele>2110</ele>
        <time>2020-07-25T07:55:41.000Z</time>
      </trkpt>
      <trkpt lat="42.58694" lon="2.00703">
        <ele>2111</ele>
        <time>2020-07-25T07:55:42.000Z</time>
      </trkpt>
      <trkpt lat="42.58695" lon="2.00707">
        <ele>2111</ele>
        <time>2020-07-25T07:55:43.000Z</time>
      </trkpt>
      <trkpt lat="42.58697" lon="2.00711">
        <ele>2111</ele>
        <time>2020-07-25T07:55:44.000Z</time>
      </trkpt>
      <trkpt lat="42.58698" lon="2.00715">
        <ele>2110</ele>
        <time>2020-07-25T07:55:45.000Z</time>
      </trkpt>
      <trkpt lat="42.58698" lon="2.0072">
        <ele>2110</ele>
        <time>2020-07-25T07:55:46.000Z</time>
      </trkpt>
      <trkpt lat="42.58699" lon="2.00725">
        <ele>2110</ele>
        <time>2020-07-25T07:55:47.000Z</time>
      </trkpt>
      <trkpt lat="42.58699" lon="2.00729">
        <ele>2109</ele>
        <time>2020-07-25T07:55:48.000Z</time>
      </trkpt>
      <trkpt lat="42.58701" lon="2.00733">
        <ele>2109</ele>
        <time>2020-07-25T07:55:49.000Z</time>
      </trkpt>
      <trkpt lat="42.58702" lon="2.00736">
        <ele>2109</ele>
        <time>2020-07-25T07:55:50.000Z</time>
      </trkpt>
      <trkpt lat="42.58704" lon="2.00739">
        <ele>2107</ele>
        <time>2020-07-25T07:55:51.000Z</time>
      </trkpt>
      <trkpt lat="42.58707" lon="2.00741">
        <ele>2107</ele>
        <time>2020-07-25T07:55:52.000Z</time>
      </trkpt>
      <trkpt lat="42.58709" lon="2.00744">
        <ele>2106</ele>
        <time>2020-07-25T07:55:53.000Z</time>
      </trkpt>
      <trkpt lat="42.58712" lon="2.00748">
        <ele>2107</ele>
        <time>2020-07-25T07:55:54.000Z</time>
      </trkpt>
      <trkpt lat="42.58713" lon="2.00752">
        <ele>2107</ele>
        <time>2020-07-25T07:55:55.000Z</time>
      </trkpt>
      <trkpt lat="42.58715" lon="2.00756">
        <ele>2107</ele>
        <time>2020-07-25T07:55:56.000Z</time>
      </trkpt>
      <trkpt lat="42.58717" lon="2.0076">
        <ele>2107</ele>
        <time>2020-07-25T07:55:57.000Z</time>
      </trkpt>
      <trkpt lat="42.58719" lon="2.00764">
        <ele>2107</ele>
        <time>2020-07-25T07:55:58.000Z</time>
      </trkpt>
      <trkpt lat="42.58721" lon="2.00767">
        <ele>2107</ele>
        <time>2020-07-25T07:55:59.000Z</time>
      </trkpt>
      <trkpt lat="42.58723" lon="2.00771">
        <ele>2107</ele>
        <time>2020-07-25T07:56:00.000Z</time>
      </trkpt>
      <trkpt lat="42.58725" lon="2.00775">
        <ele>2106</ele>
        <time>2020-07-25T07:56:01.000Z</time>
      </trkpt>
      <trkpt lat="42.58727" lon="2.00779">
        <ele>2105</ele>
        <time>2020-07-25T07:56:02.000Z</time>
      </trkpt>
      <trkpt lat="42.58729" lon="2.00783">
        <ele>2105</ele>
        <time>2020-07-25T07:56:03.000Z</time>
      </trkpt>
      <trkpt lat="42.5873" lon="2.00786">
        <ele>2106</ele>
        <time>2020-07-25T07:56:04.000Z</time>
      </trkpt>
      <trkpt lat="42.58732" lon="2.00789">
        <ele>2106</ele>
        <time>2020-07-25T07:56:05.000Z</time>
      </trkpt>
      <trkpt lat="42.58733" lon="2.00792">
        <ele>2106</ele>
        <time>2020-07-25T07:56:06.000Z</time>
      </trkpt>
      <trkpt lat="42.58735" lon="2.00795">
        <ele>2106</ele>
        <time>2020-07-25T07:56:07.000Z</time>
      </trkpt>
      <trkpt lat="42.58736" lon="2.00797">
        <ele>2106</ele>
        <time>2020-07-25T07:56:08.000Z</time>
      </trkpt>
      <trkpt lat="42.58738" lon="2.00799">
        <ele>2105</ele>
        <time>2020-07-25T07:56:09.000Z</time>
      </trkpt>
      <trkpt lat="42.58741" lon="2.00801">
        <ele>2106</ele>
        <time>2020-07-25T07:56:10.000Z</time>
      </trkpt>
      <trkpt lat="42.58745" lon="2.00802">
        <ele>2105</ele>
        <time>2020-07-25T07:56:11.000Z</time>
      </trkpt>
      <trkpt lat="42.58748" lon="2.00804">
        <ele>2105</ele>
        <time>2020-07-25T07:56:12.000Z</time>
      </trkpt>
      <trkpt lat="42.58752" lon="2.00806">
        <ele>2106</ele>
        <time>2020-07-25T07:56:13.000Z</time>
      </trkpt>
      <trkpt lat="42.58755" lon="2.00808">
        <ele>2105</ele>
        <time>2020-07-25T07:56:14.000Z</time>
      </trkpt>
      <trkpt lat="42.58758" lon="2.0081">
        <ele>2105</ele>
        <time>2020-07-25T07:56:15.000Z</time>
      </trkpt>
      <trkpt lat="42.58761" lon="2.00812">
        <ele>2106</ele>
        <time>2020-07-25T07:56:16.000Z</time>
      </trkpt>
      <trkpt lat="42.58764" lon="2.00815">
        <ele>2106</ele>
        <time>2020-07-25T07:56:17.000Z</time>
      </trkpt>
      <trkpt lat="42.58768" lon="2.00817">
        <ele>2106</ele>
        <time>2020-07-25T07:56:18.000Z</time>
      </trkpt>
      <trkpt lat="42.58771" lon="2.0082">
        <ele>2107</ele>
        <time>2020-07-25T07:56:19.000Z</time>
      </trkpt>
      <trkpt lat="42.58774" lon="2.00822">
        <ele>2107</ele>
        <time>2020-07-25T07:56:20.000Z</time>
      </trkpt>
      <trkpt lat="42.58776" lon="2.00823">
        <ele>2105</ele>
        <time>2020-07-25T07:56:21.000Z</time>
      </trkpt>
      <trkpt lat="42.58779" lon="2.00824">
        <ele>2106</ele>
        <time>2020-07-25T07:56:22.000Z</time>
      </trkpt>
      <trkpt lat="42.58782" lon="2.00825">
        <ele>2106</ele>
        <time>2020-07-25T07:56:23.000Z</time>
      </trkpt>
      <trkpt lat="42.58785" lon="2.00827">
        <ele>2108</ele>
        <time>2020-07-25T07:56:24.000Z</time>
      </trkpt>
      <trkpt lat="42.58788" lon="2.00828">
        <ele>2108</ele>
        <time>2020-07-25T07:56:25.000Z</time>
      </trkpt>
      <trkpt lat="42.58792" lon="2.00828">
        <ele>2108</ele>
        <time>2020-07-25T07:56:26.000Z</time>
      </trkpt>
      <trkpt lat="42.58796" lon="2.00829">
        <ele>2108</ele>
        <time>2020-07-25T07:56:27.000Z</time>
      </trkpt>
      <trkpt lat="42.58799" lon="2.0083">
        <ele>2109</ele>
        <time>2020-07-25T07:56:28.000Z</time>
      </trkpt>
      <trkpt lat="42.58803" lon="2.00831">
        <ele>2110</ele>
        <time>2020-07-25T07:56:29.000Z</time>
      </trkpt>
      <trkpt lat="42.58806" lon="2.00832">
        <ele>2111</ele>
        <time>2020-07-25T07:56:30.000Z</time>
      </trkpt>
      <trkpt lat="42.58809" lon="2.00833">
        <ele>2112</ele>
        <time>2020-07-25T07:56:31.000Z</time>
      </trkpt>
      <trkpt lat="42.58813" lon="2.00833">
        <ele>2113</ele>
        <time>2020-07-25T07:56:32.000Z</time>
      </trkpt>
      <trkpt lat="42.58816" lon="2.00834">
        <ele>2114</ele>
        <time>2020-07-25T07:56:33.000Z</time>
      </trkpt>
      <trkpt lat="42.58819" lon="2.00834">
        <ele>2115</ele>
        <time>2020-07-25T07:56:34.000Z</time>
      </trkpt>
      <trkpt lat="42.58822" lon="2.00834">
        <ele>2116</ele>
        <time>2020-07-25T07:56:35.000Z</time>
      </trkpt>
      <trkpt lat="42.58825" lon="2.00836">
        <ele>2114</ele>
        <time>2020-07-25T07:56:36.000Z</time>
      </trkpt>
      <trkpt lat="42.58829" lon="2.00839">
        <ele>2113</ele>
        <time>2020-07-25T07:56:37.000Z</time>
      </trkpt>
      <trkpt lat="42.58832" lon="2.00842">
        <ele>2113</ele>
        <time>2020-07-25T07:56:38.000Z</time>
      </trkpt>
      <trkpt lat="42.58835" lon="2.00845">
        <ele>2113</ele>
        <time>2020-07-25T07:56:39.000Z</time>
      </trkpt>
      <trkpt lat="42.58838" lon="2.00849">
        <ele>2111</ele>
        <time>2020-07-25T07:56:40.000Z</time>
      </trkpt>
      <trkpt lat="42.5884" lon="2.00853">
        <ele>2111</ele>
        <time>2020-07-25T07:56:41.000Z</time>
      </trkpt>
      <trkpt lat="42.58842" lon="2.00857">
        <ele>2112</ele>
        <time>2020-07-25T07:56:42.000Z</time>
      </trkpt>
      <trkpt lat="42.58843" lon="2.0086">
        <ele>2111</ele>
        <time>2020-07-25T07:56:43.000Z</time>
      </trkpt>
      <trkpt lat="42.58844" lon="2.00862">
        <ele>2111</ele>
        <time>2020-07-25T07:56:44.000Z</time>
      </trkpt>
      <trkpt lat="42.58845" lon="2.00865">
        <ele>2112</ele>
        <time>2020-07-25T07:56:45.000Z</time>
      </trkpt>
      <trkpt lat="42.58846" lon="2.00868">
        <ele>2111</ele>
        <time>2020-07-25T07:56:46.000Z</time>
      </trkpt>
      <trkpt lat="42.58847" lon="2.00871">
        <ele>2112</ele>
        <time>2020-07-25T07:56:47.000Z</time>
      </trkpt>
      <trkpt lat="42.58848" lon="2.00874">
        <ele>2112</ele>
        <time>2020-07-25T07:56:48.000Z</time>
      </trkpt>
      <trkpt lat="42.58849" lon="2.00878">
        <ele>2111</ele>
        <time>2020-07-25T07:56:49.000Z</time>
      </trkpt>
      <trkpt lat="42.5885" lon="2.00881">
        <ele>2112</ele>
        <time>2020-07-25T07:56:50.000Z</time>
      </trkpt>
      <trkpt lat="42.58851" lon="2.00884">
        <ele>2112</ele>
        <time>2020-07-25T07:56:51.000Z</time>
      </trkpt>
      <trkpt lat="42.58852" lon="2.00888">
        <ele>2112</ele>
        <time>2020-07-25T07:56:52.000Z</time>
      </trkpt>
      <trkpt lat="42.58853" lon="2.00891">
        <ele>2112</ele>
        <time>2020-07-25T07:56:53.000Z</time>
      </trkpt>
      <trkpt lat="42.58854" lon="2.00893">
        <ele>2112</ele>
        <time>2020-07-25T07:56:54.000Z</time>
      </trkpt>
      <trkpt lat="42.58856" lon="2.00896">
        <ele>2113</ele>
        <time>2020-07-25T07:56:55.000Z</time>
      </trkpt>
      <trkpt lat="42.58858" lon="2.00899">
        <ele>2113</ele>
        <time>2020-07-25T07:56:56.000Z</time>
      </trkpt>
      <trkpt lat="42.5886" lon="2.00901">
        <ele>2114</ele>
        <time>2020-07-25T07:56:57.000Z</time>
      </trkpt>
      <trkpt lat="42.58862" lon="2.00904">
        <ele>2115</ele>
        <time>2020-07-25T07:56:58.000Z</time>
      </trkpt>
      <trkpt lat="42.58865" lon="2.00907">
        <ele>2115</ele>
        <time>2020-07-25T07:56:59.000Z</time>
      </trkpt>
      <trkpt lat="42.58867" lon="2.00911">
        <ele>2115</ele>
        <time>2020-07-25T07:57:00.000Z</time>
      </trkpt>
      <trkpt lat="42.5887" lon="2.00914">
        <ele>2114</ele>
        <time>2020-07-25T07:57:01.000Z</time>
      </trkpt>
      <trkpt lat="42.58872" lon="2.00917">
        <ele>2114</ele>
        <time>2020-07-25T07:57:02.000Z</time>
      </trkpt>
      <trkpt lat="42.58875" lon="2.0092">
        <ele>2113</ele>
        <time>2020-07-25T07:57:03.000Z</time>
      </trkpt>
      <trkpt lat="42.58878" lon="2.00922">
        <ele>2113</ele>
        <time>2020-07-25T07:57:04.000Z</time>
      </trkpt>
      <trkpt lat="42.58881" lon="2.00925">
        <ele>2113</ele>
        <time>2020-07-25T07:57:05.000Z</time>
      </trkpt>
      <trkpt lat="42.58884" lon="2.00927">
        <ele>2113</ele>
        <time>2020-07-25T07:57:06.000Z</time>
      </trkpt>
      <trkpt lat="42.58887" lon="2.0093">
        <ele>2113</ele>
        <time>2020-07-25T07:57:07.000Z</time>
      </trkpt>
      <trkpt lat="42.5889" lon="2.00932">
        <ele>2113</ele>
        <time>2020-07-25T07:57:08.000Z</time>
      </trkpt>
      <trkpt lat="42.58893" lon="2.00934">
        <ele>2114</ele>
        <time>2020-07-25T07:57:09.000Z</time>
      </trkpt>
      <trkpt lat="42.58896" lon="2.00936">
        <ele>2114</ele>
        <time>2020-07-25T07:57:10.000Z</time>
      </trkpt>
      <trkpt lat="42.58898" lon="2.00938">
        <ele>2114</ele>
        <time>2020-07-25T07:57:11.000Z</time>
      </trkpt>
      <trkpt lat="42.58901" lon="2.0094">
        <ele>2113</ele>
        <time>2020-07-25T07:57:12.000Z</time>
      </trkpt>
      <trkpt lat="42.58904" lon="2.00942">
        <ele>2114</ele>
        <time>2020-07-25T07:57:13.000Z</time>
      </trkpt>
      <trkpt lat="42.58907" lon="2.00944">
        <ele>2114</ele>
        <time>2020-07-25T07:57:14.000Z</time>
      </trkpt>
      <trkpt lat="42.5891" lon="2.00946">
        <ele>2114</ele>
        <time>2020-07-25T07:57:15.000Z</time>
      </trkpt>
      <trkpt lat="42.58912" lon="2.00948">
        <ele>2115</ele>
        <time>2020-07-25T07:57:16.000Z</time>
      </trkpt>
      <trkpt lat="42.58915" lon="2.00951">
        <ele>2114</ele>
        <time>2020-07-25T07:57:17.000Z</time>
      </trkpt>
      <trkpt lat="42.58917" lon="2.00955">
        <ele>2114</ele>
        <time>2020-07-25T07:57:18.000Z</time>
      </trkpt>
      <trkpt lat="42.58919" lon="2.00959">
        <ele>2114</ele>
        <time>2020-07-25T07:57:19.000Z</time>
      </trkpt>
      <trkpt lat="42.58921" lon="2.00962">
        <ele>2115</ele>
        <time>2020-07-25T07:57:20.000Z</time>
      </trkpt>
      <trkpt lat="42.58923" lon="2.00966">
        <ele>2114</ele>
        <time>2020-07-25T07:57:21.000Z</time>
      </trkpt>
      <trkpt lat="42.58925" lon="2.0097">
        <ele>2115</ele>
        <time>2020-07-25T07:57:22.000Z</time>
      </trkpt>
      <trkpt lat="42.58926" lon="2.00974">
        <ele>2115</ele>
        <time>2020-07-25T07:57:23.000Z</time>
      </trkpt>
      <trkpt lat="42.58928" lon="2.00979">
        <ele>2115</ele>
        <time>2020-07-25T07:57:24.000Z</time>
      </trkpt>
      <trkpt lat="42.58929" lon="2.00984">
        <ele>2116</ele>
        <time>2020-07-25T07:57:25.000Z</time>
      </trkpt>
      <trkpt lat="42.5893" lon="2.00988">
        <ele>2116</ele>
        <time>2020-07-25T07:57:26.000Z</time>
      </trkpt>
      <trkpt lat="42.58931" lon="2.00993">
        <ele>2116</ele>
        <time>2020-07-25T07:57:27.000Z</time>
      </trkpt>
      <trkpt lat="42.58932" lon="2.00998">
        <ele>2117</ele>
        <time>2020-07-25T07:57:28.000Z</time>
      </trkpt>
      <trkpt lat="42.58933" lon="2.01002">
        <ele>2116</ele>
        <time>2020-07-25T07:57:29.000Z</time>
      </trkpt>
      <trkpt lat="42.58934" lon="2.01006">
        <ele>2116</ele>
        <time>2020-07-25T07:57:30.000Z</time>
      </trkpt>
      <trkpt lat="42.58935" lon="2.01011">
        <ele>2117</ele>
        <time>2020-07-25T07:57:31.000Z</time>
      </trkpt>
      <trkpt lat="42.58936" lon="2.01016">
        <ele>2118</ele>
        <time>2020-07-25T07:57:32.000Z</time>
      </trkpt>
      <trkpt lat="42.58936" lon="2.01021">
        <ele>2118</ele>
        <time>2020-07-25T07:57:33.000Z</time>
      </trkpt>
      <trkpt lat="42.58936" lon="2.01026">
        <ele>2118</ele>
        <time>2020-07-25T07:57:34.000Z</time>
      </trkpt>
      <trkpt lat="42.58936" lon="2.01032">
        <ele>2118</ele>
        <time>2020-07-25T07:57:35.000Z</time>
      </trkpt>
      <trkpt lat="42.58936" lon="2.01038">
        <ele>2117</ele>
        <time>2020-07-25T07:57:36.000Z</time>
      </trkpt>
      <trkpt lat="42.58936" lon="2.01043">
        <ele>2118</ele>
        <time>2020-07-25T07:57:37.000Z</time>
      </trkpt>
      <trkpt lat="42.58936" lon="2.01048">
        <ele>2117</ele>
        <time>2020-07-25T07:57:38.000Z</time>
      </trkpt>
      <trkpt lat="42.58936" lon="2.01053">
        <ele>2117</ele>
        <time>2020-07-25T07:57:39.000Z</time>
      </trkpt>
      <trkpt lat="42.58936" lon="2.01058">
        <ele>2117</ele>
        <time>2020-07-25T07:57:40.000Z</time>
      </trkpt>
      <trkpt lat="42.58936" lon="2.01062">
        <ele>2117</ele>
        <time>2020-07-25T07:57:41.000Z</time>
      </trkpt>
      <trkpt lat="42.58936" lon="2.01066">
        <ele>2117</ele>
        <time>2020-07-25T07:57:42.000Z</time>
      </trkpt>
      <trkpt lat="42.58936" lon="2.01071">
        <ele>2118</ele>
        <time>2020-07-25T07:57:43.000Z</time>
      </trkpt>
      <trkpt lat="42.58936" lon="2.01075">
        <ele>2117</ele>
        <time>2020-07-25T07:57:44.000Z</time>
      </trkpt>
      <trkpt lat="42.58936" lon="2.01079">
        <ele>2118</ele>
        <time>2020-07-25T07:57:45.000Z</time>
      </trkpt>
      <trkpt lat="42.58937" lon="2.01083">
        <ele>2118</ele>
        <time>2020-07-25T07:57:46.000Z</time>
      </trkpt>
      <trkpt lat="42.58938" lon="2.01086">
        <ele>2118</ele>
        <time>2020-07-25T07:57:47.000Z</time>
      </trkpt>
      <trkpt lat="42.58939" lon="2.01089">
        <ele>2118</ele>
        <time>2020-07-25T07:57:48.000Z</time>
      </trkpt>
      <trkpt lat="42.5894" lon="2.01092">
        <ele>2117</ele>
        <time>2020-07-25T07:57:49.000Z</time>
      </trkpt>
      <trkpt lat="42.58941" lon="2.01095">
        <ele>2118</ele>
        <time>2020-07-25T07:57:50.000Z</time>
      </trkpt>
      <trkpt lat="42.58943" lon="2.01098">
        <ele>2118</ele>
        <time>2020-07-25T07:57:51.000Z</time>
      </trkpt>
      <trkpt lat="42.58944" lon="2.011">
        <ele>2119</ele>
        <time>2020-07-25T07:57:52.000Z</time>
      </trkpt>
      <trkpt lat="42.58946" lon="2.01102">
        <ele>2120</ele>
        <time>2020-07-25T07:57:53.000Z</time>
      </trkpt>
      <trkpt lat="42.58949" lon="2.01104">
        <ele>2120</ele>
        <time>2020-07-25T07:57:54.000Z</time>
      </trkpt>
      <trkpt lat="42.58951" lon="2.01106">
        <ele>2120</ele>
        <time>2020-07-25T07:57:55.000Z</time>
      </trkpt>
      <trkpt lat="42.58954" lon="2.01109">
        <ele>2120</ele>
        <time>2020-07-25T07:57:56.000Z</time>
      </trkpt>
      <trkpt lat="42.58957" lon="2.01113">
        <ele>2119</ele>
        <time>2020-07-25T07:57:57.000Z</time>
      </trkpt>
      <trkpt lat="42.5896" lon="2.01116">
        <ele>2119</ele>
        <time>2020-07-25T07:57:58.000Z</time>
      </trkpt>
      <trkpt lat="42.58963" lon="2.01119">
        <ele>2119</ele>
        <time>2020-07-25T07:57:59.000Z</time>
      </trkpt>
      <trkpt lat="42.58965" lon="2.01122">
        <ele>2119</ele>
        <time>2020-07-25T07:58:00.000Z</time>
      </trkpt>
      <trkpt lat="42.58968" lon="2.01125">
        <ele>2119</ele>
        <time>2020-07-25T07:58:01.000Z</time>
      </trkpt>
      <trkpt lat="42.5897" lon="2.01128">
        <ele>2118</ele>
        <time>2020-07-25T07:58:02.000Z</time>
      </trkpt>
      <trkpt lat="42.58973" lon="2.01132">
        <ele>2118</ele>
        <time>2020-07-25T07:58:03.000Z</time>
      </trkpt>
      <trkpt lat="42.58976" lon="2.01135">
        <ele>2117</ele>
        <time>2020-07-25T07:58:04.000Z</time>
      </trkpt>
      <trkpt lat="42.58978" lon="2.01138">
        <ele>2117</ele>
        <time>2020-07-25T07:58:05.000Z</time>
      </trkpt>
      <trkpt lat="42.58981" lon="2.01141">
        <ele>2118</ele>
        <time>2020-07-25T07:58:06.000Z</time>
      </trkpt>
      <trkpt lat="42.58983" lon="2.01143">
        <ele>2118</ele>
        <time>2020-07-25T07:58:07.000Z</time>
      </trkpt>
      <trkpt lat="42.58985" lon="2.01146">
        <ele>2118</ele>
        <time>2020-07-25T07:58:08.000Z</time>
      </trkpt>
      <trkpt lat="42.58986" lon="2.0115">
        <ele>2118</ele>
        <time>2020-07-25T07:58:09.000Z</time>
      </trkpt>
      <trkpt lat="42.58988" lon="2.01154">
        <ele>2117</ele>
        <time>2020-07-25T07:58:10.000Z</time>
      </trkpt>
      <trkpt lat="42.58989" lon="2.01158">
        <ele>2117</ele>
        <time>2020-07-25T07:58:11.000Z</time>
      </trkpt>
      <trkpt lat="42.58991" lon="2.01162">
        <ele>2118</ele>
        <time>2020-07-25T07:58:12.000Z</time>
      </trkpt>
      <trkpt lat="42.58992" lon="2.01166">
        <ele>2119</ele>
        <time>2020-07-25T07:58:13.000Z</time>
      </trkpt>
      <trkpt lat="42.58992" lon="2.0117">
        <ele>2118</ele>
        <time>2020-07-25T07:58:14.000Z</time>
      </trkpt>
      <trkpt lat="42.58993" lon="2.01174">
        <ele>2118</ele>
        <time>2020-07-25T07:58:15.000Z</time>
      </trkpt>
      <trkpt lat="42.58995" lon="2.01179">
        <ele>2118</ele>
        <time>2020-07-25T07:58:16.000Z</time>
      </trkpt>
      <trkpt lat="42.58996" lon="2.01183">
        <ele>2118</ele>
        <time>2020-07-25T07:58:17.000Z</time>
      </trkpt>
      <trkpt lat="42.58997" lon="2.01187">
        <ele>2118</ele>
        <time>2020-07-25T07:58:18.000Z</time>
      </trkpt>
      <trkpt lat="42.58998" lon="2.01192">
        <ele>2118</ele>
        <time>2020-07-25T07:58:19.000Z</time>
      </trkpt>
      <trkpt lat="42.58999" lon="2.01196">
        <ele>2119</ele>
        <time>2020-07-25T07:58:20.000Z</time>
      </trkpt>
      <trkpt lat="42.59" lon="2.012">
        <ele>2119</ele>
        <time>2020-07-25T07:58:21.000Z</time>
      </trkpt>
      <trkpt lat="42.59" lon="2.01204">
        <ele>2119</ele>
        <time>2020-07-25T07:58:22.000Z</time>
      </trkpt>
      <trkpt lat="42.59001" lon="2.01208">
        <ele>2119</ele>
        <time>2020-07-25T07:58:23.000Z</time>
      </trkpt>
      <trkpt lat="42.59" lon="2.01212">
        <ele>2118</ele>
        <time>2020-07-25T07:58:24.000Z</time>
      </trkpt>
      <trkpt lat="42.59" lon="2.01217">
        <ele>2119</ele>
        <time>2020-07-25T07:58:25.000Z</time>
      </trkpt>
      <trkpt lat="42.59" lon="2.01221">
        <ele>2118</ele>
        <time>2020-07-25T07:58:26.000Z</time>
      </trkpt>
      <trkpt lat="42.58999" lon="2.01226">
        <ele>2118</ele>
        <time>2020-07-25T07:58:27.000Z</time>
      </trkpt>
      <trkpt lat="42.58998" lon="2.0123">
        <ele>2118</ele>
        <time>2020-07-25T07:58:28.000Z</time>
      </trkpt>
      <trkpt lat="42.58998" lon="2.01234">
        <ele>2118</ele>
        <time>2020-07-25T07:58:29.000Z</time>
      </trkpt>
      <trkpt lat="42.58997" lon="2.01238">
        <ele>2118</ele>
        <time>2020-07-25T07:58:30.000Z</time>
      </trkpt>
      <trkpt lat="42.58996" lon="2.01242">
        <ele>2118</ele>
        <time>2020-07-25T07:58:31.000Z</time>
      </trkpt>
      <trkpt lat="42.58995" lon="2.01246">
        <ele>2118</ele>
        <time>2020-07-25T07:58:32.000Z</time>
      </trkpt>
      <trkpt lat="42.58995" lon="2.0125">
        <ele>2119</ele>
        <time>2020-07-25T07:58:33.000Z</time>
      </trkpt>
      <trkpt lat="42.58994" lon="2.01255">
        <ele>2119</ele>
        <time>2020-07-25T07:58:34.000Z</time>
      </trkpt>
      <trkpt lat="42.58994" lon="2.01259">
        <ele>2119</ele>
        <time>2020-07-25T07:58:35.000Z</time>
      </trkpt>
      <trkpt lat="42.58994" lon="2.01263">
        <ele>2119</ele>
        <time>2020-07-25T07:58:36.000Z</time>
      </trkpt>
      <trkpt lat="42.58993" lon="2.01268">
        <ele>2120</ele>
        <time>2020-07-25T07:58:37.000Z</time>
      </trkpt>
      <trkpt lat="42.58993" lon="2.01272">
        <ele>2119</ele>
        <time>2020-07-25T07:58:38.000Z</time>
      </trkpt>
      <trkpt lat="42.58992" lon="2.01277">
        <ele>2120</ele>
        <time>2020-07-25T07:58:39.000Z</time>
      </trkpt>
      <trkpt lat="42.58992" lon="2.01281">
        <ele>2120</ele>
        <time>2020-07-25T07:58:40.000Z</time>
      </trkpt>
      <trkpt lat="42.58992" lon="2.01285">
        <ele>2121</ele>
        <time>2020-07-25T07:58:41.000Z</time>
      </trkpt>
      <trkpt lat="42.58992" lon="2.0129">
        <ele>2122</ele>
        <time>2020-07-25T07:58:42.000Z</time>
      </trkpt>
      <trkpt lat="42.58992" lon="2.01295">
        <ele>2122</ele>
        <time>2020-07-25T07:58:43.000Z</time>
      </trkpt>
      <trkpt lat="42.58991" lon="2.01299">
        <ele>2122</ele>
        <time>2020-07-25T07:58:44.000Z</time>
      </trkpt>
      <trkpt lat="42.58991" lon="2.01304">
        <ele>2123</ele>
        <time>2020-07-25T07:58:45.000Z</time>
      </trkpt>
      <trkpt lat="42.5899" lon="2.01309">
        <ele>2124</ele>
        <time>2020-07-25T07:58:46.000Z</time>
      </trkpt>
      <trkpt lat="42.5899" lon="2.01313">
        <ele>2124</ele>
        <time>2020-07-25T07:58:47.000Z</time>
      </trkpt>
      <trkpt lat="42.5899" lon="2.01317">
        <ele>2124</ele>
        <time>2020-07-25T07:58:48.000Z</time>
      </trkpt>
      <trkpt lat="42.5899" lon="2.01322">
        <ele>2123</ele>
        <time>2020-07-25T07:58:49.000Z</time>
      </trkpt>
      <trkpt lat="42.5899" lon="2.01326">
        <ele>2123</ele>
        <time>2020-07-25T07:58:50.000Z</time>
      </trkpt>
      <trkpt lat="42.5899" lon="2.01331">
        <ele>2123</ele>
        <time>2020-07-25T07:58:51.000Z</time>
      </trkpt>
      <trkpt lat="42.5899" lon="2.01336">
        <ele>2122</ele>
        <time>2020-07-25T07:58:52.000Z</time>
      </trkpt>
      <trkpt lat="42.5899" lon="2.01341">
        <ele>2122</ele>
        <time>2020-07-25T07:58:53.000Z</time>
      </trkpt>
      <trkpt lat="42.5899" lon="2.01346">
        <ele>2122</ele>
        <time>2020-07-25T07:58:54.000Z</time>
      </trkpt>
      <trkpt lat="42.5899" lon="2.01351">
        <ele>2122</ele>
        <time>2020-07-25T07:58:55.000Z</time>
      </trkpt>
      <trkpt lat="42.5899" lon="2.01356">
        <ele>2122</ele>
        <time>2020-07-25T07:58:56.000Z</time>
      </trkpt>
      <trkpt lat="42.5899" lon="2.01361">
        <ele>2122</ele>
        <time>2020-07-25T07:58:57.000Z</time>
      </trkpt>
      <trkpt lat="42.5899" lon="2.01366">
        <ele>2122</ele>
        <time>2020-07-25T07:58:58.000Z</time>
      </trkpt>
      <trkpt lat="42.5899" lon="2.01371">
        <ele>2122</ele>
        <time>2020-07-25T07:58:59.000Z</time>
      </trkpt>
      <trkpt lat="42.5899" lon="2.01376">
        <ele>2122</ele>
        <time>2020-07-25T07:59:00.000Z</time>
      </trkpt>
      <trkpt lat="42.5899" lon="2.01382">
        <ele>2122</ele>
        <time>2020-07-25T07:59:01.000Z</time>
      </trkpt>
      <trkpt lat="42.5899" lon="2.01387">
        <ele>2122</ele>
        <time>2020-07-25T07:59:02.000Z</time>
      </trkpt>
      <trkpt lat="42.58991" lon="2.01391">
        <ele>2121</ele>
        <time>2020-07-25T07:59:03.000Z</time>
      </trkpt>
      <trkpt lat="42.58992" lon="2.01396">
        <ele>2122</ele>
        <time>2020-07-25T07:59:04.000Z</time>
      </trkpt>
      <trkpt lat="42.58992" lon="2.01401">
        <ele>2122</ele>
        <time>2020-07-25T07:59:05.000Z</time>
      </trkpt>
      <trkpt lat="42.58993" lon="2.01406">
        <ele>2122</ele>
        <time>2020-07-25T07:59:06.000Z</time>
      </trkpt>
      <trkpt lat="42.58993" lon="2.0141">
        <ele>2121</ele>
        <time>2020-07-25T07:59:07.000Z</time>
      </trkpt>
      <trkpt lat="42.58994" lon="2.01415">
        <ele>2121</ele>
        <time>2020-07-25T07:59:08.000Z</time>
      </trkpt>
      <trkpt lat="42.58994" lon="2.0142">
        <ele>2121</ele>
        <time>2020-07-25T07:59:09.000Z</time>
      </trkpt>
      <trkpt lat="42.58994" lon="2.01424">
        <ele>2120</ele>
        <time>2020-07-25T07:59:10.000Z</time>
      </trkpt>
      <trkpt lat="42.58995" lon="2.01428">
        <ele>2120</ele>
        <time>2020-07-25T07:59:11.000Z</time>
      </trkpt>
      <trkpt lat="42.58995" lon="2.01433">
        <ele>2119</ele>
        <time>2020-07-25T07:59:12.000Z</time>
      </trkpt>
      <trkpt lat="42.58996" lon="2.01437">
        <ele>2118</ele>
        <time>2020-07-25T07:59:13.000Z</time>
      </trkpt>
      <trkpt lat="42.58996" lon="2.01442">
        <ele>2118</ele>
        <time>2020-07-25T07:59:14.000Z</time>
      </trkpt>
      <trkpt lat="42.58997" lon="2.01446">
        <ele>2117</ele>
        <time>2020-07-25T07:59:15.000Z</time>
      </trkpt>
      <trkpt lat="42.58996" lon="2.01451">
        <ele>2116</ele>
        <time>2020-07-25T07:59:16.000Z</time>
      </trkpt>
      <trkpt lat="42.58995" lon="2.01456">
        <ele>2116</ele>
        <time>2020-07-25T07:59:17.000Z</time>
      </trkpt>
      <trkpt lat="42.58994" lon="2.01461">
        <ele>2115</ele>
        <time>2020-07-25T07:59:18.000Z</time>
      </trkpt>
      <trkpt lat="42.58993" lon="2.01466">
        <ele>2115</ele>
        <time>2020-07-25T07:59:19.000Z</time>
      </trkpt>
      <trkpt lat="42.58993" lon="2.01471">
        <ele>2114</ele>
        <time>2020-07-25T07:59:20.000Z</time>
      </trkpt>
      <trkpt lat="42.58992" lon="2.01476">
        <ele>2114</ele>
        <time>2020-07-25T07:59:21.000Z</time>
      </trkpt>
      <trkpt lat="42.58991" lon="2.01481">
        <ele>2113</ele>
        <time>2020-07-25T07:59:22.000Z</time>
      </trkpt>
      <trkpt lat="42.58989" lon="2.01486">
        <ele>2112</ele>
        <time>2020-07-25T07:59:23.000Z</time>
      </trkpt>
      <trkpt lat="42.58988" lon="2.01491">
        <ele>2112</ele>
        <time>2020-07-25T07:59:24.000Z</time>
      </trkpt>
      <trkpt lat="42.58986" lon="2.01496">
        <ele>2112</ele>
        <time>2020-07-25T07:59:25.000Z</time>
      </trkpt>
      <trkpt lat="42.58985" lon="2.01501">
        <ele>2112</ele>
        <time>2020-07-25T07:59:26.000Z</time>
      </trkpt>
      <trkpt lat="42.58984" lon="2.01506">
        <ele>2111</ele>
        <time>2020-07-25T07:59:27.000Z</time>
      </trkpt>
      <trkpt lat="42.58983" lon="2.01511">
        <ele>2110</ele>
        <time>2020-07-25T07:59:28.000Z</time>
      </trkpt>
      <trkpt lat="42.58981" lon="2.01516">
        <ele>2111</ele>
        <time>2020-07-25T07:59:29.000Z</time>
      </trkpt>
      <trkpt lat="42.5898" lon="2.0152">
        <ele>2110</ele>
        <time>2020-07-25T07:59:30.000Z</time>
      </trkpt>
      <trkpt lat="42.58979" lon="2.01525">
        <ele>2110</ele>
        <time>2020-07-25T07:59:31.000Z</time>
      </trkpt>
      <trkpt lat="42.58978" lon="2.0153">
        <ele>2110</ele>
        <time>2020-07-25T07:59:32.000Z</time>
      </trkpt>
      <trkpt lat="42.58977" lon="2.01535">
        <ele>2110</ele>
        <time>2020-07-25T07:59:33.000Z</time>
      </trkpt>
      <trkpt lat="42.58977" lon="2.0154">
        <ele>2110</ele>
        <time>2020-07-25T07:59:34.000Z</time>
      </trkpt>
      <trkpt lat="42.58976" lon="2.01545">
        <ele>2109</ele>
        <time>2020-07-25T07:59:35.000Z</time>
      </trkpt>
      <trkpt lat="42.58975" lon="2.0155">
        <ele>2109</ele>
        <time>2020-07-25T07:59:36.000Z</time>
      </trkpt>
      <trkpt lat="42.58974" lon="2.01555">
        <ele>2110</ele>
        <time>2020-07-25T07:59:37.000Z</time>
      </trkpt>
      <trkpt lat="42.58973" lon="2.01559">
        <ele>2110</ele>
        <time>2020-07-25T07:59:38.000Z</time>
      </trkpt>
      <trkpt lat="42.58972" lon="2.01564">
        <ele>2110</ele>
        <time>2020-07-25T07:59:39.000Z</time>
      </trkpt>
      <trkpt lat="42.58972" lon="2.01568">
        <ele>2111</ele>
        <time>2020-07-25T07:59:40.000Z</time>
      </trkpt>
      <trkpt lat="42.58971" lon="2.01571">
        <ele>2111</ele>
        <time>2020-07-25T07:59:41.000Z</time>
      </trkpt>
      <trkpt lat="42.58971" lon="2.01575">
        <ele>2111</ele>
        <time>2020-07-25T07:59:42.000Z</time>
      </trkpt>
      <trkpt lat="42.58971" lon="2.01578">
        <ele>2111</ele>
        <time>2020-07-25T07:59:43.000Z</time>
      </trkpt>
      <trkpt lat="42.5897" lon="2.01581">
        <ele>2111</ele>
        <time>2020-07-25T07:59:44.000Z</time>
      </trkpt>
      <trkpt lat="42.58969" lon="2.01585">
        <ele>2111</ele>
        <time>2020-07-25T07:59:45.000Z</time>
      </trkpt>
      <trkpt lat="42.58968" lon="2.01589">
        <ele>2111</ele>
        <time>2020-07-25T07:59:46.000Z</time>
      </trkpt>
      <trkpt lat="42.58967" lon="2.01593">
        <ele>2111</ele>
        <time>2020-07-25T07:59:47.000Z</time>
      </trkpt>
      <trkpt lat="42.58966" lon="2.01597">
        <ele>2111</ele>
        <time>2020-07-25T07:59:48.000Z</time>
      </trkpt>
      <trkpt lat="42.58965" lon="2.016">
        <ele>2110</ele>
        <time>2020-07-25T07:59:49.000Z</time>
      </trkpt>
      <trkpt lat="42.58964" lon="2.01604">
        <ele>2110</ele>
        <time>2020-07-25T07:59:50.000Z</time>
      </trkpt>
      <trkpt lat="42.58962" lon="2.01607">
        <ele>2109</ele>
        <time>2020-07-25T07:59:51.000Z</time>
      </trkpt>
      <trkpt lat="42.5896" lon="2.0161">
        <ele>2109</ele>
        <time>2020-07-25T07:59:52.000Z</time>
      </trkpt>
      <trkpt lat="42.58959" lon="2.01613">
        <ele>2109</ele>
        <time>2020-07-25T07:59:53.000Z</time>
      </trkpt>
      <trkpt lat="42.58957" lon="2.01616">
        <ele>2108</ele>
        <time>2020-07-25T07:59:54.000Z</time>
      </trkpt>
      <trkpt lat="42.58956" lon="2.0162">
        <ele>2108</ele>
        <time>2020-07-25T07:59:55.000Z</time>
      </trkpt>
      <trkpt lat="42.58955" lon="2.01623">
        <ele>2108</ele>
        <time>2020-07-25T07:59:56.000Z</time>
      </trkpt>
      <trkpt lat="42.58954" lon="2.01627">
        <ele>2108</ele>
        <time>2020-07-25T07:59:57.000Z</time>
      </trkpt>
      <trkpt lat="42.58952" lon="2.0163">
        <ele>2108</ele>
        <time>2020-07-25T07:59:58.000Z</time>
      </trkpt>
      <trkpt lat="42.58951" lon="2.01634">
        <ele>2108</ele>
        <time>2020-07-25T07:59:59.000Z</time>
      </trkpt>
      <trkpt lat="42.58949" lon="2.01637">
        <ele>2108</ele>
        <time>2020-07-25T08:00:00.000Z</time>
      </trkpt>
      <trkpt lat="42.58948" lon="2.0164">
        <ele>2108</ele>
        <time>2020-07-25T08:00:01.000Z</time>
      </trkpt>
      <trkpt lat="42.58946" lon="2.01643">
        <ele>2107</ele>
        <time>2020-07-25T08:00:02.000Z</time>
      </trkpt>
      <trkpt lat="42.58944" lon="2.01646">
        <ele>2107</ele>
        <time>2020-07-25T08:00:03.000Z</time>
      </trkpt>
      <trkpt lat="42.58943" lon="2.01649">
        <ele>2107</ele>
        <time>2020-07-25T08:00:04.000Z</time>
      </trkpt>
      <trkpt lat="42.58941" lon="2.01652">
        <ele>2108</ele>
        <time>2020-07-25T08:00:05.000Z</time>
      </trkpt>
      <trkpt lat="42.5894" lon="2.01654">
        <ele>2108</ele>
        <time>2020-07-25T08:00:06.000Z</time>
      </trkpt>
      <trkpt lat="42.58939" lon="2.01657">
        <ele>2107</ele>
        <time>2020-07-25T08:00:07.000Z</time>
      </trkpt>
      <trkpt lat="42.58937" lon="2.0166">
        <ele>2106</ele>
        <time>2020-07-25T08:00:08.000Z</time>
      </trkpt>
      <trkpt lat="42.58936" lon="2.01662">
        <ele>2105</ele>
        <time>2020-07-25T08:00:09.000Z</time>
      </trkpt>
      <trkpt lat="42.58934" lon="2.01664">
        <ele>2105</ele>
        <time>2020-07-25T08:00:10.000Z</time>
      </trkpt>
      <trkpt lat="42.58933" lon="2.01665">
        <ele>2104</ele>
        <time>2020-07-25T08:00:11.000Z</time>
      </trkpt>
      <trkpt lat="42.58932" lon="2.01667">
        <ele>2104</ele>
        <time>2020-07-25T08:00:12.000Z</time>
      </trkpt>
      <trkpt lat="42.58931" lon="2.01669">
        <ele>2103</ele>
        <time>2020-07-25T08:00:13.000Z</time>
      </trkpt>
      <trkpt lat="42.5893" lon="2.01672">
        <ele>2103</ele>
        <time>2020-07-25T08:00:14.000Z</time>
      </trkpt>
      <trkpt lat="42.58929" lon="2.01675">
        <ele>2102</ele>
        <time>2020-07-25T08:00:15.000Z</time>
      </trkpt>
      <trkpt lat="42.58929" lon="2.01678">
        <ele>2102</ele>
        <time>2020-07-25T08:00:16.000Z</time>
      </trkpt>
      <trkpt lat="42.58928" lon="2.0168">
        <ele>2101</ele>
        <time>2020-07-25T08:00:17.000Z</time>
      </trkpt>
      <trkpt lat="42.58928" lon="2.01682">
        <ele>2101</ele>
        <time>2020-07-25T08:00:18.000Z</time>
      </trkpt>
      <trkpt lat="42.58928" lon="2.01684">
        <ele>2099</ele>
        <time>2020-07-25T08:00:19.000Z</time>
      </trkpt>
      <trkpt lat="42.58927" lon="2.01687">
        <ele>2099</ele>
        <time>2020-07-25T08:00:20.000Z</time>
      </trkpt>
      <trkpt lat="42.58926" lon="2.0169">
        <ele>2098</ele>
        <time>2020-07-25T08:00:21.000Z</time>
      </trkpt>
      <trkpt lat="42.58925" lon="2.01692">
        <ele>2098</ele>
        <time>2020-07-25T08:00:22.000Z</time>
      </trkpt>
      <trkpt lat="42.58925" lon="2.01693">
        <ele>2097</ele>
        <time>2020-07-25T08:00:23.000Z</time>
      </trkpt>
      <trkpt lat="42.58924" lon="2.01695">
        <ele>2096</ele>
        <time>2020-07-25T08:00:24.000Z</time>
      </trkpt>
      <trkpt lat="42.58925" lon="2.01697">
        <ele>2096</ele>
        <time>2020-07-25T08:00:25.000Z</time>
      </trkpt>
      <trkpt lat="42.58926" lon="2.01698">
        <ele>2096</ele>
        <time>2020-07-25T08:00:26.000Z</time>
      </trkpt>
      <trkpt lat="42.58927" lon="2.017">
        <ele>2096</ele>
        <time>2020-07-25T08:00:27.000Z</time>
      </trkpt>
      <trkpt lat="42.58928" lon="2.01701">
        <ele>2095</ele>
        <time>2020-07-25T08:00:28.000Z</time>
      </trkpt>
      <trkpt lat="42.58929" lon="2.01702">
        <ele>2095</ele>
        <time>2020-07-25T08:00:29.000Z</time>
      </trkpt>
      <trkpt lat="42.5893" lon="2.01704">
        <ele>2095</ele>
        <time>2020-07-25T08:00:30.000Z</time>
      </trkpt>
      <trkpt lat="42.58931" lon="2.01705">
        <ele>2095</ele>
        <time>2020-07-25T08:00:31.000Z</time>
      </trkpt>
      <trkpt lat="42.58932" lon="2.01706">
        <ele>2094</ele>
        <time>2020-07-25T08:00:32.000Z</time>
      </trkpt>
      <trkpt lat="42.58932" lon="2.01707">
        <ele>2095</ele>
        <time>2020-07-25T08:00:33.000Z</time>
      </trkpt>
      <trkpt lat="42.58933" lon="2.01707">
        <ele>2094</ele>
        <time>2020-07-25T08:00:34.000Z</time>
      </trkpt>
      <trkpt lat="42.58934" lon="2.01707">
        <ele>2094</ele>
        <time>2020-07-25T08:00:35.000Z</time>
      </trkpt>
      <trkpt lat="42.58935" lon="2.01708">
        <ele>2094</ele>
        <time>2020-07-25T08:00:36.000Z</time>
      </trkpt>
      <trkpt lat="42.58936" lon="2.01709">
        <ele>2093</ele>
        <time>2020-07-25T08:00:37.000Z</time>
      </trkpt>
      <trkpt lat="42.58937" lon="2.01711">
        <ele>2093</ele>
        <time>2020-07-25T08:00:38.000Z</time>
      </trkpt>
      <trkpt lat="42.58937" lon="2.01712">
        <ele>2092</ele>
        <time>2020-07-25T08:00:39.000Z</time>
      </trkpt>
      <trkpt lat="42.58937" lon="2.01714">
        <ele>2093</ele>
        <time>2020-07-25T08:00:40.000Z</time>
      </trkpt>
      <trkpt lat="42.58937" lon="2.01715">
        <ele>2092</ele>
        <time>2020-07-25T08:00:41.000Z</time>
      </trkpt>
      <trkpt lat="42.58937" lon="2.01716">
        <ele>2092</ele>
        <time>2020-07-25T08:00:42.000Z</time>
      </trkpt>
      <trkpt lat="42.58936" lon="2.01718">
        <ele>2091</ele>
        <time>2020-07-25T08:00:43.000Z</time>
      </trkpt>
      <trkpt lat="42.58936" lon="2.0172">
        <ele>2092</ele>
        <time>2020-07-25T08:00:44.000Z</time>
      </trkpt>
      <trkpt lat="42.58936" lon="2.01722">
        <ele>2091</ele>
        <time>2020-07-25T08:00:45.000Z</time>
      </trkpt>
      <trkpt lat="42.58936" lon="2.01723">
        <ele>2091</ele>
        <time>2020-07-25T08:00:46.000Z</time>
      </trkpt>
      <trkpt lat="42.58936" lon="2.01725">
        <ele>2090</ele>
        <time>2020-07-25T08:00:47.000Z</time>
      </trkpt>
      <trkpt lat="42.58936" lon="2.01727">
        <ele>2090</ele>
        <time>2020-07-25T08:00:48.000Z</time>
      </trkpt>
      <trkpt lat="42.58936" lon="2.01729">
        <ele>2089</ele>
        <time>2020-07-25T08:00:49.000Z</time>
      </trkpt>
      <trkpt lat="42.58935" lon="2.01731">
        <ele>2090</ele>
        <time>2020-07-25T08:00:50.000Z</time>
      </trkpt>
      <trkpt lat="42.58934" lon="2.01734">
        <ele>2091</ele>
        <time>2020-07-25T08:00:51.000Z</time>
      </trkpt>
      <trkpt lat="42.58933" lon="2.01737">
        <ele>2091</ele>
        <time>2020-07-25T08:00:52.000Z</time>
      </trkpt>
      <trkpt lat="42.58932" lon="2.0174">
        <ele>2091</ele>
        <time>2020-07-25T08:00:53.000Z</time>
      </trkpt>
      <trkpt lat="42.58931" lon="2.01743">
        <ele>2091</ele>
        <time>2020-07-25T08:00:54.000Z</time>
      </trkpt>
      <trkpt lat="42.58931" lon="2.01746">
        <ele>2091</ele>
        <time>2020-07-25T08:00:55.000Z</time>
      </trkpt>
      <trkpt lat="42.58931" lon="2.01749">
        <ele>2091</ele>
        <time>2020-07-25T08:00:56.000Z</time>
      </trkpt>
      <trkpt lat="42.58931" lon="2.01751">
        <ele>2091</ele>
        <time>2020-07-25T08:00:57.000Z</time>
      </trkpt>
      <trkpt lat="42.58931" lon="2.01754">
        <ele>2092</ele>
        <time>2020-07-25T08:00:58.000Z</time>
      </trkpt>
      <trkpt lat="42.58931" lon="2.01757">
        <ele>2092</ele>
        <time>2020-07-25T08:00:59.000Z</time>
      </trkpt>
      <trkpt lat="42.58931" lon="2.0176">
        <ele>2092</ele>
        <time>2020-07-25T08:01:00.000Z</time>
      </trkpt>
      <trkpt lat="42.58931" lon="2.01763">
        <ele>2091</ele>
        <time>2020-07-25T08:01:01.000Z</time>
      </trkpt>
      <trkpt lat="42.58931" lon="2.01766">
        <ele>2092</ele>
        <time>2020-07-25T08:01:02.000Z</time>
      </trkpt>
      <trkpt lat="42.58931" lon="2.0177">
        <ele>2092</ele>
        <time>2020-07-25T08:01:03.000Z</time>
      </trkpt>
      <trkpt lat="42.5893" lon="2.01773">
        <ele>2092</ele>
        <time>2020-07-25T08:01:04.000Z</time>
      </trkpt>
      <trkpt lat="42.58929" lon="2.01777">
        <ele>2092</ele>
        <time>2020-07-25T08:01:05.000Z</time>
      </trkpt>
      <trkpt lat="42.58929" lon="2.0178">
        <ele>2093</ele>
        <time>2020-07-25T08:01:06.000Z</time>
      </trkpt>
      <trkpt lat="42.58929" lon="2.01783">
        <ele>2095</ele>
        <time>2020-07-25T08:01:07.000Z</time>
      </trkpt>
      <trkpt lat="42.5893" lon="2.01785">
        <ele>2096</ele>
        <time>2020-07-25T08:01:08.000Z</time>
      </trkpt>
      <trkpt lat="42.5893" lon="2.01788">
        <ele>2096</ele>
        <time>2020-07-25T08:01:09.000Z</time>
      </trkpt>
      <trkpt lat="42.58929" lon="2.01791">
        <ele>2097</ele>
        <time>2020-07-25T08:01:10.000Z</time>
      </trkpt>
      <trkpt lat="42.58929" lon="2.01794">
        <ele>2098</ele>
        <time>2020-07-25T08:01:11.000Z</time>
      </trkpt>
      <trkpt lat="42.58928" lon="2.01799">
        <ele>2097</ele>
        <time>2020-07-25T08:01:12.000Z</time>
      </trkpt>
      <trkpt lat="42.58929" lon="2.01805">
        <ele>2094</ele>
        <time>2020-07-25T08:01:13.000Z</time>
      </trkpt>
      <trkpt lat="42.5893" lon="2.0181">
        <ele>2093</ele>
        <time>2020-07-25T08:01:14.000Z</time>
      </trkpt>
      <trkpt lat="42.5893" lon="2.01815">
        <ele>2093</ele>
        <time>2020-07-25T08:01:15.000Z</time>
      </trkpt>
      <trkpt lat="42.5893" lon="2.01819">
        <ele>2093</ele>
        <time>2020-07-25T08:01:16.000Z</time>
      </trkpt>
      <trkpt lat="42.58929" lon="2.01823">
        <ele>2093</ele>
        <time>2020-07-25T08:01:17.000Z</time>
      </trkpt>
      <trkpt lat="42.58928" lon="2.01826">
        <ele>2092</ele>
        <time>2020-07-25T08:01:18.000Z</time>
      </trkpt>
      <trkpt lat="42.58928" lon="2.01829">
        <ele>2093</ele>
        <time>2020-07-25T08:01:19.000Z</time>
      </trkpt>
      <trkpt lat="42.58927" lon="2.01832">
        <ele>2093</ele>
        <time>2020-07-25T08:01:20.000Z</time>
      </trkpt>
      <trkpt lat="42.58927" lon="2.01834">
        <ele>2093</ele>
        <time>2020-07-25T08:01:21.000Z</time>
      </trkpt>
      <trkpt lat="42.58926" lon="2.01836">
        <ele>2093</ele>
        <time>2020-07-25T08:01:22.000Z</time>
      </trkpt>
      <trkpt lat="42.58925" lon="2.01837">
        <ele>2092</ele>
        <time>2020-07-25T08:01:23.000Z</time>
      </trkpt>
      <trkpt lat="42.58924" lon="2.01839">
        <ele>2091</ele>
        <time>2020-07-25T08:01:24.000Z</time>
      </trkpt>
      <trkpt lat="42.58922" lon="2.01842">
        <ele>2092</ele>
        <time>2020-07-25T08:01:25.000Z</time>
      </trkpt>
      <trkpt lat="42.5892" lon="2.01845">
        <ele>2091</ele>
        <time>2020-07-25T08:01:26.000Z</time>
      </trkpt>
      <trkpt lat="42.58919" lon="2.01847">
        <ele>2090</ele>
        <time>2020-07-25T08:01:27.000Z</time>
      </trkpt>
      <trkpt lat="42.58917" lon="2.0185">
        <ele>2090</ele>
        <time>2020-07-25T08:01:28.000Z</time>
      </trkpt>
      <trkpt lat="42.58917" lon="2.01853">
        <ele>2090</ele>
        <time>2020-07-25T08:01:29.000Z</time>
      </trkpt>
      <trkpt lat="42.58916" lon="2.01856">
        <ele>2089</ele>
        <time>2020-07-25T08:01:30.000Z</time>
      </trkpt>
      <trkpt lat="42.58915" lon="2.01859">
        <ele>2089</ele>
        <time>2020-07-25T08:01:31.000Z</time>
      </trkpt>
      <trkpt lat="42.58913" lon="2.01862">
        <ele>2088</ele>
        <time>2020-07-25T08:01:32.000Z</time>
      </trkpt>
      <trkpt lat="42.58912" lon="2.01864">
        <ele>2088</ele>
        <time>2020-07-25T08:01:33.000Z</time>
      </trkpt>
      <trkpt lat="42.58911" lon="2.01865">
        <ele>2087</ele>
        <time>2020-07-25T08:01:34.000Z</time>
      </trkpt>
      <trkpt lat="42.5891" lon="2.01866">
        <ele>2089</ele>
        <time>2020-07-25T08:01:35.000Z</time>
      </trkpt>
      <trkpt lat="42.58909" lon="2.01867">
        <ele>2090</ele>
        <time>2020-07-25T08:01:36.000Z</time>
      </trkpt>
      <trkpt lat="42.58908" lon="2.01868">
        <ele>2088</ele>
        <time>2020-07-25T08:01:37.000Z</time>
      </trkpt>
      <trkpt lat="42.58908" lon="2.01869">
        <ele>2087</ele>
        <time>2020-07-25T08:01:38.000Z</time>
      </trkpt>
      <trkpt lat="42.58908" lon="2.0187">
        <ele>2087</ele>
        <time>2020-07-25T08:01:39.000Z</time>
      </trkpt>
      <trkpt lat="42.58908" lon="2.01872">
        <ele>2087</ele>
        <time>2020-07-25T08:01:40.000Z</time>
      </trkpt>
      <trkpt lat="42.58908" lon="2.01873">
        <ele>2086</ele>
        <time>2020-07-25T08:01:41.000Z</time>
      </trkpt>
      <trkpt lat="42.58907" lon="2.01874">
        <ele>2086</ele>
        <time>2020-07-25T08:01:42.000Z</time>
      </trkpt>
      <trkpt lat="42.58906" lon="2.01876">
        <ele>2085</ele>
        <time>2020-07-25T08:01:43.000Z</time>
      </trkpt>
      <trkpt lat="42.58904" lon="2.01877">
        <ele>2085</ele>
        <time>2020-07-25T08:01:44.000Z</time>
      </trkpt>
      <trkpt lat="42.58903" lon="2.01879">
        <ele>2085</ele>
        <time>2020-07-25T08:01:45.000Z</time>
      </trkpt>
      <trkpt lat="42.58902" lon="2.0188">
        <ele>2085</ele>
        <time>2020-07-25T08:01:46.000Z</time>
      </trkpt>
      <trkpt lat="42.58901" lon="2.01882">
        <ele>2085</ele>
        <time>2020-07-25T08:01:47.000Z</time>
      </trkpt>
      <trkpt lat="42.58901" lon="2.01885">
        <ele>2086</ele>
        <time>2020-07-25T08:01:48.000Z</time>
      </trkpt>
      <trkpt lat="42.58899" lon="2.01889">
        <ele>2085</ele>
        <time>2020-07-25T08:01:49.000Z</time>
      </trkpt>
      <trkpt lat="42.58898" lon="2.01893">
        <ele>2085</ele>
        <time>2020-07-25T08:01:50.000Z</time>
      </trkpt>
      <trkpt lat="42.58896" lon="2.01897">
        <ele>2084</ele>
        <time>2020-07-25T08:01:51.000Z</time>
      </trkpt>
      <trkpt lat="42.58895" lon="2.019">
        <ele>2083</ele>
        <time>2020-07-25T08:01:52.000Z</time>
      </trkpt>
      <trkpt lat="42.58893" lon="2.01903">
        <ele>2083</ele>
        <time>2020-07-25T08:01:53.000Z</time>
      </trkpt>
      <trkpt lat="42.58891" lon="2.01905">
        <ele>2083</ele>
        <time>2020-07-25T08:01:54.000Z</time>
      </trkpt>
      <trkpt lat="42.5889" lon="2.01906">
        <ele>2082</ele>
        <time>2020-07-25T08:01:55.000Z</time>
      </trkpt>
      <trkpt lat="42.58888" lon="2.01907">
        <ele>2081</ele>
        <time>2020-07-25T08:01:56.000Z</time>
      </trkpt>
      <trkpt lat="42.58886" lon="2.01909">
        <ele>2081</ele>
        <time>2020-07-25T08:01:57.000Z</time>
      </trkpt>
      <trkpt lat="42.58884" lon="2.0191">
        <ele>2080</ele>
        <time>2020-07-25T08:01:58.000Z</time>
      </trkpt>
      <trkpt lat="42.58882" lon="2.01911">
        <ele>2080</ele>
        <time>2020-07-25T08:01:59.000Z</time>
      </trkpt>
      <trkpt lat="42.58881" lon="2.01913">
        <ele>2079</ele>
        <time>2020-07-25T08:02:00.000Z</time>
      </trkpt>
      <trkpt lat="42.58879" lon="2.01915">
        <ele>2078</ele>
        <time>2020-07-25T08:02:01.000Z</time>
      </trkpt>
      <trkpt lat="42.58878" lon="2.01917">
        <ele>2078</ele>
        <time>2020-07-25T08:02:02.000Z</time>
      </trkpt>
      <trkpt lat="42.58876" lon="2.0192">
        <ele>2077</ele>
        <time>2020-07-25T08:02:03.000Z</time>
      </trkpt>
      <trkpt lat="42.58874" lon="2.01922">
        <ele>2077</ele>
        <time>2020-07-25T08:02:04.000Z</time>
      </trkpt>
      <trkpt lat="42.58872" lon="2.01924">
        <ele>2076</ele>
        <time>2020-07-25T08:02:05.000Z</time>
      </trkpt>
      <trkpt lat="42.58871" lon="2.01925">
        <ele>2076</ele>
        <time>2020-07-25T08:02:06.000Z</time>
      </trkpt>
      <trkpt lat="42.5887" lon="2.01925">
        <ele>2076</ele>
        <time>2020-07-25T08:02:07.000Z</time>
      </trkpt>
      <trkpt lat="42.58868" lon="2.01926">
        <ele>2076</ele>
        <time>2020-07-25T08:02:08.000Z</time>
      </trkpt>
      <trkpt lat="42.58867" lon="2.01927">
        <ele>2076</ele>
        <time>2020-07-25T08:02:09.000Z</time>
      </trkpt>
      <trkpt lat="42.58867" lon="2.01927">
        <ele>2078</ele>
        <time>2020-07-25T08:02:10.000Z</time>
      </trkpt>
      <trkpt lat="42.58866" lon="2.01928">
        <ele>2079</ele>
        <time>2020-07-25T08:02:11.000Z</time>
      </trkpt>
      <trkpt lat="42.58866" lon="2.01928">
        <ele>2078</ele>
        <time>2020-07-25T08:02:12.000Z</time>
      </trkpt>
      <trkpt lat="42.58866" lon="2.01929">
        <ele>2077</ele>
        <time>2020-07-25T08:02:13.000Z</time>
      </trkpt>
      <trkpt lat="42.58866" lon="2.0193">
        <ele>2077</ele>
        <time>2020-07-25T08:02:14.000Z</time>
      </trkpt>
      <trkpt lat="42.58866" lon="2.01932">
        <ele>2077</ele>
        <time>2020-07-25T08:02:15.000Z</time>
      </trkpt>
      <trkpt lat="42.58865" lon="2.01934">
        <ele>2078</ele>
        <time>2020-07-25T08:02:16.000Z</time>
      </trkpt>
      <trkpt lat="42.58865" lon="2.01936">
        <ele>2079</ele>
        <time>2020-07-25T08:02:17.000Z</time>
      </trkpt>
      <trkpt lat="42.58864" lon="2.01938">
        <ele>2079</ele>
        <time>2020-07-25T08:02:18.000Z</time>
      </trkpt>
      <trkpt lat="42.58864" lon="2.01939">
        <ele>2079</ele>
        <time>2020-07-25T08:02:19.000Z</time>
      </trkpt>
      <trkpt lat="42.58863" lon="2.01941">
        <ele>2079</ele>
        <time>2020-07-25T08:02:20.000Z</time>
      </trkpt>
      <trkpt lat="42.58863" lon="2.01942">
        <ele>2078</ele>
        <time>2020-07-25T08:02:21.000Z</time>
      </trkpt>
      <trkpt lat="42.58862" lon="2.01944">
        <ele>2078</ele>
        <time>2020-07-25T08:02:22.000Z</time>
      </trkpt>
      <trkpt lat="42.5886" lon="2.01945">
        <ele>2076</ele>
        <time>2020-07-25T08:02:23.000Z</time>
      </trkpt>
      <trkpt lat="42.58859" lon="2.01946">
        <ele>2076</ele>
        <time>2020-07-25T08:02:24.000Z</time>
      </trkpt>
      <trkpt lat="42.58858" lon="2.01947">
        <ele>2075</ele>
        <time>2020-07-25T08:02:25.000Z</time>
      </trkpt>
      <trkpt lat="42.58856" lon="2.01947">
        <ele>2073</ele>
        <time>2020-07-25T08:02:26.000Z</time>
      </trkpt>
      <trkpt lat="42.58855" lon="2.01948">
        <ele>2073</ele>
        <time>2020-07-25T08:02:27.000Z</time>
      </trkpt>
      <trkpt lat="42.58854" lon="2.01948">
        <ele>2072</ele>
        <time>2020-07-25T08:02:28.000Z</time>
      </trkpt>
      <trkpt lat="42.58854" lon="2.01949">
        <ele>2071</ele>
        <time>2020-07-25T08:02:29.000Z</time>
      </trkpt>
      <trkpt lat="42.58853" lon="2.0195">
        <ele>2071</ele>
        <time>2020-07-25T08:02:30.000Z</time>
      </trkpt>
      <trkpt lat="42.58852" lon="2.01951">
        <ele>2071</ele>
        <time>2020-07-25T08:02:31.000Z</time>
      </trkpt>
      <trkpt lat="42.58851" lon="2.01951">
        <ele>2070</ele>
        <time>2020-07-25T08:02:32.000Z</time>
      </trkpt>
      <trkpt lat="42.58851" lon="2.01951">
        <ele>2069</ele>
        <time>2020-07-25T08:02:33.000Z</time>
      </trkpt>
      <trkpt lat="42.5885" lon="2.01951">
        <ele>2067</ele>
        <time>2020-07-25T08:02:34.000Z</time>
      </trkpt>
      <trkpt lat="42.58849" lon="2.01951">
        <ele>2067</ele>
        <time>2020-07-25T08:02:35.000Z</time>
      </trkpt>
      <trkpt lat="42.58849" lon="2.01951">
        <ele>2067</ele>
        <time>2020-07-25T08:02:36.000Z</time>
      </trkpt>
      <trkpt lat="42.58848" lon="2.01952">
        <ele>2068</ele>
        <time>2020-07-25T08:02:37.000Z</time>
      </trkpt>
      <trkpt lat="42.58846" lon="2.01962">
        <ele>2072</ele>
        <time>2020-07-25T08:02:38.047Z</time>
      </trkpt>
      <trkpt lat="42.58846" lon="2.01963">
        <ele>2072</ele>
        <time>2020-07-25T08:02:39.047Z</time>
      </trkpt>
      <trkpt lat="42.58846" lon="2.01964">
        <ele>2071</ele>
        <time>2020-07-25T08:02:40.047Z</time>
      </trkpt>
      <trkpt lat="42.58846" lon="2.01965">
        <ele>2071</ele>
        <time>2020-07-25T08:02:41.047Z</time>
      </trkpt>
      <trkpt lat="42.58845" lon="2.01965">
        <ele>2071</ele>
        <time>2020-07-25T08:02:42.047Z</time>
      </trkpt>
      <trkpt lat="42.58845" lon="2.01966">
        <ele>2070</ele>
        <time>2020-07-25T08:02:43.047Z</time>
      </trkpt>
      <trkpt lat="42.58844" lon="2.01966">
        <ele>2070</ele>
        <time>2020-07-25T08:02:44.047Z</time>
      </trkpt>
      <trkpt lat="42.58843" lon="2.01966">
        <ele>2069</ele>
        <time>2020-07-25T08:02:45.047Z</time>
      </trkpt>
      <trkpt lat="42.58843" lon="2.01967">
        <ele>2068</ele>
        <time>2020-07-25T08:02:46.047Z</time>
      </trkpt>
      <trkpt lat="42.58843" lon="2.01968">
        <ele>2067</ele>
        <time>2020-07-25T08:02:47.047Z</time>
      </trkpt>
      <trkpt lat="42.58843" lon="2.0197">
        <ele>2066</ele>
        <time>2020-07-25T08:02:48.047Z</time>
      </trkpt>
      <trkpt lat="42.58843" lon="2.01971">
        <ele>2066</ele>
        <time>2020-07-25T08:02:49.047Z</time>
      </trkpt>
      <trkpt lat="42.58843" lon="2.01973">
        <ele>2066</ele>
        <time>2020-07-25T08:02:50.047Z</time>
      </trkpt>
      <trkpt lat="42.58843" lon="2.01975">
        <ele>2065</ele>
        <time>2020-07-25T08:02:51.047Z</time>
      </trkpt>
      <trkpt lat="42.58842" lon="2.01976">
        <ele>2065</ele>
        <time>2020-07-25T08:02:52.047Z</time>
      </trkpt>
      <trkpt lat="42.58842" lon="2.01976">
        <ele>2064</ele>
        <time>2020-07-25T08:02:53.047Z</time>
      </trkpt>
      <trkpt lat="42.58842" lon="2.01977">
        <ele>2065</ele>
        <time>2020-07-25T08:02:54.047Z</time>
      </trkpt>
      <trkpt lat="42.58841" lon="2.01977">
        <ele>2065</ele>
        <time>2020-07-25T08:02:55.047Z</time>
      </trkpt>
      <trkpt lat="42.58841" lon="2.01979">
        <ele>2066</ele>
        <time>2020-07-25T08:02:56.047Z</time>
      </trkpt>
      <trkpt lat="42.5884" lon="2.01981">
        <ele>2065</ele>
        <time>2020-07-25T08:02:57.047Z</time>
      </trkpt>
      <trkpt lat="42.5884" lon="2.01982">
        <ele>2065</ele>
        <time>2020-07-25T08:02:58.047Z</time>
      </trkpt>
      <trkpt lat="42.58839" lon="2.01983">
        <ele>2065</ele>
        <time>2020-07-25T08:02:59.047Z</time>
      </trkpt>
      <trkpt lat="42.58838" lon="2.01984">
        <ele>2065</ele>
        <time>2020-07-25T08:03:00.047Z</time>
      </trkpt>
      <trkpt lat="42.58837" lon="2.01986">
        <ele>2065</ele>
        <time>2020-07-25T08:03:01.047Z</time>
      </trkpt>
      <trkpt lat="42.58837" lon="2.01987">
        <ele>2066</ele>
        <time>2020-07-25T08:03:02.047Z</time>
      </trkpt>
      <trkpt lat="42.58834" lon="2.01989">
        <ele>2062</ele>
        <time>2020-07-25T08:03:03.063Z</time>
      </trkpt>
      <trkpt lat="42.58833" lon="2.01989">
        <ele>2062</ele>
        <time>2020-07-25T08:03:04.063Z</time>
      </trkpt>
      <trkpt lat="42.58833" lon="2.01989">
        <ele>2062</ele>
        <time>2020-07-25T08:03:05.063Z</time>
      </trkpt>
      <trkpt lat="42.58832" lon="2.0199">
        <ele>2062</ele>
        <time>2020-07-25T08:03:06.063Z</time>
      </trkpt>
      <trkpt lat="42.58832" lon="2.0199">
        <ele>2061</ele>
        <time>2020-07-25T08:03:07.063Z</time>
      </trkpt>
      <trkpt lat="42.58831" lon="2.0199">
        <ele>2061</ele>
        <time>2020-07-25T08:03:08.063Z</time>
      </trkpt>
      <trkpt lat="42.5883" lon="2.01991">
        <ele>2061</ele>
        <time>2020-07-25T08:03:09.063Z</time>
      </trkpt>
      <trkpt lat="42.5883" lon="2.01992">
        <ele>2061</ele>
        <time>2020-07-25T08:03:10.063Z</time>
      </trkpt>
      <trkpt lat="42.58828" lon="2.01993">
        <ele>2061</ele>
        <time>2020-07-25T08:03:11.063Z</time>
      </trkpt>
      <trkpt lat="42.58828" lon="2.01994">
        <ele>2061</ele>
        <time>2020-07-25T08:03:12.063Z</time>
      </trkpt>
      <trkpt lat="42.58827" lon="2.01996">
        <ele>2061</ele>
        <time>2020-07-25T08:03:13.063Z</time>
      </trkpt>
      <trkpt lat="42.58826" lon="2.01997">
        <ele>2061</ele>
        <time>2020-07-25T08:03:14.063Z</time>
      </trkpt>
      <trkpt lat="42.58825" lon="2.01998">
        <ele>2061</ele>
        <time>2020-07-25T08:03:15.063Z</time>
      </trkpt>
      <trkpt lat="42.58824" lon="2.01999">
        <ele>2061</ele>
        <time>2020-07-25T08:03:16.063Z</time>
      </trkpt>
      <trkpt lat="42.58824" lon="2.01999">
        <ele>2061</ele>
        <time>2020-07-25T08:03:17.063Z</time>
      </trkpt>
      <trkpt lat="42.58823" lon="2.02">
        <ele>2060</ele>
        <time>2020-07-25T08:03:18.063Z</time>
      </trkpt>
      <trkpt lat="42.58822" lon="2.02001">
        <ele>2060</ele>
        <time>2020-07-25T08:03:19.063Z</time>
      </trkpt>
      <trkpt lat="42.58821" lon="2.02002">
        <ele>2060</ele>
        <time>2020-07-25T08:03:20.063Z</time>
      </trkpt>
      <trkpt lat="42.5882" lon="2.02003">
        <ele>2061</ele>
        <time>2020-07-25T08:03:21.063Z</time>
      </trkpt>
      <trkpt lat="42.58819" lon="2.02005">
        <ele>2062</ele>
        <time>2020-07-25T08:03:22.063Z</time>
      </trkpt>
      <trkpt lat="42.58819" lon="2.02007">
        <ele>2063</ele>
        <time>2020-07-25T08:03:23.063Z</time>
      </trkpt>
      <trkpt lat="42.58818" lon="2.0201">
        <ele>2064</ele>
        <time>2020-07-25T08:03:24.063Z</time>
      </trkpt>
      <trkpt lat="42.58817" lon="2.02012">
        <ele>2064</ele>
        <time>2020-07-25T08:03:25.063Z</time>
      </trkpt>
      <trkpt lat="42.58816" lon="2.02014">
        <ele>2065</ele>
        <time>2020-07-25T08:03:26.063Z</time>
      </trkpt>
      <trkpt lat="42.58815" lon="2.02015">
        <ele>2066</ele>
        <time>2020-07-25T08:03:27.063Z</time>
      </trkpt>
      <trkpt lat="42.58814" lon="2.02016">
        <ele>2067</ele>
        <time>2020-07-25T08:03:28.063Z</time>
      </trkpt>
      <trkpt lat="42.58814" lon="2.02017">
        <ele>2068</ele>
        <time>2020-07-25T08:03:29.063Z</time>
      </trkpt>
      <trkpt lat="42.58813" lon="2.02018">
        <ele>2069</ele>
        <time>2020-07-25T08:03:30.063Z</time>
      </trkpt>
      <trkpt lat="42.58812" lon="2.02019">
        <ele>2070</ele>
        <time>2020-07-25T08:03:31.063Z</time>
      </trkpt>
      <trkpt lat="42.58811" lon="2.0202">
        <ele>2069</ele>
        <time>2020-07-25T08:03:32.063Z</time>
      </trkpt>
      <trkpt lat="42.58811" lon="2.02021">
        <ele>2070</ele>
        <time>2020-07-25T08:03:33.063Z</time>
      </trkpt>
      <trkpt lat="42.58811" lon="2.02021">
        <ele>2070</ele>
        <time>2020-07-25T08:03:34.063Z</time>
      </trkpt>
      <trkpt lat="42.58811" lon="2.02022">
        <ele>2070</ele>
        <time>2020-07-25T08:03:35.063Z</time>
      </trkpt>
      <trkpt lat="42.58811" lon="2.02024">
        <ele>2071</ele>
        <time>2020-07-25T08:03:36.063Z</time>
      </trkpt>
      <trkpt lat="42.5881" lon="2.02026">
        <ele>2072</ele>
        <time>2020-07-25T08:03:37.063Z</time>
      </trkpt>
      <trkpt lat="42.5881" lon="2.02028">
        <ele>2072</ele>
        <time>2020-07-25T08:03:38.063Z</time>
      </trkpt>
      <trkpt lat="42.58809" lon="2.02031">
        <ele>2072</ele>
        <time>2020-07-25T08:03:39.063Z</time>
      </trkpt>
      <trkpt lat="42.58808" lon="2.02033">
        <ele>2071</ele>
        <time>2020-07-25T08:03:40.063Z</time>
      </trkpt>
      <trkpt lat="42.58808" lon="2.02035">
        <ele>2071</ele>
        <time>2020-07-25T08:03:41.063Z</time>
      </trkpt>
      <trkpt lat="42.58807" lon="2.02038">
        <ele>2071</ele>
        <time>2020-07-25T08:03:42.063Z</time>
      </trkpt>
      <trkpt lat="42.58806" lon="2.0204">
        <ele>2071</ele>
        <time>2020-07-25T08:03:43.063Z</time>
      </trkpt>
      <trkpt lat="42.58804" lon="2.02042">
        <ele>2072</ele>
        <time>2020-07-25T08:03:44.063Z</time>
      </trkpt>
      <trkpt lat="42.58803" lon="2.02044">
        <ele>2072</ele>
        <time>2020-07-25T08:03:45.063Z</time>
      </trkpt>
      <trkpt lat="42.58802" lon="2.02045">
        <ele>2072</ele>
        <time>2020-07-25T08:03:46.063Z</time>
      </trkpt>
      <trkpt lat="42.58801" lon="2.02045">
        <ele>2072</ele>
        <time>2020-07-25T08:03:47.063Z</time>
      </trkpt>
      <trkpt lat="42.58799" lon="2.02046">
        <ele>2072</ele>
        <time>2020-07-25T08:03:48.063Z</time>
      </trkpt>
      <trkpt lat="42.58798" lon="2.02047">
        <ele>2072</ele>
        <time>2020-07-25T08:03:49.063Z</time>
      </trkpt>
      <trkpt lat="42.58797" lon="2.02048">
        <ele>2073</ele>
        <time>2020-07-25T08:03:50.063Z</time>
      </trkpt>
      <trkpt lat="42.58796" lon="2.02049">
        <ele>2073</ele>
        <time>2020-07-25T08:03:51.063Z</time>
      </trkpt>
      <trkpt lat="42.58795" lon="2.0205">
        <ele>2073</ele>
        <time>2020-07-25T08:03:52.063Z</time>
      </trkpt>
      <trkpt lat="42.58793" lon="2.02051">
        <ele>2073</ele>
        <time>2020-07-25T08:03:53.063Z</time>
      </trkpt>
      <trkpt lat="42.58791" lon="2.02052">
        <ele>2072</ele>
        <time>2020-07-25T08:03:54.063Z</time>
      </trkpt>
      <trkpt lat="42.58789" lon="2.02052">
        <ele>2071</ele>
        <time>2020-07-25T08:03:55.063Z</time>
      </trkpt>
      <trkpt lat="42.58787" lon="2.02052">
        <ele>2072</ele>
        <time>2020-07-25T08:03:56.063Z</time>
      </trkpt>
      <trkpt lat="42.58787" lon="2.02052">
        <ele>2074</ele>
        <time>2020-07-25T08:03:57.063Z</time>
      </trkpt>
      <trkpt lat="42.58786" lon="2.02052">
        <ele>2076</ele>
        <time>2020-07-25T08:03:58.063Z</time>
      </trkpt>
      <trkpt lat="42.58786" lon="2.02053">
        <ele>2075</ele>
        <time>2020-07-25T08:03:59.063Z</time>
      </trkpt>
      <trkpt lat="42.58785" lon="2.02053">
        <ele>2075</ele>
        <time>2020-07-25T08:04:00.063Z</time>
      </trkpt>
      <trkpt lat="42.58785" lon="2.02053">
        <ele>2074</ele>
        <time>2020-07-25T08:04:01.063Z</time>
      </trkpt>
      <trkpt lat="42.58785" lon="2.02053">
        <ele>2074</ele>
        <time>2020-07-25T08:04:02.063Z</time>
      </trkpt>
      <trkpt lat="42.58782" lon="2.02056">
        <ele>2076</ele>
        <time>2020-07-25T08:04:03.047Z</time>
      </trkpt>
      <trkpt lat="42.58781" lon="2.02056">
        <ele>2076</ele>
        <time>2020-07-25T08:04:04.047Z</time>
      </trkpt>
      <trkpt lat="42.58781" lon="2.02056">
        <ele>2075</ele>
        <time>2020-07-25T08:04:05.047Z</time>
      </trkpt>
      <trkpt lat="42.5878" lon="2.02056">
        <ele>2076</ele>
        <time>2020-07-25T08:04:06.047Z</time>
      </trkpt>
      <trkpt lat="42.5878" lon="2.02056">
        <ele>2076</ele>
        <time>2020-07-25T08:04:07.047Z</time>
      </trkpt>
      <trkpt lat="42.5878" lon="2.02056">
        <ele>2076</ele>
        <time>2020-07-25T08:04:08.047Z</time>
      </trkpt>
      <trkpt lat="42.58779" lon="2.02057">
        <ele>2076</ele>
        <time>2020-07-25T08:04:09.047Z</time>
      </trkpt>
      <trkpt lat="42.58778" lon="2.02058">
        <ele>2076</ele>
        <time>2020-07-25T08:04:10.047Z</time>
      </trkpt>
      <trkpt lat="42.58777" lon="2.02059">
        <ele>2076</ele>
        <time>2020-07-25T08:04:11.047Z</time>
      </trkpt>
      <trkpt lat="42.58776" lon="2.0206">
        <ele>2076</ele>
        <time>2020-07-25T08:04:12.047Z</time>
      </trkpt>
      <trkpt lat="42.58775" lon="2.02062">
        <ele>2075</ele>
        <time>2020-07-25T08:04:13.047Z</time>
      </trkpt>
      <trkpt lat="42.58774" lon="2.02063">
        <ele>2075</ele>
        <time>2020-07-25T08:04:14.047Z</time>
      </trkpt>
      <trkpt lat="42.58774" lon="2.02064">
        <ele>2075</ele>
        <time>2020-07-25T08:04:15.047Z</time>
      </trkpt>
      <trkpt lat="42.58773" lon="2.02065">
        <ele>2075</ele>
        <time>2020-07-25T08:04:16.047Z</time>
      </trkpt>
      <trkpt lat="42.58772" lon="2.02066">
        <ele>2076</ele>
        <time>2020-07-25T08:04:17.047Z</time>
      </trkpt>
      <trkpt lat="42.58772" lon="2.02067">
        <ele>2076</ele>
        <time>2020-07-25T08:04:18.047Z</time>
      </trkpt>
      <trkpt lat="42.58771" lon="2.02067">
        <ele>2077</ele>
        <time>2020-07-25T08:04:19.047Z</time>
      </trkpt>
      <trkpt lat="42.5877" lon="2.02068">
        <ele>2076</ele>
        <time>2020-07-25T08:04:20.047Z</time>
      </trkpt>
      <trkpt lat="42.5877" lon="2.02068">
        <ele>2076</ele>
        <time>2020-07-25T08:04:21.047Z</time>
      </trkpt>
      <trkpt lat="42.5877" lon="2.02069">
        <ele>2075</ele>
        <time>2020-07-25T08:04:22.047Z</time>
      </trkpt>
      <trkpt lat="42.58769" lon="2.0207">
        <ele>2075</ele>
        <time>2020-07-25T08:04:23.047Z</time>
      </trkpt>
      <trkpt lat="42.58769" lon="2.02071">
        <ele>2074</ele>
        <time>2020-07-25T08:04:24.047Z</time>
      </trkpt>
      <trkpt lat="42.58769" lon="2.02073">
        <ele>2074</ele>
        <time>2020-07-25T08:04:25.047Z</time>
      </trkpt>
      <trkpt lat="42.58769" lon="2.02074">
        <ele>2073</ele>
        <time>2020-07-25T08:04:26.047Z</time>
      </trkpt>
      <trkpt lat="42.58769" lon="2.02074">
        <ele>2073</ele>
        <time>2020-07-25T08:04:27.047Z</time>
      </trkpt>
      <trkpt lat="42.58769" lon="2.02075">
        <ele>2073</ele>
        <time>2020-07-25T08:04:28.047Z</time>
      </trkpt>
      <trkpt lat="42.58769" lon="2.02076">
        <ele>2073</ele>
        <time>2020-07-25T08:04:29.047Z</time>
      </trkpt>
      <trkpt lat="42.58769" lon="2.02077">
        <ele>2073</ele>
        <time>2020-07-25T08:04:30.047Z</time>
      </trkpt>
      <trkpt lat="42.58769" lon="2.02078">
        <ele>2073</ele>
        <time>2020-07-25T08:04:31.047Z</time>
      </trkpt>
      <trkpt lat="42.58769" lon="2.02079">
        <ele>2073</ele>
        <time>2020-07-25T08:04:32.047Z</time>
      </trkpt>
      <trkpt lat="42.58769" lon="2.0208">
        <ele>2072</ele>
        <time>2020-07-25T08:04:33.047Z</time>
      </trkpt>
      <trkpt lat="42.58769" lon="2.02081">
        <ele>2072</ele>
        <time>2020-07-25T08:04:34.047Z</time>
      </trkpt>
      <trkpt lat="42.58768" lon="2.02082">
        <ele>2072</ele>
        <time>2020-07-25T08:04:35.047Z</time>
      </trkpt>
      <trkpt lat="42.58768" lon="2.02083">
        <ele>2072</ele>
        <time>2020-07-25T08:04:36.047Z</time>
      </trkpt>
      <trkpt lat="42.58768" lon="2.02084">
        <ele>2072</ele>
        <time>2020-07-25T08:04:37.047Z</time>
      </trkpt>
      <trkpt lat="42.58768" lon="2.02085">
        <ele>2072</ele>
        <time>2020-07-25T08:04:38.047Z</time>
      </trkpt>
      <trkpt lat="42.58768" lon="2.02086">
        <ele>2072</ele>
        <time>2020-07-25T08:04:39.047Z</time>
      </trkpt>
      <trkpt lat="42.58768" lon="2.02087">
        <ele>2072</ele>
        <time>2020-07-25T08:04:40.047Z</time>
      </trkpt>
      <trkpt lat="42.58768" lon="2.02088">
        <ele>2072</ele>
        <time>2020-07-25T08:04:41.047Z</time>
      </trkpt>
      <trkpt lat="42.58768" lon="2.02089">
        <ele>2072</ele>
        <time>2020-07-25T08:04:42.047Z</time>
      </trkpt>
      <trkpt lat="42.58769" lon="2.0209">
        <ele>2072</ele>
        <time>2020-07-25T08:04:43.047Z</time>
      </trkpt>
      <trkpt lat="42.58768" lon="2.0209">
        <ele>2071</ele>
        <time>2020-07-25T08:04:44.047Z</time>
      </trkpt>
      <trkpt lat="42.58769" lon="2.02091">
        <ele>2071</ele>
        <time>2020-07-25T08:04:45.047Z</time>
      </trkpt>
      <trkpt lat="42.58769" lon="2.02092">
        <ele>2070</ele>
        <time>2020-07-25T08:04:46.047Z</time>
      </trkpt>
      <trkpt lat="42.58769" lon="2.02093">
        <ele>2070</ele>
        <time>2020-07-25T08:04:47.047Z</time>
      </trkpt>
      <trkpt lat="42.58769" lon="2.02095">
        <ele>2069</ele>
        <time>2020-07-25T08:04:48.047Z</time>
      </trkpt>
      <trkpt lat="42.58769" lon="2.02097">
        <ele>2068</ele>
        <time>2020-07-25T08:04:49.047Z</time>
      </trkpt>
      <trkpt lat="42.58768" lon="2.021">
        <ele>2067</ele>
        <time>2020-07-25T08:04:50.047Z</time>
      </trkpt>
      <trkpt lat="42.58768" lon="2.02103">
        <ele>2066</ele>
        <time>2020-07-25T08:04:51.047Z</time>
      </trkpt>
      <trkpt lat="42.58768" lon="2.02106">
        <ele>2065</ele>
        <time>2020-07-25T08:04:52.047Z</time>
      </trkpt>
      <trkpt lat="42.58767" lon="2.02109">
        <ele>2065</ele>
        <time>2020-07-25T08:04:53.047Z</time>
      </trkpt>
      <trkpt lat="42.58766" lon="2.02112">
        <ele>2064</ele>
        <time>2020-07-25T08:04:54.047Z</time>
      </trkpt>
      <trkpt lat="42.58765" lon="2.02115">
        <ele>2062</ele>
        <time>2020-07-25T08:04:55.047Z</time>
      </trkpt>
      <trkpt lat="42.58764" lon="2.02117">
        <ele>2061</ele>
        <time>2020-07-25T08:04:56.047Z</time>
      </trkpt>
      <trkpt lat="42.58764" lon="2.0212">
        <ele>2060</ele>
        <time>2020-07-25T08:04:57.047Z</time>
      </trkpt>
      <trkpt lat="42.58763" lon="2.02122">
        <ele>2059</ele>
        <time>2020-07-25T08:04:58.047Z</time>
      </trkpt>
      <trkpt lat="42.58762" lon="2.02124">
        <ele>2058</ele>
        <time>2020-07-25T08:04:59.047Z</time>
      </trkpt>
      <trkpt lat="42.58762" lon="2.02126">
        <ele>2059</ele>
        <time>2020-07-25T08:05:00.047Z</time>
      </trkpt>
      <trkpt lat="42.58761" lon="2.02128">
        <ele>2059</ele>
        <time>2020-07-25T08:05:01.047Z</time>
      </trkpt>
      <trkpt lat="42.5876" lon="2.02128">
        <ele>2059</ele>
        <time>2020-07-25T08:05:02.047Z</time>
      </trkpt>
      <trkpt lat="42.5876" lon="2.02129">
        <ele>2058</ele>
        <time>2020-07-25T08:05:03.047Z</time>
      </trkpt>
      <trkpt lat="42.58759" lon="2.02129">
        <ele>2059</ele>
        <time>2020-07-25T08:05:04.047Z</time>
      </trkpt>
      <trkpt lat="42.58759" lon="2.02129">
        <ele>2059</ele>
        <time>2020-07-25T08:05:05.047Z</time>
      </trkpt>
      <trkpt lat="42.58758" lon="2.02129">
        <ele>2059</ele>
        <time>2020-07-25T08:05:06.047Z</time>
      </trkpt>
      <trkpt lat="42.58757" lon="2.02128">
        <ele>2060</ele>
        <time>2020-07-25T08:05:07.047Z</time>
      </trkpt>
      <trkpt lat="42.58755" lon="2.02128">
        <ele>2060</ele>
        <time>2020-07-25T08:05:08.047Z</time>
      </trkpt>
      <trkpt lat="42.58754" lon="2.02127">
        <ele>2060</ele>
        <time>2020-07-25T08:05:09.047Z</time>
      </trkpt>
      <trkpt lat="42.58753" lon="2.02127">
        <ele>2060</ele>
        <time>2020-07-25T08:05:10.047Z</time>
      </trkpt>
      <trkpt lat="42.58753" lon="2.02127">
        <ele>2060</ele>
        <time>2020-07-25T08:05:11.047Z</time>
      </trkpt>
      <trkpt lat="42.58752" lon="2.02127">
        <ele>2060</ele>
        <time>2020-07-25T08:05:12.047Z</time>
      </trkpt>
      <trkpt lat="42.58751" lon="2.02127">
        <ele>2059</ele>
        <time>2020-07-25T08:05:13.047Z</time>
      </trkpt>
      <trkpt lat="42.58751" lon="2.02127">
        <ele>2060</ele>
        <time>2020-07-25T08:05:14.047Z</time>
      </trkpt>
      <trkpt lat="42.58751" lon="2.02128">
        <ele>2059</ele>
        <time>2020-07-25T08:05:15.047Z</time>
      </trkpt>
      <trkpt lat="42.5875" lon="2.02129">
        <ele>2059</ele>
        <time>2020-07-25T08:05:16.047Z</time>
      </trkpt>
      <trkpt lat="42.5875" lon="2.02129">
        <ele>2060</ele>
        <time>2020-07-25T08:05:17.047Z</time>
      </trkpt>
      <trkpt lat="42.58749" lon="2.0213">
        <ele>2059</ele>
        <time>2020-07-25T08:05:18.047Z</time>
      </trkpt>
      <trkpt lat="42.58748" lon="2.02132">
        <ele>2059</ele>
        <time>2020-07-25T08:05:19.047Z</time>
      </trkpt>
      <trkpt lat="42.58747" lon="2.02133">
        <ele>2058</ele>
        <time>2020-07-25T08:05:20.047Z</time>
      </trkpt>
      <trkpt lat="42.58746" lon="2.02133">
        <ele>2057</ele>
        <time>2020-07-25T08:05:21.047Z</time>
      </trkpt>
      <trkpt lat="42.58745" lon="2.02134">
        <ele>2056</ele>
        <time>2020-07-25T08:05:22.047Z</time>
      </trkpt>
      <trkpt lat="42.58744" lon="2.02134">
        <ele>2056</ele>
        <time>2020-07-25T08:05:23.047Z</time>
      </trkpt>
      <trkpt lat="42.58739" lon="2.02163">
        <ele>2055</ele>
        <time>2020-07-25T08:05:25.031Z</time>
      </trkpt>
      <trkpt lat="42.58739" lon="2.02166">
        <ele>2054</ele>
        <time>2020-07-25T08:05:26.031Z</time>
      </trkpt>
      <trkpt lat="42.58739" lon="2.02168">
        <ele>2054</ele>
        <time>2020-07-25T08:05:27.031Z</time>
      </trkpt>
      <trkpt lat="42.58739" lon="2.0217">
        <ele>2054</ele>
        <time>2020-07-25T08:05:28.031Z</time>
      </trkpt>
      <trkpt lat="42.58739" lon="2.02173">
        <ele>2053</ele>
        <time>2020-07-25T08:05:29.031Z</time>
      </trkpt>
      <trkpt lat="42.58738" lon="2.02177">
        <ele>2053</ele>
        <time>2020-07-25T08:05:30.031Z</time>
      </trkpt>
      <trkpt lat="42.58738" lon="2.02181">
        <ele>2053</ele>
        <time>2020-07-25T08:05:31.031Z</time>
      </trkpt>
      <trkpt lat="42.58737" lon="2.02185">
        <ele>2053</ele>
        <time>2020-07-25T08:05:32.031Z</time>
      </trkpt>
      <trkpt lat="42.58737" lon="2.02189">
        <ele>2053</ele>
        <time>2020-07-25T08:05:33.031Z</time>
      </trkpt>
      <trkpt lat="42.58736" lon="2.02192">
        <ele>2052</ele>
        <time>2020-07-25T08:05:34.031Z</time>
      </trkpt>
      <trkpt lat="42.58735" lon="2.02195">
        <ele>2051</ele>
        <time>2020-07-25T08:05:35.031Z</time>
      </trkpt>
      <trkpt lat="42.58734" lon="2.02198">
        <ele>2051</ele>
        <time>2020-07-25T08:05:36.031Z</time>
      </trkpt>
      <trkpt lat="42.5874" lon="2.02235">
        <ele>2051</ele>
        <time>2020-07-25T08:05:37.062Z</time>
      </trkpt>
      <trkpt lat="42.5874" lon="2.02236">
        <ele>2051</ele>
        <time>2020-07-25T08:05:38.062Z</time>
      </trkpt>
      <trkpt lat="42.5874" lon="2.02238">
        <ele>2051</ele>
        <time>2020-07-25T08:05:39.062Z</time>
      </trkpt>
      <trkpt lat="42.5874" lon="2.02239">
        <ele>2052</ele>
        <time>2020-07-25T08:05:40.062Z</time>
      </trkpt>
      <trkpt lat="42.5874" lon="2.02242">
        <ele>2052</ele>
        <time>2020-07-25T08:05:41.062Z</time>
      </trkpt>
      <trkpt lat="42.58741" lon="2.02244">
        <ele>2053</ele>
        <time>2020-07-25T08:05:42.062Z</time>
      </trkpt>
      <trkpt lat="42.58741" lon="2.02246">
        <ele>2053</ele>
        <time>2020-07-25T08:05:43.062Z</time>
      </trkpt>
      <trkpt lat="42.58742" lon="2.02249">
        <ele>2053</ele>
        <time>2020-07-25T08:05:44.062Z</time>
      </trkpt>
      <trkpt lat="42.58743" lon="2.02252">
        <ele>2053</ele>
        <time>2020-07-25T08:05:45.062Z</time>
      </trkpt>
      <trkpt lat="42.58743" lon="2.02254">
        <ele>2053</ele>
        <time>2020-07-25T08:05:46.062Z</time>
      </trkpt>
      <trkpt lat="42.58743" lon="2.02257">
        <ele>2052</ele>
        <time>2020-07-25T08:05:47.062Z</time>
      </trkpt>
      <trkpt lat="42.58744" lon="2.0226">
        <ele>2053</ele>
        <time>2020-07-25T08:05:48.062Z</time>
      </trkpt>
      <trkpt lat="42.58744" lon="2.02263">
        <ele>2053</ele>
        <time>2020-07-25T08:05:49.062Z</time>
      </trkpt>
      <trkpt lat="42.58744" lon="2.02266">
        <ele>2052</ele>
        <time>2020-07-25T08:05:50.062Z</time>
      </trkpt>
      <trkpt lat="42.58744" lon="2.0227">
        <ele>2053</ele>
        <time>2020-07-25T08:05:51.062Z</time>
      </trkpt>
      <trkpt lat="42.58744" lon="2.02273">
        <ele>2053</ele>
        <time>2020-07-25T08:05:52.062Z</time>
      </trkpt>
      <trkpt lat="42.58745" lon="2.02277">
        <ele>2053</ele>
        <time>2020-07-25T08:05:53.062Z</time>
      </trkpt>
      <trkpt lat="42.58746" lon="2.0228">
        <ele>2054</ele>
        <time>2020-07-25T08:05:54.062Z</time>
      </trkpt>
      <trkpt lat="42.58746" lon="2.02284">
        <ele>2051</ele>
        <time>2020-07-25T08:05:55.062Z</time>
      </trkpt>
      <trkpt lat="42.58746" lon="2.02288">
        <ele>2052</ele>
        <time>2020-07-25T08:05:56.062Z</time>
      </trkpt>
      <trkpt lat="42.58747" lon="2.02291">
        <ele>2052</ele>
        <time>2020-07-25T08:05:57.062Z</time>
      </trkpt>
      <trkpt lat="42.58747" lon="2.02295">
        <ele>2051</ele>
        <time>2020-07-25T08:05:58.062Z</time>
      </trkpt>
      <trkpt lat="42.58748" lon="2.02298">
        <ele>2050</ele>
        <time>2020-07-25T08:05:59.062Z</time>
      </trkpt>
      <trkpt lat="42.58748" lon="2.02302">
        <ele>2050</ele>
        <time>2020-07-25T08:06:00.062Z</time>
      </trkpt>
      <trkpt lat="42.58749" lon="2.02305">
        <ele>2050</ele>
        <time>2020-07-25T08:06:01.062Z</time>
      </trkpt>
      <trkpt lat="42.5875" lon="2.02309">
        <ele>2052</ele>
        <time>2020-07-25T08:06:02.062Z</time>
      </trkpt>
      <trkpt lat="42.58752" lon="2.02313">
        <ele>2052</ele>
        <time>2020-07-25T08:06:03.062Z</time>
      </trkpt>
      <trkpt lat="42.58753" lon="2.02316">
        <ele>2053</ele>
        <time>2020-07-25T08:06:04.062Z</time>
      </trkpt>
      <trkpt lat="42.58755" lon="2.02319">
        <ele>2054</ele>
        <time>2020-07-25T08:06:05.062Z</time>
      </trkpt>
      <trkpt lat="42.58756" lon="2.02323">
        <ele>2054</ele>
        <time>2020-07-25T08:06:06.062Z</time>
      </trkpt>
      <trkpt lat="42.58757" lon="2.02326">
        <ele>2055</ele>
        <time>2020-07-25T08:06:07.062Z</time>
      </trkpt>
      <trkpt lat="42.58757" lon="2.02329">
        <ele>2055</ele>
        <time>2020-07-25T08:06:08.062Z</time>
      </trkpt>
      <trkpt lat="42.58758" lon="2.02333">
        <ele>2057</ele>
        <time>2020-07-25T08:06:09.062Z</time>
      </trkpt>
      <trkpt lat="42.58758" lon="2.02336">
        <ele>2057</ele>
        <time>2020-07-25T08:06:10.062Z</time>
      </trkpt>
      <trkpt lat="42.58758" lon="2.02339">
        <ele>2056</ele>
        <time>2020-07-25T08:06:11.062Z</time>
      </trkpt>
      <trkpt lat="42.58758" lon="2.02343">
        <ele>2055</ele>
        <time>2020-07-25T08:06:12.062Z</time>
      </trkpt>
      <trkpt lat="42.58757" lon="2.02347">
        <ele>2054</ele>
        <time>2020-07-25T08:06:13.062Z</time>
      </trkpt>
      <trkpt lat="42.58757" lon="2.02351">
        <ele>2051</ele>
        <time>2020-07-25T08:06:14.062Z</time>
      </trkpt>
      <trkpt lat="42.58756" lon="2.02355">
        <ele>2051</ele>
        <time>2020-07-25T08:06:15.062Z</time>
      </trkpt>
      <trkpt lat="42.58755" lon="2.02359">
        <ele>2050</ele>
        <time>2020-07-25T08:06:16.062Z</time>
      </trkpt>
      <trkpt lat="42.58755" lon="2.02362">
        <ele>2049</ele>
        <time>2020-07-25T08:06:17.062Z</time>
      </trkpt>
      <trkpt lat="42.58755" lon="2.02364">
        <ele>2048</ele>
        <time>2020-07-25T08:06:18.062Z</time>
      </trkpt>
      <trkpt lat="42.58755" lon="2.02368">
        <ele>2047</ele>
        <time>2020-07-25T08:06:19.062Z</time>
      </trkpt>
      <trkpt lat="42.58755" lon="2.02371">
        <ele>2046</ele>
        <time>2020-07-25T08:06:20.062Z</time>
      </trkpt>
      <trkpt lat="42.58755" lon="2.02374">
        <ele>2045</ele>
        <time>2020-07-25T08:06:21.062Z</time>
      </trkpt>
      <trkpt lat="42.58755" lon="2.02377">
        <ele>2045</ele>
        <time>2020-07-25T08:06:22.062Z</time>
      </trkpt>
      <trkpt lat="42.58755" lon="2.0238">
        <ele>2044</ele>
        <time>2020-07-25T08:06:23.062Z</time>
      </trkpt>
      <trkpt lat="42.58755" lon="2.02384">
        <ele>2043</ele>
        <time>2020-07-25T08:06:24.062Z</time>
      </trkpt>
      <trkpt lat="42.58754" lon="2.02387">
        <ele>2042</ele>
        <time>2020-07-25T08:06:25.062Z</time>
      </trkpt>
      <trkpt lat="42.58754" lon="2.0239">
        <ele>2041</ele>
        <time>2020-07-25T08:06:26.062Z</time>
      </trkpt>
      <trkpt lat="42.58753" lon="2.02394">
        <ele>2041</ele>
        <time>2020-07-25T08:06:27.062Z</time>
      </trkpt>
      <trkpt lat="42.58753" lon="2.02399">
        <ele>2040</ele>
        <time>2020-07-25T08:06:28.062Z</time>
      </trkpt>
      <trkpt lat="42.58752" lon="2.02403">
        <ele>2040</ele>
        <time>2020-07-25T08:06:29.062Z</time>
      </trkpt>
      <trkpt lat="42.58751" lon="2.02407">
        <ele>2038</ele>
        <time>2020-07-25T08:06:30.062Z</time>
      </trkpt>
      <trkpt lat="42.5875" lon="2.02411">
        <ele>2037</ele>
        <time>2020-07-25T08:06:31.062Z</time>
      </trkpt>
      <trkpt lat="42.58749" lon="2.02415">
        <ele>2038</ele>
        <time>2020-07-25T08:06:32.062Z</time>
      </trkpt>
      <trkpt lat="42.58747" lon="2.02418">
        <ele>2037</ele>
        <time>2020-07-25T08:06:33.062Z</time>
      </trkpt>
      <trkpt lat="42.58745" lon="2.02422">
        <ele>2038</ele>
        <time>2020-07-25T08:06:34.062Z</time>
      </trkpt>
      <trkpt lat="42.58744" lon="2.02424">
        <ele>2037</ele>
        <time>2020-07-25T08:06:35.062Z</time>
      </trkpt>
      <trkpt lat="42.58743" lon="2.02427">
        <ele>2036</ele>
        <time>2020-07-25T08:06:36.062Z</time>
      </trkpt>
      <trkpt lat="42.58742" lon="2.02429">
        <ele>2035</ele>
        <time>2020-07-25T08:06:37.062Z</time>
      </trkpt>
      <trkpt lat="42.58741" lon="2.02432">
        <ele>2035</ele>
        <time>2020-07-25T08:06:38.062Z</time>
      </trkpt>
      <trkpt lat="42.58741" lon="2.02435">
        <ele>2034</ele>
        <time>2020-07-25T08:06:39.062Z</time>
      </trkpt>
      <trkpt lat="42.5874" lon="2.02438">
        <ele>2034</ele>
        <time>2020-07-25T08:06:40.062Z</time>
      </trkpt>
      <trkpt lat="42.58739" lon="2.02442">
        <ele>2032</ele>
        <time>2020-07-25T08:06:41.062Z</time>
      </trkpt>
      <trkpt lat="42.58739" lon="2.02446">
        <ele>2031</ele>
        <time>2020-07-25T08:06:42.062Z</time>
      </trkpt>
      <trkpt lat="42.58738" lon="2.0245">
        <ele>2031</ele>
        <time>2020-07-25T08:06:43.062Z</time>
      </trkpt>
      <trkpt lat="42.58738" lon="2.02453">
        <ele>2031</ele>
        <time>2020-07-25T08:06:44.062Z</time>
      </trkpt>
      <trkpt lat="42.58738" lon="2.02456">
        <ele>2031</ele>
        <time>2020-07-25T08:06:45.062Z</time>
      </trkpt>
      <trkpt lat="42.58737" lon="2.0246">
        <ele>2030</ele>
        <time>2020-07-25T08:06:46.062Z</time>
      </trkpt>
      <trkpt lat="42.58736" lon="2.02465">
        <ele>2030</ele>
        <time>2020-07-25T08:06:47.062Z</time>
      </trkpt>
      <trkpt lat="42.58734" lon="2.02469">
        <ele>2029</ele>
        <time>2020-07-25T08:06:48.062Z</time>
      </trkpt>
      <trkpt lat="42.58732" lon="2.02473">
        <ele>2029</ele>
        <time>2020-07-25T08:06:49.062Z</time>
      </trkpt>
      <trkpt lat="42.58729" lon="2.02476">
        <ele>2028</ele>
        <time>2020-07-25T08:06:50.062Z</time>
      </trkpt>
      <trkpt lat="42.58726" lon="2.0248">
        <ele>2027</ele>
        <time>2020-07-25T08:06:51.062Z</time>
      </trkpt>
      <trkpt lat="42.58725" lon="2.02483">
        <ele>2026</ele>
        <time>2020-07-25T08:06:52.062Z</time>
      </trkpt>
      <trkpt lat="42.58723" lon="2.02487">
        <ele>2026</ele>
        <time>2020-07-25T08:06:53.062Z</time>
      </trkpt>
      <trkpt lat="42.58722" lon="2.02491">
        <ele>2025</ele>
        <time>2020-07-25T08:06:54.062Z</time>
      </trkpt>
      <trkpt lat="42.58721" lon="2.02494">
        <ele>2024</ele>
        <time>2020-07-25T08:06:55.062Z</time>
      </trkpt>
      <trkpt lat="42.5872" lon="2.02498">
        <ele>2023</ele>
        <time>2020-07-25T08:06:56.062Z</time>
      </trkpt>
      <trkpt lat="42.58719" lon="2.02501">
        <ele>2023</ele>
        <time>2020-07-25T08:06:57.062Z</time>
      </trkpt>
      <trkpt lat="42.58718" lon="2.02503">
        <ele>2022</ele>
        <time>2020-07-25T08:06:58.062Z</time>
      </trkpt>
      <trkpt lat="42.58718" lon="2.02506">
        <ele>2022</ele>
        <time>2020-07-25T08:06:59.062Z</time>
      </trkpt>
      <trkpt lat="42.58717" lon="2.02508">
        <ele>2021</ele>
        <time>2020-07-25T08:07:00.062Z</time>
      </trkpt>
      <trkpt lat="42.58717" lon="2.02511">
        <ele>2021</ele>
        <time>2020-07-25T08:07:01.062Z</time>
      </trkpt>
      <trkpt lat="42.58717" lon="2.02513">
        <ele>2020</ele>
        <time>2020-07-25T08:07:02.062Z</time>
      </trkpt>
      <trkpt lat="42.58717" lon="2.02515">
        <ele>2020</ele>
        <time>2020-07-25T08:07:03.062Z</time>
      </trkpt>
      <trkpt lat="42.58717" lon="2.02517">
        <ele>2019</ele>
        <time>2020-07-25T08:07:04.062Z</time>
      </trkpt>
      <trkpt lat="42.58718" lon="2.0252">
        <ele>2019</ele>
        <time>2020-07-25T08:07:05.062Z</time>
      </trkpt>
      <trkpt lat="42.58718" lon="2.02522">
        <ele>2018</ele>
        <time>2020-07-25T08:07:06.062Z</time>
      </trkpt>
      <trkpt lat="42.58717" lon="2.02525">
        <ele>2017</ele>
        <time>2020-07-25T08:07:07.062Z</time>
      </trkpt>
      <trkpt lat="42.58717" lon="2.02527">
        <ele>2016</ele>
        <time>2020-07-25T08:07:08.062Z</time>
      </trkpt>
      <trkpt lat="42.58717" lon="2.0253">
        <ele>2016</ele>
        <time>2020-07-25T08:07:09.062Z</time>
      </trkpt>
      <trkpt lat="42.58717" lon="2.02533">
        <ele>2014</ele>
        <time>2020-07-25T08:07:10.062Z</time>
      </trkpt>
      <trkpt lat="42.58718" lon="2.02535">
        <ele>2014</ele>
        <time>2020-07-25T08:07:11.062Z</time>
      </trkpt>
      <trkpt lat="42.58719" lon="2.02537">
        <ele>2012</ele>
        <time>2020-07-25T08:07:12.062Z</time>
      </trkpt>
      <trkpt lat="42.5872" lon="2.0254">
        <ele>2011</ele>
        <time>2020-07-25T08:07:13.062Z</time>
      </trkpt>
      <trkpt lat="42.58722" lon="2.02542">
        <ele>2008</ele>
        <time>2020-07-25T08:07:14.062Z</time>
      </trkpt>
      <trkpt lat="42.58722" lon="2.02546">
        <ele>2010</ele>
        <time>2020-07-25T08:07:15.062Z</time>
      </trkpt>
      <trkpt lat="42.58723" lon="2.02551">
        <ele>2011</ele>
        <time>2020-07-25T08:07:16.062Z</time>
      </trkpt>
      <trkpt lat="42.58722" lon="2.02557">
        <ele>2011</ele>
        <time>2020-07-25T08:07:17.062Z</time>
      </trkpt>
      <trkpt lat="42.58722" lon="2.02562">
        <ele>2010</ele>
        <time>2020-07-25T08:07:18.062Z</time>
      </trkpt>
      <trkpt lat="42.58721" lon="2.02566">
        <ele>2009</ele>
        <time>2020-07-25T08:07:19.062Z</time>
      </trkpt>
      <trkpt lat="42.58721" lon="2.02569">
        <ele>2009</ele>
        <time>2020-07-25T08:07:20.062Z</time>
      </trkpt>
      <trkpt lat="42.5872" lon="2.02572">
        <ele>2009</ele>
        <time>2020-07-25T08:07:21.062Z</time>
      </trkpt>
      <trkpt lat="42.58719" lon="2.02574">
        <ele>2009</ele>
        <time>2020-07-25T08:07:22.062Z</time>
      </trkpt>
      <trkpt lat="42.58719" lon="2.02576">
        <ele>2008</ele>
        <time>2020-07-25T08:07:23.062Z</time>
      </trkpt>
      <trkpt lat="42.58718" lon="2.02579">
        <ele>2008</ele>
        <time>2020-07-25T08:07:24.062Z</time>
      </trkpt>
      <trkpt lat="42.58717" lon="2.02582">
        <ele>2006</ele>
        <time>2020-07-25T08:07:25.062Z</time>
      </trkpt>
      <trkpt lat="42.58716" lon="2.02586">
        <ele>2006</ele>
        <time>2020-07-25T08:07:26.062Z</time>
      </trkpt>
      <trkpt lat="42.58715" lon="2.02589">
        <ele>2005</ele>
        <time>2020-07-25T08:07:27.062Z</time>
      </trkpt>
      <trkpt lat="42.58714" lon="2.02593">
        <ele>2007</ele>
        <time>2020-07-25T08:07:28.062Z</time>
      </trkpt>
      <trkpt lat="42.58714" lon="2.02596">
        <ele>2006</ele>
        <time>2020-07-25T08:07:29.062Z</time>
      </trkpt>
      <trkpt lat="42.58713" lon="2.02599">
        <ele>2005</ele>
        <time>2020-07-25T08:07:30.062Z</time>
      </trkpt>
      <trkpt lat="42.58713" lon="2.02601">
        <ele>2005</ele>
        <time>2020-07-25T08:07:31.062Z</time>
      </trkpt>
      <trkpt lat="42.58712" lon="2.02603">
        <ele>2004</ele>
        <time>2020-07-25T08:07:32.062Z</time>
      </trkpt>
      <trkpt lat="42.58713" lon="2.02605">
        <ele>2004</ele>
        <time>2020-07-25T08:07:33.062Z</time>
      </trkpt>
      <trkpt lat="42.58713" lon="2.02606">
        <ele>2005</ele>
        <time>2020-07-25T08:07:34.062Z</time>
      </trkpt>
      <trkpt lat="42.58713" lon="2.02608">
        <ele>2005</ele>
        <time>2020-07-25T08:07:35.062Z</time>
      </trkpt>
      <trkpt lat="42.58712" lon="2.02611">
        <ele>2004</ele>
        <time>2020-07-25T08:07:36.062Z</time>
      </trkpt>
      <trkpt lat="42.58711" lon="2.02614">
        <ele>2002</ele>
        <time>2020-07-25T08:07:37.062Z</time>
      </trkpt>
      <trkpt lat="42.58709" lon="2.02617">
        <ele>2001</ele>
        <time>2020-07-25T08:07:38.062Z</time>
      </trkpt>
      <trkpt lat="42.58707" lon="2.0262">
        <ele>2000</ele>
        <time>2020-07-25T08:07:39.062Z</time>
      </trkpt>
      <trkpt lat="42.58707" lon="2.02623">
        <ele>1999</ele>
        <time>2020-07-25T08:07:40.062Z</time>
      </trkpt>
      <trkpt lat="42.58705" lon="2.02626">
        <ele>1999</ele>
        <time>2020-07-25T08:07:41.062Z</time>
      </trkpt>
      <trkpt lat="42.58704" lon="2.02631">
        <ele>1999</ele>
        <time>2020-07-25T08:07:42.062Z</time>
      </trkpt>
      <trkpt lat="42.58703" lon="2.02636">
        <ele>1999</ele>
        <time>2020-07-25T08:07:43.062Z</time>
      </trkpt>
      <trkpt lat="42.58702" lon="2.02641">
        <ele>1996</ele>
        <time>2020-07-25T08:07:44.062Z</time>
      </trkpt>
      <trkpt lat="42.58701" lon="2.02647">
        <ele>1996</ele>
        <time>2020-07-25T08:07:45.062Z</time>
      </trkpt>
      <trkpt lat="42.58701" lon="2.02652">
        <ele>1996</ele>
        <time>2020-07-25T08:07:46.062Z</time>
      </trkpt>
      <trkpt lat="42.587" lon="2.02657">
        <ele>1997</ele>
        <time>2020-07-25T08:07:47.062Z</time>
      </trkpt>
      <trkpt lat="42.58699" lon="2.02661">
        <ele>1996</ele>
        <time>2020-07-25T08:07:48.062Z</time>
      </trkpt>
      <trkpt lat="42.58699" lon="2.02666">
        <ele>1995</ele>
        <time>2020-07-25T08:07:49.062Z</time>
      </trkpt>
      <trkpt lat="42.58699" lon="2.0267">
        <ele>1996</ele>
        <time>2020-07-25T08:07:50.062Z</time>
      </trkpt>
      <trkpt lat="42.58699" lon="2.02674">
        <ele>1996</ele>
        <time>2020-07-25T08:07:51.062Z</time>
      </trkpt>
      <trkpt lat="42.58699" lon="2.02678">
        <ele>1997</ele>
        <time>2020-07-25T08:07:52.062Z</time>
      </trkpt>
      <trkpt lat="42.58699" lon="2.02682">
        <ele>1998</ele>
        <time>2020-07-25T08:07:53.062Z</time>
      </trkpt>
      <trkpt lat="42.58699" lon="2.02686">
        <ele>1998</ele>
        <time>2020-07-25T08:07:54.062Z</time>
      </trkpt>
      <trkpt lat="42.58699" lon="2.0269">
        <ele>1998</ele>
        <time>2020-07-25T08:07:55.062Z</time>
      </trkpt>
      <trkpt lat="42.58699" lon="2.02694">
        <ele>1998</ele>
        <time>2020-07-25T08:07:56.062Z</time>
      </trkpt>
      <trkpt lat="42.58699" lon="2.02697">
        <ele>1998</ele>
        <time>2020-07-25T08:07:57.062Z</time>
      </trkpt>
      <trkpt lat="42.58698" lon="2.027">
        <ele>1998</ele>
        <time>2020-07-25T08:07:58.062Z</time>
      </trkpt>
      <trkpt lat="42.58698" lon="2.02702">
        <ele>1998</ele>
        <time>2020-07-25T08:07:59.062Z</time>
      </trkpt>
      <trkpt lat="42.58698" lon="2.02705">
        <ele>1996</ele>
        <time>2020-07-25T08:08:00.062Z</time>
      </trkpt>
      <trkpt lat="42.58698" lon="2.02708">
        <ele>1996</ele>
        <time>2020-07-25T08:08:01.062Z</time>
      </trkpt>
      <trkpt lat="42.58698" lon="2.02711">
        <ele>1995</ele>
        <time>2020-07-25T08:08:02.062Z</time>
      </trkpt>
      <trkpt lat="42.58698" lon="2.02715">
        <ele>1996</ele>
        <time>2020-07-25T08:08:03.062Z</time>
      </trkpt>
      <trkpt lat="42.58699" lon="2.02718">
        <ele>1996</ele>
        <time>2020-07-25T08:08:04.062Z</time>
      </trkpt>
      <trkpt lat="42.58699" lon="2.0272">
        <ele>1996</ele>
        <time>2020-07-25T08:08:05.062Z</time>
      </trkpt>
      <trkpt lat="42.587" lon="2.02723">
        <ele>1996</ele>
        <time>2020-07-25T08:08:06.062Z</time>
      </trkpt>
      <trkpt lat="42.587" lon="2.02725">
        <ele>1995</ele>
        <time>2020-07-25T08:08:07.062Z</time>
      </trkpt>
      <trkpt lat="42.587" lon="2.02728">
        <ele>1995</ele>
        <time>2020-07-25T08:08:08.062Z</time>
      </trkpt>
      <trkpt lat="42.587" lon="2.02731">
        <ele>1996</ele>
        <time>2020-07-25T08:08:09.062Z</time>
      </trkpt>
      <trkpt lat="42.587" lon="2.02734">
        <ele>1997</ele>
        <time>2020-07-25T08:08:10.062Z</time>
      </trkpt>
      <trkpt lat="42.58701" lon="2.02737">
        <ele>1997</ele>
        <time>2020-07-25T08:08:11.062Z</time>
      </trkpt>
      <trkpt lat="42.58702" lon="2.0274">
        <ele>1998</ele>
        <time>2020-07-25T08:08:12.062Z</time>
      </trkpt>
      <trkpt lat="42.58703" lon="2.02743">
        <ele>1998</ele>
        <time>2020-07-25T08:08:13.062Z</time>
      </trkpt>
      <trkpt lat="42.58704" lon="2.02746">
        <ele>1997</ele>
        <time>2020-07-25T08:08:14.062Z</time>
      </trkpt>
      <trkpt lat="42.58705" lon="2.02749">
        <ele>1996</ele>
        <time>2020-07-25T08:08:15.062Z</time>
      </trkpt>
      <trkpt lat="42.58706" lon="2.02752">
        <ele>1997</ele>
        <time>2020-07-25T08:08:16.062Z</time>
      </trkpt>
      <trkpt lat="42.58707" lon="2.02756">
        <ele>1997</ele>
        <time>2020-07-25T08:08:17.062Z</time>
      </trkpt>
      <trkpt lat="42.58709" lon="2.0276">
        <ele>1996</ele>
        <time>2020-07-25T08:08:18.062Z</time>
      </trkpt>
      <trkpt lat="42.58711" lon="2.02763">
        <ele>1994</ele>
        <time>2020-07-25T08:08:19.062Z</time>
      </trkpt>
      <trkpt lat="42.58713" lon="2.02767">
        <ele>1994</ele>
        <time>2020-07-25T08:08:20.062Z</time>
      </trkpt>
      <trkpt lat="42.58716" lon="2.02769">
        <ele>1993</ele>
        <time>2020-07-25T08:08:21.062Z</time>
      </trkpt>
      <trkpt lat="42.58718" lon="2.02772">
        <ele>1992</ele>
        <time>2020-07-25T08:08:22.062Z</time>
      </trkpt>
      <trkpt lat="42.58719" lon="2.02775">
        <ele>1991</ele>
        <time>2020-07-25T08:08:23.062Z</time>
      </trkpt>
      <trkpt lat="42.5872" lon="2.02777">
        <ele>1990</ele>
        <time>2020-07-25T08:08:24.062Z</time>
      </trkpt>
      <trkpt lat="42.58722" lon="2.02779">
        <ele>1989</ele>
        <time>2020-07-25T08:08:25.062Z</time>
      </trkpt>
      <trkpt lat="42.58724" lon="2.02782">
        <ele>1988</ele>
        <time>2020-07-25T08:08:26.062Z</time>
      </trkpt>
      <trkpt lat="42.58726" lon="2.02786">
        <ele>1988</ele>
        <time>2020-07-25T08:08:27.062Z</time>
      </trkpt>
      <trkpt lat="42.58727" lon="2.0279">
        <ele>1986</ele>
        <time>2020-07-25T08:08:28.062Z</time>
      </trkpt>
      <trkpt lat="42.58728" lon="2.02793">
        <ele>1985</ele>
        <time>2020-07-25T08:08:29.062Z</time>
      </trkpt>
      <trkpt lat="42.58729" lon="2.02797">
        <ele>1985</ele>
        <time>2020-07-25T08:08:30.062Z</time>
      </trkpt>
      <trkpt lat="42.5873" lon="2.02799">
        <ele>1984</ele>
        <time>2020-07-25T08:08:31.062Z</time>
      </trkpt>
      <trkpt lat="42.58732" lon="2.02802">
        <ele>1982</ele>
        <time>2020-07-25T08:08:32.062Z</time>
      </trkpt>
      <trkpt lat="42.58734" lon="2.02805">
        <ele>1982</ele>
        <time>2020-07-25T08:08:33.062Z</time>
      </trkpt>
      <trkpt lat="42.58736" lon="2.02807">
        <ele>1982</ele>
        <time>2020-07-25T08:08:34.062Z</time>
      </trkpt>
      <trkpt lat="42.58738" lon="2.0281">
        <ele>1982</ele>
        <time>2020-07-25T08:08:35.062Z</time>
      </trkpt>
      <trkpt lat="42.5874" lon="2.02813">
        <ele>1982</ele>
        <time>2020-07-25T08:08:36.062Z</time>
      </trkpt>
      <trkpt lat="42.58742" lon="2.02816">
        <ele>1982</ele>
        <time>2020-07-25T08:08:37.062Z</time>
      </trkpt>
      <trkpt lat="42.58744" lon="2.02819">
        <ele>1981</ele>
        <time>2020-07-25T08:08:38.062Z</time>
      </trkpt>
      <trkpt lat="42.58746" lon="2.02823">
        <ele>1980</ele>
        <time>2020-07-25T08:08:39.062Z</time>
      </trkpt>
      <trkpt lat="42.58748" lon="2.02827">
        <ele>1981</ele>
        <time>2020-07-25T08:08:40.062Z</time>
      </trkpt>
      <trkpt lat="42.5875" lon="2.02833">
        <ele>1981</ele>
        <time>2020-07-25T08:08:41.062Z</time>
      </trkpt>
      <trkpt lat="42.58751" lon="2.02837">
        <ele>1982</ele>
        <time>2020-07-25T08:08:42.062Z</time>
      </trkpt>
      <trkpt lat="42.58752" lon="2.02841">
        <ele>1982</ele>
        <time>2020-07-25T08:08:43.062Z</time>
      </trkpt>
      <trkpt lat="42.58753" lon="2.02844">
        <ele>1982</ele>
        <time>2020-07-25T08:08:44.062Z</time>
      </trkpt>
      <trkpt lat="42.58755" lon="2.02847">
        <ele>1981</ele>
        <time>2020-07-25T08:08:45.062Z</time>
      </trkpt>
      <trkpt lat="42.58756" lon="2.0285">
        <ele>1980</ele>
        <time>2020-07-25T08:08:46.062Z</time>
      </trkpt>
      <trkpt lat="42.58758" lon="2.02853">
        <ele>1979</ele>
        <time>2020-07-25T08:08:47.062Z</time>
      </trkpt>
      <trkpt lat="42.58759" lon="2.02856">
        <ele>1979</ele>
        <time>2020-07-25T08:08:48.062Z</time>
      </trkpt>
      <trkpt lat="42.58761" lon="2.0286">
        <ele>1979</ele>
        <time>2020-07-25T08:08:49.062Z</time>
      </trkpt>
      <trkpt lat="42.58762" lon="2.02863">
        <ele>1978</ele>
        <time>2020-07-25T08:08:50.062Z</time>
      </trkpt>
      <trkpt lat="42.58763" lon="2.02866">
        <ele>1978</ele>
        <time>2020-07-25T08:08:51.062Z</time>
      </trkpt>
      <trkpt lat="42.58764" lon="2.02868">
        <ele>1978</ele>
        <time>2020-07-25T08:08:52.062Z</time>
      </trkpt>
      <trkpt lat="42.58766" lon="2.02871">
        <ele>1978</ele>
        <time>2020-07-25T08:08:53.062Z</time>
      </trkpt>
      <trkpt lat="42.58768" lon="2.02872">
        <ele>1978</ele>
        <time>2020-07-25T08:08:54.062Z</time>
      </trkpt>
      <trkpt lat="42.5877" lon="2.02874">
        <ele>1978</ele>
        <time>2020-07-25T08:08:55.062Z</time>
      </trkpt>
      <trkpt lat="42.58771" lon="2.02876">
        <ele>1977</ele>
        <time>2020-07-25T08:08:56.062Z</time>
      </trkpt>
      <trkpt lat="42.58773" lon="2.02879">
        <ele>1977</ele>
        <time>2020-07-25T08:08:57.062Z</time>
      </trkpt>
      <trkpt lat="42.58774" lon="2.02882">
        <ele>1977</ele>
        <time>2020-07-25T08:08:58.062Z</time>
      </trkpt>
      <trkpt lat="42.58777" lon="2.02884">
        <ele>1977</ele>
        <time>2020-07-25T08:08:59.062Z</time>
      </trkpt>
      <trkpt lat="42.5878" lon="2.02887">
        <ele>1978</ele>
        <time>2020-07-25T08:09:00.062Z</time>
      </trkpt>
      <trkpt lat="42.58783" lon="2.02889">
        <ele>1977</ele>
        <time>2020-07-25T08:09:01.062Z</time>
      </trkpt>
      <trkpt lat="42.58786" lon="2.02891">
        <ele>1977</ele>
        <time>2020-07-25T08:09:02.062Z</time>
      </trkpt>
      <trkpt lat="42.58789" lon="2.02894">
        <ele>1977</ele>
        <time>2020-07-25T08:09:03.062Z</time>
      </trkpt>
      <trkpt lat="42.58791" lon="2.02898">
        <ele>1978</ele>
        <time>2020-07-25T08:09:04.062Z</time>
      </trkpt>
      <trkpt lat="42.58793" lon="2.02901">
        <ele>1978</ele>
        <time>2020-07-25T08:09:05.062Z</time>
      </trkpt>
      <trkpt lat="42.58794" lon="2.02905">
        <ele>1977</ele>
        <time>2020-07-25T08:09:06.062Z</time>
      </trkpt>
      <trkpt lat="42.58795" lon="2.02908">
        <ele>1977</ele>
        <time>2020-07-25T08:09:07.062Z</time>
      </trkpt>
      <trkpt lat="42.58796" lon="2.02912">
        <ele>1977</ele>
        <time>2020-07-25T08:09:08.062Z</time>
      </trkpt>
      <trkpt lat="42.58797" lon="2.02915">
        <ele>1977</ele>
        <time>2020-07-25T08:09:09.062Z</time>
      </trkpt>
      <trkpt lat="42.58798" lon="2.02919">
        <ele>1976</ele>
        <time>2020-07-25T08:09:10.062Z</time>
      </trkpt>
      <trkpt lat="42.588" lon="2.02923">
        <ele>1976</ele>
        <time>2020-07-25T08:09:11.062Z</time>
      </trkpt>
      <trkpt lat="42.58801" lon="2.02927">
        <ele>1976</ele>
        <time>2020-07-25T08:09:12.062Z</time>
      </trkpt>
      <trkpt lat="42.58801" lon="2.0293">
        <ele>1975</ele>
        <time>2020-07-25T08:09:13.062Z</time>
      </trkpt>
      <trkpt lat="42.58801" lon="2.02934">
        <ele>1975</ele>
        <time>2020-07-25T08:09:14.062Z</time>
      </trkpt>
      <trkpt lat="42.58802" lon="2.02938">
        <ele>1975</ele>
        <time>2020-07-25T08:09:15.062Z</time>
      </trkpt>
      <trkpt lat="42.58802" lon="2.02942">
        <ele>1975</ele>
        <time>2020-07-25T08:09:16.062Z</time>
      </trkpt>
      <trkpt lat="42.58802" lon="2.02946">
        <ele>1975</ele>
        <time>2020-07-25T08:09:17.062Z</time>
      </trkpt>
      <trkpt lat="42.58803" lon="2.02949">
        <ele>1973</ele>
        <time>2020-07-25T08:09:18.062Z</time>
      </trkpt>
      <trkpt lat="42.58805" lon="2.02952">
        <ele>1974</ele>
        <time>2020-07-25T08:09:19.062Z</time>
      </trkpt>
      <trkpt lat="42.58806" lon="2.02955">
        <ele>1974</ele>
        <time>2020-07-25T08:09:20.062Z</time>
      </trkpt>
      <trkpt lat="42.58807" lon="2.02958">
        <ele>1974</ele>
        <time>2020-07-25T08:09:21.062Z</time>
      </trkpt>
      <trkpt lat="42.58809" lon="2.02961">
        <ele>1974</ele>
        <time>2020-07-25T08:09:22.062Z</time>
      </trkpt>
      <trkpt lat="42.5881" lon="2.02964">
        <ele>1975</ele>
        <time>2020-07-25T08:09:23.062Z</time>
      </trkpt>
      <trkpt lat="42.58813" lon="2.02968">
        <ele>1976</ele>
        <time>2020-07-25T08:09:24.062Z</time>
      </trkpt>
      <trkpt lat="42.58815" lon="2.02971">
        <ele>1977</ele>
        <time>2020-07-25T08:09:25.062Z</time>
      </trkpt>
      <trkpt lat="42.58817" lon="2.02975">
        <ele>1977</ele>
        <time>2020-07-25T08:09:26.062Z</time>
      </trkpt>
      <trkpt lat="42.58819" lon="2.02978">
        <ele>1977</ele>
        <time>2020-07-25T08:09:27.062Z</time>
      </trkpt>
      <trkpt lat="42.58821" lon="2.02981">
        <ele>1976</ele>
        <time>2020-07-25T08:09:28.062Z</time>
      </trkpt>
      <trkpt lat="42.58823" lon="2.02984">
        <ele>1976</ele>
        <time>2020-07-25T08:09:29.062Z</time>
      </trkpt>
      <trkpt lat="42.58825" lon="2.02988">
        <ele>1975</ele>
        <time>2020-07-25T08:09:30.062Z</time>
      </trkpt>
      <trkpt lat="42.58827" lon="2.02992">
        <ele>1975</ele>
        <time>2020-07-25T08:09:31.062Z</time>
      </trkpt>
      <trkpt lat="42.58829" lon="2.02995">
        <ele>1976</ele>
        <time>2020-07-25T08:09:32.062Z</time>
      </trkpt>
      <trkpt lat="42.58831" lon="2.02998">
        <ele>1977</ele>
        <time>2020-07-25T08:09:33.062Z</time>
      </trkpt>
      <trkpt lat="42.58833" lon="2.03002">
        <ele>1977</ele>
        <time>2020-07-25T08:09:34.062Z</time>
      </trkpt>
      <trkpt lat="42.58835" lon="2.03006">
        <ele>1976</ele>
        <time>2020-07-25T08:09:35.062Z</time>
      </trkpt>
      <trkpt lat="42.58837" lon="2.03011">
        <ele>1977</ele>
        <time>2020-07-25T08:09:36.062Z</time>
      </trkpt>
      <trkpt lat="42.58839" lon="2.03015">
        <ele>1976</ele>
        <time>2020-07-25T08:09:37.062Z</time>
      </trkpt>
      <trkpt lat="42.5884" lon="2.03018">
        <ele>1975</ele>
        <time>2020-07-25T08:09:38.062Z</time>
      </trkpt>
      <trkpt lat="42.58841" lon="2.03021">
        <ele>1973</ele>
        <time>2020-07-25T08:09:39.062Z</time>
      </trkpt>
      <trkpt lat="42.58842" lon="2.03024">
        <ele>1970</ele>
        <time>2020-07-25T08:09:40.062Z</time>
      </trkpt>
      <trkpt lat="42.58842" lon="2.03029">
        <ele>1966</ele>
        <time>2020-07-25T08:09:41.062Z</time>
      </trkpt>
      <trkpt lat="42.58843" lon="2.03035">
        <ele>1964</ele>
        <time>2020-07-25T08:09:42.062Z</time>
      </trkpt>
      <trkpt lat="42.58843" lon="2.03042">
        <ele>1963</ele>
        <time>2020-07-25T08:09:43.062Z</time>
      </trkpt>
      <trkpt lat="42.58842" lon="2.03048">
        <ele>1962</ele>
        <time>2020-07-25T08:09:44.062Z</time>
      </trkpt>
      <trkpt lat="42.58841" lon="2.03052">
        <ele>1962</ele>
        <time>2020-07-25T08:09:45.062Z</time>
      </trkpt>
      <trkpt lat="42.58841" lon="2.03056">
        <ele>1961</ele>
        <time>2020-07-25T08:09:46.062Z</time>
      </trkpt>
      <trkpt lat="42.58841" lon="2.0306">
        <ele>1960</ele>
        <time>2020-07-25T08:09:47.062Z</time>
      </trkpt>
      <trkpt lat="42.5884" lon="2.03064">
        <ele>1959</ele>
        <time>2020-07-25T08:09:48.062Z</time>
      </trkpt>
      <trkpt lat="42.5884" lon="2.03068">
        <ele>1958</ele>
        <time>2020-07-25T08:09:49.062Z</time>
      </trkpt>
      <trkpt lat="42.5884" lon="2.03071">
        <ele>1958</ele>
        <time>2020-07-25T08:09:50.062Z</time>
      </trkpt>
      <trkpt lat="42.5884" lon="2.03075">
        <ele>1959</ele>
        <time>2020-07-25T08:09:51.062Z</time>
      </trkpt>
      <trkpt lat="42.58841" lon="2.03079">
        <ele>1959</ele>
        <time>2020-07-25T08:09:52.062Z</time>
      </trkpt>
      <trkpt lat="42.58841" lon="2.03083">
        <ele>1959</ele>
        <time>2020-07-25T08:09:53.062Z</time>
      </trkpt>
      <trkpt lat="42.58842" lon="2.03087">
        <ele>1959</ele>
        <time>2020-07-25T08:09:54.062Z</time>
      </trkpt>
      <trkpt lat="42.58842" lon="2.03091">
        <ele>1958</ele>
        <time>2020-07-25T08:09:55.062Z</time>
      </trkpt>
      <trkpt lat="42.58842" lon="2.03095">
        <ele>1959</ele>
        <time>2020-07-25T08:09:56.062Z</time>
      </trkpt>
      <trkpt lat="42.58842" lon="2.031">
        <ele>1961</ele>
        <time>2020-07-25T08:09:57.062Z</time>
      </trkpt>
      <trkpt lat="42.58843" lon="2.03104">
        <ele>1961</ele>
        <time>2020-07-25T08:09:58.062Z</time>
      </trkpt>
      <trkpt lat="42.58843" lon="2.03108">
        <ele>1961</ele>
        <time>2020-07-25T08:09:59.062Z</time>
      </trkpt>
      <trkpt lat="42.58844" lon="2.03112">
        <ele>1963</ele>
        <time>2020-07-25T08:10:00.062Z</time>
      </trkpt>
      <trkpt lat="42.58844" lon="2.03116">
        <ele>1962</ele>
        <time>2020-07-25T08:10:01.062Z</time>
      </trkpt>
      <trkpt lat="42.58843" lon="2.03121">
        <ele>1961</ele>
        <time>2020-07-25T08:10:02.062Z</time>
      </trkpt>
      <trkpt lat="42.58843" lon="2.03125">
        <ele>1962</ele>
        <time>2020-07-25T08:10:03.062Z</time>
      </trkpt>
      <trkpt lat="42.58842" lon="2.03128">
        <ele>1963</ele>
        <time>2020-07-25T08:10:04.062Z</time>
      </trkpt>
      <trkpt lat="42.58842" lon="2.03133">
        <ele>1964</ele>
        <time>2020-07-25T08:10:05.062Z</time>
      </trkpt>
      <trkpt lat="42.58842" lon="2.03138">
        <ele>1966</ele>
        <time>2020-07-25T08:10:06.062Z</time>
      </trkpt>
      <trkpt lat="42.58842" lon="2.03144">
        <ele>1966</ele>
        <time>2020-07-25T08:10:07.062Z</time>
      </trkpt>
      <trkpt lat="42.58842" lon="2.0315">
        <ele>1967</ele>
        <time>2020-07-25T08:10:08.062Z</time>
      </trkpt>
      <trkpt lat="42.58843" lon="2.03154">
        <ele>1968</ele>
        <time>2020-07-25T08:10:09.062Z</time>
      </trkpt>
      <trkpt lat="42.58843" lon="2.03158">
        <ele>1968</ele>
        <time>2020-07-25T08:10:10.062Z</time>
      </trkpt>
      <trkpt lat="42.58843" lon="2.03162">
        <ele>1968</ele>
        <time>2020-07-25T08:10:11.062Z</time>
      </trkpt>
      <trkpt lat="42.58843" lon="2.03165">
        <ele>1968</ele>
        <time>2020-07-25T08:10:12.062Z</time>
      </trkpt>
      <trkpt lat="42.58843" lon="2.03169">
        <ele>1968</ele>
        <time>2020-07-25T08:10:13.062Z</time>
      </trkpt>
      <trkpt lat="42.58843" lon="2.03171">
        <ele>1968</ele>
        <time>2020-07-25T08:10:14.062Z</time>
      </trkpt>
      <trkpt lat="42.58843" lon="2.03174">
        <ele>1968</ele>
        <time>2020-07-25T08:10:15.062Z</time>
      </trkpt>
      <trkpt lat="42.58842" lon="2.03176">
        <ele>1969</ele>
        <time>2020-07-25T08:10:16.062Z</time>
      </trkpt>
      <trkpt lat="42.58842" lon="2.03179">
        <ele>1969</ele>
        <time>2020-07-25T08:10:17.062Z</time>
      </trkpt>
      <trkpt lat="42.58842" lon="2.03181">
        <ele>1969</ele>
        <time>2020-07-25T08:10:18.062Z</time>
      </trkpt>
      <trkpt lat="42.58842" lon="2.03184">
        <ele>1974</ele>
        <time>2020-07-25T08:10:19.062Z</time>
      </trkpt>
      <trkpt lat="42.58843" lon="2.03188">
        <ele>1975</ele>
        <time>2020-07-25T08:10:20.062Z</time>
      </trkpt>
      <trkpt lat="42.58844" lon="2.03191">
        <ele>1976</ele>
        <time>2020-07-25T08:10:21.062Z</time>
      </trkpt>
      <trkpt lat="42.58844" lon="2.03194">
        <ele>1977</ele>
        <time>2020-07-25T08:10:22.062Z</time>
      </trkpt>
      <trkpt lat="42.58844" lon="2.03196">
        <ele>1977</ele>
        <time>2020-07-25T08:10:23.062Z</time>
      </trkpt>
      <trkpt lat="42.58845" lon="2.03198">
        <ele>1978</ele>
        <time>2020-07-25T08:10:24.062Z</time>
      </trkpt>
      <trkpt lat="42.58847" lon="2.032">
        <ele>1976</ele>
        <time>2020-07-25T08:10:25.062Z</time>
      </trkpt>
      <trkpt lat="42.58848" lon="2.03202">
        <ele>1978</ele>
        <time>2020-07-25T08:10:26.062Z</time>
      </trkpt>
      <trkpt lat="42.58849" lon="2.03205">
        <ele>1975</ele>
        <time>2020-07-25T08:10:27.062Z</time>
      </trkpt>
      <trkpt lat="42.5885" lon="2.03208">
        <ele>1973</ele>
        <time>2020-07-25T08:10:28.062Z</time>
      </trkpt>
      <trkpt lat="42.58851" lon="2.03211">
        <ele>1973</ele>
        <time>2020-07-25T08:10:29.062Z</time>
      </trkpt>
      <trkpt lat="42.58852" lon="2.03214">
        <ele>1972</ele>
        <time>2020-07-25T08:10:30.062Z</time>
      </trkpt>
      <trkpt lat="42.58853" lon="2.03216">
        <ele>1973</ele>
        <time>2020-07-25T08:10:31.062Z</time>
      </trkpt>
      <trkpt lat="42.58854" lon="2.03218">
        <ele>1971</ele>
        <time>2020-07-25T08:10:32.062Z</time>
      </trkpt>
      <trkpt lat="42.58855" lon="2.0322">
        <ele>1970</ele>
        <time>2020-07-25T08:10:33.062Z</time>
      </trkpt>
      <trkpt lat="42.58855" lon="2.03223">
        <ele>1969</ele>
        <time>2020-07-25T08:10:34.062Z</time>
      </trkpt>
      <trkpt lat="42.58855" lon="2.03226">
        <ele>1968</ele>
        <time>2020-07-25T08:10:35.062Z</time>
      </trkpt>
      <trkpt lat="42.58855" lon="2.03229">
        <ele>1969</ele>
        <time>2020-07-25T08:10:36.062Z</time>
      </trkpt>
      <trkpt lat="42.58855" lon="2.03232">
        <ele>1969</ele>
        <time>2020-07-25T08:10:37.062Z</time>
      </trkpt>
      <trkpt lat="42.58855" lon="2.03235">
        <ele>1969</ele>
        <time>2020-07-25T08:10:38.062Z</time>
      </trkpt>
      <trkpt lat="42.58856" lon="2.03237">
        <ele>1969</ele>
        <time>2020-07-25T08:10:39.062Z</time>
      </trkpt>
      <trkpt lat="42.58857" lon="2.0324">
        <ele>1970</ele>
        <time>2020-07-25T08:10:40.062Z</time>
      </trkpt>
      <trkpt lat="42.58859" lon="2.03243">
        <ele>1969</ele>
        <time>2020-07-25T08:10:41.062Z</time>
      </trkpt>
      <trkpt lat="42.58859" lon="2.03246">
        <ele>1969</ele>
        <time>2020-07-25T08:10:42.062Z</time>
      </trkpt>
      <trkpt lat="42.58861" lon="2.03249">
        <ele>1969</ele>
        <time>2020-07-25T08:10:43.062Z</time>
      </trkpt>
      <trkpt lat="42.58863" lon="2.03252">
        <ele>1969</ele>
        <time>2020-07-25T08:10:44.062Z</time>
      </trkpt>
      <trkpt lat="42.58865" lon="2.03256">
        <ele>1969</ele>
        <time>2020-07-25T08:10:45.062Z</time>
      </trkpt>
      <trkpt lat="42.58867" lon="2.03259">
        <ele>1967</ele>
        <time>2020-07-25T08:10:46.062Z</time>
      </trkpt>
      <trkpt lat="42.58868" lon="2.03262">
        <ele>1965</ele>
        <time>2020-07-25T08:10:47.062Z</time>
      </trkpt>
      <trkpt lat="42.58869" lon="2.03266">
        <ele>1964</ele>
        <time>2020-07-25T08:10:48.062Z</time>
      </trkpt>
      <trkpt lat="42.5887" lon="2.03269">
        <ele>1963</ele>
        <time>2020-07-25T08:10:49.062Z</time>
      </trkpt>
      <trkpt lat="42.58871" lon="2.03273">
        <ele>1962</ele>
        <time>2020-07-25T08:10:50.062Z</time>
      </trkpt>
      <trkpt lat="42.58871" lon="2.03278">
        <ele>1962</ele>
        <time>2020-07-25T08:10:51.062Z</time>
      </trkpt>
      <trkpt lat="42.58871" lon="2.03283">
        <ele>1964</ele>
        <time>2020-07-25T08:10:52.062Z</time>
      </trkpt>
      <trkpt lat="42.58872" lon="2.03288">
        <ele>1965</ele>
        <time>2020-07-25T08:10:53.062Z</time>
      </trkpt>
      <trkpt lat="42.58873" lon="2.03291">
        <ele>1965</ele>
        <time>2020-07-25T08:10:54.062Z</time>
      </trkpt>
      <trkpt lat="42.58873" lon="2.03294">
        <ele>1966</ele>
        <time>2020-07-25T08:10:55.062Z</time>
      </trkpt>
      <trkpt lat="42.58874" lon="2.03297">
        <ele>1966</ele>
        <time>2020-07-25T08:10:56.062Z</time>
      </trkpt>
      <trkpt lat="42.58875" lon="2.03299">
        <ele>1963</ele>
        <time>2020-07-25T08:10:57.062Z</time>
      </trkpt>
      <trkpt lat="42.58876" lon="2.03303">
        <ele>1958</ele>
        <time>2020-07-25T08:10:58.062Z</time>
      </trkpt>
      <trkpt lat="42.58877" lon="2.03309">
        <ele>1957</ele>
        <time>2020-07-25T08:10:59.062Z</time>
      </trkpt>
      <trkpt lat="42.58877" lon="2.03313">
        <ele>1958</ele>
        <time>2020-07-25T08:11:00.062Z</time>
      </trkpt>
      <trkpt lat="42.58878" lon="2.03317">
        <ele>1957</ele>
        <time>2020-07-25T08:11:01.062Z</time>
      </trkpt>
      <trkpt lat="42.58879" lon="2.03321">
        <ele>1957</ele>
        <time>2020-07-25T08:11:02.062Z</time>
      </trkpt>
      <trkpt lat="42.58879" lon="2.03324">
        <ele>1955</ele>
        <time>2020-07-25T08:11:03.062Z</time>
      </trkpt>
      <trkpt lat="42.58879" lon="2.03327">
        <ele>1955</ele>
        <time>2020-07-25T08:11:04.062Z</time>
      </trkpt>
      <trkpt lat="42.58879" lon="2.03331">
        <ele>1956</ele>
        <time>2020-07-25T08:11:05.062Z</time>
      </trkpt>
      <trkpt lat="42.58879" lon="2.03333">
        <ele>1956</ele>
        <time>2020-07-25T08:11:06.062Z</time>
      </trkpt>
      <trkpt lat="42.58879" lon="2.03336">
        <ele>1957</ele>
        <time>2020-07-25T08:11:07.062Z</time>
      </trkpt>
      <trkpt lat="42.58879" lon="2.0334">
        <ele>1956</ele>
        <time>2020-07-25T08:11:08.062Z</time>
      </trkpt>
      <trkpt lat="42.58878" lon="2.03344">
        <ele>1956</ele>
        <time>2020-07-25T08:11:09.062Z</time>
      </trkpt>
      <trkpt lat="42.58878" lon="2.03349">
        <ele>1956</ele>
        <time>2020-07-25T08:11:10.062Z</time>
      </trkpt>
      <trkpt lat="42.58878" lon="2.03354">
        <ele>1957</ele>
        <time>2020-07-25T08:11:11.062Z</time>
      </trkpt>
      <trkpt lat="42.58879" lon="2.03359">
        <ele>1957</ele>
        <time>2020-07-25T08:11:12.062Z</time>
      </trkpt>
      <trkpt lat="42.58879" lon="2.03364">
        <ele>1956</ele>
        <time>2020-07-25T08:11:13.062Z</time>
      </trkpt>
      <trkpt lat="42.5888" lon="2.0337">
        <ele>1955</ele>
        <time>2020-07-25T08:11:14.062Z</time>
      </trkpt>
      <trkpt lat="42.5888" lon="2.03376">
        <ele>1954</ele>
        <time>2020-07-25T08:11:15.062Z</time>
      </trkpt>
      <trkpt lat="42.5888" lon="2.03381">
        <ele>1955</ele>
        <time>2020-07-25T08:11:16.062Z</time>
      </trkpt>
      <trkpt lat="42.5888" lon="2.03385">
        <ele>1955</ele>
        <time>2020-07-25T08:11:17.062Z</time>
      </trkpt>
      <trkpt lat="42.58881" lon="2.0339">
        <ele>1955</ele>
        <time>2020-07-25T08:11:18.062Z</time>
      </trkpt>
      <trkpt lat="42.58881" lon="2.03393">
        <ele>1954</ele>
        <time>2020-07-25T08:11:19.062Z</time>
      </trkpt>
      <trkpt lat="42.58882" lon="2.03397">
        <ele>1954</ele>
        <time>2020-07-25T08:11:20.062Z</time>
      </trkpt>
      <trkpt lat="42.58882" lon="2.03401">
        <ele>1954</ele>
        <time>2020-07-25T08:11:21.062Z</time>
      </trkpt>
      <trkpt lat="42.58882" lon="2.03406">
        <ele>1953</ele>
        <time>2020-07-25T08:11:22.062Z</time>
      </trkpt>
      <trkpt lat="42.58882" lon="2.03411">
        <ele>1954</ele>
        <time>2020-07-25T08:11:23.062Z</time>
      </trkpt>
      <trkpt lat="42.58882" lon="2.03415">
        <ele>1954</ele>
        <time>2020-07-25T08:11:24.062Z</time>
      </trkpt>
      <trkpt lat="42.58882" lon="2.03418">
        <ele>1954</ele>
        <time>2020-07-25T08:11:25.062Z</time>
      </trkpt>
      <trkpt lat="42.58882" lon="2.03421">
        <ele>1955</ele>
        <time>2020-07-25T08:11:26.062Z</time>
      </trkpt>
      <trkpt lat="42.58884" lon="2.03424">
        <ele>1954</ele>
        <time>2020-07-25T08:11:27.062Z</time>
      </trkpt>
      <trkpt lat="42.58885" lon="2.03427">
        <ele>1955</ele>
        <time>2020-07-25T08:11:28.062Z</time>
      </trkpt>
      <trkpt lat="42.58886" lon="2.0343">
        <ele>1956</ele>
        <time>2020-07-25T08:11:29.062Z</time>
      </trkpt>
      <trkpt lat="42.58886" lon="2.03433">
        <ele>1957</ele>
        <time>2020-07-25T08:11:30.062Z</time>
      </trkpt>
      <trkpt lat="42.58886" lon="2.03436">
        <ele>1958</ele>
        <time>2020-07-25T08:11:31.062Z</time>
      </trkpt>
      <trkpt lat="42.58885" lon="2.0344">
        <ele>1959</ele>
        <time>2020-07-25T08:11:32.062Z</time>
      </trkpt>
      <trkpt lat="42.58885" lon="2.03443">
        <ele>1961</ele>
        <time>2020-07-25T08:11:33.062Z</time>
      </trkpt>
      <trkpt lat="42.58885" lon="2.03446">
        <ele>1962</ele>
        <time>2020-07-25T08:11:34.062Z</time>
      </trkpt>
      <trkpt lat="42.58886" lon="2.03449">
        <ele>1962</ele>
        <time>2020-07-25T08:11:35.062Z</time>
      </trkpt>
      <trkpt lat="42.58887" lon="2.03452">
        <ele>1962</ele>
        <time>2020-07-25T08:11:36.062Z</time>
      </trkpt>
      <trkpt lat="42.58889" lon="2.03454">
        <ele>1963</ele>
        <time>2020-07-25T08:11:37.062Z</time>
      </trkpt>
      <trkpt lat="42.58892" lon="2.03456">
        <ele>1964</ele>
        <time>2020-07-25T08:11:38.062Z</time>
      </trkpt>
      <trkpt lat="42.58895" lon="2.03458">
        <ele>1965</ele>
        <time>2020-07-25T08:11:39.062Z</time>
      </trkpt>
      <trkpt lat="42.58896" lon="2.0346">
        <ele>1966</ele>
        <time>2020-07-25T08:11:40.062Z</time>
      </trkpt>
      <trkpt lat="42.58897" lon="2.03461">
        <ele>1966</ele>
        <time>2020-07-25T08:11:41.062Z</time>
      </trkpt>
      <trkpt lat="42.58898" lon="2.03463">
        <ele>1968</ele>
        <time>2020-07-25T08:11:42.062Z</time>
      </trkpt>
      <trkpt lat="42.58898" lon="2.03465">
        <ele>1969</ele>
        <time>2020-07-25T08:11:43.062Z</time>
      </trkpt>
      <trkpt lat="42.58899" lon="2.03466">
        <ele>1970</ele>
        <time>2020-07-25T08:11:44.062Z</time>
      </trkpt>
      <trkpt lat="42.589" lon="2.03468">
        <ele>1971</ele>
        <time>2020-07-25T08:11:45.062Z</time>
      </trkpt>
      <trkpt lat="42.58901" lon="2.03469">
        <ele>1970</ele>
        <time>2020-07-25T08:11:46.062Z</time>
      </trkpt>
      <trkpt lat="42.58901" lon="2.0347">
        <ele>1970</ele>
        <time>2020-07-25T08:11:47.062Z</time>
      </trkpt>
      <trkpt lat="42.58901" lon="2.03472">
        <ele>1970</ele>
        <time>2020-07-25T08:11:48.062Z</time>
      </trkpt>
      <trkpt lat="42.58901" lon="2.03473">
        <ele>1970</ele>
        <time>2020-07-25T08:11:49.062Z</time>
      </trkpt>
      <trkpt lat="42.58901" lon="2.03474">
        <ele>1969</ele>
        <time>2020-07-25T08:11:50.062Z</time>
      </trkpt>
      <trkpt lat="42.58901" lon="2.03475">
        <ele>1967</ele>
        <time>2020-07-25T08:11:51.062Z</time>
      </trkpt>
      <trkpt lat="42.58902" lon="2.03477">
        <ele>1967</ele>
        <time>2020-07-25T08:11:52.062Z</time>
      </trkpt>
      <trkpt lat="42.58903" lon="2.03478">
        <ele>1966</ele>
        <time>2020-07-25T08:11:53.062Z</time>
      </trkpt>
      <trkpt lat="42.58905" lon="2.03478">
        <ele>1965</ele>
        <time>2020-07-25T08:11:54.062Z</time>
      </trkpt>
      <trkpt lat="42.58907" lon="2.03479">
        <ele>1963</ele>
        <time>2020-07-25T08:11:55.062Z</time>
      </trkpt>
      <trkpt lat="42.58909" lon="2.0348">
        <ele>1961</ele>
        <time>2020-07-25T08:11:56.062Z</time>
      </trkpt>
      <trkpt lat="42.5891" lon="2.03482">
        <ele>1958</ele>
        <time>2020-07-25T08:11:57.062Z</time>
      </trkpt>
      <trkpt lat="42.5891" lon="2.03485">
        <ele>1957</ele>
        <time>2020-07-25T08:11:58.062Z</time>
      </trkpt>
      <trkpt lat="42.58911" lon="2.03487">
        <ele>1957</ele>
        <time>2020-07-25T08:11:59.062Z</time>
      </trkpt>
      <trkpt lat="42.58911" lon="2.03489">
        <ele>1957</ele>
        <time>2020-07-25T08:12:00.062Z</time>
      </trkpt>
      <trkpt lat="42.58911" lon="2.03492">
        <ele>1956</ele>
        <time>2020-07-25T08:12:01.062Z</time>
      </trkpt>
      <trkpt lat="42.5891" lon="2.03495">
        <ele>1956</ele>
        <time>2020-07-25T08:12:02.062Z</time>
      </trkpt>
      <trkpt lat="42.58909" lon="2.03498">
        <ele>1956</ele>
        <time>2020-07-25T08:12:03.062Z</time>
      </trkpt>
      <trkpt lat="42.58909" lon="2.03501">
        <ele>1956</ele>
        <time>2020-07-25T08:12:04.062Z</time>
      </trkpt>
      <trkpt lat="42.58908" lon="2.03504">
        <ele>1956</ele>
        <time>2020-07-25T08:12:05.062Z</time>
      </trkpt>
      <trkpt lat="42.58908" lon="2.03506">
        <ele>1955</ele>
        <time>2020-07-25T08:12:06.062Z</time>
      </trkpt>
      <trkpt lat="42.58908" lon="2.03508">
        <ele>1955</ele>
        <time>2020-07-25T08:12:07.062Z</time>
      </trkpt>
      <trkpt lat="42.58907" lon="2.03509">
        <ele>1955</ele>
        <time>2020-07-25T08:12:08.062Z</time>
      </trkpt>
      <trkpt lat="42.58907" lon="2.0351">
        <ele>1955</ele>
        <time>2020-07-25T08:12:09.062Z</time>
      </trkpt>
      <trkpt lat="42.58907" lon="2.03512">
        <ele>1955</ele>
        <time>2020-07-25T08:12:10.062Z</time>
      </trkpt>
      <trkpt lat="42.58907" lon="2.03513">
        <ele>1955</ele>
        <time>2020-07-25T08:12:11.062Z</time>
      </trkpt>
      <trkpt lat="42.58907" lon="2.03514">
        <ele>1954</ele>
        <time>2020-07-25T08:12:12.062Z</time>
      </trkpt>
      <trkpt lat="42.58907" lon="2.03514">
        <ele>1953</ele>
        <time>2020-07-25T08:12:13.062Z</time>
      </trkpt>
      <trkpt lat="42.58908" lon="2.03514">
        <ele>1953</ele>
        <time>2020-07-25T08:12:14.062Z</time>
      </trkpt>
      <trkpt lat="42.58909" lon="2.03515">
        <ele>1953</ele>
        <time>2020-07-25T08:12:15.062Z</time>
      </trkpt>
      <trkpt lat="42.58909" lon="2.03515">
        <ele>1952</ele>
        <time>2020-07-25T08:12:16.062Z</time>
      </trkpt>
      <trkpt lat="42.58908" lon="2.03516">
        <ele>1952</ele>
        <time>2020-07-25T08:12:17.062Z</time>
      </trkpt>
      <trkpt lat="42.58907" lon="2.03516">
        <ele>1954</ele>
        <time>2020-07-25T08:12:18.062Z</time>
      </trkpt>
      <trkpt lat="42.58907" lon="2.03517">
        <ele>1956</ele>
        <time>2020-07-25T08:12:19.062Z</time>
      </trkpt>
      <trkpt lat="42.58908" lon="2.03518">
        <ele>1955</ele>
        <time>2020-07-25T08:12:20.062Z</time>
      </trkpt>
      <trkpt lat="42.58908" lon="2.03518">
        <ele>1955</ele>
        <time>2020-07-25T08:12:21.062Z</time>
      </trkpt>
      <trkpt lat="42.58908" lon="2.03518">
        <ele>1955</ele>
        <time>2020-07-25T08:12:22.062Z</time>
      </trkpt>
      <trkpt lat="42.58908" lon="2.03519">
        <ele>1955</ele>
        <time>2020-07-25T08:12:23.062Z</time>
      </trkpt>
      <trkpt lat="42.58909" lon="2.03519">
        <ele>1955</ele>
        <time>2020-07-25T08:12:24.062Z</time>
      </trkpt>
      <trkpt lat="42.58909" lon="2.03518">
        <ele>1954</ele>
        <time>2020-07-25T08:12:25.062Z</time>
      </trkpt>
      <trkpt lat="42.58909" lon="2.03518">
        <ele>1953</ele>
        <time>2020-07-25T08:12:26.062Z</time>
      </trkpt>
      <trkpt lat="42.58909" lon="2.03518">
        <ele>1953</ele>
        <time>2020-07-25T08:12:27.062Z</time>
      </trkpt>
      <trkpt lat="42.5891" lon="2.03517">
        <ele>1953</ele>
        <time>2020-07-25T08:12:28.062Z</time>
      </trkpt>
      <trkpt lat="42.5891" lon="2.03517">
        <ele>1953</ele>
        <time>2020-07-25T08:12:29.062Z</time>
      </trkpt>
      <trkpt lat="42.58911" lon="2.03517">
        <ele>1953</ele>
        <time>2020-07-25T08:12:30.062Z</time>
      </trkpt>
      <trkpt lat="42.58912" lon="2.03517">
        <ele>1952</ele>
        <time>2020-07-25T08:12:31.062Z</time>
      </trkpt>
      <trkpt lat="42.58912" lon="2.03517">
        <ele>1951</ele>
        <time>2020-07-25T08:12:32.062Z</time>
      </trkpt>
      <trkpt lat="42.5891" lon="2.03522">
        <ele>1949</ele>
        <time>2020-07-25T08:12:33.066Z</time>
      </trkpt>
      <trkpt lat="42.5891" lon="2.03522">
        <ele>1949</ele>
        <time>2020-07-25T08:12:34.066Z</time>
      </trkpt>
      <trkpt lat="42.5891" lon="2.03523">
        <ele>1948</ele>
        <time>2020-07-25T08:12:35.066Z</time>
      </trkpt>
      <trkpt lat="42.58911" lon="2.03523">
        <ele>1948</ele>
        <time>2020-07-25T08:12:36.066Z</time>
      </trkpt>
      <trkpt lat="42.58911" lon="2.03523">
        <ele>1948</ele>
        <time>2020-07-25T08:12:37.066Z</time>
      </trkpt>
      <trkpt lat="42.58912" lon="2.03523">
        <ele>1948</ele>
        <time>2020-07-25T08:12:38.066Z</time>
      </trkpt>
      <trkpt lat="42.58913" lon="2.03523">
        <ele>1949</ele>
        <time>2020-07-25T08:12:39.066Z</time>
      </trkpt>
      <trkpt lat="42.58914" lon="2.03523">
        <ele>1949</ele>
        <time>2020-07-25T08:12:40.066Z</time>
      </trkpt>
      <trkpt lat="42.58915" lon="2.03523">
        <ele>1948</ele>
        <time>2020-07-25T08:12:41.066Z</time>
      </trkpt>
      <trkpt lat="42.58916" lon="2.03524">
        <ele>1948</ele>
        <time>2020-07-25T08:12:42.066Z</time>
      </trkpt>
      <trkpt lat="42.58916" lon="2.03525">
        <ele>1949</ele>
        <time>2020-07-25T08:12:43.066Z</time>
      </trkpt>
      <trkpt lat="42.58917" lon="2.03526">
        <ele>1949</ele>
        <time>2020-07-25T08:12:44.066Z</time>
      </trkpt>
      <trkpt lat="42.58918" lon="2.03527">
        <ele>1950</ele>
        <time>2020-07-25T08:12:45.066Z</time>
      </trkpt>
      <trkpt lat="42.58919" lon="2.03527">
        <ele>1950</ele>
        <time>2020-07-25T08:12:46.066Z</time>
      </trkpt>
      <trkpt lat="42.5892" lon="2.03528">
        <ele>1950</ele>
        <time>2020-07-25T08:12:47.066Z</time>
      </trkpt>
      <trkpt lat="42.5892" lon="2.03529">
        <ele>1950</ele>
        <time>2020-07-25T08:12:48.066Z</time>
      </trkpt>
      <trkpt lat="42.58921" lon="2.0353">
        <ele>1951</ele>
        <time>2020-07-25T08:12:49.066Z</time>
      </trkpt>
      <trkpt lat="42.58921" lon="2.03531">
        <ele>1950</ele>
        <time>2020-07-25T08:12:50.066Z</time>
      </trkpt>
      <trkpt lat="42.58922" lon="2.03531">
        <ele>1952</ele>
        <time>2020-07-25T08:12:51.066Z</time>
      </trkpt>
      <trkpt lat="42.58922" lon="2.03532">
        <ele>1952</ele>
        <time>2020-07-25T08:12:52.066Z</time>
      </trkpt>
      <trkpt lat="42.58922" lon="2.03533">
        <ele>1953</ele>
        <time>2020-07-25T08:12:53.066Z</time>
      </trkpt>
      <trkpt lat="42.58923" lon="2.03534">
        <ele>1954</ele>
        <time>2020-07-25T08:12:54.066Z</time>
      </trkpt>
      <trkpt lat="42.58923" lon="2.03535">
        <ele>1952</ele>
        <time>2020-07-25T08:12:55.066Z</time>
      </trkpt>
      <trkpt lat="42.58924" lon="2.03535">
        <ele>1952</ele>
        <time>2020-07-25T08:12:56.066Z</time>
      </trkpt>
      <trkpt lat="42.58924" lon="2.03535">
        <ele>1951</ele>
        <time>2020-07-25T08:12:57.066Z</time>
      </trkpt>
      <trkpt lat="42.58924" lon="2.03536">
        <ele>1951</ele>
        <time>2020-07-25T08:12:58.066Z</time>
      </trkpt>
      <trkpt lat="42.58925" lon="2.03539">
        <ele>1944</ele>
        <time>2020-07-25T08:12:59.066Z</time>
      </trkpt>
      <trkpt lat="42.58926" lon="2.03541">
        <ele>1944</ele>
        <time>2020-07-25T08:13:00.066Z</time>
      </trkpt>
      <trkpt lat="42.58927" lon="2.03543">
        <ele>1942</ele>
        <time>2020-07-25T08:13:01.066Z</time>
      </trkpt>
      <trkpt lat="42.58928" lon="2.03545">
        <ele>1942</ele>
        <time>2020-07-25T08:13:02.066Z</time>
      </trkpt>
      <trkpt lat="42.58929" lon="2.03546">
        <ele>1941</ele>
        <time>2020-07-25T08:13:03.066Z</time>
      </trkpt>
      <trkpt lat="42.58929" lon="2.03547">
        <ele>1941</ele>
        <time>2020-07-25T08:13:04.066Z</time>
      </trkpt>
      <trkpt lat="42.5893" lon="2.03549">
        <ele>1941</ele>
        <time>2020-07-25T08:13:05.066Z</time>
      </trkpt>
      <trkpt lat="42.58931" lon="2.03551">
        <ele>1941</ele>
        <time>2020-07-25T08:13:06.066Z</time>
      </trkpt>
      <trkpt lat="42.58931" lon="2.03553">
        <ele>1940</ele>
        <time>2020-07-25T08:13:07.066Z</time>
      </trkpt>
      <trkpt lat="42.58932" lon="2.03555">
        <ele>1940</ele>
        <time>2020-07-25T08:13:08.066Z</time>
      </trkpt>
      <trkpt lat="42.58933" lon="2.03557">
        <ele>1941</ele>
        <time>2020-07-25T08:13:09.066Z</time>
      </trkpt>
      <trkpt lat="42.58934" lon="2.03558">
        <ele>1941</ele>
        <time>2020-07-25T08:13:10.066Z</time>
      </trkpt>
      <trkpt lat="42.58934" lon="2.0356">
        <ele>1940</ele>
        <time>2020-07-25T08:13:11.066Z</time>
      </trkpt>
      <trkpt lat="42.58935" lon="2.03561">
        <ele>1940</ele>
        <time>2020-07-25T08:13:12.066Z</time>
      </trkpt>
      <trkpt lat="42.58935" lon="2.03563">
        <ele>1939</ele>
        <time>2020-07-25T08:13:13.066Z</time>
      </trkpt>
      <trkpt lat="42.58935" lon="2.03564">
        <ele>1939</ele>
        <time>2020-07-25T08:13:14.066Z</time>
      </trkpt>
      <trkpt lat="42.58936" lon="2.03565">
        <ele>1940</ele>
        <time>2020-07-25T08:13:15.066Z</time>
      </trkpt>
      <trkpt lat="42.58936" lon="2.03566">
        <ele>1939</ele>
        <time>2020-07-25T08:13:16.066Z</time>
      </trkpt>
      <trkpt lat="42.58937" lon="2.03567">
        <ele>1939</ele>
        <time>2020-07-25T08:13:17.066Z</time>
      </trkpt>
      <trkpt lat="42.58938" lon="2.03569">
        <ele>1939</ele>
        <time>2020-07-25T08:13:18.066Z</time>
      </trkpt>
      <trkpt lat="42.58938" lon="2.03572">
        <ele>1938</ele>
        <time>2020-07-25T08:13:19.066Z</time>
      </trkpt>
      <trkpt lat="42.58939" lon="2.03574">
        <ele>1937</ele>
        <time>2020-07-25T08:13:20.066Z</time>
      </trkpt>
      <trkpt lat="42.5894" lon="2.03577">
        <ele>1937</ele>
        <time>2020-07-25T08:13:21.066Z</time>
      </trkpt>
      <trkpt lat="42.58941" lon="2.03579">
        <ele>1936</ele>
        <time>2020-07-25T08:13:22.066Z</time>
      </trkpt>
      <trkpt lat="42.58941" lon="2.03582">
        <ele>1935</ele>
        <time>2020-07-25T08:13:23.066Z</time>
      </trkpt>
      <trkpt lat="42.58942" lon="2.03585">
        <ele>1936</ele>
        <time>2020-07-25T08:13:24.066Z</time>
      </trkpt>
      <trkpt lat="42.58942" lon="2.03588">
        <ele>1935</ele>
        <time>2020-07-25T08:13:25.066Z</time>
      </trkpt>
      <trkpt lat="42.58942" lon="2.03592">
        <ele>1936</ele>
        <time>2020-07-25T08:13:26.066Z</time>
      </trkpt>
      <trkpt lat="42.58941" lon="2.03595">
        <ele>1935</ele>
        <time>2020-07-25T08:13:27.066Z</time>
      </trkpt>
      <trkpt lat="42.58941" lon="2.03597">
        <ele>1935</ele>
        <time>2020-07-25T08:13:28.066Z</time>
      </trkpt>
      <trkpt lat="42.58941" lon="2.03599">
        <ele>1935</ele>
        <time>2020-07-25T08:13:29.066Z</time>
      </trkpt>
      <trkpt lat="42.58941" lon="2.03601">
        <ele>1934</ele>
        <time>2020-07-25T08:13:30.066Z</time>
      </trkpt>
      <trkpt lat="42.5894" lon="2.03603">
        <ele>1934</ele>
        <time>2020-07-25T08:13:31.066Z</time>
      </trkpt>
      <trkpt lat="42.5894" lon="2.03605">
        <ele>1934</ele>
        <time>2020-07-25T08:13:32.066Z</time>
      </trkpt>
      <trkpt lat="42.58939" lon="2.03607">
        <ele>1934</ele>
        <time>2020-07-25T08:13:33.066Z</time>
      </trkpt>
      <trkpt lat="42.58938" lon="2.03609">
        <ele>1932</ele>
        <time>2020-07-25T08:13:34.066Z</time>
      </trkpt>
      <trkpt lat="42.58938" lon="2.03612">
        <ele>1931</ele>
        <time>2020-07-25T08:13:35.066Z</time>
      </trkpt>
      <trkpt lat="42.58937" lon="2.03614">
        <ele>1932</ele>
        <time>2020-07-25T08:13:36.066Z</time>
      </trkpt>
      <trkpt lat="42.58936" lon="2.03617">
        <ele>1932</ele>
        <time>2020-07-25T08:13:37.066Z</time>
      </trkpt>
      <trkpt lat="42.58936" lon="2.0362">
        <ele>1934</ele>
        <time>2020-07-25T08:13:38.066Z</time>
      </trkpt>
      <trkpt lat="42.58936" lon="2.03624">
        <ele>1935</ele>
        <time>2020-07-25T08:13:39.066Z</time>
      </trkpt>
      <trkpt lat="42.58936" lon="2.03626">
        <ele>1936</ele>
        <time>2020-07-25T08:13:40.066Z</time>
      </trkpt>
      <trkpt lat="42.58935" lon="2.03628">
        <ele>1938</ele>
        <time>2020-07-25T08:13:41.066Z</time>
      </trkpt>
      <trkpt lat="42.58935" lon="2.0363">
        <ele>1938</ele>
        <time>2020-07-25T08:13:42.066Z</time>
      </trkpt>
      <trkpt lat="42.58935" lon="2.03631">
        <ele>1938</ele>
        <time>2020-07-25T08:13:43.066Z</time>
      </trkpt>
      <trkpt lat="42.58935" lon="2.03632">
        <ele>1938</ele>
        <time>2020-07-25T08:13:44.066Z</time>
      </trkpt>
      <trkpt lat="42.58935" lon="2.03633">
        <ele>1939</ele>
        <time>2020-07-25T08:13:45.066Z</time>
      </trkpt>
      <trkpt lat="42.58935" lon="2.03634">
        <ele>1939</ele>
        <time>2020-07-25T08:13:46.066Z</time>
      </trkpt>
      <trkpt lat="42.58936" lon="2.03636">
        <ele>1939</ele>
        <time>2020-07-25T08:13:47.066Z</time>
      </trkpt>
      <trkpt lat="42.58936" lon="2.03637">
        <ele>1940</ele>
        <time>2020-07-25T08:13:48.066Z</time>
      </trkpt>
      <trkpt lat="42.58936" lon="2.03639">
        <ele>1939</ele>
        <time>2020-07-25T08:13:49.066Z</time>
      </trkpt>
      <trkpt lat="42.58936" lon="2.03641">
        <ele>1938</ele>
        <time>2020-07-25T08:13:50.066Z</time>
      </trkpt>
      <trkpt lat="42.58935" lon="2.03643">
        <ele>1938</ele>
        <time>2020-07-25T08:13:51.066Z</time>
      </trkpt>
      <trkpt lat="42.58934" lon="2.03645">
        <ele>1937</ele>
        <time>2020-07-25T08:13:52.066Z</time>
      </trkpt>
      <trkpt lat="42.58933" lon="2.03647">
        <ele>1937</ele>
        <time>2020-07-25T08:13:53.066Z</time>
      </trkpt>
      <trkpt lat="42.58932" lon="2.03649">
        <ele>1937</ele>
        <time>2020-07-25T08:13:54.066Z</time>
      </trkpt>
      <trkpt lat="42.58932" lon="2.03652">
        <ele>1936</ele>
        <time>2020-07-25T08:13:55.066Z</time>
      </trkpt>
      <trkpt lat="42.58933" lon="2.03656">
        <ele>1935</ele>
        <time>2020-07-25T08:13:56.066Z</time>
      </trkpt>
      <trkpt lat="42.58933" lon="2.0366">
        <ele>1937</ele>
        <time>2020-07-25T08:13:57.066Z</time>
      </trkpt>
      <trkpt lat="42.58933" lon="2.03664">
        <ele>1938</ele>
        <time>2020-07-25T08:13:58.066Z</time>
      </trkpt>
      <trkpt lat="42.58934" lon="2.03666">
        <ele>1937</ele>
        <time>2020-07-25T08:13:59.066Z</time>
      </trkpt>
      <trkpt lat="42.58934" lon="2.03669">
        <ele>1937</ele>
        <time>2020-07-25T08:14:00.066Z</time>
      </trkpt>
      <trkpt lat="42.58935" lon="2.03671">
        <ele>1936</ele>
        <time>2020-07-25T08:14:01.066Z</time>
      </trkpt>
      <trkpt lat="42.58935" lon="2.03673">
        <ele>1935</ele>
        <time>2020-07-25T08:14:02.066Z</time>
      </trkpt>
      <trkpt lat="42.58935" lon="2.03674">
        <ele>1936</ele>
        <time>2020-07-25T08:14:03.066Z</time>
      </trkpt>
      <trkpt lat="42.58936" lon="2.03676">
        <ele>1935</ele>
        <time>2020-07-25T08:14:04.066Z</time>
      </trkpt>
      <trkpt lat="42.58936" lon="2.03678">
        <ele>1935</ele>
        <time>2020-07-25T08:14:05.066Z</time>
      </trkpt>
      <trkpt lat="42.58935" lon="2.03679">
        <ele>1935</ele>
        <time>2020-07-25T08:14:06.066Z</time>
      </trkpt>
      <trkpt lat="42.58935" lon="2.0368">
        <ele>1936</ele>
        <time>2020-07-25T08:14:07.066Z</time>
      </trkpt>
      <trkpt lat="42.58936" lon="2.03682">
        <ele>1936</ele>
        <time>2020-07-25T08:14:08.066Z</time>
      </trkpt>
      <trkpt lat="42.58936" lon="2.03683">
        <ele>1936</ele>
        <time>2020-07-25T08:14:09.066Z</time>
      </trkpt>
      <trkpt lat="42.58936" lon="2.03685">
        <ele>1935</ele>
        <time>2020-07-25T08:14:10.066Z</time>
      </trkpt>
      <trkpt lat="42.58936" lon="2.03687">
        <ele>1936</ele>
        <time>2020-07-25T08:14:11.066Z</time>
      </trkpt>
      <trkpt lat="42.58936" lon="2.03689">
        <ele>1937</ele>
        <time>2020-07-25T08:14:12.066Z</time>
      </trkpt>
      <trkpt lat="42.58936" lon="2.03692">
        <ele>1939</ele>
        <time>2020-07-25T08:14:13.066Z</time>
      </trkpt>
      <trkpt lat="42.58936" lon="2.03694">
        <ele>1939</ele>
        <time>2020-07-25T08:14:14.066Z</time>
      </trkpt>
      <trkpt lat="42.58935" lon="2.03697">
        <ele>1939</ele>
        <time>2020-07-25T08:14:15.066Z</time>
      </trkpt>
      <trkpt lat="42.58934" lon="2.037">
        <ele>1939</ele>
        <time>2020-07-25T08:14:16.066Z</time>
      </trkpt>
      <trkpt lat="42.58933" lon="2.03704">
        <ele>1940</ele>
        <time>2020-07-25T08:14:17.066Z</time>
      </trkpt>
      <trkpt lat="42.58931" lon="2.03707">
        <ele>1940</ele>
        <time>2020-07-25T08:14:18.066Z</time>
      </trkpt>
      <trkpt lat="42.58931" lon="2.03711">
        <ele>1942</ele>
        <time>2020-07-25T08:14:19.066Z</time>
      </trkpt>
      <trkpt lat="42.58931" lon="2.03715">
        <ele>1942</ele>
        <time>2020-07-25T08:14:20.066Z</time>
      </trkpt>
      <trkpt lat="42.58931" lon="2.0372">
        <ele>1943</ele>
        <time>2020-07-25T08:14:21.066Z</time>
      </trkpt>
      <trkpt lat="42.5893" lon="2.03724">
        <ele>1942</ele>
        <time>2020-07-25T08:14:22.066Z</time>
      </trkpt>
      <trkpt lat="42.58931" lon="2.03728">
        <ele>1941</ele>
        <time>2020-07-25T08:14:23.066Z</time>
      </trkpt>
      <trkpt lat="42.5893" lon="2.03732">
        <ele>1940</ele>
        <time>2020-07-25T08:14:24.066Z</time>
      </trkpt>
      <trkpt lat="42.58929" lon="2.03736">
        <ele>1937</ele>
        <time>2020-07-25T08:14:25.066Z</time>
      </trkpt>
      <trkpt lat="42.58928" lon="2.0374">
        <ele>1934</ele>
        <time>2020-07-25T08:14:26.066Z</time>
      </trkpt>
      <trkpt lat="42.58927" lon="2.03744">
        <ele>1934</ele>
        <time>2020-07-25T08:14:27.066Z</time>
      </trkpt>
      <trkpt lat="42.58927" lon="2.03748">
        <ele>1934</ele>
        <time>2020-07-25T08:14:28.066Z</time>
      </trkpt>
      <trkpt lat="42.58928" lon="2.0375">
        <ele>1935</ele>
        <time>2020-07-25T08:14:29.066Z</time>
      </trkpt>
      <trkpt lat="42.58927" lon="2.03752">
        <ele>1933</ele>
        <time>2020-07-25T08:14:30.066Z</time>
      </trkpt>
      <trkpt lat="42.58927" lon="2.03754">
        <ele>1932</ele>
        <time>2020-07-25T08:14:31.066Z</time>
      </trkpt>
      <trkpt lat="42.58926" lon="2.03756">
        <ele>1930</ele>
        <time>2020-07-25T08:14:32.066Z</time>
      </trkpt>
      <trkpt lat="42.58925" lon="2.03758">
        <ele>1927</ele>
        <time>2020-07-25T08:14:33.066Z</time>
      </trkpt>
      <trkpt lat="42.58924" lon="2.0376">
        <ele>1924</ele>
        <time>2020-07-25T08:14:34.066Z</time>
      </trkpt>
      <trkpt lat="42.58923" lon="2.03761">
        <ele>1924</ele>
        <time>2020-07-25T08:14:35.066Z</time>
      </trkpt>
      <trkpt lat="42.58922" lon="2.03763">
        <ele>1924</ele>
        <time>2020-07-25T08:14:36.066Z</time>
      </trkpt>
      <trkpt lat="42.58921" lon="2.03764">
        <ele>1924</ele>
        <time>2020-07-25T08:14:37.066Z</time>
      </trkpt>
      <trkpt lat="42.58921" lon="2.03765">
        <ele>1923</ele>
        <time>2020-07-25T08:14:38.066Z</time>
      </trkpt>
      <trkpt lat="42.5892" lon="2.03767">
        <ele>1924</ele>
        <time>2020-07-25T08:14:39.066Z</time>
      </trkpt>
      <trkpt lat="42.58919" lon="2.03769">
        <ele>1923</ele>
        <time>2020-07-25T08:14:40.066Z</time>
      </trkpt>
      <trkpt lat="42.58918" lon="2.0377">
        <ele>1923</ele>
        <time>2020-07-25T08:14:41.066Z</time>
      </trkpt>
      <trkpt lat="42.58917" lon="2.03772">
        <ele>1924</ele>
        <time>2020-07-25T08:14:42.066Z</time>
      </trkpt>
      <trkpt lat="42.58917" lon="2.03773">
        <ele>1925</ele>
        <time>2020-07-25T08:14:43.066Z</time>
      </trkpt>
      <trkpt lat="42.58916" lon="2.03775">
        <ele>1925</ele>
        <time>2020-07-25T08:14:44.066Z</time>
      </trkpt>
      <trkpt lat="42.58916" lon="2.03777">
        <ele>1925</ele>
        <time>2020-07-25T08:14:45.066Z</time>
      </trkpt>
      <trkpt lat="42.58916" lon="2.03779">
        <ele>1925</ele>
        <time>2020-07-25T08:14:46.066Z</time>
      </trkpt>
      <trkpt lat="42.58915" lon="2.03781">
        <ele>1925</ele>
        <time>2020-07-25T08:14:47.066Z</time>
      </trkpt>
      <trkpt lat="42.58915" lon="2.03784">
        <ele>1926</ele>
        <time>2020-07-25T08:14:48.066Z</time>
      </trkpt>
      <trkpt lat="42.58915" lon="2.03788">
        <ele>1928</ele>
        <time>2020-07-25T08:14:49.066Z</time>
      </trkpt>
      <trkpt lat="42.58915" lon="2.03793">
        <ele>1931</ele>
        <time>2020-07-25T08:14:50.066Z</time>
      </trkpt>
      <trkpt lat="42.58915" lon="2.03797">
        <ele>1932</ele>
        <time>2020-07-25T08:14:51.066Z</time>
      </trkpt>
      <trkpt lat="42.58915" lon="2.03801">
        <ele>1933</ele>
        <time>2020-07-25T08:14:52.066Z</time>
      </trkpt>
      <trkpt lat="42.58915" lon="2.03805">
        <ele>1932</ele>
        <time>2020-07-25T08:14:53.066Z</time>
      </trkpt>
      <trkpt lat="42.58915" lon="2.03807">
        <ele>1933</ele>
        <time>2020-07-25T08:14:54.066Z</time>
      </trkpt>
      <trkpt lat="42.58915" lon="2.03809">
        <ele>1933</ele>
        <time>2020-07-25T08:14:55.066Z</time>
      </trkpt>
      <trkpt lat="42.58915" lon="2.03811">
        <ele>1934</ele>
        <time>2020-07-25T08:14:56.066Z</time>
      </trkpt>
      <trkpt lat="42.58916" lon="2.03812">
        <ele>1933</ele>
        <time>2020-07-25T08:14:57.066Z</time>
      </trkpt>
      <trkpt lat="42.58916" lon="2.03813">
        <ele>1933</ele>
        <time>2020-07-25T08:14:58.066Z</time>
      </trkpt>
      <trkpt lat="42.58916" lon="2.03813">
        <ele>1930</ele>
        <time>2020-07-25T08:14:59.066Z</time>
      </trkpt>
      <trkpt lat="42.58917" lon="2.03813">
        <ele>1929</ele>
        <time>2020-07-25T08:15:00.066Z</time>
      </trkpt>
      <trkpt lat="42.58917" lon="2.03813">
        <ele>1929</ele>
        <time>2020-07-25T08:15:01.066Z</time>
      </trkpt>
      <trkpt lat="42.58917" lon="2.03813">
        <ele>1929</ele>
        <time>2020-07-25T08:15:02.066Z</time>
      </trkpt>
      <trkpt lat="42.58916" lon="2.03813">
        <ele>1928</ele>
        <time>2020-07-25T08:15:03.066Z</time>
      </trkpt>
      <trkpt lat="42.58916" lon="2.03814">
        <ele>1927</ele>
        <time>2020-07-25T08:15:04.066Z</time>
      </trkpt>
      <trkpt lat="42.58916" lon="2.03814">
        <ele>1926</ele>
        <time>2020-07-25T08:15:05.066Z</time>
      </trkpt>
      <trkpt lat="42.58915" lon="2.03814">
        <ele>1926</ele>
        <time>2020-07-25T08:15:06.066Z</time>
      </trkpt>
      <trkpt lat="42.58915" lon="2.03815">
        <ele>1926</ele>
        <time>2020-07-25T08:15:07.066Z</time>
      </trkpt>
      <trkpt lat="42.58915" lon="2.03815">
        <ele>1925</ele>
        <time>2020-07-25T08:15:08.066Z</time>
      </trkpt>
      <trkpt lat="42.58915" lon="2.03815">
        <ele>1925</ele>
        <time>2020-07-25T08:15:09.066Z</time>
      </trkpt>
      <trkpt lat="42.58915" lon="2.03815">
        <ele>1925</ele>
        <time>2020-07-25T08:15:10.066Z</time>
      </trkpt>
      <trkpt lat="42.58915" lon="2.03816">
        <ele>1924</ele>
        <time>2020-07-25T08:15:11.066Z</time>
      </trkpt>
      <trkpt lat="42.58914" lon="2.03816">
        <ele>1924</ele>
        <time>2020-07-25T08:15:12.066Z</time>
      </trkpt>
      <trkpt lat="42.58914" lon="2.03817">
        <ele>1923</ele>
        <time>2020-07-25T08:15:13.066Z</time>
      </trkpt>
      <trkpt lat="42.58914" lon="2.03817">
        <ele>1923</ele>
        <time>2020-07-25T08:15:14.066Z</time>
      </trkpt>
      <trkpt lat="42.58914" lon="2.03818">
        <ele>1922</ele>
        <time>2020-07-25T08:15:15.066Z</time>
      </trkpt>
      <trkpt lat="42.58914" lon="2.03818">
        <ele>1922</ele>
        <time>2020-07-25T08:15:16.066Z</time>
      </trkpt>
      <trkpt lat="42.58913" lon="2.03819">
        <ele>1922</ele>
        <time>2020-07-25T08:15:17.066Z</time>
      </trkpt>
      <trkpt lat="42.58913" lon="2.03819">
        <ele>1922</ele>
        <time>2020-07-25T08:15:18.066Z</time>
      </trkpt>
      <trkpt lat="42.58913" lon="2.03819">
        <ele>1922</ele>
        <time>2020-07-25T08:15:19.066Z</time>
      </trkpt>
      <trkpt lat="42.58913" lon="2.0382">
        <ele>1922</ele>
        <time>2020-07-25T08:15:20.066Z</time>
      </trkpt>
      <trkpt lat="42.58913" lon="2.0382">
        <ele>1922</ele>
        <time>2020-07-25T08:15:21.066Z</time>
      </trkpt>
      <trkpt lat="42.58913" lon="2.0382">
        <ele>1922</ele>
        <time>2020-07-25T08:15:22.066Z</time>
      </trkpt>
      <trkpt lat="42.58913" lon="2.0382">
        <ele>1922</ele>
        <time>2020-07-25T08:15:23.066Z</time>
      </trkpt>
      <trkpt lat="42.58913" lon="2.03821">
        <ele>1922</ele>
        <time>2020-07-25T08:15:24.066Z</time>
      </trkpt>
      <trkpt lat="42.58913" lon="2.03821">
        <ele>1922</ele>
        <time>2020-07-25T08:15:25.066Z</time>
      </trkpt>
      <trkpt lat="42.58913" lon="2.03821">
        <ele>1922</ele>
        <time>2020-07-25T08:15:26.066Z</time>
      </trkpt>
      <trkpt lat="42.58913" lon="2.03821">
        <ele>1922</ele>
        <time>2020-07-25T08:15:27.066Z</time>
      </trkpt>
      <trkpt lat="42.58913" lon="2.03821">
        <ele>1922</ele>
        <time>2020-07-25T08:15:28.066Z</time>
      </trkpt>
      <trkpt lat="42.58913" lon="2.03821">
        <ele>1922</ele>
        <time>2020-07-25T08:15:29.066Z</time>
      </trkpt>
      <trkpt lat="42.58913" lon="2.03821">
        <ele>1922</ele>
        <time>2020-07-25T08:15:30.066Z</time>
      </trkpt>
      <trkpt lat="42.58913" lon="2.03821">
        <ele>1921</ele>
        <time>2020-07-25T08:15:31.066Z</time>
      </trkpt>
      <trkpt lat="42.58913" lon="2.03821">
        <ele>1921</ele>
        <time>2020-07-25T08:15:32.066Z</time>
      </trkpt>
      <trkpt lat="42.58913" lon="2.03822">
        <ele>1922</ele>
        <time>2020-07-25T08:15:33.066Z</time>
      </trkpt>
      <trkpt lat="42.58913" lon="2.03822">
        <ele>1921</ele>
        <time>2020-07-25T08:15:34.066Z</time>
      </trkpt>
      <trkpt lat="42.58913" lon="2.03822">
        <ele>1922</ele>
        <time>2020-07-25T08:15:35.066Z</time>
      </trkpt>
      <trkpt lat="42.58913" lon="2.03822">
        <ele>1922</ele>
        <time>2020-07-25T08:15:36.066Z</time>
      </trkpt>
      <trkpt lat="42.58913" lon="2.03822">
        <ele>1922</ele>
        <time>2020-07-25T08:15:37.066Z</time>
      </trkpt>
      <trkpt lat="42.58913" lon="2.03822">
        <ele>1922</ele>
        <time>2020-07-25T08:15:38.066Z</time>
      </trkpt>
      <trkpt lat="42.58913" lon="2.03823">
        <ele>1923</ele>
        <time>2020-07-25T08:15:39.066Z</time>
      </trkpt>
      <trkpt lat="42.58912" lon="2.03824">
        <ele>1923</ele>
        <time>2020-07-25T08:15:40.066Z</time>
      </trkpt>
      <trkpt lat="42.58912" lon="2.03826">
        <ele>1923</ele>
        <time>2020-07-25T08:15:41.066Z</time>
      </trkpt>
      <trkpt lat="42.58912" lon="2.03828">
        <ele>1923</ele>
        <time>2020-07-25T08:15:42.066Z</time>
      </trkpt>
      <trkpt lat="42.58911" lon="2.0383">
        <ele>1924</ele>
        <time>2020-07-25T08:15:43.066Z</time>
      </trkpt>
      <trkpt lat="42.5891" lon="2.03832">
        <ele>1924</ele>
        <time>2020-07-25T08:15:44.066Z</time>
      </trkpt>
      <trkpt lat="42.58909" lon="2.03835">
        <ele>1925</ele>
        <time>2020-07-25T08:15:45.066Z</time>
      </trkpt>
      <trkpt lat="42.58907" lon="2.03839">
        <ele>1925</ele>
        <time>2020-07-25T08:15:46.066Z</time>
      </trkpt>
      <trkpt lat="42.58905" lon="2.03842">
        <ele>1925</ele>
        <time>2020-07-25T08:15:47.066Z</time>
      </trkpt>
      <trkpt lat="42.58902" lon="2.03845">
        <ele>1925</ele>
        <time>2020-07-25T08:15:48.066Z</time>
      </trkpt>
      <trkpt lat="42.58899" lon="2.03849">
        <ele>1924</ele>
        <time>2020-07-25T08:15:49.066Z</time>
      </trkpt>
      <trkpt lat="42.58896" lon="2.03853">
        <ele>1923</ele>
        <time>2020-07-25T08:15:50.066Z</time>
      </trkpt>
      <trkpt lat="42.58892" lon="2.03856">
        <ele>1923</ele>
        <time>2020-07-25T08:15:51.066Z</time>
      </trkpt>
      <trkpt lat="42.58889" lon="2.03859">
        <ele>1922</ele>
        <time>2020-07-25T08:15:52.066Z</time>
      </trkpt>
      <trkpt lat="42.58886" lon="2.03862">
        <ele>1920</ele>
        <time>2020-07-25T08:15:53.066Z</time>
      </trkpt>
      <trkpt lat="42.58883" lon="2.03865">
        <ele>1920</ele>
        <time>2020-07-25T08:15:54.066Z</time>
      </trkpt>
      <trkpt lat="42.5888" lon="2.03869">
        <ele>1919</ele>
        <time>2020-07-25T08:15:55.066Z</time>
      </trkpt>
      <trkpt lat="42.58878" lon="2.03873">
        <ele>1919</ele>
        <time>2020-07-25T08:15:56.066Z</time>
      </trkpt>
      <trkpt lat="42.58876" lon="2.03876">
        <ele>1918</ele>
        <time>2020-07-25T08:15:57.066Z</time>
      </trkpt>
      <trkpt lat="42.58874" lon="2.0388">
        <ele>1918</ele>
        <time>2020-07-25T08:15:58.066Z</time>
      </trkpt>
      <trkpt lat="42.58871" lon="2.03883">
        <ele>1916</ele>
        <time>2020-07-25T08:15:59.066Z</time>
      </trkpt>
      <trkpt lat="42.58869" lon="2.03887">
        <ele>1914</ele>
        <time>2020-07-25T08:16:00.066Z</time>
      </trkpt>
      <trkpt lat="42.58866" lon="2.0389">
        <ele>1914</ele>
        <time>2020-07-25T08:16:01.066Z</time>
      </trkpt>
      <trkpt lat="42.58864" lon="2.03893">
        <ele>1913</ele>
        <time>2020-07-25T08:16:02.066Z</time>
      </trkpt>
      <trkpt lat="42.58862" lon="2.03896">
        <ele>1913</ele>
        <time>2020-07-25T08:16:03.066Z</time>
      </trkpt>
      <trkpt lat="42.58859" lon="2.03899">
        <ele>1913</ele>
        <time>2020-07-25T08:16:04.066Z</time>
      </trkpt>
      <trkpt lat="42.58857" lon="2.03903">
        <ele>1912</ele>
        <time>2020-07-25T08:16:05.066Z</time>
      </trkpt>
      <trkpt lat="42.58855" lon="2.03907">
        <ele>1912</ele>
        <time>2020-07-25T08:16:06.066Z</time>
      </trkpt>
      <trkpt lat="42.58854" lon="2.03911">
        <ele>1913</ele>
        <time>2020-07-25T08:16:07.066Z</time>
      </trkpt>
      <trkpt lat="42.58852" lon="2.03915">
        <ele>1913</ele>
        <time>2020-07-25T08:16:08.066Z</time>
      </trkpt>
      <trkpt lat="42.58851" lon="2.03918">
        <ele>1915</ele>
        <time>2020-07-25T08:16:09.066Z</time>
      </trkpt>
      <trkpt lat="42.58849" lon="2.03922">
        <ele>1915</ele>
        <time>2020-07-25T08:16:10.066Z</time>
      </trkpt>
      <trkpt lat="42.58846" lon="2.03925">
        <ele>1912</ele>
        <time>2020-07-25T08:16:11.066Z</time>
      </trkpt>
      <trkpt lat="42.58844" lon="2.03929">
        <ele>1912</ele>
        <time>2020-07-25T08:16:12.066Z</time>
      </trkpt>
      <trkpt lat="42.58842" lon="2.03932">
        <ele>1912</ele>
        <time>2020-07-25T08:16:13.066Z</time>
      </trkpt>
      <trkpt lat="42.58839" lon="2.03936">
        <ele>1911</ele>
        <time>2020-07-25T08:16:14.066Z</time>
      </trkpt>
      <trkpt lat="42.58837" lon="2.03939">
        <ele>1910</ele>
        <time>2020-07-25T08:16:15.066Z</time>
      </trkpt>
      <trkpt lat="42.58835" lon="2.03942">
        <ele>1908</ele>
        <time>2020-07-25T08:16:16.066Z</time>
      </trkpt>
      <trkpt lat="42.58833" lon="2.03946">
        <ele>1906</ele>
        <time>2020-07-25T08:16:17.066Z</time>
      </trkpt>
      <trkpt lat="42.58831" lon="2.03951">
        <ele>1905</ele>
        <time>2020-07-25T08:16:18.066Z</time>
      </trkpt>
      <trkpt lat="42.58829" lon="2.03955">
        <ele>1904</ele>
        <time>2020-07-25T08:16:19.066Z</time>
      </trkpt>
      <trkpt lat="42.58826" lon="2.03959">
        <ele>1904</ele>
        <time>2020-07-25T08:16:20.066Z</time>
      </trkpt>
      <trkpt lat="42.58824" lon="2.03963">
        <ele>1903</ele>
        <time>2020-07-25T08:16:21.066Z</time>
      </trkpt>
      <trkpt lat="42.58821" lon="2.03968">
        <ele>1903</ele>
        <time>2020-07-25T08:16:22.066Z</time>
      </trkpt>
      <trkpt lat="42.58819" lon="2.03972">
        <ele>1901</ele>
        <time>2020-07-25T08:16:23.066Z</time>
      </trkpt>
      <trkpt lat="42.58817" lon="2.03976">
        <ele>1900</ele>
        <time>2020-07-25T08:16:24.066Z</time>
      </trkpt>
      <trkpt lat="42.58815" lon="2.0398">
        <ele>1899</ele>
        <time>2020-07-25T08:16:25.066Z</time>
      </trkpt>
      <trkpt lat="42.58813" lon="2.03983">
        <ele>1899</ele>
        <time>2020-07-25T08:16:26.066Z</time>
      </trkpt>
      <trkpt lat="42.58811" lon="2.03987">
        <ele>1898</ele>
        <time>2020-07-25T08:16:27.066Z</time>
      </trkpt>
      <trkpt lat="42.58809" lon="2.0399">
        <ele>1898</ele>
        <time>2020-07-25T08:16:28.066Z</time>
      </trkpt>
      <trkpt lat="42.58806" lon="2.03993">
        <ele>1897</ele>
        <time>2020-07-25T08:16:29.066Z</time>
      </trkpt>
      <trkpt lat="42.58804" lon="2.03996">
        <ele>1897</ele>
        <time>2020-07-25T08:16:30.066Z</time>
      </trkpt>
      <trkpt lat="42.58802" lon="2.04">
        <ele>1897</ele>
        <time>2020-07-25T08:16:31.066Z</time>
      </trkpt>
      <trkpt lat="42.58799" lon="2.04003">
        <ele>1896</ele>
        <time>2020-07-25T08:16:32.066Z</time>
      </trkpt>
      <trkpt lat="42.58797" lon="2.04006">
        <ele>1895</ele>
        <time>2020-07-25T08:16:33.066Z</time>
      </trkpt>
      <trkpt lat="42.58795" lon="2.0401">
        <ele>1894</ele>
        <time>2020-07-25T08:16:34.066Z</time>
      </trkpt>
      <trkpt lat="42.58792" lon="2.04013">
        <ele>1894</ele>
        <time>2020-07-25T08:16:35.066Z</time>
      </trkpt>
      <trkpt lat="42.5879" lon="2.04017">
        <ele>1894</ele>
        <time>2020-07-25T08:16:36.066Z</time>
      </trkpt>
      <trkpt lat="42.58787" lon="2.0402">
        <ele>1893</ele>
        <time>2020-07-25T08:16:37.066Z</time>
      </trkpt>
      <trkpt lat="42.58784" lon="2.04023">
        <ele>1892</ele>
        <time>2020-07-25T08:16:38.066Z</time>
      </trkpt>
      <trkpt lat="42.58781" lon="2.04026">
        <ele>1892</ele>
        <time>2020-07-25T08:16:39.066Z</time>
      </trkpt>
      <trkpt lat="42.58778" lon="2.04029">
        <ele>1890</ele>
        <time>2020-07-25T08:16:40.066Z</time>
      </trkpt>
      <trkpt lat="42.58776" lon="2.04032">
        <ele>1890</ele>
        <time>2020-07-25T08:16:41.066Z</time>
      </trkpt>
      <trkpt lat="42.58773" lon="2.04035">
        <ele>1889</ele>
        <time>2020-07-25T08:16:42.066Z</time>
      </trkpt>
      <trkpt lat="42.5877" lon="2.04038">
        <ele>1888</ele>
        <time>2020-07-25T08:16:43.066Z</time>
      </trkpt>
      <trkpt lat="42.58768" lon="2.04041">
        <ele>1888</ele>
        <time>2020-07-25T08:16:44.066Z</time>
      </trkpt>
      <trkpt lat="42.58765" lon="2.04044">
        <ele>1888</ele>
        <time>2020-07-25T08:16:45.066Z</time>
      </trkpt>
      <trkpt lat="42.58763" lon="2.04047">
        <ele>1888</ele>
        <time>2020-07-25T08:16:46.066Z</time>
      </trkpt>
      <trkpt lat="42.5876" lon="2.04051">
        <ele>1888</ele>
        <time>2020-07-25T08:16:47.066Z</time>
      </trkpt>
      <trkpt lat="42.58758" lon="2.04054">
        <ele>1888</ele>
        <time>2020-07-25T08:16:48.066Z</time>
      </trkpt>
      <trkpt lat="42.58755" lon="2.04057">
        <ele>1888</ele>
        <time>2020-07-25T08:16:49.066Z</time>
      </trkpt>
      <trkpt lat="42.58752" lon="2.0406">
        <ele>1886</ele>
        <time>2020-07-25T08:16:50.066Z</time>
      </trkpt>
      <trkpt lat="42.58748" lon="2.04063">
        <ele>1886</ele>
        <time>2020-07-25T08:16:51.066Z</time>
      </trkpt>
      <trkpt lat="42.58745" lon="2.04067">
        <ele>1886</ele>
        <time>2020-07-25T08:16:52.066Z</time>
      </trkpt>
      <trkpt lat="42.58742" lon="2.04071">
        <ele>1885</ele>
        <time>2020-07-25T08:16:53.066Z</time>
      </trkpt>
      <trkpt lat="42.58739" lon="2.04075">
        <ele>1885</ele>
        <time>2020-07-25T08:16:54.066Z</time>
      </trkpt>
      <trkpt lat="42.58736" lon="2.04078">
        <ele>1884</ele>
        <time>2020-07-25T08:16:55.066Z</time>
      </trkpt>
      <trkpt lat="42.58733" lon="2.0408">
        <ele>1883</ele>
        <time>2020-07-25T08:16:56.066Z</time>
      </trkpt>
      <trkpt lat="42.5873" lon="2.04083">
        <ele>1882</ele>
        <time>2020-07-25T08:16:57.066Z</time>
      </trkpt>
      <trkpt lat="42.58727" lon="2.04086">
        <ele>1881</ele>
        <time>2020-07-25T08:16:58.066Z</time>
      </trkpt>
      <trkpt lat="42.58725" lon="2.04091">
        <ele>1882</ele>
        <time>2020-07-25T08:16:59.066Z</time>
      </trkpt>
      <trkpt lat="42.58722" lon="2.04096">
        <ele>1881</ele>
        <time>2020-07-25T08:17:00.066Z</time>
      </trkpt>
      <trkpt lat="42.5872" lon="2.04101">
        <ele>1881</ele>
        <time>2020-07-25T08:17:01.066Z</time>
      </trkpt>
      <trkpt lat="42.58719" lon="2.04106">
        <ele>1882</ele>
        <time>2020-07-25T08:17:02.066Z</time>
      </trkpt>
      <trkpt lat="42.58719" lon="2.04111">
        <ele>1880</ele>
        <time>2020-07-25T08:17:03.066Z</time>
      </trkpt>
      <trkpt lat="42.58719" lon="2.04116">
        <ele>1880</ele>
        <time>2020-07-25T08:17:04.066Z</time>
      </trkpt>
      <trkpt lat="42.58719" lon="2.04121">
        <ele>1880</ele>
        <time>2020-07-25T08:17:05.066Z</time>
      </trkpt>
      <trkpt lat="42.58719" lon="2.04127">
        <ele>1881</ele>
        <time>2020-07-25T08:17:06.066Z</time>
      </trkpt>
      <trkpt lat="42.58719" lon="2.04133">
        <ele>1883</ele>
        <time>2020-07-25T08:17:07.066Z</time>
      </trkpt>
      <trkpt lat="42.5872" lon="2.0414">
        <ele>1883</ele>
        <time>2020-07-25T08:17:08.066Z</time>
      </trkpt>
      <trkpt lat="42.5872" lon="2.04146">
        <ele>1883</ele>
        <time>2020-07-25T08:17:09.066Z</time>
      </trkpt>
      <trkpt lat="42.5872" lon="2.04152">
        <ele>1883</ele>
        <time>2020-07-25T08:17:10.066Z</time>
      </trkpt>
      <trkpt lat="42.58719" lon="2.04157">
        <ele>1884</ele>
        <time>2020-07-25T08:17:11.066Z</time>
      </trkpt>
      <trkpt lat="42.58719" lon="2.04163">
        <ele>1884</ele>
        <time>2020-07-25T08:17:12.066Z</time>
      </trkpt>
      <trkpt lat="42.58719" lon="2.04168">
        <ele>1884</ele>
        <time>2020-07-25T08:17:13.066Z</time>
      </trkpt>
      <trkpt lat="42.58719" lon="2.04173">
        <ele>1884</ele>
        <time>2020-07-25T08:17:14.066Z</time>
      </trkpt>
      <trkpt lat="42.58719" lon="2.04178">
        <ele>1884</ele>
        <time>2020-07-25T08:17:15.066Z</time>
      </trkpt>
      <trkpt lat="42.58719" lon="2.04183">
        <ele>1884</ele>
        <time>2020-07-25T08:17:16.066Z</time>
      </trkpt>
      <trkpt lat="42.58718" lon="2.04188">
        <ele>1884</ele>
        <time>2020-07-25T08:17:17.066Z</time>
      </trkpt>
      <trkpt lat="42.58717" lon="2.04194">
        <ele>1883</ele>
        <time>2020-07-25T08:17:18.066Z</time>
      </trkpt>
      <trkpt lat="42.58716" lon="2.04199">
        <ele>1883</ele>
        <time>2020-07-25T08:17:19.066Z</time>
      </trkpt>
      <trkpt lat="42.58715" lon="2.04204">
        <ele>1883</ele>
        <time>2020-07-25T08:17:20.066Z</time>
      </trkpt>
      <trkpt lat="42.58715" lon="2.0421">
        <ele>1883</ele>
        <time>2020-07-25T08:17:21.066Z</time>
      </trkpt>
      <trkpt lat="42.58714" lon="2.04215">
        <ele>1883</ele>
        <time>2020-07-25T08:17:22.066Z</time>
      </trkpt>
      <trkpt lat="42.58714" lon="2.0422">
        <ele>1883</ele>
        <time>2020-07-25T08:17:23.066Z</time>
      </trkpt>
      <trkpt lat="42.58713" lon="2.04226">
        <ele>1883</ele>
        <time>2020-07-25T08:17:24.066Z</time>
      </trkpt>
      <trkpt lat="42.58712" lon="2.04231">
        <ele>1884</ele>
        <time>2020-07-25T08:17:25.066Z</time>
      </trkpt>
      <trkpt lat="42.5871" lon="2.04236">
        <ele>1883</ele>
        <time>2020-07-25T08:17:26.066Z</time>
      </trkpt>
      <trkpt lat="42.58709" lon="2.04241">
        <ele>1883</ele>
        <time>2020-07-25T08:17:27.066Z</time>
      </trkpt>
      <trkpt lat="42.58708" lon="2.04246">
        <ele>1883</ele>
        <time>2020-07-25T08:17:28.066Z</time>
      </trkpt>
      <trkpt lat="42.58707" lon="2.04251">
        <ele>1883</ele>
        <time>2020-07-25T08:17:29.066Z</time>
      </trkpt>
      <trkpt lat="42.58705" lon="2.04255">
        <ele>1882</ele>
        <time>2020-07-25T08:17:30.066Z</time>
      </trkpt>
      <trkpt lat="42.58703" lon="2.0426">
        <ele>1881</ele>
        <time>2020-07-25T08:17:31.066Z</time>
      </trkpt>
      <trkpt lat="42.58701" lon="2.04264">
        <ele>1881</ele>
        <time>2020-07-25T08:17:32.066Z</time>
      </trkpt>
      <trkpt lat="42.58699" lon="2.04269">
        <ele>1881</ele>
        <time>2020-07-25T08:17:33.066Z</time>
      </trkpt>
      <trkpt lat="42.58696" lon="2.04273">
        <ele>1882</ele>
        <time>2020-07-25T08:17:34.066Z</time>
      </trkpt>
      <trkpt lat="42.58693" lon="2.04277">
        <ele>1882</ele>
        <time>2020-07-25T08:17:35.066Z</time>
      </trkpt>
      <trkpt lat="42.58689" lon="2.0428">
        <ele>1882</ele>
        <time>2020-07-25T08:17:36.066Z</time>
      </trkpt>
      <trkpt lat="42.58685" lon="2.04283">
        <ele>1882</ele>
        <time>2020-07-25T08:17:37.066Z</time>
      </trkpt>
      <trkpt lat="42.58682" lon="2.04286">
        <ele>1882</ele>
        <time>2020-07-25T08:17:38.066Z</time>
      </trkpt>
      <trkpt lat="42.58679" lon="2.04288">
        <ele>1882</ele>
        <time>2020-07-25T08:17:39.066Z</time>
      </trkpt>
      <trkpt lat="42.58675" lon="2.04289">
        <ele>1881</ele>
        <time>2020-07-25T08:17:40.066Z</time>
      </trkpt>
      <trkpt lat="42.58672" lon="2.04291">
        <ele>1881</ele>
        <time>2020-07-25T08:17:41.066Z</time>
      </trkpt>
      <trkpt lat="42.58669" lon="2.04292">
        <ele>1881</ele>
        <time>2020-07-25T08:17:42.066Z</time>
      </trkpt>
      <trkpt lat="42.58665" lon="2.04292">
        <ele>1882</ele>
        <time>2020-07-25T08:17:43.066Z</time>
      </trkpt>
      <trkpt lat="42.58661" lon="2.04292">
        <ele>1882</ele>
        <time>2020-07-25T08:17:44.066Z</time>
      </trkpt>
      <trkpt lat="42.58657" lon="2.0429">
        <ele>1881</ele>
        <time>2020-07-25T08:17:45.066Z</time>
      </trkpt>
      <trkpt lat="42.58653" lon="2.04289">
        <ele>1881</ele>
        <time>2020-07-25T08:17:46.066Z</time>
      </trkpt>
      <trkpt lat="42.5865" lon="2.04287">
        <ele>1881</ele>
        <time>2020-07-25T08:17:47.066Z</time>
      </trkpt>
      <trkpt lat="42.58647" lon="2.04285">
        <ele>1881</ele>
        <time>2020-07-25T08:17:48.066Z</time>
      </trkpt>
      <trkpt lat="42.58644" lon="2.04282">
        <ele>1881</ele>
        <time>2020-07-25T08:17:49.066Z</time>
      </trkpt>
      <trkpt lat="42.58641" lon="2.04281">
        <ele>1881</ele>
        <time>2020-07-25T08:17:50.066Z</time>
      </trkpt>
      <trkpt lat="42.58637" lon="2.0428">
        <ele>1882</ele>
        <time>2020-07-25T08:17:51.066Z</time>
      </trkpt>
      <trkpt lat="42.58634" lon="2.0428">
        <ele>1881</ele>
        <time>2020-07-25T08:17:52.066Z</time>
      </trkpt>
      <trkpt lat="42.58632" lon="2.04281">
        <ele>1880</ele>
        <time>2020-07-25T08:17:53.066Z</time>
      </trkpt>
      <trkpt lat="42.58629" lon="2.04282">
        <ele>1880</ele>
        <time>2020-07-25T08:17:54.066Z</time>
      </trkpt>
      <trkpt lat="42.58627" lon="2.04284">
        <ele>1882</ele>
        <time>2020-07-25T08:17:55.066Z</time>
      </trkpt>
      <trkpt lat="42.58624" lon="2.04288">
        <ele>1884</ele>
        <time>2020-07-25T08:17:56.066Z</time>
      </trkpt>
      <trkpt lat="42.58623" lon="2.04292">
        <ele>1885</ele>
        <time>2020-07-25T08:17:57.066Z</time>
      </trkpt>
      <trkpt lat="42.58622" lon="2.04297">
        <ele>1886</ele>
        <time>2020-07-25T08:17:58.066Z</time>
      </trkpt>
      <trkpt lat="42.58622" lon="2.04301">
        <ele>1887</ele>
        <time>2020-07-25T08:17:59.066Z</time>
      </trkpt>
      <trkpt lat="42.58622" lon="2.04305">
        <ele>1888</ele>
        <time>2020-07-25T08:18:00.066Z</time>
      </trkpt>
      <trkpt lat="42.58622" lon="2.0431">
        <ele>1889</ele>
        <time>2020-07-25T08:18:01.066Z</time>
      </trkpt>
      <trkpt lat="42.58623" lon="2.04315">
        <ele>1888</ele>
        <time>2020-07-25T08:18:02.066Z</time>
      </trkpt>
      <trkpt lat="42.58623" lon="2.04319">
        <ele>1888</ele>
        <time>2020-07-25T08:18:03.066Z</time>
      </trkpt>
      <trkpt lat="42.58622" lon="2.04324">
        <ele>1887</ele>
        <time>2020-07-25T08:18:04.066Z</time>
      </trkpt>
      <trkpt lat="42.58621" lon="2.04329">
        <ele>1887</ele>
        <time>2020-07-25T08:18:05.066Z</time>
      </trkpt>
      <trkpt lat="42.58619" lon="2.04334">
        <ele>1886</ele>
        <time>2020-07-25T08:18:06.066Z</time>
      </trkpt>
      <trkpt lat="42.58618" lon="2.04338">
        <ele>1886</ele>
        <time>2020-07-25T08:18:07.066Z</time>
      </trkpt>
      <trkpt lat="42.58615" lon="2.04343">
        <ele>1884</ele>
        <time>2020-07-25T08:18:08.066Z</time>
      </trkpt>
      <trkpt lat="42.58612" lon="2.04348">
        <ele>1883</ele>
        <time>2020-07-25T08:18:09.066Z</time>
      </trkpt>
      <trkpt lat="42.58609" lon="2.04353">
        <ele>1881</ele>
        <time>2020-07-25T08:18:10.066Z</time>
      </trkpt>
      <trkpt lat="42.58607" lon="2.04357">
        <ele>1881</ele>
        <time>2020-07-25T08:18:11.066Z</time>
      </trkpt>
      <trkpt lat="42.58604" lon="2.04361">
        <ele>1881</ele>
        <time>2020-07-25T08:18:12.066Z</time>
      </trkpt>
      <trkpt lat="42.58602" lon="2.04364">
        <ele>1880</ele>
        <time>2020-07-25T08:18:13.066Z</time>
      </trkpt>
      <trkpt lat="42.586" lon="2.04367">
        <ele>1879</ele>
        <time>2020-07-25T08:18:14.066Z</time>
      </trkpt>
      <trkpt lat="42.58598" lon="2.0437">
        <ele>1878</ele>
        <time>2020-07-25T08:18:15.066Z</time>
      </trkpt>
      <trkpt lat="42.58596" lon="2.04373">
        <ele>1878</ele>
        <time>2020-07-25T08:18:16.066Z</time>
      </trkpt>
      <trkpt lat="42.58593" lon="2.04376">
        <ele>1877</ele>
        <time>2020-07-25T08:18:17.066Z</time>
      </trkpt>
      <trkpt lat="42.5859" lon="2.0438">
        <ele>1875</ele>
        <time>2020-07-25T08:18:18.066Z</time>
      </trkpt>
      <trkpt lat="42.58587" lon="2.04383">
        <ele>1873</ele>
        <time>2020-07-25T08:18:19.066Z</time>
      </trkpt>
      <trkpt lat="42.58584" lon="2.04386">
        <ele>1872</ele>
        <time>2020-07-25T08:18:20.066Z</time>
      </trkpt>
      <trkpt lat="42.5858" lon="2.04388">
        <ele>1871</ele>
        <time>2020-07-25T08:18:21.066Z</time>
      </trkpt>
      <trkpt lat="42.58577" lon="2.04392">
        <ele>1871</ele>
        <time>2020-07-25T08:18:22.066Z</time>
      </trkpt>
      <trkpt lat="42.58575" lon="2.04396">
        <ele>1869</ele>
        <time>2020-07-25T08:18:23.066Z</time>
      </trkpt>
      <trkpt lat="42.58572" lon="2.044">
        <ele>1868</ele>
        <time>2020-07-25T08:18:24.066Z</time>
      </trkpt>
      <trkpt lat="42.5857" lon="2.04403">
        <ele>1868</ele>
        <time>2020-07-25T08:18:25.066Z</time>
      </trkpt>
      <trkpt lat="42.58568" lon="2.04407">
        <ele>1866</ele>
        <time>2020-07-25T08:18:26.066Z</time>
      </trkpt>
      <trkpt lat="42.58566" lon="2.04411">
        <ele>1868</ele>
        <time>2020-07-25T08:18:27.066Z</time>
      </trkpt>
      <trkpt lat="42.58565" lon="2.04416">
        <ele>1868</ele>
        <time>2020-07-25T08:18:28.066Z</time>
      </trkpt>
      <trkpt lat="42.58564" lon="2.04422">
        <ele>1870</ele>
        <time>2020-07-25T08:18:29.066Z</time>
      </trkpt>
      <trkpt lat="42.58563" lon="2.04428">
        <ele>1871</ele>
        <time>2020-07-25T08:18:30.066Z</time>
      </trkpt>
      <trkpt lat="42.58562" lon="2.04434">
        <ele>1872</ele>
        <time>2020-07-25T08:18:31.066Z</time>
      </trkpt>
      <trkpt lat="42.58561" lon="2.0444">
        <ele>1872</ele>
        <time>2020-07-25T08:18:32.066Z</time>
      </trkpt>
      <trkpt lat="42.5856" lon="2.04445">
        <ele>1872</ele>
        <time>2020-07-25T08:18:33.066Z</time>
      </trkpt>
      <trkpt lat="42.5856" lon="2.0445">
        <ele>1872</ele>
        <time>2020-07-25T08:18:34.066Z</time>
      </trkpt>
      <trkpt lat="42.58559" lon="2.04455">
        <ele>1872</ele>
        <time>2020-07-25T08:18:35.066Z</time>
      </trkpt>
      <trkpt lat="42.58558" lon="2.0446">
        <ele>1872</ele>
        <time>2020-07-25T08:18:36.066Z</time>
      </trkpt>
      <trkpt lat="42.58557" lon="2.04464">
        <ele>1872</ele>
        <time>2020-07-25T08:18:37.066Z</time>
      </trkpt>
      <trkpt lat="42.58556" lon="2.04468">
        <ele>1873</ele>
        <time>2020-07-25T08:18:38.066Z</time>
      </trkpt>
      <trkpt lat="42.58556" lon="2.04472">
        <ele>1873</ele>
        <time>2020-07-25T08:18:39.066Z</time>
      </trkpt>
      <trkpt lat="42.58556" lon="2.04476">
        <ele>1874</ele>
        <time>2020-07-25T08:18:40.066Z</time>
      </trkpt>
      <trkpt lat="42.58555" lon="2.04481">
        <ele>1872</ele>
        <time>2020-07-25T08:18:41.066Z</time>
      </trkpt>
      <trkpt lat="42.58555" lon="2.04485">
        <ele>1871</ele>
        <time>2020-07-25T08:18:42.066Z</time>
      </trkpt>
      <trkpt lat="42.58555" lon="2.0449">
        <ele>1869</ele>
        <time>2020-07-25T08:18:43.066Z</time>
      </trkpt>
      <trkpt lat="42.58556" lon="2.04496">
        <ele>1869</ele>
        <time>2020-07-25T08:18:44.066Z</time>
      </trkpt>
      <trkpt lat="42.58557" lon="2.04501">
        <ele>1869</ele>
        <time>2020-07-25T08:18:45.066Z</time>
      </trkpt>
      <trkpt lat="42.58557" lon="2.04506">
        <ele>1868</ele>
        <time>2020-07-25T08:18:46.066Z</time>
      </trkpt>
      <trkpt lat="42.58558" lon="2.04512">
        <ele>1868</ele>
        <time>2020-07-25T08:18:47.066Z</time>
      </trkpt>
      <trkpt lat="42.58558" lon="2.04517">
        <ele>1867</ele>
        <time>2020-07-25T08:18:48.066Z</time>
      </trkpt>
      <trkpt lat="42.58558" lon="2.04522">
        <ele>1869</ele>
        <time>2020-07-25T08:18:49.066Z</time>
      </trkpt>
      <trkpt lat="42.58558" lon="2.04528">
        <ele>1870</ele>
        <time>2020-07-25T08:18:50.066Z</time>
      </trkpt>
      <trkpt lat="42.58558" lon="2.04534">
        <ele>1871</ele>
        <time>2020-07-25T08:18:51.066Z</time>
      </trkpt>
      <trkpt lat="42.58556" lon="2.0454">
        <ele>1872</ele>
        <time>2020-07-25T08:18:52.066Z</time>
      </trkpt>
      <trkpt lat="42.58554" lon="2.04545">
        <ele>1872</ele>
        <time>2020-07-25T08:18:53.066Z</time>
      </trkpt>
      <trkpt lat="42.58553" lon="2.04551">
        <ele>1873</ele>
        <time>2020-07-25T08:18:54.066Z</time>
      </trkpt>
      <trkpt lat="42.58553" lon="2.04558">
        <ele>1872</ele>
        <time>2020-07-25T08:18:55.066Z</time>
      </trkpt>
      <trkpt lat="42.58552" lon="2.04564">
        <ele>1873</ele>
        <time>2020-07-25T08:18:56.066Z</time>
      </trkpt>
      <trkpt lat="42.58551" lon="2.04569">
        <ele>1874</ele>
        <time>2020-07-25T08:18:57.066Z</time>
      </trkpt>
      <trkpt lat="42.5855" lon="2.04574">
        <ele>1873</ele>
        <time>2020-07-25T08:18:58.066Z</time>
      </trkpt>
      <trkpt lat="42.5855" lon="2.04579">
        <ele>1872</ele>
        <time>2020-07-25T08:18:59.066Z</time>
      </trkpt>
      <trkpt lat="42.5855" lon="2.04584">
        <ele>1869</ele>
        <time>2020-07-25T08:19:00.066Z</time>
      </trkpt>
      <trkpt lat="42.5855" lon="2.0459">
        <ele>1868</ele>
        <time>2020-07-25T08:19:01.066Z</time>
      </trkpt>
      <trkpt lat="42.58549" lon="2.04596">
        <ele>1866</ele>
        <time>2020-07-25T08:19:02.066Z</time>
      </trkpt>
      <trkpt lat="42.58548" lon="2.04601">
        <ele>1866</ele>
        <time>2020-07-25T08:19:03.066Z</time>
      </trkpt>
      <trkpt lat="42.58546" lon="2.04606">
        <ele>1866</ele>
        <time>2020-07-25T08:19:04.066Z</time>
      </trkpt>
      <trkpt lat="42.58544" lon="2.04611">
        <ele>1865</ele>
        <time>2020-07-25T08:19:05.066Z</time>
      </trkpt>
      <trkpt lat="42.58542" lon="2.04616">
        <ele>1864</ele>
        <time>2020-07-25T08:19:06.066Z</time>
      </trkpt>
      <trkpt lat="42.5854" lon="2.04621">
        <ele>1864</ele>
        <time>2020-07-25T08:19:07.066Z</time>
      </trkpt>
      <trkpt lat="42.58537" lon="2.04625">
        <ele>1862</ele>
        <time>2020-07-25T08:19:08.066Z</time>
      </trkpt>
      <trkpt lat="42.58534" lon="2.0463">
        <ele>1861</ele>
        <time>2020-07-25T08:19:09.066Z</time>
      </trkpt>
      <trkpt lat="42.58532" lon="2.04634">
        <ele>1859</ele>
        <time>2020-07-25T08:19:10.066Z</time>
      </trkpt>
      <trkpt lat="42.5853" lon="2.04638">
        <ele>1858</ele>
        <time>2020-07-25T08:19:11.066Z</time>
      </trkpt>
      <trkpt lat="42.58528" lon="2.04642">
        <ele>1857</ele>
        <time>2020-07-25T08:19:12.066Z</time>
      </trkpt>
      <trkpt lat="42.58526" lon="2.04646">
        <ele>1856</ele>
        <time>2020-07-25T08:19:13.066Z</time>
      </trkpt>
      <trkpt lat="42.58524" lon="2.0465">
        <ele>1854</ele>
        <time>2020-07-25T08:19:14.066Z</time>
      </trkpt>
      <trkpt lat="42.58522" lon="2.04654">
        <ele>1853</ele>
        <time>2020-07-25T08:19:15.066Z</time>
      </trkpt>
      <trkpt lat="42.5852" lon="2.04658">
        <ele>1853</ele>
        <time>2020-07-25T08:19:16.066Z</time>
      </trkpt>
      <trkpt lat="42.58518" lon="2.04662">
        <ele>1852</ele>
        <time>2020-07-25T08:19:17.066Z</time>
      </trkpt>
      <trkpt lat="42.58516" lon="2.04665">
        <ele>1851</ele>
        <time>2020-07-25T08:19:18.066Z</time>
      </trkpt>
      <trkpt lat="42.58513" lon="2.04669">
        <ele>1851</ele>
        <time>2020-07-25T08:19:19.066Z</time>
      </trkpt>
      <trkpt lat="42.58511" lon="2.04672">
        <ele>1849</ele>
        <time>2020-07-25T08:19:20.066Z</time>
      </trkpt>
      <trkpt lat="42.58509" lon="2.04675">
        <ele>1849</ele>
        <time>2020-07-25T08:19:21.066Z</time>
      </trkpt>
      <trkpt lat="42.58507" lon="2.04678">
        <ele>1849</ele>
        <time>2020-07-25T08:19:22.066Z</time>
      </trkpt>
      <trkpt lat="42.58505" lon="2.04682">
        <ele>1849</ele>
        <time>2020-07-25T08:19:23.066Z</time>
      </trkpt>
      <trkpt lat="42.58503" lon="2.04686">
        <ele>1849</ele>
        <time>2020-07-25T08:19:24.066Z</time>
      </trkpt>
      <trkpt lat="42.58502" lon="2.0469">
        <ele>1850</ele>
        <time>2020-07-25T08:19:25.066Z</time>
      </trkpt>
      <trkpt lat="42.585" lon="2.04695">
        <ele>1853</ele>
        <time>2020-07-25T08:19:26.066Z</time>
      </trkpt>
      <trkpt lat="42.58499" lon="2.04699">
        <ele>1855</ele>
        <time>2020-07-25T08:19:27.066Z</time>
      </trkpt>
      <trkpt lat="42.58498" lon="2.04705">
        <ele>1857</ele>
        <time>2020-07-25T08:19:28.066Z</time>
      </trkpt>
      <trkpt lat="42.58497" lon="2.0471">
        <ele>1859</ele>
        <time>2020-07-25T08:19:29.066Z</time>
      </trkpt>
      <trkpt lat="42.58497" lon="2.04715">
        <ele>1861</ele>
        <time>2020-07-25T08:19:30.066Z</time>
      </trkpt>
      <trkpt lat="42.58496" lon="2.0472">
        <ele>1861</ele>
        <time>2020-07-25T08:19:31.066Z</time>
      </trkpt>
      <trkpt lat="42.58496" lon="2.04724">
        <ele>1863</ele>
        <time>2020-07-25T08:19:32.066Z</time>
      </trkpt>
      <trkpt lat="42.58496" lon="2.04728">
        <ele>1864</ele>
        <time>2020-07-25T08:19:33.066Z</time>
      </trkpt>
      <trkpt lat="42.58497" lon="2.04732">
        <ele>1865</ele>
        <time>2020-07-25T08:19:34.066Z</time>
      </trkpt>
      <trkpt lat="42.58496" lon="2.04736">
        <ele>1865</ele>
        <time>2020-07-25T08:19:35.066Z</time>
      </trkpt>
      <trkpt lat="42.58496" lon="2.04739">
        <ele>1867</ele>
        <time>2020-07-25T08:19:36.066Z</time>
      </trkpt>
      <trkpt lat="42.58496" lon="2.04743">
        <ele>1868</ele>
        <time>2020-07-25T08:19:37.066Z</time>
      </trkpt>
      <trkpt lat="42.58496" lon="2.04748">
        <ele>1869</ele>
        <time>2020-07-25T08:19:38.066Z</time>
      </trkpt>
      <trkpt lat="42.58496" lon="2.04752">
        <ele>1870</ele>
        <time>2020-07-25T08:19:39.066Z</time>
      </trkpt>
      <trkpt lat="42.58497" lon="2.04756">
        <ele>1870</ele>
        <time>2020-07-25T08:19:40.066Z</time>
      </trkpt>
      <trkpt lat="42.58498" lon="2.04759">
        <ele>1870</ele>
        <time>2020-07-25T08:19:41.066Z</time>
      </trkpt>
      <trkpt lat="42.58499" lon="2.04763">
        <ele>1872</ele>
        <time>2020-07-25T08:19:42.066Z</time>
      </trkpt>
      <trkpt lat="42.58501" lon="2.04768">
        <ele>1873</ele>
        <time>2020-07-25T08:19:43.066Z</time>
      </trkpt>
      <trkpt lat="42.58503" lon="2.04772">
        <ele>1875</ele>
        <time>2020-07-25T08:19:44.066Z</time>
      </trkpt>
      <trkpt lat="42.58504" lon="2.04777">
        <ele>1875</ele>
        <time>2020-07-25T08:19:45.066Z</time>
      </trkpt>
      <trkpt lat="42.58504" lon="2.04783">
        <ele>1877</ele>
        <time>2020-07-25T08:19:46.066Z</time>
      </trkpt>
      <trkpt lat="42.58504" lon="2.04788">
        <ele>1879</ele>
        <time>2020-07-25T08:19:47.066Z</time>
      </trkpt>
      <trkpt lat="42.58504" lon="2.04794">
        <ele>1880</ele>
        <time>2020-07-25T08:19:48.066Z</time>
      </trkpt>
      <trkpt lat="42.58504" lon="2.04799">
        <ele>1879</ele>
        <time>2020-07-25T08:19:49.066Z</time>
      </trkpt>
      <trkpt lat="42.58504" lon="2.04805">
        <ele>1881</ele>
        <time>2020-07-25T08:19:50.066Z</time>
      </trkpt>
      <trkpt lat="42.58505" lon="2.04809">
        <ele>1880</ele>
        <time>2020-07-25T08:19:51.066Z</time>
      </trkpt>
      <trkpt lat="42.58506" lon="2.04814">
        <ele>1881</ele>
        <time>2020-07-25T08:19:52.066Z</time>
      </trkpt>
      <trkpt lat="42.58507" lon="2.04819">
        <ele>1884</ele>
        <time>2020-07-25T08:19:53.066Z</time>
      </trkpt>
      <trkpt lat="42.58507" lon="2.04824">
        <ele>1885</ele>
        <time>2020-07-25T08:19:54.066Z</time>
      </trkpt>
      <trkpt lat="42.58508" lon="2.04829">
        <ele>1887</ele>
        <time>2020-07-25T08:19:55.066Z</time>
      </trkpt>
      <trkpt lat="42.58507" lon="2.04835">
        <ele>1888</ele>
        <time>2020-07-25T08:19:56.066Z</time>
      </trkpt>
      <trkpt lat="42.58507" lon="2.04841">
        <ele>1887</ele>
        <time>2020-07-25T08:19:57.066Z</time>
      </trkpt>
      <trkpt lat="42.58507" lon="2.04846">
        <ele>1887</ele>
        <time>2020-07-25T08:19:58.066Z</time>
      </trkpt>
      <trkpt lat="42.58508" lon="2.04852">
        <ele>1887</ele>
        <time>2020-07-25T08:19:59.066Z</time>
      </trkpt>
      <trkpt lat="42.58508" lon="2.04857">
        <ele>1888</ele>
        <time>2020-07-25T08:20:00.066Z</time>
      </trkpt>
      <trkpt lat="42.58509" lon="2.04863">
        <ele>1888</ele>
        <time>2020-07-25T08:20:01.066Z</time>
      </trkpt>
      <trkpt lat="42.58509" lon="2.04868">
        <ele>1888</ele>
        <time>2020-07-25T08:20:02.066Z</time>
      </trkpt>
      <trkpt lat="42.58509" lon="2.04873">
        <ele>1889</ele>
        <time>2020-07-25T08:20:03.066Z</time>
      </trkpt>
      <trkpt lat="42.58508" lon="2.04878">
        <ele>1889</ele>
        <time>2020-07-25T08:20:04.066Z</time>
      </trkpt>
      <trkpt lat="42.58507" lon="2.04884">
        <ele>1892</ele>
        <time>2020-07-25T08:20:05.066Z</time>
      </trkpt>
      <trkpt lat="42.58506" lon="2.04889">
        <ele>1892</ele>
        <time>2020-07-25T08:20:06.066Z</time>
      </trkpt>
      <trkpt lat="42.58506" lon="2.04895">
        <ele>1893</ele>
        <time>2020-07-25T08:20:07.066Z</time>
      </trkpt>
      <trkpt lat="42.58506" lon="2.049">
        <ele>1891</ele>
        <time>2020-07-25T08:20:08.066Z</time>
      </trkpt>
      <trkpt lat="42.58506" lon="2.04905">
        <ele>1891</ele>
        <time>2020-07-25T08:20:09.066Z</time>
      </trkpt>
      <trkpt lat="42.58507" lon="2.04911">
        <ele>1890</ele>
        <time>2020-07-25T08:20:10.066Z</time>
      </trkpt>
      <trkpt lat="42.58507" lon="2.04916">
        <ele>1889</ele>
        <time>2020-07-25T08:20:11.066Z</time>
      </trkpt>
      <trkpt lat="42.58506" lon="2.04922">
        <ele>1889</ele>
        <time>2020-07-25T08:20:12.066Z</time>
      </trkpt>
      <trkpt lat="42.58505" lon="2.04928">
        <ele>1888</ele>
        <time>2020-07-25T08:20:13.066Z</time>
      </trkpt>
      <trkpt lat="42.58504" lon="2.04934">
        <ele>1888</ele>
        <time>2020-07-25T08:20:14.066Z</time>
      </trkpt>
      <trkpt lat="42.58504" lon="2.0494">
        <ele>1888</ele>
        <time>2020-07-25T08:20:15.066Z</time>
      </trkpt>
      <trkpt lat="42.58504" lon="2.04946">
        <ele>1888</ele>
        <time>2020-07-25T08:20:16.066Z</time>
      </trkpt>
      <trkpt lat="42.58504" lon="2.04951">
        <ele>1887</ele>
        <time>2020-07-25T08:20:17.066Z</time>
      </trkpt>
      <trkpt lat="42.58504" lon="2.04956">
        <ele>1886</ele>
        <time>2020-07-25T08:20:18.066Z</time>
      </trkpt>
      <trkpt lat="42.58504" lon="2.0496">
        <ele>1885</ele>
        <time>2020-07-25T08:20:19.066Z</time>
      </trkpt>
      <trkpt lat="42.58504" lon="2.04965">
        <ele>1885</ele>
        <time>2020-07-25T08:20:20.066Z</time>
      </trkpt>
      <trkpt lat="42.58504" lon="2.04969">
        <ele>1885</ele>
        <time>2020-07-25T08:20:21.066Z</time>
      </trkpt>
      <trkpt lat="42.58503" lon="2.04974">
        <ele>1884</ele>
        <time>2020-07-25T08:20:22.066Z</time>
      </trkpt>
      <trkpt lat="42.58502" lon="2.04979">
        <ele>1884</ele>
        <time>2020-07-25T08:20:23.066Z</time>
      </trkpt>
      <trkpt lat="42.58502" lon="2.04984">
        <ele>1883</ele>
        <time>2020-07-25T08:20:24.066Z</time>
      </trkpt>
      <trkpt lat="42.58501" lon="2.0499">
        <ele>1880</ele>
        <time>2020-07-25T08:20:25.066Z</time>
      </trkpt>
      <trkpt lat="42.58502" lon="2.04997">
        <ele>1873</ele>
        <time>2020-07-25T08:20:26.066Z</time>
      </trkpt>
      <trkpt lat="42.58502" lon="2.05003">
        <ele>1872</ele>
        <time>2020-07-25T08:20:27.066Z</time>
      </trkpt>
      <trkpt lat="42.58503" lon="2.05009">
        <ele>1872</ele>
        <time>2020-07-25T08:20:28.066Z</time>
      </trkpt>
      <trkpt lat="42.58504" lon="2.05014">
        <ele>1870</ele>
        <time>2020-07-25T08:20:29.066Z</time>
      </trkpt>
      <trkpt lat="42.58504" lon="2.05019">
        <ele>1867</ele>
        <time>2020-07-25T08:20:30.066Z</time>
      </trkpt>
      <trkpt lat="42.58502" lon="2.05024">
        <ele>1866</ele>
        <time>2020-07-25T08:20:31.066Z</time>
      </trkpt>
      <trkpt lat="42.585" lon="2.05029">
        <ele>1865</ele>
        <time>2020-07-25T08:20:32.066Z</time>
      </trkpt>
      <trkpt lat="42.58497" lon="2.05033">
        <ele>1864</ele>
        <time>2020-07-25T08:20:33.066Z</time>
      </trkpt>
      <trkpt lat="42.58494" lon="2.05037">
        <ele>1863</ele>
        <time>2020-07-25T08:20:34.066Z</time>
      </trkpt>
      <trkpt lat="42.58491" lon="2.05041">
        <ele>1862</ele>
        <time>2020-07-25T08:20:35.066Z</time>
      </trkpt>
      <trkpt lat="42.58489" lon="2.05044">
        <ele>1861</ele>
        <time>2020-07-25T08:20:36.066Z</time>
      </trkpt>
      <trkpt lat="42.58487" lon="2.05047">
        <ele>1860</ele>
        <time>2020-07-25T08:20:37.066Z</time>
      </trkpt>
      <trkpt lat="42.58484" lon="2.05049">
        <ele>1858</ele>
        <time>2020-07-25T08:20:38.066Z</time>
      </trkpt>
      <trkpt lat="42.58482" lon="2.05052">
        <ele>1857</ele>
        <time>2020-07-25T08:20:39.066Z</time>
      </trkpt>
      <trkpt lat="42.58479" lon="2.05055">
        <ele>1855</ele>
        <time>2020-07-25T08:20:40.066Z</time>
      </trkpt>
      <trkpt lat="42.58476" lon="2.05058">
        <ele>1853</ele>
        <time>2020-07-25T08:20:41.066Z</time>
      </trkpt>
      <trkpt lat="42.58473" lon="2.05061">
        <ele>1852</ele>
        <time>2020-07-25T08:20:42.066Z</time>
      </trkpt>
      <trkpt lat="42.5847" lon="2.05063">
        <ele>1851</ele>
        <time>2020-07-25T08:20:43.066Z</time>
      </trkpt>
      <trkpt lat="42.58467" lon="2.05065">
        <ele>1850</ele>
        <time>2020-07-25T08:20:44.066Z</time>
      </trkpt>
      <trkpt lat="42.58464" lon="2.05067">
        <ele>1849</ele>
        <time>2020-07-25T08:20:45.066Z</time>
      </trkpt>
      <trkpt lat="42.58461" lon="2.05067">
        <ele>1848</ele>
        <time>2020-07-25T08:20:46.066Z</time>
      </trkpt>
      <trkpt lat="42.58458" lon="2.05068">
        <ele>1848</ele>
        <time>2020-07-25T08:20:47.066Z</time>
      </trkpt>
      <trkpt lat="42.58455" lon="2.05069">
        <ele>1848</ele>
        <time>2020-07-25T08:20:48.066Z</time>
      </trkpt>
      <trkpt lat="42.58452" lon="2.05069">
        <ele>1848</ele>
        <time>2020-07-25T08:20:49.066Z</time>
      </trkpt>
      <trkpt lat="42.58448" lon="2.05069">
        <ele>1848</ele>
        <time>2020-07-25T08:20:50.066Z</time>
      </trkpt>
      <trkpt lat="42.58445" lon="2.05068">
        <ele>1847</ele>
        <time>2020-07-25T08:20:51.066Z</time>
      </trkpt>
      <trkpt lat="42.58441" lon="2.05067">
        <ele>1847</ele>
        <time>2020-07-25T08:20:52.066Z</time>
      </trkpt>
      <trkpt lat="42.58438" lon="2.05066">
        <ele>1846</ele>
        <time>2020-07-25T08:20:53.066Z</time>
      </trkpt>
      <trkpt lat="42.58435" lon="2.05066">
        <ele>1846</ele>
        <time>2020-07-25T08:20:54.066Z</time>
      </trkpt>
      <trkpt lat="42.58431" lon="2.05065">
        <ele>1845</ele>
        <time>2020-07-25T08:20:55.066Z</time>
      </trkpt>
      <trkpt lat="42.58427" lon="2.05065">
        <ele>1845</ele>
        <time>2020-07-25T08:20:56.066Z</time>
      </trkpt>
      <trkpt lat="42.58422" lon="2.05066">
        <ele>1845</ele>
        <time>2020-07-25T08:20:57.066Z</time>
      </trkpt>
      <trkpt lat="42.58418" lon="2.05067">
        <ele>1843</ele>
        <time>2020-07-25T08:20:58.066Z</time>
      </trkpt>
      <trkpt lat="42.58415" lon="2.05069">
        <ele>1843</ele>
        <time>2020-07-25T08:20:59.066Z</time>
      </trkpt>
      <trkpt lat="42.58412" lon="2.0507">
        <ele>1842</ele>
        <time>2020-07-25T08:21:00.066Z</time>
      </trkpt>
      <trkpt lat="42.58409" lon="2.05072">
        <ele>1842</ele>
        <time>2020-07-25T08:21:01.066Z</time>
      </trkpt>
      <trkpt lat="42.58406" lon="2.05074">
        <ele>1842</ele>
        <time>2020-07-25T08:21:02.066Z</time>
      </trkpt>
      <trkpt lat="42.58402" lon="2.05077">
        <ele>1842</ele>
        <time>2020-07-25T08:21:03.066Z</time>
      </trkpt>
      <trkpt lat="42.58399" lon="2.0508">
        <ele>1842</ele>
        <time>2020-07-25T08:21:04.066Z</time>
      </trkpt>
      <trkpt lat="42.58396" lon="2.05083">
        <ele>1841</ele>
        <time>2020-07-25T08:21:05.066Z</time>
      </trkpt>
      <trkpt lat="42.58394" lon="2.05086">
        <ele>1843</ele>
        <time>2020-07-25T08:21:06.066Z</time>
      </trkpt>
      <trkpt lat="42.58391" lon="2.0509">
        <ele>1843</ele>
        <time>2020-07-25T08:21:07.066Z</time>
      </trkpt>
      <trkpt lat="42.58388" lon="2.05093">
        <ele>1843</ele>
        <time>2020-07-25T08:21:08.066Z</time>
      </trkpt>
      <trkpt lat="42.58385" lon="2.05096">
        <ele>1844</ele>
        <time>2020-07-25T08:21:09.066Z</time>
      </trkpt>
      <trkpt lat="42.58383" lon="2.05099">
        <ele>1845</ele>
        <time>2020-07-25T08:21:10.066Z</time>
      </trkpt>
      <trkpt lat="42.5838" lon="2.05102">
        <ele>1844</ele>
        <time>2020-07-25T08:21:11.066Z</time>
      </trkpt>
      <trkpt lat="42.58377" lon="2.05105">
        <ele>1843</ele>
        <time>2020-07-25T08:21:12.066Z</time>
      </trkpt>
      <trkpt lat="42.58375" lon="2.05108">
        <ele>1844</ele>
        <time>2020-07-25T08:21:13.066Z</time>
      </trkpt>
      <trkpt lat="42.58372" lon="2.05112">
        <ele>1844</ele>
        <time>2020-07-25T08:21:14.066Z</time>
      </trkpt>
      <trkpt lat="42.5837" lon="2.05116">
        <ele>1843</ele>
        <time>2020-07-25T08:21:15.066Z</time>
      </trkpt>
      <trkpt lat="42.58368" lon="2.05118">
        <ele>1844</ele>
        <time>2020-07-25T08:21:16.066Z</time>
      </trkpt>
      <trkpt lat="42.58365" lon="2.05121">
        <ele>1845</ele>
        <time>2020-07-25T08:21:17.066Z</time>
      </trkpt>
      <trkpt lat="42.58363" lon="2.05123">
        <ele>1844</ele>
        <time>2020-07-25T08:21:18.066Z</time>
      </trkpt>
      <trkpt lat="42.58361" lon="2.05126">
        <ele>1845</ele>
        <time>2020-07-25T08:21:19.066Z</time>
      </trkpt>
      <trkpt lat="42.58358" lon="2.05129">
        <ele>1844</ele>
        <time>2020-07-25T08:21:20.066Z</time>
      </trkpt>
      <trkpt lat="42.58356" lon="2.05133">
        <ele>1843</ele>
        <time>2020-07-25T08:21:21.066Z</time>
      </trkpt>
      <trkpt lat="42.58354" lon="2.05137">
        <ele>1843</ele>
        <time>2020-07-25T08:21:22.066Z</time>
      </trkpt>
      <trkpt lat="42.58351" lon="2.05141">
        <ele>1843</ele>
        <time>2020-07-25T08:21:23.066Z</time>
      </trkpt>
      <trkpt lat="42.58348" lon="2.05145">
        <ele>1842</ele>
        <time>2020-07-25T08:21:24.066Z</time>
      </trkpt>
      <trkpt lat="42.58346" lon="2.05149">
        <ele>1841</ele>
        <time>2020-07-25T08:21:25.066Z</time>
      </trkpt>
      <trkpt lat="42.58344" lon="2.05153">
        <ele>1841</ele>
        <time>2020-07-25T08:21:26.066Z</time>
      </trkpt>
      <trkpt lat="42.58343" lon="2.05158">
        <ele>1843</ele>
        <time>2020-07-25T08:21:27.066Z</time>
      </trkpt>
      <trkpt lat="42.58342" lon="2.05162">
        <ele>1844</ele>
        <time>2020-07-25T08:21:28.066Z</time>
      </trkpt>
      <trkpt lat="42.5834" lon="2.05167">
        <ele>1845</ele>
        <time>2020-07-25T08:21:29.066Z</time>
      </trkpt>
      <trkpt lat="42.58339" lon="2.05172">
        <ele>1845</ele>
        <time>2020-07-25T08:21:30.066Z</time>
      </trkpt>
      <trkpt lat="42.58338" lon="2.05177">
        <ele>1847</ele>
        <time>2020-07-25T08:21:31.066Z</time>
      </trkpt>
      <trkpt lat="42.58337" lon="2.05181">
        <ele>1848</ele>
        <time>2020-07-25T08:21:32.066Z</time>
      </trkpt>
      <trkpt lat="42.58336" lon="2.05187">
        <ele>1853</ele>
        <time>2020-07-25T08:21:33.066Z</time>
      </trkpt>
      <trkpt lat="42.58335" lon="2.05192">
        <ele>1855</ele>
        <time>2020-07-25T08:21:34.066Z</time>
      </trkpt>
      <trkpt lat="42.58334" lon="2.05198">
        <ele>1856</ele>
        <time>2020-07-25T08:21:35.066Z</time>
      </trkpt>
      <trkpt lat="42.58333" lon="2.05202">
        <ele>1857</ele>
        <time>2020-07-25T08:21:36.066Z</time>
      </trkpt>
      <trkpt lat="42.58333" lon="2.05207">
        <ele>1858</ele>
        <time>2020-07-25T08:21:37.066Z</time>
      </trkpt>
      <trkpt lat="42.58333" lon="2.05212">
        <ele>1858</ele>
        <time>2020-07-25T08:21:38.066Z</time>
      </trkpt>
      <trkpt lat="42.58334" lon="2.05218">
        <ele>1859</ele>
        <time>2020-07-25T08:21:39.066Z</time>
      </trkpt>
      <trkpt lat="42.58335" lon="2.05224">
        <ele>1858</ele>
        <time>2020-07-25T08:21:40.066Z</time>
      </trkpt>
      <trkpt lat="42.58336" lon="2.0523">
        <ele>1857</ele>
        <time>2020-07-25T08:21:41.066Z</time>
      </trkpt>
      <trkpt lat="42.58337" lon="2.05236">
        <ele>1857</ele>
        <time>2020-07-25T08:21:42.066Z</time>
      </trkpt>
      <trkpt lat="42.58338" lon="2.05241">
        <ele>1858</ele>
        <time>2020-07-25T08:21:43.066Z</time>
      </trkpt>
      <trkpt lat="42.58339" lon="2.05247">
        <ele>1858</ele>
        <time>2020-07-25T08:21:44.066Z</time>
      </trkpt>
      <trkpt lat="42.5834" lon="2.05252">
        <ele>1858</ele>
        <time>2020-07-25T08:21:45.066Z</time>
      </trkpt>
      <trkpt lat="42.58341" lon="2.05256">
        <ele>1859</ele>
        <time>2020-07-25T08:21:46.066Z</time>
      </trkpt>
      <trkpt lat="42.58343" lon="2.05261">
        <ele>1860</ele>
        <time>2020-07-25T08:21:47.066Z</time>
      </trkpt>
      <trkpt lat="42.58345" lon="2.05266">
        <ele>1858</ele>
        <time>2020-07-25T08:21:48.066Z</time>
      </trkpt>
      <trkpt lat="42.58346" lon="2.0527">
        <ele>1858</ele>
        <time>2020-07-25T08:21:49.066Z</time>
      </trkpt>
      <trkpt lat="42.58346" lon="2.05275">
        <ele>1858</ele>
        <time>2020-07-25T08:21:50.066Z</time>
      </trkpt>
      <trkpt lat="42.58347" lon="2.0528">
        <ele>1858</ele>
        <time>2020-07-25T08:21:51.066Z</time>
      </trkpt>
      <trkpt lat="42.58347" lon="2.05285">
        <ele>1858</ele>
        <time>2020-07-25T08:21:52.066Z</time>
      </trkpt>
      <trkpt lat="42.58346" lon="2.0529">
        <ele>1858</ele>
        <time>2020-07-25T08:21:53.066Z</time>
      </trkpt>
      <trkpt lat="42.58345" lon="2.05295">
        <ele>1859</ele>
        <time>2020-07-25T08:21:54.066Z</time>
      </trkpt>
      <trkpt lat="42.58344" lon="2.053">
        <ele>1858</ele>
        <time>2020-07-25T08:21:55.066Z</time>
      </trkpt>
      <trkpt lat="42.58344" lon="2.05304">
        <ele>1858</ele>
        <time>2020-07-25T08:21:56.066Z</time>
      </trkpt>
      <trkpt lat="42.58343" lon="2.05309">
        <ele>1857</ele>
        <time>2020-07-25T08:21:57.066Z</time>
      </trkpt>
      <trkpt lat="42.58343" lon="2.05314">
        <ele>1858</ele>
        <time>2020-07-25T08:21:58.066Z</time>
      </trkpt>
      <trkpt lat="42.58343" lon="2.05319">
        <ele>1858</ele>
        <time>2020-07-25T08:21:59.066Z</time>
      </trkpt>
      <trkpt lat="42.58342" lon="2.05324">
        <ele>1859</ele>
        <time>2020-07-25T08:22:00.066Z</time>
      </trkpt>
      <trkpt lat="42.58342" lon="2.05329">
        <ele>1858</ele>
        <time>2020-07-25T08:22:01.066Z</time>
      </trkpt>
      <trkpt lat="42.58341" lon="2.05335">
        <ele>1857</ele>
        <time>2020-07-25T08:22:02.066Z</time>
      </trkpt>
      <trkpt lat="42.5834" lon="2.05341">
        <ele>1857</ele>
        <time>2020-07-25T08:22:03.066Z</time>
      </trkpt>
      <trkpt lat="42.58338" lon="2.05346">
        <ele>1857</ele>
        <time>2020-07-25T08:22:04.066Z</time>
      </trkpt>
      <trkpt lat="42.58336" lon="2.05351">
        <ele>1857</ele>
        <time>2020-07-25T08:22:05.066Z</time>
      </trkpt>
      <trkpt lat="42.58329" lon="2.05377">
        <ele>1857</ele>
        <time>2020-07-25T08:22:06.034Z</time>
      </trkpt>
      <trkpt lat="42.58329" lon="2.05377">
        <ele>1857</ele>
        <time>2020-07-25T08:22:07.034Z</time>
      </trkpt>
      <trkpt lat="42.58328" lon="2.05378">
        <ele>1857</ele>
        <time>2020-07-25T08:22:08.034Z</time>
      </trkpt>
      <trkpt lat="42.58328" lon="2.05379">
        <ele>1857</ele>
        <time>2020-07-25T08:22:09.034Z</time>
      </trkpt>
      <trkpt lat="42.58327" lon="2.05381">
        <ele>1857</ele>
        <time>2020-07-25T08:22:10.034Z</time>
      </trkpt>
      <trkpt lat="42.58327" lon="2.05383">
        <ele>1858</ele>
        <time>2020-07-25T08:22:11.034Z</time>
      </trkpt>
      <trkpt lat="42.58326" lon="2.05386">
        <ele>1858</ele>
        <time>2020-07-25T08:22:12.034Z</time>
      </trkpt>
      <trkpt lat="42.58324" lon="2.05389">
        <ele>1858</ele>
        <time>2020-07-25T08:22:13.034Z</time>
      </trkpt>
      <trkpt lat="42.58323" lon="2.05393">
        <ele>1859</ele>
        <time>2020-07-25T08:22:14.034Z</time>
      </trkpt>
      <trkpt lat="42.58322" lon="2.05396">
        <ele>1859</ele>
        <time>2020-07-25T08:22:15.034Z</time>
      </trkpt>
      <trkpt lat="42.58321" lon="2.054">
        <ele>1861</ele>
        <time>2020-07-25T08:22:16.034Z</time>
      </trkpt>
      <trkpt lat="42.5832" lon="2.05405">
        <ele>1862</ele>
        <time>2020-07-25T08:22:17.034Z</time>
      </trkpt>
      <trkpt lat="42.58319" lon="2.05409">
        <ele>1862</ele>
        <time>2020-07-25T08:22:18.034Z</time>
      </trkpt>
      <trkpt lat="42.58318" lon="2.05413">
        <ele>1863</ele>
        <time>2020-07-25T08:22:19.034Z</time>
      </trkpt>
      <trkpt lat="42.58317" lon="2.05418">
        <ele>1864</ele>
        <time>2020-07-25T08:22:20.034Z</time>
      </trkpt>
      <trkpt lat="42.58315" lon="2.05422">
        <ele>1864</ele>
        <time>2020-07-25T08:22:21.034Z</time>
      </trkpt>
      <trkpt lat="42.58314" lon="2.05426">
        <ele>1862</ele>
        <time>2020-07-25T08:22:22.034Z</time>
      </trkpt>
      <trkpt lat="42.58313" lon="2.05431">
        <ele>1861</ele>
        <time>2020-07-25T08:22:23.034Z</time>
      </trkpt>
      <trkpt lat="42.58311" lon="2.05436">
        <ele>1861</ele>
        <time>2020-07-25T08:22:24.034Z</time>
      </trkpt>
      <trkpt lat="42.58308" lon="2.0544">
        <ele>1860</ele>
        <time>2020-07-25T08:22:25.034Z</time>
      </trkpt>
      <trkpt lat="42.58305" lon="2.05443">
        <ele>1858</ele>
        <time>2020-07-25T08:22:26.034Z</time>
      </trkpt>
      <trkpt lat="42.58303" lon="2.05446">
        <ele>1858</ele>
        <time>2020-07-25T08:22:27.034Z</time>
      </trkpt>
      <trkpt lat="42.583" lon="2.05449">
        <ele>1858</ele>
        <time>2020-07-25T08:22:28.034Z</time>
      </trkpt>
      <trkpt lat="42.58297" lon="2.05453">
        <ele>1857</ele>
        <time>2020-07-25T08:22:29.034Z</time>
      </trkpt>
      <trkpt lat="42.58294" lon="2.05456">
        <ele>1857</ele>
        <time>2020-07-25T08:22:30.034Z</time>
      </trkpt>
      <trkpt lat="42.5829" lon="2.0546">
        <ele>1856</ele>
        <time>2020-07-25T08:22:31.034Z</time>
      </trkpt>
      <trkpt lat="42.58288" lon="2.05463">
        <ele>1855</ele>
        <time>2020-07-25T08:22:32.034Z</time>
      </trkpt>
      <trkpt lat="42.58285" lon="2.05466">
        <ele>1854</ele>
        <time>2020-07-25T08:22:33.034Z</time>
      </trkpt>
      <trkpt lat="42.58283" lon="2.0547">
        <ele>1853</ele>
        <time>2020-07-25T08:22:34.034Z</time>
      </trkpt>
      <trkpt lat="42.5828" lon="2.05474">
        <ele>1852</ele>
        <time>2020-07-25T08:22:35.034Z</time>
      </trkpt>
      <trkpt lat="42.58278" lon="2.05478">
        <ele>1850</ele>
        <time>2020-07-25T08:22:36.034Z</time>
      </trkpt>
      <trkpt lat="42.58274" lon="2.05481">
        <ele>1849</ele>
        <time>2020-07-25T08:22:37.034Z</time>
      </trkpt>
      <trkpt lat="42.58271" lon="2.05485">
        <ele>1849</ele>
        <time>2020-07-25T08:22:38.034Z</time>
      </trkpt>
      <trkpt lat="42.58268" lon="2.05489">
        <ele>1848</ele>
        <time>2020-07-25T08:22:39.034Z</time>
      </trkpt>
      <trkpt lat="42.58265" lon="2.05493">
        <ele>1847</ele>
        <time>2020-07-25T08:22:40.034Z</time>
      </trkpt>
      <trkpt lat="42.58262" lon="2.05497">
        <ele>1848</ele>
        <time>2020-07-25T08:22:41.034Z</time>
      </trkpt>
      <trkpt lat="42.5826" lon="2.055">
        <ele>1848</ele>
        <time>2020-07-25T08:22:42.034Z</time>
      </trkpt>
      <trkpt lat="42.58257" lon="2.05505">
        <ele>1847</ele>
        <time>2020-07-25T08:22:43.034Z</time>
      </trkpt>
      <trkpt lat="42.58256" lon="2.05509">
        <ele>1846</ele>
        <time>2020-07-25T08:22:44.034Z</time>
      </trkpt>
      <trkpt lat="42.58255" lon="2.05514">
        <ele>1847</ele>
        <time>2020-07-25T08:22:45.034Z</time>
      </trkpt>
      <trkpt lat="42.58254" lon="2.05519">
        <ele>1847</ele>
        <time>2020-07-25T08:22:46.034Z</time>
      </trkpt>
      <trkpt lat="42.58253" lon="2.05523">
        <ele>1847</ele>
        <time>2020-07-25T08:22:47.034Z</time>
      </trkpt>
      <trkpt lat="42.58253" lon="2.05527">
        <ele>1848</ele>
        <time>2020-07-25T08:22:48.034Z</time>
      </trkpt>
      <trkpt lat="42.58252" lon="2.05532">
        <ele>1848</ele>
        <time>2020-07-25T08:22:49.034Z</time>
      </trkpt>
      <trkpt lat="42.58251" lon="2.05536">
        <ele>1847</ele>
        <time>2020-07-25T08:22:50.034Z</time>
      </trkpt>
      <trkpt lat="42.5825" lon="2.05541">
        <ele>1847</ele>
        <time>2020-07-25T08:22:51.034Z</time>
      </trkpt>
      <trkpt lat="42.5825" lon="2.05547">
        <ele>1848</ele>
        <time>2020-07-25T08:22:52.034Z</time>
      </trkpt>
      <trkpt lat="42.5825" lon="2.05552">
        <ele>1850</ele>
        <time>2020-07-25T08:22:53.034Z</time>
      </trkpt>
      <trkpt lat="42.5825" lon="2.05557">
        <ele>1850</ele>
        <time>2020-07-25T08:22:54.034Z</time>
      </trkpt>
      <trkpt lat="42.5825" lon="2.05563">
        <ele>1851</ele>
        <time>2020-07-25T08:22:55.034Z</time>
      </trkpt>
      <trkpt lat="42.5825" lon="2.05568">
        <ele>1851</ele>
        <time>2020-07-25T08:22:56.034Z</time>
      </trkpt>
      <trkpt lat="42.5825" lon="2.05573">
        <ele>1854</ele>
        <time>2020-07-25T08:22:57.034Z</time>
      </trkpt>
      <trkpt lat="42.5825" lon="2.05578">
        <ele>1856</ele>
        <time>2020-07-25T08:22:58.034Z</time>
      </trkpt>
      <trkpt lat="42.5825" lon="2.05583">
        <ele>1857</ele>
        <time>2020-07-25T08:22:59.034Z</time>
      </trkpt>
      <trkpt lat="42.5825" lon="2.05588">
        <ele>1857</ele>
        <time>2020-07-25T08:23:00.034Z</time>
      </trkpt>
      <trkpt lat="42.58251" lon="2.05592">
        <ele>1857</ele>
        <time>2020-07-25T08:23:01.034Z</time>
      </trkpt>
      <trkpt lat="42.58251" lon="2.05596">
        <ele>1857</ele>
        <time>2020-07-25T08:23:02.034Z</time>
      </trkpt>
      <trkpt lat="42.58251" lon="2.05599">
        <ele>1859</ele>
        <time>2020-07-25T08:23:03.034Z</time>
      </trkpt>
      <trkpt lat="42.58252" lon="2.05603">
        <ele>1859</ele>
        <time>2020-07-25T08:23:04.034Z</time>
      </trkpt>
      <trkpt lat="42.58252" lon="2.05606">
        <ele>1861</ele>
        <time>2020-07-25T08:23:05.034Z</time>
      </trkpt>
      <trkpt lat="42.58253" lon="2.05611">
        <ele>1861</ele>
        <time>2020-07-25T08:23:06.034Z</time>
      </trkpt>
      <trkpt lat="42.58254" lon="2.05616">
        <ele>1861</ele>
        <time>2020-07-25T08:23:07.034Z</time>
      </trkpt>
      <trkpt lat="42.58255" lon="2.05621">
        <ele>1861</ele>
        <time>2020-07-25T08:23:08.034Z</time>
      </trkpt>
      <trkpt lat="42.58255" lon="2.05626">
        <ele>1862</ele>
        <time>2020-07-25T08:23:09.034Z</time>
      </trkpt>
      <trkpt lat="42.58256" lon="2.05631">
        <ele>1861</ele>
        <time>2020-07-25T08:23:10.034Z</time>
      </trkpt>
      <trkpt lat="42.58256" lon="2.05636">
        <ele>1861</ele>
        <time>2020-07-25T08:23:11.034Z</time>
      </trkpt>
      <trkpt lat="42.58256" lon="2.05641">
        <ele>1860</ele>
        <time>2020-07-25T08:23:12.034Z</time>
      </trkpt>
      <trkpt lat="42.58256" lon="2.05646">
        <ele>1860</ele>
        <time>2020-07-25T08:23:13.034Z</time>
      </trkpt>
      <trkpt lat="42.58256" lon="2.05651">
        <ele>1860</ele>
        <time>2020-07-25T08:23:14.034Z</time>
      </trkpt>
      <trkpt lat="42.58257" lon="2.05656">
        <ele>1860</ele>
        <time>2020-07-25T08:23:15.034Z</time>
      </trkpt>
      <trkpt lat="42.58257" lon="2.05661">
        <ele>1860</ele>
        <time>2020-07-25T08:23:16.034Z</time>
      </trkpt>
      <trkpt lat="42.58257" lon="2.05666">
        <ele>1861</ele>
        <time>2020-07-25T08:23:17.034Z</time>
      </trkpt>
      <trkpt lat="42.58257" lon="2.05671">
        <ele>1860</ele>
        <time>2020-07-25T08:23:18.034Z</time>
      </trkpt>
      <trkpt lat="42.58258" lon="2.05676">
        <ele>1860</ele>
        <time>2020-07-25T08:23:19.034Z</time>
      </trkpt>
      <trkpt lat="42.58258" lon="2.05681">
        <ele>1860</ele>
        <time>2020-07-25T08:23:20.034Z</time>
      </trkpt>
      <trkpt lat="42.58259" lon="2.05686">
        <ele>1861</ele>
        <time>2020-07-25T08:23:21.034Z</time>
      </trkpt>
      <trkpt lat="42.58259" lon="2.05691">
        <ele>1862</ele>
        <time>2020-07-25T08:23:22.034Z</time>
      </trkpt>
      <trkpt lat="42.58258" lon="2.05696">
        <ele>1863</ele>
        <time>2020-07-25T08:23:23.034Z</time>
      </trkpt>
      <trkpt lat="42.58258" lon="2.05702">
        <ele>1864</ele>
        <time>2020-07-25T08:23:24.034Z</time>
      </trkpt>
      <trkpt lat="42.58256" lon="2.05708">
        <ele>1863</ele>
        <time>2020-07-25T08:23:25.034Z</time>
      </trkpt>
      <trkpt lat="42.58254" lon="2.05715">
        <ele>1863</ele>
        <time>2020-07-25T08:23:26.034Z</time>
      </trkpt>
      <trkpt lat="42.58251" lon="2.05721">
        <ele>1863</ele>
        <time>2020-07-25T08:23:27.034Z</time>
      </trkpt>
      <trkpt lat="42.58249" lon="2.05726">
        <ele>1862</ele>
        <time>2020-07-25T08:23:28.034Z</time>
      </trkpt>
      <trkpt lat="42.58248" lon="2.05731">
        <ele>1860</ele>
        <time>2020-07-25T08:23:29.034Z</time>
      </trkpt>
      <trkpt lat="42.58246" lon="2.05737">
        <ele>1861</ele>
        <time>2020-07-25T08:23:30.034Z</time>
      </trkpt>
      <trkpt lat="42.58243" lon="2.05742">
        <ele>1861</ele>
        <time>2020-07-25T08:23:31.034Z</time>
      </trkpt>
      <trkpt lat="42.58241" lon="2.05747">
        <ele>1861</ele>
        <time>2020-07-25T08:23:32.034Z</time>
      </trkpt>
      <trkpt lat="42.5824" lon="2.05753">
        <ele>1860</ele>
        <time>2020-07-25T08:23:33.034Z</time>
      </trkpt>
      <trkpt lat="42.58239" lon="2.05758">
        <ele>1858</ele>
        <time>2020-07-25T08:23:34.034Z</time>
      </trkpt>
      <trkpt lat="42.58238" lon="2.05763">
        <ele>1856</ele>
        <time>2020-07-25T08:23:35.034Z</time>
      </trkpt>
      <trkpt lat="42.58238" lon="2.05769">
        <ele>1856</ele>
        <time>2020-07-25T08:23:36.034Z</time>
      </trkpt>
      <trkpt lat="42.58237" lon="2.05774">
        <ele>1856</ele>
        <time>2020-07-25T08:23:37.034Z</time>
      </trkpt>
      <trkpt lat="42.58235" lon="2.0578">
        <ele>1855</ele>
        <time>2020-07-25T08:23:38.034Z</time>
      </trkpt>
      <trkpt lat="42.58234" lon="2.05785">
        <ele>1854</ele>
        <time>2020-07-25T08:23:39.034Z</time>
      </trkpt>
      <trkpt lat="42.58233" lon="2.05791">
        <ele>1852</ele>
        <time>2020-07-25T08:23:40.034Z</time>
      </trkpt>
      <trkpt lat="42.58231" lon="2.05796">
        <ele>1852</ele>
        <time>2020-07-25T08:23:41.034Z</time>
      </trkpt>
      <trkpt lat="42.5823" lon="2.05802">
        <ele>1852</ele>
        <time>2020-07-25T08:23:42.034Z</time>
      </trkpt>
      <trkpt lat="42.58228" lon="2.05806">
        <ele>1852</ele>
        <time>2020-07-25T08:23:43.034Z</time>
      </trkpt>
      <trkpt lat="42.58227" lon="2.05811">
        <ele>1851</ele>
        <time>2020-07-25T08:23:44.034Z</time>
      </trkpt>
      <trkpt lat="42.58226" lon="2.05816">
        <ele>1852</ele>
        <time>2020-07-25T08:23:45.034Z</time>
      </trkpt>
      <trkpt lat="42.58224" lon="2.05821">
        <ele>1852</ele>
        <time>2020-07-25T08:23:46.034Z</time>
      </trkpt>
      <trkpt lat="42.58223" lon="2.05826">
        <ele>1852</ele>
        <time>2020-07-25T08:23:47.034Z</time>
      </trkpt>
      <trkpt lat="42.58222" lon="2.0583">
        <ele>1851</ele>
        <time>2020-07-25T08:23:48.034Z</time>
      </trkpt>
      <trkpt lat="42.58221" lon="2.05835">
        <ele>1851</ele>
        <time>2020-07-25T08:23:49.034Z</time>
      </trkpt>
      <trkpt lat="42.5822" lon="2.0584">
        <ele>1851</ele>
        <time>2020-07-25T08:23:50.034Z</time>
      </trkpt>
      <trkpt lat="42.5822" lon="2.05845">
        <ele>1851</ele>
        <time>2020-07-25T08:23:51.034Z</time>
      </trkpt>
      <trkpt lat="42.58219" lon="2.0585">
        <ele>1851</ele>
        <time>2020-07-25T08:23:52.034Z</time>
      </trkpt>
      <trkpt lat="42.58219" lon="2.05855">
        <ele>1851</ele>
        <time>2020-07-25T08:23:53.034Z</time>
      </trkpt>
      <trkpt lat="42.58218" lon="2.05859">
        <ele>1852</ele>
        <time>2020-07-25T08:23:54.034Z</time>
      </trkpt>
      <trkpt lat="42.58217" lon="2.05864">
        <ele>1852</ele>
        <time>2020-07-25T08:23:55.034Z</time>
      </trkpt>
      <trkpt lat="42.58216" lon="2.05869">
        <ele>1851</ele>
        <time>2020-07-25T08:23:56.034Z</time>
      </trkpt>
      <trkpt lat="42.58216" lon="2.05875">
        <ele>1851</ele>
        <time>2020-07-25T08:23:57.034Z</time>
      </trkpt>
      <trkpt lat="42.58215" lon="2.0588">
        <ele>1851</ele>
        <time>2020-07-25T08:23:58.034Z</time>
      </trkpt>
      <trkpt lat="42.58214" lon="2.05885">
        <ele>1852</ele>
        <time>2020-07-25T08:23:59.034Z</time>
      </trkpt>
      <trkpt lat="42.58213" lon="2.0589">
        <ele>1851</ele>
        <time>2020-07-25T08:24:00.034Z</time>
      </trkpt>
      <trkpt lat="42.58213" lon="2.05896">
        <ele>1851</ele>
        <time>2020-07-25T08:24:01.034Z</time>
      </trkpt>
      <trkpt lat="42.58213" lon="2.05901">
        <ele>1851</ele>
        <time>2020-07-25T08:24:02.034Z</time>
      </trkpt>
      <trkpt lat="42.58212" lon="2.05907">
        <ele>1851</ele>
        <time>2020-07-25T08:24:03.034Z</time>
      </trkpt>
      <trkpt lat="42.58212" lon="2.05912">
        <ele>1851</ele>
        <time>2020-07-25T08:24:04.034Z</time>
      </trkpt>
      <trkpt lat="42.58211" lon="2.05917">
        <ele>1851</ele>
        <time>2020-07-25T08:24:05.034Z</time>
      </trkpt>
      <trkpt lat="42.5821" lon="2.05922">
        <ele>1850</ele>
        <time>2020-07-25T08:24:06.034Z</time>
      </trkpt>
      <trkpt lat="42.58209" lon="2.05927">
        <ele>1851</ele>
        <time>2020-07-25T08:24:07.034Z</time>
      </trkpt>
      <trkpt lat="42.58208" lon="2.05932">
        <ele>1850</ele>
        <time>2020-07-25T08:24:08.034Z</time>
      </trkpt>
      <trkpt lat="42.58207" lon="2.05937">
        <ele>1850</ele>
        <time>2020-07-25T08:24:09.034Z</time>
      </trkpt>
      <trkpt lat="42.58206" lon="2.05942">
        <ele>1851</ele>
        <time>2020-07-25T08:24:10.034Z</time>
      </trkpt>
      <trkpt lat="42.58205" lon="2.05947">
        <ele>1851</ele>
        <time>2020-07-25T08:24:11.034Z</time>
      </trkpt>
      <trkpt lat="42.58204" lon="2.05952">
        <ele>1852</ele>
        <time>2020-07-25T08:24:12.034Z</time>
      </trkpt>
      <trkpt lat="42.58204" lon="2.05957">
        <ele>1853</ele>
        <time>2020-07-25T08:24:13.034Z</time>
      </trkpt>
      <trkpt lat="42.58203" lon="2.05962">
        <ele>1854</ele>
        <time>2020-07-25T08:24:14.034Z</time>
      </trkpt>
      <trkpt lat="42.58203" lon="2.05966">
        <ele>1854</ele>
        <time>2020-07-25T08:24:15.034Z</time>
      </trkpt>
      <trkpt lat="42.58203" lon="2.05971">
        <ele>1855</ele>
        <time>2020-07-25T08:24:16.034Z</time>
      </trkpt>
      <trkpt lat="42.58203" lon="2.05976">
        <ele>1856</ele>
        <time>2020-07-25T08:24:17.034Z</time>
      </trkpt>
      <trkpt lat="42.58203" lon="2.05982">
        <ele>1856</ele>
        <time>2020-07-25T08:24:18.034Z</time>
      </trkpt>
      <trkpt lat="42.58204" lon="2.05987">
        <ele>1856</ele>
        <time>2020-07-25T08:24:19.034Z</time>
      </trkpt>
      <trkpt lat="42.58206" lon="2.05993">
        <ele>1854</ele>
        <time>2020-07-25T08:24:20.034Z</time>
      </trkpt>
      <trkpt lat="42.58207" lon="2.05999">
        <ele>1853</ele>
        <time>2020-07-25T08:24:21.034Z</time>
      </trkpt>
      <trkpt lat="42.58208" lon="2.06004">
        <ele>1851</ele>
        <time>2020-07-25T08:24:22.034Z</time>
      </trkpt>
      <trkpt lat="42.58208" lon="2.06009">
        <ele>1851</ele>
        <time>2020-07-25T08:24:23.034Z</time>
      </trkpt>
      <trkpt lat="42.58209" lon="2.06015">
        <ele>1851</ele>
        <time>2020-07-25T08:24:24.034Z</time>
      </trkpt>
      <trkpt lat="42.58209" lon="2.0602">
        <ele>1849</ele>
        <time>2020-07-25T08:24:25.034Z</time>
      </trkpt>
      <trkpt lat="42.5821" lon="2.06025">
        <ele>1848</ele>
        <time>2020-07-25T08:24:26.034Z</time>
      </trkpt>
      <trkpt lat="42.58211" lon="2.0603">
        <ele>1848</ele>
        <time>2020-07-25T08:24:27.034Z</time>
      </trkpt>
      <trkpt lat="42.58212" lon="2.06035">
        <ele>1848</ele>
        <time>2020-07-25T08:24:28.034Z</time>
      </trkpt>
      <trkpt lat="42.58214" lon="2.0604">
        <ele>1848</ele>
        <time>2020-07-25T08:24:29.034Z</time>
      </trkpt>
      <trkpt lat="42.58216" lon="2.06045">
        <ele>1847</ele>
        <time>2020-07-25T08:24:30.034Z</time>
      </trkpt>
      <trkpt lat="42.58217" lon="2.0605">
        <ele>1846</ele>
        <time>2020-07-25T08:24:31.034Z</time>
      </trkpt>
      <trkpt lat="42.58218" lon="2.06054">
        <ele>1845</ele>
        <time>2020-07-25T08:24:32.034Z</time>
      </trkpt>
      <trkpt lat="42.58219" lon="2.06058">
        <ele>1845</ele>
        <time>2020-07-25T08:24:33.034Z</time>
      </trkpt>
      <trkpt lat="42.58219" lon="2.06063">
        <ele>1845</ele>
        <time>2020-07-25T08:24:34.034Z</time>
      </trkpt>
      <trkpt lat="42.5822" lon="2.06069">
        <ele>1845</ele>
        <time>2020-07-25T08:24:35.034Z</time>
      </trkpt>
      <trkpt lat="42.5822" lon="2.06073">
        <ele>1845</ele>
        <time>2020-07-25T08:24:36.034Z</time>
      </trkpt>
      <trkpt lat="42.58222" lon="2.06078">
        <ele>1845</ele>
        <time>2020-07-25T08:24:37.034Z</time>
      </trkpt>
      <trkpt lat="42.58223" lon="2.06082">
        <ele>1845</ele>
        <time>2020-07-25T08:24:38.034Z</time>
      </trkpt>
      <trkpt lat="42.58224" lon="2.06087">
        <ele>1846</ele>
        <time>2020-07-25T08:24:39.034Z</time>
      </trkpt>
      <trkpt lat="42.58225" lon="2.06092">
        <ele>1848</ele>
        <time>2020-07-25T08:24:40.034Z</time>
      </trkpt>
      <trkpt lat="42.58226" lon="2.06097">
        <ele>1849</ele>
        <time>2020-07-25T08:24:41.034Z</time>
      </trkpt>
      <trkpt lat="42.58227" lon="2.06102">
        <ele>1849</ele>
        <time>2020-07-25T08:24:42.034Z</time>
      </trkpt>
      <trkpt lat="42.58227" lon="2.06107">
        <ele>1850</ele>
        <time>2020-07-25T08:24:43.034Z</time>
      </trkpt>
      <trkpt lat="42.58229" lon="2.06112">
        <ele>1850</ele>
        <time>2020-07-25T08:24:44.034Z</time>
      </trkpt>
      <trkpt lat="42.5823" lon="2.06116">
        <ele>1850</ele>
        <time>2020-07-25T08:24:45.034Z</time>
      </trkpt>
      <trkpt lat="42.58231" lon="2.0612">
        <ele>1851</ele>
        <time>2020-07-25T08:24:46.034Z</time>
      </trkpt>
      <trkpt lat="42.58233" lon="2.06124">
        <ele>1852</ele>
        <time>2020-07-25T08:24:47.034Z</time>
      </trkpt>
      <trkpt lat="42.58234" lon="2.06128">
        <ele>1853</ele>
        <time>2020-07-25T08:24:48.034Z</time>
      </trkpt>
      <trkpt lat="42.58236" lon="2.06133">
        <ele>1855</ele>
        <time>2020-07-25T08:24:49.034Z</time>
      </trkpt>
      <trkpt lat="42.58237" lon="2.06138">
        <ele>1855</ele>
        <time>2020-07-25T08:24:50.034Z</time>
      </trkpt>
      <trkpt lat="42.58239" lon="2.06143">
        <ele>1854</ele>
        <time>2020-07-25T08:24:51.034Z</time>
      </trkpt>
      <trkpt lat="42.5824" lon="2.06147">
        <ele>1854</ele>
        <time>2020-07-25T08:24:52.034Z</time>
      </trkpt>
      <trkpt lat="42.58242" lon="2.06152">
        <ele>1854</ele>
        <time>2020-07-25T08:24:53.034Z</time>
      </trkpt>
      <trkpt lat="42.58245" lon="2.06157">
        <ele>1853</ele>
        <time>2020-07-25T08:24:54.034Z</time>
      </trkpt>
      <trkpt lat="42.58247" lon="2.06163">
        <ele>1848</ele>
        <time>2020-07-25T08:24:55.034Z</time>
      </trkpt>
      <trkpt lat="42.58249" lon="2.06168">
        <ele>1847</ele>
        <time>2020-07-25T08:24:56.034Z</time>
      </trkpt>
      <trkpt lat="42.58251" lon="2.06174">
        <ele>1848</ele>
        <time>2020-07-25T08:24:57.034Z</time>
      </trkpt>
      <trkpt lat="42.58253" lon="2.06179">
        <ele>1848</ele>
        <time>2020-07-25T08:24:58.034Z</time>
      </trkpt>
      <trkpt lat="42.58255" lon="2.06184">
        <ele>1847</ele>
        <time>2020-07-25T08:24:59.034Z</time>
      </trkpt>
      <trkpt lat="42.58257" lon="2.06189">
        <ele>1847</ele>
        <time>2020-07-25T08:25:00.034Z</time>
      </trkpt>
      <trkpt lat="42.58258" lon="2.06194">
        <ele>1847</ele>
        <time>2020-07-25T08:25:01.034Z</time>
      </trkpt>
      <trkpt lat="42.5826" lon="2.06199">
        <ele>1847</ele>
        <time>2020-07-25T08:25:02.034Z</time>
      </trkpt>
      <trkpt lat="42.58261" lon="2.06204">
        <ele>1848</ele>
        <time>2020-07-25T08:25:03.034Z</time>
      </trkpt>
      <trkpt lat="42.58262" lon="2.0621">
        <ele>1848</ele>
        <time>2020-07-25T08:25:04.034Z</time>
      </trkpt>
      <trkpt lat="42.58264" lon="2.06215">
        <ele>1848</ele>
        <time>2020-07-25T08:25:05.034Z</time>
      </trkpt>
      <trkpt lat="42.58265" lon="2.0622">
        <ele>1849</ele>
        <time>2020-07-25T08:25:06.034Z</time>
      </trkpt>
      <trkpt lat="42.58267" lon="2.06225">
        <ele>1850</ele>
        <time>2020-07-25T08:25:07.034Z</time>
      </trkpt>
      <trkpt lat="42.58268" lon="2.06231">
        <ele>1849</ele>
        <time>2020-07-25T08:25:08.034Z</time>
      </trkpt>
      <trkpt lat="42.58269" lon="2.06236">
        <ele>1849</ele>
        <time>2020-07-25T08:25:09.034Z</time>
      </trkpt>
      <trkpt lat="42.5827" lon="2.06241">
        <ele>1848</ele>
        <time>2020-07-25T08:25:10.034Z</time>
      </trkpt>
      <trkpt lat="42.58271" lon="2.06246">
        <ele>1849</ele>
        <time>2020-07-25T08:25:11.034Z</time>
      </trkpt>
      <trkpt lat="42.58272" lon="2.06251">
        <ele>1849</ele>
        <time>2020-07-25T08:25:12.034Z</time>
      </trkpt>
      <trkpt lat="42.58273" lon="2.06257">
        <ele>1849</ele>
        <time>2020-07-25T08:25:13.034Z</time>
      </trkpt>
      <trkpt lat="42.58274" lon="2.06262">
        <ele>1850</ele>
        <time>2020-07-25T08:25:14.034Z</time>
      </trkpt>
      <trkpt lat="42.58275" lon="2.06268">
        <ele>1849</ele>
        <time>2020-07-25T08:25:15.034Z</time>
      </trkpt>
      <trkpt lat="42.58276" lon="2.06274">
        <ele>1847</ele>
        <time>2020-07-25T08:25:16.034Z</time>
      </trkpt>
      <trkpt lat="42.58277" lon="2.06279">
        <ele>1846</ele>
        <time>2020-07-25T08:25:17.034Z</time>
      </trkpt>
      <trkpt lat="42.58278" lon="2.06284">
        <ele>1846</ele>
        <time>2020-07-25T08:25:18.034Z</time>
      </trkpt>
      <trkpt lat="42.58278" lon="2.0629">
        <ele>1846</ele>
        <time>2020-07-25T08:25:19.034Z</time>
      </trkpt>
      <trkpt lat="42.58279" lon="2.06295">
        <ele>1845</ele>
        <time>2020-07-25T08:25:20.034Z</time>
      </trkpt>
      <trkpt lat="42.58279" lon="2.06301">
        <ele>1845</ele>
        <time>2020-07-25T08:25:21.034Z</time>
      </trkpt>
      <trkpt lat="42.58279" lon="2.06306">
        <ele>1845</ele>
        <time>2020-07-25T08:25:22.034Z</time>
      </trkpt>
      <trkpt lat="42.58279" lon="2.06312">
        <ele>1845</ele>
        <time>2020-07-25T08:25:23.034Z</time>
      </trkpt>
      <trkpt lat="42.58279" lon="2.06317">
        <ele>1845</ele>
        <time>2020-07-25T08:25:24.034Z</time>
      </trkpt>
      <trkpt lat="42.58279" lon="2.06323">
        <ele>1845</ele>
        <time>2020-07-25T08:25:25.034Z</time>
      </trkpt>
      <trkpt lat="42.58279" lon="2.06328">
        <ele>1845</ele>
        <time>2020-07-25T08:25:26.034Z</time>
      </trkpt>
      <trkpt lat="42.5828" lon="2.06334">
        <ele>1845</ele>
        <time>2020-07-25T08:25:27.034Z</time>
      </trkpt>
      <trkpt lat="42.58281" lon="2.06339">
        <ele>1845</ele>
        <time>2020-07-25T08:25:28.034Z</time>
      </trkpt>
      <trkpt lat="42.58282" lon="2.06344">
        <ele>1846</ele>
        <time>2020-07-25T08:25:29.034Z</time>
      </trkpt>
      <trkpt lat="42.58283" lon="2.06349">
        <ele>1845</ele>
        <time>2020-07-25T08:25:30.034Z</time>
      </trkpt>
      <trkpt lat="42.58284" lon="2.06354">
        <ele>1847</ele>
        <time>2020-07-25T08:25:31.034Z</time>
      </trkpt>
      <trkpt lat="42.58284" lon="2.06359">
        <ele>1847</ele>
        <time>2020-07-25T08:25:32.034Z</time>
      </trkpt>
      <trkpt lat="42.58285" lon="2.06364">
        <ele>1848</ele>
        <time>2020-07-25T08:25:33.034Z</time>
      </trkpt>
      <trkpt lat="42.58286" lon="2.06369">
        <ele>1848</ele>
        <time>2020-07-25T08:25:34.034Z</time>
      </trkpt>
      <trkpt lat="42.58287" lon="2.06374">
        <ele>1848</ele>
        <time>2020-07-25T08:25:35.034Z</time>
      </trkpt>
      <trkpt lat="42.58288" lon="2.06379">
        <ele>1849</ele>
        <time>2020-07-25T08:25:36.034Z</time>
      </trkpt>
      <trkpt lat="42.58288" lon="2.06384">
        <ele>1849</ele>
        <time>2020-07-25T08:25:37.034Z</time>
      </trkpt>
      <trkpt lat="42.58289" lon="2.06388">
        <ele>1849</ele>
        <time>2020-07-25T08:25:38.034Z</time>
      </trkpt>
      <trkpt lat="42.58291" lon="2.06392">
        <ele>1851</ele>
        <time>2020-07-25T08:25:39.034Z</time>
      </trkpt>
      <trkpt lat="42.58293" lon="2.06396">
        <ele>1852</ele>
        <time>2020-07-25T08:25:40.034Z</time>
      </trkpt>
      <trkpt lat="42.58295" lon="2.064">
        <ele>1853</ele>
        <time>2020-07-25T08:25:41.034Z</time>
      </trkpt>
      <trkpt lat="42.58296" lon="2.06405">
        <ele>1854</ele>
        <time>2020-07-25T08:25:42.034Z</time>
      </trkpt>
      <trkpt lat="42.58297" lon="2.06409">
        <ele>1854</ele>
        <time>2020-07-25T08:25:43.034Z</time>
      </trkpt>
      <trkpt lat="42.58299" lon="2.06413">
        <ele>1854</ele>
        <time>2020-07-25T08:25:44.034Z</time>
      </trkpt>
      <trkpt lat="42.583" lon="2.06417">
        <ele>1854</ele>
        <time>2020-07-25T08:25:45.034Z</time>
      </trkpt>
      <trkpt lat="42.58301" lon="2.06422">
        <ele>1856</ele>
        <time>2020-07-25T08:25:46.034Z</time>
      </trkpt>
      <trkpt lat="42.58302" lon="2.06426">
        <ele>1856</ele>
        <time>2020-07-25T08:25:47.034Z</time>
      </trkpt>
      <trkpt lat="42.58303" lon="2.06431">
        <ele>1857</ele>
        <time>2020-07-25T08:25:48.034Z</time>
      </trkpt>
      <trkpt lat="42.58304" lon="2.06437">
        <ele>1854</ele>
        <time>2020-07-25T08:25:49.034Z</time>
      </trkpt>
      <trkpt lat="42.58306" lon="2.06443">
        <ele>1851</ele>
        <time>2020-07-25T08:25:50.034Z</time>
      </trkpt>
      <trkpt lat="42.58308" lon="2.06449">
        <ele>1850</ele>
        <time>2020-07-25T08:25:51.034Z</time>
      </trkpt>
      <trkpt lat="42.5831" lon="2.06455">
        <ele>1849</ele>
        <time>2020-07-25T08:25:52.034Z</time>
      </trkpt>
      <trkpt lat="42.58311" lon="2.06461">
        <ele>1849</ele>
        <time>2020-07-25T08:25:53.034Z</time>
      </trkpt>
      <trkpt lat="42.58313" lon="2.06466">
        <ele>1849</ele>
        <time>2020-07-25T08:25:54.034Z</time>
      </trkpt>
      <trkpt lat="42.58314" lon="2.06472">
        <ele>1850</ele>
        <time>2020-07-25T08:25:55.034Z</time>
      </trkpt>
      <trkpt lat="42.58315" lon="2.06478">
        <ele>1851</ele>
        <time>2020-07-25T08:25:56.034Z</time>
      </trkpt>
      <trkpt lat="42.58315" lon="2.06484">
        <ele>1852</ele>
        <time>2020-07-25T08:25:57.034Z</time>
      </trkpt>
      <trkpt lat="42.58315" lon="2.06489">
        <ele>1853</ele>
        <time>2020-07-25T08:25:58.034Z</time>
      </trkpt>
      <trkpt lat="42.58315" lon="2.06495">
        <ele>1853</ele>
        <time>2020-07-25T08:25:59.034Z</time>
      </trkpt>
      <trkpt lat="42.58314" lon="2.065">
        <ele>1854</ele>
        <time>2020-07-25T08:26:00.034Z</time>
      </trkpt>
      <trkpt lat="42.58313" lon="2.06505">
        <ele>1854</ele>
        <time>2020-07-25T08:26:01.034Z</time>
      </trkpt>
      <trkpt lat="42.58312" lon="2.0651">
        <ele>1855</ele>
        <time>2020-07-25T08:26:02.034Z</time>
      </trkpt>
      <trkpt lat="42.58312" lon="2.06515">
        <ele>1856</ele>
        <time>2020-07-25T08:26:03.034Z</time>
      </trkpt>
      <trkpt lat="42.58311" lon="2.0652">
        <ele>1855</ele>
        <time>2020-07-25T08:26:04.034Z</time>
      </trkpt>
      <trkpt lat="42.58312" lon="2.06525">
        <ele>1853</ele>
        <time>2020-07-25T08:26:05.034Z</time>
      </trkpt>
      <trkpt lat="42.58312" lon="2.06531">
        <ele>1851</ele>
        <time>2020-07-25T08:26:06.034Z</time>
      </trkpt>
      <trkpt lat="42.58313" lon="2.06536">
        <ele>1850</ele>
        <time>2020-07-25T08:26:07.034Z</time>
      </trkpt>
      <trkpt lat="42.58313" lon="2.06542">
        <ele>1850</ele>
        <time>2020-07-25T08:26:08.034Z</time>
      </trkpt>
      <trkpt lat="42.58313" lon="2.06547">
        <ele>1851</ele>
        <time>2020-07-25T08:26:09.034Z</time>
      </trkpt>
      <trkpt lat="42.58314" lon="2.06551">
        <ele>1850</ele>
        <time>2020-07-25T08:26:10.034Z</time>
      </trkpt>
      <trkpt lat="42.58314" lon="2.06556">
        <ele>1851</ele>
        <time>2020-07-25T08:26:11.034Z</time>
      </trkpt>
      <trkpt lat="42.58314" lon="2.0656">
        <ele>1851</ele>
        <time>2020-07-25T08:26:12.034Z</time>
      </trkpt>
      <trkpt lat="42.58315" lon="2.06565">
        <ele>1851</ele>
        <time>2020-07-25T08:26:13.034Z</time>
      </trkpt>
      <trkpt lat="42.58316" lon="2.06569">
        <ele>1852</ele>
        <time>2020-07-25T08:26:14.034Z</time>
      </trkpt>
      <trkpt lat="42.58318" lon="2.06574">
        <ele>1853</ele>
        <time>2020-07-25T08:26:15.034Z</time>
      </trkpt>
      <trkpt lat="42.58319" lon="2.06578">
        <ele>1854</ele>
        <time>2020-07-25T08:26:16.034Z</time>
      </trkpt>
      <trkpt lat="42.5832" lon="2.06583">
        <ele>1854</ele>
        <time>2020-07-25T08:26:17.034Z</time>
      </trkpt>
      <trkpt lat="42.58322" lon="2.06587">
        <ele>1854</ele>
        <time>2020-07-25T08:26:18.034Z</time>
      </trkpt>
      <trkpt lat="42.58323" lon="2.06592">
        <ele>1856</ele>
        <time>2020-07-25T08:26:19.034Z</time>
      </trkpt>
      <trkpt lat="42.58325" lon="2.06596">
        <ele>1856</ele>
        <time>2020-07-25T08:26:20.034Z</time>
      </trkpt>
      <trkpt lat="42.58327" lon="2.06601">
        <ele>1856</ele>
        <time>2020-07-25T08:26:21.034Z</time>
      </trkpt>
      <trkpt lat="42.58329" lon="2.06607">
        <ele>1855</ele>
        <time>2020-07-25T08:26:22.034Z</time>
      </trkpt>
      <trkpt lat="42.58331" lon="2.06612">
        <ele>1855</ele>
        <time>2020-07-25T08:26:23.034Z</time>
      </trkpt>
      <trkpt lat="42.58332" lon="2.06617">
        <ele>1855</ele>
        <time>2020-07-25T08:26:24.034Z</time>
      </trkpt>
      <trkpt lat="42.58332" lon="2.06622">
        <ele>1854</ele>
        <time>2020-07-25T08:26:25.034Z</time>
      </trkpt>
      <trkpt lat="42.58333" lon="2.06627">
        <ele>1853</ele>
        <time>2020-07-25T08:26:26.034Z</time>
      </trkpt>
      <trkpt lat="42.58334" lon="2.06632">
        <ele>1852</ele>
        <time>2020-07-25T08:26:27.034Z</time>
      </trkpt>
      <trkpt lat="42.58335" lon="2.06637">
        <ele>1850</ele>
        <time>2020-07-25T08:26:28.034Z</time>
      </trkpt>
      <trkpt lat="42.58336" lon="2.06643">
        <ele>1850</ele>
        <time>2020-07-25T08:26:29.034Z</time>
      </trkpt>
      <trkpt lat="42.58337" lon="2.06648">
        <ele>1850</ele>
        <time>2020-07-25T08:26:30.034Z</time>
      </trkpt>
      <trkpt lat="42.58338" lon="2.06653">
        <ele>1850</ele>
        <time>2020-07-25T08:26:31.034Z</time>
      </trkpt>
      <trkpt lat="42.58339" lon="2.06658">
        <ele>1849</ele>
        <time>2020-07-25T08:26:32.034Z</time>
      </trkpt>
      <trkpt lat="42.58341" lon="2.06663">
        <ele>1850</ele>
        <time>2020-07-25T08:26:33.034Z</time>
      </trkpt>
      <trkpt lat="42.58342" lon="2.06668">
        <ele>1848</ele>
        <time>2020-07-25T08:26:34.034Z</time>
      </trkpt>
      <trkpt lat="42.58344" lon="2.06674">
        <ele>1846</ele>
        <time>2020-07-25T08:26:35.034Z</time>
      </trkpt>
      <trkpt lat="42.58346" lon="2.06679">
        <ele>1846</ele>
        <time>2020-07-25T08:26:36.034Z</time>
      </trkpt>
      <trkpt lat="42.58348" lon="2.06684">
        <ele>1845</ele>
        <time>2020-07-25T08:26:37.034Z</time>
      </trkpt>
      <trkpt lat="42.5835" lon="2.06689">
        <ele>1845</ele>
        <time>2020-07-25T08:26:38.034Z</time>
      </trkpt>
      <trkpt lat="42.58353" lon="2.06695">
        <ele>1845</ele>
        <time>2020-07-25T08:26:39.034Z</time>
      </trkpt>
      <trkpt lat="42.58355" lon="2.067">
        <ele>1845</ele>
        <time>2020-07-25T08:26:40.034Z</time>
      </trkpt>
      <trkpt lat="42.58356" lon="2.06705">
        <ele>1844</ele>
        <time>2020-07-25T08:26:41.034Z</time>
      </trkpt>
      <trkpt lat="42.58358" lon="2.0671">
        <ele>1843</ele>
        <time>2020-07-25T08:26:42.034Z</time>
      </trkpt>
      <trkpt lat="42.58359" lon="2.06715">
        <ele>1843</ele>
        <time>2020-07-25T08:26:43.034Z</time>
      </trkpt>
      <trkpt lat="42.5836" lon="2.0672">
        <ele>1842</ele>
        <time>2020-07-25T08:26:44.034Z</time>
      </trkpt>
      <trkpt lat="42.58362" lon="2.06726">
        <ele>1842</ele>
        <time>2020-07-25T08:26:45.034Z</time>
      </trkpt>
      <trkpt lat="42.58363" lon="2.0673">
        <ele>1843</ele>
        <time>2020-07-25T08:26:46.034Z</time>
      </trkpt>
      <trkpt lat="42.58364" lon="2.06735">
        <ele>1843</ele>
        <time>2020-07-25T08:26:47.034Z</time>
      </trkpt>
      <trkpt lat="42.58365" lon="2.0674">
        <ele>1843</ele>
        <time>2020-07-25T08:26:48.034Z</time>
      </trkpt>
      <trkpt lat="42.58366" lon="2.06745">
        <ele>1843</ele>
        <time>2020-07-25T08:26:49.034Z</time>
      </trkpt>
      <trkpt lat="42.58366" lon="2.0675">
        <ele>1843</ele>
        <time>2020-07-25T08:26:50.034Z</time>
      </trkpt>
      <trkpt lat="42.58367" lon="2.06755">
        <ele>1843</ele>
        <time>2020-07-25T08:26:51.034Z</time>
      </trkpt>
      <trkpt lat="42.58368" lon="2.0676">
        <ele>1843</ele>
        <time>2020-07-25T08:26:52.034Z</time>
      </trkpt>
      <trkpt lat="42.58369" lon="2.06765">
        <ele>1843</ele>
        <time>2020-07-25T08:26:53.034Z</time>
      </trkpt>
      <trkpt lat="42.5837" lon="2.0677">
        <ele>1843</ele>
        <time>2020-07-25T08:26:54.034Z</time>
      </trkpt>
      <trkpt lat="42.58371" lon="2.06775">
        <ele>1842</ele>
        <time>2020-07-25T08:26:55.034Z</time>
      </trkpt>
      <trkpt lat="42.58373" lon="2.0678">
        <ele>1841</ele>
        <time>2020-07-25T08:26:56.034Z</time>
      </trkpt>
      <trkpt lat="42.58375" lon="2.06784">
        <ele>1841</ele>
        <time>2020-07-25T08:26:57.034Z</time>
      </trkpt>
      <trkpt lat="42.58377" lon="2.06788">
        <ele>1841</ele>
        <time>2020-07-25T08:26:58.034Z</time>
      </trkpt>
      <trkpt lat="42.58378" lon="2.06793">
        <ele>1841</ele>
        <time>2020-07-25T08:26:59.034Z</time>
      </trkpt>
      <trkpt lat="42.5838" lon="2.06797">
        <ele>1841</ele>
        <time>2020-07-25T08:27:00.034Z</time>
      </trkpt>
      <trkpt lat="42.58382" lon="2.06802">
        <ele>1841</ele>
        <time>2020-07-25T08:27:01.034Z</time>
      </trkpt>
      <trkpt lat="42.58383" lon="2.06807">
        <ele>1841</ele>
        <time>2020-07-25T08:27:02.034Z</time>
      </trkpt>
      <trkpt lat="42.58385" lon="2.06811">
        <ele>1841</ele>
        <time>2020-07-25T08:27:03.034Z</time>
      </trkpt>
      <trkpt lat="42.58386" lon="2.06815">
        <ele>1840</ele>
        <time>2020-07-25T08:27:04.034Z</time>
      </trkpt>
      <trkpt lat="42.58388" lon="2.0682">
        <ele>1841</ele>
        <time>2020-07-25T08:27:05.034Z</time>
      </trkpt>
      <trkpt lat="42.58391" lon="2.06825">
        <ele>1841</ele>
        <time>2020-07-25T08:27:06.034Z</time>
      </trkpt>
      <trkpt lat="42.58393" lon="2.0683">
        <ele>1839</ele>
        <time>2020-07-25T08:27:07.034Z</time>
      </trkpt>
      <trkpt lat="42.58395" lon="2.06836">
        <ele>1839</ele>
        <time>2020-07-25T08:27:08.034Z</time>
      </trkpt>
      <trkpt lat="42.58397" lon="2.06841">
        <ele>1838</ele>
        <time>2020-07-25T08:27:09.034Z</time>
      </trkpt>
      <trkpt lat="42.58399" lon="2.06847">
        <ele>1837</ele>
        <time>2020-07-25T08:27:10.034Z</time>
      </trkpt>
      <trkpt lat="42.58402" lon="2.06852">
        <ele>1836</ele>
        <time>2020-07-25T08:27:11.034Z</time>
      </trkpt>
      <trkpt lat="42.58404" lon="2.06857">
        <ele>1835</ele>
        <time>2020-07-25T08:27:12.034Z</time>
      </trkpt>
      <trkpt lat="42.58406" lon="2.06862">
        <ele>1835</ele>
        <time>2020-07-25T08:27:13.034Z</time>
      </trkpt>
      <trkpt lat="42.58407" lon="2.06867">
        <ele>1835</ele>
        <time>2020-07-25T08:27:14.034Z</time>
      </trkpt>
      <trkpt lat="42.58409" lon="2.06873">
        <ele>1835</ele>
        <time>2020-07-25T08:27:15.034Z</time>
      </trkpt>
      <trkpt lat="42.5841" lon="2.06879">
        <ele>1835</ele>
        <time>2020-07-25T08:27:16.034Z</time>
      </trkpt>
      <trkpt lat="42.58411" lon="2.06884">
        <ele>1836</ele>
        <time>2020-07-25T08:27:17.034Z</time>
      </trkpt>
      <trkpt lat="42.58413" lon="2.0689">
        <ele>1835</ele>
        <time>2020-07-25T08:27:18.034Z</time>
      </trkpt>
      <trkpt lat="42.58414" lon="2.06895">
        <ele>1835</ele>
        <time>2020-07-25T08:27:19.034Z</time>
      </trkpt>
      <trkpt lat="42.58414" lon="2.06901">
        <ele>1834</ele>
        <time>2020-07-25T08:27:20.034Z</time>
      </trkpt>
      <trkpt lat="42.58414" lon="2.06907">
        <ele>1835</ele>
        <time>2020-07-25T08:27:21.034Z</time>
      </trkpt>
      <trkpt lat="42.58414" lon="2.06912">
        <ele>1835</ele>
        <time>2020-07-25T08:27:22.034Z</time>
      </trkpt>
      <trkpt lat="42.58413" lon="2.06917">
        <ele>1835</ele>
        <time>2020-07-25T08:27:23.034Z</time>
      </trkpt>
      <trkpt lat="42.58412" lon="2.06922">
        <ele>1835</ele>
        <time>2020-07-25T08:27:24.034Z</time>
      </trkpt>
      <trkpt lat="42.58411" lon="2.06926">
        <ele>1835</ele>
        <time>2020-07-25T08:27:25.034Z</time>
      </trkpt>
      <trkpt lat="42.58409" lon="2.06931">
        <ele>1835</ele>
        <time>2020-07-25T08:27:26.034Z</time>
      </trkpt>
      <trkpt lat="42.58408" lon="2.06935">
        <ele>1835</ele>
        <time>2020-07-25T08:27:27.034Z</time>
      </trkpt>
      <trkpt lat="42.58406" lon="2.06939">
        <ele>1836</ele>
        <time>2020-07-25T08:27:28.034Z</time>
      </trkpt>
      <trkpt lat="42.58387" lon="2.06968">
        <ele>1839</ele>
        <time>2020-07-25T08:27:29.080Z</time>
      </trkpt>
      <trkpt lat="42.58388" lon="2.06969">
        <ele>1839</ele>
        <time>2020-07-25T08:27:30.080Z</time>
      </trkpt>
      <trkpt lat="42.58388" lon="2.06971">
        <ele>1839</ele>
        <time>2020-07-25T08:27:31.080Z</time>
      </trkpt>
      <trkpt lat="42.58389" lon="2.06973">
        <ele>1839</ele>
        <time>2020-07-25T08:27:32.080Z</time>
      </trkpt>
      <trkpt lat="42.5839" lon="2.06976">
        <ele>1838</ele>
        <time>2020-07-25T08:27:33.080Z</time>
      </trkpt>
      <trkpt lat="42.58391" lon="2.0698">
        <ele>1837</ele>
        <time>2020-07-25T08:27:34.080Z</time>
      </trkpt>
      <trkpt lat="42.58392" lon="2.06984">
        <ele>1837</ele>
        <time>2020-07-25T08:27:35.080Z</time>
      </trkpt>
      <trkpt lat="42.58393" lon="2.06987">
        <ele>1836</ele>
        <time>2020-07-25T08:27:36.080Z</time>
      </trkpt>
      <trkpt lat="42.58395" lon="2.06991">
        <ele>1836</ele>
        <time>2020-07-25T08:27:37.080Z</time>
      </trkpt>
      <trkpt lat="42.58396" lon="2.06995">
        <ele>1835</ele>
        <time>2020-07-25T08:27:38.080Z</time>
      </trkpt>
      <trkpt lat="42.58398" lon="2.06998">
        <ele>1835</ele>
        <time>2020-07-25T08:27:39.080Z</time>
      </trkpt>
      <trkpt lat="42.584" lon="2.07001">
        <ele>1834</ele>
        <time>2020-07-25T08:27:40.080Z</time>
      </trkpt>
      <trkpt lat="42.58402" lon="2.07004">
        <ele>1833</ele>
        <time>2020-07-25T08:27:41.080Z</time>
      </trkpt>
      <trkpt lat="42.58404" lon="2.07007">
        <ele>1833</ele>
        <time>2020-07-25T08:27:42.080Z</time>
      </trkpt>
      <trkpt lat="42.58406" lon="2.0701">
        <ele>1833</ele>
        <time>2020-07-25T08:27:43.080Z</time>
      </trkpt>
      <trkpt lat="42.58408" lon="2.07013">
        <ele>1833</ele>
        <time>2020-07-25T08:27:44.080Z</time>
      </trkpt>
      <trkpt lat="42.58411" lon="2.07017">
        <ele>1833</ele>
        <time>2020-07-25T08:27:45.080Z</time>
      </trkpt>
      <trkpt lat="42.58414" lon="2.0702">
        <ele>1832</ele>
        <time>2020-07-25T08:27:46.080Z</time>
      </trkpt>
      <trkpt lat="42.58417" lon="2.07024">
        <ele>1831</ele>
        <time>2020-07-25T08:27:47.080Z</time>
      </trkpt>
      <trkpt lat="42.58421" lon="2.07028">
        <ele>1830</ele>
        <time>2020-07-25T08:27:48.080Z</time>
      </trkpt>
      <trkpt lat="42.58424" lon="2.07033">
        <ele>1830</ele>
        <time>2020-07-25T08:27:49.080Z</time>
      </trkpt>
      <trkpt lat="42.58426" lon="2.07037">
        <ele>1830</ele>
        <time>2020-07-25T08:27:50.080Z</time>
      </trkpt>
      <trkpt lat="42.58428" lon="2.07042">
        <ele>1829</ele>
        <time>2020-07-25T08:27:51.080Z</time>
      </trkpt>
      <trkpt lat="42.58429" lon="2.07047">
        <ele>1829</ele>
        <time>2020-07-25T08:27:52.080Z</time>
      </trkpt>
      <trkpt lat="42.58431" lon="2.07052">
        <ele>1829</ele>
        <time>2020-07-25T08:27:53.080Z</time>
      </trkpt>
      <trkpt lat="42.58433" lon="2.07057">
        <ele>1830</ele>
        <time>2020-07-25T08:27:54.080Z</time>
      </trkpt>
      <trkpt lat="42.58435" lon="2.07062">
        <ele>1829</ele>
        <time>2020-07-25T08:27:55.080Z</time>
      </trkpt>
      <trkpt lat="42.58437" lon="2.07067">
        <ele>1829</ele>
        <time>2020-07-25T08:27:56.080Z</time>
      </trkpt>
      <trkpt lat="42.58439" lon="2.07073">
        <ele>1829</ele>
        <time>2020-07-25T08:27:57.080Z</time>
      </trkpt>
      <trkpt lat="42.58442" lon="2.07079">
        <ele>1828</ele>
        <time>2020-07-25T08:27:58.080Z</time>
      </trkpt>
      <trkpt lat="42.58444" lon="2.07085">
        <ele>1828</ele>
        <time>2020-07-25T08:27:59.080Z</time>
      </trkpt>
      <trkpt lat="42.58446" lon="2.07091">
        <ele>1828</ele>
        <time>2020-07-25T08:28:00.080Z</time>
      </trkpt>
      <trkpt lat="42.58448" lon="2.07096">
        <ele>1828</ele>
        <time>2020-07-25T08:28:01.080Z</time>
      </trkpt>
      <trkpt lat="42.5845" lon="2.07102">
        <ele>1828</ele>
        <time>2020-07-25T08:28:02.080Z</time>
      </trkpt>
      <trkpt lat="42.58452" lon="2.07107">
        <ele>1827</ele>
        <time>2020-07-25T08:28:03.080Z</time>
      </trkpt>
      <trkpt lat="42.58453" lon="2.07113">
        <ele>1826</ele>
        <time>2020-07-25T08:28:04.080Z</time>
      </trkpt>
      <trkpt lat="42.58454" lon="2.07118">
        <ele>1827</ele>
        <time>2020-07-25T08:28:05.080Z</time>
      </trkpt>
      <trkpt lat="42.58456" lon="2.07124">
        <ele>1826</ele>
        <time>2020-07-25T08:28:06.080Z</time>
      </trkpt>
      <trkpt lat="42.58457" lon="2.07129">
        <ele>1825</ele>
        <time>2020-07-25T08:28:07.080Z</time>
      </trkpt>
      <trkpt lat="42.58459" lon="2.07134">
        <ele>1824</ele>
        <time>2020-07-25T08:28:08.080Z</time>
      </trkpt>
      <trkpt lat="42.58461" lon="2.07138">
        <ele>1824</ele>
        <time>2020-07-25T08:28:09.080Z</time>
      </trkpt>
      <trkpt lat="42.58463" lon="2.07143">
        <ele>1824</ele>
        <time>2020-07-25T08:28:10.080Z</time>
      </trkpt>
      <trkpt lat="42.58465" lon="2.07147">
        <ele>1823</ele>
        <time>2020-07-25T08:28:11.080Z</time>
      </trkpt>
      <trkpt lat="42.58466" lon="2.07151">
        <ele>1822</ele>
        <time>2020-07-25T08:28:12.080Z</time>
      </trkpt>
      <trkpt lat="42.58468" lon="2.07155">
        <ele>1821</ele>
        <time>2020-07-25T08:28:13.080Z</time>
      </trkpt>
      <trkpt lat="42.5847" lon="2.07159">
        <ele>1821</ele>
        <time>2020-07-25T08:28:14.080Z</time>
      </trkpt>
      <trkpt lat="42.58472" lon="2.07163">
        <ele>1820</ele>
        <time>2020-07-25T08:28:15.080Z</time>
      </trkpt>
      <trkpt lat="42.58475" lon="2.07167">
        <ele>1820</ele>
        <time>2020-07-25T08:28:16.080Z</time>
      </trkpt>
      <trkpt lat="42.58477" lon="2.07172">
        <ele>1819</ele>
        <time>2020-07-25T08:28:17.080Z</time>
      </trkpt>
      <trkpt lat="42.5848" lon="2.07176">
        <ele>1820</ele>
        <time>2020-07-25T08:28:18.080Z</time>
      </trkpt>
      <trkpt lat="42.58484" lon="2.0718">
        <ele>1819</ele>
        <time>2020-07-25T08:28:19.080Z</time>
      </trkpt>
      <trkpt lat="42.58487" lon="2.07184">
        <ele>1819</ele>
        <time>2020-07-25T08:28:20.080Z</time>
      </trkpt>
      <trkpt lat="42.5849" lon="2.07188">
        <ele>1818</ele>
        <time>2020-07-25T08:28:21.080Z</time>
      </trkpt>
      <trkpt lat="42.58493" lon="2.07192">
        <ele>1817</ele>
        <time>2020-07-25T08:28:22.080Z</time>
      </trkpt>
      <trkpt lat="42.58496" lon="2.07196">
        <ele>1817</ele>
        <time>2020-07-25T08:28:23.080Z</time>
      </trkpt>
      <trkpt lat="42.58499" lon="2.072">
        <ele>1817</ele>
        <time>2020-07-25T08:28:24.080Z</time>
      </trkpt>
      <trkpt lat="42.58503" lon="2.07204">
        <ele>1817</ele>
        <time>2020-07-25T08:28:25.080Z</time>
      </trkpt>
      <trkpt lat="42.58506" lon="2.07208">
        <ele>1817</ele>
        <time>2020-07-25T08:28:26.080Z</time>
      </trkpt>
      <trkpt lat="42.58509" lon="2.07212">
        <ele>1817</ele>
        <time>2020-07-25T08:28:27.080Z</time>
      </trkpt>
      <trkpt lat="42.58512" lon="2.07216">
        <ele>1817</ele>
        <time>2020-07-25T08:28:28.080Z</time>
      </trkpt>
      <trkpt lat="42.58515" lon="2.0722">
        <ele>1817</ele>
        <time>2020-07-25T08:28:29.080Z</time>
      </trkpt>
      <trkpt lat="42.58518" lon="2.07224">
        <ele>1816</ele>
        <time>2020-07-25T08:28:30.080Z</time>
      </trkpt>
      <trkpt lat="42.58521" lon="2.07228">
        <ele>1816</ele>
        <time>2020-07-25T08:28:31.080Z</time>
      </trkpt>
      <trkpt lat="42.58525" lon="2.07231">
        <ele>1816</ele>
        <time>2020-07-25T08:28:32.080Z</time>
      </trkpt>
      <trkpt lat="42.58528" lon="2.07235">
        <ele>1816</ele>
        <time>2020-07-25T08:28:33.080Z</time>
      </trkpt>
      <trkpt lat="42.58531" lon="2.07239">
        <ele>1816</ele>
        <time>2020-07-25T08:28:34.080Z</time>
      </trkpt>
      <trkpt lat="42.58535" lon="2.07243">
        <ele>1815</ele>
        <time>2020-07-25T08:28:35.080Z</time>
      </trkpt>
      <trkpt lat="42.58538" lon="2.07246">
        <ele>1814</ele>
        <time>2020-07-25T08:28:36.080Z</time>
      </trkpt>
      <trkpt lat="42.5854" lon="2.07249">
        <ele>1813</ele>
        <time>2020-07-25T08:28:37.080Z</time>
      </trkpt>
      <trkpt lat="42.58544" lon="2.07252">
        <ele>1813</ele>
        <time>2020-07-25T08:28:38.080Z</time>
      </trkpt>
      <trkpt lat="42.58547" lon="2.07255">
        <ele>1812</ele>
        <time>2020-07-25T08:28:39.080Z</time>
      </trkpt>
      <trkpt lat="42.5855" lon="2.07258">
        <ele>1811</ele>
        <time>2020-07-25T08:28:40.080Z</time>
      </trkpt>
      <trkpt lat="42.58553" lon="2.07262">
        <ele>1810</ele>
        <time>2020-07-25T08:28:41.080Z</time>
      </trkpt>
      <trkpt lat="42.58556" lon="2.07266">
        <ele>1810</ele>
        <time>2020-07-25T08:28:42.080Z</time>
      </trkpt>
      <trkpt lat="42.58559" lon="2.0727">
        <ele>1811</ele>
        <time>2020-07-25T08:28:43.080Z</time>
      </trkpt>
      <trkpt lat="42.58561" lon="2.07273">
        <ele>1812</ele>
        <time>2020-07-25T08:28:44.080Z</time>
      </trkpt>
      <trkpt lat="42.58564" lon="2.07277">
        <ele>1813</ele>
        <time>2020-07-25T08:28:45.080Z</time>
      </trkpt>
      <trkpt lat="42.58566" lon="2.0728">
        <ele>1813</ele>
        <time>2020-07-25T08:28:46.080Z</time>
      </trkpt>
      <trkpt lat="42.58569" lon="2.07284">
        <ele>1815</ele>
        <time>2020-07-25T08:28:47.080Z</time>
      </trkpt>
      <trkpt lat="42.58571" lon="2.07289">
        <ele>1816</ele>
        <time>2020-07-25T08:28:48.080Z</time>
      </trkpt>
      <trkpt lat="42.58573" lon="2.07294">
        <ele>1817</ele>
        <time>2020-07-25T08:28:49.080Z</time>
      </trkpt>
      <trkpt lat="42.58576" lon="2.07299">
        <ele>1816</ele>
        <time>2020-07-25T08:28:50.080Z</time>
      </trkpt>
      <trkpt lat="42.58578" lon="2.07304">
        <ele>1816</ele>
        <time>2020-07-25T08:28:51.080Z</time>
      </trkpt>
      <trkpt lat="42.58581" lon="2.07309">
        <ele>1815</ele>
        <time>2020-07-25T08:28:52.080Z</time>
      </trkpt>
      <trkpt lat="42.58584" lon="2.07314">
        <ele>1815</ele>
        <time>2020-07-25T08:28:53.080Z</time>
      </trkpt>
      <trkpt lat="42.58586" lon="2.07319">
        <ele>1815</ele>
        <time>2020-07-25T08:28:54.080Z</time>
      </trkpt>
      <trkpt lat="42.58588" lon="2.07324">
        <ele>1816</ele>
        <time>2020-07-25T08:28:55.080Z</time>
      </trkpt>
      <trkpt lat="42.58591" lon="2.07329">
        <ele>1815</ele>
        <time>2020-07-25T08:28:56.080Z</time>
      </trkpt>
      <trkpt lat="42.58593" lon="2.07334">
        <ele>1816</ele>
        <time>2020-07-25T08:28:57.080Z</time>
      </trkpt>
      <trkpt lat="42.58595" lon="2.0734">
        <ele>1816</ele>
        <time>2020-07-25T08:28:58.080Z</time>
      </trkpt>
      <trkpt lat="42.58598" lon="2.07345">
        <ele>1816</ele>
        <time>2020-07-25T08:28:59.080Z</time>
      </trkpt>
      <trkpt lat="42.586" lon="2.07349">
        <ele>1815</ele>
        <time>2020-07-25T08:29:00.080Z</time>
      </trkpt>
      <trkpt lat="42.58603" lon="2.07354">
        <ele>1815</ele>
        <time>2020-07-25T08:29:01.080Z</time>
      </trkpt>
      <trkpt lat="42.58605" lon="2.07358">
        <ele>1813</ele>
        <time>2020-07-25T08:29:02.080Z</time>
      </trkpt>
      <trkpt lat="42.58608" lon="2.07361">
        <ele>1810</ele>
        <time>2020-07-25T08:29:03.080Z</time>
      </trkpt>
      <trkpt lat="42.58611" lon="2.07364">
        <ele>1809</ele>
        <time>2020-07-25T08:29:04.080Z</time>
      </trkpt>
      <trkpt lat="42.58614" lon="2.07367">
        <ele>1808</ele>
        <time>2020-07-25T08:29:05.080Z</time>
      </trkpt>
      <trkpt lat="42.58616" lon="2.07371">
        <ele>1808</ele>
        <time>2020-07-25T08:29:06.080Z</time>
      </trkpt>
      <trkpt lat="42.58619" lon="2.07374">
        <ele>1807</ele>
        <time>2020-07-25T08:29:07.080Z</time>
      </trkpt>
      <trkpt lat="42.58623" lon="2.07376">
        <ele>1806</ele>
        <time>2020-07-25T08:29:08.080Z</time>
      </trkpt>
      <trkpt lat="42.58626" lon="2.07379">
        <ele>1806</ele>
        <time>2020-07-25T08:29:09.080Z</time>
      </trkpt>
      <trkpt lat="42.58629" lon="2.07382">
        <ele>1806</ele>
        <time>2020-07-25T08:29:10.080Z</time>
      </trkpt>
      <trkpt lat="42.58632" lon="2.07385">
        <ele>1805</ele>
        <time>2020-07-25T08:29:11.080Z</time>
      </trkpt>
      <trkpt lat="42.58635" lon="2.07389">
        <ele>1806</ele>
        <time>2020-07-25T08:29:12.080Z</time>
      </trkpt>
      <trkpt lat="42.58638" lon="2.07393">
        <ele>1806</ele>
        <time>2020-07-25T08:29:13.080Z</time>
      </trkpt>
      <trkpt lat="42.5864" lon="2.07397">
        <ele>1805</ele>
        <time>2020-07-25T08:29:14.080Z</time>
      </trkpt>
      <trkpt lat="42.58643" lon="2.07401">
        <ele>1805</ele>
        <time>2020-07-25T08:29:15.080Z</time>
      </trkpt>
      <trkpt lat="42.58646" lon="2.07405">
        <ele>1806</ele>
        <time>2020-07-25T08:29:16.080Z</time>
      </trkpt>
      <trkpt lat="42.58649" lon="2.07409">
        <ele>1806</ele>
        <time>2020-07-25T08:29:17.080Z</time>
      </trkpt>
      <trkpt lat="42.58652" lon="2.07413">
        <ele>1807</ele>
        <time>2020-07-25T08:29:18.080Z</time>
      </trkpt>
      <trkpt lat="42.58655" lon="2.07418">
        <ele>1807</ele>
        <time>2020-07-25T08:29:19.080Z</time>
      </trkpt>
      <trkpt lat="42.58659" lon="2.07422">
        <ele>1807</ele>
        <time>2020-07-25T08:29:20.080Z</time>
      </trkpt>
      <trkpt lat="42.58663" lon="2.07426">
        <ele>1807</ele>
        <time>2020-07-25T08:29:21.080Z</time>
      </trkpt>
      <trkpt lat="42.58666" lon="2.0743">
        <ele>1808</ele>
        <time>2020-07-25T08:29:22.080Z</time>
      </trkpt>
      <trkpt lat="42.58669" lon="2.07434">
        <ele>1808</ele>
        <time>2020-07-25T08:29:23.080Z</time>
      </trkpt>
      <trkpt lat="42.58672" lon="2.07439">
        <ele>1808</ele>
        <time>2020-07-25T08:29:24.080Z</time>
      </trkpt>
      <trkpt lat="42.58675" lon="2.07443">
        <ele>1809</ele>
        <time>2020-07-25T08:29:25.080Z</time>
      </trkpt>
      <trkpt lat="42.58678" lon="2.07448">
        <ele>1808</ele>
        <time>2020-07-25T08:29:26.080Z</time>
      </trkpt>
      <trkpt lat="42.5868" lon="2.07453">
        <ele>1808</ele>
        <time>2020-07-25T08:29:27.080Z</time>
      </trkpt>
      <trkpt lat="42.58683" lon="2.07458">
        <ele>1809</ele>
        <time>2020-07-25T08:29:28.080Z</time>
      </trkpt>
      <trkpt lat="42.58686" lon="2.07462">
        <ele>1809</ele>
        <time>2020-07-25T08:29:29.080Z</time>
      </trkpt>
      <trkpt lat="42.58689" lon="2.07466">
        <ele>1809</ele>
        <time>2020-07-25T08:29:30.080Z</time>
      </trkpt>
      <trkpt lat="42.58691" lon="2.0747">
        <ele>1809</ele>
        <time>2020-07-25T08:29:31.080Z</time>
      </trkpt>
      <trkpt lat="42.58694" lon="2.07474">
        <ele>1808</ele>
        <time>2020-07-25T08:29:32.080Z</time>
      </trkpt>
      <trkpt lat="42.58696" lon="2.07477">
        <ele>1808</ele>
        <time>2020-07-25T08:29:33.080Z</time>
      </trkpt>
      <trkpt lat="42.58699" lon="2.07481">
        <ele>1808</ele>
        <time>2020-07-25T08:29:34.080Z</time>
      </trkpt>
      <trkpt lat="42.58701" lon="2.07485">
        <ele>1810</ele>
        <time>2020-07-25T08:29:35.080Z</time>
      </trkpt>
      <trkpt lat="42.58704" lon="2.07489">
        <ele>1810</ele>
        <time>2020-07-25T08:29:36.080Z</time>
      </trkpt>
      <trkpt lat="42.58706" lon="2.07494">
        <ele>1810</ele>
        <time>2020-07-25T08:29:37.080Z</time>
      </trkpt>
      <trkpt lat="42.58709" lon="2.07497">
        <ele>1810</ele>
        <time>2020-07-25T08:29:38.080Z</time>
      </trkpt>
      <trkpt lat="42.58712" lon="2.07501">
        <ele>1810</ele>
        <time>2020-07-25T08:29:39.080Z</time>
      </trkpt>
      <trkpt lat="42.58715" lon="2.07505">
        <ele>1810</ele>
        <time>2020-07-25T08:29:40.080Z</time>
      </trkpt>
      <trkpt lat="42.58718" lon="2.07509">
        <ele>1811</ele>
        <time>2020-07-25T08:29:41.080Z</time>
      </trkpt>
      <trkpt lat="42.58721" lon="2.07512">
        <ele>1810</ele>
        <time>2020-07-25T08:29:42.080Z</time>
      </trkpt>
      <trkpt lat="42.58724" lon="2.07516">
        <ele>1810</ele>
        <time>2020-07-25T08:29:43.080Z</time>
      </trkpt>
      <trkpt lat="42.58727" lon="2.07521">
        <ele>1810</ele>
        <time>2020-07-25T08:29:44.080Z</time>
      </trkpt>
      <trkpt lat="42.5873" lon="2.07525">
        <ele>1810</ele>
        <time>2020-07-25T08:29:45.080Z</time>
      </trkpt>
      <trkpt lat="42.58732" lon="2.07529">
        <ele>1809</ele>
        <time>2020-07-25T08:29:46.080Z</time>
      </trkpt>
      <trkpt lat="42.58735" lon="2.07533">
        <ele>1808</ele>
        <time>2020-07-25T08:29:47.080Z</time>
      </trkpt>
      <trkpt lat="42.58738" lon="2.07537">
        <ele>1807</ele>
        <time>2020-07-25T08:29:48.080Z</time>
      </trkpt>
      <trkpt lat="42.5874" lon="2.07542">
        <ele>1807</ele>
        <time>2020-07-25T08:29:49.080Z</time>
      </trkpt>
      <trkpt lat="42.58743" lon="2.07546">
        <ele>1807</ele>
        <time>2020-07-25T08:29:50.080Z</time>
      </trkpt>
      <trkpt lat="42.58746" lon="2.0755">
        <ele>1807</ele>
        <time>2020-07-25T08:29:51.080Z</time>
      </trkpt>
      <trkpt lat="42.58749" lon="2.07554">
        <ele>1807</ele>
        <time>2020-07-25T08:29:52.080Z</time>
      </trkpt>
      <trkpt lat="42.58753" lon="2.07558">
        <ele>1806</ele>
        <time>2020-07-25T08:29:53.080Z</time>
      </trkpt>
      <trkpt lat="42.58756" lon="2.07561">
        <ele>1806</ele>
        <time>2020-07-25T08:29:54.080Z</time>
      </trkpt>
      <trkpt lat="42.58759" lon="2.07565">
        <ele>1805</ele>
        <time>2020-07-25T08:29:55.080Z</time>
      </trkpt>
      <trkpt lat="42.58762" lon="2.07569">
        <ele>1805</ele>
        <time>2020-07-25T08:29:56.080Z</time>
      </trkpt>
      <trkpt lat="42.58765" lon="2.07572">
        <ele>1805</ele>
        <time>2020-07-25T08:29:57.080Z</time>
      </trkpt>
      <trkpt lat="42.58768" lon="2.07576">
        <ele>1806</ele>
        <time>2020-07-25T08:29:58.080Z</time>
      </trkpt>
      <trkpt lat="42.58772" lon="2.07579">
        <ele>1806</ele>
        <time>2020-07-25T08:29:59.080Z</time>
      </trkpt>
      <trkpt lat="42.58775" lon="2.07582">
        <ele>1806</ele>
        <time>2020-07-25T08:30:00.080Z</time>
      </trkpt>
      <trkpt lat="42.58778" lon="2.07585">
        <ele>1805</ele>
        <time>2020-07-25T08:30:01.080Z</time>
      </trkpt>
      <trkpt lat="42.58781" lon="2.07589">
        <ele>1806</ele>
        <time>2020-07-25T08:30:02.080Z</time>
      </trkpt>
      <trkpt lat="42.58784" lon="2.07592">
        <ele>1806</ele>
        <time>2020-07-25T08:30:03.080Z</time>
      </trkpt>
      <trkpt lat="42.58788" lon="2.07595">
        <ele>1806</ele>
        <time>2020-07-25T08:30:04.080Z</time>
      </trkpt>
      <trkpt lat="42.58792" lon="2.07598">
        <ele>1805</ele>
        <time>2020-07-25T08:30:05.080Z</time>
      </trkpt>
      <trkpt lat="42.58795" lon="2.07601">
        <ele>1806</ele>
        <time>2020-07-25T08:30:06.080Z</time>
      </trkpt>
      <trkpt lat="42.58799" lon="2.07605">
        <ele>1805</ele>
        <time>2020-07-25T08:30:07.080Z</time>
      </trkpt>
      <trkpt lat="42.58802" lon="2.07608">
        <ele>1804</ele>
        <time>2020-07-25T08:30:08.080Z</time>
      </trkpt>
      <trkpt lat="42.58806" lon="2.07612">
        <ele>1804</ele>
        <time>2020-07-25T08:30:09.080Z</time>
      </trkpt>
      <trkpt lat="42.5881" lon="2.07615">
        <ele>1803</ele>
        <time>2020-07-25T08:30:10.080Z</time>
      </trkpt>
      <trkpt lat="42.58813" lon="2.07619">
        <ele>1804</ele>
        <time>2020-07-25T08:30:11.080Z</time>
      </trkpt>
      <trkpt lat="42.58817" lon="2.07623">
        <ele>1804</ele>
        <time>2020-07-25T08:30:12.080Z</time>
      </trkpt>
      <trkpt lat="42.5882" lon="2.07626">
        <ele>1804</ele>
        <time>2020-07-25T08:30:13.080Z</time>
      </trkpt>
      <trkpt lat="42.58824" lon="2.0763">
        <ele>1804</ele>
        <time>2020-07-25T08:30:14.080Z</time>
      </trkpt>
      <trkpt lat="42.58827" lon="2.07633">
        <ele>1804</ele>
        <time>2020-07-25T08:30:15.080Z</time>
      </trkpt>
      <trkpt lat="42.5883" lon="2.07637">
        <ele>1804</ele>
        <time>2020-07-25T08:30:16.080Z</time>
      </trkpt>
      <trkpt lat="42.58832" lon="2.07642">
        <ele>1805</ele>
        <time>2020-07-25T08:30:17.080Z</time>
      </trkpt>
      <trkpt lat="42.58834" lon="2.07646">
        <ele>1805</ele>
        <time>2020-07-25T08:30:18.080Z</time>
      </trkpt>
      <trkpt lat="42.58833" lon="2.07648">
        <ele>1805</ele>
        <time>2020-07-25T08:30:19.080Z</time>
      </trkpt>
      <trkpt lat="42.58833" lon="2.0765">
        <ele>1805</ele>
        <time>2020-07-25T08:30:20.080Z</time>
      </trkpt>
      <trkpt lat="42.58833" lon="2.07651">
        <ele>1805</ele>
        <time>2020-07-25T08:30:21.080Z</time>
      </trkpt>
      <trkpt lat="42.58835" lon="2.07652">
        <ele>1805</ele>
        <time>2020-07-25T08:30:22.080Z</time>
      </trkpt>
      <trkpt lat="42.58837" lon="2.07652">
        <ele>1805</ele>
        <time>2020-07-25T08:30:23.080Z</time>
      </trkpt>
      <trkpt lat="42.58839" lon="2.07653">
        <ele>1805</ele>
        <time>2020-07-25T08:30:24.080Z</time>
      </trkpt>
      <trkpt lat="42.58842" lon="2.07654">
        <ele>1805</ele>
        <time>2020-07-25T08:30:25.080Z</time>
      </trkpt>
      <trkpt lat="42.58845" lon="2.07656">
        <ele>1806</ele>
        <time>2020-07-25T08:30:26.080Z</time>
      </trkpt>
      <trkpt lat="42.58848" lon="2.07657">
        <ele>1806</ele>
        <time>2020-07-25T08:30:27.080Z</time>
      </trkpt>
      <trkpt lat="42.58852" lon="2.07659">
        <ele>1805</ele>
        <time>2020-07-25T08:30:28.080Z</time>
      </trkpt>
      <trkpt lat="42.58855" lon="2.07662">
        <ele>1805</ele>
        <time>2020-07-25T08:30:29.080Z</time>
      </trkpt>
      <trkpt lat="42.58859" lon="2.07664">
        <ele>1804</ele>
        <time>2020-07-25T08:30:30.080Z</time>
      </trkpt>
      <trkpt lat="42.58863" lon="2.07667">
        <ele>1803</ele>
        <time>2020-07-25T08:30:31.080Z</time>
      </trkpt>
      <trkpt lat="42.58866" lon="2.07671">
        <ele>1802</ele>
        <time>2020-07-25T08:30:32.080Z</time>
      </trkpt>
      <trkpt lat="42.58868" lon="2.07676">
        <ele>1801</ele>
        <time>2020-07-25T08:30:33.080Z</time>
      </trkpt>
      <trkpt lat="42.58868" lon="2.0768">
        <ele>1801</ele>
        <time>2020-07-25T08:30:34.080Z</time>
      </trkpt>
      <trkpt lat="42.58867" lon="2.07684">
        <ele>1801</ele>
        <time>2020-07-25T08:30:35.080Z</time>
      </trkpt>
      <trkpt lat="42.58863" lon="2.07685">
        <ele>1799</ele>
        <time>2020-07-25T08:30:36.080Z</time>
      </trkpt>
      <trkpt lat="42.58859" lon="2.07685">
        <ele>1799</ele>
        <time>2020-07-25T08:30:37.080Z</time>
      </trkpt>
      <trkpt lat="42.58855" lon="2.07684">
        <ele>1798</ele>
        <time>2020-07-25T08:30:38.080Z</time>
      </trkpt>
      <trkpt lat="42.58852" lon="2.07682">
        <ele>1797</ele>
        <time>2020-07-25T08:30:39.080Z</time>
      </trkpt>
      <trkpt lat="42.58848" lon="2.0768">
        <ele>1796</ele>
        <time>2020-07-25T08:30:40.080Z</time>
      </trkpt>
      <trkpt lat="42.58844" lon="2.07677">
        <ele>1796</ele>
        <time>2020-07-25T08:30:41.080Z</time>
      </trkpt>
      <trkpt lat="42.58841" lon="2.07675">
        <ele>1796</ele>
        <time>2020-07-25T08:30:42.080Z</time>
      </trkpt>
      <trkpt lat="42.58837" lon="2.07673">
        <ele>1795</ele>
        <time>2020-07-25T08:30:43.080Z</time>
      </trkpt>
      <trkpt lat="42.58833" lon="2.0767">
        <ele>1795</ele>
        <time>2020-07-25T08:30:44.080Z</time>
      </trkpt>
      <trkpt lat="42.5883" lon="2.07668">
        <ele>1794</ele>
        <time>2020-07-25T08:30:45.080Z</time>
      </trkpt>
      <trkpt lat="42.58826" lon="2.07666">
        <ele>1794</ele>
        <time>2020-07-25T08:30:46.080Z</time>
      </trkpt>
      <trkpt lat="42.58822" lon="2.07664">
        <ele>1793</ele>
        <time>2020-07-25T08:30:47.080Z</time>
      </trkpt>
      <trkpt lat="42.58818" lon="2.07661">
        <ele>1792</ele>
        <time>2020-07-25T08:30:48.080Z</time>
      </trkpt>
      <trkpt lat="42.58815" lon="2.07659">
        <ele>1792</ele>
        <time>2020-07-25T08:30:49.080Z</time>
      </trkpt>
      <trkpt lat="42.58811" lon="2.07657">
        <ele>1791</ele>
        <time>2020-07-25T08:30:50.080Z</time>
      </trkpt>
      <trkpt lat="42.58807" lon="2.07655">
        <ele>1791</ele>
        <time>2020-07-25T08:30:51.080Z</time>
      </trkpt>
      <trkpt lat="42.58803" lon="2.07653">
        <ele>1790</ele>
        <time>2020-07-25T08:30:52.080Z</time>
      </trkpt>
      <trkpt lat="42.58799" lon="2.07651">
        <ele>1790</ele>
        <time>2020-07-25T08:30:53.080Z</time>
      </trkpt>
      <trkpt lat="42.58795" lon="2.0765">
        <ele>1790</ele>
        <time>2020-07-25T08:30:54.080Z</time>
      </trkpt>
      <trkpt lat="42.58791" lon="2.07648">
        <ele>1789</ele>
        <time>2020-07-25T08:30:55.080Z</time>
      </trkpt>
      <trkpt lat="42.58787" lon="2.07646">
        <ele>1789</ele>
        <time>2020-07-25T08:30:56.080Z</time>
      </trkpt>
      <trkpt lat="42.58783" lon="2.07644">
        <ele>1788</ele>
        <time>2020-07-25T08:30:57.080Z</time>
      </trkpt>
      <trkpt lat="42.58779" lon="2.07642">
        <ele>1787</ele>
        <time>2020-07-25T08:30:58.080Z</time>
      </trkpt>
      <trkpt lat="42.58775" lon="2.0764">
        <ele>1786</ele>
        <time>2020-07-25T08:30:59.080Z</time>
      </trkpt>
      <trkpt lat="42.58771" lon="2.07638">
        <ele>1786</ele>
        <time>2020-07-25T08:31:00.080Z</time>
      </trkpt>
      <trkpt lat="42.58768" lon="2.07635">
        <ele>1785</ele>
        <time>2020-07-25T08:31:01.080Z</time>
      </trkpt>
      <trkpt lat="42.58764" lon="2.07633">
        <ele>1785</ele>
        <time>2020-07-25T08:31:02.080Z</time>
      </trkpt>
      <trkpt lat="42.5876" lon="2.07631">
        <ele>1785</ele>
        <time>2020-07-25T08:31:03.080Z</time>
      </trkpt>
      <trkpt lat="42.58756" lon="2.07629">
        <ele>1784</ele>
        <time>2020-07-25T08:31:04.080Z</time>
      </trkpt>
      <trkpt lat="42.58752" lon="2.07627">
        <ele>1783</ele>
        <time>2020-07-25T08:31:05.080Z</time>
      </trkpt>
      <trkpt lat="42.58748" lon="2.07624">
        <ele>1782</ele>
        <time>2020-07-25T08:31:06.080Z</time>
      </trkpt>
      <trkpt lat="42.58745" lon="2.07622">
        <ele>1782</ele>
        <time>2020-07-25T08:31:07.080Z</time>
      </trkpt>
      <trkpt lat="42.58741" lon="2.07619">
        <ele>1781</ele>
        <time>2020-07-25T08:31:08.080Z</time>
      </trkpt>
      <trkpt lat="42.58737" lon="2.07616">
        <ele>1780</ele>
        <time>2020-07-25T08:31:09.080Z</time>
      </trkpt>
      <trkpt lat="42.58734" lon="2.07613">
        <ele>1779</ele>
        <time>2020-07-25T08:31:10.080Z</time>
      </trkpt>
      <trkpt lat="42.5873" lon="2.0761">
        <ele>1779</ele>
        <time>2020-07-25T08:31:11.080Z</time>
      </trkpt>
      <trkpt lat="42.58727" lon="2.07607">
        <ele>1778</ele>
        <time>2020-07-25T08:31:12.080Z</time>
      </trkpt>
      <trkpt lat="42.58724" lon="2.07604">
        <ele>1778</ele>
        <time>2020-07-25T08:31:13.080Z</time>
      </trkpt>
      <trkpt lat="42.5872" lon="2.07602">
        <ele>1778</ele>
        <time>2020-07-25T08:31:14.080Z</time>
      </trkpt>
      <trkpt lat="42.58717" lon="2.07599">
        <ele>1777</ele>
        <time>2020-07-25T08:31:15.080Z</time>
      </trkpt>
      <trkpt lat="42.58713" lon="2.07596">
        <ele>1777</ele>
        <time>2020-07-25T08:31:16.080Z</time>
      </trkpt>
      <trkpt lat="42.5871" lon="2.07593">
        <ele>1777</ele>
        <time>2020-07-25T08:31:17.080Z</time>
      </trkpt>
      <trkpt lat="42.58707" lon="2.0759">
        <ele>1776</ele>
        <time>2020-07-25T08:31:18.080Z</time>
      </trkpt>
      <trkpt lat="42.58703" lon="2.07588">
        <ele>1777</ele>
        <time>2020-07-25T08:31:19.080Z</time>
      </trkpt>
      <trkpt lat="42.58699" lon="2.07585">
        <ele>1776</ele>
        <time>2020-07-25T08:31:20.080Z</time>
      </trkpt>
      <trkpt lat="42.58695" lon="2.07583">
        <ele>1776</ele>
        <time>2020-07-25T08:31:21.080Z</time>
      </trkpt>
      <trkpt lat="42.58692" lon="2.0758">
        <ele>1775</ele>
        <time>2020-07-25T08:31:22.080Z</time>
      </trkpt>
      <trkpt lat="42.58688" lon="2.07576">
        <ele>1775</ele>
        <time>2020-07-25T08:31:23.080Z</time>
      </trkpt>
      <trkpt lat="42.58685" lon="2.07573">
        <ele>1774</ele>
        <time>2020-07-25T08:31:24.080Z</time>
      </trkpt>
      <trkpt lat="42.58682" lon="2.0757">
        <ele>1774</ele>
        <time>2020-07-25T08:31:25.080Z</time>
      </trkpt>
      <trkpt lat="42.58678" lon="2.07566">
        <ele>1773</ele>
        <time>2020-07-25T08:31:26.080Z</time>
      </trkpt>
      <trkpt lat="42.58674" lon="2.07563">
        <ele>1772</ele>
        <time>2020-07-25T08:31:27.080Z</time>
      </trkpt>
      <trkpt lat="42.58671" lon="2.07559">
        <ele>1772</ele>
        <time>2020-07-25T08:31:28.080Z</time>
      </trkpt>
      <trkpt lat="42.58667" lon="2.07556">
        <ele>1772</ele>
        <time>2020-07-25T08:31:29.080Z</time>
      </trkpt>
      <trkpt lat="42.58664" lon="2.07553">
        <ele>1772</ele>
        <time>2020-07-25T08:31:30.080Z</time>
      </trkpt>
      <trkpt lat="42.58661" lon="2.0755">
        <ele>1771</ele>
        <time>2020-07-25T08:31:31.080Z</time>
      </trkpt>
      <trkpt lat="42.58657" lon="2.07547">
        <ele>1770</ele>
        <time>2020-07-25T08:31:32.080Z</time>
      </trkpt>
      <trkpt lat="42.58654" lon="2.07544">
        <ele>1770</ele>
        <time>2020-07-25T08:31:33.080Z</time>
      </trkpt>
      <trkpt lat="42.58651" lon="2.07541">
        <ele>1770</ele>
        <time>2020-07-25T08:31:34.080Z</time>
      </trkpt>
      <trkpt lat="42.58647" lon="2.07538">
        <ele>1769</ele>
        <time>2020-07-25T08:31:35.080Z</time>
      </trkpt>
      <trkpt lat="42.58644" lon="2.07535">
        <ele>1768</ele>
        <time>2020-07-25T08:31:36.080Z</time>
      </trkpt>
      <trkpt lat="42.58641" lon="2.07532">
        <ele>1768</ele>
        <time>2020-07-25T08:31:37.080Z</time>
      </trkpt>
      <trkpt lat="42.58638" lon="2.0753">
        <ele>1767</ele>
        <time>2020-07-25T08:31:38.080Z</time>
      </trkpt>
      <trkpt lat="42.58634" lon="2.07527">
        <ele>1767</ele>
        <time>2020-07-25T08:31:39.080Z</time>
      </trkpt>
      <trkpt lat="42.58631" lon="2.07524">
        <ele>1766</ele>
        <time>2020-07-25T08:31:40.080Z</time>
      </trkpt>
      <trkpt lat="42.58627" lon="2.07521">
        <ele>1767</ele>
        <time>2020-07-25T08:31:41.080Z</time>
      </trkpt>
      <trkpt lat="42.58623" lon="2.07518">
        <ele>1767</ele>
        <time>2020-07-25T08:31:42.080Z</time>
      </trkpt>
      <trkpt lat="42.58619" lon="2.07515">
        <ele>1768</ele>
        <time>2020-07-25T08:31:43.080Z</time>
      </trkpt>
      <trkpt lat="42.58616" lon="2.07512">
        <ele>1767</ele>
        <time>2020-07-25T08:31:44.080Z</time>
      </trkpt>
      <trkpt lat="42.58612" lon="2.0751">
        <ele>1767</ele>
        <time>2020-07-25T08:31:45.080Z</time>
      </trkpt>
      <trkpt lat="42.58608" lon="2.07507">
        <ele>1767</ele>
        <time>2020-07-25T08:31:46.080Z</time>
      </trkpt>
      <trkpt lat="42.58604" lon="2.07505">
        <ele>1767</ele>
        <time>2020-07-25T08:31:47.080Z</time>
      </trkpt>
      <trkpt lat="42.58601" lon="2.07503">
        <ele>1767</ele>
        <time>2020-07-25T08:31:48.080Z</time>
      </trkpt>
      <trkpt lat="42.58597" lon="2.075">
        <ele>1767</ele>
        <time>2020-07-25T08:31:49.080Z</time>
      </trkpt>
      <trkpt lat="42.58593" lon="2.07498">
        <ele>1766</ele>
        <time>2020-07-25T08:31:50.080Z</time>
      </trkpt>
      <trkpt lat="42.58589" lon="2.07496">
        <ele>1766</ele>
        <time>2020-07-25T08:31:51.080Z</time>
      </trkpt>
      <trkpt lat="42.58585" lon="2.07493">
        <ele>1765</ele>
        <time>2020-07-25T08:31:52.080Z</time>
      </trkpt>
      <trkpt lat="42.58582" lon="2.07491">
        <ele>1765</ele>
        <time>2020-07-25T08:31:53.080Z</time>
      </trkpt>
      <trkpt lat="42.58578" lon="2.07488">
        <ele>1763</ele>
        <time>2020-07-25T08:31:54.080Z</time>
      </trkpt>
      <trkpt lat="42.58574" lon="2.07485">
        <ele>1763</ele>
        <time>2020-07-25T08:31:55.080Z</time>
      </trkpt>
      <trkpt lat="42.58571" lon="2.07483">
        <ele>1763</ele>
        <time>2020-07-25T08:31:56.080Z</time>
      </trkpt>
      <trkpt lat="42.58567" lon="2.0748">
        <ele>1763</ele>
        <time>2020-07-25T08:31:57.080Z</time>
      </trkpt>
      <trkpt lat="42.58563" lon="2.07478">
        <ele>1762</ele>
        <time>2020-07-25T08:31:58.080Z</time>
      </trkpt>
      <trkpt lat="42.5856" lon="2.07475">
        <ele>1762</ele>
        <time>2020-07-25T08:31:59.080Z</time>
      </trkpt>
      <trkpt lat="42.58557" lon="2.07472">
        <ele>1762</ele>
        <time>2020-07-25T08:32:00.080Z</time>
      </trkpt>
      <trkpt lat="42.58553" lon="2.07469">
        <ele>1761</ele>
        <time>2020-07-25T08:32:01.080Z</time>
      </trkpt>
      <trkpt lat="42.5855" lon="2.07466">
        <ele>1760</ele>
        <time>2020-07-25T08:32:02.080Z</time>
      </trkpt>
      <trkpt lat="42.58547" lon="2.07463">
        <ele>1760</ele>
        <time>2020-07-25T08:32:03.080Z</time>
      </trkpt>
      <trkpt lat="42.58543" lon="2.0746">
        <ele>1759</ele>
        <time>2020-07-25T08:32:04.080Z</time>
      </trkpt>
      <trkpt lat="42.5854" lon="2.07457">
        <ele>1759</ele>
        <time>2020-07-25T08:32:05.080Z</time>
      </trkpt>
      <trkpt lat="42.58536" lon="2.07454">
        <ele>1758</ele>
        <time>2020-07-25T08:32:06.080Z</time>
      </trkpt>
      <trkpt lat="42.58533" lon="2.07451">
        <ele>1758</ele>
        <time>2020-07-25T08:32:07.080Z</time>
      </trkpt>
      <trkpt lat="42.5853" lon="2.07448">
        <ele>1757</ele>
        <time>2020-07-25T08:32:08.080Z</time>
      </trkpt>
      <trkpt lat="42.58527" lon="2.07445">
        <ele>1756</ele>
        <time>2020-07-25T08:32:09.080Z</time>
      </trkpt>
      <trkpt lat="42.58524" lon="2.07442">
        <ele>1755</ele>
        <time>2020-07-25T08:32:10.080Z</time>
      </trkpt>
      <trkpt lat="42.58521" lon="2.07439">
        <ele>1754</ele>
        <time>2020-07-25T08:32:11.080Z</time>
      </trkpt>
      <trkpt lat="42.58518" lon="2.07436">
        <ele>1754</ele>
        <time>2020-07-25T08:32:12.080Z</time>
      </trkpt>
      <trkpt lat="42.58515" lon="2.07434">
        <ele>1753</ele>
        <time>2020-07-25T08:32:13.080Z</time>
      </trkpt>
      <trkpt lat="42.58511" lon="2.07431">
        <ele>1753</ele>
        <time>2020-07-25T08:32:14.080Z</time>
      </trkpt>
      <trkpt lat="42.58508" lon="2.07429">
        <ele>1753</ele>
        <time>2020-07-25T08:32:15.080Z</time>
      </trkpt>
      <trkpt lat="42.58504" lon="2.07427">
        <ele>1752</ele>
        <time>2020-07-25T08:32:16.080Z</time>
      </trkpt>
      <trkpt lat="42.58501" lon="2.07425">
        <ele>1752</ele>
        <time>2020-07-25T08:32:17.080Z</time>
      </trkpt>
      <trkpt lat="42.58498" lon="2.07423">
        <ele>1751</ele>
        <time>2020-07-25T08:32:18.080Z</time>
      </trkpt>
      <trkpt lat="42.58494" lon="2.0742">
        <ele>1751</ele>
        <time>2020-07-25T08:32:19.080Z</time>
      </trkpt>
      <trkpt lat="42.58491" lon="2.07417">
        <ele>1750</ele>
        <time>2020-07-25T08:32:20.080Z</time>
      </trkpt>
      <trkpt lat="42.58487" lon="2.07414">
        <ele>1749</ele>
        <time>2020-07-25T08:32:21.080Z</time>
      </trkpt>
      <trkpt lat="42.58484" lon="2.07411">
        <ele>1749</ele>
        <time>2020-07-25T08:32:22.080Z</time>
      </trkpt>
      <trkpt lat="42.58481" lon="2.07408">
        <ele>1747</ele>
        <time>2020-07-25T08:32:23.080Z</time>
      </trkpt>
      <trkpt lat="42.58477" lon="2.07405">
        <ele>1747</ele>
        <time>2020-07-25T08:32:24.080Z</time>
      </trkpt>
      <trkpt lat="42.58474" lon="2.07402">
        <ele>1747</ele>
        <time>2020-07-25T08:32:25.080Z</time>
      </trkpt>
      <trkpt lat="42.5847" lon="2.074">
        <ele>1745</ele>
        <time>2020-07-25T08:32:26.080Z</time>
      </trkpt>
      <trkpt lat="42.58467" lon="2.07397">
        <ele>1743</ele>
        <time>2020-07-25T08:32:27.080Z</time>
      </trkpt>
      <trkpt lat="42.58464" lon="2.07394">
        <ele>1742</ele>
        <time>2020-07-25T08:32:28.080Z</time>
      </trkpt>
      <trkpt lat="42.58461" lon="2.07392">
        <ele>1741</ele>
        <time>2020-07-25T08:32:29.080Z</time>
      </trkpt>
      <trkpt lat="42.58457" lon="2.07389">
        <ele>1741</ele>
        <time>2020-07-25T08:32:30.080Z</time>
      </trkpt>
      <trkpt lat="42.58454" lon="2.07386">
        <ele>1740</ele>
        <time>2020-07-25T08:32:31.080Z</time>
      </trkpt>
      <trkpt lat="42.5845" lon="2.07383">
        <ele>1740</ele>
        <time>2020-07-25T08:32:32.080Z</time>
      </trkpt>
      <trkpt lat="42.58446" lon="2.07381">
        <ele>1739</ele>
        <time>2020-07-25T08:32:33.080Z</time>
      </trkpt>
      <trkpt lat="42.58443" lon="2.07378">
        <ele>1738</ele>
        <time>2020-07-25T08:32:34.080Z</time>
      </trkpt>
      <trkpt lat="42.58439" lon="2.07375">
        <ele>1738</ele>
        <time>2020-07-25T08:32:35.080Z</time>
      </trkpt>
      <trkpt lat="42.58436" lon="2.07372">
        <ele>1737</ele>
        <time>2020-07-25T08:32:36.080Z</time>
      </trkpt>
      <trkpt lat="42.58433" lon="2.07369">
        <ele>1736</ele>
        <time>2020-07-25T08:32:37.080Z</time>
      </trkpt>
      <trkpt lat="42.58429" lon="2.07366">
        <ele>1736</ele>
        <time>2020-07-25T08:32:38.080Z</time>
      </trkpt>
      <trkpt lat="42.58425" lon="2.07364">
        <ele>1736</ele>
        <time>2020-07-25T08:32:39.080Z</time>
      </trkpt>
      <trkpt lat="42.58421" lon="2.07361">
        <ele>1737</ele>
        <time>2020-07-25T08:32:40.080Z</time>
      </trkpt>
      <trkpt lat="42.58417" lon="2.07358">
        <ele>1736</ele>
        <time>2020-07-25T08:32:41.080Z</time>
      </trkpt>
      <trkpt lat="42.58414" lon="2.07355">
        <ele>1736</ele>
        <time>2020-07-25T08:32:42.080Z</time>
      </trkpt>
      <trkpt lat="42.5841" lon="2.07352">
        <ele>1735</ele>
        <time>2020-07-25T08:32:43.080Z</time>
      </trkpt>
      <trkpt lat="42.58406" lon="2.07349">
        <ele>1735</ele>
        <time>2020-07-25T08:32:44.080Z</time>
      </trkpt>
      <trkpt lat="42.58403" lon="2.07346">
        <ele>1735</ele>
        <time>2020-07-25T08:32:45.080Z</time>
      </trkpt>
      <trkpt lat="42.58399" lon="2.07342">
        <ele>1735</ele>
        <time>2020-07-25T08:32:46.080Z</time>
      </trkpt>
      <trkpt lat="42.58395" lon="2.07339">
        <ele>1735</ele>
        <time>2020-07-25T08:32:47.080Z</time>
      </trkpt>
      <trkpt lat="42.58391" lon="2.07336">
        <ele>1736</ele>
        <time>2020-07-25T08:32:48.080Z</time>
      </trkpt>
      <trkpt lat="42.58387" lon="2.07333">
        <ele>1735</ele>
        <time>2020-07-25T08:32:49.080Z</time>
      </trkpt>
      <trkpt lat="42.58384" lon="2.0733">
        <ele>1734</ele>
        <time>2020-07-25T08:32:50.080Z</time>
      </trkpt>
      <trkpt lat="42.58381" lon="2.07328">
        <ele>1735</ele>
        <time>2020-07-25T08:32:51.080Z</time>
      </trkpt>
    </trkseg>
  </trk>
</gpx>